<?xml version="1.0" encoding="UTF-8" standalone="no" ?>
<gpx xmlns="http://www.topografix.com/GPX/1/1" xmlns:xsi="http://www.w3.org/2001/XMLSchema-instance" xsi:schemaLocation="http://www.topografix.com/GPX/1/1 http://www.topografix.com/GPX/1/1/gpx.xsd" version="1.1" creator="VisuGPX - https://www.visugpx.com">
  <metadata>
    <name>Tour du Beaufortain 6 jours</name>
    <desc><![CDATA[Détour par le "lac" des Saisies]]></desc>
  </metadata>
  <trk>
    <name><![CDATA[Marthod Randonnée]]></name>
    <extensions>
      <line xmlns="http://www.topografix.com/GPX/gpx_style/0/2">
        <color>FF00FF</color>
        <width>4</width>
      </line>
    </extensions>
    <trkseg>
      <trkpt lat="45.74381" lon="6.48653">
        <ele>1540</ele>
        <time>2022-07-24T04:41:26Z</time>
      </trkpt>
      <trkpt lat="45.74381" lon="6.48653">
        <ele>1540</ele>
        <time>2022-07-24T04:41:27Z</time>
      </trkpt>
      <trkpt lat="45.74381" lon="6.48652">
        <ele>1540</ele>
        <time>2022-07-24T04:41:28Z</time>
      </trkpt>
      <trkpt lat="45.74382" lon="6.48652">
        <ele>1540</ele>
        <time>2022-07-24T04:41:29Z</time>
      </trkpt>
      <trkpt lat="45.74382" lon="6.48651">
        <ele>1540</ele>
        <time>2022-07-24T04:41:30Z</time>
      </trkpt>
      <trkpt lat="45.74383" lon="6.4865">
        <ele>1540</ele>
        <time>2022-07-24T04:41:31Z</time>
      </trkpt>
      <trkpt lat="45.74383" lon="6.48649">
        <ele>1540</ele>
        <time>2022-07-24T04:41:32Z</time>
      </trkpt>
      <trkpt lat="45.74384" lon="6.48648">
        <ele>1540</ele>
        <time>2022-07-24T04:41:33Z</time>
      </trkpt>
      <trkpt lat="45.74384" lon="6.48647">
        <ele>1540</ele>
        <time>2022-07-24T04:41:34Z</time>
      </trkpt>
      <trkpt lat="45.74385" lon="6.48646">
        <ele>1540</ele>
        <time>2022-07-24T04:41:35Z</time>
      </trkpt>
      <trkpt lat="45.74385" lon="6.48645">
        <ele>1540</ele>
        <time>2022-07-24T04:41:36Z</time>
      </trkpt>
      <trkpt lat="45.74386" lon="6.48644">
        <ele>1540</ele>
        <time>2022-07-24T04:41:37Z</time>
      </trkpt>
      <trkpt lat="45.74386" lon="6.48643">
        <ele>1540</ele>
        <time>2022-07-24T04:41:38Z</time>
      </trkpt>
      <trkpt lat="45.74387" lon="6.48641">
        <ele>1540</ele>
        <time>2022-07-24T04:41:39Z</time>
      </trkpt>
      <trkpt lat="45.74387" lon="6.4864">
        <ele>1539</ele>
        <time>2022-07-24T04:41:40Z</time>
      </trkpt>
      <trkpt lat="45.74388" lon="6.48639">
        <ele>1539</ele>
        <time>2022-07-24T04:41:41Z</time>
      </trkpt>
      <trkpt lat="45.74389" lon="6.48638">
        <ele>1539</ele>
        <time>2022-07-24T04:41:42Z</time>
      </trkpt>
      <trkpt lat="45.7439" lon="6.48637">
        <ele>1539</ele>
        <time>2022-07-24T04:41:43Z</time>
      </trkpt>
      <trkpt lat="45.74391" lon="6.48637">
        <ele>1539</ele>
        <time>2022-07-24T04:41:44Z</time>
      </trkpt>
      <trkpt lat="45.74392" lon="6.48637">
        <ele>1538</ele>
        <time>2022-07-24T04:41:45Z</time>
      </trkpt>
      <trkpt lat="45.74393" lon="6.48638">
        <ele>1538</ele>
        <time>2022-07-24T04:41:46Z</time>
      </trkpt>
      <trkpt lat="45.74394" lon="6.48639">
        <ele>1538</ele>
        <time>2022-07-24T04:41:47Z</time>
      </trkpt>
      <trkpt lat="45.74395" lon="6.4864">
        <ele>1538</ele>
        <time>2022-07-24T04:41:48Z</time>
      </trkpt>
      <trkpt lat="45.74396" lon="6.48642">
        <ele>1538</ele>
        <time>2022-07-24T04:41:49Z</time>
      </trkpt>
      <trkpt lat="45.74396" lon="6.48643">
        <ele>1538</ele>
        <time>2022-07-24T04:41:50Z</time>
      </trkpt>
      <trkpt lat="45.74396" lon="6.48644">
        <ele>1538</ele>
        <time>2022-07-24T04:41:51Z</time>
      </trkpt>
      <trkpt lat="45.74397" lon="6.48645">
        <ele>1538</ele>
        <time>2022-07-24T04:41:52Z</time>
      </trkpt>
      <trkpt lat="45.74397" lon="6.48646">
        <ele>1538</ele>
        <time>2022-07-24T04:41:53Z</time>
      </trkpt>
      <trkpt lat="45.74397" lon="6.48647">
        <ele>1538</ele>
        <time>2022-07-24T04:41:54Z</time>
      </trkpt>
      <trkpt lat="45.74397" lon="6.48648">
        <ele>1538</ele>
        <time>2022-07-24T04:41:55Z</time>
      </trkpt>
      <trkpt lat="45.74397" lon="6.4865">
        <ele>1538</ele>
        <time>2022-07-24T04:41:56Z</time>
      </trkpt>
      <trkpt lat="45.74397" lon="6.48651">
        <ele>1538</ele>
        <time>2022-07-24T04:41:57Z</time>
      </trkpt>
      <trkpt lat="45.74397" lon="6.48652">
        <ele>1538</ele>
        <time>2022-07-24T04:41:58Z</time>
      </trkpt>
      <trkpt lat="45.74397" lon="6.48653">
        <ele>1538</ele>
        <time>2022-07-24T04:41:59Z</time>
      </trkpt>
      <trkpt lat="45.74397" lon="6.48653">
        <ele>1537</ele>
        <time>2022-07-24T04:42:00Z</time>
      </trkpt>
      <trkpt lat="45.74397" lon="6.48654">
        <ele>1537</ele>
        <time>2022-07-24T04:42:01Z</time>
      </trkpt>
      <trkpt lat="45.74397" lon="6.48654">
        <ele>1537</ele>
        <time>2022-07-24T04:42:02Z</time>
      </trkpt>
      <trkpt lat="45.74397" lon="6.48655">
        <ele>1537</ele>
        <time>2022-07-24T04:42:03Z</time>
      </trkpt>
      <trkpt lat="45.74396" lon="6.48656">
        <ele>1537</ele>
        <time>2022-07-24T04:42:04Z</time>
      </trkpt>
      <trkpt lat="45.74396" lon="6.48658">
        <ele>1537</ele>
        <time>2022-07-24T04:42:05Z</time>
      </trkpt>
      <trkpt lat="45.74396" lon="6.48659">
        <ele>1537</ele>
        <time>2022-07-24T04:42:06Z</time>
      </trkpt>
      <trkpt lat="45.74396" lon="6.4866">
        <ele>1537</ele>
        <time>2022-07-24T04:42:07Z</time>
      </trkpt>
      <trkpt lat="45.74396" lon="6.48662">
        <ele>1537</ele>
        <time>2022-07-24T04:42:08Z</time>
      </trkpt>
      <trkpt lat="45.74396" lon="6.48663">
        <ele>1537</ele>
        <time>2022-07-24T04:42:09Z</time>
      </trkpt>
      <trkpt lat="45.74395" lon="6.48665">
        <ele>1537</ele>
        <time>2022-07-24T04:42:10Z</time>
      </trkpt>
      <trkpt lat="45.74395" lon="6.48666">
        <ele>1537</ele>
        <time>2022-07-24T04:42:11Z</time>
      </trkpt>
      <trkpt lat="45.74395" lon="6.48667">
        <ele>1537</ele>
        <time>2022-07-24T04:42:12Z</time>
      </trkpt>
      <trkpt lat="45.74395" lon="6.48668">
        <ele>1537</ele>
        <time>2022-07-24T04:42:13Z</time>
      </trkpt>
      <trkpt lat="45.74394" lon="6.48669">
        <ele>1537</ele>
        <time>2022-07-24T04:42:14Z</time>
      </trkpt>
      <trkpt lat="45.74394" lon="6.48669">
        <ele>1537</ele>
        <time>2022-07-24T04:42:15Z</time>
      </trkpt>
      <trkpt lat="45.74394" lon="6.4867">
        <ele>1537</ele>
        <time>2022-07-24T04:42:16Z</time>
      </trkpt>
      <trkpt lat="45.74394" lon="6.48671">
        <ele>1537</ele>
        <time>2022-07-24T04:42:17Z</time>
      </trkpt>
      <trkpt lat="45.74393" lon="6.48671">
        <ele>1537</ele>
        <time>2022-07-24T04:42:18Z</time>
      </trkpt>
      <trkpt lat="45.74393" lon="6.48673">
        <ele>1537</ele>
        <time>2022-07-24T04:42:19Z</time>
      </trkpt>
      <trkpt lat="45.74393" lon="6.48674">
        <ele>1537</ele>
        <time>2022-07-24T04:42:20Z</time>
      </trkpt>
      <trkpt lat="45.74393" lon="6.48675">
        <ele>1537</ele>
        <time>2022-07-24T04:42:21Z</time>
      </trkpt>
      <trkpt lat="45.74393" lon="6.48676">
        <ele>1537</ele>
        <time>2022-07-24T04:42:22Z</time>
      </trkpt>
      <trkpt lat="45.74393" lon="6.48678">
        <ele>1537</ele>
        <time>2022-07-24T04:42:23Z</time>
      </trkpt>
      <trkpt lat="45.74393" lon="6.48679">
        <ele>1538</ele>
        <time>2022-07-24T04:42:24Z</time>
      </trkpt>
      <trkpt lat="45.74394" lon="6.4868">
        <ele>1538</ele>
        <time>2022-07-24T04:42:25Z</time>
      </trkpt>
      <trkpt lat="45.74394" lon="6.48681">
        <ele>1538</ele>
        <time>2022-07-24T04:42:26Z</time>
      </trkpt>
      <trkpt lat="45.74394" lon="6.48682">
        <ele>1538</ele>
        <time>2022-07-24T04:42:27Z</time>
      </trkpt>
      <trkpt lat="45.74394" lon="6.48684">
        <ele>1538</ele>
        <time>2022-07-24T04:42:28Z</time>
      </trkpt>
      <trkpt lat="45.74394" lon="6.48685">
        <ele>1538</ele>
        <time>2022-07-24T04:42:29Z</time>
      </trkpt>
      <trkpt lat="45.74394" lon="6.48686">
        <ele>1538</ele>
        <time>2022-07-24T04:42:30Z</time>
      </trkpt>
      <trkpt lat="45.74394" lon="6.48687">
        <ele>1538</ele>
        <time>2022-07-24T04:42:31Z</time>
      </trkpt>
      <trkpt lat="45.74394" lon="6.48688">
        <ele>1538</ele>
        <time>2022-07-24T04:42:32Z</time>
      </trkpt>
      <trkpt lat="45.74394" lon="6.48689">
        <ele>1538</ele>
        <time>2022-07-24T04:42:33Z</time>
      </trkpt>
      <trkpt lat="45.74394" lon="6.48691">
        <ele>1538</ele>
        <time>2022-07-24T04:42:34Z</time>
      </trkpt>
      <trkpt lat="45.74395" lon="6.48692">
        <ele>1538</ele>
        <time>2022-07-24T04:42:35Z</time>
      </trkpt>
      <trkpt lat="45.74395" lon="6.48693">
        <ele>1538</ele>
        <time>2022-07-24T04:42:36Z</time>
      </trkpt>
      <trkpt lat="45.74395" lon="6.48694">
        <ele>1538</ele>
        <time>2022-07-24T04:42:37Z</time>
      </trkpt>
      <trkpt lat="45.74396" lon="6.48695">
        <ele>1538</ele>
        <time>2022-07-24T04:42:38Z</time>
      </trkpt>
      <trkpt lat="45.74396" lon="6.48696">
        <ele>1538</ele>
        <time>2022-07-24T04:42:39Z</time>
      </trkpt>
      <trkpt lat="45.74397" lon="6.48697">
        <ele>1538</ele>
        <time>2022-07-24T04:42:40Z</time>
      </trkpt>
      <trkpt lat="45.74397" lon="6.48698">
        <ele>1538</ele>
        <time>2022-07-24T04:42:41Z</time>
      </trkpt>
      <trkpt lat="45.74397" lon="6.48699">
        <ele>1538</ele>
        <time>2022-07-24T04:42:42Z</time>
      </trkpt>
      <trkpt lat="45.74398" lon="6.487">
        <ele>1538</ele>
        <time>2022-07-24T04:42:43Z</time>
      </trkpt>
      <trkpt lat="45.74398" lon="6.48701">
        <ele>1539</ele>
        <time>2022-07-24T04:42:44Z</time>
      </trkpt>
      <trkpt lat="45.74399" lon="6.48702">
        <ele>1539</ele>
        <time>2022-07-24T04:42:45Z</time>
      </trkpt>
      <trkpt lat="45.74399" lon="6.48703">
        <ele>1539</ele>
        <time>2022-07-24T04:42:46Z</time>
      </trkpt>
      <trkpt lat="45.744" lon="6.48704">
        <ele>1539</ele>
        <time>2022-07-24T04:42:47Z</time>
      </trkpt>
      <trkpt lat="45.744" lon="6.48705">
        <ele>1539</ele>
        <time>2022-07-24T04:42:48Z</time>
      </trkpt>
      <trkpt lat="45.74401" lon="6.48706">
        <ele>1539</ele>
        <time>2022-07-24T04:42:49Z</time>
      </trkpt>
      <trkpt lat="45.74401" lon="6.48707">
        <ele>1539</ele>
        <time>2022-07-24T04:42:50Z</time>
      </trkpt>
      <trkpt lat="45.74402" lon="6.48708">
        <ele>1539</ele>
        <time>2022-07-24T04:42:51Z</time>
      </trkpt>
      <trkpt lat="45.74402" lon="6.48709">
        <ele>1539</ele>
        <time>2022-07-24T04:42:52Z</time>
      </trkpt>
      <trkpt lat="45.74403" lon="6.4871">
        <ele>1539</ele>
        <time>2022-07-24T04:42:53Z</time>
      </trkpt>
      <trkpt lat="45.74403" lon="6.48711">
        <ele>1539</ele>
        <time>2022-07-24T04:42:54Z</time>
      </trkpt>
      <trkpt lat="45.74404" lon="6.48712">
        <ele>1539</ele>
        <time>2022-07-24T04:42:55Z</time>
      </trkpt>
      <trkpt lat="45.74404" lon="6.48713">
        <ele>1539</ele>
        <time>2022-07-24T04:42:56Z</time>
      </trkpt>
      <trkpt lat="45.74404" lon="6.48714">
        <ele>1539</ele>
        <time>2022-07-24T04:42:57Z</time>
      </trkpt>
      <trkpt lat="45.74405" lon="6.48715">
        <ele>1539</ele>
        <time>2022-07-24T04:42:58Z</time>
      </trkpt>
      <trkpt lat="45.74405" lon="6.48716">
        <ele>1539</ele>
        <time>2022-07-24T04:42:59Z</time>
      </trkpt>
      <trkpt lat="45.74406" lon="6.48717">
        <ele>1539</ele>
        <time>2022-07-24T04:43:00Z</time>
      </trkpt>
      <trkpt lat="45.74406" lon="6.48718">
        <ele>1539</ele>
        <time>2022-07-24T04:43:01Z</time>
      </trkpt>
      <trkpt lat="45.74407" lon="6.48719">
        <ele>1539</ele>
        <time>2022-07-24T04:43:02Z</time>
      </trkpt>
      <trkpt lat="45.74407" lon="6.4872">
        <ele>1539</ele>
        <time>2022-07-24T04:43:03Z</time>
      </trkpt>
      <trkpt lat="45.74408" lon="6.48721">
        <ele>1540</ele>
        <time>2022-07-24T04:43:04Z</time>
      </trkpt>
      <trkpt lat="45.74408" lon="6.48722">
        <ele>1540</ele>
        <time>2022-07-24T04:43:05Z</time>
      </trkpt>
      <trkpt lat="45.74409" lon="6.48723">
        <ele>1540</ele>
        <time>2022-07-24T04:43:06Z</time>
      </trkpt>
      <trkpt lat="45.74409" lon="6.48724">
        <ele>1540</ele>
        <time>2022-07-24T04:43:07Z</time>
      </trkpt>
      <trkpt lat="45.74409" lon="6.48725">
        <ele>1540</ele>
        <time>2022-07-24T04:43:08Z</time>
      </trkpt>
      <trkpt lat="45.7441" lon="6.48726">
        <ele>1540</ele>
        <time>2022-07-24T04:43:09Z</time>
      </trkpt>
      <trkpt lat="45.7441" lon="6.48727">
        <ele>1540</ele>
        <time>2022-07-24T04:43:10Z</time>
      </trkpt>
      <trkpt lat="45.7441" lon="6.48728">
        <ele>1540</ele>
        <time>2022-07-24T04:43:11Z</time>
      </trkpt>
      <trkpt lat="45.7441" lon="6.48729">
        <ele>1540</ele>
        <time>2022-07-24T04:43:12Z</time>
      </trkpt>
      <trkpt lat="45.74411" lon="6.4873">
        <ele>1540</ele>
        <time>2022-07-24T04:43:13Z</time>
      </trkpt>
      <trkpt lat="45.74411" lon="6.48731">
        <ele>1540</ele>
        <time>2022-07-24T04:43:14Z</time>
      </trkpt>
      <trkpt lat="45.74411" lon="6.48731">
        <ele>1540</ele>
        <time>2022-07-24T04:43:15Z</time>
      </trkpt>
      <trkpt lat="45.74411" lon="6.48732">
        <ele>1540</ele>
        <time>2022-07-24T04:43:16Z</time>
      </trkpt>
      <trkpt lat="45.74411" lon="6.48733">
        <ele>1540</ele>
        <time>2022-07-24T04:43:17Z</time>
      </trkpt>
      <trkpt lat="45.74412" lon="6.48734">
        <ele>1540</ele>
        <time>2022-07-24T04:43:18Z</time>
      </trkpt>
      <trkpt lat="45.74412" lon="6.48735">
        <ele>1541</ele>
        <time>2022-07-24T04:43:19Z</time>
      </trkpt>
      <trkpt lat="45.74412" lon="6.48736">
        <ele>1541</ele>
        <time>2022-07-24T04:43:20Z</time>
      </trkpt>
      <trkpt lat="45.74413" lon="6.48738">
        <ele>1541</ele>
        <time>2022-07-24T04:43:21Z</time>
      </trkpt>
      <trkpt lat="45.74413" lon="6.48739">
        <ele>1541</ele>
        <time>2022-07-24T04:43:22Z</time>
      </trkpt>
      <trkpt lat="45.74413" lon="6.4874">
        <ele>1541</ele>
        <time>2022-07-24T04:43:23Z</time>
      </trkpt>
      <trkpt lat="45.74413" lon="6.48741">
        <ele>1541</ele>
        <time>2022-07-24T04:43:24Z</time>
      </trkpt>
      <trkpt lat="45.74414" lon="6.48742">
        <ele>1541</ele>
        <time>2022-07-24T04:43:25Z</time>
      </trkpt>
      <trkpt lat="45.74414" lon="6.48743">
        <ele>1541</ele>
        <time>2022-07-24T04:43:26Z</time>
      </trkpt>
      <trkpt lat="45.74415" lon="6.48744">
        <ele>1541</ele>
        <time>2022-07-24T04:43:27Z</time>
      </trkpt>
      <trkpt lat="45.74415" lon="6.48745">
        <ele>1541</ele>
        <time>2022-07-24T04:43:28Z</time>
      </trkpt>
      <trkpt lat="45.74416" lon="6.48746">
        <ele>1541</ele>
        <time>2022-07-24T04:43:29Z</time>
      </trkpt>
      <trkpt lat="45.74416" lon="6.48747">
        <ele>1541</ele>
        <time>2022-07-24T04:43:30Z</time>
      </trkpt>
      <trkpt lat="45.74417" lon="6.48748">
        <ele>1541</ele>
        <time>2022-07-24T04:43:31Z</time>
      </trkpt>
      <trkpt lat="45.74418" lon="6.48749">
        <ele>1541</ele>
        <time>2022-07-24T04:43:32Z</time>
      </trkpt>
      <trkpt lat="45.74418" lon="6.4875">
        <ele>1541</ele>
        <time>2022-07-24T04:43:33Z</time>
      </trkpt>
      <trkpt lat="45.74419" lon="6.48751">
        <ele>1542</ele>
        <time>2022-07-24T04:43:34Z</time>
      </trkpt>
      <trkpt lat="45.74419" lon="6.48752">
        <ele>1542</ele>
        <time>2022-07-24T04:43:35Z</time>
      </trkpt>
      <trkpt lat="45.74419" lon="6.48753">
        <ele>1542</ele>
        <time>2022-07-24T04:43:36Z</time>
      </trkpt>
      <trkpt lat="45.7442" lon="6.48754">
        <ele>1542</ele>
        <time>2022-07-24T04:43:37Z</time>
      </trkpt>
      <trkpt lat="45.7442" lon="6.48755">
        <ele>1542</ele>
        <time>2022-07-24T04:43:38Z</time>
      </trkpt>
      <trkpt lat="45.7442" lon="6.48756">
        <ele>1542</ele>
        <time>2022-07-24T04:43:39Z</time>
      </trkpt>
      <trkpt lat="45.7442" lon="6.48758">
        <ele>1542</ele>
        <time>2022-07-24T04:43:40Z</time>
      </trkpt>
      <trkpt lat="45.74421" lon="6.48759">
        <ele>1542</ele>
        <time>2022-07-24T04:43:41Z</time>
      </trkpt>
      <trkpt lat="45.74421" lon="6.4876">
        <ele>1542</ele>
        <time>2022-07-24T04:43:42Z</time>
      </trkpt>
      <trkpt lat="45.74421" lon="6.48761">
        <ele>1542</ele>
        <time>2022-07-24T04:43:43Z</time>
      </trkpt>
      <trkpt lat="45.74421" lon="6.48762">
        <ele>1543</ele>
        <time>2022-07-24T04:43:44Z</time>
      </trkpt>
      <trkpt lat="45.74421" lon="6.48764">
        <ele>1543</ele>
        <time>2022-07-24T04:43:45Z</time>
      </trkpt>
      <trkpt lat="45.74421" lon="6.48765">
        <ele>1543</ele>
        <time>2022-07-24T04:43:46Z</time>
      </trkpt>
      <trkpt lat="45.74421" lon="6.48766">
        <ele>1543</ele>
        <time>2022-07-24T04:43:47Z</time>
      </trkpt>
      <trkpt lat="45.74422" lon="6.48767">
        <ele>1543</ele>
        <time>2022-07-24T04:43:48Z</time>
      </trkpt>
      <trkpt lat="45.74422" lon="6.48768">
        <ele>1543</ele>
        <time>2022-07-24T04:43:49Z</time>
      </trkpt>
      <trkpt lat="45.74422" lon="6.48769">
        <ele>1543</ele>
        <time>2022-07-24T04:43:50Z</time>
      </trkpt>
      <trkpt lat="45.74423" lon="6.4877">
        <ele>1543</ele>
        <time>2022-07-24T04:43:51Z</time>
      </trkpt>
      <trkpt lat="45.74423" lon="6.48771">
        <ele>1543</ele>
        <time>2022-07-24T04:43:52Z</time>
      </trkpt>
      <trkpt lat="45.74423" lon="6.48772">
        <ele>1543</ele>
        <time>2022-07-24T04:43:53Z</time>
      </trkpt>
      <trkpt lat="45.74423" lon="6.48773">
        <ele>1543</ele>
        <time>2022-07-24T04:43:54Z</time>
      </trkpt>
      <trkpt lat="45.74423" lon="6.48774">
        <ele>1543</ele>
        <time>2022-07-24T04:43:55Z</time>
      </trkpt>
      <trkpt lat="45.74423" lon="6.48775">
        <ele>1543</ele>
        <time>2022-07-24T04:43:56Z</time>
      </trkpt>
      <trkpt lat="45.74423" lon="6.48776">
        <ele>1543</ele>
        <time>2022-07-24T04:43:57Z</time>
      </trkpt>
      <trkpt lat="45.74423" lon="6.48777">
        <ele>1543</ele>
        <time>2022-07-24T04:43:58Z</time>
      </trkpt>
      <trkpt lat="45.74423" lon="6.48777">
        <ele>1544</ele>
        <time>2022-07-24T04:43:59Z</time>
      </trkpt>
      <trkpt lat="45.74424" lon="6.48778">
        <ele>1544</ele>
        <time>2022-07-24T04:44:00Z</time>
      </trkpt>
      <trkpt lat="45.74424" lon="6.48779">
        <ele>1544</ele>
        <time>2022-07-24T04:44:01Z</time>
      </trkpt>
      <trkpt lat="45.74424" lon="6.4878">
        <ele>1544</ele>
        <time>2022-07-24T04:44:02Z</time>
      </trkpt>
      <trkpt lat="45.74424" lon="6.48781">
        <ele>1544</ele>
        <time>2022-07-24T04:44:03Z</time>
      </trkpt>
      <trkpt lat="45.74424" lon="6.48782">
        <ele>1544</ele>
        <time>2022-07-24T04:44:04Z</time>
      </trkpt>
      <trkpt lat="45.74425" lon="6.48783">
        <ele>1544</ele>
        <time>2022-07-24T04:44:05Z</time>
      </trkpt>
      <trkpt lat="45.74425" lon="6.48784">
        <ele>1544</ele>
        <time>2022-07-24T04:44:06Z</time>
      </trkpt>
      <trkpt lat="45.74425" lon="6.48785">
        <ele>1544</ele>
        <time>2022-07-24T04:44:07Z</time>
      </trkpt>
      <trkpt lat="45.74425" lon="6.48786">
        <ele>1544</ele>
        <time>2022-07-24T04:44:08Z</time>
      </trkpt>
      <trkpt lat="45.74426" lon="6.48788">
        <ele>1545</ele>
        <time>2022-07-24T04:44:09Z</time>
      </trkpt>
      <trkpt lat="45.74426" lon="6.48789">
        <ele>1545</ele>
        <time>2022-07-24T04:44:10Z</time>
      </trkpt>
      <trkpt lat="45.74426" lon="6.4879">
        <ele>1545</ele>
        <time>2022-07-24T04:44:11Z</time>
      </trkpt>
      <trkpt lat="45.74427" lon="6.48791">
        <ele>1545</ele>
        <time>2022-07-24T04:44:12Z</time>
      </trkpt>
      <trkpt lat="45.74427" lon="6.48792">
        <ele>1545</ele>
        <time>2022-07-24T04:44:13Z</time>
      </trkpt>
      <trkpt lat="45.74428" lon="6.48793">
        <ele>1545</ele>
        <time>2022-07-24T04:44:14Z</time>
      </trkpt>
      <trkpt lat="45.74428" lon="6.48794">
        <ele>1545</ele>
        <time>2022-07-24T04:44:15Z</time>
      </trkpt>
      <trkpt lat="45.74428" lon="6.48796">
        <ele>1545</ele>
        <time>2022-07-24T04:44:16Z</time>
      </trkpt>
      <trkpt lat="45.74429" lon="6.48797">
        <ele>1545</ele>
        <time>2022-07-24T04:44:17Z</time>
      </trkpt>
      <trkpt lat="45.74429" lon="6.48798">
        <ele>1545</ele>
        <time>2022-07-24T04:44:18Z</time>
      </trkpt>
      <trkpt lat="45.7443" lon="6.488">
        <ele>1545</ele>
        <time>2022-07-24T04:44:19Z</time>
      </trkpt>
      <trkpt lat="45.7443" lon="6.48801">
        <ele>1545</ele>
        <time>2022-07-24T04:44:20Z</time>
      </trkpt>
      <trkpt lat="45.7443" lon="6.48802">
        <ele>1545</ele>
        <time>2022-07-24T04:44:21Z</time>
      </trkpt>
      <trkpt lat="45.7443" lon="6.48803">
        <ele>1545</ele>
        <time>2022-07-24T04:44:22Z</time>
      </trkpt>
      <trkpt lat="45.74431" lon="6.48804">
        <ele>1545</ele>
        <time>2022-07-24T04:44:23Z</time>
      </trkpt>
      <trkpt lat="45.74431" lon="6.48805">
        <ele>1546</ele>
        <time>2022-07-24T04:44:24Z</time>
      </trkpt>
      <trkpt lat="45.74431" lon="6.48806">
        <ele>1546</ele>
        <time>2022-07-24T04:44:25Z</time>
      </trkpt>
      <trkpt lat="45.74432" lon="6.48807">
        <ele>1546</ele>
        <time>2022-07-24T04:44:26Z</time>
      </trkpt>
      <trkpt lat="45.74432" lon="6.48808">
        <ele>1546</ele>
        <time>2022-07-24T04:44:27Z</time>
      </trkpt>
      <trkpt lat="45.74433" lon="6.48809">
        <ele>1546</ele>
        <time>2022-07-24T04:44:28Z</time>
      </trkpt>
      <trkpt lat="45.74433" lon="6.48811">
        <ele>1546</ele>
        <time>2022-07-24T04:44:29Z</time>
      </trkpt>
      <trkpt lat="45.74433" lon="6.48812">
        <ele>1546</ele>
        <time>2022-07-24T04:44:30Z</time>
      </trkpt>
      <trkpt lat="45.74434" lon="6.48813">
        <ele>1546</ele>
        <time>2022-07-24T04:44:31Z</time>
      </trkpt>
      <trkpt lat="45.74434" lon="6.48814">
        <ele>1546</ele>
        <time>2022-07-24T04:44:32Z</time>
      </trkpt>
      <trkpt lat="45.74434" lon="6.48815">
        <ele>1546</ele>
        <time>2022-07-24T04:44:33Z</time>
      </trkpt>
      <trkpt lat="45.74435" lon="6.48816">
        <ele>1547</ele>
        <time>2022-07-24T04:44:34Z</time>
      </trkpt>
      <trkpt lat="45.74435" lon="6.48817">
        <ele>1547</ele>
        <time>2022-07-24T04:44:35Z</time>
      </trkpt>
      <trkpt lat="45.74436" lon="6.48819">
        <ele>1547</ele>
        <time>2022-07-24T04:44:36Z</time>
      </trkpt>
      <trkpt lat="45.74436" lon="6.4882">
        <ele>1547</ele>
        <time>2022-07-24T04:44:37Z</time>
      </trkpt>
      <trkpt lat="45.74437" lon="6.48821">
        <ele>1547</ele>
        <time>2022-07-24T04:44:38Z</time>
      </trkpt>
      <trkpt lat="45.74437" lon="6.48822">
        <ele>1547</ele>
        <time>2022-07-24T04:44:39Z</time>
      </trkpt>
      <trkpt lat="45.74438" lon="6.48823">
        <ele>1547</ele>
        <time>2022-07-24T04:44:40Z</time>
      </trkpt>
      <trkpt lat="45.74438" lon="6.48824">
        <ele>1547</ele>
        <time>2022-07-24T04:44:41Z</time>
      </trkpt>
      <trkpt lat="45.74439" lon="6.48825">
        <ele>1547</ele>
        <time>2022-07-24T04:44:42Z</time>
      </trkpt>
      <trkpt lat="45.74439" lon="6.48826">
        <ele>1547</ele>
        <time>2022-07-24T04:44:43Z</time>
      </trkpt>
      <trkpt lat="45.7444" lon="6.48827">
        <ele>1548</ele>
        <time>2022-07-24T04:44:44Z</time>
      </trkpt>
      <trkpt lat="45.7444" lon="6.48828">
        <ele>1548</ele>
        <time>2022-07-24T04:44:45Z</time>
      </trkpt>
      <trkpt lat="45.74441" lon="6.48829">
        <ele>1548</ele>
        <time>2022-07-24T04:44:46Z</time>
      </trkpt>
      <trkpt lat="45.74441" lon="6.4883">
        <ele>1548</ele>
        <time>2022-07-24T04:44:47Z</time>
      </trkpt>
      <trkpt lat="45.74442" lon="6.48831">
        <ele>1548</ele>
        <time>2022-07-24T04:44:48Z</time>
      </trkpt>
      <trkpt lat="45.74442" lon="6.48832">
        <ele>1548</ele>
        <time>2022-07-24T04:44:49Z</time>
      </trkpt>
      <trkpt lat="45.74443" lon="6.48833">
        <ele>1548</ele>
        <time>2022-07-24T04:44:50Z</time>
      </trkpt>
      <trkpt lat="45.74443" lon="6.48834">
        <ele>1548</ele>
        <time>2022-07-24T04:44:51Z</time>
      </trkpt>
      <trkpt lat="45.74444" lon="6.48835">
        <ele>1548</ele>
        <time>2022-07-24T04:44:52Z</time>
      </trkpt>
      <trkpt lat="45.74444" lon="6.48835">
        <ele>1548</ele>
        <time>2022-07-24T04:44:53Z</time>
      </trkpt>
      <trkpt lat="45.74445" lon="6.48836">
        <ele>1548</ele>
        <time>2022-07-24T04:44:54Z</time>
      </trkpt>
      <trkpt lat="45.74446" lon="6.48837">
        <ele>1548</ele>
        <time>2022-07-24T04:44:55Z</time>
      </trkpt>
      <trkpt lat="45.74446" lon="6.48838">
        <ele>1548</ele>
        <time>2022-07-24T04:44:56Z</time>
      </trkpt>
      <trkpt lat="45.74447" lon="6.48839">
        <ele>1548</ele>
        <time>2022-07-24T04:44:57Z</time>
      </trkpt>
      <trkpt lat="45.74447" lon="6.48839">
        <ele>1548</ele>
        <time>2022-07-24T04:44:58Z</time>
      </trkpt>
      <trkpt lat="45.74447" lon="6.4884">
        <ele>1549</ele>
        <time>2022-07-24T04:44:59Z</time>
      </trkpt>
      <trkpt lat="45.74448" lon="6.48841">
        <ele>1549</ele>
        <time>2022-07-24T04:45:00Z</time>
      </trkpt>
      <trkpt lat="45.74448" lon="6.48842">
        <ele>1549</ele>
        <time>2022-07-24T04:45:01Z</time>
      </trkpt>
      <trkpt lat="45.74449" lon="6.48842">
        <ele>1549</ele>
        <time>2022-07-24T04:45:02Z</time>
      </trkpt>
      <trkpt lat="45.74449" lon="6.48843">
        <ele>1549</ele>
        <time>2022-07-24T04:45:03Z</time>
      </trkpt>
      <trkpt lat="45.7445" lon="6.48844">
        <ele>1549</ele>
        <time>2022-07-24T04:45:04Z</time>
      </trkpt>
      <trkpt lat="45.7445" lon="6.48845">
        <ele>1549</ele>
        <time>2022-07-24T04:45:05Z</time>
      </trkpt>
      <trkpt lat="45.74451" lon="6.48845">
        <ele>1549</ele>
        <time>2022-07-24T04:45:06Z</time>
      </trkpt>
      <trkpt lat="45.74452" lon="6.48846">
        <ele>1549</ele>
        <time>2022-07-24T04:45:07Z</time>
      </trkpt>
      <trkpt lat="45.74452" lon="6.48847">
        <ele>1549</ele>
        <time>2022-07-24T04:45:08Z</time>
      </trkpt>
      <trkpt lat="45.74453" lon="6.48848">
        <ele>1550</ele>
        <time>2022-07-24T04:45:09Z</time>
      </trkpt>
      <trkpt lat="45.74453" lon="6.48849">
        <ele>1550</ele>
        <time>2022-07-24T04:45:10Z</time>
      </trkpt>
      <trkpt lat="45.74454" lon="6.48849">
        <ele>1550</ele>
        <time>2022-07-24T04:45:11Z</time>
      </trkpt>
      <trkpt lat="45.74454" lon="6.4885">
        <ele>1550</ele>
        <time>2022-07-24T04:45:12Z</time>
      </trkpt>
      <trkpt lat="45.74455" lon="6.48851">
        <ele>1550</ele>
        <time>2022-07-24T04:45:13Z</time>
      </trkpt>
      <trkpt lat="45.74456" lon="6.48851">
        <ele>1550</ele>
        <time>2022-07-24T04:45:14Z</time>
      </trkpt>
      <trkpt lat="45.74456" lon="6.48852">
        <ele>1550</ele>
        <time>2022-07-24T04:45:15Z</time>
      </trkpt>
      <trkpt lat="45.74457" lon="6.48853">
        <ele>1550</ele>
        <time>2022-07-24T04:45:16Z</time>
      </trkpt>
      <trkpt lat="45.74457" lon="6.48854">
        <ele>1550</ele>
        <time>2022-07-24T04:45:17Z</time>
      </trkpt>
      <trkpt lat="45.74458" lon="6.48855">
        <ele>1550</ele>
        <time>2022-07-24T04:45:18Z</time>
      </trkpt>
      <trkpt lat="45.74458" lon="6.48856">
        <ele>1550</ele>
        <time>2022-07-24T04:45:19Z</time>
      </trkpt>
      <trkpt lat="45.74458" lon="6.48857">
        <ele>1550</ele>
        <time>2022-07-24T04:45:20Z</time>
      </trkpt>
      <trkpt lat="45.74459" lon="6.48857">
        <ele>1550</ele>
        <time>2022-07-24T04:45:21Z</time>
      </trkpt>
      <trkpt lat="45.74459" lon="6.48858">
        <ele>1550</ele>
        <time>2022-07-24T04:45:22Z</time>
      </trkpt>
      <trkpt lat="45.74459" lon="6.48859">
        <ele>1550</ele>
        <time>2022-07-24T04:45:23Z</time>
      </trkpt>
      <trkpt lat="45.7446" lon="6.4886">
        <ele>1550</ele>
        <time>2022-07-24T04:45:24Z</time>
      </trkpt>
      <trkpt lat="45.7446" lon="6.4886">
        <ele>1550</ele>
        <time>2022-07-24T04:45:25Z</time>
      </trkpt>
      <trkpt lat="45.74461" lon="6.48861">
        <ele>1550</ele>
        <time>2022-07-24T04:45:26Z</time>
      </trkpt>
      <trkpt lat="45.74461" lon="6.48861">
        <ele>1550</ele>
        <time>2022-07-24T04:45:27Z</time>
      </trkpt>
      <trkpt lat="45.74461" lon="6.48862">
        <ele>1550</ele>
        <time>2022-07-24T04:45:28Z</time>
      </trkpt>
      <trkpt lat="45.74462" lon="6.48862">
        <ele>1551</ele>
        <time>2022-07-24T04:45:29Z</time>
      </trkpt>
      <trkpt lat="45.74462" lon="6.48862">
        <ele>1551</ele>
        <time>2022-07-24T04:45:30Z</time>
      </trkpt>
      <trkpt lat="45.74463" lon="6.48862">
        <ele>1551</ele>
        <time>2022-07-24T04:45:31Z</time>
      </trkpt>
      <trkpt lat="45.74463" lon="6.48862">
        <ele>1551</ele>
        <time>2022-07-24T04:45:32Z</time>
      </trkpt>
      <trkpt lat="45.74464" lon="6.48863">
        <ele>1551</ele>
        <time>2022-07-24T04:45:33Z</time>
      </trkpt>
      <trkpt lat="45.74464" lon="6.48863">
        <ele>1551</ele>
        <time>2022-07-24T04:45:34Z</time>
      </trkpt>
      <trkpt lat="45.74465" lon="6.48863">
        <ele>1551</ele>
        <time>2022-07-24T04:45:35Z</time>
      </trkpt>
      <trkpt lat="45.74465" lon="6.48863">
        <ele>1551</ele>
        <time>2022-07-24T04:45:36Z</time>
      </trkpt>
      <trkpt lat="45.74466" lon="6.48863">
        <ele>1551</ele>
        <time>2022-07-24T04:45:37Z</time>
      </trkpt>
      <trkpt lat="45.74467" lon="6.48863">
        <ele>1551</ele>
        <time>2022-07-24T04:45:38Z</time>
      </trkpt>
      <trkpt lat="45.74467" lon="6.48863">
        <ele>1551</ele>
        <time>2022-07-24T04:45:39Z</time>
      </trkpt>
      <trkpt lat="45.74468" lon="6.48863">
        <ele>1551</ele>
        <time>2022-07-24T04:45:40Z</time>
      </trkpt>
      <trkpt lat="45.74468" lon="6.48863">
        <ele>1551</ele>
        <time>2022-07-24T04:45:41Z</time>
      </trkpt>
      <trkpt lat="45.74469" lon="6.48862">
        <ele>1551</ele>
        <time>2022-07-24T04:45:42Z</time>
      </trkpt>
      <trkpt lat="45.74469" lon="6.48862">
        <ele>1551</ele>
        <time>2022-07-24T04:45:43Z</time>
      </trkpt>
      <trkpt lat="45.7447" lon="6.48862">
        <ele>1552</ele>
        <time>2022-07-24T04:45:44Z</time>
      </trkpt>
      <trkpt lat="45.74471" lon="6.48862">
        <ele>1552</ele>
        <time>2022-07-24T04:45:45Z</time>
      </trkpt>
      <trkpt lat="45.74472" lon="6.48862">
        <ele>1552</ele>
        <time>2022-07-24T04:45:46Z</time>
      </trkpt>
      <trkpt lat="45.74472" lon="6.48862">
        <ele>1552</ele>
        <time>2022-07-24T04:45:47Z</time>
      </trkpt>
      <trkpt lat="45.74473" lon="6.48862">
        <ele>1552</ele>
        <time>2022-07-24T04:45:48Z</time>
      </trkpt>
      <trkpt lat="45.74474" lon="6.48862">
        <ele>1552</ele>
        <time>2022-07-24T04:45:49Z</time>
      </trkpt>
      <trkpt lat="45.74474" lon="6.48862">
        <ele>1552</ele>
        <time>2022-07-24T04:45:50Z</time>
      </trkpt>
      <trkpt lat="45.74475" lon="6.48861">
        <ele>1552</ele>
        <time>2022-07-24T04:45:51Z</time>
      </trkpt>
      <trkpt lat="45.74476" lon="6.48861">
        <ele>1552</ele>
        <time>2022-07-24T04:45:52Z</time>
      </trkpt>
      <trkpt lat="45.74477" lon="6.48861">
        <ele>1552</ele>
        <time>2022-07-24T04:45:53Z</time>
      </trkpt>
      <trkpt lat="45.74478" lon="6.48861">
        <ele>1552</ele>
        <time>2022-07-24T04:45:54Z</time>
      </trkpt>
      <trkpt lat="45.74479" lon="6.48862">
        <ele>1552</ele>
        <time>2022-07-24T04:45:55Z</time>
      </trkpt>
      <trkpt lat="45.7448" lon="6.48862">
        <ele>1552</ele>
        <time>2022-07-24T04:45:56Z</time>
      </trkpt>
      <trkpt lat="45.74481" lon="6.48862">
        <ele>1552</ele>
        <time>2022-07-24T04:45:57Z</time>
      </trkpt>
      <trkpt lat="45.74482" lon="6.48863">
        <ele>1552</ele>
        <time>2022-07-24T04:45:58Z</time>
      </trkpt>
      <trkpt lat="45.74482" lon="6.48863">
        <ele>1553</ele>
        <time>2022-07-24T04:45:59Z</time>
      </trkpt>
      <trkpt lat="45.74483" lon="6.48863">
        <ele>1553</ele>
        <time>2022-07-24T04:46:00Z</time>
      </trkpt>
      <trkpt lat="45.74484" lon="6.48863">
        <ele>1553</ele>
        <time>2022-07-24T04:46:01Z</time>
      </trkpt>
      <trkpt lat="45.74485" lon="6.48863">
        <ele>1553</ele>
        <time>2022-07-24T04:46:02Z</time>
      </trkpt>
      <trkpt lat="45.74486" lon="6.48864">
        <ele>1553</ele>
        <time>2022-07-24T04:46:03Z</time>
      </trkpt>
      <trkpt lat="45.74487" lon="6.48864">
        <ele>1553</ele>
        <time>2022-07-24T04:46:04Z</time>
      </trkpt>
      <trkpt lat="45.74488" lon="6.48864">
        <ele>1553</ele>
        <time>2022-07-24T04:46:05Z</time>
      </trkpt>
      <trkpt lat="45.74489" lon="6.48865">
        <ele>1553</ele>
        <time>2022-07-24T04:46:06Z</time>
      </trkpt>
      <trkpt lat="45.7449" lon="6.48865">
        <ele>1553</ele>
        <time>2022-07-24T04:46:07Z</time>
      </trkpt>
      <trkpt lat="45.74491" lon="6.48866">
        <ele>1553</ele>
        <time>2022-07-24T04:46:08Z</time>
      </trkpt>
      <trkpt lat="45.74492" lon="6.48867">
        <ele>1554</ele>
        <time>2022-07-24T04:46:09Z</time>
      </trkpt>
      <trkpt lat="45.74493" lon="6.48867">
        <ele>1554</ele>
        <time>2022-07-24T04:46:10Z</time>
      </trkpt>
      <trkpt lat="45.74495" lon="6.48868">
        <ele>1554</ele>
        <time>2022-07-24T04:46:11Z</time>
      </trkpt>
      <trkpt lat="45.74496" lon="6.48869">
        <ele>1554</ele>
        <time>2022-07-24T04:46:12Z</time>
      </trkpt>
      <trkpt lat="45.74498" lon="6.48869">
        <ele>1554</ele>
        <time>2022-07-24T04:46:13Z</time>
      </trkpt>
      <trkpt lat="45.74499" lon="6.4887">
        <ele>1554</ele>
        <time>2022-07-24T04:46:14Z</time>
      </trkpt>
      <trkpt lat="45.745" lon="6.4887">
        <ele>1554</ele>
        <time>2022-07-24T04:46:15Z</time>
      </trkpt>
      <trkpt lat="45.74501" lon="6.48871">
        <ele>1554</ele>
        <time>2022-07-24T04:46:16Z</time>
      </trkpt>
      <trkpt lat="45.74502" lon="6.48871">
        <ele>1554</ele>
        <time>2022-07-24T04:46:17Z</time>
      </trkpt>
      <trkpt lat="45.74502" lon="6.48872">
        <ele>1554</ele>
        <time>2022-07-24T04:46:18Z</time>
      </trkpt>
      <trkpt lat="45.74503" lon="6.48873">
        <ele>1555</ele>
        <time>2022-07-24T04:46:19Z</time>
      </trkpt>
      <trkpt lat="45.74504" lon="6.48873">
        <ele>1555</ele>
        <time>2022-07-24T04:46:20Z</time>
      </trkpt>
      <trkpt lat="45.74505" lon="6.48874">
        <ele>1555</ele>
        <time>2022-07-24T04:46:21Z</time>
      </trkpt>
      <trkpt lat="45.74505" lon="6.48875">
        <ele>1555</ele>
        <time>2022-07-24T04:46:22Z</time>
      </trkpt>
      <trkpt lat="45.74506" lon="6.48876">
        <ele>1555</ele>
        <time>2022-07-24T04:46:23Z</time>
      </trkpt>
      <trkpt lat="45.74507" lon="6.48877">
        <ele>1555</ele>
        <time>2022-07-24T04:46:24Z</time>
      </trkpt>
      <trkpt lat="45.74507" lon="6.48877">
        <ele>1555</ele>
        <time>2022-07-24T04:46:25Z</time>
      </trkpt>
      <trkpt lat="45.74508" lon="6.48878">
        <ele>1555</ele>
        <time>2022-07-24T04:46:26Z</time>
      </trkpt>
      <trkpt lat="45.74509" lon="6.48879">
        <ele>1555</ele>
        <time>2022-07-24T04:46:27Z</time>
      </trkpt>
      <trkpt lat="45.74509" lon="6.4888">
        <ele>1555</ele>
        <time>2022-07-24T04:46:28Z</time>
      </trkpt>
      <trkpt lat="45.7451" lon="6.48881">
        <ele>1556</ele>
        <time>2022-07-24T04:46:29Z</time>
      </trkpt>
      <trkpt lat="45.7451" lon="6.48882">
        <ele>1556</ele>
        <time>2022-07-24T04:46:30Z</time>
      </trkpt>
      <trkpt lat="45.74511" lon="6.48883">
        <ele>1556</ele>
        <time>2022-07-24T04:46:31Z</time>
      </trkpt>
      <trkpt lat="45.74511" lon="6.48884">
        <ele>1556</ele>
        <time>2022-07-24T04:46:32Z</time>
      </trkpt>
      <trkpt lat="45.74512" lon="6.48884">
        <ele>1556</ele>
        <time>2022-07-24T04:46:33Z</time>
      </trkpt>
      <trkpt lat="45.74513" lon="6.48885">
        <ele>1556</ele>
        <time>2022-07-24T04:46:34Z</time>
      </trkpt>
      <trkpt lat="45.74513" lon="6.48886">
        <ele>1556</ele>
        <time>2022-07-24T04:46:35Z</time>
      </trkpt>
      <trkpt lat="45.74514" lon="6.48887">
        <ele>1556</ele>
        <time>2022-07-24T04:46:36Z</time>
      </trkpt>
      <trkpt lat="45.74514" lon="6.48888">
        <ele>1556</ele>
        <time>2022-07-24T04:46:37Z</time>
      </trkpt>
      <trkpt lat="45.74515" lon="6.48889">
        <ele>1556</ele>
        <time>2022-07-24T04:46:38Z</time>
      </trkpt>
      <trkpt lat="45.74515" lon="6.48889">
        <ele>1556</ele>
        <time>2022-07-24T04:46:39Z</time>
      </trkpt>
      <trkpt lat="45.74516" lon="6.4889">
        <ele>1556</ele>
        <time>2022-07-24T04:46:40Z</time>
      </trkpt>
      <trkpt lat="45.74516" lon="6.48891">
        <ele>1556</ele>
        <time>2022-07-24T04:46:41Z</time>
      </trkpt>
      <trkpt lat="45.74517" lon="6.48892">
        <ele>1556</ele>
        <time>2022-07-24T04:46:42Z</time>
      </trkpt>
      <trkpt lat="45.74517" lon="6.48893">
        <ele>1556</ele>
        <time>2022-07-24T04:46:43Z</time>
      </trkpt>
      <trkpt lat="45.74518" lon="6.48894">
        <ele>1557</ele>
        <time>2022-07-24T04:46:44Z</time>
      </trkpt>
      <trkpt lat="45.74518" lon="6.48895">
        <ele>1557</ele>
        <time>2022-07-24T04:46:45Z</time>
      </trkpt>
      <trkpt lat="45.74519" lon="6.48895">
        <ele>1557</ele>
        <time>2022-07-24T04:46:46Z</time>
      </trkpt>
      <trkpt lat="45.74519" lon="6.48896">
        <ele>1557</ele>
        <time>2022-07-24T04:46:47Z</time>
      </trkpt>
      <trkpt lat="45.7452" lon="6.48897">
        <ele>1557</ele>
        <time>2022-07-24T04:46:48Z</time>
      </trkpt>
      <trkpt lat="45.74521" lon="6.48898">
        <ele>1557</ele>
        <time>2022-07-24T04:46:49Z</time>
      </trkpt>
      <trkpt lat="45.74521" lon="6.48899">
        <ele>1557</ele>
        <time>2022-07-24T04:46:50Z</time>
      </trkpt>
      <trkpt lat="45.74522" lon="6.489">
        <ele>1557</ele>
        <time>2022-07-24T04:46:51Z</time>
      </trkpt>
      <trkpt lat="45.74522" lon="6.48901">
        <ele>1557</ele>
        <time>2022-07-24T04:46:52Z</time>
      </trkpt>
      <trkpt lat="45.74523" lon="6.48902">
        <ele>1557</ele>
        <time>2022-07-24T04:46:53Z</time>
      </trkpt>
      <trkpt lat="45.74523" lon="6.48903">
        <ele>1557</ele>
        <time>2022-07-24T04:46:54Z</time>
      </trkpt>
      <trkpt lat="45.74524" lon="6.48904">
        <ele>1557</ele>
        <time>2022-07-24T04:46:55Z</time>
      </trkpt>
      <trkpt lat="45.74524" lon="6.48905">
        <ele>1557</ele>
        <time>2022-07-24T04:46:56Z</time>
      </trkpt>
      <trkpt lat="45.74524" lon="6.48906">
        <ele>1557</ele>
        <time>2022-07-24T04:46:57Z</time>
      </trkpt>
      <trkpt lat="45.74525" lon="6.48907">
        <ele>1557</ele>
        <time>2022-07-24T04:46:58Z</time>
      </trkpt>
      <trkpt lat="45.74525" lon="6.48909">
        <ele>1558</ele>
        <time>2022-07-24T04:46:59Z</time>
      </trkpt>
      <trkpt lat="45.74525" lon="6.4891">
        <ele>1558</ele>
        <time>2022-07-24T04:47:00Z</time>
      </trkpt>
      <trkpt lat="45.74525" lon="6.48911">
        <ele>1558</ele>
        <time>2022-07-24T04:47:01Z</time>
      </trkpt>
      <trkpt lat="45.74525" lon="6.48912">
        <ele>1558</ele>
        <time>2022-07-24T04:47:02Z</time>
      </trkpt>
      <trkpt lat="45.74526" lon="6.48913">
        <ele>1558</ele>
        <time>2022-07-24T04:47:03Z</time>
      </trkpt>
      <trkpt lat="45.74526" lon="6.48914">
        <ele>1558</ele>
        <time>2022-07-24T04:47:04Z</time>
      </trkpt>
      <trkpt lat="45.74526" lon="6.48915">
        <ele>1558</ele>
        <time>2022-07-24T04:47:05Z</time>
      </trkpt>
      <trkpt lat="45.74526" lon="6.48916">
        <ele>1558</ele>
        <time>2022-07-24T04:47:06Z</time>
      </trkpt>
      <trkpt lat="45.74527" lon="6.48917">
        <ele>1558</ele>
        <time>2022-07-24T04:47:07Z</time>
      </trkpt>
      <trkpt lat="45.74527" lon="6.48918">
        <ele>1558</ele>
        <time>2022-07-24T04:47:08Z</time>
      </trkpt>
      <trkpt lat="45.74527" lon="6.48918">
        <ele>1558</ele>
        <time>2022-07-24T04:47:09Z</time>
      </trkpt>
      <trkpt lat="45.74528" lon="6.48919">
        <ele>1558</ele>
        <time>2022-07-24T04:47:10Z</time>
      </trkpt>
      <trkpt lat="45.74528" lon="6.4892">
        <ele>1558</ele>
        <time>2022-07-24T04:47:11Z</time>
      </trkpt>
      <trkpt lat="45.74528" lon="6.4892">
        <ele>1558</ele>
        <time>2022-07-24T04:47:12Z</time>
      </trkpt>
      <trkpt lat="45.74528" lon="6.48921">
        <ele>1558</ele>
        <time>2022-07-24T04:47:13Z</time>
      </trkpt>
      <trkpt lat="45.74529" lon="6.48922">
        <ele>1558</ele>
        <time>2022-07-24T04:47:14Z</time>
      </trkpt>
      <trkpt lat="45.74529" lon="6.48923">
        <ele>1558</ele>
        <time>2022-07-24T04:47:15Z</time>
      </trkpt>
      <trkpt lat="45.74529" lon="6.48924">
        <ele>1558</ele>
        <time>2022-07-24T04:47:16Z</time>
      </trkpt>
      <trkpt lat="45.7453" lon="6.48924">
        <ele>1558</ele>
        <time>2022-07-24T04:47:17Z</time>
      </trkpt>
      <trkpt lat="45.7453" lon="6.48925">
        <ele>1558</ele>
        <time>2022-07-24T04:47:18Z</time>
      </trkpt>
      <trkpt lat="45.74531" lon="6.48926">
        <ele>1559</ele>
        <time>2022-07-24T04:47:19Z</time>
      </trkpt>
      <trkpt lat="45.74531" lon="6.48927">
        <ele>1559</ele>
        <time>2022-07-24T04:47:20Z</time>
      </trkpt>
      <trkpt lat="45.74532" lon="6.48928">
        <ele>1559</ele>
        <time>2022-07-24T04:47:21Z</time>
      </trkpt>
      <trkpt lat="45.74532" lon="6.48929">
        <ele>1559</ele>
        <time>2022-07-24T04:47:22Z</time>
      </trkpt>
      <trkpt lat="45.74533" lon="6.48929">
        <ele>1559</ele>
        <time>2022-07-24T04:47:23Z</time>
      </trkpt>
      <trkpt lat="45.74533" lon="6.4893">
        <ele>1559</ele>
        <time>2022-07-24T04:47:24Z</time>
      </trkpt>
      <trkpt lat="45.74533" lon="6.48931">
        <ele>1559</ele>
        <time>2022-07-24T04:47:25Z</time>
      </trkpt>
      <trkpt lat="45.74534" lon="6.48932">
        <ele>1559</ele>
        <time>2022-07-24T04:47:26Z</time>
      </trkpt>
      <trkpt lat="45.74534" lon="6.48933">
        <ele>1559</ele>
        <time>2022-07-24T04:47:27Z</time>
      </trkpt>
      <trkpt lat="45.74534" lon="6.48934">
        <ele>1559</ele>
        <time>2022-07-24T04:47:28Z</time>
      </trkpt>
      <trkpt lat="45.74535" lon="6.48935">
        <ele>1560</ele>
        <time>2022-07-24T04:47:29Z</time>
      </trkpt>
      <trkpt lat="45.74535" lon="6.48936">
        <ele>1560</ele>
        <time>2022-07-24T04:47:30Z</time>
      </trkpt>
      <trkpt lat="45.74536" lon="6.48937">
        <ele>1560</ele>
        <time>2022-07-24T04:47:31Z</time>
      </trkpt>
      <trkpt lat="45.74536" lon="6.48938">
        <ele>1560</ele>
        <time>2022-07-24T04:47:32Z</time>
      </trkpt>
      <trkpt lat="45.74537" lon="6.48939">
        <ele>1560</ele>
        <time>2022-07-24T04:47:33Z</time>
      </trkpt>
      <trkpt lat="45.74537" lon="6.48939">
        <ele>1560</ele>
        <time>2022-07-24T04:47:34Z</time>
      </trkpt>
      <trkpt lat="45.74538" lon="6.4894">
        <ele>1560</ele>
        <time>2022-07-24T04:47:35Z</time>
      </trkpt>
      <trkpt lat="45.74538" lon="6.48941">
        <ele>1560</ele>
        <time>2022-07-24T04:47:36Z</time>
      </trkpt>
      <trkpt lat="45.74539" lon="6.48942">
        <ele>1560</ele>
        <time>2022-07-24T04:47:37Z</time>
      </trkpt>
      <trkpt lat="45.74539" lon="6.48943">
        <ele>1560</ele>
        <time>2022-07-24T04:47:38Z</time>
      </trkpt>
      <trkpt lat="45.74539" lon="6.48943">
        <ele>1560</ele>
        <time>2022-07-24T04:47:39Z</time>
      </trkpt>
      <trkpt lat="45.7454" lon="6.48944">
        <ele>1560</ele>
        <time>2022-07-24T04:47:40Z</time>
      </trkpt>
      <trkpt lat="45.7454" lon="6.48945">
        <ele>1560</ele>
        <time>2022-07-24T04:47:41Z</time>
      </trkpt>
      <trkpt lat="45.7454" lon="6.48945">
        <ele>1560</ele>
        <time>2022-07-24T04:47:42Z</time>
      </trkpt>
      <trkpt lat="45.7454" lon="6.48946">
        <ele>1560</ele>
        <time>2022-07-24T04:47:43Z</time>
      </trkpt>
      <trkpt lat="45.74541" lon="6.48947">
        <ele>1560</ele>
        <time>2022-07-24T04:47:44Z</time>
      </trkpt>
      <trkpt lat="45.74541" lon="6.48948">
        <ele>1560</ele>
        <time>2022-07-24T04:47:45Z</time>
      </trkpt>
      <trkpt lat="45.74541" lon="6.48948">
        <ele>1560</ele>
        <time>2022-07-24T04:47:46Z</time>
      </trkpt>
      <trkpt lat="45.74541" lon="6.48949">
        <ele>1560</ele>
        <time>2022-07-24T04:47:47Z</time>
      </trkpt>
      <trkpt lat="45.74541" lon="6.4895">
        <ele>1560</ele>
        <time>2022-07-24T04:47:48Z</time>
      </trkpt>
      <trkpt lat="45.74542" lon="6.48951">
        <ele>1561</ele>
        <time>2022-07-24T04:47:49Z</time>
      </trkpt>
      <trkpt lat="45.74541" lon="6.48953">
        <ele>1562</ele>
        <time>2022-07-24T04:48:08Z</time>
      </trkpt>
      <trkpt lat="45.74541" lon="6.48953">
        <ele>1562</ele>
        <time>2022-07-24T04:48:09Z</time>
      </trkpt>
      <trkpt lat="45.74541" lon="6.48954">
        <ele>1562</ele>
        <time>2022-07-24T04:48:10Z</time>
      </trkpt>
      <trkpt lat="45.74542" lon="6.48955">
        <ele>1562</ele>
        <time>2022-07-24T04:48:11Z</time>
      </trkpt>
      <trkpt lat="45.74542" lon="6.48956">
        <ele>1562</ele>
        <time>2022-07-24T04:48:12Z</time>
      </trkpt>
      <trkpt lat="45.74543" lon="6.48957">
        <ele>1562</ele>
        <time>2022-07-24T04:48:13Z</time>
      </trkpt>
      <trkpt lat="45.74544" lon="6.48958">
        <ele>1562</ele>
        <time>2022-07-24T04:48:14Z</time>
      </trkpt>
      <trkpt lat="45.74545" lon="6.48959">
        <ele>1562</ele>
        <time>2022-07-24T04:48:15Z</time>
      </trkpt>
      <trkpt lat="45.74546" lon="6.48961">
        <ele>1562</ele>
        <time>2022-07-24T04:48:16Z</time>
      </trkpt>
      <trkpt lat="45.74547" lon="6.48962">
        <ele>1562</ele>
        <time>2022-07-24T04:48:17Z</time>
      </trkpt>
      <trkpt lat="45.74547" lon="6.48964">
        <ele>1562</ele>
        <time>2022-07-24T04:48:18Z</time>
      </trkpt>
      <trkpt lat="45.74548" lon="6.48965">
        <ele>1562</ele>
        <time>2022-07-24T04:48:19Z</time>
      </trkpt>
      <trkpt lat="45.74549" lon="6.48966">
        <ele>1562</ele>
        <time>2022-07-24T04:48:20Z</time>
      </trkpt>
      <trkpt lat="45.7455" lon="6.48967">
        <ele>1562</ele>
        <time>2022-07-24T04:48:21Z</time>
      </trkpt>
      <trkpt lat="45.7455" lon="6.48968">
        <ele>1562</ele>
        <time>2022-07-24T04:48:22Z</time>
      </trkpt>
      <trkpt lat="45.74551" lon="6.48968">
        <ele>1563</ele>
        <time>2022-07-24T04:48:51Z</time>
      </trkpt>
      <trkpt lat="45.74551" lon="6.48969">
        <ele>1563</ele>
        <time>2022-07-24T04:48:52Z</time>
      </trkpt>
      <trkpt lat="45.74551" lon="6.48969">
        <ele>1563</ele>
        <time>2022-07-24T04:48:53Z</time>
      </trkpt>
      <trkpt lat="45.74551" lon="6.4897">
        <ele>1563</ele>
        <time>2022-07-24T04:48:54Z</time>
      </trkpt>
      <trkpt lat="45.74551" lon="6.4897">
        <ele>1563</ele>
        <time>2022-07-24T04:48:55Z</time>
      </trkpt>
      <trkpt lat="45.7455" lon="6.48971">
        <ele>1563</ele>
        <time>2022-07-24T04:49:11Z</time>
      </trkpt>
      <trkpt lat="45.7455" lon="6.48972">
        <ele>1563</ele>
        <time>2022-07-24T04:49:12Z</time>
      </trkpt>
      <trkpt lat="45.74549" lon="6.48973">
        <ele>1563</ele>
        <time>2022-07-24T04:49:13Z</time>
      </trkpt>
      <trkpt lat="45.74549" lon="6.48974">
        <ele>1563</ele>
        <time>2022-07-24T04:49:14Z</time>
      </trkpt>
      <trkpt lat="45.74549" lon="6.48974">
        <ele>1563</ele>
        <time>2022-07-24T04:49:15Z</time>
      </trkpt>
      <trkpt lat="45.74549" lon="6.48975">
        <ele>1563</ele>
        <time>2022-07-24T04:49:16Z</time>
      </trkpt>
      <trkpt lat="45.7455" lon="6.48976">
        <ele>1563</ele>
        <time>2022-07-24T04:49:17Z</time>
      </trkpt>
      <trkpt lat="45.7455" lon="6.48977">
        <ele>1563</ele>
        <time>2022-07-24T04:49:18Z</time>
      </trkpt>
      <trkpt lat="45.7455" lon="6.48978">
        <ele>1564</ele>
        <time>2022-07-24T04:49:19Z</time>
      </trkpt>
      <trkpt lat="45.7455" lon="6.48979">
        <ele>1564</ele>
        <time>2022-07-24T04:49:20Z</time>
      </trkpt>
      <trkpt lat="45.74551" lon="6.4898">
        <ele>1564</ele>
        <time>2022-07-24T04:49:21Z</time>
      </trkpt>
      <trkpt lat="45.74551" lon="6.48981">
        <ele>1564</ele>
        <time>2022-07-24T04:49:22Z</time>
      </trkpt>
      <trkpt lat="45.74551" lon="6.48982">
        <ele>1564</ele>
        <time>2022-07-24T04:49:23Z</time>
      </trkpt>
      <trkpt lat="45.74552" lon="6.48982">
        <ele>1564</ele>
        <time>2022-07-24T04:49:24Z</time>
      </trkpt>
      <trkpt lat="45.74552" lon="6.48983">
        <ele>1564</ele>
        <time>2022-07-24T04:49:25Z</time>
      </trkpt>
      <trkpt lat="45.74552" lon="6.48984">
        <ele>1564</ele>
        <time>2022-07-24T04:49:26Z</time>
      </trkpt>
      <trkpt lat="45.74552" lon="6.48985">
        <ele>1564</ele>
        <time>2022-07-24T04:49:27Z</time>
      </trkpt>
      <trkpt lat="45.74553" lon="6.48986">
        <ele>1564</ele>
        <time>2022-07-24T04:49:28Z</time>
      </trkpt>
      <trkpt lat="45.74553" lon="6.48987">
        <ele>1564</ele>
        <time>2022-07-24T04:49:29Z</time>
      </trkpt>
      <trkpt lat="45.74553" lon="6.48988">
        <ele>1564</ele>
        <time>2022-07-24T04:49:30Z</time>
      </trkpt>
      <trkpt lat="45.74553" lon="6.48989">
        <ele>1564</ele>
        <time>2022-07-24T04:49:31Z</time>
      </trkpt>
      <trkpt lat="45.74553" lon="6.4899">
        <ele>1564</ele>
        <time>2022-07-24T04:49:32Z</time>
      </trkpt>
      <trkpt lat="45.74554" lon="6.48991">
        <ele>1564</ele>
        <time>2022-07-24T04:49:33Z</time>
      </trkpt>
      <trkpt lat="45.74554" lon="6.48991">
        <ele>1565</ele>
        <time>2022-07-24T04:49:34Z</time>
      </trkpt>
      <trkpt lat="45.74554" lon="6.48992">
        <ele>1565</ele>
        <time>2022-07-24T04:49:35Z</time>
      </trkpt>
      <trkpt lat="45.74554" lon="6.48993">
        <ele>1565</ele>
        <time>2022-07-24T04:49:36Z</time>
      </trkpt>
      <trkpt lat="45.74555" lon="6.48995">
        <ele>1565</ele>
        <time>2022-07-24T04:49:37Z</time>
      </trkpt>
      <trkpt lat="45.74555" lon="6.48996">
        <ele>1565</ele>
        <time>2022-07-24T04:49:38Z</time>
      </trkpt>
      <trkpt lat="45.74555" lon="6.48997">
        <ele>1565</ele>
        <time>2022-07-24T04:49:39Z</time>
      </trkpt>
      <trkpt lat="45.74555" lon="6.48998">
        <ele>1565</ele>
        <time>2022-07-24T04:49:40Z</time>
      </trkpt>
      <trkpt lat="45.74555" lon="6.48999">
        <ele>1565</ele>
        <time>2022-07-24T04:49:41Z</time>
      </trkpt>
      <trkpt lat="45.74555" lon="6.49">
        <ele>1565</ele>
        <time>2022-07-24T04:49:42Z</time>
      </trkpt>
      <trkpt lat="45.74555" lon="6.49002">
        <ele>1565</ele>
        <time>2022-07-24T04:49:43Z</time>
      </trkpt>
      <trkpt lat="45.74555" lon="6.49003">
        <ele>1565</ele>
        <time>2022-07-24T04:49:44Z</time>
      </trkpt>
      <trkpt lat="45.74555" lon="6.49004">
        <ele>1565</ele>
        <time>2022-07-24T04:49:45Z</time>
      </trkpt>
      <trkpt lat="45.74555" lon="6.49005">
        <ele>1565</ele>
        <time>2022-07-24T04:49:46Z</time>
      </trkpt>
      <trkpt lat="45.74556" lon="6.49006">
        <ele>1565</ele>
        <time>2022-07-24T04:49:47Z</time>
      </trkpt>
      <trkpt lat="45.74556" lon="6.49007">
        <ele>1565</ele>
        <time>2022-07-24T04:49:48Z</time>
      </trkpt>
      <trkpt lat="45.74556" lon="6.49008">
        <ele>1566</ele>
        <time>2022-07-24T04:49:49Z</time>
      </trkpt>
      <trkpt lat="45.74556" lon="6.4901">
        <ele>1566</ele>
        <time>2022-07-24T04:49:50Z</time>
      </trkpt>
      <trkpt lat="45.74556" lon="6.49011">
        <ele>1566</ele>
        <time>2022-07-24T04:49:51Z</time>
      </trkpt>
      <trkpt lat="45.74556" lon="6.49012">
        <ele>1566</ele>
        <time>2022-07-24T04:49:52Z</time>
      </trkpt>
      <trkpt lat="45.74556" lon="6.49013">
        <ele>1566</ele>
        <time>2022-07-24T04:49:53Z</time>
      </trkpt>
      <trkpt lat="45.74556" lon="6.49014">
        <ele>1566</ele>
        <time>2022-07-24T04:49:54Z</time>
      </trkpt>
      <trkpt lat="45.74557" lon="6.49015">
        <ele>1566</ele>
        <time>2022-07-24T04:49:55Z</time>
      </trkpt>
      <trkpt lat="45.74557" lon="6.49017">
        <ele>1566</ele>
        <time>2022-07-24T04:49:56Z</time>
      </trkpt>
      <trkpt lat="45.74557" lon="6.49018">
        <ele>1566</ele>
        <time>2022-07-24T04:49:57Z</time>
      </trkpt>
      <trkpt lat="45.74557" lon="6.49019">
        <ele>1566</ele>
        <time>2022-07-24T04:49:58Z</time>
      </trkpt>
      <trkpt lat="45.74557" lon="6.4902">
        <ele>1566</ele>
        <time>2022-07-24T04:49:59Z</time>
      </trkpt>
      <trkpt lat="45.74557" lon="6.49021">
        <ele>1566</ele>
        <time>2022-07-24T04:50:00Z</time>
      </trkpt>
      <trkpt lat="45.74557" lon="6.49023">
        <ele>1566</ele>
        <time>2022-07-24T04:50:01Z</time>
      </trkpt>
      <trkpt lat="45.74557" lon="6.49024">
        <ele>1566</ele>
        <time>2022-07-24T04:50:02Z</time>
      </trkpt>
      <trkpt lat="45.74557" lon="6.49025">
        <ele>1566</ele>
        <time>2022-07-24T04:50:03Z</time>
      </trkpt>
      <trkpt lat="45.74558" lon="6.49026">
        <ele>1567</ele>
        <time>2022-07-24T04:50:04Z</time>
      </trkpt>
      <trkpt lat="45.74558" lon="6.49027">
        <ele>1567</ele>
        <time>2022-07-24T04:50:05Z</time>
      </trkpt>
      <trkpt lat="45.74558" lon="6.49028">
        <ele>1567</ele>
        <time>2022-07-24T04:50:06Z</time>
      </trkpt>
      <trkpt lat="45.74558" lon="6.49029">
        <ele>1567</ele>
        <time>2022-07-24T04:50:07Z</time>
      </trkpt>
      <trkpt lat="45.74558" lon="6.4903">
        <ele>1567</ele>
        <time>2022-07-24T04:50:08Z</time>
      </trkpt>
      <trkpt lat="45.74558" lon="6.49031">
        <ele>1567</ele>
        <time>2022-07-24T04:50:09Z</time>
      </trkpt>
      <trkpt lat="45.74558" lon="6.49032">
        <ele>1567</ele>
        <time>2022-07-24T04:50:10Z</time>
      </trkpt>
      <trkpt lat="45.74558" lon="6.49033">
        <ele>1567</ele>
        <time>2022-07-24T04:50:11Z</time>
      </trkpt>
      <trkpt lat="45.74558" lon="6.49034">
        <ele>1567</ele>
        <time>2022-07-24T04:50:12Z</time>
      </trkpt>
      <trkpt lat="45.74558" lon="6.49035">
        <ele>1567</ele>
        <time>2022-07-24T04:50:13Z</time>
      </trkpt>
      <trkpt lat="45.74559" lon="6.49037">
        <ele>1567</ele>
        <time>2022-07-24T04:50:14Z</time>
      </trkpt>
      <trkpt lat="45.74559" lon="6.49038">
        <ele>1567</ele>
        <time>2022-07-24T04:50:15Z</time>
      </trkpt>
      <trkpt lat="45.74559" lon="6.49039">
        <ele>1567</ele>
        <time>2022-07-24T04:50:16Z</time>
      </trkpt>
      <trkpt lat="45.74559" lon="6.4904">
        <ele>1568</ele>
        <time>2022-07-24T04:50:17Z</time>
      </trkpt>
      <trkpt lat="45.74559" lon="6.49041">
        <ele>1568</ele>
        <time>2022-07-24T04:50:18Z</time>
      </trkpt>
      <trkpt lat="45.7456" lon="6.49042">
        <ele>1569</ele>
        <time>2022-07-24T04:50:19Z</time>
      </trkpt>
      <trkpt lat="45.7456" lon="6.49043">
        <ele>1569</ele>
        <time>2022-07-24T04:50:20Z</time>
      </trkpt>
      <trkpt lat="45.7456" lon="6.49044">
        <ele>1569</ele>
        <time>2022-07-24T04:50:21Z</time>
      </trkpt>
      <trkpt lat="45.7456" lon="6.49045">
        <ele>1569</ele>
        <time>2022-07-24T04:50:22Z</time>
      </trkpt>
      <trkpt lat="45.7456" lon="6.49047">
        <ele>1569</ele>
        <time>2022-07-24T04:50:23Z</time>
      </trkpt>
      <trkpt lat="45.7456" lon="6.49048">
        <ele>1569</ele>
        <time>2022-07-24T04:50:24Z</time>
      </trkpt>
      <trkpt lat="45.7456" lon="6.49049">
        <ele>1569</ele>
        <time>2022-07-24T04:50:25Z</time>
      </trkpt>
      <trkpt lat="45.7456" lon="6.4905">
        <ele>1569</ele>
        <time>2022-07-24T04:50:26Z</time>
      </trkpt>
      <trkpt lat="45.7456" lon="6.49051">
        <ele>1569</ele>
        <time>2022-07-24T04:50:27Z</time>
      </trkpt>
      <trkpt lat="45.7456" lon="6.49052">
        <ele>1569</ele>
        <time>2022-07-24T04:50:28Z</time>
      </trkpt>
      <trkpt lat="45.7456" lon="6.49053">
        <ele>1569</ele>
        <time>2022-07-24T04:50:29Z</time>
      </trkpt>
      <trkpt lat="45.7456" lon="6.49054">
        <ele>1569</ele>
        <time>2022-07-24T04:50:30Z</time>
      </trkpt>
      <trkpt lat="45.7456" lon="6.49056">
        <ele>1569</ele>
        <time>2022-07-24T04:50:31Z</time>
      </trkpt>
      <trkpt lat="45.7456" lon="6.49057">
        <ele>1569</ele>
        <time>2022-07-24T04:50:32Z</time>
      </trkpt>
      <trkpt lat="45.7456" lon="6.49058">
        <ele>1569</ele>
        <time>2022-07-24T04:50:33Z</time>
      </trkpt>
      <trkpt lat="45.7456" lon="6.49059">
        <ele>1570</ele>
        <time>2022-07-24T04:50:34Z</time>
      </trkpt>
      <trkpt lat="45.74559" lon="6.4906">
        <ele>1570</ele>
        <time>2022-07-24T04:50:35Z</time>
      </trkpt>
      <trkpt lat="45.74559" lon="6.49061">
        <ele>1570</ele>
        <time>2022-07-24T04:50:36Z</time>
      </trkpt>
      <trkpt lat="45.74559" lon="6.49062">
        <ele>1570</ele>
        <time>2022-07-24T04:50:37Z</time>
      </trkpt>
      <trkpt lat="45.74559" lon="6.49063">
        <ele>1570</ele>
        <time>2022-07-24T04:50:38Z</time>
      </trkpt>
      <trkpt lat="45.74559" lon="6.49064">
        <ele>1570</ele>
        <time>2022-07-24T04:50:39Z</time>
      </trkpt>
      <trkpt lat="45.74558" lon="6.49065">
        <ele>1570</ele>
        <time>2022-07-24T04:50:40Z</time>
      </trkpt>
      <trkpt lat="45.74558" lon="6.49067">
        <ele>1570</ele>
        <time>2022-07-24T04:50:41Z</time>
      </trkpt>
      <trkpt lat="45.74558" lon="6.49068">
        <ele>1570</ele>
        <time>2022-07-24T04:50:42Z</time>
      </trkpt>
      <trkpt lat="45.74557" lon="6.49069">
        <ele>1570</ele>
        <time>2022-07-24T04:50:43Z</time>
      </trkpt>
      <trkpt lat="45.74557" lon="6.4907">
        <ele>1571</ele>
        <time>2022-07-24T04:50:44Z</time>
      </trkpt>
      <trkpt lat="45.74556" lon="6.49072">
        <ele>1571</ele>
        <time>2022-07-24T04:50:45Z</time>
      </trkpt>
      <trkpt lat="45.74556" lon="6.49073">
        <ele>1571</ele>
        <time>2022-07-24T04:50:46Z</time>
      </trkpt>
      <trkpt lat="45.74556" lon="6.49074">
        <ele>1571</ele>
        <time>2022-07-24T04:50:47Z</time>
      </trkpt>
      <trkpt lat="45.74555" lon="6.49075">
        <ele>1571</ele>
        <time>2022-07-24T04:50:48Z</time>
      </trkpt>
      <trkpt lat="45.74555" lon="6.49077">
        <ele>1571</ele>
        <time>2022-07-24T04:50:49Z</time>
      </trkpt>
      <trkpt lat="45.74555" lon="6.49078">
        <ele>1571</ele>
        <time>2022-07-24T04:50:50Z</time>
      </trkpt>
      <trkpt lat="45.74555" lon="6.49079">
        <ele>1571</ele>
        <time>2022-07-24T04:50:51Z</time>
      </trkpt>
      <trkpt lat="45.74555" lon="6.4908">
        <ele>1571</ele>
        <time>2022-07-24T04:50:52Z</time>
      </trkpt>
      <trkpt lat="45.74555" lon="6.49082">
        <ele>1571</ele>
        <time>2022-07-24T04:50:53Z</time>
      </trkpt>
      <trkpt lat="45.74555" lon="6.49083">
        <ele>1572</ele>
        <time>2022-07-24T04:50:54Z</time>
      </trkpt>
      <trkpt lat="45.74555" lon="6.49084">
        <ele>1572</ele>
        <time>2022-07-24T04:50:55Z</time>
      </trkpt>
      <trkpt lat="45.74555" lon="6.49085">
        <ele>1572</ele>
        <time>2022-07-24T04:50:56Z</time>
      </trkpt>
      <trkpt lat="45.74555" lon="6.49086">
        <ele>1572</ele>
        <time>2022-07-24T04:50:57Z</time>
      </trkpt>
      <trkpt lat="45.74555" lon="6.49088">
        <ele>1572</ele>
        <time>2022-07-24T04:50:58Z</time>
      </trkpt>
      <trkpt lat="45.74555" lon="6.49089">
        <ele>1572</ele>
        <time>2022-07-24T04:50:59Z</time>
      </trkpt>
      <trkpt lat="45.74555" lon="6.4909">
        <ele>1572</ele>
        <time>2022-07-24T04:51:00Z</time>
      </trkpt>
      <trkpt lat="45.74555" lon="6.49091">
        <ele>1572</ele>
        <time>2022-07-24T04:51:01Z</time>
      </trkpt>
      <trkpt lat="45.74555" lon="6.49092">
        <ele>1572</ele>
        <time>2022-07-24T04:51:02Z</time>
      </trkpt>
      <trkpt lat="45.74555" lon="6.49093">
        <ele>1572</ele>
        <time>2022-07-24T04:51:03Z</time>
      </trkpt>
      <trkpt lat="45.74555" lon="6.49095">
        <ele>1572</ele>
        <time>2022-07-24T04:51:04Z</time>
      </trkpt>
      <trkpt lat="45.74555" lon="6.49096">
        <ele>1572</ele>
        <time>2022-07-24T04:51:05Z</time>
      </trkpt>
      <trkpt lat="45.74555" lon="6.49097">
        <ele>1572</ele>
        <time>2022-07-24T04:51:06Z</time>
      </trkpt>
      <trkpt lat="45.74555" lon="6.49098">
        <ele>1572</ele>
        <time>2022-07-24T04:51:07Z</time>
      </trkpt>
      <trkpt lat="45.74555" lon="6.49099">
        <ele>1572</ele>
        <time>2022-07-24T04:51:08Z</time>
      </trkpt>
      <trkpt lat="45.74556" lon="6.491">
        <ele>1573</ele>
        <time>2022-07-24T04:51:09Z</time>
      </trkpt>
      <trkpt lat="45.74556" lon="6.49101">
        <ele>1573</ele>
        <time>2022-07-24T04:51:10Z</time>
      </trkpt>
      <trkpt lat="45.74556" lon="6.49102">
        <ele>1573</ele>
        <time>2022-07-24T04:51:11Z</time>
      </trkpt>
      <trkpt lat="45.74556" lon="6.49103">
        <ele>1573</ele>
        <time>2022-07-24T04:51:12Z</time>
      </trkpt>
      <trkpt lat="45.74556" lon="6.49104">
        <ele>1573</ele>
        <time>2022-07-24T04:51:13Z</time>
      </trkpt>
      <trkpt lat="45.74556" lon="6.49105">
        <ele>1573</ele>
        <time>2022-07-24T04:51:14Z</time>
      </trkpt>
      <trkpt lat="45.74556" lon="6.49106">
        <ele>1573</ele>
        <time>2022-07-24T04:51:15Z</time>
      </trkpt>
      <trkpt lat="45.74557" lon="6.49107">
        <ele>1573</ele>
        <time>2022-07-24T04:51:16Z</time>
      </trkpt>
      <trkpt lat="45.74557" lon="6.49108">
        <ele>1573</ele>
        <time>2022-07-24T04:51:17Z</time>
      </trkpt>
      <trkpt lat="45.74557" lon="6.49109">
        <ele>1573</ele>
        <time>2022-07-24T04:51:18Z</time>
      </trkpt>
      <trkpt lat="45.74558" lon="6.4911">
        <ele>1573</ele>
        <time>2022-07-24T04:51:19Z</time>
      </trkpt>
      <trkpt lat="45.74558" lon="6.4911">
        <ele>1573</ele>
        <time>2022-07-24T04:51:20Z</time>
      </trkpt>
      <trkpt lat="45.74559" lon="6.49111">
        <ele>1573</ele>
        <time>2022-07-24T04:51:21Z</time>
      </trkpt>
      <trkpt lat="45.74559" lon="6.49111">
        <ele>1573</ele>
        <time>2022-07-24T04:51:22Z</time>
      </trkpt>
      <trkpt lat="45.74559" lon="6.49112">
        <ele>1573</ele>
        <time>2022-07-24T04:51:23Z</time>
      </trkpt>
      <trkpt lat="45.7456" lon="6.49113">
        <ele>1574</ele>
        <time>2022-07-24T04:51:24Z</time>
      </trkpt>
      <trkpt lat="45.7456" lon="6.49114">
        <ele>1574</ele>
        <time>2022-07-24T04:51:25Z</time>
      </trkpt>
      <trkpt lat="45.74561" lon="6.49115">
        <ele>1574</ele>
        <time>2022-07-24T04:51:26Z</time>
      </trkpt>
      <trkpt lat="45.74561" lon="6.49115">
        <ele>1574</ele>
        <time>2022-07-24T04:51:27Z</time>
      </trkpt>
      <trkpt lat="45.74561" lon="6.49116">
        <ele>1574</ele>
        <time>2022-07-24T04:51:28Z</time>
      </trkpt>
      <trkpt lat="45.74562" lon="6.49117">
        <ele>1574</ele>
        <time>2022-07-24T04:51:29Z</time>
      </trkpt>
      <trkpt lat="45.74562" lon="6.49118">
        <ele>1574</ele>
        <time>2022-07-24T04:51:30Z</time>
      </trkpt>
      <trkpt lat="45.74562" lon="6.49119">
        <ele>1574</ele>
        <time>2022-07-24T04:51:31Z</time>
      </trkpt>
      <trkpt lat="45.74563" lon="6.4912">
        <ele>1574</ele>
        <time>2022-07-24T04:51:32Z</time>
      </trkpt>
      <trkpt lat="45.74563" lon="6.49121">
        <ele>1574</ele>
        <time>2022-07-24T04:51:33Z</time>
      </trkpt>
      <trkpt lat="45.74564" lon="6.49122">
        <ele>1574</ele>
        <time>2022-07-24T04:51:34Z</time>
      </trkpt>
      <trkpt lat="45.74565" lon="6.49123">
        <ele>1574</ele>
        <time>2022-07-24T04:51:35Z</time>
      </trkpt>
      <trkpt lat="45.74565" lon="6.49123">
        <ele>1574</ele>
        <time>2022-07-24T04:51:36Z</time>
      </trkpt>
      <trkpt lat="45.74566" lon="6.49124">
        <ele>1574</ele>
        <time>2022-07-24T04:51:37Z</time>
      </trkpt>
      <trkpt lat="45.74566" lon="6.49124">
        <ele>1574</ele>
        <time>2022-07-24T04:51:38Z</time>
      </trkpt>
      <trkpt lat="45.74567" lon="6.49124">
        <ele>1575</ele>
        <time>2022-07-24T04:51:39Z</time>
      </trkpt>
      <trkpt lat="45.74567" lon="6.49125">
        <ele>1575</ele>
        <time>2022-07-24T04:51:40Z</time>
      </trkpt>
      <trkpt lat="45.74568" lon="6.49125">
        <ele>1575</ele>
        <time>2022-07-24T04:51:41Z</time>
      </trkpt>
      <trkpt lat="45.74569" lon="6.49125">
        <ele>1575</ele>
        <time>2022-07-24T04:51:42Z</time>
      </trkpt>
      <trkpt lat="45.74569" lon="6.49126">
        <ele>1575</ele>
        <time>2022-07-24T04:51:43Z</time>
      </trkpt>
      <trkpt lat="45.74571" lon="6.49126">
        <ele>1575</ele>
        <time>2022-07-24T04:51:50Z</time>
      </trkpt>
      <trkpt lat="45.74572" lon="6.49127">
        <ele>1575</ele>
        <time>2022-07-24T04:51:51Z</time>
      </trkpt>
      <trkpt lat="45.74573" lon="6.49127">
        <ele>1575</ele>
        <time>2022-07-24T04:51:52Z</time>
      </trkpt>
      <trkpt lat="45.74574" lon="6.49127">
        <ele>1575</ele>
        <time>2022-07-24T04:51:53Z</time>
      </trkpt>
      <trkpt lat="45.74575" lon="6.49127">
        <ele>1576</ele>
        <time>2022-07-24T04:51:54Z</time>
      </trkpt>
      <trkpt lat="45.74575" lon="6.49128">
        <ele>1576</ele>
        <time>2022-07-24T04:51:55Z</time>
      </trkpt>
      <trkpt lat="45.74576" lon="6.49128">
        <ele>1576</ele>
        <time>2022-07-24T04:51:56Z</time>
      </trkpt>
      <trkpt lat="45.74577" lon="6.49128">
        <ele>1576</ele>
        <time>2022-07-24T04:51:57Z</time>
      </trkpt>
      <trkpt lat="45.74577" lon="6.49128">
        <ele>1576</ele>
        <time>2022-07-24T04:51:58Z</time>
      </trkpt>
      <trkpt lat="45.74578" lon="6.49128">
        <ele>1576</ele>
        <time>2022-07-24T04:51:59Z</time>
      </trkpt>
      <trkpt lat="45.74579" lon="6.49128">
        <ele>1576</ele>
        <time>2022-07-24T04:52:00Z</time>
      </trkpt>
      <trkpt lat="45.74579" lon="6.49128">
        <ele>1576</ele>
        <time>2022-07-24T04:52:01Z</time>
      </trkpt>
      <trkpt lat="45.7458" lon="6.49129">
        <ele>1576</ele>
        <time>2022-07-24T04:52:02Z</time>
      </trkpt>
      <trkpt lat="45.7458" lon="6.49129">
        <ele>1576</ele>
        <time>2022-07-24T04:52:03Z</time>
      </trkpt>
      <trkpt lat="45.74581" lon="6.4913">
        <ele>1577</ele>
        <time>2022-07-24T04:52:04Z</time>
      </trkpt>
      <trkpt lat="45.74582" lon="6.4913">
        <ele>1577</ele>
        <time>2022-07-24T04:52:05Z</time>
      </trkpt>
      <trkpt lat="45.74582" lon="6.4913">
        <ele>1577</ele>
        <time>2022-07-24T04:52:06Z</time>
      </trkpt>
      <trkpt lat="45.74583" lon="6.49131">
        <ele>1577</ele>
        <time>2022-07-24T04:52:07Z</time>
      </trkpt>
      <trkpt lat="45.74584" lon="6.49131">
        <ele>1577</ele>
        <time>2022-07-24T04:52:08Z</time>
      </trkpt>
      <trkpt lat="45.74585" lon="6.49132">
        <ele>1578</ele>
        <time>2022-07-24T04:52:09Z</time>
      </trkpt>
      <trkpt lat="45.74585" lon="6.49132">
        <ele>1578</ele>
        <time>2022-07-24T04:52:10Z</time>
      </trkpt>
      <trkpt lat="45.74586" lon="6.49132">
        <ele>1578</ele>
        <time>2022-07-24T04:52:11Z</time>
      </trkpt>
      <trkpt lat="45.74587" lon="6.49133">
        <ele>1578</ele>
        <time>2022-07-24T04:52:12Z</time>
      </trkpt>
      <trkpt lat="45.74588" lon="6.49133">
        <ele>1578</ele>
        <time>2022-07-24T04:52:13Z</time>
      </trkpt>
      <trkpt lat="45.74588" lon="6.49133">
        <ele>1578</ele>
        <time>2022-07-24T04:52:14Z</time>
      </trkpt>
      <trkpt lat="45.74589" lon="6.49133">
        <ele>1578</ele>
        <time>2022-07-24T04:52:15Z</time>
      </trkpt>
      <trkpt lat="45.7459" lon="6.49134">
        <ele>1578</ele>
        <time>2022-07-24T04:52:16Z</time>
      </trkpt>
      <trkpt lat="45.74591" lon="6.49134">
        <ele>1578</ele>
        <time>2022-07-24T04:52:17Z</time>
      </trkpt>
      <trkpt lat="45.74592" lon="6.49134">
        <ele>1578</ele>
        <time>2022-07-24T04:52:18Z</time>
      </trkpt>
      <trkpt lat="45.74592" lon="6.49134">
        <ele>1579</ele>
        <time>2022-07-24T04:52:19Z</time>
      </trkpt>
      <trkpt lat="45.74593" lon="6.49134">
        <ele>1579</ele>
        <time>2022-07-24T04:52:20Z</time>
      </trkpt>
      <trkpt lat="45.74594" lon="6.49135">
        <ele>1579</ele>
        <time>2022-07-24T04:52:21Z</time>
      </trkpt>
      <trkpt lat="45.74595" lon="6.49135">
        <ele>1579</ele>
        <time>2022-07-24T04:52:22Z</time>
      </trkpt>
      <trkpt lat="45.74595" lon="6.49136">
        <ele>1579</ele>
        <time>2022-07-24T04:52:23Z</time>
      </trkpt>
      <trkpt lat="45.74596" lon="6.49136">
        <ele>1579</ele>
        <time>2022-07-24T04:52:24Z</time>
      </trkpt>
      <trkpt lat="45.74597" lon="6.49137">
        <ele>1579</ele>
        <time>2022-07-24T04:52:25Z</time>
      </trkpt>
      <trkpt lat="45.74598" lon="6.49137">
        <ele>1579</ele>
        <time>2022-07-24T04:52:26Z</time>
      </trkpt>
      <trkpt lat="45.74598" lon="6.49138">
        <ele>1579</ele>
        <time>2022-07-24T04:52:27Z</time>
      </trkpt>
      <trkpt lat="45.74599" lon="6.49138">
        <ele>1579</ele>
        <time>2022-07-24T04:52:28Z</time>
      </trkpt>
      <trkpt lat="45.74599" lon="6.49139">
        <ele>1579</ele>
        <time>2022-07-24T04:52:29Z</time>
      </trkpt>
      <trkpt lat="45.746" lon="6.49139">
        <ele>1579</ele>
        <time>2022-07-24T04:52:30Z</time>
      </trkpt>
      <trkpt lat="45.74601" lon="6.49139">
        <ele>1579</ele>
        <time>2022-07-24T04:52:31Z</time>
      </trkpt>
      <trkpt lat="45.74602" lon="6.4914">
        <ele>1579</ele>
        <time>2022-07-24T04:52:32Z</time>
      </trkpt>
      <trkpt lat="45.74602" lon="6.4914">
        <ele>1579</ele>
        <time>2022-07-24T04:52:33Z</time>
      </trkpt>
      <trkpt lat="45.74603" lon="6.49141">
        <ele>1580</ele>
        <time>2022-07-24T04:52:34Z</time>
      </trkpt>
      <trkpt lat="45.74604" lon="6.49141">
        <ele>1580</ele>
        <time>2022-07-24T04:52:35Z</time>
      </trkpt>
      <trkpt lat="45.74605" lon="6.49142">
        <ele>1580</ele>
        <time>2022-07-24T04:52:36Z</time>
      </trkpt>
      <trkpt lat="45.74605" lon="6.49142">
        <ele>1580</ele>
        <time>2022-07-24T04:52:37Z</time>
      </trkpt>
      <trkpt lat="45.74606" lon="6.49142">
        <ele>1580</ele>
        <time>2022-07-24T04:52:38Z</time>
      </trkpt>
      <trkpt lat="45.74607" lon="6.49143">
        <ele>1580</ele>
        <time>2022-07-24T04:52:39Z</time>
      </trkpt>
      <trkpt lat="45.74608" lon="6.49143">
        <ele>1580</ele>
        <time>2022-07-24T04:52:40Z</time>
      </trkpt>
      <trkpt lat="45.74609" lon="6.49143">
        <ele>1580</ele>
        <time>2022-07-24T04:52:41Z</time>
      </trkpt>
      <trkpt lat="45.7461" lon="6.49144">
        <ele>1580</ele>
        <time>2022-07-24T04:52:42Z</time>
      </trkpt>
      <trkpt lat="45.7461" lon="6.49144">
        <ele>1580</ele>
        <time>2022-07-24T04:52:43Z</time>
      </trkpt>
      <trkpt lat="45.74611" lon="6.49144">
        <ele>1581</ele>
        <time>2022-07-24T04:52:44Z</time>
      </trkpt>
      <trkpt lat="45.74612" lon="6.49145">
        <ele>1581</ele>
        <time>2022-07-24T04:52:45Z</time>
      </trkpt>
      <trkpt lat="45.74613" lon="6.49145">
        <ele>1581</ele>
        <time>2022-07-24T04:52:46Z</time>
      </trkpt>
      <trkpt lat="45.74614" lon="6.49146">
        <ele>1581</ele>
        <time>2022-07-24T04:52:47Z</time>
      </trkpt>
      <trkpt lat="45.74614" lon="6.49146">
        <ele>1581</ele>
        <time>2022-07-24T04:52:48Z</time>
      </trkpt>
      <trkpt lat="45.74615" lon="6.49146">
        <ele>1581</ele>
        <time>2022-07-24T04:52:49Z</time>
      </trkpt>
      <trkpt lat="45.74616" lon="6.49146">
        <ele>1581</ele>
        <time>2022-07-24T04:52:50Z</time>
      </trkpt>
      <trkpt lat="45.74617" lon="6.49146">
        <ele>1581</ele>
        <time>2022-07-24T04:52:51Z</time>
      </trkpt>
      <trkpt lat="45.74618" lon="6.49147">
        <ele>1581</ele>
        <time>2022-07-24T04:52:52Z</time>
      </trkpt>
      <trkpt lat="45.74619" lon="6.49147">
        <ele>1581</ele>
        <time>2022-07-24T04:52:53Z</time>
      </trkpt>
      <trkpt lat="45.7462" lon="6.49147">
        <ele>1581</ele>
        <time>2022-07-24T04:52:54Z</time>
      </trkpt>
      <trkpt lat="45.74621" lon="6.49148">
        <ele>1581</ele>
        <time>2022-07-24T04:52:55Z</time>
      </trkpt>
      <trkpt lat="45.74621" lon="6.49148">
        <ele>1581</ele>
        <time>2022-07-24T04:52:56Z</time>
      </trkpt>
      <trkpt lat="45.74622" lon="6.49149">
        <ele>1581</ele>
        <time>2022-07-24T04:52:57Z</time>
      </trkpt>
      <trkpt lat="45.74623" lon="6.49149">
        <ele>1581</ele>
        <time>2022-07-24T04:52:58Z</time>
      </trkpt>
      <trkpt lat="45.74623" lon="6.4915">
        <ele>1582</ele>
        <time>2022-07-24T04:52:59Z</time>
      </trkpt>
      <trkpt lat="45.74624" lon="6.4915">
        <ele>1582</ele>
        <time>2022-07-24T04:53:00Z</time>
      </trkpt>
      <trkpt lat="45.74625" lon="6.49151">
        <ele>1582</ele>
        <time>2022-07-24T04:53:01Z</time>
      </trkpt>
      <trkpt lat="45.74625" lon="6.49152">
        <ele>1582</ele>
        <time>2022-07-24T04:53:02Z</time>
      </trkpt>
      <trkpt lat="45.74626" lon="6.49152">
        <ele>1582</ele>
        <time>2022-07-24T04:53:03Z</time>
      </trkpt>
      <trkpt lat="45.74627" lon="6.49153">
        <ele>1582</ele>
        <time>2022-07-24T04:53:04Z</time>
      </trkpt>
      <trkpt lat="45.74627" lon="6.49153">
        <ele>1582</ele>
        <time>2022-07-24T04:53:05Z</time>
      </trkpt>
      <trkpt lat="45.74628" lon="6.49154">
        <ele>1582</ele>
        <time>2022-07-24T04:53:06Z</time>
      </trkpt>
      <trkpt lat="45.74629" lon="6.49154">
        <ele>1582</ele>
        <time>2022-07-24T04:53:07Z</time>
      </trkpt>
      <trkpt lat="45.7463" lon="6.49155">
        <ele>1582</ele>
        <time>2022-07-24T04:53:08Z</time>
      </trkpt>
      <trkpt lat="45.74631" lon="6.49155">
        <ele>1582</ele>
        <time>2022-07-24T04:53:09Z</time>
      </trkpt>
      <trkpt lat="45.74631" lon="6.49155">
        <ele>1582</ele>
        <time>2022-07-24T04:53:10Z</time>
      </trkpt>
      <trkpt lat="45.74632" lon="6.49155">
        <ele>1582</ele>
        <time>2022-07-24T04:53:11Z</time>
      </trkpt>
      <trkpt lat="45.74633" lon="6.49156">
        <ele>1582</ele>
        <time>2022-07-24T04:53:12Z</time>
      </trkpt>
      <trkpt lat="45.74633" lon="6.49156">
        <ele>1582</ele>
        <time>2022-07-24T04:53:13Z</time>
      </trkpt>
      <trkpt lat="45.74634" lon="6.49157">
        <ele>1583</ele>
        <time>2022-07-24T04:53:14Z</time>
      </trkpt>
      <trkpt lat="45.74635" lon="6.49157">
        <ele>1583</ele>
        <time>2022-07-24T04:53:15Z</time>
      </trkpt>
      <trkpt lat="45.74635" lon="6.49158">
        <ele>1583</ele>
        <time>2022-07-24T04:53:16Z</time>
      </trkpt>
      <trkpt lat="45.74636" lon="6.49158">
        <ele>1583</ele>
        <time>2022-07-24T04:53:17Z</time>
      </trkpt>
      <trkpt lat="45.74637" lon="6.49159">
        <ele>1583</ele>
        <time>2022-07-24T04:53:18Z</time>
      </trkpt>
      <trkpt lat="45.74637" lon="6.49159">
        <ele>1583</ele>
        <time>2022-07-24T04:53:19Z</time>
      </trkpt>
      <trkpt lat="45.74638" lon="6.4916">
        <ele>1583</ele>
        <time>2022-07-24T04:53:20Z</time>
      </trkpt>
      <trkpt lat="45.74639" lon="6.4916">
        <ele>1583</ele>
        <time>2022-07-24T04:53:21Z</time>
      </trkpt>
      <trkpt lat="45.74639" lon="6.49161">
        <ele>1583</ele>
        <time>2022-07-24T04:53:22Z</time>
      </trkpt>
      <trkpt lat="45.7464" lon="6.49161">
        <ele>1583</ele>
        <time>2022-07-24T04:53:23Z</time>
      </trkpt>
      <trkpt lat="45.7464" lon="6.49161">
        <ele>1583</ele>
        <time>2022-07-24T04:53:24Z</time>
      </trkpt>
      <trkpt lat="45.74641" lon="6.49162">
        <ele>1583</ele>
        <time>2022-07-24T04:53:25Z</time>
      </trkpt>
      <trkpt lat="45.74642" lon="6.49162">
        <ele>1583</ele>
        <time>2022-07-24T04:53:26Z</time>
      </trkpt>
      <trkpt lat="45.74643" lon="6.49163">
        <ele>1583</ele>
        <time>2022-07-24T04:53:27Z</time>
      </trkpt>
      <trkpt lat="45.74643" lon="6.49163">
        <ele>1583</ele>
        <time>2022-07-24T04:53:28Z</time>
      </trkpt>
      <trkpt lat="45.74644" lon="6.49164">
        <ele>1584</ele>
        <time>2022-07-24T04:53:29Z</time>
      </trkpt>
      <trkpt lat="45.74645" lon="6.49164">
        <ele>1584</ele>
        <time>2022-07-24T04:53:30Z</time>
      </trkpt>
      <trkpt lat="45.74645" lon="6.49165">
        <ele>1584</ele>
        <time>2022-07-24T04:53:31Z</time>
      </trkpt>
      <trkpt lat="45.74646" lon="6.49165">
        <ele>1584</ele>
        <time>2022-07-24T04:53:32Z</time>
      </trkpt>
      <trkpt lat="45.74647" lon="6.49166">
        <ele>1585</ele>
        <time>2022-07-24T04:53:52Z</time>
      </trkpt>
      <trkpt lat="45.74648" lon="6.49166">
        <ele>1585</ele>
        <time>2022-07-24T04:53:53Z</time>
      </trkpt>
      <trkpt lat="45.74649" lon="6.49167">
        <ele>1585</ele>
        <time>2022-07-24T04:53:54Z</time>
      </trkpt>
      <trkpt lat="45.7465" lon="6.49167">
        <ele>1585</ele>
        <time>2022-07-24T04:53:55Z</time>
      </trkpt>
      <trkpt lat="45.7465" lon="6.49168">
        <ele>1585</ele>
        <time>2022-07-24T04:53:56Z</time>
      </trkpt>
      <trkpt lat="45.74651" lon="6.49169">
        <ele>1585</ele>
        <time>2022-07-24T04:53:57Z</time>
      </trkpt>
      <trkpt lat="45.74652" lon="6.4917">
        <ele>1585</ele>
        <time>2022-07-24T04:53:58Z</time>
      </trkpt>
      <trkpt lat="45.74653" lon="6.4917">
        <ele>1585</ele>
        <time>2022-07-24T04:53:59Z</time>
      </trkpt>
      <trkpt lat="45.74653" lon="6.49171">
        <ele>1585</ele>
        <time>2022-07-24T04:54:00Z</time>
      </trkpt>
      <trkpt lat="45.74654" lon="6.49171">
        <ele>1585</ele>
        <time>2022-07-24T04:54:01Z</time>
      </trkpt>
      <trkpt lat="45.74655" lon="6.49172">
        <ele>1585</ele>
        <time>2022-07-24T04:54:02Z</time>
      </trkpt>
      <trkpt lat="45.74655" lon="6.49172">
        <ele>1585</ele>
        <time>2022-07-24T04:54:03Z</time>
      </trkpt>
      <trkpt lat="45.74656" lon="6.49173">
        <ele>1585</ele>
        <time>2022-07-24T04:54:04Z</time>
      </trkpt>
      <trkpt lat="45.74657" lon="6.49173">
        <ele>1585</ele>
        <time>2022-07-24T04:54:05Z</time>
      </trkpt>
      <trkpt lat="45.74658" lon="6.49174">
        <ele>1585</ele>
        <time>2022-07-24T04:54:06Z</time>
      </trkpt>
      <trkpt lat="45.74658" lon="6.49174">
        <ele>1585</ele>
        <time>2022-07-24T04:54:07Z</time>
      </trkpt>
      <trkpt lat="45.74659" lon="6.49174">
        <ele>1585</ele>
        <time>2022-07-24T04:54:08Z</time>
      </trkpt>
      <trkpt lat="45.7466" lon="6.49175">
        <ele>1585</ele>
        <time>2022-07-24T04:54:09Z</time>
      </trkpt>
      <trkpt lat="45.74661" lon="6.49175">
        <ele>1585</ele>
        <time>2022-07-24T04:54:10Z</time>
      </trkpt>
      <trkpt lat="45.74661" lon="6.49176">
        <ele>1585</ele>
        <time>2022-07-24T04:54:11Z</time>
      </trkpt>
      <trkpt lat="45.74662" lon="6.49176">
        <ele>1585</ele>
        <time>2022-07-24T04:54:12Z</time>
      </trkpt>
      <trkpt lat="45.74663" lon="6.49177">
        <ele>1585</ele>
        <time>2022-07-24T04:54:13Z</time>
      </trkpt>
      <trkpt lat="45.74664" lon="6.49177">
        <ele>1586</ele>
        <time>2022-07-24T04:54:14Z</time>
      </trkpt>
      <trkpt lat="45.74664" lon="6.49178">
        <ele>1586</ele>
        <time>2022-07-24T04:54:15Z</time>
      </trkpt>
      <trkpt lat="45.74665" lon="6.49178">
        <ele>1586</ele>
        <time>2022-07-24T04:54:16Z</time>
      </trkpt>
      <trkpt lat="45.74666" lon="6.49179">
        <ele>1586</ele>
        <time>2022-07-24T04:54:17Z</time>
      </trkpt>
      <trkpt lat="45.74667" lon="6.4918">
        <ele>1586</ele>
        <time>2022-07-24T04:54:18Z</time>
      </trkpt>
      <trkpt lat="45.74668" lon="6.4918">
        <ele>1586</ele>
        <time>2022-07-24T04:54:19Z</time>
      </trkpt>
      <trkpt lat="45.74668" lon="6.49181">
        <ele>1586</ele>
        <time>2022-07-24T04:54:20Z</time>
      </trkpt>
      <trkpt lat="45.74669" lon="6.49181">
        <ele>1586</ele>
        <time>2022-07-24T04:54:21Z</time>
      </trkpt>
      <trkpt lat="45.7467" lon="6.49182">
        <ele>1586</ele>
        <time>2022-07-24T04:54:22Z</time>
      </trkpt>
      <trkpt lat="45.74671" lon="6.49182">
        <ele>1586</ele>
        <time>2022-07-24T04:54:23Z</time>
      </trkpt>
      <trkpt lat="45.74672" lon="6.49183">
        <ele>1586</ele>
        <time>2022-07-24T04:54:24Z</time>
      </trkpt>
      <trkpt lat="45.74672" lon="6.49183">
        <ele>1586</ele>
        <time>2022-07-24T04:54:25Z</time>
      </trkpt>
      <trkpt lat="45.74673" lon="6.49183">
        <ele>1586</ele>
        <time>2022-07-24T04:54:26Z</time>
      </trkpt>
      <trkpt lat="45.74674" lon="6.49184">
        <ele>1586</ele>
        <time>2022-07-24T04:54:27Z</time>
      </trkpt>
      <trkpt lat="45.74674" lon="6.49184">
        <ele>1586</ele>
        <time>2022-07-24T04:54:28Z</time>
      </trkpt>
      <trkpt lat="45.74675" lon="6.49185">
        <ele>1587</ele>
        <time>2022-07-24T04:54:29Z</time>
      </trkpt>
      <trkpt lat="45.74676" lon="6.49185">
        <ele>1587</ele>
        <time>2022-07-24T04:54:30Z</time>
      </trkpt>
      <trkpt lat="45.74676" lon="6.49186">
        <ele>1587</ele>
        <time>2022-07-24T04:54:31Z</time>
      </trkpt>
      <trkpt lat="45.74677" lon="6.49186">
        <ele>1587</ele>
        <time>2022-07-24T04:54:32Z</time>
      </trkpt>
      <trkpt lat="45.74678" lon="6.49186">
        <ele>1587</ele>
        <time>2022-07-24T04:54:33Z</time>
      </trkpt>
      <trkpt lat="45.74679" lon="6.49187">
        <ele>1587</ele>
        <time>2022-07-24T04:54:34Z</time>
      </trkpt>
      <trkpt lat="45.74679" lon="6.49188">
        <ele>1587</ele>
        <time>2022-07-24T04:54:35Z</time>
      </trkpt>
      <trkpt lat="45.7468" lon="6.49188">
        <ele>1587</ele>
        <time>2022-07-24T04:54:36Z</time>
      </trkpt>
      <trkpt lat="45.74681" lon="6.49189">
        <ele>1587</ele>
        <time>2022-07-24T04:54:37Z</time>
      </trkpt>
      <trkpt lat="45.74681" lon="6.49189">
        <ele>1587</ele>
        <time>2022-07-24T04:54:38Z</time>
      </trkpt>
      <trkpt lat="45.74682" lon="6.4919">
        <ele>1587</ele>
        <time>2022-07-24T04:54:39Z</time>
      </trkpt>
      <trkpt lat="45.74683" lon="6.49191">
        <ele>1587</ele>
        <time>2022-07-24T04:54:40Z</time>
      </trkpt>
      <trkpt lat="45.74684" lon="6.49191">
        <ele>1587</ele>
        <time>2022-07-24T04:54:41Z</time>
      </trkpt>
      <trkpt lat="45.74684" lon="6.49192">
        <ele>1587</ele>
        <time>2022-07-24T04:54:42Z</time>
      </trkpt>
      <trkpt lat="45.74685" lon="6.49192">
        <ele>1587</ele>
        <time>2022-07-24T04:54:43Z</time>
      </trkpt>
      <trkpt lat="45.74686" lon="6.49193">
        <ele>1588</ele>
        <time>2022-07-24T04:54:44Z</time>
      </trkpt>
      <trkpt lat="45.74686" lon="6.49194">
        <ele>1588</ele>
        <time>2022-07-24T04:54:45Z</time>
      </trkpt>
      <trkpt lat="45.74687" lon="6.49194">
        <ele>1588</ele>
        <time>2022-07-24T04:54:46Z</time>
      </trkpt>
      <trkpt lat="45.74687" lon="6.49195">
        <ele>1588</ele>
        <time>2022-07-24T04:54:47Z</time>
      </trkpt>
      <trkpt lat="45.74688" lon="6.49196">
        <ele>1588</ele>
        <time>2022-07-24T04:54:48Z</time>
      </trkpt>
      <trkpt lat="45.74689" lon="6.49197">
        <ele>1588</ele>
        <time>2022-07-24T04:54:49Z</time>
      </trkpt>
      <trkpt lat="45.74689" lon="6.49198">
        <ele>1588</ele>
        <time>2022-07-24T04:54:50Z</time>
      </trkpt>
      <trkpt lat="45.7469" lon="6.49198">
        <ele>1588</ele>
        <time>2022-07-24T04:54:51Z</time>
      </trkpt>
      <trkpt lat="45.7469" lon="6.49199">
        <ele>1588</ele>
        <time>2022-07-24T04:54:52Z</time>
      </trkpt>
      <trkpt lat="45.74691" lon="6.492">
        <ele>1588</ele>
        <time>2022-07-24T04:54:53Z</time>
      </trkpt>
      <trkpt lat="45.74691" lon="6.49201">
        <ele>1589</ele>
        <time>2022-07-24T04:54:54Z</time>
      </trkpt>
      <trkpt lat="45.74692" lon="6.49202">
        <ele>1589</ele>
        <time>2022-07-24T04:54:55Z</time>
      </trkpt>
      <trkpt lat="45.74692" lon="6.49203">
        <ele>1589</ele>
        <time>2022-07-24T04:54:56Z</time>
      </trkpt>
      <trkpt lat="45.74693" lon="6.49204">
        <ele>1589</ele>
        <time>2022-07-24T04:54:57Z</time>
      </trkpt>
      <trkpt lat="45.74693" lon="6.49205">
        <ele>1589</ele>
        <time>2022-07-24T04:54:58Z</time>
      </trkpt>
      <trkpt lat="45.74694" lon="6.49206">
        <ele>1589</ele>
        <time>2022-07-24T04:54:59Z</time>
      </trkpt>
      <trkpt lat="45.74694" lon="6.49207">
        <ele>1589</ele>
        <time>2022-07-24T04:55:00Z</time>
      </trkpt>
      <trkpt lat="45.74694" lon="6.49208">
        <ele>1589</ele>
        <time>2022-07-24T04:55:01Z</time>
      </trkpt>
      <trkpt lat="45.74695" lon="6.4921">
        <ele>1589</ele>
        <time>2022-07-24T04:55:02Z</time>
      </trkpt>
      <trkpt lat="45.74695" lon="6.49211">
        <ele>1589</ele>
        <time>2022-07-24T04:55:03Z</time>
      </trkpt>
      <trkpt lat="45.74695" lon="6.49212">
        <ele>1589</ele>
        <time>2022-07-24T04:55:04Z</time>
      </trkpt>
      <trkpt lat="45.74696" lon="6.49213">
        <ele>1589</ele>
        <time>2022-07-24T04:55:05Z</time>
      </trkpt>
      <trkpt lat="45.74696" lon="6.49214">
        <ele>1589</ele>
        <time>2022-07-24T04:55:06Z</time>
      </trkpt>
      <trkpt lat="45.74696" lon="6.49215">
        <ele>1589</ele>
        <time>2022-07-24T04:55:07Z</time>
      </trkpt>
      <trkpt lat="45.74697" lon="6.49216">
        <ele>1589</ele>
        <time>2022-07-24T04:55:08Z</time>
      </trkpt>
      <trkpt lat="45.74697" lon="6.49218">
        <ele>1589</ele>
        <time>2022-07-24T04:55:09Z</time>
      </trkpt>
      <trkpt lat="45.74697" lon="6.49219">
        <ele>1589</ele>
        <time>2022-07-24T04:55:10Z</time>
      </trkpt>
      <trkpt lat="45.74697" lon="6.4922">
        <ele>1589</ele>
        <time>2022-07-24T04:55:11Z</time>
      </trkpt>
      <trkpt lat="45.74697" lon="6.49221">
        <ele>1589</ele>
        <time>2022-07-24T04:55:12Z</time>
      </trkpt>
      <trkpt lat="45.74697" lon="6.49222">
        <ele>1589</ele>
        <time>2022-07-24T04:55:13Z</time>
      </trkpt>
      <trkpt lat="45.74698" lon="6.49223">
        <ele>1590</ele>
        <time>2022-07-24T04:55:14Z</time>
      </trkpt>
      <trkpt lat="45.74698" lon="6.49224">
        <ele>1590</ele>
        <time>2022-07-24T04:55:15Z</time>
      </trkpt>
      <trkpt lat="45.74698" lon="6.49225">
        <ele>1590</ele>
        <time>2022-07-24T04:55:16Z</time>
      </trkpt>
      <trkpt lat="45.74698" lon="6.49226">
        <ele>1590</ele>
        <time>2022-07-24T04:55:17Z</time>
      </trkpt>
      <trkpt lat="45.74698" lon="6.49227">
        <ele>1590</ele>
        <time>2022-07-24T04:55:18Z</time>
      </trkpt>
      <trkpt lat="45.74698" lon="6.49229">
        <ele>1590</ele>
        <time>2022-07-24T04:55:19Z</time>
      </trkpt>
      <trkpt lat="45.74698" lon="6.4923">
        <ele>1590</ele>
        <time>2022-07-24T04:55:20Z</time>
      </trkpt>
      <trkpt lat="45.74698" lon="6.49231">
        <ele>1590</ele>
        <time>2022-07-24T04:55:21Z</time>
      </trkpt>
      <trkpt lat="45.74697" lon="6.49232">
        <ele>1590</ele>
        <time>2022-07-24T04:55:22Z</time>
      </trkpt>
      <trkpt lat="45.74697" lon="6.49233">
        <ele>1590</ele>
        <time>2022-07-24T04:55:23Z</time>
      </trkpt>
      <trkpt lat="45.74697" lon="6.49235">
        <ele>1590</ele>
        <time>2022-07-24T04:55:24Z</time>
      </trkpt>
      <trkpt lat="45.74697" lon="6.49236">
        <ele>1590</ele>
        <time>2022-07-24T04:55:25Z</time>
      </trkpt>
      <trkpt lat="45.74697" lon="6.49237">
        <ele>1590</ele>
        <time>2022-07-24T04:55:26Z</time>
      </trkpt>
      <trkpt lat="45.74697" lon="6.49238">
        <ele>1590</ele>
        <time>2022-07-24T04:55:27Z</time>
      </trkpt>
      <trkpt lat="45.74697" lon="6.49239">
        <ele>1590</ele>
        <time>2022-07-24T04:55:28Z</time>
      </trkpt>
      <trkpt lat="45.74697" lon="6.4924">
        <ele>1591</ele>
        <time>2022-07-24T04:55:29Z</time>
      </trkpt>
      <trkpt lat="45.74697" lon="6.49241">
        <ele>1591</ele>
        <time>2022-07-24T04:55:30Z</time>
      </trkpt>
      <trkpt lat="45.74697" lon="6.49242">
        <ele>1591</ele>
        <time>2022-07-24T04:55:31Z</time>
      </trkpt>
      <trkpt lat="45.74697" lon="6.49243">
        <ele>1591</ele>
        <time>2022-07-24T04:55:32Z</time>
      </trkpt>
      <trkpt lat="45.74697" lon="6.49244">
        <ele>1591</ele>
        <time>2022-07-24T04:55:33Z</time>
      </trkpt>
      <trkpt lat="45.74697" lon="6.49245">
        <ele>1591</ele>
        <time>2022-07-24T04:55:34Z</time>
      </trkpt>
      <trkpt lat="45.74697" lon="6.49246">
        <ele>1591</ele>
        <time>2022-07-24T04:55:35Z</time>
      </trkpt>
      <trkpt lat="45.74697" lon="6.49247">
        <ele>1591</ele>
        <time>2022-07-24T04:55:36Z</time>
      </trkpt>
      <trkpt lat="45.74697" lon="6.49248">
        <ele>1591</ele>
        <time>2022-07-24T04:55:37Z</time>
      </trkpt>
      <trkpt lat="45.74697" lon="6.49249">
        <ele>1591</ele>
        <time>2022-07-24T04:55:38Z</time>
      </trkpt>
      <trkpt lat="45.74697" lon="6.4925">
        <ele>1591</ele>
        <time>2022-07-24T04:55:39Z</time>
      </trkpt>
      <trkpt lat="45.74697" lon="6.49251">
        <ele>1591</ele>
        <time>2022-07-24T04:55:40Z</time>
      </trkpt>
      <trkpt lat="45.74697" lon="6.49252">
        <ele>1591</ele>
        <time>2022-07-24T04:55:41Z</time>
      </trkpt>
      <trkpt lat="45.74697" lon="6.49253">
        <ele>1591</ele>
        <time>2022-07-24T04:55:42Z</time>
      </trkpt>
      <trkpt lat="45.74697" lon="6.49254">
        <ele>1591</ele>
        <time>2022-07-24T04:55:43Z</time>
      </trkpt>
      <trkpt lat="45.74697" lon="6.49255">
        <ele>1592</ele>
        <time>2022-07-24T04:55:44Z</time>
      </trkpt>
      <trkpt lat="45.74697" lon="6.49257">
        <ele>1592</ele>
        <time>2022-07-24T04:55:45Z</time>
      </trkpt>
      <trkpt lat="45.74697" lon="6.49258">
        <ele>1592</ele>
        <time>2022-07-24T04:55:46Z</time>
      </trkpt>
      <trkpt lat="45.74697" lon="6.49259">
        <ele>1592</ele>
        <time>2022-07-24T04:55:47Z</time>
      </trkpt>
      <trkpt lat="45.74697" lon="6.4926">
        <ele>1592</ele>
        <time>2022-07-24T04:55:48Z</time>
      </trkpt>
      <trkpt lat="45.74698" lon="6.49261">
        <ele>1592</ele>
        <time>2022-07-24T04:55:49Z</time>
      </trkpt>
      <trkpt lat="45.74698" lon="6.49262">
        <ele>1592</ele>
        <time>2022-07-24T04:55:50Z</time>
      </trkpt>
      <trkpt lat="45.74698" lon="6.49263">
        <ele>1592</ele>
        <time>2022-07-24T04:55:51Z</time>
      </trkpt>
      <trkpt lat="45.74699" lon="6.49264">
        <ele>1592</ele>
        <time>2022-07-24T04:55:52Z</time>
      </trkpt>
      <trkpt lat="45.74699" lon="6.49265">
        <ele>1592</ele>
        <time>2022-07-24T04:55:53Z</time>
      </trkpt>
      <trkpt lat="45.747" lon="6.49266">
        <ele>1592</ele>
        <time>2022-07-24T04:55:54Z</time>
      </trkpt>
      <trkpt lat="45.747" lon="6.49266">
        <ele>1592</ele>
        <time>2022-07-24T04:55:55Z</time>
      </trkpt>
      <trkpt lat="45.747" lon="6.49267">
        <ele>1592</ele>
        <time>2022-07-24T04:55:56Z</time>
      </trkpt>
      <trkpt lat="45.74701" lon="6.49268">
        <ele>1592</ele>
        <time>2022-07-24T04:55:57Z</time>
      </trkpt>
      <trkpt lat="45.74701" lon="6.49269">
        <ele>1592</ele>
        <time>2022-07-24T04:55:58Z</time>
      </trkpt>
      <trkpt lat="45.74701" lon="6.4927">
        <ele>1593</ele>
        <time>2022-07-24T04:55:59Z</time>
      </trkpt>
      <trkpt lat="45.74702" lon="6.4927">
        <ele>1593</ele>
        <time>2022-07-24T04:56:00Z</time>
      </trkpt>
      <trkpt lat="45.74702" lon="6.49271">
        <ele>1593</ele>
        <time>2022-07-24T04:56:01Z</time>
      </trkpt>
      <trkpt lat="45.74702" lon="6.49272">
        <ele>1593</ele>
        <time>2022-07-24T04:56:02Z</time>
      </trkpt>
      <trkpt lat="45.74703" lon="6.49273">
        <ele>1593</ele>
        <time>2022-07-24T04:56:03Z</time>
      </trkpt>
      <trkpt lat="45.74703" lon="6.49274">
        <ele>1593</ele>
        <time>2022-07-24T04:56:04Z</time>
      </trkpt>
      <trkpt lat="45.74703" lon="6.49275">
        <ele>1593</ele>
        <time>2022-07-24T04:56:05Z</time>
      </trkpt>
      <trkpt lat="45.74704" lon="6.49276">
        <ele>1593</ele>
        <time>2022-07-24T04:56:06Z</time>
      </trkpt>
      <trkpt lat="45.74704" lon="6.49277">
        <ele>1593</ele>
        <time>2022-07-24T04:56:07Z</time>
      </trkpt>
      <trkpt lat="45.74704" lon="6.49278">
        <ele>1593</ele>
        <time>2022-07-24T04:56:08Z</time>
      </trkpt>
      <trkpt lat="45.74704" lon="6.49279">
        <ele>1594</ele>
        <time>2022-07-24T04:56:09Z</time>
      </trkpt>
      <trkpt lat="45.74705" lon="6.4928">
        <ele>1594</ele>
        <time>2022-07-24T04:56:10Z</time>
      </trkpt>
      <trkpt lat="45.74705" lon="6.49281">
        <ele>1594</ele>
        <time>2022-07-24T04:56:11Z</time>
      </trkpt>
      <trkpt lat="45.74705" lon="6.49282">
        <ele>1594</ele>
        <time>2022-07-24T04:56:12Z</time>
      </trkpt>
      <trkpt lat="45.74706" lon="6.49283">
        <ele>1594</ele>
        <time>2022-07-24T04:56:13Z</time>
      </trkpt>
      <trkpt lat="45.74706" lon="6.49284">
        <ele>1594</ele>
        <time>2022-07-24T04:56:14Z</time>
      </trkpt>
      <trkpt lat="45.74707" lon="6.49285">
        <ele>1594</ele>
        <time>2022-07-24T04:56:15Z</time>
      </trkpt>
      <trkpt lat="45.74707" lon="6.49286">
        <ele>1594</ele>
        <time>2022-07-24T04:56:16Z</time>
      </trkpt>
      <trkpt lat="45.74707" lon="6.49287">
        <ele>1594</ele>
        <time>2022-07-24T04:56:17Z</time>
      </trkpt>
      <trkpt lat="45.74708" lon="6.49288">
        <ele>1594</ele>
        <time>2022-07-24T04:56:18Z</time>
      </trkpt>
      <trkpt lat="45.74708" lon="6.49288">
        <ele>1595</ele>
        <time>2022-07-24T04:56:19Z</time>
      </trkpt>
      <trkpt lat="45.74708" lon="6.49289">
        <ele>1595</ele>
        <time>2022-07-24T04:56:20Z</time>
      </trkpt>
      <trkpt lat="45.74709" lon="6.4929">
        <ele>1595</ele>
        <time>2022-07-24T04:56:21Z</time>
      </trkpt>
      <trkpt lat="45.74709" lon="6.49291">
        <ele>1595</ele>
        <time>2022-07-24T04:56:22Z</time>
      </trkpt>
      <trkpt lat="45.74709" lon="6.49292">
        <ele>1595</ele>
        <time>2022-07-24T04:56:23Z</time>
      </trkpt>
      <trkpt lat="45.7471" lon="6.49293">
        <ele>1595</ele>
        <time>2022-07-24T04:56:24Z</time>
      </trkpt>
      <trkpt lat="45.7471" lon="6.49293">
        <ele>1595</ele>
        <time>2022-07-24T04:56:25Z</time>
      </trkpt>
      <trkpt lat="45.7471" lon="6.49294">
        <ele>1595</ele>
        <time>2022-07-24T04:56:26Z</time>
      </trkpt>
      <trkpt lat="45.74711" lon="6.49295">
        <ele>1595</ele>
        <time>2022-07-24T04:56:27Z</time>
      </trkpt>
      <trkpt lat="45.74711" lon="6.49296">
        <ele>1595</ele>
        <time>2022-07-24T04:56:28Z</time>
      </trkpt>
      <trkpt lat="45.74711" lon="6.49297">
        <ele>1596</ele>
        <time>2022-07-24T04:56:29Z</time>
      </trkpt>
      <trkpt lat="45.74712" lon="6.49298">
        <ele>1596</ele>
        <time>2022-07-24T04:56:30Z</time>
      </trkpt>
      <trkpt lat="45.74712" lon="6.49299">
        <ele>1596</ele>
        <time>2022-07-24T04:56:31Z</time>
      </trkpt>
      <trkpt lat="45.74713" lon="6.493">
        <ele>1596</ele>
        <time>2022-07-24T04:56:32Z</time>
      </trkpt>
      <trkpt lat="45.74713" lon="6.49301">
        <ele>1596</ele>
        <time>2022-07-24T04:56:33Z</time>
      </trkpt>
      <trkpt lat="45.74714" lon="6.49302">
        <ele>1596</ele>
        <time>2022-07-24T04:56:34Z</time>
      </trkpt>
      <trkpt lat="45.74714" lon="6.49303">
        <ele>1596</ele>
        <time>2022-07-24T04:56:35Z</time>
      </trkpt>
      <trkpt lat="45.74714" lon="6.49304">
        <ele>1596</ele>
        <time>2022-07-24T04:56:36Z</time>
      </trkpt>
      <trkpt lat="45.74715" lon="6.49304">
        <ele>1596</ele>
        <time>2022-07-24T04:56:37Z</time>
      </trkpt>
      <trkpt lat="45.74715" lon="6.49305">
        <ele>1596</ele>
        <time>2022-07-24T04:56:38Z</time>
      </trkpt>
      <trkpt lat="45.74716" lon="6.49306">
        <ele>1596</ele>
        <time>2022-07-24T04:56:39Z</time>
      </trkpt>
      <trkpt lat="45.74717" lon="6.49306">
        <ele>1596</ele>
        <time>2022-07-24T04:56:40Z</time>
      </trkpt>
      <trkpt lat="45.74717" lon="6.49306">
        <ele>1596</ele>
        <time>2022-07-24T04:56:41Z</time>
      </trkpt>
      <trkpt lat="45.74718" lon="6.49307">
        <ele>1596</ele>
        <time>2022-07-24T04:56:42Z</time>
      </trkpt>
      <trkpt lat="45.7472" lon="6.49307">
        <ele>1597</ele>
        <time>2022-07-24T04:56:52Z</time>
      </trkpt>
      <trkpt lat="45.74721" lon="6.49307">
        <ele>1597</ele>
        <time>2022-07-24T04:56:53Z</time>
      </trkpt>
      <trkpt lat="45.74722" lon="6.49307">
        <ele>1597</ele>
        <time>2022-07-24T04:56:54Z</time>
      </trkpt>
      <trkpt lat="45.74722" lon="6.49307">
        <ele>1597</ele>
        <time>2022-07-24T04:56:55Z</time>
      </trkpt>
      <trkpt lat="45.74723" lon="6.49307">
        <ele>1597</ele>
        <time>2022-07-24T04:56:56Z</time>
      </trkpt>
      <trkpt lat="45.74723" lon="6.49307">
        <ele>1597</ele>
        <time>2022-07-24T04:56:57Z</time>
      </trkpt>
      <trkpt lat="45.74724" lon="6.49307">
        <ele>1597</ele>
        <time>2022-07-24T04:56:58Z</time>
      </trkpt>
      <trkpt lat="45.74724" lon="6.49306">
        <ele>1598</ele>
        <time>2022-07-24T04:56:59Z</time>
      </trkpt>
      <trkpt lat="45.74724" lon="6.49306">
        <ele>1598</ele>
        <time>2022-07-24T04:57:00Z</time>
      </trkpt>
      <trkpt lat="45.74725" lon="6.49305">
        <ele>1598</ele>
        <time>2022-07-24T04:57:01Z</time>
      </trkpt>
      <trkpt lat="45.74726" lon="6.49305">
        <ele>1599</ele>
        <time>2022-07-24T04:57:02Z</time>
      </trkpt>
      <trkpt lat="45.74726" lon="6.49304">
        <ele>1599</ele>
        <time>2022-07-24T04:57:03Z</time>
      </trkpt>
      <trkpt lat="45.74727" lon="6.49304">
        <ele>1600</ele>
        <time>2022-07-24T04:57:04Z</time>
      </trkpt>
      <trkpt lat="45.74728" lon="6.49304">
        <ele>1600</ele>
        <time>2022-07-24T04:57:05Z</time>
      </trkpt>
      <trkpt lat="45.74728" lon="6.49304">
        <ele>1600</ele>
        <time>2022-07-24T04:57:06Z</time>
      </trkpt>
      <trkpt lat="45.74729" lon="6.49304">
        <ele>1600</ele>
        <time>2022-07-24T04:57:07Z</time>
      </trkpt>
      <trkpt lat="45.7473" lon="6.49304">
        <ele>1600</ele>
        <time>2022-07-24T04:57:08Z</time>
      </trkpt>
      <trkpt lat="45.7473" lon="6.49305">
        <ele>1600</ele>
        <time>2022-07-24T04:57:09Z</time>
      </trkpt>
      <trkpt lat="45.74731" lon="6.49304">
        <ele>1600</ele>
        <time>2022-07-24T04:57:10Z</time>
      </trkpt>
      <trkpt lat="45.74731" lon="6.49304">
        <ele>1600</ele>
        <time>2022-07-24T04:57:11Z</time>
      </trkpt>
      <trkpt lat="45.74732" lon="6.49304">
        <ele>1600</ele>
        <time>2022-07-24T04:57:12Z</time>
      </trkpt>
      <trkpt lat="45.74732" lon="6.49304">
        <ele>1600</ele>
        <time>2022-07-24T04:57:13Z</time>
      </trkpt>
      <trkpt lat="45.74733" lon="6.49304">
        <ele>1601</ele>
        <time>2022-07-24T04:57:14Z</time>
      </trkpt>
      <trkpt lat="45.74734" lon="6.49303">
        <ele>1601</ele>
        <time>2022-07-24T04:57:15Z</time>
      </trkpt>
      <trkpt lat="45.74734" lon="6.49303">
        <ele>1601</ele>
        <time>2022-07-24T04:57:16Z</time>
      </trkpt>
      <trkpt lat="45.74735" lon="6.49303">
        <ele>1601</ele>
        <time>2022-07-24T04:57:17Z</time>
      </trkpt>
      <trkpt lat="45.74735" lon="6.49303">
        <ele>1601</ele>
        <time>2022-07-24T04:57:18Z</time>
      </trkpt>
      <trkpt lat="45.74735" lon="6.49303">
        <ele>1601</ele>
        <time>2022-07-24T04:57:19Z</time>
      </trkpt>
      <trkpt lat="45.74736" lon="6.49303">
        <ele>1601</ele>
        <time>2022-07-24T04:57:20Z</time>
      </trkpt>
      <trkpt lat="45.74736" lon="6.49303">
        <ele>1601</ele>
        <time>2022-07-24T04:57:21Z</time>
      </trkpt>
      <trkpt lat="45.74737" lon="6.49303">
        <ele>1601</ele>
        <time>2022-07-24T04:57:22Z</time>
      </trkpt>
      <trkpt lat="45.74738" lon="6.49303">
        <ele>1601</ele>
        <time>2022-07-24T04:57:23Z</time>
      </trkpt>
      <trkpt lat="45.74738" lon="6.49303">
        <ele>1601</ele>
        <time>2022-07-24T04:57:24Z</time>
      </trkpt>
      <trkpt lat="45.74739" lon="6.49303">
        <ele>1601</ele>
        <time>2022-07-24T04:57:25Z</time>
      </trkpt>
      <trkpt lat="45.74739" lon="6.49303">
        <ele>1601</ele>
        <time>2022-07-24T04:57:26Z</time>
      </trkpt>
      <trkpt lat="45.7474" lon="6.49303">
        <ele>1601</ele>
        <time>2022-07-24T04:57:27Z</time>
      </trkpt>
      <trkpt lat="45.7474" lon="6.49303">
        <ele>1601</ele>
        <time>2022-07-24T04:57:28Z</time>
      </trkpt>
      <trkpt lat="45.74741" lon="6.49303">
        <ele>1602</ele>
        <time>2022-07-24T04:57:29Z</time>
      </trkpt>
      <trkpt lat="45.74741" lon="6.49303">
        <ele>1602</ele>
        <time>2022-07-24T04:57:30Z</time>
      </trkpt>
      <trkpt lat="45.74742" lon="6.49302">
        <ele>1602</ele>
        <time>2022-07-24T04:57:31Z</time>
      </trkpt>
      <trkpt lat="45.74743" lon="6.49302">
        <ele>1602</ele>
        <time>2022-07-24T04:57:32Z</time>
      </trkpt>
      <trkpt lat="45.74743" lon="6.49302">
        <ele>1602</ele>
        <time>2022-07-24T04:57:33Z</time>
      </trkpt>
      <trkpt lat="45.74745" lon="6.49302">
        <ele>1603</ele>
        <time>2022-07-24T04:57:39Z</time>
      </trkpt>
      <trkpt lat="45.74746" lon="6.49302">
        <ele>1603</ele>
        <time>2022-07-24T04:57:40Z</time>
      </trkpt>
      <trkpt lat="45.74746" lon="6.49302">
        <ele>1603</ele>
        <time>2022-07-24T04:57:41Z</time>
      </trkpt>
      <trkpt lat="45.74747" lon="6.49302">
        <ele>1603</ele>
        <time>2022-07-24T04:57:42Z</time>
      </trkpt>
      <trkpt lat="45.74748" lon="6.49302">
        <ele>1603</ele>
        <time>2022-07-24T04:57:43Z</time>
      </trkpt>
      <trkpt lat="45.74748" lon="6.49302">
        <ele>1604</ele>
        <time>2022-07-24T04:57:44Z</time>
      </trkpt>
      <trkpt lat="45.74749" lon="6.49302">
        <ele>1604</ele>
        <time>2022-07-24T04:57:45Z</time>
      </trkpt>
      <trkpt lat="45.74752" lon="6.49302">
        <ele>1604</ele>
        <time>2022-07-24T04:57:54Z</time>
      </trkpt>
      <trkpt lat="45.74753" lon="6.49302">
        <ele>1604</ele>
        <time>2022-07-24T04:57:55Z</time>
      </trkpt>
      <trkpt lat="45.74754" lon="6.49301">
        <ele>1604</ele>
        <time>2022-07-24T04:57:56Z</time>
      </trkpt>
      <trkpt lat="45.74755" lon="6.49301">
        <ele>1604</ele>
        <time>2022-07-24T04:57:57Z</time>
      </trkpt>
      <trkpt lat="45.74756" lon="6.49301">
        <ele>1604</ele>
        <time>2022-07-24T04:57:58Z</time>
      </trkpt>
      <trkpt lat="45.74757" lon="6.49301">
        <ele>1605</ele>
        <time>2022-07-24T04:57:59Z</time>
      </trkpt>
      <trkpt lat="45.74757" lon="6.49301">
        <ele>1605</ele>
        <time>2022-07-24T04:58:00Z</time>
      </trkpt>
      <trkpt lat="45.74758" lon="6.49301">
        <ele>1605</ele>
        <time>2022-07-24T04:58:01Z</time>
      </trkpt>
      <trkpt lat="45.74759" lon="6.49301">
        <ele>1605</ele>
        <time>2022-07-24T04:58:02Z</time>
      </trkpt>
      <trkpt lat="45.7476" lon="6.49301">
        <ele>1605</ele>
        <time>2022-07-24T04:58:03Z</time>
      </trkpt>
      <trkpt lat="45.7476" lon="6.49301">
        <ele>1605</ele>
        <time>2022-07-24T04:58:04Z</time>
      </trkpt>
      <trkpt lat="45.74761" lon="6.49301">
        <ele>1605</ele>
        <time>2022-07-24T04:58:05Z</time>
      </trkpt>
      <trkpt lat="45.74761" lon="6.49301">
        <ele>1605</ele>
        <time>2022-07-24T04:58:06Z</time>
      </trkpt>
      <trkpt lat="45.74762" lon="6.49301">
        <ele>1605</ele>
        <time>2022-07-24T04:58:07Z</time>
      </trkpt>
      <trkpt lat="45.74763" lon="6.49301">
        <ele>1605</ele>
        <time>2022-07-24T04:58:08Z</time>
      </trkpt>
      <trkpt lat="45.74763" lon="6.49301">
        <ele>1606</ele>
        <time>2022-07-24T04:58:09Z</time>
      </trkpt>
      <trkpt lat="45.74764" lon="6.49301">
        <ele>1606</ele>
        <time>2022-07-24T04:58:10Z</time>
      </trkpt>
      <trkpt lat="45.74764" lon="6.49301">
        <ele>1606</ele>
        <time>2022-07-24T04:58:11Z</time>
      </trkpt>
      <trkpt lat="45.74764" lon="6.49301">
        <ele>1606</ele>
        <time>2022-07-24T04:58:12Z</time>
      </trkpt>
      <trkpt lat="45.74766" lon="6.49301">
        <ele>1607</ele>
        <time>2022-07-24T04:58:21Z</time>
      </trkpt>
      <trkpt lat="45.74767" lon="6.49302">
        <ele>1607</ele>
        <time>2022-07-24T04:58:22Z</time>
      </trkpt>
      <trkpt lat="45.74769" lon="6.49302">
        <ele>1607</ele>
        <time>2022-07-24T04:58:23Z</time>
      </trkpt>
      <trkpt lat="45.74769" lon="6.49302">
        <ele>1607</ele>
        <time>2022-07-24T04:58:24Z</time>
      </trkpt>
      <trkpt lat="45.7477" lon="6.49302">
        <ele>1607</ele>
        <time>2022-07-24T04:58:25Z</time>
      </trkpt>
      <trkpt lat="45.74771" lon="6.49302">
        <ele>1607</ele>
        <time>2022-07-24T04:58:26Z</time>
      </trkpt>
      <trkpt lat="45.74772" lon="6.49303">
        <ele>1607</ele>
        <time>2022-07-24T04:58:27Z</time>
      </trkpt>
      <trkpt lat="45.74773" lon="6.49303">
        <ele>1607</ele>
        <time>2022-07-24T04:58:28Z</time>
      </trkpt>
      <trkpt lat="45.74774" lon="6.49304">
        <ele>1608</ele>
        <time>2022-07-24T04:58:29Z</time>
      </trkpt>
      <trkpt lat="45.74774" lon="6.49304">
        <ele>1608</ele>
        <time>2022-07-24T04:58:30Z</time>
      </trkpt>
      <trkpt lat="45.74775" lon="6.49305">
        <ele>1608</ele>
        <time>2022-07-24T04:58:31Z</time>
      </trkpt>
      <trkpt lat="45.74776" lon="6.49305">
        <ele>1608</ele>
        <time>2022-07-24T04:58:32Z</time>
      </trkpt>
      <trkpt lat="45.74777" lon="6.49305">
        <ele>1608</ele>
        <time>2022-07-24T04:58:33Z</time>
      </trkpt>
      <trkpt lat="45.74778" lon="6.49306">
        <ele>1608</ele>
        <time>2022-07-24T04:58:34Z</time>
      </trkpt>
      <trkpt lat="45.74778" lon="6.49306">
        <ele>1608</ele>
        <time>2022-07-24T04:58:35Z</time>
      </trkpt>
      <trkpt lat="45.74779" lon="6.49306">
        <ele>1608</ele>
        <time>2022-07-24T04:58:36Z</time>
      </trkpt>
      <trkpt lat="45.7478" lon="6.49307">
        <ele>1608</ele>
        <time>2022-07-24T04:58:37Z</time>
      </trkpt>
      <trkpt lat="45.74781" lon="6.49308">
        <ele>1608</ele>
        <time>2022-07-24T04:58:38Z</time>
      </trkpt>
      <trkpt lat="45.74782" lon="6.49308">
        <ele>1608</ele>
        <time>2022-07-24T04:58:39Z</time>
      </trkpt>
      <trkpt lat="45.74783" lon="6.49309">
        <ele>1608</ele>
        <time>2022-07-24T04:58:40Z</time>
      </trkpt>
      <trkpt lat="45.74784" lon="6.4931">
        <ele>1608</ele>
        <time>2022-07-24T04:58:41Z</time>
      </trkpt>
      <trkpt lat="45.74785" lon="6.49311">
        <ele>1608</ele>
        <time>2022-07-24T04:58:42Z</time>
      </trkpt>
      <trkpt lat="45.74786" lon="6.49311">
        <ele>1608</ele>
        <time>2022-07-24T04:58:43Z</time>
      </trkpt>
      <trkpt lat="45.74787" lon="6.49312">
        <ele>1608</ele>
        <time>2022-07-24T04:58:44Z</time>
      </trkpt>
      <trkpt lat="45.74787" lon="6.49313">
        <ele>1608</ele>
        <time>2022-07-24T04:58:45Z</time>
      </trkpt>
      <trkpt lat="45.74788" lon="6.49314">
        <ele>1608</ele>
        <time>2022-07-24T04:58:46Z</time>
      </trkpt>
      <trkpt lat="45.74789" lon="6.49314">
        <ele>1608</ele>
        <time>2022-07-24T04:58:47Z</time>
      </trkpt>
      <trkpt lat="45.7479" lon="6.49315">
        <ele>1608</ele>
        <time>2022-07-24T04:58:48Z</time>
      </trkpt>
      <trkpt lat="45.74791" lon="6.49316">
        <ele>1609</ele>
        <time>2022-07-24T04:58:49Z</time>
      </trkpt>
      <trkpt lat="45.74791" lon="6.49317">
        <ele>1609</ele>
        <time>2022-07-24T04:58:50Z</time>
      </trkpt>
      <trkpt lat="45.74792" lon="6.49318">
        <ele>1609</ele>
        <time>2022-07-24T04:58:51Z</time>
      </trkpt>
      <trkpt lat="45.74793" lon="6.49319">
        <ele>1609</ele>
        <time>2022-07-24T04:58:52Z</time>
      </trkpt>
      <trkpt lat="45.74794" lon="6.49319">
        <ele>1609</ele>
        <time>2022-07-24T04:58:53Z</time>
      </trkpt>
      <trkpt lat="45.74794" lon="6.4932">
        <ele>1609</ele>
        <time>2022-07-24T04:58:54Z</time>
      </trkpt>
      <trkpt lat="45.74795" lon="6.4932">
        <ele>1609</ele>
        <time>2022-07-24T04:58:55Z</time>
      </trkpt>
      <trkpt lat="45.74796" lon="6.49321">
        <ele>1609</ele>
        <time>2022-07-24T04:58:56Z</time>
      </trkpt>
      <trkpt lat="45.74796" lon="6.49322">
        <ele>1609</ele>
        <time>2022-07-24T04:58:57Z</time>
      </trkpt>
      <trkpt lat="45.74797" lon="6.49322">
        <ele>1609</ele>
        <time>2022-07-24T04:58:58Z</time>
      </trkpt>
      <trkpt lat="45.74798" lon="6.49323">
        <ele>1610</ele>
        <time>2022-07-24T04:58:59Z</time>
      </trkpt>
      <trkpt lat="45.74798" lon="6.49323">
        <ele>1610</ele>
        <time>2022-07-24T04:59:00Z</time>
      </trkpt>
      <trkpt lat="45.74799" lon="6.49324">
        <ele>1610</ele>
        <time>2022-07-24T04:59:01Z</time>
      </trkpt>
      <trkpt lat="45.74799" lon="6.49325">
        <ele>1610</ele>
        <time>2022-07-24T04:59:02Z</time>
      </trkpt>
      <trkpt lat="45.748" lon="6.49325">
        <ele>1610</ele>
        <time>2022-07-24T04:59:03Z</time>
      </trkpt>
      <trkpt lat="45.748" lon="6.49326">
        <ele>1610</ele>
        <time>2022-07-24T04:59:04Z</time>
      </trkpt>
      <trkpt lat="45.74801" lon="6.49327">
        <ele>1610</ele>
        <time>2022-07-24T04:59:05Z</time>
      </trkpt>
      <trkpt lat="45.74802" lon="6.49327">
        <ele>1610</ele>
        <time>2022-07-24T04:59:06Z</time>
      </trkpt>
      <trkpt lat="45.74802" lon="6.49327">
        <ele>1610</ele>
        <time>2022-07-24T04:59:07Z</time>
      </trkpt>
      <trkpt lat="45.74803" lon="6.49328">
        <ele>1610</ele>
        <time>2022-07-24T04:59:08Z</time>
      </trkpt>
      <trkpt lat="45.74803" lon="6.49328">
        <ele>1610</ele>
        <time>2022-07-24T04:59:09Z</time>
      </trkpt>
      <trkpt lat="45.74804" lon="6.49329">
        <ele>1610</ele>
        <time>2022-07-24T04:59:10Z</time>
      </trkpt>
      <trkpt lat="45.74805" lon="6.49329">
        <ele>1610</ele>
        <time>2022-07-24T04:59:11Z</time>
      </trkpt>
      <trkpt lat="45.74805" lon="6.4933">
        <ele>1610</ele>
        <time>2022-07-24T04:59:12Z</time>
      </trkpt>
      <trkpt lat="45.74806" lon="6.49331">
        <ele>1610</ele>
        <time>2022-07-24T04:59:13Z</time>
      </trkpt>
      <trkpt lat="45.74806" lon="6.49331">
        <ele>1611</ele>
        <time>2022-07-24T04:59:14Z</time>
      </trkpt>
      <trkpt lat="45.74807" lon="6.49332">
        <ele>1611</ele>
        <time>2022-07-24T04:59:15Z</time>
      </trkpt>
      <trkpt lat="45.74807" lon="6.49332">
        <ele>1611</ele>
        <time>2022-07-24T04:59:16Z</time>
      </trkpt>
      <trkpt lat="45.74808" lon="6.49333">
        <ele>1611</ele>
        <time>2022-07-24T04:59:17Z</time>
      </trkpt>
      <trkpt lat="45.74808" lon="6.49334">
        <ele>1611</ele>
        <time>2022-07-24T04:59:18Z</time>
      </trkpt>
      <trkpt lat="45.74809" lon="6.49334">
        <ele>1611</ele>
        <time>2022-07-24T04:59:19Z</time>
      </trkpt>
      <trkpt lat="45.74809" lon="6.49335">
        <ele>1611</ele>
        <time>2022-07-24T04:59:20Z</time>
      </trkpt>
      <trkpt lat="45.7481" lon="6.49335">
        <ele>1611</ele>
        <time>2022-07-24T04:59:21Z</time>
      </trkpt>
      <trkpt lat="45.7481" lon="6.49335">
        <ele>1611</ele>
        <time>2022-07-24T04:59:22Z</time>
      </trkpt>
      <trkpt lat="45.74811" lon="6.49336">
        <ele>1611</ele>
        <time>2022-07-24T04:59:23Z</time>
      </trkpt>
      <trkpt lat="45.74811" lon="6.49337">
        <ele>1612</ele>
        <time>2022-07-24T04:59:24Z</time>
      </trkpt>
      <trkpt lat="45.74811" lon="6.49337">
        <ele>1612</ele>
        <time>2022-07-24T04:59:25Z</time>
      </trkpt>
      <trkpt lat="45.74812" lon="6.49338">
        <ele>1612</ele>
        <time>2022-07-24T04:59:26Z</time>
      </trkpt>
      <trkpt lat="45.74812" lon="6.49338">
        <ele>1612</ele>
        <time>2022-07-24T04:59:27Z</time>
      </trkpt>
      <trkpt lat="45.74813" lon="6.49339">
        <ele>1612</ele>
        <time>2022-07-24T04:59:28Z</time>
      </trkpt>
      <trkpt lat="45.74813" lon="6.4934">
        <ele>1612</ele>
        <time>2022-07-24T04:59:29Z</time>
      </trkpt>
      <trkpt lat="45.74813" lon="6.4934">
        <ele>1612</ele>
        <time>2022-07-24T04:59:30Z</time>
      </trkpt>
      <trkpt lat="45.74814" lon="6.49341">
        <ele>1612</ele>
        <time>2022-07-24T04:59:31Z</time>
      </trkpt>
      <trkpt lat="45.74814" lon="6.49341">
        <ele>1612</ele>
        <time>2022-07-24T04:59:32Z</time>
      </trkpt>
      <trkpt lat="45.74814" lon="6.49342">
        <ele>1612</ele>
        <time>2022-07-24T04:59:33Z</time>
      </trkpt>
      <trkpt lat="45.74815" lon="6.49343">
        <ele>1613</ele>
        <time>2022-07-24T04:59:34Z</time>
      </trkpt>
      <trkpt lat="45.74815" lon="6.49343">
        <ele>1613</ele>
        <time>2022-07-24T04:59:35Z</time>
      </trkpt>
      <trkpt lat="45.74816" lon="6.49344">
        <ele>1613</ele>
        <time>2022-07-24T04:59:36Z</time>
      </trkpt>
      <trkpt lat="45.74816" lon="6.49344">
        <ele>1613</ele>
        <time>2022-07-24T04:59:37Z</time>
      </trkpt>
      <trkpt lat="45.74816" lon="6.49345">
        <ele>1613</ele>
        <time>2022-07-24T04:59:38Z</time>
      </trkpt>
      <trkpt lat="45.74817" lon="6.49346">
        <ele>1613</ele>
        <time>2022-07-24T04:59:39Z</time>
      </trkpt>
      <trkpt lat="45.74817" lon="6.49346">
        <ele>1613</ele>
        <time>2022-07-24T04:59:40Z</time>
      </trkpt>
      <trkpt lat="45.74817" lon="6.49346">
        <ele>1613</ele>
        <time>2022-07-24T04:59:41Z</time>
      </trkpt>
      <trkpt lat="45.74817" lon="6.49347">
        <ele>1613</ele>
        <time>2022-07-24T04:59:42Z</time>
      </trkpt>
      <trkpt lat="45.74818" lon="6.49348">
        <ele>1613</ele>
        <time>2022-07-24T04:59:43Z</time>
      </trkpt>
      <trkpt lat="45.74818" lon="6.49349">
        <ele>1613</ele>
        <time>2022-07-24T04:59:44Z</time>
      </trkpt>
      <trkpt lat="45.74818" lon="6.49349">
        <ele>1613</ele>
        <time>2022-07-24T04:59:45Z</time>
      </trkpt>
      <trkpt lat="45.74818" lon="6.4935">
        <ele>1613</ele>
        <time>2022-07-24T04:59:46Z</time>
      </trkpt>
      <trkpt lat="45.74819" lon="6.49351">
        <ele>1613</ele>
        <time>2022-07-24T04:59:47Z</time>
      </trkpt>
      <trkpt lat="45.74819" lon="6.49351">
        <ele>1613</ele>
        <time>2022-07-24T04:59:48Z</time>
      </trkpt>
      <trkpt lat="45.74819" lon="6.49352">
        <ele>1614</ele>
        <time>2022-07-24T04:59:49Z</time>
      </trkpt>
      <trkpt lat="45.7482" lon="6.49353">
        <ele>1614</ele>
        <time>2022-07-24T04:59:50Z</time>
      </trkpt>
      <trkpt lat="45.7482" lon="6.49353">
        <ele>1614</ele>
        <time>2022-07-24T04:59:51Z</time>
      </trkpt>
      <trkpt lat="45.7482" lon="6.49354">
        <ele>1614</ele>
        <time>2022-07-24T04:59:52Z</time>
      </trkpt>
      <trkpt lat="45.74821" lon="6.49354">
        <ele>1614</ele>
        <time>2022-07-24T04:59:53Z</time>
      </trkpt>
      <trkpt lat="45.74821" lon="6.49355">
        <ele>1615</ele>
        <time>2022-07-24T04:59:54Z</time>
      </trkpt>
      <trkpt lat="45.74822" lon="6.49356">
        <ele>1615</ele>
        <time>2022-07-24T04:59:55Z</time>
      </trkpt>
      <trkpt lat="45.74822" lon="6.49357">
        <ele>1615</ele>
        <time>2022-07-24T04:59:56Z</time>
      </trkpt>
      <trkpt lat="45.74822" lon="6.49357">
        <ele>1615</ele>
        <time>2022-07-24T04:59:57Z</time>
      </trkpt>
      <trkpt lat="45.74823" lon="6.49358">
        <ele>1615</ele>
        <time>2022-07-24T04:59:58Z</time>
      </trkpt>
      <trkpt lat="45.74823" lon="6.49359">
        <ele>1615</ele>
        <time>2022-07-24T04:59:59Z</time>
      </trkpt>
      <trkpt lat="45.74824" lon="6.49359">
        <ele>1615</ele>
        <time>2022-07-24T05:00:00Z</time>
      </trkpt>
      <trkpt lat="45.74824" lon="6.4936">
        <ele>1615</ele>
        <time>2022-07-24T05:00:01Z</time>
      </trkpt>
      <trkpt lat="45.74825" lon="6.49361">
        <ele>1615</ele>
        <time>2022-07-24T05:00:02Z</time>
      </trkpt>
      <trkpt lat="45.74825" lon="6.49361">
        <ele>1615</ele>
        <time>2022-07-24T05:00:03Z</time>
      </trkpt>
      <trkpt lat="45.74826" lon="6.49362">
        <ele>1615</ele>
        <time>2022-07-24T05:00:04Z</time>
      </trkpt>
      <trkpt lat="45.74826" lon="6.49362">
        <ele>1615</ele>
        <time>2022-07-24T05:00:05Z</time>
      </trkpt>
      <trkpt lat="45.74827" lon="6.49363">
        <ele>1615</ele>
        <time>2022-07-24T05:00:06Z</time>
      </trkpt>
      <trkpt lat="45.74827" lon="6.49364">
        <ele>1615</ele>
        <time>2022-07-24T05:00:07Z</time>
      </trkpt>
      <trkpt lat="45.74828" lon="6.49364">
        <ele>1615</ele>
        <time>2022-07-24T05:00:08Z</time>
      </trkpt>
      <trkpt lat="45.74828" lon="6.49365">
        <ele>1616</ele>
        <time>2022-07-24T05:00:09Z</time>
      </trkpt>
      <trkpt lat="45.74828" lon="6.49366">
        <ele>1616</ele>
        <time>2022-07-24T05:00:10Z</time>
      </trkpt>
      <trkpt lat="45.74829" lon="6.49367">
        <ele>1616</ele>
        <time>2022-07-24T05:00:11Z</time>
      </trkpt>
      <trkpt lat="45.74829" lon="6.49368">
        <ele>1616</ele>
        <time>2022-07-24T05:00:12Z</time>
      </trkpt>
      <trkpt lat="45.7483" lon="6.49368">
        <ele>1616</ele>
        <time>2022-07-24T05:00:13Z</time>
      </trkpt>
      <trkpt lat="45.7483" lon="6.49369">
        <ele>1616</ele>
        <time>2022-07-24T05:00:14Z</time>
      </trkpt>
      <trkpt lat="45.7483" lon="6.4937">
        <ele>1616</ele>
        <time>2022-07-24T05:00:15Z</time>
      </trkpt>
      <trkpt lat="45.74831" lon="6.4937">
        <ele>1616</ele>
        <time>2022-07-24T05:00:16Z</time>
      </trkpt>
      <trkpt lat="45.74831" lon="6.49371">
        <ele>1616</ele>
        <time>2022-07-24T05:00:17Z</time>
      </trkpt>
      <trkpt lat="45.74831" lon="6.49372">
        <ele>1616</ele>
        <time>2022-07-24T05:00:18Z</time>
      </trkpt>
      <trkpt lat="45.74832" lon="6.49372">
        <ele>1616</ele>
        <time>2022-07-24T05:00:19Z</time>
      </trkpt>
      <trkpt lat="45.74832" lon="6.49373">
        <ele>1616</ele>
        <time>2022-07-24T05:00:20Z</time>
      </trkpt>
      <trkpt lat="45.74833" lon="6.49374">
        <ele>1616</ele>
        <time>2022-07-24T05:00:21Z</time>
      </trkpt>
      <trkpt lat="45.74833" lon="6.49375">
        <ele>1616</ele>
        <time>2022-07-24T05:00:22Z</time>
      </trkpt>
      <trkpt lat="45.74833" lon="6.49375">
        <ele>1616</ele>
        <time>2022-07-24T05:00:23Z</time>
      </trkpt>
      <trkpt lat="45.74833" lon="6.49376">
        <ele>1617</ele>
        <time>2022-07-24T05:00:24Z</time>
      </trkpt>
      <trkpt lat="45.74833" lon="6.49377">
        <ele>1617</ele>
        <time>2022-07-24T05:00:25Z</time>
      </trkpt>
      <trkpt lat="45.74833" lon="6.49377">
        <ele>1617</ele>
        <time>2022-07-24T05:00:26Z</time>
      </trkpt>
      <trkpt lat="45.74834" lon="6.49379">
        <ele>1617</ele>
        <time>2022-07-24T05:00:27Z</time>
      </trkpt>
      <trkpt lat="45.74834" lon="6.4938">
        <ele>1617</ele>
        <time>2022-07-24T05:00:28Z</time>
      </trkpt>
      <trkpt lat="45.74834" lon="6.49381">
        <ele>1617</ele>
        <time>2022-07-24T05:00:29Z</time>
      </trkpt>
      <trkpt lat="45.74834" lon="6.49382">
        <ele>1617</ele>
        <time>2022-07-24T05:00:30Z</time>
      </trkpt>
      <trkpt lat="45.74834" lon="6.49383">
        <ele>1617</ele>
        <time>2022-07-24T05:00:31Z</time>
      </trkpt>
      <trkpt lat="45.74834" lon="6.49384">
        <ele>1617</ele>
        <time>2022-07-24T05:00:32Z</time>
      </trkpt>
      <trkpt lat="45.74835" lon="6.49385">
        <ele>1617</ele>
        <time>2022-07-24T05:00:33Z</time>
      </trkpt>
      <trkpt lat="45.74835" lon="6.49386">
        <ele>1618</ele>
        <time>2022-07-24T05:00:34Z</time>
      </trkpt>
      <trkpt lat="45.74835" lon="6.49387">
        <ele>1618</ele>
        <time>2022-07-24T05:00:35Z</time>
      </trkpt>
      <trkpt lat="45.74835" lon="6.49388">
        <ele>1618</ele>
        <time>2022-07-24T05:00:36Z</time>
      </trkpt>
      <trkpt lat="45.74835" lon="6.49389">
        <ele>1618</ele>
        <time>2022-07-24T05:00:37Z</time>
      </trkpt>
      <trkpt lat="45.74835" lon="6.4939">
        <ele>1618</ele>
        <time>2022-07-24T05:00:38Z</time>
      </trkpt>
      <trkpt lat="45.74836" lon="6.49391">
        <ele>1618</ele>
        <time>2022-07-24T05:00:39Z</time>
      </trkpt>
      <trkpt lat="45.74836" lon="6.49391">
        <ele>1618</ele>
        <time>2022-07-24T05:00:40Z</time>
      </trkpt>
      <trkpt lat="45.74836" lon="6.49392">
        <ele>1618</ele>
        <time>2022-07-24T05:00:41Z</time>
      </trkpt>
      <trkpt lat="45.74836" lon="6.49393">
        <ele>1618</ele>
        <time>2022-07-24T05:00:42Z</time>
      </trkpt>
      <trkpt lat="45.74836" lon="6.49394">
        <ele>1618</ele>
        <time>2022-07-24T05:00:43Z</time>
      </trkpt>
      <trkpt lat="45.74836" lon="6.49395">
        <ele>1619</ele>
        <time>2022-07-24T05:00:44Z</time>
      </trkpt>
      <trkpt lat="45.74836" lon="6.49396">
        <ele>1619</ele>
        <time>2022-07-24T05:00:45Z</time>
      </trkpt>
      <trkpt lat="45.74836" lon="6.49397">
        <ele>1619</ele>
        <time>2022-07-24T05:00:46Z</time>
      </trkpt>
      <trkpt lat="45.74837" lon="6.49398">
        <ele>1619</ele>
        <time>2022-07-24T05:00:47Z</time>
      </trkpt>
      <trkpt lat="45.74837" lon="6.49399">
        <ele>1619</ele>
        <time>2022-07-24T05:00:48Z</time>
      </trkpt>
      <trkpt lat="45.74837" lon="6.494">
        <ele>1619</ele>
        <time>2022-07-24T05:00:49Z</time>
      </trkpt>
      <trkpt lat="45.74837" lon="6.49401">
        <ele>1619</ele>
        <time>2022-07-24T05:00:50Z</time>
      </trkpt>
      <trkpt lat="45.74838" lon="6.49401">
        <ele>1619</ele>
        <time>2022-07-24T05:00:51Z</time>
      </trkpt>
      <trkpt lat="45.74838" lon="6.49402">
        <ele>1619</ele>
        <time>2022-07-24T05:00:52Z</time>
      </trkpt>
      <trkpt lat="45.74838" lon="6.49403">
        <ele>1619</ele>
        <time>2022-07-24T05:00:53Z</time>
      </trkpt>
      <trkpt lat="45.74838" lon="6.49404">
        <ele>1620</ele>
        <time>2022-07-24T05:00:54Z</time>
      </trkpt>
      <trkpt lat="45.74838" lon="6.49405">
        <ele>1620</ele>
        <time>2022-07-24T05:00:55Z</time>
      </trkpt>
      <trkpt lat="45.74839" lon="6.49406">
        <ele>1620</ele>
        <time>2022-07-24T05:00:56Z</time>
      </trkpt>
      <trkpt lat="45.74839" lon="6.49407">
        <ele>1620</ele>
        <time>2022-07-24T05:00:57Z</time>
      </trkpt>
      <trkpt lat="45.74839" lon="6.49408">
        <ele>1620</ele>
        <time>2022-07-24T05:00:58Z</time>
      </trkpt>
      <trkpt lat="45.74839" lon="6.49409">
        <ele>1620</ele>
        <time>2022-07-24T05:00:59Z</time>
      </trkpt>
      <trkpt lat="45.74839" lon="6.4941">
        <ele>1620</ele>
        <time>2022-07-24T05:01:00Z</time>
      </trkpt>
      <trkpt lat="45.7484" lon="6.49411">
        <ele>1620</ele>
        <time>2022-07-24T05:01:01Z</time>
      </trkpt>
      <trkpt lat="45.7484" lon="6.49411">
        <ele>1620</ele>
        <time>2022-07-24T05:01:02Z</time>
      </trkpt>
      <trkpt lat="45.7484" lon="6.49412">
        <ele>1620</ele>
        <time>2022-07-24T05:01:03Z</time>
      </trkpt>
      <trkpt lat="45.7484" lon="6.49413">
        <ele>1620</ele>
        <time>2022-07-24T05:01:04Z</time>
      </trkpt>
      <trkpt lat="45.7484" lon="6.49414">
        <ele>1620</ele>
        <time>2022-07-24T05:01:05Z</time>
      </trkpt>
      <trkpt lat="45.7484" lon="6.49415">
        <ele>1620</ele>
        <time>2022-07-24T05:01:06Z</time>
      </trkpt>
      <trkpt lat="45.7484" lon="6.49416">
        <ele>1620</ele>
        <time>2022-07-24T05:01:07Z</time>
      </trkpt>
      <trkpt lat="45.74841" lon="6.49417">
        <ele>1620</ele>
        <time>2022-07-24T05:01:08Z</time>
      </trkpt>
      <trkpt lat="45.74841" lon="6.49418">
        <ele>1621</ele>
        <time>2022-07-24T05:01:09Z</time>
      </trkpt>
      <trkpt lat="45.74841" lon="6.49419">
        <ele>1621</ele>
        <time>2022-07-24T05:01:10Z</time>
      </trkpt>
      <trkpt lat="45.74841" lon="6.4942">
        <ele>1621</ele>
        <time>2022-07-24T05:01:11Z</time>
      </trkpt>
      <trkpt lat="45.74841" lon="6.49421">
        <ele>1621</ele>
        <time>2022-07-24T05:01:12Z</time>
      </trkpt>
      <trkpt lat="45.74842" lon="6.49422">
        <ele>1621</ele>
        <time>2022-07-24T05:01:13Z</time>
      </trkpt>
      <trkpt lat="45.74842" lon="6.49422">
        <ele>1621</ele>
        <time>2022-07-24T05:01:14Z</time>
      </trkpt>
      <trkpt lat="45.74842" lon="6.49423">
        <ele>1621</ele>
        <time>2022-07-24T05:01:15Z</time>
      </trkpt>
      <trkpt lat="45.74842" lon="6.49424">
        <ele>1621</ele>
        <time>2022-07-24T05:01:16Z</time>
      </trkpt>
      <trkpt lat="45.74842" lon="6.49425">
        <ele>1621</ele>
        <time>2022-07-24T05:01:17Z</time>
      </trkpt>
      <trkpt lat="45.74842" lon="6.49426">
        <ele>1621</ele>
        <time>2022-07-24T05:01:18Z</time>
      </trkpt>
      <trkpt lat="45.74843" lon="6.49427">
        <ele>1622</ele>
        <time>2022-07-24T05:01:19Z</time>
      </trkpt>
      <trkpt lat="45.74843" lon="6.49428">
        <ele>1622</ele>
        <time>2022-07-24T05:01:20Z</time>
      </trkpt>
      <trkpt lat="45.74843" lon="6.49429">
        <ele>1622</ele>
        <time>2022-07-24T05:01:21Z</time>
      </trkpt>
      <trkpt lat="45.74843" lon="6.4943">
        <ele>1622</ele>
        <time>2022-07-24T05:01:22Z</time>
      </trkpt>
      <trkpt lat="45.74843" lon="6.4943">
        <ele>1622</ele>
        <time>2022-07-24T05:01:23Z</time>
      </trkpt>
      <trkpt lat="45.74843" lon="6.49431">
        <ele>1622</ele>
        <time>2022-07-24T05:01:24Z</time>
      </trkpt>
      <trkpt lat="45.74844" lon="6.49431">
        <ele>1622</ele>
        <time>2022-07-24T05:01:25Z</time>
      </trkpt>
      <trkpt lat="45.74844" lon="6.49432">
        <ele>1622</ele>
        <time>2022-07-24T05:01:26Z</time>
      </trkpt>
      <trkpt lat="45.74844" lon="6.49433">
        <ele>1622</ele>
        <time>2022-07-24T05:01:27Z</time>
      </trkpt>
      <trkpt lat="45.74844" lon="6.49434">
        <ele>1622</ele>
        <time>2022-07-24T05:01:28Z</time>
      </trkpt>
      <trkpt lat="45.74845" lon="6.49435">
        <ele>1622</ele>
        <time>2022-07-24T05:01:29Z</time>
      </trkpt>
      <trkpt lat="45.74845" lon="6.49436">
        <ele>1622</ele>
        <time>2022-07-24T05:01:30Z</time>
      </trkpt>
      <trkpt lat="45.74845" lon="6.49437">
        <ele>1622</ele>
        <time>2022-07-24T05:01:31Z</time>
      </trkpt>
      <trkpt lat="45.74845" lon="6.49438">
        <ele>1622</ele>
        <time>2022-07-24T05:01:32Z</time>
      </trkpt>
      <trkpt lat="45.74845" lon="6.49439">
        <ele>1622</ele>
        <time>2022-07-24T05:01:33Z</time>
      </trkpt>
      <trkpt lat="45.74845" lon="6.4944">
        <ele>1623</ele>
        <time>2022-07-24T05:01:34Z</time>
      </trkpt>
      <trkpt lat="45.74845" lon="6.49441">
        <ele>1623</ele>
        <time>2022-07-24T05:01:35Z</time>
      </trkpt>
      <trkpt lat="45.74846" lon="6.49441">
        <ele>1623</ele>
        <time>2022-07-24T05:01:36Z</time>
      </trkpt>
      <trkpt lat="45.74846" lon="6.49442">
        <ele>1623</ele>
        <time>2022-07-24T05:01:37Z</time>
      </trkpt>
      <trkpt lat="45.74846" lon="6.49443">
        <ele>1623</ele>
        <time>2022-07-24T05:01:38Z</time>
      </trkpt>
      <trkpt lat="45.74846" lon="6.49444">
        <ele>1623</ele>
        <time>2022-07-24T05:01:39Z</time>
      </trkpt>
      <trkpt lat="45.74846" lon="6.49444">
        <ele>1623</ele>
        <time>2022-07-24T05:01:40Z</time>
      </trkpt>
      <trkpt lat="45.74846" lon="6.49445">
        <ele>1623</ele>
        <time>2022-07-24T05:01:41Z</time>
      </trkpt>
      <trkpt lat="45.74847" lon="6.49446">
        <ele>1623</ele>
        <time>2022-07-24T05:01:42Z</time>
      </trkpt>
      <trkpt lat="45.74847" lon="6.49447">
        <ele>1623</ele>
        <time>2022-07-24T05:01:43Z</time>
      </trkpt>
      <trkpt lat="45.74847" lon="6.49448">
        <ele>1624</ele>
        <time>2022-07-24T05:01:44Z</time>
      </trkpt>
      <trkpt lat="45.74847" lon="6.49448">
        <ele>1624</ele>
        <time>2022-07-24T05:01:45Z</time>
      </trkpt>
      <trkpt lat="45.74848" lon="6.49449">
        <ele>1624</ele>
        <time>2022-07-24T05:01:46Z</time>
      </trkpt>
      <trkpt lat="45.74848" lon="6.4945">
        <ele>1624</ele>
        <time>2022-07-24T05:01:47Z</time>
      </trkpt>
      <trkpt lat="45.74848" lon="6.49451">
        <ele>1624</ele>
        <time>2022-07-24T05:01:48Z</time>
      </trkpt>
      <trkpt lat="45.74849" lon="6.49451">
        <ele>1624</ele>
        <time>2022-07-24T05:01:49Z</time>
      </trkpt>
      <trkpt lat="45.74849" lon="6.49452">
        <ele>1624</ele>
        <time>2022-07-24T05:01:50Z</time>
      </trkpt>
      <trkpt lat="45.74849" lon="6.49452">
        <ele>1624</ele>
        <time>2022-07-24T05:01:51Z</time>
      </trkpt>
      <trkpt lat="45.74849" lon="6.49453">
        <ele>1624</ele>
        <time>2022-07-24T05:01:52Z</time>
      </trkpt>
      <trkpt lat="45.7485" lon="6.49454">
        <ele>1624</ele>
        <time>2022-07-24T05:01:53Z</time>
      </trkpt>
      <trkpt lat="45.7485" lon="6.49455">
        <ele>1624</ele>
        <time>2022-07-24T05:01:54Z</time>
      </trkpt>
      <trkpt lat="45.7485" lon="6.49455">
        <ele>1624</ele>
        <time>2022-07-24T05:01:55Z</time>
      </trkpt>
      <trkpt lat="45.74851" lon="6.49456">
        <ele>1624</ele>
        <time>2022-07-24T05:01:56Z</time>
      </trkpt>
      <trkpt lat="45.74851" lon="6.49456">
        <ele>1624</ele>
        <time>2022-07-24T05:01:57Z</time>
      </trkpt>
      <trkpt lat="45.74851" lon="6.49457">
        <ele>1624</ele>
        <time>2022-07-24T05:01:58Z</time>
      </trkpt>
      <trkpt lat="45.74851" lon="6.49457">
        <ele>1625</ele>
        <time>2022-07-24T05:01:59Z</time>
      </trkpt>
      <trkpt lat="45.74852" lon="6.49457">
        <ele>1625</ele>
        <time>2022-07-24T05:02:00Z</time>
      </trkpt>
      <trkpt lat="45.74852" lon="6.49458">
        <ele>1625</ele>
        <time>2022-07-24T05:02:01Z</time>
      </trkpt>
      <trkpt lat="45.74852" lon="6.49458">
        <ele>1625</ele>
        <time>2022-07-24T05:02:02Z</time>
      </trkpt>
      <trkpt lat="45.74853" lon="6.49459">
        <ele>1625</ele>
        <time>2022-07-24T05:02:03Z</time>
      </trkpt>
      <trkpt lat="45.74853" lon="6.49459">
        <ele>1625</ele>
        <time>2022-07-24T05:02:04Z</time>
      </trkpt>
      <trkpt lat="45.74853" lon="6.4946">
        <ele>1625</ele>
        <time>2022-07-24T05:02:05Z</time>
      </trkpt>
      <trkpt lat="45.74854" lon="6.4946">
        <ele>1625</ele>
        <time>2022-07-24T05:02:06Z</time>
      </trkpt>
      <trkpt lat="45.74854" lon="6.49461">
        <ele>1625</ele>
        <time>2022-07-24T05:02:07Z</time>
      </trkpt>
      <trkpt lat="45.74854" lon="6.49461">
        <ele>1625</ele>
        <time>2022-07-24T05:02:08Z</time>
      </trkpt>
      <trkpt lat="45.74855" lon="6.49462">
        <ele>1625</ele>
        <time>2022-07-24T05:02:09Z</time>
      </trkpt>
      <trkpt lat="45.74855" lon="6.49463">
        <ele>1625</ele>
        <time>2022-07-24T05:02:10Z</time>
      </trkpt>
      <trkpt lat="45.74856" lon="6.49464">
        <ele>1625</ele>
        <time>2022-07-24T05:02:11Z</time>
      </trkpt>
      <trkpt lat="45.74856" lon="6.49464">
        <ele>1625</ele>
        <time>2022-07-24T05:02:12Z</time>
      </trkpt>
      <trkpt lat="45.74856" lon="6.49465">
        <ele>1625</ele>
        <time>2022-07-24T05:02:13Z</time>
      </trkpt>
      <trkpt lat="45.74857" lon="6.49466">
        <ele>1626</ele>
        <time>2022-07-24T05:02:14Z</time>
      </trkpt>
      <trkpt lat="45.74857" lon="6.49466">
        <ele>1626</ele>
        <time>2022-07-24T05:02:15Z</time>
      </trkpt>
      <trkpt lat="45.74857" lon="6.49467">
        <ele>1626</ele>
        <time>2022-07-24T05:02:16Z</time>
      </trkpt>
      <trkpt lat="45.74858" lon="6.49467">
        <ele>1626</ele>
        <time>2022-07-24T05:02:17Z</time>
      </trkpt>
      <trkpt lat="45.74858" lon="6.49467">
        <ele>1626</ele>
        <time>2022-07-24T05:02:18Z</time>
      </trkpt>
      <trkpt lat="45.74858" lon="6.49468">
        <ele>1627</ele>
        <time>2022-07-24T05:02:19Z</time>
      </trkpt>
      <trkpt lat="45.74859" lon="6.49468">
        <ele>1627</ele>
        <time>2022-07-24T05:02:20Z</time>
      </trkpt>
      <trkpt lat="45.74859" lon="6.49468">
        <ele>1627</ele>
        <time>2022-07-24T05:02:21Z</time>
      </trkpt>
      <trkpt lat="45.7486" lon="6.49469">
        <ele>1627</ele>
        <time>2022-07-24T05:02:22Z</time>
      </trkpt>
      <trkpt lat="45.7486" lon="6.49469">
        <ele>1627</ele>
        <time>2022-07-24T05:02:23Z</time>
      </trkpt>
      <trkpt lat="45.74861" lon="6.49469">
        <ele>1627</ele>
        <time>2022-07-24T05:02:24Z</time>
      </trkpt>
      <trkpt lat="45.74861" lon="6.4947">
        <ele>1627</ele>
        <time>2022-07-24T05:02:25Z</time>
      </trkpt>
      <trkpt lat="45.74862" lon="6.4947">
        <ele>1627</ele>
        <time>2022-07-24T05:02:26Z</time>
      </trkpt>
      <trkpt lat="45.74862" lon="6.49471">
        <ele>1627</ele>
        <time>2022-07-24T05:02:27Z</time>
      </trkpt>
      <trkpt lat="45.74863" lon="6.49471">
        <ele>1627</ele>
        <time>2022-07-24T05:02:28Z</time>
      </trkpt>
      <trkpt lat="45.74863" lon="6.49472">
        <ele>1628</ele>
        <time>2022-07-24T05:02:29Z</time>
      </trkpt>
      <trkpt lat="45.74864" lon="6.49473">
        <ele>1628</ele>
        <time>2022-07-24T05:02:30Z</time>
      </trkpt>
      <trkpt lat="45.74864" lon="6.49473">
        <ele>1628</ele>
        <time>2022-07-24T05:02:31Z</time>
      </trkpt>
      <trkpt lat="45.74864" lon="6.49474">
        <ele>1628</ele>
        <time>2022-07-24T05:02:32Z</time>
      </trkpt>
      <trkpt lat="45.74865" lon="6.49475">
        <ele>1628</ele>
        <time>2022-07-24T05:02:33Z</time>
      </trkpt>
      <trkpt lat="45.74865" lon="6.49475">
        <ele>1628</ele>
        <time>2022-07-24T05:02:34Z</time>
      </trkpt>
      <trkpt lat="45.74866" lon="6.49476">
        <ele>1628</ele>
        <time>2022-07-24T05:02:35Z</time>
      </trkpt>
      <trkpt lat="45.74866" lon="6.49477">
        <ele>1628</ele>
        <time>2022-07-24T05:02:36Z</time>
      </trkpt>
      <trkpt lat="45.74867" lon="6.49477">
        <ele>1628</ele>
        <time>2022-07-24T05:02:37Z</time>
      </trkpt>
      <trkpt lat="45.74867" lon="6.49478">
        <ele>1628</ele>
        <time>2022-07-24T05:02:38Z</time>
      </trkpt>
      <trkpt lat="45.74868" lon="6.49479">
        <ele>1629</ele>
        <time>2022-07-24T05:02:39Z</time>
      </trkpt>
      <trkpt lat="45.74868" lon="6.49479">
        <ele>1629</ele>
        <time>2022-07-24T05:02:40Z</time>
      </trkpt>
      <trkpt lat="45.74869" lon="6.4948">
        <ele>1629</ele>
        <time>2022-07-24T05:02:41Z</time>
      </trkpt>
      <trkpt lat="45.74869" lon="6.4948">
        <ele>1629</ele>
        <time>2022-07-24T05:02:42Z</time>
      </trkpt>
      <trkpt lat="45.7487" lon="6.49481">
        <ele>1629</ele>
        <time>2022-07-24T05:02:43Z</time>
      </trkpt>
      <trkpt lat="45.7487" lon="6.49481">
        <ele>1629</ele>
        <time>2022-07-24T05:02:44Z</time>
      </trkpt>
      <trkpt lat="45.74871" lon="6.49482">
        <ele>1629</ele>
        <time>2022-07-24T05:02:45Z</time>
      </trkpt>
      <trkpt lat="45.74871" lon="6.49482">
        <ele>1629</ele>
        <time>2022-07-24T05:02:46Z</time>
      </trkpt>
      <trkpt lat="45.74872" lon="6.49483">
        <ele>1629</ele>
        <time>2022-07-24T05:02:47Z</time>
      </trkpt>
      <trkpt lat="45.74872" lon="6.49484">
        <ele>1629</ele>
        <time>2022-07-24T05:02:48Z</time>
      </trkpt>
      <trkpt lat="45.74873" lon="6.49484">
        <ele>1630</ele>
        <time>2022-07-24T05:02:49Z</time>
      </trkpt>
      <trkpt lat="45.74873" lon="6.49485">
        <ele>1630</ele>
        <time>2022-07-24T05:02:50Z</time>
      </trkpt>
      <trkpt lat="45.74873" lon="6.49485">
        <ele>1630</ele>
        <time>2022-07-24T05:02:51Z</time>
      </trkpt>
      <trkpt lat="45.74874" lon="6.49486">
        <ele>1630</ele>
        <time>2022-07-24T05:02:52Z</time>
      </trkpt>
      <trkpt lat="45.74874" lon="6.49486">
        <ele>1630</ele>
        <time>2022-07-24T05:02:53Z</time>
      </trkpt>
      <trkpt lat="45.74875" lon="6.49487">
        <ele>1630</ele>
        <time>2022-07-24T05:02:54Z</time>
      </trkpt>
      <trkpt lat="45.74875" lon="6.49487">
        <ele>1630</ele>
        <time>2022-07-24T05:02:55Z</time>
      </trkpt>
      <trkpt lat="45.74875" lon="6.49487">
        <ele>1630</ele>
        <time>2022-07-24T05:02:56Z</time>
      </trkpt>
      <trkpt lat="45.74875" lon="6.49487">
        <ele>1631</ele>
        <time>2022-07-24T05:02:57Z</time>
      </trkpt>
      <trkpt lat="45.74876" lon="6.49487">
        <ele>1631</ele>
        <time>2022-07-24T05:02:58Z</time>
      </trkpt>
      <trkpt lat="45.74876" lon="6.49487">
        <ele>1632</ele>
        <time>2022-07-24T05:02:59Z</time>
      </trkpt>
      <trkpt lat="45.74877" lon="6.49488">
        <ele>1632</ele>
        <time>2022-07-24T05:03:00Z</time>
      </trkpt>
      <trkpt lat="45.74878" lon="6.49488">
        <ele>1632</ele>
        <time>2022-07-24T05:03:01Z</time>
      </trkpt>
      <trkpt lat="45.74878" lon="6.49488">
        <ele>1632</ele>
        <time>2022-07-24T05:03:02Z</time>
      </trkpt>
      <trkpt lat="45.74879" lon="6.49489">
        <ele>1632</ele>
        <time>2022-07-24T05:03:03Z</time>
      </trkpt>
      <trkpt lat="45.7488" lon="6.49489">
        <ele>1632</ele>
        <time>2022-07-24T05:03:04Z</time>
      </trkpt>
      <trkpt lat="45.7488" lon="6.49489">
        <ele>1632</ele>
        <time>2022-07-24T05:03:05Z</time>
      </trkpt>
      <trkpt lat="45.74881" lon="6.49489">
        <ele>1632</ele>
        <time>2022-07-24T05:03:06Z</time>
      </trkpt>
      <trkpt lat="45.74882" lon="6.49489">
        <ele>1632</ele>
        <time>2022-07-24T05:03:07Z</time>
      </trkpt>
      <trkpt lat="45.74882" lon="6.49488">
        <ele>1632</ele>
        <time>2022-07-24T05:03:08Z</time>
      </trkpt>
      <trkpt lat="45.74883" lon="6.49488">
        <ele>1632</ele>
        <time>2022-07-24T05:03:09Z</time>
      </trkpt>
      <trkpt lat="45.74884" lon="6.49488">
        <ele>1632</ele>
        <time>2022-07-24T05:03:10Z</time>
      </trkpt>
      <trkpt lat="45.74885" lon="6.49487">
        <ele>1632</ele>
        <time>2022-07-24T05:03:11Z</time>
      </trkpt>
      <trkpt lat="45.74886" lon="6.49487">
        <ele>1632</ele>
        <time>2022-07-24T05:03:12Z</time>
      </trkpt>
      <trkpt lat="45.74886" lon="6.49486">
        <ele>1632</ele>
        <time>2022-07-24T05:03:13Z</time>
      </trkpt>
      <trkpt lat="45.74887" lon="6.49486">
        <ele>1632</ele>
        <time>2022-07-24T05:03:14Z</time>
      </trkpt>
      <trkpt lat="45.74888" lon="6.49486">
        <ele>1632</ele>
        <time>2022-07-24T05:03:15Z</time>
      </trkpt>
      <trkpt lat="45.74889" lon="6.49485">
        <ele>1632</ele>
        <time>2022-07-24T05:03:16Z</time>
      </trkpt>
      <trkpt lat="45.7489" lon="6.49485">
        <ele>1632</ele>
        <time>2022-07-24T05:03:17Z</time>
      </trkpt>
      <trkpt lat="45.74891" lon="6.49484">
        <ele>1632</ele>
        <time>2022-07-24T05:03:18Z</time>
      </trkpt>
      <trkpt lat="45.74891" lon="6.49484">
        <ele>1633</ele>
        <time>2022-07-24T05:03:19Z</time>
      </trkpt>
      <trkpt lat="45.74892" lon="6.49483">
        <ele>1633</ele>
        <time>2022-07-24T05:03:20Z</time>
      </trkpt>
      <trkpt lat="45.74893" lon="6.49483">
        <ele>1633</ele>
        <time>2022-07-24T05:03:21Z</time>
      </trkpt>
      <trkpt lat="45.74894" lon="6.49482">
        <ele>1633</ele>
        <time>2022-07-24T05:03:22Z</time>
      </trkpt>
      <trkpt lat="45.74895" lon="6.49482">
        <ele>1633</ele>
        <time>2022-07-24T05:03:23Z</time>
      </trkpt>
      <trkpt lat="45.74896" lon="6.49482">
        <ele>1633</ele>
        <time>2022-07-24T05:03:24Z</time>
      </trkpt>
      <trkpt lat="45.74896" lon="6.49482">
        <ele>1633</ele>
        <time>2022-07-24T05:03:25Z</time>
      </trkpt>
      <trkpt lat="45.74897" lon="6.49482">
        <ele>1633</ele>
        <time>2022-07-24T05:03:26Z</time>
      </trkpt>
      <trkpt lat="45.74898" lon="6.49482">
        <ele>1633</ele>
        <time>2022-07-24T05:03:27Z</time>
      </trkpt>
      <trkpt lat="45.74899" lon="6.49482">
        <ele>1633</ele>
        <time>2022-07-24T05:03:28Z</time>
      </trkpt>
      <trkpt lat="45.74899" lon="6.49482">
        <ele>1633</ele>
        <time>2022-07-24T05:03:29Z</time>
      </trkpt>
      <trkpt lat="45.749" lon="6.49482">
        <ele>1633</ele>
        <time>2022-07-24T05:03:30Z</time>
      </trkpt>
      <trkpt lat="45.74901" lon="6.49482">
        <ele>1633</ele>
        <time>2022-07-24T05:03:31Z</time>
      </trkpt>
      <trkpt lat="45.74901" lon="6.49482">
        <ele>1633</ele>
        <time>2022-07-24T05:03:32Z</time>
      </trkpt>
      <trkpt lat="45.74902" lon="6.49482">
        <ele>1633</ele>
        <time>2022-07-24T05:03:33Z</time>
      </trkpt>
      <trkpt lat="45.74903" lon="6.49482">
        <ele>1633</ele>
        <time>2022-07-24T05:03:34Z</time>
      </trkpt>
      <trkpt lat="45.74903" lon="6.49482">
        <ele>1633</ele>
        <time>2022-07-24T05:03:35Z</time>
      </trkpt>
      <trkpt lat="45.74904" lon="6.49482">
        <ele>1633</ele>
        <time>2022-07-24T05:03:36Z</time>
      </trkpt>
      <trkpt lat="45.74904" lon="6.49482">
        <ele>1633</ele>
        <time>2022-07-24T05:03:37Z</time>
      </trkpt>
      <trkpt lat="45.74905" lon="6.49482">
        <ele>1633</ele>
        <time>2022-07-24T05:03:38Z</time>
      </trkpt>
      <trkpt lat="45.74905" lon="6.49483">
        <ele>1634</ele>
        <time>2022-07-24T05:03:39Z</time>
      </trkpt>
      <trkpt lat="45.74906" lon="6.49483">
        <ele>1634</ele>
        <time>2022-07-24T05:03:40Z</time>
      </trkpt>
      <trkpt lat="45.74907" lon="6.49483">
        <ele>1634</ele>
        <time>2022-07-24T05:03:41Z</time>
      </trkpt>
      <trkpt lat="45.74908" lon="6.49483">
        <ele>1634</ele>
        <time>2022-07-24T05:03:42Z</time>
      </trkpt>
      <trkpt lat="45.74909" lon="6.49484">
        <ele>1634</ele>
        <time>2022-07-24T05:03:43Z</time>
      </trkpt>
      <trkpt lat="45.74909" lon="6.49484">
        <ele>1634</ele>
        <time>2022-07-24T05:03:44Z</time>
      </trkpt>
      <trkpt lat="45.7491" lon="6.49484">
        <ele>1634</ele>
        <time>2022-07-24T05:03:45Z</time>
      </trkpt>
      <trkpt lat="45.74911" lon="6.49484">
        <ele>1634</ele>
        <time>2022-07-24T05:03:46Z</time>
      </trkpt>
      <trkpt lat="45.74912" lon="6.49485">
        <ele>1634</ele>
        <time>2022-07-24T05:03:47Z</time>
      </trkpt>
      <trkpt lat="45.74913" lon="6.49485">
        <ele>1634</ele>
        <time>2022-07-24T05:03:48Z</time>
      </trkpt>
      <trkpt lat="45.74914" lon="6.49486">
        <ele>1634</ele>
        <time>2022-07-24T05:03:49Z</time>
      </trkpt>
      <trkpt lat="45.74915" lon="6.49486">
        <ele>1634</ele>
        <time>2022-07-24T05:03:50Z</time>
      </trkpt>
      <trkpt lat="45.74916" lon="6.49487">
        <ele>1634</ele>
        <time>2022-07-24T05:03:51Z</time>
      </trkpt>
      <trkpt lat="45.74916" lon="6.49487">
        <ele>1634</ele>
        <time>2022-07-24T05:03:52Z</time>
      </trkpt>
      <trkpt lat="45.74917" lon="6.49487">
        <ele>1634</ele>
        <time>2022-07-24T05:03:53Z</time>
      </trkpt>
      <trkpt lat="45.74918" lon="6.49487">
        <ele>1635</ele>
        <time>2022-07-24T05:03:54Z</time>
      </trkpt>
      <trkpt lat="45.74919" lon="6.49487">
        <ele>1635</ele>
        <time>2022-07-24T05:03:55Z</time>
      </trkpt>
      <trkpt lat="45.74919" lon="6.49487">
        <ele>1635</ele>
        <time>2022-07-24T05:03:56Z</time>
      </trkpt>
      <trkpt lat="45.7492" lon="6.49487">
        <ele>1635</ele>
        <time>2022-07-24T05:03:57Z</time>
      </trkpt>
      <trkpt lat="45.74921" lon="6.49488">
        <ele>1635</ele>
        <time>2022-07-24T05:03:58Z</time>
      </trkpt>
      <trkpt lat="45.74921" lon="6.49488">
        <ele>1635</ele>
        <time>2022-07-24T05:03:59Z</time>
      </trkpt>
      <trkpt lat="45.74922" lon="6.49488">
        <ele>1635</ele>
        <time>2022-07-24T05:04:00Z</time>
      </trkpt>
      <trkpt lat="45.74923" lon="6.49488">
        <ele>1635</ele>
        <time>2022-07-24T05:04:01Z</time>
      </trkpt>
      <trkpt lat="45.74923" lon="6.49488">
        <ele>1635</ele>
        <time>2022-07-24T05:04:02Z</time>
      </trkpt>
      <trkpt lat="45.74924" lon="6.49489">
        <ele>1635</ele>
        <time>2022-07-24T05:04:03Z</time>
      </trkpt>
      <trkpt lat="45.74925" lon="6.49489">
        <ele>1635</ele>
        <time>2022-07-24T05:04:04Z</time>
      </trkpt>
      <trkpt lat="45.74925" lon="6.4949">
        <ele>1635</ele>
        <time>2022-07-24T05:04:05Z</time>
      </trkpt>
      <trkpt lat="45.74926" lon="6.49491">
        <ele>1635</ele>
        <time>2022-07-24T05:04:06Z</time>
      </trkpt>
      <trkpt lat="45.74927" lon="6.49491">
        <ele>1635</ele>
        <time>2022-07-24T05:04:07Z</time>
      </trkpt>
      <trkpt lat="45.74928" lon="6.49491">
        <ele>1635</ele>
        <time>2022-07-24T05:04:08Z</time>
      </trkpt>
      <trkpt lat="45.74929" lon="6.49492">
        <ele>1636</ele>
        <time>2022-07-24T05:04:09Z</time>
      </trkpt>
      <trkpt lat="45.74929" lon="6.49492">
        <ele>1636</ele>
        <time>2022-07-24T05:04:10Z</time>
      </trkpt>
      <trkpt lat="45.7493" lon="6.49492">
        <ele>1636</ele>
        <time>2022-07-24T05:04:11Z</time>
      </trkpt>
      <trkpt lat="45.74931" lon="6.49492">
        <ele>1636</ele>
        <time>2022-07-24T05:04:12Z</time>
      </trkpt>
      <trkpt lat="45.74932" lon="6.49493">
        <ele>1636</ele>
        <time>2022-07-24T05:04:13Z</time>
      </trkpt>
      <trkpt lat="45.74933" lon="6.49493">
        <ele>1636</ele>
        <time>2022-07-24T05:04:14Z</time>
      </trkpt>
      <trkpt lat="45.74934" lon="6.49494">
        <ele>1636</ele>
        <time>2022-07-24T05:04:15Z</time>
      </trkpt>
      <trkpt lat="45.74935" lon="6.49495">
        <ele>1636</ele>
        <time>2022-07-24T05:04:16Z</time>
      </trkpt>
      <trkpt lat="45.74936" lon="6.49495">
        <ele>1636</ele>
        <time>2022-07-24T05:04:17Z</time>
      </trkpt>
      <trkpt lat="45.74936" lon="6.49496">
        <ele>1636</ele>
        <time>2022-07-24T05:04:18Z</time>
      </trkpt>
      <trkpt lat="45.74937" lon="6.49497">
        <ele>1637</ele>
        <time>2022-07-24T05:04:19Z</time>
      </trkpt>
      <trkpt lat="45.74938" lon="6.49498">
        <ele>1637</ele>
        <time>2022-07-24T05:04:20Z</time>
      </trkpt>
      <trkpt lat="45.74939" lon="6.49499">
        <ele>1637</ele>
        <time>2022-07-24T05:04:21Z</time>
      </trkpt>
      <trkpt lat="45.74939" lon="6.49499">
        <ele>1637</ele>
        <time>2022-07-24T05:04:22Z</time>
      </trkpt>
      <trkpt lat="45.7494" lon="6.495">
        <ele>1637</ele>
        <time>2022-07-24T05:04:23Z</time>
      </trkpt>
      <trkpt lat="45.74941" lon="6.49501">
        <ele>1637</ele>
        <time>2022-07-24T05:04:24Z</time>
      </trkpt>
      <trkpt lat="45.74941" lon="6.49502">
        <ele>1637</ele>
        <time>2022-07-24T05:04:25Z</time>
      </trkpt>
      <trkpt lat="45.74942" lon="6.49502">
        <ele>1637</ele>
        <time>2022-07-24T05:04:26Z</time>
      </trkpt>
      <trkpt lat="45.74943" lon="6.49503">
        <ele>1637</ele>
        <time>2022-07-24T05:04:27Z</time>
      </trkpt>
      <trkpt lat="45.74943" lon="6.49504">
        <ele>1637</ele>
        <time>2022-07-24T05:04:28Z</time>
      </trkpt>
      <trkpt lat="45.74944" lon="6.49505">
        <ele>1637</ele>
        <time>2022-07-24T05:04:29Z</time>
      </trkpt>
      <trkpt lat="45.74944" lon="6.49506">
        <ele>1637</ele>
        <time>2022-07-24T05:04:30Z</time>
      </trkpt>
      <trkpt lat="45.74945" lon="6.49507">
        <ele>1637</ele>
        <time>2022-07-24T05:04:31Z</time>
      </trkpt>
      <trkpt lat="45.74945" lon="6.49508">
        <ele>1637</ele>
        <time>2022-07-24T05:04:32Z</time>
      </trkpt>
      <trkpt lat="45.74946" lon="6.49508">
        <ele>1637</ele>
        <time>2022-07-24T05:04:33Z</time>
      </trkpt>
      <trkpt lat="45.74946" lon="6.49509">
        <ele>1638</ele>
        <time>2022-07-24T05:04:34Z</time>
      </trkpt>
      <trkpt lat="45.74947" lon="6.4951">
        <ele>1638</ele>
        <time>2022-07-24T05:04:35Z</time>
      </trkpt>
      <trkpt lat="45.74947" lon="6.49511">
        <ele>1638</ele>
        <time>2022-07-24T05:04:36Z</time>
      </trkpt>
      <trkpt lat="45.74948" lon="6.49512">
        <ele>1638</ele>
        <time>2022-07-24T05:04:37Z</time>
      </trkpt>
      <trkpt lat="45.74948" lon="6.49513">
        <ele>1638</ele>
        <time>2022-07-24T05:04:38Z</time>
      </trkpt>
      <trkpt lat="45.74949" lon="6.49514">
        <ele>1638</ele>
        <time>2022-07-24T05:04:39Z</time>
      </trkpt>
      <trkpt lat="45.74949" lon="6.49514">
        <ele>1638</ele>
        <time>2022-07-24T05:04:40Z</time>
      </trkpt>
      <trkpt lat="45.7495" lon="6.49515">
        <ele>1638</ele>
        <time>2022-07-24T05:04:41Z</time>
      </trkpt>
      <trkpt lat="45.7495" lon="6.49516">
        <ele>1638</ele>
        <time>2022-07-24T05:04:42Z</time>
      </trkpt>
      <trkpt lat="45.74951" lon="6.49517">
        <ele>1638</ele>
        <time>2022-07-24T05:04:43Z</time>
      </trkpt>
      <trkpt lat="45.74951" lon="6.49517">
        <ele>1639</ele>
        <time>2022-07-24T05:04:44Z</time>
      </trkpt>
      <trkpt lat="45.74952" lon="6.49518">
        <ele>1639</ele>
        <time>2022-07-24T05:04:45Z</time>
      </trkpt>
      <trkpt lat="45.74953" lon="6.49519">
        <ele>1639</ele>
        <time>2022-07-24T05:04:46Z</time>
      </trkpt>
      <trkpt lat="45.74953" lon="6.4952">
        <ele>1639</ele>
        <time>2022-07-24T05:04:47Z</time>
      </trkpt>
      <trkpt lat="45.74954" lon="6.4952">
        <ele>1639</ele>
        <time>2022-07-24T05:04:48Z</time>
      </trkpt>
      <trkpt lat="45.74954" lon="6.49521">
        <ele>1639</ele>
        <time>2022-07-24T05:04:49Z</time>
      </trkpt>
      <trkpt lat="45.74955" lon="6.49521">
        <ele>1639</ele>
        <time>2022-07-24T05:04:50Z</time>
      </trkpt>
      <trkpt lat="45.74955" lon="6.49522">
        <ele>1639</ele>
        <time>2022-07-24T05:04:51Z</time>
      </trkpt>
      <trkpt lat="45.74956" lon="6.49523">
        <ele>1639</ele>
        <time>2022-07-24T05:04:52Z</time>
      </trkpt>
      <trkpt lat="45.74956" lon="6.49524">
        <ele>1639</ele>
        <time>2022-07-24T05:04:53Z</time>
      </trkpt>
      <trkpt lat="45.74957" lon="6.49524">
        <ele>1640</ele>
        <time>2022-07-24T05:04:54Z</time>
      </trkpt>
      <trkpt lat="45.74957" lon="6.49525">
        <ele>1640</ele>
        <time>2022-07-24T05:04:55Z</time>
      </trkpt>
      <trkpt lat="45.74957" lon="6.49526">
        <ele>1640</ele>
        <time>2022-07-24T05:04:56Z</time>
      </trkpt>
      <trkpt lat="45.74958" lon="6.49527">
        <ele>1640</ele>
        <time>2022-07-24T05:04:57Z</time>
      </trkpt>
      <trkpt lat="45.74958" lon="6.49528">
        <ele>1640</ele>
        <time>2022-07-24T05:04:58Z</time>
      </trkpt>
      <trkpt lat="45.74959" lon="6.49529">
        <ele>1640</ele>
        <time>2022-07-24T05:04:59Z</time>
      </trkpt>
      <trkpt lat="45.74959" lon="6.49529">
        <ele>1640</ele>
        <time>2022-07-24T05:05:00Z</time>
      </trkpt>
      <trkpt lat="45.7496" lon="6.4953">
        <ele>1640</ele>
        <time>2022-07-24T05:05:01Z</time>
      </trkpt>
      <trkpt lat="45.7496" lon="6.49531">
        <ele>1640</ele>
        <time>2022-07-24T05:05:02Z</time>
      </trkpt>
      <trkpt lat="45.74961" lon="6.49532">
        <ele>1640</ele>
        <time>2022-07-24T05:05:03Z</time>
      </trkpt>
      <trkpt lat="45.74962" lon="6.49533">
        <ele>1641</ele>
        <time>2022-07-24T05:05:04Z</time>
      </trkpt>
      <trkpt lat="45.74962" lon="6.49534">
        <ele>1641</ele>
        <time>2022-07-24T05:05:05Z</time>
      </trkpt>
      <trkpt lat="45.74963" lon="6.49534">
        <ele>1641</ele>
        <time>2022-07-24T05:05:06Z</time>
      </trkpt>
      <trkpt lat="45.74963" lon="6.49535">
        <ele>1641</ele>
        <time>2022-07-24T05:05:07Z</time>
      </trkpt>
      <trkpt lat="45.74964" lon="6.49536">
        <ele>1641</ele>
        <time>2022-07-24T05:05:08Z</time>
      </trkpt>
      <trkpt lat="45.74964" lon="6.49537">
        <ele>1641</ele>
        <time>2022-07-24T05:05:09Z</time>
      </trkpt>
      <trkpt lat="45.74965" lon="6.49538">
        <ele>1641</ele>
        <time>2022-07-24T05:05:10Z</time>
      </trkpt>
      <trkpt lat="45.74965" lon="6.49539">
        <ele>1641</ele>
        <time>2022-07-24T05:05:11Z</time>
      </trkpt>
      <trkpt lat="45.74966" lon="6.49539">
        <ele>1641</ele>
        <time>2022-07-24T05:05:12Z</time>
      </trkpt>
      <trkpt lat="45.74967" lon="6.4954">
        <ele>1641</ele>
        <time>2022-07-24T05:05:13Z</time>
      </trkpt>
      <trkpt lat="45.74967" lon="6.49541">
        <ele>1642</ele>
        <time>2022-07-24T05:05:14Z</time>
      </trkpt>
      <trkpt lat="45.74968" lon="6.49541">
        <ele>1642</ele>
        <time>2022-07-24T05:05:15Z</time>
      </trkpt>
      <trkpt lat="45.74968" lon="6.49542">
        <ele>1642</ele>
        <time>2022-07-24T05:05:16Z</time>
      </trkpt>
      <trkpt lat="45.74969" lon="6.49543">
        <ele>1642</ele>
        <time>2022-07-24T05:05:17Z</time>
      </trkpt>
      <trkpt lat="45.74969" lon="6.49543">
        <ele>1642</ele>
        <time>2022-07-24T05:05:18Z</time>
      </trkpt>
      <trkpt lat="45.7497" lon="6.49544">
        <ele>1642</ele>
        <time>2022-07-24T05:05:19Z</time>
      </trkpt>
      <trkpt lat="45.7497" lon="6.49545">
        <ele>1642</ele>
        <time>2022-07-24T05:05:20Z</time>
      </trkpt>
      <trkpt lat="45.74971" lon="6.49546">
        <ele>1642</ele>
        <time>2022-07-24T05:05:21Z</time>
      </trkpt>
      <trkpt lat="45.74971" lon="6.49546">
        <ele>1642</ele>
        <time>2022-07-24T05:05:22Z</time>
      </trkpt>
      <trkpt lat="45.74972" lon="6.49547">
        <ele>1642</ele>
        <time>2022-07-24T05:05:23Z</time>
      </trkpt>
      <trkpt lat="45.74972" lon="6.49548">
        <ele>1643</ele>
        <time>2022-07-24T05:05:24Z</time>
      </trkpt>
      <trkpt lat="45.74973" lon="6.49548">
        <ele>1643</ele>
        <time>2022-07-24T05:05:25Z</time>
      </trkpt>
      <trkpt lat="45.74973" lon="6.49549">
        <ele>1643</ele>
        <time>2022-07-24T05:05:26Z</time>
      </trkpt>
      <trkpt lat="45.74974" lon="6.4955">
        <ele>1643</ele>
        <time>2022-07-24T05:05:27Z</time>
      </trkpt>
      <trkpt lat="45.74974" lon="6.4955">
        <ele>1643</ele>
        <time>2022-07-24T05:05:28Z</time>
      </trkpt>
      <trkpt lat="45.74975" lon="6.49551">
        <ele>1643</ele>
        <time>2022-07-24T05:05:29Z</time>
      </trkpt>
      <trkpt lat="45.74975" lon="6.49552">
        <ele>1643</ele>
        <time>2022-07-24T05:05:30Z</time>
      </trkpt>
      <trkpt lat="45.74976" lon="6.49552">
        <ele>1643</ele>
        <time>2022-07-24T05:05:31Z</time>
      </trkpt>
      <trkpt lat="45.74977" lon="6.49553">
        <ele>1643</ele>
        <time>2022-07-24T05:05:32Z</time>
      </trkpt>
      <trkpt lat="45.74978" lon="6.49553">
        <ele>1643</ele>
        <time>2022-07-24T05:05:33Z</time>
      </trkpt>
      <trkpt lat="45.74978" lon="6.49554">
        <ele>1643</ele>
        <time>2022-07-24T05:05:34Z</time>
      </trkpt>
      <trkpt lat="45.74979" lon="6.49554">
        <ele>1643</ele>
        <time>2022-07-24T05:05:35Z</time>
      </trkpt>
      <trkpt lat="45.74979" lon="6.49555">
        <ele>1643</ele>
        <time>2022-07-24T05:05:36Z</time>
      </trkpt>
      <trkpt lat="45.7498" lon="6.49555">
        <ele>1643</ele>
        <time>2022-07-24T05:05:37Z</time>
      </trkpt>
      <trkpt lat="45.7498" lon="6.49556">
        <ele>1643</ele>
        <time>2022-07-24T05:05:38Z</time>
      </trkpt>
      <trkpt lat="45.74981" lon="6.49557">
        <ele>1644</ele>
        <time>2022-07-24T05:05:39Z</time>
      </trkpt>
      <trkpt lat="45.74981" lon="6.49557">
        <ele>1644</ele>
        <time>2022-07-24T05:05:40Z</time>
      </trkpt>
      <trkpt lat="45.74982" lon="6.49558">
        <ele>1644</ele>
        <time>2022-07-24T05:05:41Z</time>
      </trkpt>
      <trkpt lat="45.74982" lon="6.49559">
        <ele>1644</ele>
        <time>2022-07-24T05:05:42Z</time>
      </trkpt>
      <trkpt lat="45.74983" lon="6.4956">
        <ele>1644</ele>
        <time>2022-07-24T05:05:43Z</time>
      </trkpt>
      <trkpt lat="45.74984" lon="6.4956">
        <ele>1644</ele>
        <time>2022-07-24T05:05:44Z</time>
      </trkpt>
      <trkpt lat="45.74984" lon="6.49561">
        <ele>1644</ele>
        <time>2022-07-24T05:05:45Z</time>
      </trkpt>
      <trkpt lat="45.74985" lon="6.49562">
        <ele>1644</ele>
        <time>2022-07-24T05:05:46Z</time>
      </trkpt>
      <trkpt lat="45.74985" lon="6.49562">
        <ele>1644</ele>
        <time>2022-07-24T05:05:47Z</time>
      </trkpt>
      <trkpt lat="45.74986" lon="6.49563">
        <ele>1644</ele>
        <time>2022-07-24T05:05:48Z</time>
      </trkpt>
      <trkpt lat="45.74986" lon="6.49563">
        <ele>1645</ele>
        <time>2022-07-24T05:05:49Z</time>
      </trkpt>
      <trkpt lat="45.74987" lon="6.49564">
        <ele>1645</ele>
        <time>2022-07-24T05:05:50Z</time>
      </trkpt>
      <trkpt lat="45.74987" lon="6.49564">
        <ele>1645</ele>
        <time>2022-07-24T05:05:51Z</time>
      </trkpt>
      <trkpt lat="45.74988" lon="6.49565">
        <ele>1645</ele>
        <time>2022-07-24T05:05:52Z</time>
      </trkpt>
      <trkpt lat="45.74988" lon="6.49565">
        <ele>1645</ele>
        <time>2022-07-24T05:05:53Z</time>
      </trkpt>
      <trkpt lat="45.74989" lon="6.49566">
        <ele>1646</ele>
        <time>2022-07-24T05:05:54Z</time>
      </trkpt>
      <trkpt lat="45.74989" lon="6.49566">
        <ele>1646</ele>
        <time>2022-07-24T05:05:55Z</time>
      </trkpt>
      <trkpt lat="45.7499" lon="6.49567">
        <ele>1646</ele>
        <time>2022-07-24T05:05:56Z</time>
      </trkpt>
      <trkpt lat="45.7499" lon="6.49567">
        <ele>1646</ele>
        <time>2022-07-24T05:05:57Z</time>
      </trkpt>
      <trkpt lat="45.74991" lon="6.49568">
        <ele>1646</ele>
        <time>2022-07-24T05:05:58Z</time>
      </trkpt>
      <trkpt lat="45.74991" lon="6.49568">
        <ele>1646</ele>
        <time>2022-07-24T05:05:59Z</time>
      </trkpt>
      <trkpt lat="45.74992" lon="6.49569">
        <ele>1646</ele>
        <time>2022-07-24T05:06:00Z</time>
      </trkpt>
      <trkpt lat="45.74992" lon="6.49569">
        <ele>1646</ele>
        <time>2022-07-24T05:06:01Z</time>
      </trkpt>
      <trkpt lat="45.74993" lon="6.49569">
        <ele>1646</ele>
        <time>2022-07-24T05:06:02Z</time>
      </trkpt>
      <trkpt lat="45.74993" lon="6.4957">
        <ele>1646</ele>
        <time>2022-07-24T05:06:03Z</time>
      </trkpt>
      <trkpt lat="45.74994" lon="6.4957">
        <ele>1647</ele>
        <time>2022-07-24T05:06:04Z</time>
      </trkpt>
      <trkpt lat="45.74995" lon="6.49571">
        <ele>1647</ele>
        <time>2022-07-24T05:06:05Z</time>
      </trkpt>
      <trkpt lat="45.74995" lon="6.49571">
        <ele>1647</ele>
        <time>2022-07-24T05:06:06Z</time>
      </trkpt>
      <trkpt lat="45.74996" lon="6.49571">
        <ele>1647</ele>
        <time>2022-07-24T05:06:07Z</time>
      </trkpt>
      <trkpt lat="45.74997" lon="6.49571">
        <ele>1647</ele>
        <time>2022-07-24T05:06:08Z</time>
      </trkpt>
      <trkpt lat="45.74998" lon="6.49572">
        <ele>1647</ele>
        <time>2022-07-24T05:06:09Z</time>
      </trkpt>
      <trkpt lat="45.74998" lon="6.49572">
        <ele>1647</ele>
        <time>2022-07-24T05:06:10Z</time>
      </trkpt>
      <trkpt lat="45.74999" lon="6.49572">
        <ele>1647</ele>
        <time>2022-07-24T05:06:11Z</time>
      </trkpt>
      <trkpt lat="45.75" lon="6.49572">
        <ele>1647</ele>
        <time>2022-07-24T05:06:12Z</time>
      </trkpt>
      <trkpt lat="45.75001" lon="6.49572">
        <ele>1647</ele>
        <time>2022-07-24T05:06:13Z</time>
      </trkpt>
      <trkpt lat="45.75002" lon="6.49573">
        <ele>1648</ele>
        <time>2022-07-24T05:06:14Z</time>
      </trkpt>
      <trkpt lat="45.75003" lon="6.49573">
        <ele>1648</ele>
        <time>2022-07-24T05:06:15Z</time>
      </trkpt>
      <trkpt lat="45.75004" lon="6.49573">
        <ele>1648</ele>
        <time>2022-07-24T05:06:16Z</time>
      </trkpt>
      <trkpt lat="45.75005" lon="6.49574">
        <ele>1648</ele>
        <time>2022-07-24T05:06:17Z</time>
      </trkpt>
      <trkpt lat="45.75006" lon="6.49574">
        <ele>1648</ele>
        <time>2022-07-24T05:06:18Z</time>
      </trkpt>
      <trkpt lat="45.75007" lon="6.49575">
        <ele>1648</ele>
        <time>2022-07-24T05:06:19Z</time>
      </trkpt>
      <trkpt lat="45.75007" lon="6.49575">
        <ele>1648</ele>
        <time>2022-07-24T05:06:20Z</time>
      </trkpt>
      <trkpt lat="45.75008" lon="6.49576">
        <ele>1648</ele>
        <time>2022-07-24T05:06:21Z</time>
      </trkpt>
      <trkpt lat="45.75009" lon="6.49577">
        <ele>1648</ele>
        <time>2022-07-24T05:06:22Z</time>
      </trkpt>
      <trkpt lat="45.7501" lon="6.49577">
        <ele>1648</ele>
        <time>2022-07-24T05:06:23Z</time>
      </trkpt>
      <trkpt lat="45.75011" lon="6.49578">
        <ele>1648</ele>
        <time>2022-07-24T05:06:24Z</time>
      </trkpt>
      <trkpt lat="45.75011" lon="6.49579">
        <ele>1648</ele>
        <time>2022-07-24T05:06:25Z</time>
      </trkpt>
      <trkpt lat="45.75012" lon="6.49579">
        <ele>1648</ele>
        <time>2022-07-24T05:06:26Z</time>
      </trkpt>
      <trkpt lat="45.75013" lon="6.4958">
        <ele>1648</ele>
        <time>2022-07-24T05:06:27Z</time>
      </trkpt>
      <trkpt lat="45.75014" lon="6.49581">
        <ele>1648</ele>
        <time>2022-07-24T05:06:28Z</time>
      </trkpt>
      <trkpt lat="45.75014" lon="6.49582">
        <ele>1649</ele>
        <time>2022-07-24T05:06:29Z</time>
      </trkpt>
      <trkpt lat="45.75015" lon="6.49582">
        <ele>1649</ele>
        <time>2022-07-24T05:06:30Z</time>
      </trkpt>
      <trkpt lat="45.75016" lon="6.49583">
        <ele>1649</ele>
        <time>2022-07-24T05:06:31Z</time>
      </trkpt>
      <trkpt lat="45.75016" lon="6.49584">
        <ele>1649</ele>
        <time>2022-07-24T05:06:32Z</time>
      </trkpt>
      <trkpt lat="45.75017" lon="6.49585">
        <ele>1649</ele>
        <time>2022-07-24T05:06:33Z</time>
      </trkpt>
      <trkpt lat="45.75018" lon="6.49586">
        <ele>1649</ele>
        <time>2022-07-24T05:06:34Z</time>
      </trkpt>
      <trkpt lat="45.75018" lon="6.49586">
        <ele>1649</ele>
        <time>2022-07-24T05:06:35Z</time>
      </trkpt>
      <trkpt lat="45.75019" lon="6.49587">
        <ele>1649</ele>
        <time>2022-07-24T05:06:36Z</time>
      </trkpt>
      <trkpt lat="45.75019" lon="6.49588">
        <ele>1649</ele>
        <time>2022-07-24T05:06:37Z</time>
      </trkpt>
      <trkpt lat="45.7502" lon="6.49589">
        <ele>1649</ele>
        <time>2022-07-24T05:06:38Z</time>
      </trkpt>
      <trkpt lat="45.75021" lon="6.4959">
        <ele>1649</ele>
        <time>2022-07-24T05:06:39Z</time>
      </trkpt>
      <trkpt lat="45.75021" lon="6.49591">
        <ele>1649</ele>
        <time>2022-07-24T05:06:40Z</time>
      </trkpt>
      <trkpt lat="45.75022" lon="6.49591">
        <ele>1649</ele>
        <time>2022-07-24T05:06:41Z</time>
      </trkpt>
      <trkpt lat="45.75023" lon="6.49592">
        <ele>1649</ele>
        <time>2022-07-24T05:06:42Z</time>
      </trkpt>
      <trkpt lat="45.75023" lon="6.49593">
        <ele>1649</ele>
        <time>2022-07-24T05:06:43Z</time>
      </trkpt>
      <trkpt lat="45.75024" lon="6.49594">
        <ele>1650</ele>
        <time>2022-07-24T05:06:44Z</time>
      </trkpt>
      <trkpt lat="45.75025" lon="6.49594">
        <ele>1650</ele>
        <time>2022-07-24T05:06:45Z</time>
      </trkpt>
      <trkpt lat="45.75025" lon="6.49595">
        <ele>1650</ele>
        <time>2022-07-24T05:06:46Z</time>
      </trkpt>
      <trkpt lat="45.75026" lon="6.49596">
        <ele>1650</ele>
        <time>2022-07-24T05:06:47Z</time>
      </trkpt>
      <trkpt lat="45.75027" lon="6.49597">
        <ele>1650</ele>
        <time>2022-07-24T05:06:48Z</time>
      </trkpt>
      <trkpt lat="45.75027" lon="6.49597">
        <ele>1650</ele>
        <time>2022-07-24T05:06:49Z</time>
      </trkpt>
      <trkpt lat="45.75028" lon="6.49598">
        <ele>1650</ele>
        <time>2022-07-24T05:06:50Z</time>
      </trkpt>
      <trkpt lat="45.75029" lon="6.49599">
        <ele>1650</ele>
        <time>2022-07-24T05:06:51Z</time>
      </trkpt>
      <trkpt lat="45.7503" lon="6.496">
        <ele>1650</ele>
        <time>2022-07-24T05:06:52Z</time>
      </trkpt>
      <trkpt lat="45.75031" lon="6.49601">
        <ele>1650</ele>
        <time>2022-07-24T05:06:53Z</time>
      </trkpt>
      <trkpt lat="45.75031" lon="6.49601">
        <ele>1651</ele>
        <time>2022-07-24T05:06:54Z</time>
      </trkpt>
      <trkpt lat="45.75032" lon="6.49602">
        <ele>1651</ele>
        <time>2022-07-24T05:06:55Z</time>
      </trkpt>
      <trkpt lat="45.75033" lon="6.49603">
        <ele>1651</ele>
        <time>2022-07-24T05:06:56Z</time>
      </trkpt>
      <trkpt lat="45.75034" lon="6.49603">
        <ele>1651</ele>
        <time>2022-07-24T05:06:57Z</time>
      </trkpt>
      <trkpt lat="45.75035" lon="6.49603">
        <ele>1651</ele>
        <time>2022-07-24T05:06:58Z</time>
      </trkpt>
      <trkpt lat="45.75036" lon="6.49604">
        <ele>1651</ele>
        <time>2022-07-24T05:06:59Z</time>
      </trkpt>
      <trkpt lat="45.75036" lon="6.49604">
        <ele>1651</ele>
        <time>2022-07-24T05:07:00Z</time>
      </trkpt>
      <trkpt lat="45.75037" lon="6.49604">
        <ele>1651</ele>
        <time>2022-07-24T05:07:01Z</time>
      </trkpt>
      <trkpt lat="45.75038" lon="6.49604">
        <ele>1651</ele>
        <time>2022-07-24T05:07:02Z</time>
      </trkpt>
      <trkpt lat="45.75039" lon="6.49604">
        <ele>1651</ele>
        <time>2022-07-24T05:07:03Z</time>
      </trkpt>
      <trkpt lat="45.7504" lon="6.49604">
        <ele>1651</ele>
        <time>2022-07-24T05:07:04Z</time>
      </trkpt>
      <trkpt lat="45.75041" lon="6.49604">
        <ele>1651</ele>
        <time>2022-07-24T05:07:05Z</time>
      </trkpt>
      <trkpt lat="45.75041" lon="6.49605">
        <ele>1651</ele>
        <time>2022-07-24T05:07:06Z</time>
      </trkpt>
      <trkpt lat="45.75042" lon="6.49605">
        <ele>1651</ele>
        <time>2022-07-24T05:07:07Z</time>
      </trkpt>
      <trkpt lat="45.75043" lon="6.49605">
        <ele>1651</ele>
        <time>2022-07-24T05:07:08Z</time>
      </trkpt>
      <trkpt lat="45.75044" lon="6.49604">
        <ele>1652</ele>
        <time>2022-07-24T05:07:09Z</time>
      </trkpt>
      <trkpt lat="45.75045" lon="6.49604">
        <ele>1652</ele>
        <time>2022-07-24T05:07:10Z</time>
      </trkpt>
      <trkpt lat="45.75046" lon="6.49604">
        <ele>1652</ele>
        <time>2022-07-24T05:07:11Z</time>
      </trkpt>
      <trkpt lat="45.75047" lon="6.49604">
        <ele>1652</ele>
        <time>2022-07-24T05:07:12Z</time>
      </trkpt>
      <trkpt lat="45.75048" lon="6.49604">
        <ele>1652</ele>
        <time>2022-07-24T05:07:13Z</time>
      </trkpt>
      <trkpt lat="45.75049" lon="6.49604">
        <ele>1652</ele>
        <time>2022-07-24T05:07:14Z</time>
      </trkpt>
      <trkpt lat="45.75049" lon="6.49604">
        <ele>1652</ele>
        <time>2022-07-24T05:07:15Z</time>
      </trkpt>
      <trkpt lat="45.7505" lon="6.49603">
        <ele>1652</ele>
        <time>2022-07-24T05:07:16Z</time>
      </trkpt>
      <trkpt lat="45.75051" lon="6.49603">
        <ele>1652</ele>
        <time>2022-07-24T05:07:17Z</time>
      </trkpt>
      <trkpt lat="45.75052" lon="6.49603">
        <ele>1652</ele>
        <time>2022-07-24T05:07:18Z</time>
      </trkpt>
      <trkpt lat="45.75053" lon="6.49603">
        <ele>1652</ele>
        <time>2022-07-24T05:07:19Z</time>
      </trkpt>
      <trkpt lat="45.75054" lon="6.49603">
        <ele>1652</ele>
        <time>2022-07-24T05:07:20Z</time>
      </trkpt>
      <trkpt lat="45.75054" lon="6.49603">
        <ele>1652</ele>
        <time>2022-07-24T05:07:21Z</time>
      </trkpt>
      <trkpt lat="45.75055" lon="6.49603">
        <ele>1652</ele>
        <time>2022-07-24T05:07:22Z</time>
      </trkpt>
      <trkpt lat="45.75056" lon="6.49603">
        <ele>1652</ele>
        <time>2022-07-24T05:07:23Z</time>
      </trkpt>
      <trkpt lat="45.75056" lon="6.49603">
        <ele>1653</ele>
        <time>2022-07-24T05:07:24Z</time>
      </trkpt>
      <trkpt lat="45.75057" lon="6.49603">
        <ele>1653</ele>
        <time>2022-07-24T05:07:25Z</time>
      </trkpt>
      <trkpt lat="45.75057" lon="6.49604">
        <ele>1653</ele>
        <time>2022-07-24T05:07:26Z</time>
      </trkpt>
      <trkpt lat="45.75058" lon="6.49604">
        <ele>1653</ele>
        <time>2022-07-24T05:07:27Z</time>
      </trkpt>
      <trkpt lat="45.75058" lon="6.49604">
        <ele>1653</ele>
        <time>2022-07-24T05:07:28Z</time>
      </trkpt>
      <trkpt lat="45.75059" lon="6.49603">
        <ele>1653</ele>
        <time>2022-07-24T05:07:29Z</time>
      </trkpt>
      <trkpt lat="45.75059" lon="6.49603">
        <ele>1653</ele>
        <time>2022-07-24T05:07:30Z</time>
      </trkpt>
      <trkpt lat="45.7506" lon="6.49603">
        <ele>1653</ele>
        <time>2022-07-24T05:07:31Z</time>
      </trkpt>
      <trkpt lat="45.7506" lon="6.49603">
        <ele>1653</ele>
        <time>2022-07-24T05:07:32Z</time>
      </trkpt>
      <trkpt lat="45.75061" lon="6.49602">
        <ele>1656</ele>
        <time>2022-07-24T05:08:14Z</time>
      </trkpt>
      <trkpt lat="45.75062" lon="6.49601">
        <ele>1656</ele>
        <time>2022-07-24T05:08:15Z</time>
      </trkpt>
      <trkpt lat="45.75063" lon="6.49601">
        <ele>1656</ele>
        <time>2022-07-24T05:08:16Z</time>
      </trkpt>
      <trkpt lat="45.75064" lon="6.49601">
        <ele>1656</ele>
        <time>2022-07-24T05:08:17Z</time>
      </trkpt>
      <trkpt lat="45.75065" lon="6.496">
        <ele>1656</ele>
        <time>2022-07-24T05:08:18Z</time>
      </trkpt>
      <trkpt lat="45.75067" lon="6.49602">
        <ele>1656</ele>
        <time>2022-07-24T05:09:02Z</time>
      </trkpt>
      <trkpt lat="45.75067" lon="6.49603">
        <ele>1656</ele>
        <time>2022-07-24T05:09:03Z</time>
      </trkpt>
      <trkpt lat="45.75068" lon="6.49604">
        <ele>1656</ele>
        <time>2022-07-24T05:09:04Z</time>
      </trkpt>
      <trkpt lat="45.75069" lon="6.49604">
        <ele>1656</ele>
        <time>2022-07-24T05:09:05Z</time>
      </trkpt>
      <trkpt lat="45.7507" lon="6.49604">
        <ele>1656</ele>
        <time>2022-07-24T05:09:06Z</time>
      </trkpt>
      <trkpt lat="45.75071" lon="6.49604">
        <ele>1656</ele>
        <time>2022-07-24T05:09:07Z</time>
      </trkpt>
      <trkpt lat="45.75072" lon="6.49604">
        <ele>1656</ele>
        <time>2022-07-24T05:09:08Z</time>
      </trkpt>
      <trkpt lat="45.75073" lon="6.49604">
        <ele>1656</ele>
        <time>2022-07-24T05:09:09Z</time>
      </trkpt>
      <trkpt lat="45.75074" lon="6.49604">
        <ele>1656</ele>
        <time>2022-07-24T05:09:10Z</time>
      </trkpt>
      <trkpt lat="45.75075" lon="6.49603">
        <ele>1656</ele>
        <time>2022-07-24T05:09:11Z</time>
      </trkpt>
      <trkpt lat="45.75076" lon="6.49603">
        <ele>1656</ele>
        <time>2022-07-24T05:09:12Z</time>
      </trkpt>
      <trkpt lat="45.75078" lon="6.49603">
        <ele>1656</ele>
        <time>2022-07-24T05:09:13Z</time>
      </trkpt>
      <trkpt lat="45.75079" lon="6.49603">
        <ele>1656</ele>
        <time>2022-07-24T05:09:14Z</time>
      </trkpt>
      <trkpt lat="45.7508" lon="6.49603">
        <ele>1656</ele>
        <time>2022-07-24T05:09:15Z</time>
      </trkpt>
      <trkpt lat="45.75081" lon="6.49602">
        <ele>1656</ele>
        <time>2022-07-24T05:09:16Z</time>
      </trkpt>
      <trkpt lat="45.75082" lon="6.49602">
        <ele>1656</ele>
        <time>2022-07-24T05:09:17Z</time>
      </trkpt>
      <trkpt lat="45.75083" lon="6.49602">
        <ele>1656</ele>
        <time>2022-07-24T05:09:18Z</time>
      </trkpt>
      <trkpt lat="45.75084" lon="6.49602">
        <ele>1656</ele>
        <time>2022-07-24T05:09:19Z</time>
      </trkpt>
      <trkpt lat="45.75085" lon="6.49602">
        <ele>1656</ele>
        <time>2022-07-24T05:09:20Z</time>
      </trkpt>
      <trkpt lat="45.75086" lon="6.49602">
        <ele>1656</ele>
        <time>2022-07-24T05:09:21Z</time>
      </trkpt>
      <trkpt lat="45.75087" lon="6.49602">
        <ele>1656</ele>
        <time>2022-07-24T05:09:22Z</time>
      </trkpt>
      <trkpt lat="45.75088" lon="6.49602">
        <ele>1656</ele>
        <time>2022-07-24T05:09:23Z</time>
      </trkpt>
      <trkpt lat="45.75089" lon="6.49602">
        <ele>1656</ele>
        <time>2022-07-24T05:09:24Z</time>
      </trkpt>
      <trkpt lat="45.7509" lon="6.49602">
        <ele>1656</ele>
        <time>2022-07-24T05:09:25Z</time>
      </trkpt>
      <trkpt lat="45.75091" lon="6.49603">
        <ele>1656</ele>
        <time>2022-07-24T05:09:26Z</time>
      </trkpt>
      <trkpt lat="45.75092" lon="6.49603">
        <ele>1656</ele>
        <time>2022-07-24T05:09:27Z</time>
      </trkpt>
      <trkpt lat="45.75093" lon="6.49603">
        <ele>1656</ele>
        <time>2022-07-24T05:09:28Z</time>
      </trkpt>
      <trkpt lat="45.75094" lon="6.49604">
        <ele>1656</ele>
        <time>2022-07-24T05:09:29Z</time>
      </trkpt>
      <trkpt lat="45.75094" lon="6.49604">
        <ele>1656</ele>
        <time>2022-07-24T05:09:30Z</time>
      </trkpt>
      <trkpt lat="45.75095" lon="6.49605">
        <ele>1656</ele>
        <time>2022-07-24T05:09:31Z</time>
      </trkpt>
      <trkpt lat="45.75096" lon="6.49605">
        <ele>1656</ele>
        <time>2022-07-24T05:09:32Z</time>
      </trkpt>
      <trkpt lat="45.75097" lon="6.49606">
        <ele>1656</ele>
        <time>2022-07-24T05:09:33Z</time>
      </trkpt>
      <trkpt lat="45.75098" lon="6.49606">
        <ele>1656</ele>
        <time>2022-07-24T05:09:34Z</time>
      </trkpt>
      <trkpt lat="45.75099" lon="6.49607">
        <ele>1656</ele>
        <time>2022-07-24T05:09:35Z</time>
      </trkpt>
      <trkpt lat="45.751" lon="6.49607">
        <ele>1656</ele>
        <time>2022-07-24T05:09:36Z</time>
      </trkpt>
      <trkpt lat="45.75101" lon="6.49608">
        <ele>1656</ele>
        <time>2022-07-24T05:09:37Z</time>
      </trkpt>
      <trkpt lat="45.75102" lon="6.49608">
        <ele>1656</ele>
        <time>2022-07-24T05:09:38Z</time>
      </trkpt>
      <trkpt lat="45.75103" lon="6.49609">
        <ele>1657</ele>
        <time>2022-07-24T05:09:39Z</time>
      </trkpt>
      <trkpt lat="45.75103" lon="6.49609">
        <ele>1657</ele>
        <time>2022-07-24T05:09:40Z</time>
      </trkpt>
      <trkpt lat="45.75104" lon="6.49609">
        <ele>1657</ele>
        <time>2022-07-24T05:09:41Z</time>
      </trkpt>
      <trkpt lat="45.75105" lon="6.4961">
        <ele>1657</ele>
        <time>2022-07-24T05:09:42Z</time>
      </trkpt>
      <trkpt lat="45.75106" lon="6.4961">
        <ele>1657</ele>
        <time>2022-07-24T05:09:43Z</time>
      </trkpt>
      <trkpt lat="45.75107" lon="6.49611">
        <ele>1657</ele>
        <time>2022-07-24T05:09:44Z</time>
      </trkpt>
      <trkpt lat="45.75108" lon="6.49611">
        <ele>1657</ele>
        <time>2022-07-24T05:09:45Z</time>
      </trkpt>
      <trkpt lat="45.75109" lon="6.49611">
        <ele>1657</ele>
        <time>2022-07-24T05:09:46Z</time>
      </trkpt>
      <trkpt lat="45.7511" lon="6.49611">
        <ele>1657</ele>
        <time>2022-07-24T05:09:47Z</time>
      </trkpt>
      <trkpt lat="45.75111" lon="6.49612">
        <ele>1657</ele>
        <time>2022-07-24T05:09:48Z</time>
      </trkpt>
      <trkpt lat="45.75112" lon="6.49612">
        <ele>1657</ele>
        <time>2022-07-24T05:09:49Z</time>
      </trkpt>
      <trkpt lat="45.75112" lon="6.49612">
        <ele>1657</ele>
        <time>2022-07-24T05:09:50Z</time>
      </trkpt>
      <trkpt lat="45.75113" lon="6.49612">
        <ele>1657</ele>
        <time>2022-07-24T05:09:51Z</time>
      </trkpt>
      <trkpt lat="45.75114" lon="6.49612">
        <ele>1657</ele>
        <time>2022-07-24T05:09:52Z</time>
      </trkpt>
      <trkpt lat="45.75115" lon="6.49613">
        <ele>1657</ele>
        <time>2022-07-24T05:09:53Z</time>
      </trkpt>
      <trkpt lat="45.75115" lon="6.49613">
        <ele>1658</ele>
        <time>2022-07-24T05:09:54Z</time>
      </trkpt>
      <trkpt lat="45.75116" lon="6.49614">
        <ele>1658</ele>
        <time>2022-07-24T05:09:55Z</time>
      </trkpt>
      <trkpt lat="45.75117" lon="6.49614">
        <ele>1658</ele>
        <time>2022-07-24T05:09:56Z</time>
      </trkpt>
      <trkpt lat="45.75118" lon="6.49615">
        <ele>1658</ele>
        <time>2022-07-24T05:09:57Z</time>
      </trkpt>
      <trkpt lat="45.75118" lon="6.49615">
        <ele>1658</ele>
        <time>2022-07-24T05:09:58Z</time>
      </trkpt>
      <trkpt lat="45.75119" lon="6.49616">
        <ele>1658</ele>
        <time>2022-07-24T05:09:59Z</time>
      </trkpt>
      <trkpt lat="45.7512" lon="6.49616">
        <ele>1658</ele>
        <time>2022-07-24T05:10:00Z</time>
      </trkpt>
      <trkpt lat="45.75121" lon="6.49617">
        <ele>1658</ele>
        <time>2022-07-24T05:10:01Z</time>
      </trkpt>
      <trkpt lat="45.75121" lon="6.49617">
        <ele>1658</ele>
        <time>2022-07-24T05:10:02Z</time>
      </trkpt>
      <trkpt lat="45.75122" lon="6.49618">
        <ele>1658</ele>
        <time>2022-07-24T05:10:03Z</time>
      </trkpt>
      <trkpt lat="45.75123" lon="6.49618">
        <ele>1659</ele>
        <time>2022-07-24T05:10:04Z</time>
      </trkpt>
      <trkpt lat="45.75123" lon="6.49619">
        <ele>1659</ele>
        <time>2022-07-24T05:10:05Z</time>
      </trkpt>
      <trkpt lat="45.75124" lon="6.4962">
        <ele>1659</ele>
        <time>2022-07-24T05:10:06Z</time>
      </trkpt>
      <trkpt lat="45.75125" lon="6.49621">
        <ele>1659</ele>
        <time>2022-07-24T05:10:07Z</time>
      </trkpt>
      <trkpt lat="45.75126" lon="6.49622">
        <ele>1659</ele>
        <time>2022-07-24T05:10:08Z</time>
      </trkpt>
      <trkpt lat="45.75126" lon="6.49623">
        <ele>1659</ele>
        <time>2022-07-24T05:10:09Z</time>
      </trkpt>
      <trkpt lat="45.75127" lon="6.49624">
        <ele>1659</ele>
        <time>2022-07-24T05:10:10Z</time>
      </trkpt>
      <trkpt lat="45.75128" lon="6.49624">
        <ele>1659</ele>
        <time>2022-07-24T05:10:11Z</time>
      </trkpt>
      <trkpt lat="45.75128" lon="6.49625">
        <ele>1659</ele>
        <time>2022-07-24T05:10:12Z</time>
      </trkpt>
      <trkpt lat="45.75129" lon="6.49626">
        <ele>1659</ele>
        <time>2022-07-24T05:10:13Z</time>
      </trkpt>
      <trkpt lat="45.75129" lon="6.49627">
        <ele>1660</ele>
        <time>2022-07-24T05:10:14Z</time>
      </trkpt>
      <trkpt lat="45.7513" lon="6.49628">
        <ele>1660</ele>
        <time>2022-07-24T05:10:15Z</time>
      </trkpt>
      <trkpt lat="45.7513" lon="6.49629">
        <ele>1660</ele>
        <time>2022-07-24T05:10:16Z</time>
      </trkpt>
      <trkpt lat="45.75131" lon="6.49629">
        <ele>1660</ele>
        <time>2022-07-24T05:10:17Z</time>
      </trkpt>
      <trkpt lat="45.75131" lon="6.4963">
        <ele>1660</ele>
        <time>2022-07-24T05:10:18Z</time>
      </trkpt>
      <trkpt lat="45.75132" lon="6.49631">
        <ele>1660</ele>
        <time>2022-07-24T05:10:19Z</time>
      </trkpt>
      <trkpt lat="45.75133" lon="6.49632">
        <ele>1660</ele>
        <time>2022-07-24T05:10:20Z</time>
      </trkpt>
      <trkpt lat="45.75133" lon="6.49632">
        <ele>1660</ele>
        <time>2022-07-24T05:10:21Z</time>
      </trkpt>
      <trkpt lat="45.75134" lon="6.49633">
        <ele>1660</ele>
        <time>2022-07-24T05:10:22Z</time>
      </trkpt>
      <trkpt lat="45.75134" lon="6.49634">
        <ele>1660</ele>
        <time>2022-07-24T05:10:23Z</time>
      </trkpt>
      <trkpt lat="45.75135" lon="6.49634">
        <ele>1661</ele>
        <time>2022-07-24T05:10:24Z</time>
      </trkpt>
      <trkpt lat="45.75135" lon="6.49635">
        <ele>1661</ele>
        <time>2022-07-24T05:10:25Z</time>
      </trkpt>
      <trkpt lat="45.75136" lon="6.49636">
        <ele>1661</ele>
        <time>2022-07-24T05:10:26Z</time>
      </trkpt>
      <trkpt lat="45.75137" lon="6.49637">
        <ele>1661</ele>
        <time>2022-07-24T05:10:27Z</time>
      </trkpt>
      <trkpt lat="45.75137" lon="6.49638">
        <ele>1661</ele>
        <time>2022-07-24T05:10:28Z</time>
      </trkpt>
      <trkpt lat="45.75138" lon="6.49639">
        <ele>1661</ele>
        <time>2022-07-24T05:10:29Z</time>
      </trkpt>
      <trkpt lat="45.75138" lon="6.4964">
        <ele>1661</ele>
        <time>2022-07-24T05:10:30Z</time>
      </trkpt>
      <trkpt lat="45.75139" lon="6.49641">
        <ele>1661</ele>
        <time>2022-07-24T05:10:31Z</time>
      </trkpt>
      <trkpt lat="45.75139" lon="6.49642">
        <ele>1662</ele>
        <time>2022-07-24T05:10:32Z</time>
      </trkpt>
      <trkpt lat="45.7514" lon="6.49643">
        <ele>1662</ele>
        <time>2022-07-24T05:10:33Z</time>
      </trkpt>
      <trkpt lat="45.7514" lon="6.49643">
        <ele>1663</ele>
        <time>2022-07-24T05:10:34Z</time>
      </trkpt>
      <trkpt lat="45.75141" lon="6.49644">
        <ele>1663</ele>
        <time>2022-07-24T05:10:35Z</time>
      </trkpt>
      <trkpt lat="45.75141" lon="6.49645">
        <ele>1663</ele>
        <time>2022-07-24T05:10:36Z</time>
      </trkpt>
      <trkpt lat="45.75142" lon="6.49646">
        <ele>1663</ele>
        <time>2022-07-24T05:10:37Z</time>
      </trkpt>
      <trkpt lat="45.75142" lon="6.49647">
        <ele>1663</ele>
        <time>2022-07-24T05:10:38Z</time>
      </trkpt>
      <trkpt lat="45.75142" lon="6.49648">
        <ele>1663</ele>
        <time>2022-07-24T05:10:39Z</time>
      </trkpt>
      <trkpt lat="45.75143" lon="6.49649">
        <ele>1663</ele>
        <time>2022-07-24T05:10:40Z</time>
      </trkpt>
      <trkpt lat="45.75143" lon="6.4965">
        <ele>1663</ele>
        <time>2022-07-24T05:10:41Z</time>
      </trkpt>
      <trkpt lat="45.75144" lon="6.49651">
        <ele>1663</ele>
        <time>2022-07-24T05:10:42Z</time>
      </trkpt>
      <trkpt lat="45.75144" lon="6.49651">
        <ele>1663</ele>
        <time>2022-07-24T05:10:43Z</time>
      </trkpt>
      <trkpt lat="45.75145" lon="6.49652">
        <ele>1664</ele>
        <time>2022-07-24T05:10:44Z</time>
      </trkpt>
      <trkpt lat="45.75145" lon="6.49653">
        <ele>1664</ele>
        <time>2022-07-24T05:10:45Z</time>
      </trkpt>
      <trkpt lat="45.75146" lon="6.49654">
        <ele>1664</ele>
        <time>2022-07-24T05:10:46Z</time>
      </trkpt>
      <trkpt lat="45.75146" lon="6.49655">
        <ele>1664</ele>
        <time>2022-07-24T05:10:47Z</time>
      </trkpt>
      <trkpt lat="45.75147" lon="6.49655">
        <ele>1664</ele>
        <time>2022-07-24T05:10:48Z</time>
      </trkpt>
      <trkpt lat="45.75147" lon="6.49656">
        <ele>1664</ele>
        <time>2022-07-24T05:10:49Z</time>
      </trkpt>
      <trkpt lat="45.75148" lon="6.49657">
        <ele>1664</ele>
        <time>2022-07-24T05:10:50Z</time>
      </trkpt>
      <trkpt lat="45.75148" lon="6.49657">
        <ele>1664</ele>
        <time>2022-07-24T05:10:51Z</time>
      </trkpt>
      <trkpt lat="45.75149" lon="6.49658">
        <ele>1664</ele>
        <time>2022-07-24T05:10:52Z</time>
      </trkpt>
      <trkpt lat="45.75149" lon="6.49659">
        <ele>1664</ele>
        <time>2022-07-24T05:10:53Z</time>
      </trkpt>
      <trkpt lat="45.7515" lon="6.49659">
        <ele>1665</ele>
        <time>2022-07-24T05:10:54Z</time>
      </trkpt>
      <trkpt lat="45.75151" lon="6.4966">
        <ele>1665</ele>
        <time>2022-07-24T05:10:55Z</time>
      </trkpt>
      <trkpt lat="45.75151" lon="6.49661">
        <ele>1665</ele>
        <time>2022-07-24T05:10:56Z</time>
      </trkpt>
      <trkpt lat="45.75152" lon="6.49661">
        <ele>1665</ele>
        <time>2022-07-24T05:10:57Z</time>
      </trkpt>
      <trkpt lat="45.75153" lon="6.49662">
        <ele>1665</ele>
        <time>2022-07-24T05:10:58Z</time>
      </trkpt>
      <trkpt lat="45.75153" lon="6.49663">
        <ele>1665</ele>
        <time>2022-07-24T05:10:59Z</time>
      </trkpt>
      <trkpt lat="45.75154" lon="6.49663">
        <ele>1665</ele>
        <time>2022-07-24T05:11:00Z</time>
      </trkpt>
      <trkpt lat="45.75155" lon="6.49664">
        <ele>1665</ele>
        <time>2022-07-24T05:11:01Z</time>
      </trkpt>
      <trkpt lat="45.75155" lon="6.49664">
        <ele>1665</ele>
        <time>2022-07-24T05:11:02Z</time>
      </trkpt>
      <trkpt lat="45.75156" lon="6.49665">
        <ele>1665</ele>
        <time>2022-07-24T05:11:03Z</time>
      </trkpt>
      <trkpt lat="45.75157" lon="6.49666">
        <ele>1666</ele>
        <time>2022-07-24T05:11:04Z</time>
      </trkpt>
      <trkpt lat="45.75157" lon="6.49666">
        <ele>1666</ele>
        <time>2022-07-24T05:11:05Z</time>
      </trkpt>
      <trkpt lat="45.75158" lon="6.49667">
        <ele>1666</ele>
        <time>2022-07-24T05:11:06Z</time>
      </trkpt>
      <trkpt lat="45.75159" lon="6.49667">
        <ele>1666</ele>
        <time>2022-07-24T05:11:07Z</time>
      </trkpt>
      <trkpt lat="45.7516" lon="6.49668">
        <ele>1666</ele>
        <time>2022-07-24T05:11:08Z</time>
      </trkpt>
      <trkpt lat="45.7516" lon="6.49669">
        <ele>1666</ele>
        <time>2022-07-24T05:11:09Z</time>
      </trkpt>
      <trkpt lat="45.75161" lon="6.49669">
        <ele>1666</ele>
        <time>2022-07-24T05:11:10Z</time>
      </trkpt>
      <trkpt lat="45.75162" lon="6.4967">
        <ele>1666</ele>
        <time>2022-07-24T05:11:11Z</time>
      </trkpt>
      <trkpt lat="45.75163" lon="6.49671">
        <ele>1666</ele>
        <time>2022-07-24T05:11:12Z</time>
      </trkpt>
      <trkpt lat="45.75164" lon="6.49671">
        <ele>1666</ele>
        <time>2022-07-24T05:11:13Z</time>
      </trkpt>
      <trkpt lat="45.75165" lon="6.49672">
        <ele>1666</ele>
        <time>2022-07-24T05:11:14Z</time>
      </trkpt>
      <trkpt lat="45.75165" lon="6.49672">
        <ele>1666</ele>
        <time>2022-07-24T05:11:15Z</time>
      </trkpt>
      <trkpt lat="45.75166" lon="6.49672">
        <ele>1666</ele>
        <time>2022-07-24T05:11:16Z</time>
      </trkpt>
      <trkpt lat="45.75167" lon="6.49673">
        <ele>1666</ele>
        <time>2022-07-24T05:11:17Z</time>
      </trkpt>
      <trkpt lat="45.75168" lon="6.49673">
        <ele>1666</ele>
        <time>2022-07-24T05:11:18Z</time>
      </trkpt>
      <trkpt lat="45.75168" lon="6.49674">
        <ele>1667</ele>
        <time>2022-07-24T05:11:19Z</time>
      </trkpt>
      <trkpt lat="45.75169" lon="6.49675">
        <ele>1667</ele>
        <time>2022-07-24T05:11:20Z</time>
      </trkpt>
      <trkpt lat="45.7517" lon="6.49675">
        <ele>1667</ele>
        <time>2022-07-24T05:11:21Z</time>
      </trkpt>
      <trkpt lat="45.75171" lon="6.49676">
        <ele>1667</ele>
        <time>2022-07-24T05:11:22Z</time>
      </trkpt>
      <trkpt lat="45.75171" lon="6.49677">
        <ele>1667</ele>
        <time>2022-07-24T05:11:23Z</time>
      </trkpt>
      <trkpt lat="45.75172" lon="6.49677">
        <ele>1667</ele>
        <time>2022-07-24T05:11:24Z</time>
      </trkpt>
      <trkpt lat="45.75173" lon="6.49678">
        <ele>1667</ele>
        <time>2022-07-24T05:11:25Z</time>
      </trkpt>
      <trkpt lat="45.75174" lon="6.49679">
        <ele>1667</ele>
        <time>2022-07-24T05:11:26Z</time>
      </trkpt>
      <trkpt lat="45.75175" lon="6.4968">
        <ele>1667</ele>
        <time>2022-07-24T05:11:27Z</time>
      </trkpt>
      <trkpt lat="45.75176" lon="6.4968">
        <ele>1667</ele>
        <time>2022-07-24T05:11:28Z</time>
      </trkpt>
      <trkpt lat="45.75177" lon="6.49681">
        <ele>1668</ele>
        <time>2022-07-24T05:11:29Z</time>
      </trkpt>
      <trkpt lat="45.75177" lon="6.49682">
        <ele>1668</ele>
        <time>2022-07-24T05:11:30Z</time>
      </trkpt>
      <trkpt lat="45.75178" lon="6.49682">
        <ele>1668</ele>
        <time>2022-07-24T05:11:31Z</time>
      </trkpt>
      <trkpt lat="45.75179" lon="6.49683">
        <ele>1668</ele>
        <time>2022-07-24T05:11:32Z</time>
      </trkpt>
      <trkpt lat="45.7518" lon="6.49683">
        <ele>1668</ele>
        <time>2022-07-24T05:11:33Z</time>
      </trkpt>
      <trkpt lat="45.75181" lon="6.49684">
        <ele>1668</ele>
        <time>2022-07-24T05:11:34Z</time>
      </trkpt>
      <trkpt lat="45.75182" lon="6.49685">
        <ele>1668</ele>
        <time>2022-07-24T05:11:35Z</time>
      </trkpt>
      <trkpt lat="45.75183" lon="6.49686">
        <ele>1668</ele>
        <time>2022-07-24T05:11:36Z</time>
      </trkpt>
      <trkpt lat="45.75184" lon="6.49687">
        <ele>1668</ele>
        <time>2022-07-24T05:11:37Z</time>
      </trkpt>
      <trkpt lat="45.75185" lon="6.49688">
        <ele>1668</ele>
        <time>2022-07-24T05:11:38Z</time>
      </trkpt>
      <trkpt lat="45.75186" lon="6.49689">
        <ele>1668</ele>
        <time>2022-07-24T05:11:39Z</time>
      </trkpt>
      <trkpt lat="45.75187" lon="6.4969">
        <ele>1667</ele>
        <time>2022-07-24T05:11:40Z</time>
      </trkpt>
      <trkpt lat="45.75188" lon="6.49691">
        <ele>1667</ele>
        <time>2022-07-24T05:11:41Z</time>
      </trkpt>
      <trkpt lat="45.75189" lon="6.49692">
        <ele>1667</ele>
        <time>2022-07-24T05:11:42Z</time>
      </trkpt>
      <trkpt lat="45.7519" lon="6.49693">
        <ele>1667</ele>
        <time>2022-07-24T05:11:43Z</time>
      </trkpt>
      <trkpt lat="45.75191" lon="6.49694">
        <ele>1667</ele>
        <time>2022-07-24T05:11:44Z</time>
      </trkpt>
      <trkpt lat="45.75192" lon="6.49695">
        <ele>1667</ele>
        <time>2022-07-24T05:11:45Z</time>
      </trkpt>
      <trkpt lat="45.75192" lon="6.49696">
        <ele>1667</ele>
        <time>2022-07-24T05:11:46Z</time>
      </trkpt>
      <trkpt lat="45.75193" lon="6.49697">
        <ele>1667</ele>
        <time>2022-07-24T05:11:47Z</time>
      </trkpt>
      <trkpt lat="45.75194" lon="6.49698">
        <ele>1667</ele>
        <time>2022-07-24T05:11:48Z</time>
      </trkpt>
      <trkpt lat="45.75195" lon="6.49699">
        <ele>1668</ele>
        <time>2022-07-24T05:11:49Z</time>
      </trkpt>
      <trkpt lat="45.75196" lon="6.497">
        <ele>1668</ele>
        <time>2022-07-24T05:11:50Z</time>
      </trkpt>
      <trkpt lat="45.75196" lon="6.497">
        <ele>1668</ele>
        <time>2022-07-24T05:11:51Z</time>
      </trkpt>
      <trkpt lat="45.75197" lon="6.49701">
        <ele>1668</ele>
        <time>2022-07-24T05:11:52Z</time>
      </trkpt>
      <trkpt lat="45.75198" lon="6.49702">
        <ele>1668</ele>
        <time>2022-07-24T05:11:53Z</time>
      </trkpt>
      <trkpt lat="45.75199" lon="6.49703">
        <ele>1668</ele>
        <time>2022-07-24T05:11:54Z</time>
      </trkpt>
      <trkpt lat="45.75199" lon="6.49704">
        <ele>1668</ele>
        <time>2022-07-24T05:11:55Z</time>
      </trkpt>
      <trkpt lat="45.752" lon="6.49705">
        <ele>1668</ele>
        <time>2022-07-24T05:11:56Z</time>
      </trkpt>
      <trkpt lat="45.752" lon="6.49706">
        <ele>1668</ele>
        <time>2022-07-24T05:11:57Z</time>
      </trkpt>
      <trkpt lat="45.75201" lon="6.49707">
        <ele>1668</ele>
        <time>2022-07-24T05:11:58Z</time>
      </trkpt>
      <trkpt lat="45.75201" lon="6.49708">
        <ele>1668</ele>
        <time>2022-07-24T05:11:59Z</time>
      </trkpt>
      <trkpt lat="45.75201" lon="6.49709">
        <ele>1668</ele>
        <time>2022-07-24T05:12:00Z</time>
      </trkpt>
      <trkpt lat="45.75202" lon="6.4971">
        <ele>1668</ele>
        <time>2022-07-24T05:12:01Z</time>
      </trkpt>
      <trkpt lat="45.75202" lon="6.49711">
        <ele>1668</ele>
        <time>2022-07-24T05:12:02Z</time>
      </trkpt>
      <trkpt lat="45.75202" lon="6.49712">
        <ele>1668</ele>
        <time>2022-07-24T05:12:03Z</time>
      </trkpt>
      <trkpt lat="45.75203" lon="6.49713">
        <ele>1669</ele>
        <time>2022-07-24T05:12:04Z</time>
      </trkpt>
      <trkpt lat="45.75203" lon="6.49714">
        <ele>1669</ele>
        <time>2022-07-24T05:12:05Z</time>
      </trkpt>
      <trkpt lat="45.75203" lon="6.49715">
        <ele>1669</ele>
        <time>2022-07-24T05:12:06Z</time>
      </trkpt>
      <trkpt lat="45.75203" lon="6.49716">
        <ele>1669</ele>
        <time>2022-07-24T05:12:07Z</time>
      </trkpt>
      <trkpt lat="45.75204" lon="6.49717">
        <ele>1669</ele>
        <time>2022-07-24T05:12:08Z</time>
      </trkpt>
      <trkpt lat="45.75204" lon="6.49718">
        <ele>1669</ele>
        <time>2022-07-24T05:12:09Z</time>
      </trkpt>
      <trkpt lat="45.75204" lon="6.4972">
        <ele>1669</ele>
        <time>2022-07-24T05:12:10Z</time>
      </trkpt>
      <trkpt lat="45.75204" lon="6.49721">
        <ele>1669</ele>
        <time>2022-07-24T05:12:11Z</time>
      </trkpt>
      <trkpt lat="45.75205" lon="6.49722">
        <ele>1669</ele>
        <time>2022-07-24T05:12:12Z</time>
      </trkpt>
      <trkpt lat="45.75205" lon="6.49723">
        <ele>1669</ele>
        <time>2022-07-24T05:12:13Z</time>
      </trkpt>
      <trkpt lat="45.75206" lon="6.49724">
        <ele>1670</ele>
        <time>2022-07-24T05:12:14Z</time>
      </trkpt>
      <trkpt lat="45.75206" lon="6.49725">
        <ele>1670</ele>
        <time>2022-07-24T05:12:15Z</time>
      </trkpt>
      <trkpt lat="45.75206" lon="6.49726">
        <ele>1670</ele>
        <time>2022-07-24T05:12:16Z</time>
      </trkpt>
      <trkpt lat="45.75207" lon="6.49727">
        <ele>1670</ele>
        <time>2022-07-24T05:12:17Z</time>
      </trkpt>
      <trkpt lat="45.75207" lon="6.49729">
        <ele>1670</ele>
        <time>2022-07-24T05:12:18Z</time>
      </trkpt>
      <trkpt lat="45.75207" lon="6.4973">
        <ele>1670</ele>
        <time>2022-07-24T05:12:19Z</time>
      </trkpt>
      <trkpt lat="45.75207" lon="6.49731">
        <ele>1670</ele>
        <time>2022-07-24T05:12:20Z</time>
      </trkpt>
      <trkpt lat="45.75208" lon="6.49731">
        <ele>1670</ele>
        <time>2022-07-24T05:12:21Z</time>
      </trkpt>
      <trkpt lat="45.75208" lon="6.49732">
        <ele>1670</ele>
        <time>2022-07-24T05:12:22Z</time>
      </trkpt>
      <trkpt lat="45.75208" lon="6.49733">
        <ele>1670</ele>
        <time>2022-07-24T05:12:23Z</time>
      </trkpt>
      <trkpt lat="45.75208" lon="6.49733">
        <ele>1671</ele>
        <time>2022-07-24T05:12:24Z</time>
      </trkpt>
      <trkpt lat="45.75208" lon="6.49734">
        <ele>1671</ele>
        <time>2022-07-24T05:12:25Z</time>
      </trkpt>
      <trkpt lat="45.75209" lon="6.49735">
        <ele>1671</ele>
        <time>2022-07-24T05:12:26Z</time>
      </trkpt>
      <trkpt lat="45.75209" lon="6.49736">
        <ele>1671</ele>
        <time>2022-07-24T05:12:27Z</time>
      </trkpt>
      <trkpt lat="45.75209" lon="6.49737">
        <ele>1671</ele>
        <time>2022-07-24T05:12:28Z</time>
      </trkpt>
      <trkpt lat="45.7521" lon="6.49738">
        <ele>1671</ele>
        <time>2022-07-24T05:12:29Z</time>
      </trkpt>
      <trkpt lat="45.7521" lon="6.49739">
        <ele>1671</ele>
        <time>2022-07-24T05:12:30Z</time>
      </trkpt>
      <trkpt lat="45.7521" lon="6.49741">
        <ele>1671</ele>
        <time>2022-07-24T05:12:31Z</time>
      </trkpt>
      <trkpt lat="45.7521" lon="6.49742">
        <ele>1671</ele>
        <time>2022-07-24T05:12:32Z</time>
      </trkpt>
      <trkpt lat="45.7521" lon="6.49743">
        <ele>1671</ele>
        <time>2022-07-24T05:12:33Z</time>
      </trkpt>
      <trkpt lat="45.7521" lon="6.49744">
        <ele>1671</ele>
        <time>2022-07-24T05:12:34Z</time>
      </trkpt>
      <trkpt lat="45.75211" lon="6.49746">
        <ele>1671</ele>
        <time>2022-07-24T05:12:35Z</time>
      </trkpt>
      <trkpt lat="45.75211" lon="6.49747">
        <ele>1671</ele>
        <time>2022-07-24T05:12:36Z</time>
      </trkpt>
      <trkpt lat="45.75211" lon="6.49748">
        <ele>1671</ele>
        <time>2022-07-24T05:12:37Z</time>
      </trkpt>
      <trkpt lat="45.75212" lon="6.49749">
        <ele>1671</ele>
        <time>2022-07-24T05:12:38Z</time>
      </trkpt>
      <trkpt lat="45.75212" lon="6.49751">
        <ele>1671</ele>
        <time>2022-07-24T05:12:39Z</time>
      </trkpt>
      <trkpt lat="45.75212" lon="6.49752">
        <ele>1671</ele>
        <time>2022-07-24T05:12:40Z</time>
      </trkpt>
      <trkpt lat="45.75213" lon="6.49753">
        <ele>1671</ele>
        <time>2022-07-24T05:12:41Z</time>
      </trkpt>
      <trkpt lat="45.75213" lon="6.49755">
        <ele>1671</ele>
        <time>2022-07-24T05:12:42Z</time>
      </trkpt>
      <trkpt lat="45.75213" lon="6.49756">
        <ele>1671</ele>
        <time>2022-07-24T05:12:43Z</time>
      </trkpt>
      <trkpt lat="45.75213" lon="6.49757">
        <ele>1671</ele>
        <time>2022-07-24T05:12:44Z</time>
      </trkpt>
      <trkpt lat="45.75213" lon="6.49758">
        <ele>1671</ele>
        <time>2022-07-24T05:12:45Z</time>
      </trkpt>
      <trkpt lat="45.75214" lon="6.49759">
        <ele>1671</ele>
        <time>2022-07-24T05:12:46Z</time>
      </trkpt>
      <trkpt lat="45.75214" lon="6.4976">
        <ele>1671</ele>
        <time>2022-07-24T05:12:47Z</time>
      </trkpt>
      <trkpt lat="45.75214" lon="6.49761">
        <ele>1671</ele>
        <time>2022-07-24T05:12:48Z</time>
      </trkpt>
      <trkpt lat="45.75214" lon="6.49762">
        <ele>1671</ele>
        <time>2022-07-24T05:12:49Z</time>
      </trkpt>
      <trkpt lat="45.75215" lon="6.49763">
        <ele>1671</ele>
        <time>2022-07-24T05:12:50Z</time>
      </trkpt>
      <trkpt lat="45.75215" lon="6.49764">
        <ele>1671</ele>
        <time>2022-07-24T05:12:51Z</time>
      </trkpt>
      <trkpt lat="45.75215" lon="6.49765">
        <ele>1671</ele>
        <time>2022-07-24T05:12:52Z</time>
      </trkpt>
      <trkpt lat="45.75215" lon="6.49766">
        <ele>1671</ele>
        <time>2022-07-24T05:12:53Z</time>
      </trkpt>
      <trkpt lat="45.75216" lon="6.49767">
        <ele>1671</ele>
        <time>2022-07-24T05:12:54Z</time>
      </trkpt>
      <trkpt lat="45.75216" lon="6.49768">
        <ele>1671</ele>
        <time>2022-07-24T05:12:55Z</time>
      </trkpt>
      <trkpt lat="45.75216" lon="6.49769">
        <ele>1671</ele>
        <time>2022-07-24T05:12:56Z</time>
      </trkpt>
      <trkpt lat="45.75216" lon="6.4977">
        <ele>1671</ele>
        <time>2022-07-24T05:12:57Z</time>
      </trkpt>
      <trkpt lat="45.75216" lon="6.49771">
        <ele>1671</ele>
        <time>2022-07-24T05:12:58Z</time>
      </trkpt>
      <trkpt lat="45.75217" lon="6.49772">
        <ele>1671</ele>
        <time>2022-07-24T05:12:59Z</time>
      </trkpt>
      <trkpt lat="45.75217" lon="6.49773">
        <ele>1671</ele>
        <time>2022-07-24T05:13:00Z</time>
      </trkpt>
      <trkpt lat="45.75217" lon="6.49774">
        <ele>1671</ele>
        <time>2022-07-24T05:13:01Z</time>
      </trkpt>
      <trkpt lat="45.75217" lon="6.49775">
        <ele>1671</ele>
        <time>2022-07-24T05:13:02Z</time>
      </trkpt>
      <trkpt lat="45.75218" lon="6.49776">
        <ele>1671</ele>
        <time>2022-07-24T05:13:03Z</time>
      </trkpt>
      <trkpt lat="45.75218" lon="6.49777">
        <ele>1672</ele>
        <time>2022-07-24T05:13:04Z</time>
      </trkpt>
      <trkpt lat="45.75218" lon="6.49778">
        <ele>1672</ele>
        <time>2022-07-24T05:13:05Z</time>
      </trkpt>
      <trkpt lat="45.75218" lon="6.4978">
        <ele>1672</ele>
        <time>2022-07-24T05:13:06Z</time>
      </trkpt>
      <trkpt lat="45.75219" lon="6.49781">
        <ele>1672</ele>
        <time>2022-07-24T05:13:07Z</time>
      </trkpt>
      <trkpt lat="45.75219" lon="6.49782">
        <ele>1672</ele>
        <time>2022-07-24T05:13:08Z</time>
      </trkpt>
      <trkpt lat="45.75219" lon="6.49783">
        <ele>1672</ele>
        <time>2022-07-24T05:13:09Z</time>
      </trkpt>
      <trkpt lat="45.75219" lon="6.49784">
        <ele>1672</ele>
        <time>2022-07-24T05:13:10Z</time>
      </trkpt>
      <trkpt lat="45.75219" lon="6.49785">
        <ele>1672</ele>
        <time>2022-07-24T05:13:11Z</time>
      </trkpt>
      <trkpt lat="45.75219" lon="6.49786">
        <ele>1672</ele>
        <time>2022-07-24T05:13:12Z</time>
      </trkpt>
      <trkpt lat="45.7522" lon="6.49787">
        <ele>1672</ele>
        <time>2022-07-24T05:13:13Z</time>
      </trkpt>
      <trkpt lat="45.7522" lon="6.49788">
        <ele>1673</ele>
        <time>2022-07-24T05:13:14Z</time>
      </trkpt>
      <trkpt lat="45.7522" lon="6.49789">
        <ele>1673</ele>
        <time>2022-07-24T05:13:15Z</time>
      </trkpt>
      <trkpt lat="45.7522" lon="6.4979">
        <ele>1673</ele>
        <time>2022-07-24T05:13:16Z</time>
      </trkpt>
      <trkpt lat="45.7522" lon="6.49791">
        <ele>1673</ele>
        <time>2022-07-24T05:13:17Z</time>
      </trkpt>
      <trkpt lat="45.75221" lon="6.49793">
        <ele>1673</ele>
        <time>2022-07-24T05:13:18Z</time>
      </trkpt>
      <trkpt lat="45.75221" lon="6.49794">
        <ele>1674</ele>
        <time>2022-07-24T05:13:19Z</time>
      </trkpt>
      <trkpt lat="45.75221" lon="6.49795">
        <ele>1674</ele>
        <time>2022-07-24T05:13:20Z</time>
      </trkpt>
      <trkpt lat="45.75221" lon="6.49797">
        <ele>1674</ele>
        <time>2022-07-24T05:13:21Z</time>
      </trkpt>
      <trkpt lat="45.75222" lon="6.49798">
        <ele>1674</ele>
        <time>2022-07-24T05:13:22Z</time>
      </trkpt>
      <trkpt lat="45.75222" lon="6.498">
        <ele>1674</ele>
        <time>2022-07-24T05:13:23Z</time>
      </trkpt>
      <trkpt lat="45.75222" lon="6.49801">
        <ele>1674</ele>
        <time>2022-07-24T05:13:24Z</time>
      </trkpt>
      <trkpt lat="45.75223" lon="6.49803">
        <ele>1674</ele>
        <time>2022-07-24T05:13:25Z</time>
      </trkpt>
      <trkpt lat="45.75223" lon="6.49805">
        <ele>1674</ele>
        <time>2022-07-24T05:13:26Z</time>
      </trkpt>
      <trkpt lat="45.75223" lon="6.49806">
        <ele>1674</ele>
        <time>2022-07-24T05:13:27Z</time>
      </trkpt>
      <trkpt lat="45.75223" lon="6.49808">
        <ele>1674</ele>
        <time>2022-07-24T05:13:28Z</time>
      </trkpt>
      <trkpt lat="45.75223" lon="6.4981">
        <ele>1675</ele>
        <time>2022-07-24T05:13:29Z</time>
      </trkpt>
      <trkpt lat="45.75223" lon="6.49811">
        <ele>1676</ele>
        <time>2022-07-24T05:14:05Z</time>
      </trkpt>
      <trkpt lat="45.75224" lon="6.49812">
        <ele>1676</ele>
        <time>2022-07-24T05:14:06Z</time>
      </trkpt>
      <trkpt lat="45.75224" lon="6.49813">
        <ele>1676</ele>
        <time>2022-07-24T05:14:07Z</time>
      </trkpt>
      <trkpt lat="45.75224" lon="6.49814">
        <ele>1676</ele>
        <time>2022-07-24T05:14:08Z</time>
      </trkpt>
      <trkpt lat="45.75225" lon="6.49815">
        <ele>1676</ele>
        <time>2022-07-24T05:14:09Z</time>
      </trkpt>
      <trkpt lat="45.75225" lon="6.49816">
        <ele>1676</ele>
        <time>2022-07-24T05:14:10Z</time>
      </trkpt>
      <trkpt lat="45.75225" lon="6.49818">
        <ele>1676</ele>
        <time>2022-07-24T05:14:11Z</time>
      </trkpt>
      <trkpt lat="45.75226" lon="6.4982">
        <ele>1676</ele>
        <time>2022-07-24T05:14:12Z</time>
      </trkpt>
      <trkpt lat="45.75226" lon="6.49822">
        <ele>1676</ele>
        <time>2022-07-24T05:14:13Z</time>
      </trkpt>
      <trkpt lat="45.75227" lon="6.49824">
        <ele>1676</ele>
        <time>2022-07-24T05:14:14Z</time>
      </trkpt>
      <trkpt lat="45.75227" lon="6.49825">
        <ele>1676</ele>
        <time>2022-07-24T05:14:15Z</time>
      </trkpt>
      <trkpt lat="45.75228" lon="6.49827">
        <ele>1676</ele>
        <time>2022-07-24T05:14:16Z</time>
      </trkpt>
      <trkpt lat="45.75228" lon="6.49828">
        <ele>1676</ele>
        <time>2022-07-24T05:14:17Z</time>
      </trkpt>
      <trkpt lat="45.75229" lon="6.4983">
        <ele>1676</ele>
        <time>2022-07-24T05:14:18Z</time>
      </trkpt>
      <trkpt lat="45.75229" lon="6.49831">
        <ele>1676</ele>
        <time>2022-07-24T05:14:19Z</time>
      </trkpt>
      <trkpt lat="45.7523" lon="6.49832">
        <ele>1676</ele>
        <time>2022-07-24T05:14:20Z</time>
      </trkpt>
      <trkpt lat="45.7523" lon="6.49833">
        <ele>1676</ele>
        <time>2022-07-24T05:14:21Z</time>
      </trkpt>
      <trkpt lat="45.75231" lon="6.49835">
        <ele>1676</ele>
        <time>2022-07-24T05:14:22Z</time>
      </trkpt>
      <trkpt lat="45.75231" lon="6.49836">
        <ele>1676</ele>
        <time>2022-07-24T05:14:23Z</time>
      </trkpt>
      <trkpt lat="45.75232" lon="6.49837">
        <ele>1676</ele>
        <time>2022-07-24T05:14:24Z</time>
      </trkpt>
      <trkpt lat="45.75233" lon="6.49838">
        <ele>1676</ele>
        <time>2022-07-24T05:14:25Z</time>
      </trkpt>
      <trkpt lat="45.75233" lon="6.49839">
        <ele>1676</ele>
        <time>2022-07-24T05:14:26Z</time>
      </trkpt>
      <trkpt lat="45.75234" lon="6.4984">
        <ele>1676</ele>
        <time>2022-07-24T05:14:27Z</time>
      </trkpt>
      <trkpt lat="45.75235" lon="6.49841">
        <ele>1676</ele>
        <time>2022-07-24T05:14:28Z</time>
      </trkpt>
      <trkpt lat="45.75236" lon="6.49842">
        <ele>1676</ele>
        <time>2022-07-24T05:14:29Z</time>
      </trkpt>
      <trkpt lat="45.75236" lon="6.49843">
        <ele>1676</ele>
        <time>2022-07-24T05:14:30Z</time>
      </trkpt>
      <trkpt lat="45.75237" lon="6.49844">
        <ele>1676</ele>
        <time>2022-07-24T05:14:31Z</time>
      </trkpt>
      <trkpt lat="45.75238" lon="6.49845">
        <ele>1676</ele>
        <time>2022-07-24T05:14:32Z</time>
      </trkpt>
      <trkpt lat="45.75239" lon="6.49846">
        <ele>1676</ele>
        <time>2022-07-24T05:14:33Z</time>
      </trkpt>
      <trkpt lat="45.75239" lon="6.49847">
        <ele>1677</ele>
        <time>2022-07-24T05:14:34Z</time>
      </trkpt>
      <trkpt lat="45.7524" lon="6.49848">
        <ele>1677</ele>
        <time>2022-07-24T05:14:35Z</time>
      </trkpt>
      <trkpt lat="45.75241" lon="6.49849">
        <ele>1677</ele>
        <time>2022-07-24T05:14:36Z</time>
      </trkpt>
      <trkpt lat="45.75242" lon="6.4985">
        <ele>1677</ele>
        <time>2022-07-24T05:14:37Z</time>
      </trkpt>
      <trkpt lat="45.75243" lon="6.49851">
        <ele>1677</ele>
        <time>2022-07-24T05:14:38Z</time>
      </trkpt>
      <trkpt lat="45.75243" lon="6.49852">
        <ele>1677</ele>
        <time>2022-07-24T05:14:39Z</time>
      </trkpt>
      <trkpt lat="45.75244" lon="6.49853">
        <ele>1677</ele>
        <time>2022-07-24T05:14:40Z</time>
      </trkpt>
      <trkpt lat="45.75245" lon="6.49855">
        <ele>1677</ele>
        <time>2022-07-24T05:14:41Z</time>
      </trkpt>
      <trkpt lat="45.75245" lon="6.49856">
        <ele>1677</ele>
        <time>2022-07-24T05:14:42Z</time>
      </trkpt>
      <trkpt lat="45.75246" lon="6.49857">
        <ele>1677</ele>
        <time>2022-07-24T05:14:43Z</time>
      </trkpt>
      <trkpt lat="45.75246" lon="6.49858">
        <ele>1677</ele>
        <time>2022-07-24T05:14:44Z</time>
      </trkpt>
      <trkpt lat="45.75247" lon="6.49859">
        <ele>1677</ele>
        <time>2022-07-24T05:14:45Z</time>
      </trkpt>
      <trkpt lat="45.75247" lon="6.4986">
        <ele>1677</ele>
        <time>2022-07-24T05:14:46Z</time>
      </trkpt>
      <trkpt lat="45.75248" lon="6.49862">
        <ele>1677</ele>
        <time>2022-07-24T05:14:47Z</time>
      </trkpt>
      <trkpt lat="45.75248" lon="6.49863">
        <ele>1677</ele>
        <time>2022-07-24T05:14:48Z</time>
      </trkpt>
      <trkpt lat="45.75249" lon="6.49864">
        <ele>1677</ele>
        <time>2022-07-24T05:14:49Z</time>
      </trkpt>
      <trkpt lat="45.7525" lon="6.49865">
        <ele>1677</ele>
        <time>2022-07-24T05:14:50Z</time>
      </trkpt>
      <trkpt lat="45.7525" lon="6.49866">
        <ele>1677</ele>
        <time>2022-07-24T05:14:51Z</time>
      </trkpt>
      <trkpt lat="45.75251" lon="6.49867">
        <ele>1677</ele>
        <time>2022-07-24T05:14:52Z</time>
      </trkpt>
      <trkpt lat="45.75251" lon="6.49868">
        <ele>1677</ele>
        <time>2022-07-24T05:14:53Z</time>
      </trkpt>
      <trkpt lat="45.75251" lon="6.49869">
        <ele>1677</ele>
        <time>2022-07-24T05:14:54Z</time>
      </trkpt>
      <trkpt lat="45.75252" lon="6.4987">
        <ele>1677</ele>
        <time>2022-07-24T05:14:55Z</time>
      </trkpt>
      <trkpt lat="45.75252" lon="6.49871">
        <ele>1677</ele>
        <time>2022-07-24T05:14:56Z</time>
      </trkpt>
      <trkpt lat="45.75252" lon="6.49872">
        <ele>1677</ele>
        <time>2022-07-24T05:14:57Z</time>
      </trkpt>
      <trkpt lat="45.75253" lon="6.49873">
        <ele>1677</ele>
        <time>2022-07-24T05:14:58Z</time>
      </trkpt>
      <trkpt lat="45.75253" lon="6.49875">
        <ele>1677</ele>
        <time>2022-07-24T05:14:59Z</time>
      </trkpt>
      <trkpt lat="45.75253" lon="6.49876">
        <ele>1677</ele>
        <time>2022-07-24T05:15:00Z</time>
      </trkpt>
      <trkpt lat="45.75254" lon="6.49877">
        <ele>1677</ele>
        <time>2022-07-24T05:15:01Z</time>
      </trkpt>
      <trkpt lat="45.75254" lon="6.49878">
        <ele>1677</ele>
        <time>2022-07-24T05:15:02Z</time>
      </trkpt>
      <trkpt lat="45.75254" lon="6.49879">
        <ele>1677</ele>
        <time>2022-07-24T05:15:03Z</time>
      </trkpt>
      <trkpt lat="45.75255" lon="6.4988">
        <ele>1678</ele>
        <time>2022-07-24T05:15:04Z</time>
      </trkpt>
      <trkpt lat="45.75255" lon="6.49881">
        <ele>1678</ele>
        <time>2022-07-24T05:15:05Z</time>
      </trkpt>
      <trkpt lat="45.75255" lon="6.49883">
        <ele>1678</ele>
        <time>2022-07-24T05:15:06Z</time>
      </trkpt>
      <trkpt lat="45.75256" lon="6.49884">
        <ele>1678</ele>
        <time>2022-07-24T05:15:07Z</time>
      </trkpt>
      <trkpt lat="45.75256" lon="6.49885">
        <ele>1678</ele>
        <time>2022-07-24T05:15:08Z</time>
      </trkpt>
      <trkpt lat="45.75257" lon="6.49886">
        <ele>1678</ele>
        <time>2022-07-24T05:15:09Z</time>
      </trkpt>
      <trkpt lat="45.75257" lon="6.49887">
        <ele>1678</ele>
        <time>2022-07-24T05:15:10Z</time>
      </trkpt>
      <trkpt lat="45.75258" lon="6.49888">
        <ele>1678</ele>
        <time>2022-07-24T05:15:11Z</time>
      </trkpt>
      <trkpt lat="45.75258" lon="6.49889">
        <ele>1678</ele>
        <time>2022-07-24T05:15:12Z</time>
      </trkpt>
      <trkpt lat="45.75259" lon="6.4989">
        <ele>1678</ele>
        <time>2022-07-24T05:15:13Z</time>
      </trkpt>
      <trkpt lat="45.75259" lon="6.49891">
        <ele>1678</ele>
        <time>2022-07-24T05:15:14Z</time>
      </trkpt>
      <trkpt lat="45.7526" lon="6.49892">
        <ele>1678</ele>
        <time>2022-07-24T05:15:15Z</time>
      </trkpt>
      <trkpt lat="45.7526" lon="6.49893">
        <ele>1678</ele>
        <time>2022-07-24T05:15:16Z</time>
      </trkpt>
      <trkpt lat="45.75261" lon="6.49894">
        <ele>1678</ele>
        <time>2022-07-24T05:15:17Z</time>
      </trkpt>
      <trkpt lat="45.75261" lon="6.49895">
        <ele>1678</ele>
        <time>2022-07-24T05:15:18Z</time>
      </trkpt>
      <trkpt lat="45.75262" lon="6.49896">
        <ele>1679</ele>
        <time>2022-07-24T05:15:19Z</time>
      </trkpt>
      <trkpt lat="45.75262" lon="6.49897">
        <ele>1679</ele>
        <time>2022-07-24T05:15:20Z</time>
      </trkpt>
      <trkpt lat="45.75262" lon="6.49898">
        <ele>1679</ele>
        <time>2022-07-24T05:15:21Z</time>
      </trkpt>
      <trkpt lat="45.75263" lon="6.49899">
        <ele>1679</ele>
        <time>2022-07-24T05:15:22Z</time>
      </trkpt>
      <trkpt lat="45.75263" lon="6.49901">
        <ele>1679</ele>
        <time>2022-07-24T05:15:23Z</time>
      </trkpt>
      <trkpt lat="45.75264" lon="6.49902">
        <ele>1679</ele>
        <time>2022-07-24T05:15:24Z</time>
      </trkpt>
      <trkpt lat="45.75264" lon="6.49903">
        <ele>1679</ele>
        <time>2022-07-24T05:15:25Z</time>
      </trkpt>
      <trkpt lat="45.75265" lon="6.49904">
        <ele>1679</ele>
        <time>2022-07-24T05:15:26Z</time>
      </trkpt>
      <trkpt lat="45.75265" lon="6.49905">
        <ele>1679</ele>
        <time>2022-07-24T05:15:27Z</time>
      </trkpt>
      <trkpt lat="45.75266" lon="6.49907">
        <ele>1679</ele>
        <time>2022-07-24T05:15:28Z</time>
      </trkpt>
      <trkpt lat="45.75266" lon="6.49908">
        <ele>1679</ele>
        <time>2022-07-24T05:15:29Z</time>
      </trkpt>
      <trkpt lat="45.75266" lon="6.49909">
        <ele>1679</ele>
        <time>2022-07-24T05:15:30Z</time>
      </trkpt>
      <trkpt lat="45.75267" lon="6.4991">
        <ele>1679</ele>
        <time>2022-07-24T05:15:31Z</time>
      </trkpt>
      <trkpt lat="45.75267" lon="6.49911">
        <ele>1679</ele>
        <time>2022-07-24T05:15:32Z</time>
      </trkpt>
      <trkpt lat="45.75268" lon="6.49912">
        <ele>1679</ele>
        <time>2022-07-24T05:15:33Z</time>
      </trkpt>
      <trkpt lat="45.75268" lon="6.49913">
        <ele>1680</ele>
        <time>2022-07-24T05:15:34Z</time>
      </trkpt>
      <trkpt lat="45.75268" lon="6.49914">
        <ele>1680</ele>
        <time>2022-07-24T05:15:35Z</time>
      </trkpt>
      <trkpt lat="45.75269" lon="6.49915">
        <ele>1680</ele>
        <time>2022-07-24T05:15:36Z</time>
      </trkpt>
      <trkpt lat="45.7527" lon="6.49916">
        <ele>1680</ele>
        <time>2022-07-24T05:15:37Z</time>
      </trkpt>
      <trkpt lat="45.7527" lon="6.49917">
        <ele>1680</ele>
        <time>2022-07-24T05:15:38Z</time>
      </trkpt>
      <trkpt lat="45.7527" lon="6.49918">
        <ele>1680</ele>
        <time>2022-07-24T05:15:39Z</time>
      </trkpt>
      <trkpt lat="45.75271" lon="6.49919">
        <ele>1680</ele>
        <time>2022-07-24T05:15:40Z</time>
      </trkpt>
      <trkpt lat="45.75271" lon="6.4992">
        <ele>1680</ele>
        <time>2022-07-24T05:15:41Z</time>
      </trkpt>
      <trkpt lat="45.75272" lon="6.49921">
        <ele>1680</ele>
        <time>2022-07-24T05:15:42Z</time>
      </trkpt>
      <trkpt lat="45.75272" lon="6.49922">
        <ele>1680</ele>
        <time>2022-07-24T05:15:43Z</time>
      </trkpt>
      <trkpt lat="45.75273" lon="6.49923">
        <ele>1680</ele>
        <time>2022-07-24T05:15:44Z</time>
      </trkpt>
      <trkpt lat="45.75274" lon="6.49924">
        <ele>1680</ele>
        <time>2022-07-24T05:15:45Z</time>
      </trkpt>
      <trkpt lat="45.75274" lon="6.49925">
        <ele>1680</ele>
        <time>2022-07-24T05:15:46Z</time>
      </trkpt>
      <trkpt lat="45.75275" lon="6.49926">
        <ele>1680</ele>
        <time>2022-07-24T05:15:47Z</time>
      </trkpt>
      <trkpt lat="45.75276" lon="6.49927">
        <ele>1680</ele>
        <time>2022-07-24T05:15:48Z</time>
      </trkpt>
      <trkpt lat="45.75277" lon="6.49928">
        <ele>1681</ele>
        <time>2022-07-24T05:15:49Z</time>
      </trkpt>
      <trkpt lat="45.75277" lon="6.4993">
        <ele>1681</ele>
        <time>2022-07-24T05:15:50Z</time>
      </trkpt>
      <trkpt lat="45.75278" lon="6.49931">
        <ele>1681</ele>
        <time>2022-07-24T05:15:51Z</time>
      </trkpt>
      <trkpt lat="45.75279" lon="6.49932">
        <ele>1681</ele>
        <time>2022-07-24T05:15:52Z</time>
      </trkpt>
      <trkpt lat="45.75279" lon="6.49933">
        <ele>1681</ele>
        <time>2022-07-24T05:15:53Z</time>
      </trkpt>
      <trkpt lat="45.7528" lon="6.49934">
        <ele>1681</ele>
        <time>2022-07-24T05:15:54Z</time>
      </trkpt>
      <trkpt lat="45.75281" lon="6.49935">
        <ele>1681</ele>
        <time>2022-07-24T05:15:55Z</time>
      </trkpt>
      <trkpt lat="45.75281" lon="6.49936">
        <ele>1681</ele>
        <time>2022-07-24T05:15:56Z</time>
      </trkpt>
      <trkpt lat="45.75282" lon="6.49937">
        <ele>1681</ele>
        <time>2022-07-24T05:15:57Z</time>
      </trkpt>
      <trkpt lat="45.75282" lon="6.49937">
        <ele>1681</ele>
        <time>2022-07-24T05:15:58Z</time>
      </trkpt>
      <trkpt lat="45.75283" lon="6.49938">
        <ele>1681</ele>
        <time>2022-07-24T05:15:59Z</time>
      </trkpt>
      <trkpt lat="45.75284" lon="6.4994">
        <ele>1681</ele>
        <time>2022-07-24T05:16:00Z</time>
      </trkpt>
      <trkpt lat="45.75284" lon="6.49941">
        <ele>1681</ele>
        <time>2022-07-24T05:16:01Z</time>
      </trkpt>
      <trkpt lat="45.75285" lon="6.49942">
        <ele>1681</ele>
        <time>2022-07-24T05:16:02Z</time>
      </trkpt>
      <trkpt lat="45.75285" lon="6.49943">
        <ele>1681</ele>
        <time>2022-07-24T05:16:03Z</time>
      </trkpt>
      <trkpt lat="45.75286" lon="6.49944">
        <ele>1682</ele>
        <time>2022-07-24T05:16:04Z</time>
      </trkpt>
      <trkpt lat="45.75286" lon="6.49945">
        <ele>1682</ele>
        <time>2022-07-24T05:16:05Z</time>
      </trkpt>
      <trkpt lat="45.75286" lon="6.49946">
        <ele>1682</ele>
        <time>2022-07-24T05:16:06Z</time>
      </trkpt>
      <trkpt lat="45.75287" lon="6.49947">
        <ele>1682</ele>
        <time>2022-07-24T05:16:07Z</time>
      </trkpt>
      <trkpt lat="45.75287" lon="6.49948">
        <ele>1682</ele>
        <time>2022-07-24T05:16:08Z</time>
      </trkpt>
      <trkpt lat="45.75287" lon="6.49949">
        <ele>1682</ele>
        <time>2022-07-24T05:16:09Z</time>
      </trkpt>
      <trkpt lat="45.75288" lon="6.4995">
        <ele>1682</ele>
        <time>2022-07-24T05:16:10Z</time>
      </trkpt>
      <trkpt lat="45.75288" lon="6.49951">
        <ele>1682</ele>
        <time>2022-07-24T05:16:11Z</time>
      </trkpt>
      <trkpt lat="45.75289" lon="6.49952">
        <ele>1682</ele>
        <time>2022-07-24T05:16:12Z</time>
      </trkpt>
      <trkpt lat="45.75289" lon="6.49953">
        <ele>1682</ele>
        <time>2022-07-24T05:16:13Z</time>
      </trkpt>
      <trkpt lat="45.7529" lon="6.49954">
        <ele>1683</ele>
        <time>2022-07-24T05:16:14Z</time>
      </trkpt>
      <trkpt lat="45.7529" lon="6.49955">
        <ele>1683</ele>
        <time>2022-07-24T05:16:15Z</time>
      </trkpt>
      <trkpt lat="45.75291" lon="6.49955">
        <ele>1683</ele>
        <time>2022-07-24T05:16:16Z</time>
      </trkpt>
      <trkpt lat="45.75291" lon="6.49956">
        <ele>1683</ele>
        <time>2022-07-24T05:16:17Z</time>
      </trkpt>
      <trkpt lat="45.75292" lon="6.49957">
        <ele>1683</ele>
        <time>2022-07-24T05:16:18Z</time>
      </trkpt>
      <trkpt lat="45.75292" lon="6.49957">
        <ele>1683</ele>
        <time>2022-07-24T05:16:19Z</time>
      </trkpt>
      <trkpt lat="45.75293" lon="6.49958">
        <ele>1683</ele>
        <time>2022-07-24T05:16:20Z</time>
      </trkpt>
      <trkpt lat="45.75293" lon="6.49958">
        <ele>1683</ele>
        <time>2022-07-24T05:16:21Z</time>
      </trkpt>
      <trkpt lat="45.75294" lon="6.49959">
        <ele>1683</ele>
        <time>2022-07-24T05:16:22Z</time>
      </trkpt>
      <trkpt lat="45.75295" lon="6.4996">
        <ele>1683</ele>
        <time>2022-07-24T05:16:23Z</time>
      </trkpt>
      <trkpt lat="45.75295" lon="6.4996">
        <ele>1684</ele>
        <time>2022-07-24T05:16:24Z</time>
      </trkpt>
      <trkpt lat="45.75296" lon="6.49961">
        <ele>1684</ele>
        <time>2022-07-24T05:16:25Z</time>
      </trkpt>
      <trkpt lat="45.75297" lon="6.49962">
        <ele>1684</ele>
        <time>2022-07-24T05:16:26Z</time>
      </trkpt>
      <trkpt lat="45.75297" lon="6.49963">
        <ele>1684</ele>
        <time>2022-07-24T05:16:27Z</time>
      </trkpt>
      <trkpt lat="45.75298" lon="6.49963">
        <ele>1684</ele>
        <time>2022-07-24T05:16:28Z</time>
      </trkpt>
      <trkpt lat="45.75298" lon="6.49964">
        <ele>1684</ele>
        <time>2022-07-24T05:16:29Z</time>
      </trkpt>
      <trkpt lat="45.75299" lon="6.49965">
        <ele>1684</ele>
        <time>2022-07-24T05:16:30Z</time>
      </trkpt>
      <trkpt lat="45.75299" lon="6.49966">
        <ele>1684</ele>
        <time>2022-07-24T05:16:31Z</time>
      </trkpt>
      <trkpt lat="45.753" lon="6.49967">
        <ele>1684</ele>
        <time>2022-07-24T05:16:32Z</time>
      </trkpt>
      <trkpt lat="45.753" lon="6.49968">
        <ele>1684</ele>
        <time>2022-07-24T05:16:33Z</time>
      </trkpt>
      <trkpt lat="45.75301" lon="6.49969">
        <ele>1685</ele>
        <time>2022-07-24T05:16:34Z</time>
      </trkpt>
      <trkpt lat="45.75301" lon="6.4997">
        <ele>1685</ele>
        <time>2022-07-24T05:16:35Z</time>
      </trkpt>
      <trkpt lat="45.75301" lon="6.4997">
        <ele>1685</ele>
        <time>2022-07-24T05:16:36Z</time>
      </trkpt>
      <trkpt lat="45.75302" lon="6.49971">
        <ele>1685</ele>
        <time>2022-07-24T05:16:37Z</time>
      </trkpt>
      <trkpt lat="45.75302" lon="6.49972">
        <ele>1685</ele>
        <time>2022-07-24T05:16:38Z</time>
      </trkpt>
      <trkpt lat="45.75303" lon="6.49973">
        <ele>1685</ele>
        <time>2022-07-24T05:16:39Z</time>
      </trkpt>
      <trkpt lat="45.75303" lon="6.49974">
        <ele>1685</ele>
        <time>2022-07-24T05:16:40Z</time>
      </trkpt>
      <trkpt lat="45.75304" lon="6.49975">
        <ele>1685</ele>
        <time>2022-07-24T05:16:41Z</time>
      </trkpt>
      <trkpt lat="45.75304" lon="6.49976">
        <ele>1685</ele>
        <time>2022-07-24T05:16:42Z</time>
      </trkpt>
      <trkpt lat="45.75304" lon="6.49976">
        <ele>1685</ele>
        <time>2022-07-24T05:16:43Z</time>
      </trkpt>
      <trkpt lat="45.75305" lon="6.49977">
        <ele>1686</ele>
        <time>2022-07-24T05:16:44Z</time>
      </trkpt>
      <trkpt lat="45.75305" lon="6.49978">
        <ele>1686</ele>
        <time>2022-07-24T05:16:45Z</time>
      </trkpt>
      <trkpt lat="45.75306" lon="6.49978">
        <ele>1686</ele>
        <time>2022-07-24T05:16:46Z</time>
      </trkpt>
      <trkpt lat="45.75306" lon="6.49979">
        <ele>1686</ele>
        <time>2022-07-24T05:16:47Z</time>
      </trkpt>
      <trkpt lat="45.75307" lon="6.4998">
        <ele>1686</ele>
        <time>2022-07-24T05:16:48Z</time>
      </trkpt>
      <trkpt lat="45.75307" lon="6.4998">
        <ele>1686</ele>
        <time>2022-07-24T05:16:49Z</time>
      </trkpt>
      <trkpt lat="45.75308" lon="6.49981">
        <ele>1686</ele>
        <time>2022-07-24T05:16:50Z</time>
      </trkpt>
      <trkpt lat="45.75308" lon="6.49982">
        <ele>1686</ele>
        <time>2022-07-24T05:16:51Z</time>
      </trkpt>
      <trkpt lat="45.75309" lon="6.49983">
        <ele>1686</ele>
        <time>2022-07-24T05:16:52Z</time>
      </trkpt>
      <trkpt lat="45.75309" lon="6.49983">
        <ele>1686</ele>
        <time>2022-07-24T05:16:53Z</time>
      </trkpt>
      <trkpt lat="45.7531" lon="6.49984">
        <ele>1687</ele>
        <time>2022-07-24T05:16:54Z</time>
      </trkpt>
      <trkpt lat="45.7531" lon="6.49985">
        <ele>1687</ele>
        <time>2022-07-24T05:16:55Z</time>
      </trkpt>
      <trkpt lat="45.75311" lon="6.49986">
        <ele>1687</ele>
        <time>2022-07-24T05:16:56Z</time>
      </trkpt>
      <trkpt lat="45.75311" lon="6.49986">
        <ele>1687</ele>
        <time>2022-07-24T05:16:57Z</time>
      </trkpt>
      <trkpt lat="45.75312" lon="6.49987">
        <ele>1687</ele>
        <time>2022-07-24T05:16:58Z</time>
      </trkpt>
      <trkpt lat="45.75312" lon="6.49988">
        <ele>1688</ele>
        <time>2022-07-24T05:16:59Z</time>
      </trkpt>
      <trkpt lat="45.75313" lon="6.49989">
        <ele>1688</ele>
        <time>2022-07-24T05:17:00Z</time>
      </trkpt>
      <trkpt lat="45.75313" lon="6.49989">
        <ele>1688</ele>
        <time>2022-07-24T05:17:01Z</time>
      </trkpt>
      <trkpt lat="45.75314" lon="6.4999">
        <ele>1688</ele>
        <time>2022-07-24T05:17:02Z</time>
      </trkpt>
      <trkpt lat="45.75314" lon="6.49991">
        <ele>1688</ele>
        <time>2022-07-24T05:17:03Z</time>
      </trkpt>
      <trkpt lat="45.75315" lon="6.49991">
        <ele>1688</ele>
        <time>2022-07-24T05:17:04Z</time>
      </trkpt>
      <trkpt lat="45.75315" lon="6.49992">
        <ele>1688</ele>
        <time>2022-07-24T05:17:05Z</time>
      </trkpt>
      <trkpt lat="45.75316" lon="6.49993">
        <ele>1688</ele>
        <time>2022-07-24T05:17:06Z</time>
      </trkpt>
      <trkpt lat="45.75316" lon="6.49993">
        <ele>1688</ele>
        <time>2022-07-24T05:17:07Z</time>
      </trkpt>
      <trkpt lat="45.75317" lon="6.49994">
        <ele>1688</ele>
        <time>2022-07-24T05:17:08Z</time>
      </trkpt>
      <trkpt lat="45.75317" lon="6.49995">
        <ele>1689</ele>
        <time>2022-07-24T05:17:09Z</time>
      </trkpt>
      <trkpt lat="45.75317" lon="6.49996">
        <ele>1689</ele>
        <time>2022-07-24T05:17:10Z</time>
      </trkpt>
      <trkpt lat="45.75318" lon="6.49997">
        <ele>1689</ele>
        <time>2022-07-24T05:17:11Z</time>
      </trkpt>
      <trkpt lat="45.75318" lon="6.49998">
        <ele>1689</ele>
        <time>2022-07-24T05:17:12Z</time>
      </trkpt>
      <trkpt lat="45.75319" lon="6.49999">
        <ele>1689</ele>
        <time>2022-07-24T05:17:13Z</time>
      </trkpt>
      <trkpt lat="45.75319" lon="6.5">
        <ele>1690</ele>
        <time>2022-07-24T05:17:14Z</time>
      </trkpt>
      <trkpt lat="45.7532" lon="6.50001">
        <ele>1690</ele>
        <time>2022-07-24T05:17:15Z</time>
      </trkpt>
      <trkpt lat="45.7532" lon="6.50002">
        <ele>1690</ele>
        <time>2022-07-24T05:17:16Z</time>
      </trkpt>
      <trkpt lat="45.75321" lon="6.50003">
        <ele>1690</ele>
        <time>2022-07-24T05:17:17Z</time>
      </trkpt>
      <trkpt lat="45.75321" lon="6.50003">
        <ele>1690</ele>
        <time>2022-07-24T05:17:18Z</time>
      </trkpt>
      <trkpt lat="45.75322" lon="6.50004">
        <ele>1690</ele>
        <time>2022-07-24T05:17:19Z</time>
      </trkpt>
      <trkpt lat="45.75323" lon="6.50005">
        <ele>1691</ele>
        <time>2022-07-24T05:17:30Z</time>
      </trkpt>
      <trkpt lat="45.75324" lon="6.50006">
        <ele>1691</ele>
        <time>2022-07-24T05:17:31Z</time>
      </trkpt>
      <trkpt lat="45.75324" lon="6.50006">
        <ele>1691</ele>
        <time>2022-07-24T05:17:32Z</time>
      </trkpt>
      <trkpt lat="45.75325" lon="6.50007">
        <ele>1691</ele>
        <time>2022-07-24T05:17:33Z</time>
      </trkpt>
      <trkpt lat="45.75325" lon="6.50007">
        <ele>1691</ele>
        <time>2022-07-24T05:17:34Z</time>
      </trkpt>
      <trkpt lat="45.75326" lon="6.50008">
        <ele>1691</ele>
        <time>2022-07-24T05:17:35Z</time>
      </trkpt>
      <trkpt lat="45.75327" lon="6.50009">
        <ele>1691</ele>
        <time>2022-07-24T05:17:36Z</time>
      </trkpt>
      <trkpt lat="45.75328" lon="6.5001">
        <ele>1691</ele>
        <time>2022-07-24T05:17:37Z</time>
      </trkpt>
      <trkpt lat="45.75329" lon="6.50011">
        <ele>1691</ele>
        <time>2022-07-24T05:17:38Z</time>
      </trkpt>
      <trkpt lat="45.7533" lon="6.50013">
        <ele>1692</ele>
        <time>2022-07-24T05:17:39Z</time>
      </trkpt>
      <trkpt lat="45.7533" lon="6.50014">
        <ele>1692</ele>
        <time>2022-07-24T05:17:40Z</time>
      </trkpt>
      <trkpt lat="45.75331" lon="6.50015">
        <ele>1692</ele>
        <time>2022-07-24T05:17:41Z</time>
      </trkpt>
      <trkpt lat="45.75332" lon="6.50016">
        <ele>1692</ele>
        <time>2022-07-24T05:17:42Z</time>
      </trkpt>
      <trkpt lat="45.75333" lon="6.50017">
        <ele>1692</ele>
        <time>2022-07-24T05:17:43Z</time>
      </trkpt>
      <trkpt lat="45.75333" lon="6.50018">
        <ele>1692</ele>
        <time>2022-07-24T05:17:44Z</time>
      </trkpt>
      <trkpt lat="45.75334" lon="6.50019">
        <ele>1692</ele>
        <time>2022-07-24T05:17:45Z</time>
      </trkpt>
      <trkpt lat="45.75335" lon="6.5002">
        <ele>1692</ele>
        <time>2022-07-24T05:17:46Z</time>
      </trkpt>
      <trkpt lat="45.75335" lon="6.50022">
        <ele>1692</ele>
        <time>2022-07-24T05:17:47Z</time>
      </trkpt>
      <trkpt lat="45.75336" lon="6.50023">
        <ele>1692</ele>
        <time>2022-07-24T05:17:48Z</time>
      </trkpt>
      <trkpt lat="45.75336" lon="6.50024">
        <ele>1692</ele>
        <time>2022-07-24T05:17:49Z</time>
      </trkpt>
      <trkpt lat="45.75337" lon="6.50025">
        <ele>1692</ele>
        <time>2022-07-24T05:17:50Z</time>
      </trkpt>
      <trkpt lat="45.75337" lon="6.50026">
        <ele>1692</ele>
        <time>2022-07-24T05:17:51Z</time>
      </trkpt>
      <trkpt lat="45.75337" lon="6.50027">
        <ele>1692</ele>
        <time>2022-07-24T05:17:52Z</time>
      </trkpt>
      <trkpt lat="45.75337" lon="6.50028">
        <ele>1692</ele>
        <time>2022-07-24T05:17:53Z</time>
      </trkpt>
      <trkpt lat="45.75338" lon="6.5003">
        <ele>1692</ele>
        <time>2022-07-24T05:17:54Z</time>
      </trkpt>
      <trkpt lat="45.75338" lon="6.50031">
        <ele>1692</ele>
        <time>2022-07-24T05:17:55Z</time>
      </trkpt>
      <trkpt lat="45.75338" lon="6.50032">
        <ele>1692</ele>
        <time>2022-07-24T05:17:56Z</time>
      </trkpt>
      <trkpt lat="45.75339" lon="6.50034">
        <ele>1692</ele>
        <time>2022-07-24T05:17:57Z</time>
      </trkpt>
      <trkpt lat="45.75339" lon="6.50035">
        <ele>1692</ele>
        <time>2022-07-24T05:17:58Z</time>
      </trkpt>
      <trkpt lat="45.75339" lon="6.50037">
        <ele>1692</ele>
        <time>2022-07-24T05:17:59Z</time>
      </trkpt>
      <trkpt lat="45.75339" lon="6.50038">
        <ele>1692</ele>
        <time>2022-07-24T05:18:00Z</time>
      </trkpt>
      <trkpt lat="45.7534" lon="6.5004">
        <ele>1692</ele>
        <time>2022-07-24T05:18:01Z</time>
      </trkpt>
      <trkpt lat="45.7534" lon="6.50042">
        <ele>1692</ele>
        <time>2022-07-24T05:18:02Z</time>
      </trkpt>
      <trkpt lat="45.7534" lon="6.50043">
        <ele>1692</ele>
        <time>2022-07-24T05:18:03Z</time>
      </trkpt>
      <trkpt lat="45.7534" lon="6.50045">
        <ele>1692</ele>
        <time>2022-07-24T05:18:04Z</time>
      </trkpt>
      <trkpt lat="45.7534" lon="6.50046">
        <ele>1692</ele>
        <time>2022-07-24T05:18:05Z</time>
      </trkpt>
      <trkpt lat="45.7534" lon="6.50048">
        <ele>1692</ele>
        <time>2022-07-24T05:18:06Z</time>
      </trkpt>
      <trkpt lat="45.7534" lon="6.5005">
        <ele>1692</ele>
        <time>2022-07-24T05:18:07Z</time>
      </trkpt>
      <trkpt lat="45.7534" lon="6.50051">
        <ele>1692</ele>
        <time>2022-07-24T05:18:08Z</time>
      </trkpt>
      <trkpt lat="45.7534" lon="6.50053">
        <ele>1692</ele>
        <time>2022-07-24T05:18:09Z</time>
      </trkpt>
      <trkpt lat="45.7534" lon="6.50054">
        <ele>1692</ele>
        <time>2022-07-24T05:18:10Z</time>
      </trkpt>
      <trkpt lat="45.7534" lon="6.50056">
        <ele>1692</ele>
        <time>2022-07-24T05:18:11Z</time>
      </trkpt>
      <trkpt lat="45.75341" lon="6.50058">
        <ele>1692</ele>
        <time>2022-07-24T05:18:12Z</time>
      </trkpt>
      <trkpt lat="45.75341" lon="6.50059">
        <ele>1692</ele>
        <time>2022-07-24T05:18:13Z</time>
      </trkpt>
      <trkpt lat="45.75341" lon="6.50061">
        <ele>1692</ele>
        <time>2022-07-24T05:18:14Z</time>
      </trkpt>
      <trkpt lat="45.75341" lon="6.50062">
        <ele>1692</ele>
        <time>2022-07-24T05:18:15Z</time>
      </trkpt>
      <trkpt lat="45.75342" lon="6.50064">
        <ele>1692</ele>
        <time>2022-07-24T05:18:16Z</time>
      </trkpt>
      <trkpt lat="45.75342" lon="6.50066">
        <ele>1692</ele>
        <time>2022-07-24T05:18:17Z</time>
      </trkpt>
      <trkpt lat="45.75342" lon="6.50067">
        <ele>1692</ele>
        <time>2022-07-24T05:18:18Z</time>
      </trkpt>
      <trkpt lat="45.75342" lon="6.50068">
        <ele>1692</ele>
        <time>2022-07-24T05:18:19Z</time>
      </trkpt>
      <trkpt lat="45.75343" lon="6.5007">
        <ele>1692</ele>
        <time>2022-07-24T05:18:20Z</time>
      </trkpt>
      <trkpt lat="45.75343" lon="6.50071">
        <ele>1692</ele>
        <time>2022-07-24T05:18:21Z</time>
      </trkpt>
      <trkpt lat="45.75343" lon="6.50072">
        <ele>1692</ele>
        <time>2022-07-24T05:18:22Z</time>
      </trkpt>
      <trkpt lat="45.75343" lon="6.50073">
        <ele>1692</ele>
        <time>2022-07-24T05:18:31Z</time>
      </trkpt>
      <trkpt lat="45.75344" lon="6.50073">
        <ele>1692</ele>
        <time>2022-07-24T05:18:32Z</time>
      </trkpt>
      <trkpt lat="45.75344" lon="6.50074">
        <ele>1692</ele>
        <time>2022-07-24T05:18:33Z</time>
      </trkpt>
      <trkpt lat="45.75344" lon="6.50074">
        <ele>1692</ele>
        <time>2022-07-24T05:18:34Z</time>
      </trkpt>
      <trkpt lat="45.75345" lon="6.50075">
        <ele>1692</ele>
        <time>2022-07-24T05:18:35Z</time>
      </trkpt>
      <trkpt lat="45.75345" lon="6.50076">
        <ele>1692</ele>
        <time>2022-07-24T05:18:36Z</time>
      </trkpt>
      <trkpt lat="45.75346" lon="6.50076">
        <ele>1692</ele>
        <time>2022-07-24T05:18:37Z</time>
      </trkpt>
      <trkpt lat="45.75346" lon="6.50077">
        <ele>1692</ele>
        <time>2022-07-24T05:18:38Z</time>
      </trkpt>
      <trkpt lat="45.75346" lon="6.50077">
        <ele>1692</ele>
        <time>2022-07-24T05:18:39Z</time>
      </trkpt>
      <trkpt lat="45.75346" lon="6.50078">
        <ele>1692</ele>
        <time>2022-07-24T05:18:40Z</time>
      </trkpt>
      <trkpt lat="45.75347" lon="6.50078">
        <ele>1692</ele>
        <time>2022-07-24T05:18:41Z</time>
      </trkpt>
      <trkpt lat="45.75347" lon="6.50079">
        <ele>1692</ele>
        <time>2022-07-24T05:18:42Z</time>
      </trkpt>
      <trkpt lat="45.75348" lon="6.5008">
        <ele>1692</ele>
        <time>2022-07-24T05:18:43Z</time>
      </trkpt>
      <trkpt lat="45.75348" lon="6.50081">
        <ele>1692</ele>
        <time>2022-07-24T05:18:44Z</time>
      </trkpt>
      <trkpt lat="45.75348" lon="6.50082">
        <ele>1692</ele>
        <time>2022-07-24T05:18:45Z</time>
      </trkpt>
      <trkpt lat="45.75349" lon="6.50083">
        <ele>1692</ele>
        <time>2022-07-24T05:18:46Z</time>
      </trkpt>
      <trkpt lat="45.75349" lon="6.50084">
        <ele>1692</ele>
        <time>2022-07-24T05:18:47Z</time>
      </trkpt>
      <trkpt lat="45.7535" lon="6.50085">
        <ele>1692</ele>
        <time>2022-07-24T05:18:48Z</time>
      </trkpt>
      <trkpt lat="45.75351" lon="6.50085">
        <ele>1692</ele>
        <time>2022-07-24T05:18:49Z</time>
      </trkpt>
      <trkpt lat="45.75351" lon="6.50086">
        <ele>1692</ele>
        <time>2022-07-24T05:18:50Z</time>
      </trkpt>
      <trkpt lat="45.75352" lon="6.50087">
        <ele>1692</ele>
        <time>2022-07-24T05:18:51Z</time>
      </trkpt>
      <trkpt lat="45.75353" lon="6.50088">
        <ele>1692</ele>
        <time>2022-07-24T05:18:52Z</time>
      </trkpt>
      <trkpt lat="45.75354" lon="6.50089">
        <ele>1692</ele>
        <time>2022-07-24T05:18:53Z</time>
      </trkpt>
      <trkpt lat="45.75355" lon="6.5009">
        <ele>1692</ele>
        <time>2022-07-24T05:18:54Z</time>
      </trkpt>
      <trkpt lat="45.75355" lon="6.50091">
        <ele>1692</ele>
        <time>2022-07-24T05:18:55Z</time>
      </trkpt>
      <trkpt lat="45.75356" lon="6.50092">
        <ele>1692</ele>
        <time>2022-07-24T05:18:56Z</time>
      </trkpt>
      <trkpt lat="45.75357" lon="6.50094">
        <ele>1692</ele>
        <time>2022-07-24T05:18:57Z</time>
      </trkpt>
      <trkpt lat="45.75358" lon="6.50095">
        <ele>1692</ele>
        <time>2022-07-24T05:18:58Z</time>
      </trkpt>
      <trkpt lat="45.75359" lon="6.50096">
        <ele>1692</ele>
        <time>2022-07-24T05:18:59Z</time>
      </trkpt>
      <trkpt lat="45.7536" lon="6.50097">
        <ele>1692</ele>
        <time>2022-07-24T05:19:00Z</time>
      </trkpt>
      <trkpt lat="45.7536" lon="6.50098">
        <ele>1692</ele>
        <time>2022-07-24T05:19:01Z</time>
      </trkpt>
      <trkpt lat="45.75361" lon="6.50099">
        <ele>1692</ele>
        <time>2022-07-24T05:19:02Z</time>
      </trkpt>
      <trkpt lat="45.75362" lon="6.501">
        <ele>1692</ele>
        <time>2022-07-24T05:19:03Z</time>
      </trkpt>
      <trkpt lat="45.75362" lon="6.50101">
        <ele>1692</ele>
        <time>2022-07-24T05:19:04Z</time>
      </trkpt>
      <trkpt lat="45.75363" lon="6.50102">
        <ele>1692</ele>
        <time>2022-07-24T05:19:05Z</time>
      </trkpt>
      <trkpt lat="45.75364" lon="6.50103">
        <ele>1692</ele>
        <time>2022-07-24T05:19:06Z</time>
      </trkpt>
      <trkpt lat="45.75364" lon="6.50104">
        <ele>1692</ele>
        <time>2022-07-24T05:19:07Z</time>
      </trkpt>
      <trkpt lat="45.75365" lon="6.50105">
        <ele>1692</ele>
        <time>2022-07-24T05:19:08Z</time>
      </trkpt>
      <trkpt lat="45.75366" lon="6.50106">
        <ele>1692</ele>
        <time>2022-07-24T05:19:09Z</time>
      </trkpt>
      <trkpt lat="45.75366" lon="6.50107">
        <ele>1692</ele>
        <time>2022-07-24T05:19:10Z</time>
      </trkpt>
      <trkpt lat="45.75367" lon="6.50108">
        <ele>1692</ele>
        <time>2022-07-24T05:19:11Z</time>
      </trkpt>
      <trkpt lat="45.75368" lon="6.50109">
        <ele>1692</ele>
        <time>2022-07-24T05:19:12Z</time>
      </trkpt>
      <trkpt lat="45.75368" lon="6.5011">
        <ele>1692</ele>
        <time>2022-07-24T05:19:13Z</time>
      </trkpt>
      <trkpt lat="45.75369" lon="6.50111">
        <ele>1692</ele>
        <time>2022-07-24T05:19:14Z</time>
      </trkpt>
      <trkpt lat="45.7537" lon="6.50112">
        <ele>1692</ele>
        <time>2022-07-24T05:19:15Z</time>
      </trkpt>
      <trkpt lat="45.7537" lon="6.50113">
        <ele>1692</ele>
        <time>2022-07-24T05:19:16Z</time>
      </trkpt>
      <trkpt lat="45.75371" lon="6.50114">
        <ele>1692</ele>
        <time>2022-07-24T05:19:17Z</time>
      </trkpt>
      <trkpt lat="45.75372" lon="6.50115">
        <ele>1692</ele>
        <time>2022-07-24T05:19:18Z</time>
      </trkpt>
      <trkpt lat="45.75373" lon="6.50116">
        <ele>1692</ele>
        <time>2022-07-24T05:19:19Z</time>
      </trkpt>
      <trkpt lat="45.75373" lon="6.50117">
        <ele>1692</ele>
        <time>2022-07-24T05:19:20Z</time>
      </trkpt>
      <trkpt lat="45.75374" lon="6.50118">
        <ele>1692</ele>
        <time>2022-07-24T05:19:21Z</time>
      </trkpt>
      <trkpt lat="45.75375" lon="6.50119">
        <ele>1693</ele>
        <time>2022-07-24T05:19:22Z</time>
      </trkpt>
      <trkpt lat="45.75376" lon="6.5012">
        <ele>1693</ele>
        <time>2022-07-24T05:19:23Z</time>
      </trkpt>
      <trkpt lat="45.75377" lon="6.50121">
        <ele>1694</ele>
        <time>2022-07-24T05:19:24Z</time>
      </trkpt>
      <trkpt lat="45.75378" lon="6.50122">
        <ele>1694</ele>
        <time>2022-07-24T05:19:25Z</time>
      </trkpt>
      <trkpt lat="45.75379" lon="6.50123">
        <ele>1694</ele>
        <time>2022-07-24T05:19:26Z</time>
      </trkpt>
      <trkpt lat="45.75379" lon="6.50124">
        <ele>1694</ele>
        <time>2022-07-24T05:19:27Z</time>
      </trkpt>
      <trkpt lat="45.7538" lon="6.50125">
        <ele>1694</ele>
        <time>2022-07-24T05:19:28Z</time>
      </trkpt>
      <trkpt lat="45.75381" lon="6.50126">
        <ele>1694</ele>
        <time>2022-07-24T05:19:29Z</time>
      </trkpt>
      <trkpt lat="45.75382" lon="6.50127">
        <ele>1694</ele>
        <time>2022-07-24T05:19:30Z</time>
      </trkpt>
      <trkpt lat="45.75383" lon="6.50128">
        <ele>1694</ele>
        <time>2022-07-24T05:19:31Z</time>
      </trkpt>
      <trkpt lat="45.75384" lon="6.50129">
        <ele>1694</ele>
        <time>2022-07-24T05:19:32Z</time>
      </trkpt>
      <trkpt lat="45.75385" lon="6.5013">
        <ele>1694</ele>
        <time>2022-07-24T05:19:33Z</time>
      </trkpt>
      <trkpt lat="45.75385" lon="6.50131">
        <ele>1694</ele>
        <time>2022-07-24T05:19:34Z</time>
      </trkpt>
      <trkpt lat="45.75386" lon="6.50132">
        <ele>1694</ele>
        <time>2022-07-24T05:19:35Z</time>
      </trkpt>
      <trkpt lat="45.75387" lon="6.50133">
        <ele>1694</ele>
        <time>2022-07-24T05:19:36Z</time>
      </trkpt>
      <trkpt lat="45.75387" lon="6.50134">
        <ele>1694</ele>
        <time>2022-07-24T05:19:37Z</time>
      </trkpt>
      <trkpt lat="45.75388" lon="6.50135">
        <ele>1694</ele>
        <time>2022-07-24T05:19:38Z</time>
      </trkpt>
      <trkpt lat="45.75389" lon="6.50136">
        <ele>1694</ele>
        <time>2022-07-24T05:19:39Z</time>
      </trkpt>
      <trkpt lat="45.75389" lon="6.50137">
        <ele>1694</ele>
        <time>2022-07-24T05:19:40Z</time>
      </trkpt>
      <trkpt lat="45.7539" lon="6.50138">
        <ele>1694</ele>
        <time>2022-07-24T05:19:41Z</time>
      </trkpt>
      <trkpt lat="45.75391" lon="6.50139">
        <ele>1694</ele>
        <time>2022-07-24T05:19:42Z</time>
      </trkpt>
      <trkpt lat="45.75391" lon="6.50141">
        <ele>1694</ele>
        <time>2022-07-24T05:19:43Z</time>
      </trkpt>
      <trkpt lat="45.75392" lon="6.50142">
        <ele>1694</ele>
        <time>2022-07-24T05:19:44Z</time>
      </trkpt>
      <trkpt lat="45.75393" lon="6.50143">
        <ele>1694</ele>
        <time>2022-07-24T05:19:45Z</time>
      </trkpt>
      <trkpt lat="45.75393" lon="6.50144">
        <ele>1694</ele>
        <time>2022-07-24T05:19:46Z</time>
      </trkpt>
      <trkpt lat="45.75394" lon="6.50145">
        <ele>1694</ele>
        <time>2022-07-24T05:19:47Z</time>
      </trkpt>
      <trkpt lat="45.75394" lon="6.50146">
        <ele>1694</ele>
        <time>2022-07-24T05:19:48Z</time>
      </trkpt>
      <trkpt lat="45.75395" lon="6.50147">
        <ele>1694</ele>
        <time>2022-07-24T05:19:49Z</time>
      </trkpt>
      <trkpt lat="45.75396" lon="6.50148">
        <ele>1694</ele>
        <time>2022-07-24T05:19:50Z</time>
      </trkpt>
      <trkpt lat="45.75396" lon="6.50149">
        <ele>1694</ele>
        <time>2022-07-24T05:19:51Z</time>
      </trkpt>
      <trkpt lat="45.75397" lon="6.5015">
        <ele>1694</ele>
        <time>2022-07-24T05:19:52Z</time>
      </trkpt>
      <trkpt lat="45.75397" lon="6.50151">
        <ele>1694</ele>
        <time>2022-07-24T05:19:53Z</time>
      </trkpt>
      <trkpt lat="45.75398" lon="6.50153">
        <ele>1695</ele>
        <time>2022-07-24T05:19:54Z</time>
      </trkpt>
      <trkpt lat="45.75399" lon="6.50154">
        <ele>1695</ele>
        <time>2022-07-24T05:19:55Z</time>
      </trkpt>
      <trkpt lat="45.754" lon="6.50155">
        <ele>1695</ele>
        <time>2022-07-24T05:19:56Z</time>
      </trkpt>
      <trkpt lat="45.754" lon="6.50156">
        <ele>1695</ele>
        <time>2022-07-24T05:19:57Z</time>
      </trkpt>
      <trkpt lat="45.75401" lon="6.50157">
        <ele>1695</ele>
        <time>2022-07-24T05:19:58Z</time>
      </trkpt>
      <trkpt lat="45.75402" lon="6.50158">
        <ele>1695</ele>
        <time>2022-07-24T05:19:59Z</time>
      </trkpt>
      <trkpt lat="45.75402" lon="6.50159">
        <ele>1695</ele>
        <time>2022-07-24T05:20:00Z</time>
      </trkpt>
      <trkpt lat="45.75403" lon="6.5016">
        <ele>1695</ele>
        <time>2022-07-24T05:20:01Z</time>
      </trkpt>
      <trkpt lat="45.75404" lon="6.50161">
        <ele>1695</ele>
        <time>2022-07-24T05:20:02Z</time>
      </trkpt>
      <trkpt lat="45.75405" lon="6.50161">
        <ele>1695</ele>
        <time>2022-07-24T05:20:03Z</time>
      </trkpt>
      <trkpt lat="45.75405" lon="6.50162">
        <ele>1695</ele>
        <time>2022-07-24T05:20:04Z</time>
      </trkpt>
      <trkpt lat="45.75406" lon="6.50163">
        <ele>1695</ele>
        <time>2022-07-24T05:20:05Z</time>
      </trkpt>
      <trkpt lat="45.75407" lon="6.50164">
        <ele>1695</ele>
        <time>2022-07-24T05:20:06Z</time>
      </trkpt>
      <trkpt lat="45.75408" lon="6.50165">
        <ele>1695</ele>
        <time>2022-07-24T05:20:07Z</time>
      </trkpt>
      <trkpt lat="45.75408" lon="6.50166">
        <ele>1695</ele>
        <time>2022-07-24T05:20:08Z</time>
      </trkpt>
      <trkpt lat="45.75409" lon="6.50166">
        <ele>1695</ele>
        <time>2022-07-24T05:20:09Z</time>
      </trkpt>
      <trkpt lat="45.7541" lon="6.50167">
        <ele>1695</ele>
        <time>2022-07-24T05:20:10Z</time>
      </trkpt>
      <trkpt lat="45.75411" lon="6.50168">
        <ele>1695</ele>
        <time>2022-07-24T05:20:11Z</time>
      </trkpt>
      <trkpt lat="45.75412" lon="6.50168">
        <ele>1695</ele>
        <time>2022-07-24T05:20:12Z</time>
      </trkpt>
      <trkpt lat="45.75413" lon="6.50169">
        <ele>1695</ele>
        <time>2022-07-24T05:20:13Z</time>
      </trkpt>
      <trkpt lat="45.75414" lon="6.50169">
        <ele>1696</ele>
        <time>2022-07-24T05:20:14Z</time>
      </trkpt>
      <trkpt lat="45.75415" lon="6.50169">
        <ele>1696</ele>
        <time>2022-07-24T05:20:15Z</time>
      </trkpt>
      <trkpt lat="45.75416" lon="6.50169">
        <ele>1696</ele>
        <time>2022-07-24T05:20:16Z</time>
      </trkpt>
      <trkpt lat="45.75417" lon="6.50169">
        <ele>1696</ele>
        <time>2022-07-24T05:20:17Z</time>
      </trkpt>
      <trkpt lat="45.75418" lon="6.5017">
        <ele>1696</ele>
        <time>2022-07-24T05:20:18Z</time>
      </trkpt>
      <trkpt lat="45.75419" lon="6.5017">
        <ele>1696</ele>
        <time>2022-07-24T05:20:19Z</time>
      </trkpt>
      <trkpt lat="45.7542" lon="6.50171">
        <ele>1696</ele>
        <time>2022-07-24T05:20:20Z</time>
      </trkpt>
      <trkpt lat="45.75421" lon="6.50171">
        <ele>1696</ele>
        <time>2022-07-24T05:20:21Z</time>
      </trkpt>
      <trkpt lat="45.75421" lon="6.50172">
        <ele>1696</ele>
        <time>2022-07-24T05:20:22Z</time>
      </trkpt>
      <trkpt lat="45.75422" lon="6.50172">
        <ele>1696</ele>
        <time>2022-07-24T05:20:23Z</time>
      </trkpt>
      <trkpt lat="45.75423" lon="6.50173">
        <ele>1696</ele>
        <time>2022-07-24T05:20:24Z</time>
      </trkpt>
      <trkpt lat="45.75423" lon="6.50173">
        <ele>1696</ele>
        <time>2022-07-24T05:20:25Z</time>
      </trkpt>
      <trkpt lat="45.75424" lon="6.50174">
        <ele>1696</ele>
        <time>2022-07-24T05:20:26Z</time>
      </trkpt>
      <trkpt lat="45.75424" lon="6.50174">
        <ele>1696</ele>
        <time>2022-07-24T05:20:27Z</time>
      </trkpt>
      <trkpt lat="45.75425" lon="6.50175">
        <ele>1696</ele>
        <time>2022-07-24T05:20:28Z</time>
      </trkpt>
      <trkpt lat="45.75426" lon="6.50175">
        <ele>1697</ele>
        <time>2022-07-24T05:20:29Z</time>
      </trkpt>
      <trkpt lat="45.75427" lon="6.50176">
        <ele>1697</ele>
        <time>2022-07-24T05:20:30Z</time>
      </trkpt>
      <trkpt lat="45.75428" lon="6.50177">
        <ele>1697</ele>
        <time>2022-07-24T05:20:31Z</time>
      </trkpt>
      <trkpt lat="45.75429" lon="6.50177">
        <ele>1697</ele>
        <time>2022-07-24T05:20:32Z</time>
      </trkpt>
      <trkpt lat="45.7543" lon="6.50178">
        <ele>1697</ele>
        <time>2022-07-24T05:20:33Z</time>
      </trkpt>
      <trkpt lat="45.7543" lon="6.50179">
        <ele>1697</ele>
        <time>2022-07-24T05:20:34Z</time>
      </trkpt>
      <trkpt lat="45.75431" lon="6.5018">
        <ele>1697</ele>
        <time>2022-07-24T05:20:35Z</time>
      </trkpt>
      <trkpt lat="45.75432" lon="6.50181">
        <ele>1697</ele>
        <time>2022-07-24T05:20:36Z</time>
      </trkpt>
      <trkpt lat="45.75433" lon="6.50181">
        <ele>1697</ele>
        <time>2022-07-24T05:20:37Z</time>
      </trkpt>
      <trkpt lat="45.75434" lon="6.50182">
        <ele>1697</ele>
        <time>2022-07-24T05:20:38Z</time>
      </trkpt>
      <trkpt lat="45.75434" lon="6.50183">
        <ele>1698</ele>
        <time>2022-07-24T05:20:39Z</time>
      </trkpt>
      <trkpt lat="45.75435" lon="6.50184">
        <ele>1698</ele>
        <time>2022-07-24T05:20:40Z</time>
      </trkpt>
      <trkpt lat="45.75436" lon="6.50185">
        <ele>1698</ele>
        <time>2022-07-24T05:20:41Z</time>
      </trkpt>
      <trkpt lat="45.75437" lon="6.50185">
        <ele>1698</ele>
        <time>2022-07-24T05:20:42Z</time>
      </trkpt>
      <trkpt lat="45.75438" lon="6.50186">
        <ele>1698</ele>
        <time>2022-07-24T05:20:43Z</time>
      </trkpt>
      <trkpt lat="45.75439" lon="6.50187">
        <ele>1698</ele>
        <time>2022-07-24T05:20:44Z</time>
      </trkpt>
      <trkpt lat="45.7544" lon="6.50188">
        <ele>1698</ele>
        <time>2022-07-24T05:20:45Z</time>
      </trkpt>
      <trkpt lat="45.7544" lon="6.50189">
        <ele>1698</ele>
        <time>2022-07-24T05:20:46Z</time>
      </trkpt>
      <trkpt lat="45.75441" lon="6.5019">
        <ele>1698</ele>
        <time>2022-07-24T05:20:47Z</time>
      </trkpt>
      <trkpt lat="45.75442" lon="6.50191">
        <ele>1698</ele>
        <time>2022-07-24T05:20:48Z</time>
      </trkpt>
      <trkpt lat="45.75442" lon="6.50192">
        <ele>1698</ele>
        <time>2022-07-24T05:20:49Z</time>
      </trkpt>
      <trkpt lat="45.75443" lon="6.50194">
        <ele>1698</ele>
        <time>2022-07-24T05:20:50Z</time>
      </trkpt>
      <trkpt lat="45.75443" lon="6.50195">
        <ele>1698</ele>
        <time>2022-07-24T05:20:51Z</time>
      </trkpt>
      <trkpt lat="45.75444" lon="6.50196">
        <ele>1698</ele>
        <time>2022-07-24T05:20:52Z</time>
      </trkpt>
      <trkpt lat="45.75444" lon="6.50197">
        <ele>1698</ele>
        <time>2022-07-24T05:20:53Z</time>
      </trkpt>
      <trkpt lat="45.75445" lon="6.50198">
        <ele>1698</ele>
        <time>2022-07-24T05:20:54Z</time>
      </trkpt>
      <trkpt lat="45.75445" lon="6.50199">
        <ele>1698</ele>
        <time>2022-07-24T05:20:55Z</time>
      </trkpt>
      <trkpt lat="45.75446" lon="6.502">
        <ele>1698</ele>
        <time>2022-07-24T05:20:56Z</time>
      </trkpt>
      <trkpt lat="45.75446" lon="6.50201">
        <ele>1698</ele>
        <time>2022-07-24T05:20:57Z</time>
      </trkpt>
      <trkpt lat="45.75447" lon="6.50202">
        <ele>1698</ele>
        <time>2022-07-24T05:20:58Z</time>
      </trkpt>
      <trkpt lat="45.75448" lon="6.50203">
        <ele>1699</ele>
        <time>2022-07-24T05:20:59Z</time>
      </trkpt>
      <trkpt lat="45.75448" lon="6.50204">
        <ele>1699</ele>
        <time>2022-07-24T05:21:00Z</time>
      </trkpt>
      <trkpt lat="45.75449" lon="6.50205">
        <ele>1699</ele>
        <time>2022-07-24T05:21:01Z</time>
      </trkpt>
      <trkpt lat="45.7545" lon="6.50206">
        <ele>1699</ele>
        <time>2022-07-24T05:21:02Z</time>
      </trkpt>
      <trkpt lat="45.7545" lon="6.50207">
        <ele>1699</ele>
        <time>2022-07-24T05:21:03Z</time>
      </trkpt>
      <trkpt lat="45.75451" lon="6.50208">
        <ele>1699</ele>
        <time>2022-07-24T05:21:04Z</time>
      </trkpt>
      <trkpt lat="45.75452" lon="6.50209">
        <ele>1699</ele>
        <time>2022-07-24T05:21:05Z</time>
      </trkpt>
      <trkpt lat="45.75452" lon="6.5021">
        <ele>1699</ele>
        <time>2022-07-24T05:21:06Z</time>
      </trkpt>
      <trkpt lat="45.75453" lon="6.50211">
        <ele>1699</ele>
        <time>2022-07-24T05:21:07Z</time>
      </trkpt>
      <trkpt lat="45.75454" lon="6.50211">
        <ele>1699</ele>
        <time>2022-07-24T05:21:08Z</time>
      </trkpt>
      <trkpt lat="45.75455" lon="6.50212">
        <ele>1699</ele>
        <time>2022-07-24T05:21:09Z</time>
      </trkpt>
      <trkpt lat="45.75456" lon="6.50213">
        <ele>1699</ele>
        <time>2022-07-24T05:21:10Z</time>
      </trkpt>
      <trkpt lat="45.75456" lon="6.50214">
        <ele>1699</ele>
        <time>2022-07-24T05:21:11Z</time>
      </trkpt>
      <trkpt lat="45.75457" lon="6.50214">
        <ele>1699</ele>
        <time>2022-07-24T05:21:12Z</time>
      </trkpt>
      <trkpt lat="45.75458" lon="6.50215">
        <ele>1699</ele>
        <time>2022-07-24T05:21:13Z</time>
      </trkpt>
      <trkpt lat="45.75459" lon="6.50215">
        <ele>1700</ele>
        <time>2022-07-24T05:21:14Z</time>
      </trkpt>
      <trkpt lat="45.75459" lon="6.50216">
        <ele>1700</ele>
        <time>2022-07-24T05:21:15Z</time>
      </trkpt>
      <trkpt lat="45.7546" lon="6.50217">
        <ele>1700</ele>
        <time>2022-07-24T05:21:16Z</time>
      </trkpt>
      <trkpt lat="45.75461" lon="6.50217">
        <ele>1700</ele>
        <time>2022-07-24T05:21:17Z</time>
      </trkpt>
      <trkpt lat="45.75462" lon="6.50218">
        <ele>1700</ele>
        <time>2022-07-24T05:21:18Z</time>
      </trkpt>
      <trkpt lat="45.75463" lon="6.50218">
        <ele>1700</ele>
        <time>2022-07-24T05:21:19Z</time>
      </trkpt>
      <trkpt lat="45.75464" lon="6.50219">
        <ele>1700</ele>
        <time>2022-07-24T05:21:20Z</time>
      </trkpt>
      <trkpt lat="45.75465" lon="6.50219">
        <ele>1700</ele>
        <time>2022-07-24T05:21:21Z</time>
      </trkpt>
      <trkpt lat="45.75466" lon="6.5022">
        <ele>1700</ele>
        <time>2022-07-24T05:21:22Z</time>
      </trkpt>
      <trkpt lat="45.75467" lon="6.5022">
        <ele>1700</ele>
        <time>2022-07-24T05:21:23Z</time>
      </trkpt>
      <trkpt lat="45.75468" lon="6.5022">
        <ele>1700</ele>
        <time>2022-07-24T05:21:24Z</time>
      </trkpt>
      <trkpt lat="45.75468" lon="6.50221">
        <ele>1700</ele>
        <time>2022-07-24T05:21:25Z</time>
      </trkpt>
      <trkpt lat="45.75469" lon="6.50221">
        <ele>1700</ele>
        <time>2022-07-24T05:21:26Z</time>
      </trkpt>
      <trkpt lat="45.7547" lon="6.50221">
        <ele>1700</ele>
        <time>2022-07-24T05:21:27Z</time>
      </trkpt>
      <trkpt lat="45.75471" lon="6.50221">
        <ele>1700</ele>
        <time>2022-07-24T05:21:28Z</time>
      </trkpt>
      <trkpt lat="45.75472" lon="6.50221">
        <ele>1701</ele>
        <time>2022-07-24T05:21:29Z</time>
      </trkpt>
      <trkpt lat="45.75473" lon="6.50221">
        <ele>1701</ele>
        <time>2022-07-24T05:21:30Z</time>
      </trkpt>
      <trkpt lat="45.75474" lon="6.50221">
        <ele>1701</ele>
        <time>2022-07-24T05:21:31Z</time>
      </trkpt>
      <trkpt lat="45.75475" lon="6.50222">
        <ele>1701</ele>
        <time>2022-07-24T05:21:32Z</time>
      </trkpt>
      <trkpt lat="45.75476" lon="6.50222">
        <ele>1701</ele>
        <time>2022-07-24T05:21:33Z</time>
      </trkpt>
      <trkpt lat="45.75477" lon="6.50222">
        <ele>1701</ele>
        <time>2022-07-24T05:21:34Z</time>
      </trkpt>
      <trkpt lat="45.75477" lon="6.50222">
        <ele>1701</ele>
        <time>2022-07-24T05:21:35Z</time>
      </trkpt>
      <trkpt lat="45.75478" lon="6.50222">
        <ele>1701</ele>
        <time>2022-07-24T05:21:36Z</time>
      </trkpt>
      <trkpt lat="45.75479" lon="6.50222">
        <ele>1701</ele>
        <time>2022-07-24T05:21:37Z</time>
      </trkpt>
      <trkpt lat="45.7548" lon="6.50222">
        <ele>1701</ele>
        <time>2022-07-24T05:21:38Z</time>
      </trkpt>
      <trkpt lat="45.75481" lon="6.50222">
        <ele>1701</ele>
        <time>2022-07-24T05:21:39Z</time>
      </trkpt>
      <trkpt lat="45.75483" lon="6.50222">
        <ele>1701</ele>
        <time>2022-07-24T05:21:40Z</time>
      </trkpt>
      <trkpt lat="45.75484" lon="6.50222">
        <ele>1701</ele>
        <time>2022-07-24T05:21:41Z</time>
      </trkpt>
      <trkpt lat="45.75484" lon="6.50222">
        <ele>1701</ele>
        <time>2022-07-24T05:21:42Z</time>
      </trkpt>
      <trkpt lat="45.75485" lon="6.50222">
        <ele>1701</ele>
        <time>2022-07-24T05:21:43Z</time>
      </trkpt>
      <trkpt lat="45.75485" lon="6.50222">
        <ele>1702</ele>
        <time>2022-07-24T05:21:44Z</time>
      </trkpt>
      <trkpt lat="45.75486" lon="6.50222">
        <ele>1702</ele>
        <time>2022-07-24T05:21:45Z</time>
      </trkpt>
      <trkpt lat="45.75487" lon="6.50223">
        <ele>1702</ele>
        <time>2022-07-24T05:21:46Z</time>
      </trkpt>
      <trkpt lat="45.75488" lon="6.50223">
        <ele>1702</ele>
        <time>2022-07-24T05:21:47Z</time>
      </trkpt>
      <trkpt lat="45.75488" lon="6.50223">
        <ele>1702</ele>
        <time>2022-07-24T05:21:48Z</time>
      </trkpt>
      <trkpt lat="45.75489" lon="6.50224">
        <ele>1702</ele>
        <time>2022-07-24T05:21:49Z</time>
      </trkpt>
      <trkpt lat="45.7549" lon="6.50224">
        <ele>1702</ele>
        <time>2022-07-24T05:21:50Z</time>
      </trkpt>
      <trkpt lat="45.75491" lon="6.50224">
        <ele>1702</ele>
        <time>2022-07-24T05:21:51Z</time>
      </trkpt>
      <trkpt lat="45.75492" lon="6.50225">
        <ele>1702</ele>
        <time>2022-07-24T05:21:52Z</time>
      </trkpt>
      <trkpt lat="45.75493" lon="6.50225">
        <ele>1702</ele>
        <time>2022-07-24T05:21:53Z</time>
      </trkpt>
      <trkpt lat="45.75494" lon="6.50225">
        <ele>1702</ele>
        <time>2022-07-24T05:21:54Z</time>
      </trkpt>
      <trkpt lat="45.75495" lon="6.50226">
        <ele>1702</ele>
        <time>2022-07-24T05:21:55Z</time>
      </trkpt>
      <trkpt lat="45.75496" lon="6.50226">
        <ele>1702</ele>
        <time>2022-07-24T05:21:56Z</time>
      </trkpt>
      <trkpt lat="45.75497" lon="6.50227">
        <ele>1702</ele>
        <time>2022-07-24T05:21:57Z</time>
      </trkpt>
      <trkpt lat="45.75498" lon="6.50228">
        <ele>1702</ele>
        <time>2022-07-24T05:21:58Z</time>
      </trkpt>
      <trkpt lat="45.75499" lon="6.50228">
        <ele>1702</ele>
        <time>2022-07-24T05:21:59Z</time>
      </trkpt>
      <trkpt lat="45.755" lon="6.50229">
        <ele>1702</ele>
        <time>2022-07-24T05:22:00Z</time>
      </trkpt>
      <trkpt lat="45.75501" lon="6.5023">
        <ele>1702</ele>
        <time>2022-07-24T05:22:01Z</time>
      </trkpt>
      <trkpt lat="45.75502" lon="6.5023">
        <ele>1702</ele>
        <time>2022-07-24T05:22:02Z</time>
      </trkpt>
      <trkpt lat="45.75503" lon="6.50231">
        <ele>1702</ele>
        <time>2022-07-24T05:22:03Z</time>
      </trkpt>
      <trkpt lat="45.75505" lon="6.50232">
        <ele>1702</ele>
        <time>2022-07-24T05:22:04Z</time>
      </trkpt>
      <trkpt lat="45.75506" lon="6.50233">
        <ele>1702</ele>
        <time>2022-07-24T05:22:05Z</time>
      </trkpt>
      <trkpt lat="45.75507" lon="6.50233">
        <ele>1702</ele>
        <time>2022-07-24T05:22:06Z</time>
      </trkpt>
      <trkpt lat="45.75508" lon="6.50234">
        <ele>1702</ele>
        <time>2022-07-24T05:22:07Z</time>
      </trkpt>
      <trkpt lat="45.75509" lon="6.50235">
        <ele>1702</ele>
        <time>2022-07-24T05:22:08Z</time>
      </trkpt>
      <trkpt lat="45.7551" lon="6.50236">
        <ele>1702</ele>
        <time>2022-07-24T05:22:09Z</time>
      </trkpt>
      <trkpt lat="45.75511" lon="6.50237">
        <ele>1702</ele>
        <time>2022-07-24T05:22:10Z</time>
      </trkpt>
      <trkpt lat="45.75512" lon="6.50237">
        <ele>1702</ele>
        <time>2022-07-24T05:22:11Z</time>
      </trkpt>
      <trkpt lat="45.75513" lon="6.50238">
        <ele>1702</ele>
        <time>2022-07-24T05:22:12Z</time>
      </trkpt>
      <trkpt lat="45.75514" lon="6.50239">
        <ele>1702</ele>
        <time>2022-07-24T05:22:13Z</time>
      </trkpt>
      <trkpt lat="45.75515" lon="6.5024">
        <ele>1703</ele>
        <time>2022-07-24T05:22:14Z</time>
      </trkpt>
      <trkpt lat="45.75515" lon="6.50242">
        <ele>1703</ele>
        <time>2022-07-24T05:22:15Z</time>
      </trkpt>
      <trkpt lat="45.75516" lon="6.50243">
        <ele>1703</ele>
        <time>2022-07-24T05:22:16Z</time>
      </trkpt>
      <trkpt lat="45.75517" lon="6.50244">
        <ele>1703</ele>
        <time>2022-07-24T05:22:17Z</time>
      </trkpt>
      <trkpt lat="45.75518" lon="6.50245">
        <ele>1703</ele>
        <time>2022-07-24T05:22:18Z</time>
      </trkpt>
      <trkpt lat="45.75519" lon="6.50246">
        <ele>1703</ele>
        <time>2022-07-24T05:22:19Z</time>
      </trkpt>
      <trkpt lat="45.75519" lon="6.50247">
        <ele>1703</ele>
        <time>2022-07-24T05:22:20Z</time>
      </trkpt>
      <trkpt lat="45.7552" lon="6.50248">
        <ele>1703</ele>
        <time>2022-07-24T05:22:21Z</time>
      </trkpt>
      <trkpt lat="45.75521" lon="6.50249">
        <ele>1703</ele>
        <time>2022-07-24T05:22:22Z</time>
      </trkpt>
      <trkpt lat="45.75522" lon="6.50251">
        <ele>1703</ele>
        <time>2022-07-24T05:22:23Z</time>
      </trkpt>
      <trkpt lat="45.75522" lon="6.50252">
        <ele>1703</ele>
        <time>2022-07-24T05:22:24Z</time>
      </trkpt>
      <trkpt lat="45.75523" lon="6.50253">
        <ele>1703</ele>
        <time>2022-07-24T05:22:25Z</time>
      </trkpt>
      <trkpt lat="45.75524" lon="6.50254">
        <ele>1703</ele>
        <time>2022-07-24T05:22:26Z</time>
      </trkpt>
      <trkpt lat="45.75525" lon="6.50255">
        <ele>1703</ele>
        <time>2022-07-24T05:22:27Z</time>
      </trkpt>
      <trkpt lat="45.75526" lon="6.50256">
        <ele>1703</ele>
        <time>2022-07-24T05:22:28Z</time>
      </trkpt>
      <trkpt lat="45.75526" lon="6.50257">
        <ele>1703</ele>
        <time>2022-07-24T05:22:29Z</time>
      </trkpt>
      <trkpt lat="45.75527" lon="6.50258">
        <ele>1703</ele>
        <time>2022-07-24T05:22:30Z</time>
      </trkpt>
      <trkpt lat="45.75528" lon="6.5026">
        <ele>1703</ele>
        <time>2022-07-24T05:22:31Z</time>
      </trkpt>
      <trkpt lat="45.75529" lon="6.50261">
        <ele>1703</ele>
        <time>2022-07-24T05:22:32Z</time>
      </trkpt>
      <trkpt lat="45.7553" lon="6.50262">
        <ele>1703</ele>
        <time>2022-07-24T05:22:33Z</time>
      </trkpt>
      <trkpt lat="45.7553" lon="6.50264">
        <ele>1703</ele>
        <time>2022-07-24T05:22:34Z</time>
      </trkpt>
      <trkpt lat="45.75531" lon="6.50265">
        <ele>1703</ele>
        <time>2022-07-24T05:22:35Z</time>
      </trkpt>
      <trkpt lat="45.75532" lon="6.50266">
        <ele>1703</ele>
        <time>2022-07-24T05:22:36Z</time>
      </trkpt>
      <trkpt lat="45.75532" lon="6.50268">
        <ele>1703</ele>
        <time>2022-07-24T05:22:37Z</time>
      </trkpt>
      <trkpt lat="45.75533" lon="6.50269">
        <ele>1703</ele>
        <time>2022-07-24T05:22:38Z</time>
      </trkpt>
      <trkpt lat="45.75534" lon="6.5027">
        <ele>1703</ele>
        <time>2022-07-24T05:22:39Z</time>
      </trkpt>
      <trkpt lat="45.75534" lon="6.50271">
        <ele>1703</ele>
        <time>2022-07-24T05:22:40Z</time>
      </trkpt>
      <trkpt lat="45.75535" lon="6.50273">
        <ele>1703</ele>
        <time>2022-07-24T05:22:41Z</time>
      </trkpt>
      <trkpt lat="45.75536" lon="6.50274">
        <ele>1703</ele>
        <time>2022-07-24T05:22:42Z</time>
      </trkpt>
      <trkpt lat="45.75536" lon="6.50275">
        <ele>1703</ele>
        <time>2022-07-24T05:22:43Z</time>
      </trkpt>
      <trkpt lat="45.75537" lon="6.50277">
        <ele>1704</ele>
        <time>2022-07-24T05:22:44Z</time>
      </trkpt>
      <trkpt lat="45.75537" lon="6.50278">
        <ele>1704</ele>
        <time>2022-07-24T05:22:45Z</time>
      </trkpt>
      <trkpt lat="45.75538" lon="6.50279">
        <ele>1704</ele>
        <time>2022-07-24T05:22:46Z</time>
      </trkpt>
      <trkpt lat="45.75538" lon="6.50281">
        <ele>1704</ele>
        <time>2022-07-24T05:22:47Z</time>
      </trkpt>
      <trkpt lat="45.75539" lon="6.50282">
        <ele>1704</ele>
        <time>2022-07-24T05:22:48Z</time>
      </trkpt>
      <trkpt lat="45.75539" lon="6.50283">
        <ele>1704</ele>
        <time>2022-07-24T05:22:49Z</time>
      </trkpt>
      <trkpt lat="45.7554" lon="6.50285">
        <ele>1704</ele>
        <time>2022-07-24T05:22:50Z</time>
      </trkpt>
      <trkpt lat="45.7554" lon="6.50286">
        <ele>1704</ele>
        <time>2022-07-24T05:22:51Z</time>
      </trkpt>
      <trkpt lat="45.75541" lon="6.50287">
        <ele>1704</ele>
        <time>2022-07-24T05:22:52Z</time>
      </trkpt>
      <trkpt lat="45.75541" lon="6.50289">
        <ele>1704</ele>
        <time>2022-07-24T05:22:53Z</time>
      </trkpt>
      <trkpt lat="45.75542" lon="6.5029">
        <ele>1704</ele>
        <time>2022-07-24T05:22:54Z</time>
      </trkpt>
      <trkpt lat="45.75542" lon="6.50292">
        <ele>1704</ele>
        <time>2022-07-24T05:22:55Z</time>
      </trkpt>
      <trkpt lat="45.75542" lon="6.50293">
        <ele>1704</ele>
        <time>2022-07-24T05:22:56Z</time>
      </trkpt>
      <trkpt lat="45.75543" lon="6.50295">
        <ele>1704</ele>
        <time>2022-07-24T05:22:57Z</time>
      </trkpt>
      <trkpt lat="45.75543" lon="6.50296">
        <ele>1704</ele>
        <time>2022-07-24T05:22:58Z</time>
      </trkpt>
      <trkpt lat="45.75544" lon="6.50297">
        <ele>1704</ele>
        <time>2022-07-24T05:22:59Z</time>
      </trkpt>
      <trkpt lat="45.75544" lon="6.50299">
        <ele>1704</ele>
        <time>2022-07-24T05:23:00Z</time>
      </trkpt>
      <trkpt lat="45.75545" lon="6.503">
        <ele>1704</ele>
        <time>2022-07-24T05:23:01Z</time>
      </trkpt>
      <trkpt lat="45.75545" lon="6.50302">
        <ele>1704</ele>
        <time>2022-07-24T05:23:02Z</time>
      </trkpt>
      <trkpt lat="45.75545" lon="6.50303">
        <ele>1704</ele>
        <time>2022-07-24T05:23:03Z</time>
      </trkpt>
      <trkpt lat="45.75546" lon="6.50304">
        <ele>1704</ele>
        <time>2022-07-24T05:23:04Z</time>
      </trkpt>
      <trkpt lat="45.75546" lon="6.50306">
        <ele>1704</ele>
        <time>2022-07-24T05:23:05Z</time>
      </trkpt>
      <trkpt lat="45.75546" lon="6.50308">
        <ele>1704</ele>
        <time>2022-07-24T05:23:06Z</time>
      </trkpt>
      <trkpt lat="45.75546" lon="6.50309">
        <ele>1704</ele>
        <time>2022-07-24T05:23:07Z</time>
      </trkpt>
      <trkpt lat="45.75546" lon="6.50311">
        <ele>1704</ele>
        <time>2022-07-24T05:23:08Z</time>
      </trkpt>
      <trkpt lat="45.75546" lon="6.50313">
        <ele>1704</ele>
        <time>2022-07-24T05:23:09Z</time>
      </trkpt>
      <trkpt lat="45.75546" lon="6.50314">
        <ele>1704</ele>
        <time>2022-07-24T05:23:10Z</time>
      </trkpt>
      <trkpt lat="45.75546" lon="6.50316">
        <ele>1704</ele>
        <time>2022-07-24T05:23:11Z</time>
      </trkpt>
      <trkpt lat="45.75547" lon="6.50317">
        <ele>1704</ele>
        <time>2022-07-24T05:23:12Z</time>
      </trkpt>
      <trkpt lat="45.75547" lon="6.50319">
        <ele>1704</ele>
        <time>2022-07-24T05:23:13Z</time>
      </trkpt>
      <trkpt lat="45.75547" lon="6.5032">
        <ele>1704</ele>
        <time>2022-07-24T05:23:14Z</time>
      </trkpt>
      <trkpt lat="45.75548" lon="6.50322">
        <ele>1704</ele>
        <time>2022-07-24T05:23:15Z</time>
      </trkpt>
      <trkpt lat="45.75548" lon="6.50323">
        <ele>1704</ele>
        <time>2022-07-24T05:23:16Z</time>
      </trkpt>
      <trkpt lat="45.75549" lon="6.50325">
        <ele>1704</ele>
        <time>2022-07-24T05:23:17Z</time>
      </trkpt>
      <trkpt lat="45.75549" lon="6.50326">
        <ele>1704</ele>
        <time>2022-07-24T05:23:18Z</time>
      </trkpt>
      <trkpt lat="45.7555" lon="6.50328">
        <ele>1704</ele>
        <time>2022-07-24T05:23:19Z</time>
      </trkpt>
      <trkpt lat="45.7555" lon="6.50329">
        <ele>1704</ele>
        <time>2022-07-24T05:23:20Z</time>
      </trkpt>
      <trkpt lat="45.75551" lon="6.50331">
        <ele>1704</ele>
        <time>2022-07-24T05:23:21Z</time>
      </trkpt>
      <trkpt lat="45.75552" lon="6.50332">
        <ele>1704</ele>
        <time>2022-07-24T05:23:22Z</time>
      </trkpt>
      <trkpt lat="45.75552" lon="6.50333">
        <ele>1704</ele>
        <time>2022-07-24T05:23:23Z</time>
      </trkpt>
      <trkpt lat="45.75553" lon="6.50335">
        <ele>1705</ele>
        <time>2022-07-24T05:23:24Z</time>
      </trkpt>
      <trkpt lat="45.75553" lon="6.50336">
        <ele>1705</ele>
        <time>2022-07-24T05:23:25Z</time>
      </trkpt>
      <trkpt lat="45.75554" lon="6.50337">
        <ele>1705</ele>
        <time>2022-07-24T05:23:26Z</time>
      </trkpt>
      <trkpt lat="45.75555" lon="6.50338">
        <ele>1705</ele>
        <time>2022-07-24T05:23:27Z</time>
      </trkpt>
      <trkpt lat="45.75556" lon="6.50339">
        <ele>1705</ele>
        <time>2022-07-24T05:23:28Z</time>
      </trkpt>
      <trkpt lat="45.75557" lon="6.5034">
        <ele>1705</ele>
        <time>2022-07-24T05:23:29Z</time>
      </trkpt>
      <trkpt lat="45.75557" lon="6.50341">
        <ele>1705</ele>
        <time>2022-07-24T05:23:30Z</time>
      </trkpt>
      <trkpt lat="45.75558" lon="6.50342">
        <ele>1705</ele>
        <time>2022-07-24T05:23:31Z</time>
      </trkpt>
      <trkpt lat="45.75559" lon="6.50342">
        <ele>1705</ele>
        <time>2022-07-24T05:23:32Z</time>
      </trkpt>
      <trkpt lat="45.7556" lon="6.50343">
        <ele>1705</ele>
        <time>2022-07-24T05:23:33Z</time>
      </trkpt>
      <trkpt lat="45.75561" lon="6.50343">
        <ele>1705</ele>
        <time>2022-07-24T05:23:34Z</time>
      </trkpt>
      <trkpt lat="45.75562" lon="6.50344">
        <ele>1705</ele>
        <time>2022-07-24T05:23:35Z</time>
      </trkpt>
      <trkpt lat="45.75563" lon="6.50344">
        <ele>1705</ele>
        <time>2022-07-24T05:23:36Z</time>
      </trkpt>
      <trkpt lat="45.75563" lon="6.50345">
        <ele>1705</ele>
        <time>2022-07-24T05:23:37Z</time>
      </trkpt>
      <trkpt lat="45.75564" lon="6.50345">
        <ele>1705</ele>
        <time>2022-07-24T05:23:38Z</time>
      </trkpt>
      <trkpt lat="45.75565" lon="6.50346">
        <ele>1705</ele>
        <time>2022-07-24T05:23:39Z</time>
      </trkpt>
      <trkpt lat="45.75566" lon="6.50346">
        <ele>1705</ele>
        <time>2022-07-24T05:23:40Z</time>
      </trkpt>
      <trkpt lat="45.75567" lon="6.50347">
        <ele>1705</ele>
        <time>2022-07-24T05:23:41Z</time>
      </trkpt>
      <trkpt lat="45.75568" lon="6.50347">
        <ele>1705</ele>
        <time>2022-07-24T05:23:42Z</time>
      </trkpt>
      <trkpt lat="45.75569" lon="6.50348">
        <ele>1705</ele>
        <time>2022-07-24T05:23:43Z</time>
      </trkpt>
      <trkpt lat="45.7557" lon="6.50348">
        <ele>1705</ele>
        <time>2022-07-24T05:23:44Z</time>
      </trkpt>
      <trkpt lat="45.75571" lon="6.50349">
        <ele>1705</ele>
        <time>2022-07-24T05:23:45Z</time>
      </trkpt>
      <trkpt lat="45.75572" lon="6.50349">
        <ele>1705</ele>
        <time>2022-07-24T05:23:46Z</time>
      </trkpt>
      <trkpt lat="45.75573" lon="6.50349">
        <ele>1705</ele>
        <time>2022-07-24T05:23:47Z</time>
      </trkpt>
      <trkpt lat="45.75574" lon="6.5035">
        <ele>1705</ele>
        <time>2022-07-24T05:23:48Z</time>
      </trkpt>
      <trkpt lat="45.75576" lon="6.5035">
        <ele>1706</ele>
        <time>2022-07-24T05:23:49Z</time>
      </trkpt>
      <trkpt lat="45.75577" lon="6.5035">
        <ele>1706</ele>
        <time>2022-07-24T05:23:50Z</time>
      </trkpt>
      <trkpt lat="45.75578" lon="6.5035">
        <ele>1706</ele>
        <time>2022-07-24T05:23:51Z</time>
      </trkpt>
      <trkpt lat="45.75579" lon="6.50351">
        <ele>1706</ele>
        <time>2022-07-24T05:23:52Z</time>
      </trkpt>
      <trkpt lat="45.7558" lon="6.50351">
        <ele>1706</ele>
        <time>2022-07-24T05:23:53Z</time>
      </trkpt>
      <trkpt lat="45.75581" lon="6.50352">
        <ele>1706</ele>
        <time>2022-07-24T05:23:54Z</time>
      </trkpt>
      <trkpt lat="45.75582" lon="6.50353">
        <ele>1706</ele>
        <time>2022-07-24T05:23:55Z</time>
      </trkpt>
      <trkpt lat="45.75583" lon="6.50353">
        <ele>1706</ele>
        <time>2022-07-24T05:23:56Z</time>
      </trkpt>
      <trkpt lat="45.75585" lon="6.50354">
        <ele>1706</ele>
        <time>2022-07-24T05:23:57Z</time>
      </trkpt>
      <trkpt lat="45.75586" lon="6.50355">
        <ele>1706</ele>
        <time>2022-07-24T05:23:58Z</time>
      </trkpt>
      <trkpt lat="45.75587" lon="6.50355">
        <ele>1706</ele>
        <time>2022-07-24T05:23:59Z</time>
      </trkpt>
      <trkpt lat="45.75588" lon="6.50356">
        <ele>1706</ele>
        <time>2022-07-24T05:24:00Z</time>
      </trkpt>
      <trkpt lat="45.75589" lon="6.50357">
        <ele>1706</ele>
        <time>2022-07-24T05:24:01Z</time>
      </trkpt>
      <trkpt lat="45.7559" lon="6.50358">
        <ele>1706</ele>
        <time>2022-07-24T05:24:02Z</time>
      </trkpt>
      <trkpt lat="45.75591" lon="6.50358">
        <ele>1706</ele>
        <time>2022-07-24T05:24:03Z</time>
      </trkpt>
      <trkpt lat="45.75592" lon="6.50359">
        <ele>1706</ele>
        <time>2022-07-24T05:24:04Z</time>
      </trkpt>
      <trkpt lat="45.75593" lon="6.5036">
        <ele>1706</ele>
        <time>2022-07-24T05:24:05Z</time>
      </trkpt>
      <trkpt lat="45.75594" lon="6.50361">
        <ele>1706</ele>
        <time>2022-07-24T05:24:06Z</time>
      </trkpt>
      <trkpt lat="45.75595" lon="6.50362">
        <ele>1706</ele>
        <time>2022-07-24T05:24:07Z</time>
      </trkpt>
      <trkpt lat="45.75596" lon="6.50362">
        <ele>1706</ele>
        <time>2022-07-24T05:24:08Z</time>
      </trkpt>
      <trkpt lat="45.75597" lon="6.50363">
        <ele>1706</ele>
        <time>2022-07-24T05:24:09Z</time>
      </trkpt>
      <trkpt lat="45.75598" lon="6.50364">
        <ele>1706</ele>
        <time>2022-07-24T05:24:10Z</time>
      </trkpt>
      <trkpt lat="45.75599" lon="6.50365">
        <ele>1706</ele>
        <time>2022-07-24T05:24:11Z</time>
      </trkpt>
      <trkpt lat="45.75599" lon="6.50366">
        <ele>1706</ele>
        <time>2022-07-24T05:24:12Z</time>
      </trkpt>
      <trkpt lat="45.756" lon="6.50367">
        <ele>1706</ele>
        <time>2022-07-24T05:24:13Z</time>
      </trkpt>
      <trkpt lat="45.75601" lon="6.50368">
        <ele>1706</ele>
        <time>2022-07-24T05:24:14Z</time>
      </trkpt>
      <trkpt lat="45.75602" lon="6.50369">
        <ele>1706</ele>
        <time>2022-07-24T05:24:15Z</time>
      </trkpt>
      <trkpt lat="45.75603" lon="6.5037">
        <ele>1706</ele>
        <time>2022-07-24T05:24:16Z</time>
      </trkpt>
      <trkpt lat="45.75603" lon="6.50371">
        <ele>1706</ele>
        <time>2022-07-24T05:24:17Z</time>
      </trkpt>
      <trkpt lat="45.75604" lon="6.50372">
        <ele>1706</ele>
        <time>2022-07-24T05:24:18Z</time>
      </trkpt>
      <trkpt lat="45.75605" lon="6.50373">
        <ele>1707</ele>
        <time>2022-07-24T05:24:19Z</time>
      </trkpt>
      <trkpt lat="45.75606" lon="6.50375">
        <ele>1707</ele>
        <time>2022-07-24T05:24:20Z</time>
      </trkpt>
      <trkpt lat="45.75606" lon="6.50376">
        <ele>1707</ele>
        <time>2022-07-24T05:24:21Z</time>
      </trkpt>
      <trkpt lat="45.75607" lon="6.50377">
        <ele>1707</ele>
        <time>2022-07-24T05:24:22Z</time>
      </trkpt>
      <trkpt lat="45.75608" lon="6.50378">
        <ele>1707</ele>
        <time>2022-07-24T05:24:23Z</time>
      </trkpt>
      <trkpt lat="45.75609" lon="6.50379">
        <ele>1707</ele>
        <time>2022-07-24T05:24:24Z</time>
      </trkpt>
      <trkpt lat="45.75609" lon="6.5038">
        <ele>1707</ele>
        <time>2022-07-24T05:24:25Z</time>
      </trkpt>
      <trkpt lat="45.7561" lon="6.50381">
        <ele>1707</ele>
        <time>2022-07-24T05:24:26Z</time>
      </trkpt>
      <trkpt lat="45.75611" lon="6.50382">
        <ele>1707</ele>
        <time>2022-07-24T05:24:27Z</time>
      </trkpt>
      <trkpt lat="45.75612" lon="6.50383">
        <ele>1707</ele>
        <time>2022-07-24T05:24:28Z</time>
      </trkpt>
      <trkpt lat="45.75613" lon="6.50384">
        <ele>1707</ele>
        <time>2022-07-24T05:24:29Z</time>
      </trkpt>
      <trkpt lat="45.75613" lon="6.50385">
        <ele>1707</ele>
        <time>2022-07-24T05:24:30Z</time>
      </trkpt>
      <trkpt lat="45.75614" lon="6.50387">
        <ele>1707</ele>
        <time>2022-07-24T05:24:31Z</time>
      </trkpt>
      <trkpt lat="45.75615" lon="6.50388">
        <ele>1707</ele>
        <time>2022-07-24T05:24:32Z</time>
      </trkpt>
      <trkpt lat="45.75615" lon="6.50389">
        <ele>1707</ele>
        <time>2022-07-24T05:24:33Z</time>
      </trkpt>
      <trkpt lat="45.75616" lon="6.5039">
        <ele>1707</ele>
        <time>2022-07-24T05:24:34Z</time>
      </trkpt>
      <trkpt lat="45.75616" lon="6.50391">
        <ele>1707</ele>
        <time>2022-07-24T05:24:35Z</time>
      </trkpt>
      <trkpt lat="45.75617" lon="6.50392">
        <ele>1707</ele>
        <time>2022-07-24T05:24:36Z</time>
      </trkpt>
      <trkpt lat="45.75618" lon="6.50393">
        <ele>1707</ele>
        <time>2022-07-24T05:24:37Z</time>
      </trkpt>
      <trkpt lat="45.75618" lon="6.50395">
        <ele>1707</ele>
        <time>2022-07-24T05:24:38Z</time>
      </trkpt>
      <trkpt lat="45.75619" lon="6.50396">
        <ele>1708</ele>
        <time>2022-07-24T05:24:39Z</time>
      </trkpt>
      <trkpt lat="45.75619" lon="6.50397">
        <ele>1708</ele>
        <time>2022-07-24T05:24:40Z</time>
      </trkpt>
      <trkpt lat="45.7562" lon="6.50398">
        <ele>1708</ele>
        <time>2022-07-24T05:24:41Z</time>
      </trkpt>
      <trkpt lat="45.75621" lon="6.50399">
        <ele>1708</ele>
        <time>2022-07-24T05:24:42Z</time>
      </trkpt>
      <trkpt lat="45.75621" lon="6.504">
        <ele>1708</ele>
        <time>2022-07-24T05:24:43Z</time>
      </trkpt>
      <trkpt lat="45.75622" lon="6.50402">
        <ele>1708</ele>
        <time>2022-07-24T05:24:44Z</time>
      </trkpt>
      <trkpt lat="45.75623" lon="6.50403">
        <ele>1708</ele>
        <time>2022-07-24T05:24:45Z</time>
      </trkpt>
      <trkpt lat="45.75624" lon="6.50404">
        <ele>1708</ele>
        <time>2022-07-24T05:24:46Z</time>
      </trkpt>
      <trkpt lat="45.75624" lon="6.50405">
        <ele>1708</ele>
        <time>2022-07-24T05:24:47Z</time>
      </trkpt>
      <trkpt lat="45.75625" lon="6.50407">
        <ele>1708</ele>
        <time>2022-07-24T05:24:48Z</time>
      </trkpt>
      <trkpt lat="45.75626" lon="6.50408">
        <ele>1708</ele>
        <time>2022-07-24T05:24:49Z</time>
      </trkpt>
      <trkpt lat="45.75626" lon="6.50409">
        <ele>1708</ele>
        <time>2022-07-24T05:24:50Z</time>
      </trkpt>
      <trkpt lat="45.75627" lon="6.5041">
        <ele>1708</ele>
        <time>2022-07-24T05:24:51Z</time>
      </trkpt>
      <trkpt lat="45.75627" lon="6.50412">
        <ele>1708</ele>
        <time>2022-07-24T05:24:52Z</time>
      </trkpt>
      <trkpt lat="45.75628" lon="6.50413">
        <ele>1708</ele>
        <time>2022-07-24T05:24:53Z</time>
      </trkpt>
      <trkpt lat="45.75628" lon="6.50414">
        <ele>1708</ele>
        <time>2022-07-24T05:24:54Z</time>
      </trkpt>
      <trkpt lat="45.75629" lon="6.50416">
        <ele>1708</ele>
        <time>2022-07-24T05:24:55Z</time>
      </trkpt>
      <trkpt lat="45.75629" lon="6.50417">
        <ele>1708</ele>
        <time>2022-07-24T05:24:56Z</time>
      </trkpt>
      <trkpt lat="45.75629" lon="6.50419">
        <ele>1708</ele>
        <time>2022-07-24T05:24:57Z</time>
      </trkpt>
      <trkpt lat="45.7563" lon="6.5042">
        <ele>1708</ele>
        <time>2022-07-24T05:24:58Z</time>
      </trkpt>
      <trkpt lat="45.7563" lon="6.50421">
        <ele>1708</ele>
        <time>2022-07-24T05:24:59Z</time>
      </trkpt>
      <trkpt lat="45.7563" lon="6.50423">
        <ele>1708</ele>
        <time>2022-07-24T05:25:00Z</time>
      </trkpt>
      <trkpt lat="45.75631" lon="6.50424">
        <ele>1708</ele>
        <time>2022-07-24T05:25:01Z</time>
      </trkpt>
      <trkpt lat="45.75631" lon="6.50425">
        <ele>1708</ele>
        <time>2022-07-24T05:25:02Z</time>
      </trkpt>
      <trkpt lat="45.75632" lon="6.50427">
        <ele>1708</ele>
        <time>2022-07-24T05:25:03Z</time>
      </trkpt>
      <trkpt lat="45.75632" lon="6.50428">
        <ele>1708</ele>
        <time>2022-07-24T05:25:04Z</time>
      </trkpt>
      <trkpt lat="45.75633" lon="6.50429">
        <ele>1708</ele>
        <time>2022-07-24T05:25:05Z</time>
      </trkpt>
      <trkpt lat="45.75633" lon="6.5043">
        <ele>1708</ele>
        <time>2022-07-24T05:25:06Z</time>
      </trkpt>
      <trkpt lat="45.75634" lon="6.50432">
        <ele>1708</ele>
        <time>2022-07-24T05:25:07Z</time>
      </trkpt>
      <trkpt lat="45.75634" lon="6.50433">
        <ele>1708</ele>
        <time>2022-07-24T05:25:08Z</time>
      </trkpt>
      <trkpt lat="45.75635" lon="6.50434">
        <ele>1708</ele>
        <time>2022-07-24T05:25:09Z</time>
      </trkpt>
      <trkpt lat="45.75635" lon="6.50435">
        <ele>1708</ele>
        <time>2022-07-24T05:25:10Z</time>
      </trkpt>
      <trkpt lat="45.75636" lon="6.50436">
        <ele>1708</ele>
        <time>2022-07-24T05:25:11Z</time>
      </trkpt>
      <trkpt lat="45.75636" lon="6.50437">
        <ele>1708</ele>
        <time>2022-07-24T05:25:12Z</time>
      </trkpt>
      <trkpt lat="45.75637" lon="6.50438">
        <ele>1708</ele>
        <time>2022-07-24T05:25:13Z</time>
      </trkpt>
      <trkpt lat="45.75637" lon="6.5044">
        <ele>1709</ele>
        <time>2022-07-24T05:25:14Z</time>
      </trkpt>
      <trkpt lat="45.75638" lon="6.50441">
        <ele>1709</ele>
        <time>2022-07-24T05:25:15Z</time>
      </trkpt>
      <trkpt lat="45.75638" lon="6.50443">
        <ele>1709</ele>
        <time>2022-07-24T05:25:16Z</time>
      </trkpt>
      <trkpt lat="45.75639" lon="6.50444">
        <ele>1709</ele>
        <time>2022-07-24T05:25:17Z</time>
      </trkpt>
      <trkpt lat="45.75639" lon="6.50446">
        <ele>1709</ele>
        <time>2022-07-24T05:25:18Z</time>
      </trkpt>
      <trkpt lat="45.7564" lon="6.50447">
        <ele>1709</ele>
        <time>2022-07-24T05:25:19Z</time>
      </trkpt>
      <trkpt lat="45.7564" lon="6.50449">
        <ele>1709</ele>
        <time>2022-07-24T05:25:20Z</time>
      </trkpt>
      <trkpt lat="45.75641" lon="6.5045">
        <ele>1709</ele>
        <time>2022-07-24T05:25:21Z</time>
      </trkpt>
      <trkpt lat="45.75642" lon="6.50451">
        <ele>1709</ele>
        <time>2022-07-24T05:25:22Z</time>
      </trkpt>
      <trkpt lat="45.75642" lon="6.50453">
        <ele>1709</ele>
        <time>2022-07-24T05:25:23Z</time>
      </trkpt>
      <trkpt lat="45.75643" lon="6.50454">
        <ele>1709</ele>
        <time>2022-07-24T05:25:24Z</time>
      </trkpt>
      <trkpt lat="45.75644" lon="6.50456">
        <ele>1709</ele>
        <time>2022-07-24T05:25:25Z</time>
      </trkpt>
      <trkpt lat="45.75644" lon="6.50457">
        <ele>1709</ele>
        <time>2022-07-24T05:25:26Z</time>
      </trkpt>
      <trkpt lat="45.75645" lon="6.50458">
        <ele>1709</ele>
        <time>2022-07-24T05:25:27Z</time>
      </trkpt>
      <trkpt lat="45.75646" lon="6.5046">
        <ele>1709</ele>
        <time>2022-07-24T05:25:28Z</time>
      </trkpt>
      <trkpt lat="45.75646" lon="6.50461">
        <ele>1709</ele>
        <time>2022-07-24T05:25:29Z</time>
      </trkpt>
      <trkpt lat="45.75647" lon="6.50462">
        <ele>1709</ele>
        <time>2022-07-24T05:25:30Z</time>
      </trkpt>
      <trkpt lat="45.75647" lon="6.50463">
        <ele>1709</ele>
        <time>2022-07-24T05:25:31Z</time>
      </trkpt>
      <trkpt lat="45.75648" lon="6.50465">
        <ele>1709</ele>
        <time>2022-07-24T05:25:32Z</time>
      </trkpt>
      <trkpt lat="45.75648" lon="6.50466">
        <ele>1709</ele>
        <time>2022-07-24T05:25:33Z</time>
      </trkpt>
      <trkpt lat="45.75649" lon="6.50468">
        <ele>1709</ele>
        <time>2022-07-24T05:25:34Z</time>
      </trkpt>
      <trkpt lat="45.7565" lon="6.50469">
        <ele>1709</ele>
        <time>2022-07-24T05:25:35Z</time>
      </trkpt>
      <trkpt lat="45.7565" lon="6.50471">
        <ele>1709</ele>
        <time>2022-07-24T05:25:36Z</time>
      </trkpt>
      <trkpt lat="45.75651" lon="6.50472">
        <ele>1709</ele>
        <time>2022-07-24T05:25:37Z</time>
      </trkpt>
      <trkpt lat="45.75652" lon="6.50473">
        <ele>1709</ele>
        <time>2022-07-24T05:25:38Z</time>
      </trkpt>
      <trkpt lat="45.75652" lon="6.50475">
        <ele>1710</ele>
        <time>2022-07-24T05:25:39Z</time>
      </trkpt>
      <trkpt lat="45.75653" lon="6.50476">
        <ele>1710</ele>
        <time>2022-07-24T05:25:40Z</time>
      </trkpt>
      <trkpt lat="45.75653" lon="6.50477">
        <ele>1710</ele>
        <time>2022-07-24T05:25:41Z</time>
      </trkpt>
      <trkpt lat="45.75653" lon="6.50479">
        <ele>1710</ele>
        <time>2022-07-24T05:25:42Z</time>
      </trkpt>
      <trkpt lat="45.75653" lon="6.5048">
        <ele>1710</ele>
        <time>2022-07-24T05:25:43Z</time>
      </trkpt>
      <trkpt lat="45.75654" lon="6.50481">
        <ele>1710</ele>
        <time>2022-07-24T05:25:44Z</time>
      </trkpt>
      <trkpt lat="45.75654" lon="6.50483">
        <ele>1710</ele>
        <time>2022-07-24T05:25:45Z</time>
      </trkpt>
      <trkpt lat="45.75654" lon="6.50484">
        <ele>1710</ele>
        <time>2022-07-24T05:25:46Z</time>
      </trkpt>
      <trkpt lat="45.75655" lon="6.50486">
        <ele>1710</ele>
        <time>2022-07-24T05:25:47Z</time>
      </trkpt>
      <trkpt lat="45.75655" lon="6.50487">
        <ele>1710</ele>
        <time>2022-07-24T05:25:48Z</time>
      </trkpt>
      <trkpt lat="45.75655" lon="6.50489">
        <ele>1710</ele>
        <time>2022-07-24T05:25:49Z</time>
      </trkpt>
      <trkpt lat="45.75655" lon="6.5049">
        <ele>1710</ele>
        <time>2022-07-24T05:25:50Z</time>
      </trkpt>
      <trkpt lat="45.75656" lon="6.50492">
        <ele>1710</ele>
        <time>2022-07-24T05:25:51Z</time>
      </trkpt>
      <trkpt lat="45.75656" lon="6.50494">
        <ele>1710</ele>
        <time>2022-07-24T05:25:52Z</time>
      </trkpt>
      <trkpt lat="45.75656" lon="6.50495">
        <ele>1710</ele>
        <time>2022-07-24T05:25:53Z</time>
      </trkpt>
      <trkpt lat="45.75656" lon="6.50497">
        <ele>1710</ele>
        <time>2022-07-24T05:25:54Z</time>
      </trkpt>
      <trkpt lat="45.75656" lon="6.50499">
        <ele>1710</ele>
        <time>2022-07-24T05:25:55Z</time>
      </trkpt>
      <trkpt lat="45.75656" lon="6.505">
        <ele>1710</ele>
        <time>2022-07-24T05:25:56Z</time>
      </trkpt>
      <trkpt lat="45.75657" lon="6.50502">
        <ele>1710</ele>
        <time>2022-07-24T05:25:57Z</time>
      </trkpt>
      <trkpt lat="45.75657" lon="6.50503">
        <ele>1710</ele>
        <time>2022-07-24T05:25:58Z</time>
      </trkpt>
      <trkpt lat="45.75657" lon="6.50505">
        <ele>1711</ele>
        <time>2022-07-24T05:25:59Z</time>
      </trkpt>
      <trkpt lat="45.75658" lon="6.50507">
        <ele>1711</ele>
        <time>2022-07-24T05:26:00Z</time>
      </trkpt>
      <trkpt lat="45.75658" lon="6.50508">
        <ele>1711</ele>
        <time>2022-07-24T05:26:01Z</time>
      </trkpt>
      <trkpt lat="45.75658" lon="6.5051">
        <ele>1711</ele>
        <time>2022-07-24T05:26:02Z</time>
      </trkpt>
      <trkpt lat="45.75658" lon="6.50512">
        <ele>1711</ele>
        <time>2022-07-24T05:26:03Z</time>
      </trkpt>
      <trkpt lat="45.75659" lon="6.50513">
        <ele>1711</ele>
        <time>2022-07-24T05:26:04Z</time>
      </trkpt>
      <trkpt lat="45.75659" lon="6.50515">
        <ele>1711</ele>
        <time>2022-07-24T05:26:05Z</time>
      </trkpt>
      <trkpt lat="45.7566" lon="6.50517">
        <ele>1711</ele>
        <time>2022-07-24T05:26:06Z</time>
      </trkpt>
      <trkpt lat="45.7566" lon="6.50518">
        <ele>1711</ele>
        <time>2022-07-24T05:26:07Z</time>
      </trkpt>
      <trkpt lat="45.75661" lon="6.5052">
        <ele>1711</ele>
        <time>2022-07-24T05:26:08Z</time>
      </trkpt>
      <trkpt lat="45.75661" lon="6.50521">
        <ele>1711</ele>
        <time>2022-07-24T05:26:09Z</time>
      </trkpt>
      <trkpt lat="45.75662" lon="6.50523">
        <ele>1711</ele>
        <time>2022-07-24T05:26:10Z</time>
      </trkpt>
      <trkpt lat="45.75663" lon="6.50524">
        <ele>1711</ele>
        <time>2022-07-24T05:26:11Z</time>
      </trkpt>
      <trkpt lat="45.75664" lon="6.50525">
        <ele>1711</ele>
        <time>2022-07-24T05:26:12Z</time>
      </trkpt>
      <trkpt lat="45.75664" lon="6.50526">
        <ele>1711</ele>
        <time>2022-07-24T05:26:13Z</time>
      </trkpt>
      <trkpt lat="45.75665" lon="6.50527">
        <ele>1711</ele>
        <time>2022-07-24T05:26:14Z</time>
      </trkpt>
      <trkpt lat="45.75666" lon="6.50528">
        <ele>1711</ele>
        <time>2022-07-24T05:26:15Z</time>
      </trkpt>
      <trkpt lat="45.75666" lon="6.5053">
        <ele>1711</ele>
        <time>2022-07-24T05:26:16Z</time>
      </trkpt>
      <trkpt lat="45.75667" lon="6.50531">
        <ele>1711</ele>
        <time>2022-07-24T05:26:17Z</time>
      </trkpt>
      <trkpt lat="45.75668" lon="6.50532">
        <ele>1711</ele>
        <time>2022-07-24T05:26:18Z</time>
      </trkpt>
      <trkpt lat="45.75669" lon="6.50533">
        <ele>1711</ele>
        <time>2022-07-24T05:26:19Z</time>
      </trkpt>
      <trkpt lat="45.75669" lon="6.50535">
        <ele>1711</ele>
        <time>2022-07-24T05:26:20Z</time>
      </trkpt>
      <trkpt lat="45.7567" lon="6.50536">
        <ele>1711</ele>
        <time>2022-07-24T05:26:21Z</time>
      </trkpt>
      <trkpt lat="45.75671" lon="6.50537">
        <ele>1711</ele>
        <time>2022-07-24T05:26:22Z</time>
      </trkpt>
      <trkpt lat="45.75672" lon="6.50538">
        <ele>1711</ele>
        <time>2022-07-24T05:26:23Z</time>
      </trkpt>
      <trkpt lat="45.75673" lon="6.50539">
        <ele>1712</ele>
        <time>2022-07-24T05:26:24Z</time>
      </trkpt>
      <trkpt lat="45.75673" lon="6.5054">
        <ele>1712</ele>
        <time>2022-07-24T05:26:25Z</time>
      </trkpt>
      <trkpt lat="45.75674" lon="6.5054">
        <ele>1712</ele>
        <time>2022-07-24T05:26:26Z</time>
      </trkpt>
      <trkpt lat="45.75675" lon="6.50541">
        <ele>1712</ele>
        <time>2022-07-24T05:26:27Z</time>
      </trkpt>
      <trkpt lat="45.75676" lon="6.50542">
        <ele>1712</ele>
        <time>2022-07-24T05:26:28Z</time>
      </trkpt>
      <trkpt lat="45.75677" lon="6.50543">
        <ele>1712</ele>
        <time>2022-07-24T05:26:29Z</time>
      </trkpt>
      <trkpt lat="45.75678" lon="6.50544">
        <ele>1712</ele>
        <time>2022-07-24T05:26:30Z</time>
      </trkpt>
      <trkpt lat="45.75679" lon="6.50545">
        <ele>1712</ele>
        <time>2022-07-24T05:26:31Z</time>
      </trkpt>
      <trkpt lat="45.7568" lon="6.50546">
        <ele>1712</ele>
        <time>2022-07-24T05:26:32Z</time>
      </trkpt>
      <trkpt lat="45.75681" lon="6.50547">
        <ele>1712</ele>
        <time>2022-07-24T05:26:33Z</time>
      </trkpt>
      <trkpt lat="45.75682" lon="6.50548">
        <ele>1712</ele>
        <time>2022-07-24T05:26:34Z</time>
      </trkpt>
      <trkpt lat="45.75683" lon="6.50549">
        <ele>1712</ele>
        <time>2022-07-24T05:26:35Z</time>
      </trkpt>
      <trkpt lat="45.75684" lon="6.5055">
        <ele>1712</ele>
        <time>2022-07-24T05:26:36Z</time>
      </trkpt>
      <trkpt lat="45.75684" lon="6.50551">
        <ele>1712</ele>
        <time>2022-07-24T05:26:37Z</time>
      </trkpt>
      <trkpt lat="45.75685" lon="6.50552">
        <ele>1712</ele>
        <time>2022-07-24T05:26:38Z</time>
      </trkpt>
      <trkpt lat="45.75686" lon="6.50553">
        <ele>1712</ele>
        <time>2022-07-24T05:26:39Z</time>
      </trkpt>
      <trkpt lat="45.75687" lon="6.50554">
        <ele>1712</ele>
        <time>2022-07-24T05:26:40Z</time>
      </trkpt>
      <trkpt lat="45.75688" lon="6.50555">
        <ele>1712</ele>
        <time>2022-07-24T05:26:41Z</time>
      </trkpt>
      <trkpt lat="45.75688" lon="6.50556">
        <ele>1712</ele>
        <time>2022-07-24T05:26:42Z</time>
      </trkpt>
      <trkpt lat="45.75689" lon="6.50557">
        <ele>1712</ele>
        <time>2022-07-24T05:26:43Z</time>
      </trkpt>
      <trkpt lat="45.7569" lon="6.50559">
        <ele>1712</ele>
        <time>2022-07-24T05:26:44Z</time>
      </trkpt>
      <trkpt lat="45.75691" lon="6.5056">
        <ele>1712</ele>
        <time>2022-07-24T05:26:45Z</time>
      </trkpt>
      <trkpt lat="45.75691" lon="6.50561">
        <ele>1712</ele>
        <time>2022-07-24T05:26:46Z</time>
      </trkpt>
      <trkpt lat="45.75692" lon="6.50562">
        <ele>1712</ele>
        <time>2022-07-24T05:26:47Z</time>
      </trkpt>
      <trkpt lat="45.75692" lon="6.50563">
        <ele>1712</ele>
        <time>2022-07-24T05:26:48Z</time>
      </trkpt>
      <trkpt lat="45.75693" lon="6.50565">
        <ele>1712</ele>
        <time>2022-07-24T05:26:49Z</time>
      </trkpt>
      <trkpt lat="45.75694" lon="6.50566">
        <ele>1712</ele>
        <time>2022-07-24T05:26:50Z</time>
      </trkpt>
      <trkpt lat="45.75694" lon="6.50567">
        <ele>1712</ele>
        <time>2022-07-24T05:26:51Z</time>
      </trkpt>
      <trkpt lat="45.75695" lon="6.50567">
        <ele>1712</ele>
        <time>2022-07-24T05:26:52Z</time>
      </trkpt>
      <trkpt lat="45.75696" lon="6.50568">
        <ele>1712</ele>
        <time>2022-07-24T05:26:53Z</time>
      </trkpt>
      <trkpt lat="45.75697" lon="6.50569">
        <ele>1712</ele>
        <time>2022-07-24T05:26:54Z</time>
      </trkpt>
      <trkpt lat="45.75698" lon="6.5057">
        <ele>1712</ele>
        <time>2022-07-24T05:26:55Z</time>
      </trkpt>
      <trkpt lat="45.75699" lon="6.5057">
        <ele>1712</ele>
        <time>2022-07-24T05:26:56Z</time>
      </trkpt>
      <trkpt lat="45.757" lon="6.50571">
        <ele>1712</ele>
        <time>2022-07-24T05:26:57Z</time>
      </trkpt>
      <trkpt lat="45.75701" lon="6.50572">
        <ele>1712</ele>
        <time>2022-07-24T05:26:58Z</time>
      </trkpt>
      <trkpt lat="45.75702" lon="6.50572">
        <ele>1713</ele>
        <time>2022-07-24T05:26:59Z</time>
      </trkpt>
      <trkpt lat="45.75703" lon="6.50573">
        <ele>1713</ele>
        <time>2022-07-24T05:27:00Z</time>
      </trkpt>
      <trkpt lat="45.75704" lon="6.50574">
        <ele>1713</ele>
        <time>2022-07-24T05:27:01Z</time>
      </trkpt>
      <trkpt lat="45.75705" lon="6.50575">
        <ele>1713</ele>
        <time>2022-07-24T05:27:02Z</time>
      </trkpt>
      <trkpt lat="45.75706" lon="6.50575">
        <ele>1713</ele>
        <time>2022-07-24T05:27:03Z</time>
      </trkpt>
      <trkpt lat="45.75707" lon="6.50576">
        <ele>1713</ele>
        <time>2022-07-24T05:27:04Z</time>
      </trkpt>
      <trkpt lat="45.75708" lon="6.50577">
        <ele>1713</ele>
        <time>2022-07-24T05:27:05Z</time>
      </trkpt>
      <trkpt lat="45.75709" lon="6.50577">
        <ele>1713</ele>
        <time>2022-07-24T05:27:06Z</time>
      </trkpt>
      <trkpt lat="45.7571" lon="6.50578">
        <ele>1713</ele>
        <time>2022-07-24T05:27:07Z</time>
      </trkpt>
      <trkpt lat="45.75711" lon="6.50579">
        <ele>1713</ele>
        <time>2022-07-24T05:27:08Z</time>
      </trkpt>
      <trkpt lat="45.75712" lon="6.50579">
        <ele>1713</ele>
        <time>2022-07-24T05:27:09Z</time>
      </trkpt>
      <trkpt lat="45.75713" lon="6.5058">
        <ele>1713</ele>
        <time>2022-07-24T05:27:10Z</time>
      </trkpt>
      <trkpt lat="45.75714" lon="6.5058">
        <ele>1713</ele>
        <time>2022-07-24T05:27:11Z</time>
      </trkpt>
      <trkpt lat="45.75715" lon="6.50581">
        <ele>1713</ele>
        <time>2022-07-24T05:27:12Z</time>
      </trkpt>
      <trkpt lat="45.75716" lon="6.50581">
        <ele>1713</ele>
        <time>2022-07-24T05:27:13Z</time>
      </trkpt>
      <trkpt lat="45.75717" lon="6.50581">
        <ele>1713</ele>
        <time>2022-07-24T05:27:14Z</time>
      </trkpt>
      <trkpt lat="45.75718" lon="6.50582">
        <ele>1713</ele>
        <time>2022-07-24T05:27:15Z</time>
      </trkpt>
      <trkpt lat="45.7572" lon="6.50582">
        <ele>1713</ele>
        <time>2022-07-24T05:27:16Z</time>
      </trkpt>
      <trkpt lat="45.75721" lon="6.50582">
        <ele>1713</ele>
        <time>2022-07-24T05:27:17Z</time>
      </trkpt>
      <trkpt lat="45.75722" lon="6.50583">
        <ele>1713</ele>
        <time>2022-07-24T05:27:18Z</time>
      </trkpt>
      <trkpt lat="45.75723" lon="6.50584">
        <ele>1713</ele>
        <time>2022-07-24T05:27:19Z</time>
      </trkpt>
      <trkpt lat="45.75724" lon="6.50584">
        <ele>1713</ele>
        <time>2022-07-24T05:27:20Z</time>
      </trkpt>
      <trkpt lat="45.75725" lon="6.50585">
        <ele>1713</ele>
        <time>2022-07-24T05:27:21Z</time>
      </trkpt>
      <trkpt lat="45.75726" lon="6.50586">
        <ele>1713</ele>
        <time>2022-07-24T05:27:22Z</time>
      </trkpt>
      <trkpt lat="45.75727" lon="6.50586">
        <ele>1713</ele>
        <time>2022-07-24T05:27:23Z</time>
      </trkpt>
      <trkpt lat="45.75728" lon="6.50587">
        <ele>1713</ele>
        <time>2022-07-24T05:27:24Z</time>
      </trkpt>
      <trkpt lat="45.75729" lon="6.50587">
        <ele>1713</ele>
        <time>2022-07-24T05:27:25Z</time>
      </trkpt>
      <trkpt lat="45.7573" lon="6.50588">
        <ele>1713</ele>
        <time>2022-07-24T05:27:26Z</time>
      </trkpt>
      <trkpt lat="45.75732" lon="6.50588">
        <ele>1713</ele>
        <time>2022-07-24T05:27:27Z</time>
      </trkpt>
      <trkpt lat="45.75733" lon="6.50589">
        <ele>1713</ele>
        <time>2022-07-24T05:27:28Z</time>
      </trkpt>
      <trkpt lat="45.75734" lon="6.50589">
        <ele>1713</ele>
        <time>2022-07-24T05:27:29Z</time>
      </trkpt>
      <trkpt lat="45.75735" lon="6.5059">
        <ele>1713</ele>
        <time>2022-07-24T05:27:30Z</time>
      </trkpt>
      <trkpt lat="45.75736" lon="6.50591">
        <ele>1713</ele>
        <time>2022-07-24T05:27:31Z</time>
      </trkpt>
      <trkpt lat="45.75737" lon="6.50592">
        <ele>1713</ele>
        <time>2022-07-24T05:27:32Z</time>
      </trkpt>
      <trkpt lat="45.75737" lon="6.50593">
        <ele>1713</ele>
        <time>2022-07-24T05:27:33Z</time>
      </trkpt>
      <trkpt lat="45.75738" lon="6.50593">
        <ele>1714</ele>
        <time>2022-07-24T05:27:34Z</time>
      </trkpt>
      <trkpt lat="45.75739" lon="6.50594">
        <ele>1714</ele>
        <time>2022-07-24T05:27:35Z</time>
      </trkpt>
      <trkpt lat="45.7574" lon="6.50595">
        <ele>1714</ele>
        <time>2022-07-24T05:27:36Z</time>
      </trkpt>
      <trkpt lat="45.75741" lon="6.50596">
        <ele>1714</ele>
        <time>2022-07-24T05:27:37Z</time>
      </trkpt>
      <trkpt lat="45.75742" lon="6.50597">
        <ele>1714</ele>
        <time>2022-07-24T05:27:38Z</time>
      </trkpt>
      <trkpt lat="45.75743" lon="6.50598">
        <ele>1714</ele>
        <time>2022-07-24T05:27:39Z</time>
      </trkpt>
      <trkpt lat="45.75744" lon="6.506">
        <ele>1714</ele>
        <time>2022-07-24T05:27:40Z</time>
      </trkpt>
      <trkpt lat="45.75744" lon="6.50601">
        <ele>1714</ele>
        <time>2022-07-24T05:27:41Z</time>
      </trkpt>
      <trkpt lat="45.75745" lon="6.50603">
        <ele>1714</ele>
        <time>2022-07-24T05:27:42Z</time>
      </trkpt>
      <trkpt lat="45.75745" lon="6.50604">
        <ele>1714</ele>
        <time>2022-07-24T05:27:43Z</time>
      </trkpt>
      <trkpt lat="45.75746" lon="6.50606">
        <ele>1714</ele>
        <time>2022-07-24T05:27:44Z</time>
      </trkpt>
      <trkpt lat="45.75747" lon="6.50607">
        <ele>1714</ele>
        <time>2022-07-24T05:27:45Z</time>
      </trkpt>
      <trkpt lat="45.75747" lon="6.50609">
        <ele>1714</ele>
        <time>2022-07-24T05:27:46Z</time>
      </trkpt>
      <trkpt lat="45.75748" lon="6.5061">
        <ele>1714</ele>
        <time>2022-07-24T05:27:47Z</time>
      </trkpt>
      <trkpt lat="45.75748" lon="6.50611">
        <ele>1714</ele>
        <time>2022-07-24T05:27:48Z</time>
      </trkpt>
      <trkpt lat="45.75749" lon="6.50613">
        <ele>1714</ele>
        <time>2022-07-24T05:27:49Z</time>
      </trkpt>
      <trkpt lat="45.75749" lon="6.50614">
        <ele>1714</ele>
        <time>2022-07-24T05:27:50Z</time>
      </trkpt>
      <trkpt lat="45.7575" lon="6.50615">
        <ele>1714</ele>
        <time>2022-07-24T05:27:51Z</time>
      </trkpt>
      <trkpt lat="45.7575" lon="6.50616">
        <ele>1714</ele>
        <time>2022-07-24T05:27:52Z</time>
      </trkpt>
      <trkpt lat="45.75751" lon="6.50618">
        <ele>1714</ele>
        <time>2022-07-24T05:27:53Z</time>
      </trkpt>
      <trkpt lat="45.75751" lon="6.50619">
        <ele>1714</ele>
        <time>2022-07-24T05:27:54Z</time>
      </trkpt>
      <trkpt lat="45.75752" lon="6.50621">
        <ele>1714</ele>
        <time>2022-07-24T05:27:55Z</time>
      </trkpt>
      <trkpt lat="45.75752" lon="6.50622">
        <ele>1714</ele>
        <time>2022-07-24T05:27:56Z</time>
      </trkpt>
      <trkpt lat="45.75753" lon="6.50623">
        <ele>1714</ele>
        <time>2022-07-24T05:27:57Z</time>
      </trkpt>
      <trkpt lat="45.75753" lon="6.50625">
        <ele>1714</ele>
        <time>2022-07-24T05:27:58Z</time>
      </trkpt>
      <trkpt lat="45.75754" lon="6.50626">
        <ele>1714</ele>
        <time>2022-07-24T05:27:59Z</time>
      </trkpt>
      <trkpt lat="45.75754" lon="6.50627">
        <ele>1714</ele>
        <time>2022-07-24T05:28:00Z</time>
      </trkpt>
      <trkpt lat="45.75755" lon="6.50629">
        <ele>1714</ele>
        <time>2022-07-24T05:28:01Z</time>
      </trkpt>
      <trkpt lat="45.75755" lon="6.5063">
        <ele>1714</ele>
        <time>2022-07-24T05:28:02Z</time>
      </trkpt>
      <trkpt lat="45.75756" lon="6.50631">
        <ele>1714</ele>
        <time>2022-07-24T05:28:03Z</time>
      </trkpt>
      <trkpt lat="45.75757" lon="6.50632">
        <ele>1714</ele>
        <time>2022-07-24T05:28:04Z</time>
      </trkpt>
      <trkpt lat="45.75758" lon="6.50633">
        <ele>1714</ele>
        <time>2022-07-24T05:28:05Z</time>
      </trkpt>
      <trkpt lat="45.75759" lon="6.50633">
        <ele>1714</ele>
        <time>2022-07-24T05:28:06Z</time>
      </trkpt>
      <trkpt lat="45.75759" lon="6.50634">
        <ele>1714</ele>
        <time>2022-07-24T05:28:07Z</time>
      </trkpt>
      <trkpt lat="45.7576" lon="6.50635">
        <ele>1714</ele>
        <time>2022-07-24T05:28:08Z</time>
      </trkpt>
      <trkpt lat="45.75761" lon="6.50636">
        <ele>1715</ele>
        <time>2022-07-24T05:28:09Z</time>
      </trkpt>
      <trkpt lat="45.75762" lon="6.50636">
        <ele>1715</ele>
        <time>2022-07-24T05:28:10Z</time>
      </trkpt>
      <trkpt lat="45.75763" lon="6.50637">
        <ele>1715</ele>
        <time>2022-07-24T05:28:11Z</time>
      </trkpt>
      <trkpt lat="45.75763" lon="6.50638">
        <ele>1715</ele>
        <time>2022-07-24T05:28:12Z</time>
      </trkpt>
      <trkpt lat="45.75764" lon="6.50638">
        <ele>1715</ele>
        <time>2022-07-24T05:28:13Z</time>
      </trkpt>
      <trkpt lat="45.75765" lon="6.50639">
        <ele>1715</ele>
        <time>2022-07-24T05:28:14Z</time>
      </trkpt>
      <trkpt lat="45.75766" lon="6.50639">
        <ele>1715</ele>
        <time>2022-07-24T05:28:15Z</time>
      </trkpt>
      <trkpt lat="45.75767" lon="6.5064">
        <ele>1715</ele>
        <time>2022-07-24T05:28:16Z</time>
      </trkpt>
      <trkpt lat="45.75768" lon="6.5064">
        <ele>1715</ele>
        <time>2022-07-24T05:28:17Z</time>
      </trkpt>
      <trkpt lat="45.75769" lon="6.5064">
        <ele>1715</ele>
        <time>2022-07-24T05:28:18Z</time>
      </trkpt>
      <trkpt lat="45.7577" lon="6.50641">
        <ele>1715</ele>
        <time>2022-07-24T05:28:19Z</time>
      </trkpt>
      <trkpt lat="45.7577" lon="6.50641">
        <ele>1715</ele>
        <time>2022-07-24T05:28:20Z</time>
      </trkpt>
      <trkpt lat="45.75771" lon="6.50642">
        <ele>1715</ele>
        <time>2022-07-24T05:28:21Z</time>
      </trkpt>
      <trkpt lat="45.75772" lon="6.50642">
        <ele>1715</ele>
        <time>2022-07-24T05:28:22Z</time>
      </trkpt>
      <trkpt lat="45.75773" lon="6.50643">
        <ele>1715</ele>
        <time>2022-07-24T05:28:23Z</time>
      </trkpt>
      <trkpt lat="45.75774" lon="6.50644">
        <ele>1715</ele>
        <time>2022-07-24T05:28:24Z</time>
      </trkpt>
      <trkpt lat="45.75775" lon="6.50645">
        <ele>1715</ele>
        <time>2022-07-24T05:28:25Z</time>
      </trkpt>
      <trkpt lat="45.75776" lon="6.50646">
        <ele>1715</ele>
        <time>2022-07-24T05:28:26Z</time>
      </trkpt>
      <trkpt lat="45.75777" lon="6.50647">
        <ele>1715</ele>
        <time>2022-07-24T05:28:27Z</time>
      </trkpt>
      <trkpt lat="45.75778" lon="6.5065">
        <ele>1715</ele>
        <time>2022-07-24T05:28:38Z</time>
      </trkpt>
      <trkpt lat="45.75778" lon="6.50651">
        <ele>1715</ele>
        <time>2022-07-24T05:28:39Z</time>
      </trkpt>
      <trkpt lat="45.75779" lon="6.50652">
        <ele>1715</ele>
        <time>2022-07-24T05:28:40Z</time>
      </trkpt>
      <trkpt lat="45.75779" lon="6.50653">
        <ele>1715</ele>
        <time>2022-07-24T05:28:41Z</time>
      </trkpt>
      <trkpt lat="45.7578" lon="6.50654">
        <ele>1715</ele>
        <time>2022-07-24T05:28:42Z</time>
      </trkpt>
      <trkpt lat="45.75781" lon="6.50655">
        <ele>1715</ele>
        <time>2022-07-24T05:28:43Z</time>
      </trkpt>
      <trkpt lat="45.75781" lon="6.50656">
        <ele>1716</ele>
        <time>2022-07-24T05:28:44Z</time>
      </trkpt>
      <trkpt lat="45.75782" lon="6.50658">
        <ele>1715</ele>
        <time>2022-07-24T05:28:45Z</time>
      </trkpt>
      <trkpt lat="45.75783" lon="6.50659">
        <ele>1715</ele>
        <time>2022-07-24T05:28:46Z</time>
      </trkpt>
      <trkpt lat="45.75784" lon="6.50661">
        <ele>1715</ele>
        <time>2022-07-24T05:28:47Z</time>
      </trkpt>
      <trkpt lat="45.75785" lon="6.50662">
        <ele>1715</ele>
        <time>2022-07-24T05:28:48Z</time>
      </trkpt>
      <trkpt lat="45.75786" lon="6.50664">
        <ele>1715</ele>
        <time>2022-07-24T05:28:49Z</time>
      </trkpt>
      <trkpt lat="45.75787" lon="6.50666">
        <ele>1715</ele>
        <time>2022-07-24T05:28:50Z</time>
      </trkpt>
      <trkpt lat="45.75788" lon="6.50668">
        <ele>1715</ele>
        <time>2022-07-24T05:28:51Z</time>
      </trkpt>
      <trkpt lat="45.75789" lon="6.50669">
        <ele>1715</ele>
        <time>2022-07-24T05:28:52Z</time>
      </trkpt>
      <trkpt lat="45.75789" lon="6.50671">
        <ele>1715</ele>
        <time>2022-07-24T05:28:53Z</time>
      </trkpt>
      <trkpt lat="45.7579" lon="6.50673">
        <ele>1716</ele>
        <time>2022-07-24T05:28:54Z</time>
      </trkpt>
      <trkpt lat="45.75791" lon="6.50675">
        <ele>1716</ele>
        <time>2022-07-24T05:28:55Z</time>
      </trkpt>
      <trkpt lat="45.75791" lon="6.50677">
        <ele>1716</ele>
        <time>2022-07-24T05:28:56Z</time>
      </trkpt>
      <trkpt lat="45.75791" lon="6.50679">
        <ele>1716</ele>
        <time>2022-07-24T05:28:57Z</time>
      </trkpt>
      <trkpt lat="45.75792" lon="6.50681">
        <ele>1716</ele>
        <time>2022-07-24T05:28:58Z</time>
      </trkpt>
      <trkpt lat="45.75792" lon="6.50683">
        <ele>1716</ele>
        <time>2022-07-24T05:28:59Z</time>
      </trkpt>
      <trkpt lat="45.75792" lon="6.50685">
        <ele>1716</ele>
        <time>2022-07-24T05:29:00Z</time>
      </trkpt>
      <trkpt lat="45.75792" lon="6.50686">
        <ele>1716</ele>
        <time>2022-07-24T05:29:01Z</time>
      </trkpt>
      <trkpt lat="45.75792" lon="6.50688">
        <ele>1716</ele>
        <time>2022-07-24T05:29:02Z</time>
      </trkpt>
      <trkpt lat="45.75792" lon="6.5069">
        <ele>1716</ele>
        <time>2022-07-24T05:29:03Z</time>
      </trkpt>
      <trkpt lat="45.75792" lon="6.50691">
        <ele>1716</ele>
        <time>2022-07-24T05:29:04Z</time>
      </trkpt>
      <trkpt lat="45.75792" lon="6.50693">
        <ele>1716</ele>
        <time>2022-07-24T05:29:05Z</time>
      </trkpt>
      <trkpt lat="45.75792" lon="6.50695">
        <ele>1716</ele>
        <time>2022-07-24T05:29:06Z</time>
      </trkpt>
      <trkpt lat="45.75792" lon="6.507">
        <ele>1716</ele>
        <time>2022-07-24T05:31:12Z</time>
      </trkpt>
      <trkpt lat="45.75793" lon="6.50704">
        <ele>1716</ele>
        <time>2022-07-24T05:31:13Z</time>
      </trkpt>
      <trkpt lat="45.75793" lon="6.50707">
        <ele>1716</ele>
        <time>2022-07-24T05:31:14Z</time>
      </trkpt>
      <trkpt lat="45.75793" lon="6.50709">
        <ele>1716</ele>
        <time>2022-07-24T05:31:15Z</time>
      </trkpt>
      <trkpt lat="45.75794" lon="6.5071">
        <ele>1716</ele>
        <time>2022-07-24T05:31:16Z</time>
      </trkpt>
      <trkpt lat="45.75794" lon="6.50711">
        <ele>1716</ele>
        <time>2022-07-24T05:31:17Z</time>
      </trkpt>
      <trkpt lat="45.75794" lon="6.50713">
        <ele>1716</ele>
        <time>2022-07-24T05:31:18Z</time>
      </trkpt>
      <trkpt lat="45.75795" lon="6.50714">
        <ele>1716</ele>
        <time>2022-07-24T05:31:19Z</time>
      </trkpt>
      <trkpt lat="45.75795" lon="6.50715">
        <ele>1716</ele>
        <time>2022-07-24T05:31:20Z</time>
      </trkpt>
      <trkpt lat="45.75795" lon="6.50717">
        <ele>1716</ele>
        <time>2022-07-24T05:31:21Z</time>
      </trkpt>
      <trkpt lat="45.75796" lon="6.50718">
        <ele>1716</ele>
        <time>2022-07-24T05:31:22Z</time>
      </trkpt>
      <trkpt lat="45.75796" lon="6.5072">
        <ele>1716</ele>
        <time>2022-07-24T05:31:23Z</time>
      </trkpt>
      <trkpt lat="45.75796" lon="6.50721">
        <ele>1716</ele>
        <time>2022-07-24T05:31:24Z</time>
      </trkpt>
      <trkpt lat="45.75797" lon="6.50723">
        <ele>1716</ele>
        <time>2022-07-24T05:31:25Z</time>
      </trkpt>
      <trkpt lat="45.75797" lon="6.50724">
        <ele>1716</ele>
        <time>2022-07-24T05:31:26Z</time>
      </trkpt>
      <trkpt lat="45.75797" lon="6.50726">
        <ele>1716</ele>
        <time>2022-07-24T05:31:27Z</time>
      </trkpt>
      <trkpt lat="45.75797" lon="6.50727">
        <ele>1716</ele>
        <time>2022-07-24T05:31:28Z</time>
      </trkpt>
      <trkpt lat="45.75798" lon="6.50729">
        <ele>1716</ele>
        <time>2022-07-24T05:31:29Z</time>
      </trkpt>
      <trkpt lat="45.75798" lon="6.5073">
        <ele>1716</ele>
        <time>2022-07-24T05:31:30Z</time>
      </trkpt>
      <trkpt lat="45.75798" lon="6.50732">
        <ele>1716</ele>
        <time>2022-07-24T05:31:31Z</time>
      </trkpt>
      <trkpt lat="45.75798" lon="6.50733">
        <ele>1716</ele>
        <time>2022-07-24T05:31:32Z</time>
      </trkpt>
      <trkpt lat="45.75799" lon="6.50735">
        <ele>1716</ele>
        <time>2022-07-24T05:31:33Z</time>
      </trkpt>
      <trkpt lat="45.75799" lon="6.50736">
        <ele>1717</ele>
        <time>2022-07-24T05:31:34Z</time>
      </trkpt>
      <trkpt lat="45.75799" lon="6.50738">
        <ele>1716</ele>
        <time>2022-07-24T05:31:35Z</time>
      </trkpt>
      <trkpt lat="45.75799" lon="6.50739">
        <ele>1716</ele>
        <time>2022-07-24T05:31:36Z</time>
      </trkpt>
      <trkpt lat="45.758" lon="6.50741">
        <ele>1716</ele>
        <time>2022-07-24T05:31:37Z</time>
      </trkpt>
      <trkpt lat="45.758" lon="6.50742">
        <ele>1716</ele>
        <time>2022-07-24T05:31:38Z</time>
      </trkpt>
      <trkpt lat="45.758" lon="6.50744">
        <ele>1716</ele>
        <time>2022-07-24T05:31:39Z</time>
      </trkpt>
      <trkpt lat="45.758" lon="6.50745">
        <ele>1716</ele>
        <time>2022-07-24T05:31:40Z</time>
      </trkpt>
      <trkpt lat="45.75801" lon="6.50746">
        <ele>1716</ele>
        <time>2022-07-24T05:31:41Z</time>
      </trkpt>
      <trkpt lat="45.75801" lon="6.50748">
        <ele>1716</ele>
        <time>2022-07-24T05:31:42Z</time>
      </trkpt>
      <trkpt lat="45.75802" lon="6.50749">
        <ele>1716</ele>
        <time>2022-07-24T05:31:43Z</time>
      </trkpt>
      <trkpt lat="45.75802" lon="6.50751">
        <ele>1716</ele>
        <time>2022-07-24T05:31:44Z</time>
      </trkpt>
      <trkpt lat="45.75803" lon="6.50752">
        <ele>1716</ele>
        <time>2022-07-24T05:31:45Z</time>
      </trkpt>
      <trkpt lat="45.75803" lon="6.50754">
        <ele>1716</ele>
        <time>2022-07-24T05:31:46Z</time>
      </trkpt>
      <trkpt lat="45.75803" lon="6.50755">
        <ele>1716</ele>
        <time>2022-07-24T05:31:47Z</time>
      </trkpt>
      <trkpt lat="45.75803" lon="6.50757">
        <ele>1716</ele>
        <time>2022-07-24T05:31:48Z</time>
      </trkpt>
      <trkpt lat="45.75803" lon="6.50759">
        <ele>1716</ele>
        <time>2022-07-24T05:31:49Z</time>
      </trkpt>
      <trkpt lat="45.75803" lon="6.5076">
        <ele>1716</ele>
        <time>2022-07-24T05:31:50Z</time>
      </trkpt>
      <trkpt lat="45.75803" lon="6.50761">
        <ele>1716</ele>
        <time>2022-07-24T05:31:51Z</time>
      </trkpt>
      <trkpt lat="45.75803" lon="6.50761">
        <ele>1716</ele>
        <time>2022-07-24T05:31:52Z</time>
      </trkpt>
      <trkpt lat="45.75803" lon="6.50761">
        <ele>1716</ele>
        <time>2022-07-24T05:31:53Z</time>
      </trkpt>
      <trkpt lat="45.75803" lon="6.50762">
        <ele>1717</ele>
        <time>2022-07-24T05:31:54Z</time>
      </trkpt>
      <trkpt lat="45.75803" lon="6.50763">
        <ele>1717</ele>
        <time>2022-07-24T05:31:55Z</time>
      </trkpt>
      <trkpt lat="45.75803" lon="6.50764">
        <ele>1717</ele>
        <time>2022-07-24T05:31:56Z</time>
      </trkpt>
      <trkpt lat="45.75803" lon="6.50765">
        <ele>1717</ele>
        <time>2022-07-24T05:31:57Z</time>
      </trkpt>
      <trkpt lat="45.75803" lon="6.50766">
        <ele>1717</ele>
        <time>2022-07-24T05:31:58Z</time>
      </trkpt>
      <trkpt lat="45.75804" lon="6.50767">
        <ele>1717</ele>
        <time>2022-07-24T05:31:59Z</time>
      </trkpt>
      <trkpt lat="45.75804" lon="6.50769">
        <ele>1717</ele>
        <time>2022-07-24T05:32:00Z</time>
      </trkpt>
      <trkpt lat="45.75804" lon="6.5077">
        <ele>1717</ele>
        <time>2022-07-24T05:32:01Z</time>
      </trkpt>
      <trkpt lat="45.75804" lon="6.50772">
        <ele>1717</ele>
        <time>2022-07-24T05:32:02Z</time>
      </trkpt>
      <trkpt lat="45.75805" lon="6.50774">
        <ele>1717</ele>
        <time>2022-07-24T05:32:03Z</time>
      </trkpt>
      <trkpt lat="45.75805" lon="6.50775">
        <ele>1717</ele>
        <time>2022-07-24T05:32:04Z</time>
      </trkpt>
      <trkpt lat="45.75805" lon="6.50777">
        <ele>1717</ele>
        <time>2022-07-24T05:32:05Z</time>
      </trkpt>
      <trkpt lat="45.75806" lon="6.50779">
        <ele>1717</ele>
        <time>2022-07-24T05:32:06Z</time>
      </trkpt>
      <trkpt lat="45.75806" lon="6.5078">
        <ele>1717</ele>
        <time>2022-07-24T05:32:07Z</time>
      </trkpt>
      <trkpt lat="45.75807" lon="6.50782">
        <ele>1717</ele>
        <time>2022-07-24T05:32:08Z</time>
      </trkpt>
      <trkpt lat="45.75807" lon="6.50783">
        <ele>1717</ele>
        <time>2022-07-24T05:32:09Z</time>
      </trkpt>
      <trkpt lat="45.75808" lon="6.50784">
        <ele>1717</ele>
        <time>2022-07-24T05:32:10Z</time>
      </trkpt>
      <trkpt lat="45.75808" lon="6.50786">
        <ele>1717</ele>
        <time>2022-07-24T05:32:11Z</time>
      </trkpt>
      <trkpt lat="45.75809" lon="6.50787">
        <ele>1717</ele>
        <time>2022-07-24T05:32:12Z</time>
      </trkpt>
      <trkpt lat="45.7581" lon="6.50788">
        <ele>1717</ele>
        <time>2022-07-24T05:32:13Z</time>
      </trkpt>
      <trkpt lat="45.75811" lon="6.5079">
        <ele>1718</ele>
        <time>2022-07-24T05:32:14Z</time>
      </trkpt>
      <trkpt lat="45.75811" lon="6.50791">
        <ele>1718</ele>
        <time>2022-07-24T05:32:15Z</time>
      </trkpt>
      <trkpt lat="45.75812" lon="6.50792">
        <ele>1718</ele>
        <time>2022-07-24T05:32:16Z</time>
      </trkpt>
      <trkpt lat="45.75813" lon="6.50793">
        <ele>1718</ele>
        <time>2022-07-24T05:32:17Z</time>
      </trkpt>
      <trkpt lat="45.75814" lon="6.50793">
        <ele>1718</ele>
        <time>2022-07-24T05:32:18Z</time>
      </trkpt>
      <trkpt lat="45.75814" lon="6.50794">
        <ele>1718</ele>
        <time>2022-07-24T05:32:19Z</time>
      </trkpt>
      <trkpt lat="45.75815" lon="6.50795">
        <ele>1718</ele>
        <time>2022-07-24T05:32:20Z</time>
      </trkpt>
      <trkpt lat="45.75816" lon="6.50795">
        <ele>1718</ele>
        <time>2022-07-24T05:32:21Z</time>
      </trkpt>
      <trkpt lat="45.75817" lon="6.50796">
        <ele>1718</ele>
        <time>2022-07-24T05:32:22Z</time>
      </trkpt>
      <trkpt lat="45.75817" lon="6.50797">
        <ele>1718</ele>
        <time>2022-07-24T05:32:23Z</time>
      </trkpt>
      <trkpt lat="45.75818" lon="6.50798">
        <ele>1718</ele>
        <time>2022-07-24T05:32:24Z</time>
      </trkpt>
      <trkpt lat="45.75819" lon="6.50799">
        <ele>1718</ele>
        <time>2022-07-24T05:32:25Z</time>
      </trkpt>
      <trkpt lat="45.75819" lon="6.508">
        <ele>1718</ele>
        <time>2022-07-24T05:32:26Z</time>
      </trkpt>
      <trkpt lat="45.7582" lon="6.508">
        <ele>1718</ele>
        <time>2022-07-24T05:32:27Z</time>
      </trkpt>
      <trkpt lat="45.75821" lon="6.50801">
        <ele>1718</ele>
        <time>2022-07-24T05:32:28Z</time>
      </trkpt>
      <trkpt lat="45.75822" lon="6.50801">
        <ele>1718</ele>
        <time>2022-07-24T05:32:29Z</time>
      </trkpt>
      <trkpt lat="45.75823" lon="6.50802">
        <ele>1718</ele>
        <time>2022-07-24T05:32:30Z</time>
      </trkpt>
      <trkpt lat="45.75824" lon="6.50803">
        <ele>1718</ele>
        <time>2022-07-24T05:32:31Z</time>
      </trkpt>
      <trkpt lat="45.75825" lon="6.50803">
        <ele>1718</ele>
        <time>2022-07-24T05:32:32Z</time>
      </trkpt>
      <trkpt lat="45.75827" lon="6.50805">
        <ele>1719</ele>
        <time>2022-07-24T05:32:40Z</time>
      </trkpt>
      <trkpt lat="45.75828" lon="6.50805">
        <ele>1719</ele>
        <time>2022-07-24T05:32:41Z</time>
      </trkpt>
      <trkpt lat="45.75829" lon="6.50806">
        <ele>1719</ele>
        <time>2022-07-24T05:32:42Z</time>
      </trkpt>
      <trkpt lat="45.7583" lon="6.50807">
        <ele>1719</ele>
        <time>2022-07-24T05:32:43Z</time>
      </trkpt>
      <trkpt lat="45.75831" lon="6.50807">
        <ele>1719</ele>
        <time>2022-07-24T05:32:44Z</time>
      </trkpt>
      <trkpt lat="45.75832" lon="6.50808">
        <ele>1719</ele>
        <time>2022-07-24T05:32:45Z</time>
      </trkpt>
      <trkpt lat="45.75833" lon="6.50809">
        <ele>1719</ele>
        <time>2022-07-24T05:32:46Z</time>
      </trkpt>
      <trkpt lat="45.75833" lon="6.50809">
        <ele>1719</ele>
        <time>2022-07-24T05:32:47Z</time>
      </trkpt>
      <trkpt lat="45.75834" lon="6.50809">
        <ele>1719</ele>
        <time>2022-07-24T05:32:48Z</time>
      </trkpt>
      <trkpt lat="45.75834" lon="6.50809">
        <ele>1719</ele>
        <time>2022-07-24T05:32:49Z</time>
      </trkpt>
      <trkpt lat="45.75834" lon="6.5081">
        <ele>1719</ele>
        <time>2022-07-24T05:32:50Z</time>
      </trkpt>
      <trkpt lat="45.75835" lon="6.5081">
        <ele>1719</ele>
        <time>2022-07-24T05:32:51Z</time>
      </trkpt>
      <trkpt lat="45.75836" lon="6.5081">
        <ele>1719</ele>
        <time>2022-07-24T05:32:52Z</time>
      </trkpt>
      <trkpt lat="45.75836" lon="6.50811">
        <ele>1719</ele>
        <time>2022-07-24T05:32:53Z</time>
      </trkpt>
      <trkpt lat="45.75837" lon="6.50811">
        <ele>1719</ele>
        <time>2022-07-24T05:32:54Z</time>
      </trkpt>
      <trkpt lat="45.75838" lon="6.50812">
        <ele>1719</ele>
        <time>2022-07-24T05:32:55Z</time>
      </trkpt>
      <trkpt lat="45.75839" lon="6.50812">
        <ele>1719</ele>
        <time>2022-07-24T05:32:56Z</time>
      </trkpt>
      <trkpt lat="45.7584" lon="6.50813">
        <ele>1719</ele>
        <time>2022-07-24T05:32:57Z</time>
      </trkpt>
      <trkpt lat="45.75841" lon="6.50814">
        <ele>1719</ele>
        <time>2022-07-24T05:32:58Z</time>
      </trkpt>
      <trkpt lat="45.75842" lon="6.50814">
        <ele>1719</ele>
        <time>2022-07-24T05:32:59Z</time>
      </trkpt>
      <trkpt lat="45.75843" lon="6.50815">
        <ele>1719</ele>
        <time>2022-07-24T05:33:00Z</time>
      </trkpt>
      <trkpt lat="45.75844" lon="6.50816">
        <ele>1719</ele>
        <time>2022-07-24T05:33:01Z</time>
      </trkpt>
      <trkpt lat="45.75845" lon="6.50816">
        <ele>1719</ele>
        <time>2022-07-24T05:33:02Z</time>
      </trkpt>
      <trkpt lat="45.75846" lon="6.50817">
        <ele>1719</ele>
        <time>2022-07-24T05:33:03Z</time>
      </trkpt>
      <trkpt lat="45.75846" lon="6.50817">
        <ele>1719</ele>
        <time>2022-07-24T05:33:04Z</time>
      </trkpt>
      <trkpt lat="45.75847" lon="6.50818">
        <ele>1719</ele>
        <time>2022-07-24T05:33:05Z</time>
      </trkpt>
      <trkpt lat="45.75847" lon="6.50818">
        <ele>1719</ele>
        <time>2022-07-24T05:33:06Z</time>
      </trkpt>
      <trkpt lat="45.75847" lon="6.50819">
        <ele>1719</ele>
        <time>2022-07-24T05:33:07Z</time>
      </trkpt>
      <trkpt lat="45.75848" lon="6.50819">
        <ele>1719</ele>
        <time>2022-07-24T05:33:08Z</time>
      </trkpt>
      <trkpt lat="45.75848" lon="6.5082">
        <ele>1719</ele>
        <time>2022-07-24T05:33:09Z</time>
      </trkpt>
      <trkpt lat="45.75849" lon="6.5082">
        <ele>1719</ele>
        <time>2022-07-24T05:33:10Z</time>
      </trkpt>
      <trkpt lat="45.75849" lon="6.5082">
        <ele>1719</ele>
        <time>2022-07-24T05:33:11Z</time>
      </trkpt>
      <trkpt lat="45.75849" lon="6.5082">
        <ele>1719</ele>
        <time>2022-07-24T05:33:12Z</time>
      </trkpt>
      <trkpt lat="45.7585" lon="6.5082">
        <ele>1719</ele>
        <time>2022-07-24T05:33:13Z</time>
      </trkpt>
      <trkpt lat="45.75851" lon="6.5082">
        <ele>1719</ele>
        <time>2022-07-24T05:33:14Z</time>
      </trkpt>
      <trkpt lat="45.75852" lon="6.5082">
        <ele>1719</ele>
        <time>2022-07-24T05:33:15Z</time>
      </trkpt>
      <trkpt lat="45.75853" lon="6.50819">
        <ele>1719</ele>
        <time>2022-07-24T05:33:16Z</time>
      </trkpt>
      <trkpt lat="45.75854" lon="6.50819">
        <ele>1719</ele>
        <time>2022-07-24T05:33:17Z</time>
      </trkpt>
      <trkpt lat="45.75855" lon="6.50818">
        <ele>1719</ele>
        <time>2022-07-24T05:33:18Z</time>
      </trkpt>
      <trkpt lat="45.75856" lon="6.50818">
        <ele>1719</ele>
        <time>2022-07-24T05:33:19Z</time>
      </trkpt>
      <trkpt lat="45.75857" lon="6.50817">
        <ele>1719</ele>
        <time>2022-07-24T05:33:20Z</time>
      </trkpt>
      <trkpt lat="45.75858" lon="6.50816">
        <ele>1719</ele>
        <time>2022-07-24T05:33:21Z</time>
      </trkpt>
      <trkpt lat="45.75859" lon="6.50816">
        <ele>1719</ele>
        <time>2022-07-24T05:33:22Z</time>
      </trkpt>
      <trkpt lat="45.7586" lon="6.50815">
        <ele>1719</ele>
        <time>2022-07-24T05:33:23Z</time>
      </trkpt>
      <trkpt lat="45.75861" lon="6.50814">
        <ele>1719</ele>
        <time>2022-07-24T05:33:24Z</time>
      </trkpt>
      <trkpt lat="45.75862" lon="6.50814">
        <ele>1719</ele>
        <time>2022-07-24T05:33:25Z</time>
      </trkpt>
      <trkpt lat="45.75863" lon="6.50813">
        <ele>1719</ele>
        <time>2022-07-24T05:33:26Z</time>
      </trkpt>
      <trkpt lat="45.75864" lon="6.50813">
        <ele>1719</ele>
        <time>2022-07-24T05:33:27Z</time>
      </trkpt>
      <trkpt lat="45.75865" lon="6.50812">
        <ele>1719</ele>
        <time>2022-07-24T05:33:28Z</time>
      </trkpt>
      <trkpt lat="45.75867" lon="6.50811">
        <ele>1719</ele>
        <time>2022-07-24T05:33:29Z</time>
      </trkpt>
      <trkpt lat="45.75868" lon="6.50811">
        <ele>1719</ele>
        <time>2022-07-24T05:33:30Z</time>
      </trkpt>
      <trkpt lat="45.75869" lon="6.5081">
        <ele>1719</ele>
        <time>2022-07-24T05:33:31Z</time>
      </trkpt>
      <trkpt lat="45.7587" lon="6.5081">
        <ele>1719</ele>
        <time>2022-07-24T05:33:32Z</time>
      </trkpt>
      <trkpt lat="45.75871" lon="6.50809">
        <ele>1719</ele>
        <time>2022-07-24T05:33:33Z</time>
      </trkpt>
      <trkpt lat="45.75873" lon="6.50808">
        <ele>1719</ele>
        <time>2022-07-24T05:33:34Z</time>
      </trkpt>
      <trkpt lat="45.75874" lon="6.50807">
        <ele>1719</ele>
        <time>2022-07-24T05:33:35Z</time>
      </trkpt>
      <trkpt lat="45.75875" lon="6.50806">
        <ele>1719</ele>
        <time>2022-07-24T05:33:36Z</time>
      </trkpt>
      <trkpt lat="45.75876" lon="6.50805">
        <ele>1719</ele>
        <time>2022-07-24T05:33:37Z</time>
      </trkpt>
      <trkpt lat="45.75877" lon="6.50804">
        <ele>1719</ele>
        <time>2022-07-24T05:33:38Z</time>
      </trkpt>
      <trkpt lat="45.75878" lon="6.50803">
        <ele>1719</ele>
        <time>2022-07-24T05:33:39Z</time>
      </trkpt>
      <trkpt lat="45.75879" lon="6.50802">
        <ele>1719</ele>
        <time>2022-07-24T05:33:40Z</time>
      </trkpt>
      <trkpt lat="45.7588" lon="6.50801">
        <ele>1719</ele>
        <time>2022-07-24T05:33:41Z</time>
      </trkpt>
      <trkpt lat="45.75881" lon="6.508">
        <ele>1719</ele>
        <time>2022-07-24T05:33:42Z</time>
      </trkpt>
      <trkpt lat="45.75882" lon="6.50799">
        <ele>1719</ele>
        <time>2022-07-24T05:33:43Z</time>
      </trkpt>
      <trkpt lat="45.75882" lon="6.50798">
        <ele>1719</ele>
        <time>2022-07-24T05:33:44Z</time>
      </trkpt>
      <trkpt lat="45.75883" lon="6.50797">
        <ele>1719</ele>
        <time>2022-07-24T05:33:45Z</time>
      </trkpt>
      <trkpt lat="45.75884" lon="6.50796">
        <ele>1719</ele>
        <time>2022-07-24T05:33:46Z</time>
      </trkpt>
      <trkpt lat="45.75885" lon="6.50795">
        <ele>1719</ele>
        <time>2022-07-24T05:33:47Z</time>
      </trkpt>
      <trkpt lat="45.75886" lon="6.50794">
        <ele>1719</ele>
        <time>2022-07-24T05:33:48Z</time>
      </trkpt>
      <trkpt lat="45.75887" lon="6.50793">
        <ele>1719</ele>
        <time>2022-07-24T05:33:49Z</time>
      </trkpt>
      <trkpt lat="45.75888" lon="6.50792">
        <ele>1719</ele>
        <time>2022-07-24T05:33:50Z</time>
      </trkpt>
      <trkpt lat="45.75888" lon="6.50791">
        <ele>1719</ele>
        <time>2022-07-24T05:33:51Z</time>
      </trkpt>
      <trkpt lat="45.75889" lon="6.5079">
        <ele>1719</ele>
        <time>2022-07-24T05:33:52Z</time>
      </trkpt>
      <trkpt lat="45.7589" lon="6.50789">
        <ele>1719</ele>
        <time>2022-07-24T05:33:53Z</time>
      </trkpt>
      <trkpt lat="45.75891" lon="6.50788">
        <ele>1719</ele>
        <time>2022-07-24T05:33:54Z</time>
      </trkpt>
      <trkpt lat="45.75892" lon="6.50787">
        <ele>1719</ele>
        <time>2022-07-24T05:33:55Z</time>
      </trkpt>
      <trkpt lat="45.75893" lon="6.50787">
        <ele>1719</ele>
        <time>2022-07-24T05:33:56Z</time>
      </trkpt>
      <trkpt lat="45.75894" lon="6.50786">
        <ele>1719</ele>
        <time>2022-07-24T05:33:57Z</time>
      </trkpt>
      <trkpt lat="45.75895" lon="6.50785">
        <ele>1719</ele>
        <time>2022-07-24T05:33:58Z</time>
      </trkpt>
      <trkpt lat="45.75896" lon="6.50785">
        <ele>1719</ele>
        <time>2022-07-24T05:33:59Z</time>
      </trkpt>
      <trkpt lat="45.75898" lon="6.50784">
        <ele>1719</ele>
        <time>2022-07-24T05:34:00Z</time>
      </trkpt>
      <trkpt lat="45.75899" lon="6.50784">
        <ele>1719</ele>
        <time>2022-07-24T05:34:01Z</time>
      </trkpt>
      <trkpt lat="45.759" lon="6.50783">
        <ele>1719</ele>
        <time>2022-07-24T05:34:02Z</time>
      </trkpt>
      <trkpt lat="45.75901" lon="6.50782">
        <ele>1719</ele>
        <time>2022-07-24T05:34:03Z</time>
      </trkpt>
      <trkpt lat="45.75902" lon="6.50782">
        <ele>1719</ele>
        <time>2022-07-24T05:34:04Z</time>
      </trkpt>
      <trkpt lat="45.75903" lon="6.50781">
        <ele>1719</ele>
        <time>2022-07-24T05:34:05Z</time>
      </trkpt>
      <trkpt lat="45.75905" lon="6.5078">
        <ele>1719</ele>
        <time>2022-07-24T05:34:06Z</time>
      </trkpt>
      <trkpt lat="45.75906" lon="6.50779">
        <ele>1719</ele>
        <time>2022-07-24T05:34:07Z</time>
      </trkpt>
      <trkpt lat="45.75907" lon="6.50778">
        <ele>1719</ele>
        <time>2022-07-24T05:34:08Z</time>
      </trkpt>
      <trkpt lat="45.75908" lon="6.50777">
        <ele>1719</ele>
        <time>2022-07-24T05:34:09Z</time>
      </trkpt>
      <trkpt lat="45.75909" lon="6.50776">
        <ele>1719</ele>
        <time>2022-07-24T05:34:10Z</time>
      </trkpt>
      <trkpt lat="45.7591" lon="6.50775">
        <ele>1719</ele>
        <time>2022-07-24T05:34:11Z</time>
      </trkpt>
      <trkpt lat="45.75911" lon="6.50773">
        <ele>1719</ele>
        <time>2022-07-24T05:34:12Z</time>
      </trkpt>
      <trkpt lat="45.75911" lon="6.50772">
        <ele>1719</ele>
        <time>2022-07-24T05:34:13Z</time>
      </trkpt>
      <trkpt lat="45.75912" lon="6.50771">
        <ele>1719</ele>
        <time>2022-07-24T05:34:14Z</time>
      </trkpt>
      <trkpt lat="45.75913" lon="6.5077">
        <ele>1719</ele>
        <time>2022-07-24T05:34:15Z</time>
      </trkpt>
      <trkpt lat="45.75914" lon="6.50768">
        <ele>1719</ele>
        <time>2022-07-24T05:34:16Z</time>
      </trkpt>
      <trkpt lat="45.75914" lon="6.50767">
        <ele>1719</ele>
        <time>2022-07-24T05:34:17Z</time>
      </trkpt>
      <trkpt lat="45.75915" lon="6.50766">
        <ele>1719</ele>
        <time>2022-07-24T05:34:18Z</time>
      </trkpt>
      <trkpt lat="45.75916" lon="6.50764">
        <ele>1719</ele>
        <time>2022-07-24T05:34:19Z</time>
      </trkpt>
      <trkpt lat="45.75917" lon="6.50763">
        <ele>1719</ele>
        <time>2022-07-24T05:34:20Z</time>
      </trkpt>
      <trkpt lat="45.75917" lon="6.50762">
        <ele>1719</ele>
        <time>2022-07-24T05:34:21Z</time>
      </trkpt>
      <trkpt lat="45.75918" lon="6.50761">
        <ele>1719</ele>
        <time>2022-07-24T05:34:22Z</time>
      </trkpt>
      <trkpt lat="45.75919" lon="6.5076">
        <ele>1719</ele>
        <time>2022-07-24T05:34:23Z</time>
      </trkpt>
      <trkpt lat="45.7592" lon="6.50759">
        <ele>1719</ele>
        <time>2022-07-24T05:34:24Z</time>
      </trkpt>
      <trkpt lat="45.75921" lon="6.50759">
        <ele>1719</ele>
        <time>2022-07-24T05:34:25Z</time>
      </trkpt>
      <trkpt lat="45.75922" lon="6.50758">
        <ele>1719</ele>
        <time>2022-07-24T05:34:26Z</time>
      </trkpt>
      <trkpt lat="45.75923" lon="6.50757">
        <ele>1719</ele>
        <time>2022-07-24T05:34:27Z</time>
      </trkpt>
      <trkpt lat="45.75924" lon="6.50756">
        <ele>1719</ele>
        <time>2022-07-24T05:34:28Z</time>
      </trkpt>
      <trkpt lat="45.75925" lon="6.50756">
        <ele>1719</ele>
        <time>2022-07-24T05:34:29Z</time>
      </trkpt>
      <trkpt lat="45.75926" lon="6.50755">
        <ele>1719</ele>
        <time>2022-07-24T05:34:30Z</time>
      </trkpt>
      <trkpt lat="45.75927" lon="6.50754">
        <ele>1719</ele>
        <time>2022-07-24T05:34:31Z</time>
      </trkpt>
      <trkpt lat="45.75928" lon="6.50754">
        <ele>1719</ele>
        <time>2022-07-24T05:34:32Z</time>
      </trkpt>
      <trkpt lat="45.75929" lon="6.50753">
        <ele>1719</ele>
        <time>2022-07-24T05:34:33Z</time>
      </trkpt>
      <trkpt lat="45.7593" lon="6.50752">
        <ele>1720</ele>
        <time>2022-07-24T05:34:34Z</time>
      </trkpt>
      <trkpt lat="45.75931" lon="6.50751">
        <ele>1720</ele>
        <time>2022-07-24T05:34:35Z</time>
      </trkpt>
      <trkpt lat="45.75932" lon="6.5075">
        <ele>1720</ele>
        <time>2022-07-24T05:34:36Z</time>
      </trkpt>
      <trkpt lat="45.75933" lon="6.50748">
        <ele>1720</ele>
        <time>2022-07-24T05:34:37Z</time>
      </trkpt>
      <trkpt lat="45.75934" lon="6.50747">
        <ele>1720</ele>
        <time>2022-07-24T05:34:38Z</time>
      </trkpt>
      <trkpt lat="45.75935" lon="6.50747">
        <ele>1720</ele>
        <time>2022-07-24T05:34:39Z</time>
      </trkpt>
      <trkpt lat="45.75936" lon="6.50746">
        <ele>1720</ele>
        <time>2022-07-24T05:34:40Z</time>
      </trkpt>
      <trkpt lat="45.75937" lon="6.50746">
        <ele>1720</ele>
        <time>2022-07-24T05:34:41Z</time>
      </trkpt>
      <trkpt lat="45.75938" lon="6.50746">
        <ele>1720</ele>
        <time>2022-07-24T05:34:42Z</time>
      </trkpt>
      <trkpt lat="45.75939" lon="6.50746">
        <ele>1720</ele>
        <time>2022-07-24T05:34:43Z</time>
      </trkpt>
      <trkpt lat="45.75941" lon="6.50746">
        <ele>1720</ele>
        <time>2022-07-24T05:34:44Z</time>
      </trkpt>
      <trkpt lat="45.75942" lon="6.50745">
        <ele>1720</ele>
        <time>2022-07-24T05:34:45Z</time>
      </trkpt>
      <trkpt lat="45.75943" lon="6.50745">
        <ele>1720</ele>
        <time>2022-07-24T05:34:46Z</time>
      </trkpt>
      <trkpt lat="45.75944" lon="6.50745">
        <ele>1720</ele>
        <time>2022-07-24T05:34:47Z</time>
      </trkpt>
      <trkpt lat="45.75945" lon="6.50745">
        <ele>1720</ele>
        <time>2022-07-24T05:34:48Z</time>
      </trkpt>
      <trkpt lat="45.75946" lon="6.50745">
        <ele>1720</ele>
        <time>2022-07-24T05:34:49Z</time>
      </trkpt>
      <trkpt lat="45.75946" lon="6.50744">
        <ele>1720</ele>
        <time>2022-07-24T05:34:50Z</time>
      </trkpt>
      <trkpt lat="45.75947" lon="6.50744">
        <ele>1720</ele>
        <time>2022-07-24T05:34:51Z</time>
      </trkpt>
      <trkpt lat="45.75948" lon="6.50744">
        <ele>1720</ele>
        <time>2022-07-24T05:34:52Z</time>
      </trkpt>
      <trkpt lat="45.75949" lon="6.50745">
        <ele>1720</ele>
        <time>2022-07-24T05:34:53Z</time>
      </trkpt>
      <trkpt lat="45.7595" lon="6.50745">
        <ele>1720</ele>
        <time>2022-07-24T05:34:54Z</time>
      </trkpt>
      <trkpt lat="45.75951" lon="6.50746">
        <ele>1720</ele>
        <time>2022-07-24T05:34:55Z</time>
      </trkpt>
      <trkpt lat="45.75952" lon="6.50746">
        <ele>1720</ele>
        <time>2022-07-24T05:34:56Z</time>
      </trkpt>
      <trkpt lat="45.75953" lon="6.50747">
        <ele>1720</ele>
        <time>2022-07-24T05:34:57Z</time>
      </trkpt>
      <trkpt lat="45.75954" lon="6.50748">
        <ele>1720</ele>
        <time>2022-07-24T05:34:58Z</time>
      </trkpt>
      <trkpt lat="45.75956" lon="6.50748">
        <ele>1720</ele>
        <time>2022-07-24T05:34:59Z</time>
      </trkpt>
      <trkpt lat="45.75957" lon="6.50749">
        <ele>1720</ele>
        <time>2022-07-24T05:35:00Z</time>
      </trkpt>
      <trkpt lat="45.75958" lon="6.5075">
        <ele>1720</ele>
        <time>2022-07-24T05:35:01Z</time>
      </trkpt>
      <trkpt lat="45.75959" lon="6.50751">
        <ele>1720</ele>
        <time>2022-07-24T05:35:02Z</time>
      </trkpt>
      <trkpt lat="45.7596" lon="6.50752">
        <ele>1720</ele>
        <time>2022-07-24T05:35:03Z</time>
      </trkpt>
      <trkpt lat="45.75961" lon="6.50752">
        <ele>1720</ele>
        <time>2022-07-24T05:35:04Z</time>
      </trkpt>
      <trkpt lat="45.75962" lon="6.50753">
        <ele>1720</ele>
        <time>2022-07-24T05:35:05Z</time>
      </trkpt>
      <trkpt lat="45.75964" lon="6.50754">
        <ele>1720</ele>
        <time>2022-07-24T05:35:06Z</time>
      </trkpt>
      <trkpt lat="45.75965" lon="6.50755">
        <ele>1720</ele>
        <time>2022-07-24T05:35:07Z</time>
      </trkpt>
      <trkpt lat="45.75966" lon="6.50756">
        <ele>1720</ele>
        <time>2022-07-24T05:35:08Z</time>
      </trkpt>
      <trkpt lat="45.75967" lon="6.50756">
        <ele>1720</ele>
        <time>2022-07-24T05:35:09Z</time>
      </trkpt>
      <trkpt lat="45.75968" lon="6.50757">
        <ele>1720</ele>
        <time>2022-07-24T05:35:10Z</time>
      </trkpt>
      <trkpt lat="45.7597" lon="6.50757">
        <ele>1720</ele>
        <time>2022-07-24T05:35:11Z</time>
      </trkpt>
      <trkpt lat="45.75971" lon="6.50758">
        <ele>1720</ele>
        <time>2022-07-24T05:35:12Z</time>
      </trkpt>
      <trkpt lat="45.75972" lon="6.50759">
        <ele>1720</ele>
        <time>2022-07-24T05:35:13Z</time>
      </trkpt>
      <trkpt lat="45.75973" lon="6.50759">
        <ele>1721</ele>
        <time>2022-07-24T05:35:14Z</time>
      </trkpt>
      <trkpt lat="45.75974" lon="6.5076">
        <ele>1721</ele>
        <time>2022-07-24T05:35:15Z</time>
      </trkpt>
      <trkpt lat="45.75975" lon="6.5076">
        <ele>1721</ele>
        <time>2022-07-24T05:35:16Z</time>
      </trkpt>
      <trkpt lat="45.75976" lon="6.50761">
        <ele>1721</ele>
        <time>2022-07-24T05:35:17Z</time>
      </trkpt>
      <trkpt lat="45.75978" lon="6.50761">
        <ele>1721</ele>
        <time>2022-07-24T05:35:18Z</time>
      </trkpt>
      <trkpt lat="45.75979" lon="6.50761">
        <ele>1721</ele>
        <time>2022-07-24T05:35:19Z</time>
      </trkpt>
      <trkpt lat="45.7598" lon="6.50762">
        <ele>1721</ele>
        <time>2022-07-24T05:35:20Z</time>
      </trkpt>
      <trkpt lat="45.75981" lon="6.50762">
        <ele>1721</ele>
        <time>2022-07-24T05:35:21Z</time>
      </trkpt>
      <trkpt lat="45.75982" lon="6.50762">
        <ele>1721</ele>
        <time>2022-07-24T05:35:22Z</time>
      </trkpt>
      <trkpt lat="45.75983" lon="6.50761">
        <ele>1721</ele>
        <time>2022-07-24T05:35:23Z</time>
      </trkpt>
      <trkpt lat="45.75984" lon="6.50761">
        <ele>1721</ele>
        <time>2022-07-24T05:35:24Z</time>
      </trkpt>
      <trkpt lat="45.75985" lon="6.5076">
        <ele>1721</ele>
        <time>2022-07-24T05:35:25Z</time>
      </trkpt>
      <trkpt lat="45.75986" lon="6.5076">
        <ele>1721</ele>
        <time>2022-07-24T05:35:26Z</time>
      </trkpt>
      <trkpt lat="45.75987" lon="6.5076">
        <ele>1721</ele>
        <time>2022-07-24T05:35:27Z</time>
      </trkpt>
      <trkpt lat="45.75988" lon="6.50759">
        <ele>1721</ele>
        <time>2022-07-24T05:35:28Z</time>
      </trkpt>
      <trkpt lat="45.75989" lon="6.50759">
        <ele>1721</ele>
        <time>2022-07-24T05:35:29Z</time>
      </trkpt>
      <trkpt lat="45.7599" lon="6.50759">
        <ele>1721</ele>
        <time>2022-07-24T05:35:30Z</time>
      </trkpt>
      <trkpt lat="45.75991" lon="6.50758">
        <ele>1721</ele>
        <time>2022-07-24T05:35:31Z</time>
      </trkpt>
      <trkpt lat="45.75992" lon="6.50757">
        <ele>1721</ele>
        <time>2022-07-24T05:35:32Z</time>
      </trkpt>
      <trkpt lat="45.75993" lon="6.50757">
        <ele>1721</ele>
        <time>2022-07-24T05:35:33Z</time>
      </trkpt>
      <trkpt lat="45.75994" lon="6.50756">
        <ele>1722</ele>
        <time>2022-07-24T05:35:34Z</time>
      </trkpt>
      <trkpt lat="45.75995" lon="6.50755">
        <ele>1722</ele>
        <time>2022-07-24T05:35:35Z</time>
      </trkpt>
      <trkpt lat="45.75996" lon="6.50754">
        <ele>1722</ele>
        <time>2022-07-24T05:35:36Z</time>
      </trkpt>
      <trkpt lat="45.75997" lon="6.50754">
        <ele>1722</ele>
        <time>2022-07-24T05:35:37Z</time>
      </trkpt>
      <trkpt lat="45.75998" lon="6.50753">
        <ele>1722</ele>
        <time>2022-07-24T05:35:38Z</time>
      </trkpt>
      <trkpt lat="45.75999" lon="6.50752">
        <ele>1722</ele>
        <time>2022-07-24T05:35:39Z</time>
      </trkpt>
      <trkpt lat="45.75999" lon="6.50751">
        <ele>1722</ele>
        <time>2022-07-24T05:35:40Z</time>
      </trkpt>
      <trkpt lat="45.76" lon="6.5075">
        <ele>1722</ele>
        <time>2022-07-24T05:35:41Z</time>
      </trkpt>
      <trkpt lat="45.76001" lon="6.5075">
        <ele>1722</ele>
        <time>2022-07-24T05:35:42Z</time>
      </trkpt>
      <trkpt lat="45.76002" lon="6.50749">
        <ele>1722</ele>
        <time>2022-07-24T05:35:43Z</time>
      </trkpt>
      <trkpt lat="45.76003" lon="6.50748">
        <ele>1722</ele>
        <time>2022-07-24T05:35:44Z</time>
      </trkpt>
      <trkpt lat="45.76005" lon="6.50748">
        <ele>1722</ele>
        <time>2022-07-24T05:35:45Z</time>
      </trkpt>
      <trkpt lat="45.76006" lon="6.50747">
        <ele>1722</ele>
        <time>2022-07-24T05:35:46Z</time>
      </trkpt>
      <trkpt lat="45.76007" lon="6.50747">
        <ele>1722</ele>
        <time>2022-07-24T05:35:47Z</time>
      </trkpt>
      <trkpt lat="45.76008" lon="6.50746">
        <ele>1722</ele>
        <time>2022-07-24T05:35:48Z</time>
      </trkpt>
      <trkpt lat="45.76009" lon="6.50746">
        <ele>1722</ele>
        <time>2022-07-24T05:35:49Z</time>
      </trkpt>
      <trkpt lat="45.7601" lon="6.50745">
        <ele>1722</ele>
        <time>2022-07-24T05:35:50Z</time>
      </trkpt>
      <trkpt lat="45.76012" lon="6.50745">
        <ele>1722</ele>
        <time>2022-07-24T05:35:51Z</time>
      </trkpt>
      <trkpt lat="45.76013" lon="6.50745">
        <ele>1722</ele>
        <time>2022-07-24T05:35:52Z</time>
      </trkpt>
      <trkpt lat="45.76014" lon="6.50745">
        <ele>1722</ele>
        <time>2022-07-24T05:35:53Z</time>
      </trkpt>
      <trkpt lat="45.76015" lon="6.50745">
        <ele>1722</ele>
        <time>2022-07-24T05:35:54Z</time>
      </trkpt>
      <trkpt lat="45.76016" lon="6.50745">
        <ele>1722</ele>
        <time>2022-07-24T05:35:55Z</time>
      </trkpt>
      <trkpt lat="45.76018" lon="6.50745">
        <ele>1722</ele>
        <time>2022-07-24T05:35:56Z</time>
      </trkpt>
      <trkpt lat="45.76019" lon="6.50746">
        <ele>1722</ele>
        <time>2022-07-24T05:35:57Z</time>
      </trkpt>
      <trkpt lat="45.7602" lon="6.50746">
        <ele>1722</ele>
        <time>2022-07-24T05:35:58Z</time>
      </trkpt>
      <trkpt lat="45.76021" lon="6.50747">
        <ele>1722</ele>
        <time>2022-07-24T05:35:59Z</time>
      </trkpt>
      <trkpt lat="45.76022" lon="6.50748">
        <ele>1722</ele>
        <time>2022-07-24T05:36:00Z</time>
      </trkpt>
      <trkpt lat="45.76023" lon="6.50749">
        <ele>1722</ele>
        <time>2022-07-24T05:36:01Z</time>
      </trkpt>
      <trkpt lat="45.76025" lon="6.5075">
        <ele>1722</ele>
        <time>2022-07-24T05:36:02Z</time>
      </trkpt>
      <trkpt lat="45.76026" lon="6.50751">
        <ele>1722</ele>
        <time>2022-07-24T05:36:03Z</time>
      </trkpt>
      <trkpt lat="45.76027" lon="6.50752">
        <ele>1722</ele>
        <time>2022-07-24T05:36:04Z</time>
      </trkpt>
      <trkpt lat="45.76028" lon="6.50753">
        <ele>1722</ele>
        <time>2022-07-24T05:36:05Z</time>
      </trkpt>
      <trkpt lat="45.76029" lon="6.50754">
        <ele>1722</ele>
        <time>2022-07-24T05:36:06Z</time>
      </trkpt>
      <trkpt lat="45.7603" lon="6.50755">
        <ele>1722</ele>
        <time>2022-07-24T05:36:07Z</time>
      </trkpt>
      <trkpt lat="45.76031" lon="6.50755">
        <ele>1722</ele>
        <time>2022-07-24T05:36:08Z</time>
      </trkpt>
      <trkpt lat="45.76033" lon="6.50756">
        <ele>1722</ele>
        <time>2022-07-24T05:36:09Z</time>
      </trkpt>
      <trkpt lat="45.76034" lon="6.50757">
        <ele>1722</ele>
        <time>2022-07-24T05:36:10Z</time>
      </trkpt>
      <trkpt lat="45.76035" lon="6.50758">
        <ele>1722</ele>
        <time>2022-07-24T05:36:11Z</time>
      </trkpt>
      <trkpt lat="45.76036" lon="6.50758">
        <ele>1722</ele>
        <time>2022-07-24T05:36:12Z</time>
      </trkpt>
      <trkpt lat="45.76037" lon="6.50759">
        <ele>1722</ele>
        <time>2022-07-24T05:36:13Z</time>
      </trkpt>
      <trkpt lat="45.76038" lon="6.5076">
        <ele>1722</ele>
        <time>2022-07-24T05:36:14Z</time>
      </trkpt>
      <trkpt lat="45.7604" lon="6.5076">
        <ele>1722</ele>
        <time>2022-07-24T05:36:15Z</time>
      </trkpt>
      <trkpt lat="45.76041" lon="6.50761">
        <ele>1722</ele>
        <time>2022-07-24T05:36:16Z</time>
      </trkpt>
      <trkpt lat="45.76042" lon="6.50762">
        <ele>1722</ele>
        <time>2022-07-24T05:36:17Z</time>
      </trkpt>
      <trkpt lat="45.76043" lon="6.50763">
        <ele>1722</ele>
        <time>2022-07-24T05:36:18Z</time>
      </trkpt>
      <trkpt lat="45.76044" lon="6.50764">
        <ele>1722</ele>
        <time>2022-07-24T05:36:19Z</time>
      </trkpt>
      <trkpt lat="45.76046" lon="6.50764">
        <ele>1722</ele>
        <time>2022-07-24T05:36:20Z</time>
      </trkpt>
      <trkpt lat="45.76047" lon="6.50765">
        <ele>1722</ele>
        <time>2022-07-24T05:36:21Z</time>
      </trkpt>
      <trkpt lat="45.76048" lon="6.50766">
        <ele>1722</ele>
        <time>2022-07-24T05:36:22Z</time>
      </trkpt>
      <trkpt lat="45.76049" lon="6.50767">
        <ele>1722</ele>
        <time>2022-07-24T05:36:23Z</time>
      </trkpt>
      <trkpt lat="45.7605" lon="6.50768">
        <ele>1722</ele>
        <time>2022-07-24T05:36:24Z</time>
      </trkpt>
      <trkpt lat="45.76051" lon="6.50769">
        <ele>1722</ele>
        <time>2022-07-24T05:36:25Z</time>
      </trkpt>
      <trkpt lat="45.76052" lon="6.5077">
        <ele>1722</ele>
        <time>2022-07-24T05:36:26Z</time>
      </trkpt>
      <trkpt lat="45.76053" lon="6.50771">
        <ele>1722</ele>
        <time>2022-07-24T05:36:27Z</time>
      </trkpt>
      <trkpt lat="45.76054" lon="6.50772">
        <ele>1722</ele>
        <time>2022-07-24T05:36:28Z</time>
      </trkpt>
      <trkpt lat="45.76055" lon="6.50773">
        <ele>1722</ele>
        <time>2022-07-24T05:36:29Z</time>
      </trkpt>
      <trkpt lat="45.76056" lon="6.50774">
        <ele>1722</ele>
        <time>2022-07-24T05:36:30Z</time>
      </trkpt>
      <trkpt lat="45.76057" lon="6.50775">
        <ele>1722</ele>
        <time>2022-07-24T05:36:31Z</time>
      </trkpt>
      <trkpt lat="45.76058" lon="6.50776">
        <ele>1722</ele>
        <time>2022-07-24T05:36:32Z</time>
      </trkpt>
      <trkpt lat="45.76059" lon="6.50777">
        <ele>1722</ele>
        <time>2022-07-24T05:36:33Z</time>
      </trkpt>
      <trkpt lat="45.7606" lon="6.50778">
        <ele>1722</ele>
        <time>2022-07-24T05:36:34Z</time>
      </trkpt>
      <trkpt lat="45.76061" lon="6.50779">
        <ele>1722</ele>
        <time>2022-07-24T05:36:35Z</time>
      </trkpt>
      <trkpt lat="45.76062" lon="6.50781">
        <ele>1722</ele>
        <time>2022-07-24T05:36:36Z</time>
      </trkpt>
      <trkpt lat="45.76062" lon="6.50782">
        <ele>1722</ele>
        <time>2022-07-24T05:36:37Z</time>
      </trkpt>
      <trkpt lat="45.76063" lon="6.50783">
        <ele>1722</ele>
        <time>2022-07-24T05:36:38Z</time>
      </trkpt>
      <trkpt lat="45.76064" lon="6.50785">
        <ele>1722</ele>
        <time>2022-07-24T05:36:39Z</time>
      </trkpt>
      <trkpt lat="45.76064" lon="6.50786">
        <ele>1722</ele>
        <time>2022-07-24T05:36:40Z</time>
      </trkpt>
      <trkpt lat="45.76065" lon="6.50788">
        <ele>1722</ele>
        <time>2022-07-24T05:36:41Z</time>
      </trkpt>
      <trkpt lat="45.76066" lon="6.50789">
        <ele>1722</ele>
        <time>2022-07-24T05:36:42Z</time>
      </trkpt>
      <trkpt lat="45.76066" lon="6.50791">
        <ele>1722</ele>
        <time>2022-07-24T05:36:43Z</time>
      </trkpt>
      <trkpt lat="45.76067" lon="6.50793">
        <ele>1722</ele>
        <time>2022-07-24T05:36:44Z</time>
      </trkpt>
      <trkpt lat="45.76067" lon="6.50794">
        <ele>1722</ele>
        <time>2022-07-24T05:36:45Z</time>
      </trkpt>
      <trkpt lat="45.76068" lon="6.50796">
        <ele>1722</ele>
        <time>2022-07-24T05:36:46Z</time>
      </trkpt>
      <trkpt lat="45.76068" lon="6.50798">
        <ele>1722</ele>
        <time>2022-07-24T05:36:47Z</time>
      </trkpt>
      <trkpt lat="45.76069" lon="6.50799">
        <ele>1722</ele>
        <time>2022-07-24T05:36:48Z</time>
      </trkpt>
      <trkpt lat="45.76069" lon="6.50801">
        <ele>1722</ele>
        <time>2022-07-24T05:36:49Z</time>
      </trkpt>
      <trkpt lat="45.76069" lon="6.50803">
        <ele>1722</ele>
        <time>2022-07-24T05:36:50Z</time>
      </trkpt>
      <trkpt lat="45.76069" lon="6.50804">
        <ele>1722</ele>
        <time>2022-07-24T05:36:51Z</time>
      </trkpt>
      <trkpt lat="45.7607" lon="6.50806">
        <ele>1722</ele>
        <time>2022-07-24T05:36:52Z</time>
      </trkpt>
      <trkpt lat="45.7607" lon="6.50808">
        <ele>1722</ele>
        <time>2022-07-24T05:36:53Z</time>
      </trkpt>
      <trkpt lat="45.7607" lon="6.50809">
        <ele>1722</ele>
        <time>2022-07-24T05:36:54Z</time>
      </trkpt>
      <trkpt lat="45.7607" lon="6.50811">
        <ele>1722</ele>
        <time>2022-07-24T05:36:55Z</time>
      </trkpt>
      <trkpt lat="45.76071" lon="6.50812">
        <ele>1722</ele>
        <time>2022-07-24T05:36:56Z</time>
      </trkpt>
      <trkpt lat="45.76071" lon="6.50814">
        <ele>1722</ele>
        <time>2022-07-24T05:36:57Z</time>
      </trkpt>
      <trkpt lat="45.76071" lon="6.50816">
        <ele>1722</ele>
        <time>2022-07-24T05:36:58Z</time>
      </trkpt>
      <trkpt lat="45.76071" lon="6.50817">
        <ele>1722</ele>
        <time>2022-07-24T05:36:59Z</time>
      </trkpt>
      <trkpt lat="45.76072" lon="6.50819">
        <ele>1722</ele>
        <time>2022-07-24T05:37:00Z</time>
      </trkpt>
      <trkpt lat="45.76072" lon="6.5082">
        <ele>1722</ele>
        <time>2022-07-24T05:37:01Z</time>
      </trkpt>
      <trkpt lat="45.76072" lon="6.50822">
        <ele>1722</ele>
        <time>2022-07-24T05:37:02Z</time>
      </trkpt>
      <trkpt lat="45.76072" lon="6.50824">
        <ele>1722</ele>
        <time>2022-07-24T05:37:03Z</time>
      </trkpt>
      <trkpt lat="45.76072" lon="6.50825">
        <ele>1723</ele>
        <time>2022-07-24T05:37:04Z</time>
      </trkpt>
      <trkpt lat="45.76072" lon="6.50827">
        <ele>1723</ele>
        <time>2022-07-24T05:37:05Z</time>
      </trkpt>
      <trkpt lat="45.76072" lon="6.50828">
        <ele>1723</ele>
        <time>2022-07-24T05:37:06Z</time>
      </trkpt>
      <trkpt lat="45.76073" lon="6.5083">
        <ele>1723</ele>
        <time>2022-07-24T05:37:07Z</time>
      </trkpt>
      <trkpt lat="45.76073" lon="6.50832">
        <ele>1723</ele>
        <time>2022-07-24T05:37:08Z</time>
      </trkpt>
      <trkpt lat="45.76073" lon="6.50833">
        <ele>1723</ele>
        <time>2022-07-24T05:37:09Z</time>
      </trkpt>
      <trkpt lat="45.76073" lon="6.50835">
        <ele>1723</ele>
        <time>2022-07-24T05:37:10Z</time>
      </trkpt>
      <trkpt lat="45.76073" lon="6.50836">
        <ele>1723</ele>
        <time>2022-07-24T05:37:11Z</time>
      </trkpt>
      <trkpt lat="45.76073" lon="6.50838">
        <ele>1723</ele>
        <time>2022-07-24T05:37:12Z</time>
      </trkpt>
      <trkpt lat="45.76073" lon="6.50839">
        <ele>1723</ele>
        <time>2022-07-24T05:37:13Z</time>
      </trkpt>
      <trkpt lat="45.76073" lon="6.50841">
        <ele>1723</ele>
        <time>2022-07-24T05:37:14Z</time>
      </trkpt>
      <trkpt lat="45.76073" lon="6.50843">
        <ele>1723</ele>
        <time>2022-07-24T05:37:15Z</time>
      </trkpt>
      <trkpt lat="45.76074" lon="6.50845">
        <ele>1723</ele>
        <time>2022-07-24T05:37:16Z</time>
      </trkpt>
      <trkpt lat="45.76074" lon="6.50846">
        <ele>1723</ele>
        <time>2022-07-24T05:37:17Z</time>
      </trkpt>
      <trkpt lat="45.76074" lon="6.50848">
        <ele>1723</ele>
        <time>2022-07-24T05:37:18Z</time>
      </trkpt>
      <trkpt lat="45.76074" lon="6.5085">
        <ele>1723</ele>
        <time>2022-07-24T05:37:19Z</time>
      </trkpt>
      <trkpt lat="45.76074" lon="6.50852">
        <ele>1723</ele>
        <time>2022-07-24T05:37:20Z</time>
      </trkpt>
      <trkpt lat="45.76075" lon="6.50854">
        <ele>1723</ele>
        <time>2022-07-24T05:37:21Z</time>
      </trkpt>
      <trkpt lat="45.76075" lon="6.50855">
        <ele>1723</ele>
        <time>2022-07-24T05:37:22Z</time>
      </trkpt>
      <trkpt lat="45.76076" lon="6.50857">
        <ele>1723</ele>
        <time>2022-07-24T05:37:23Z</time>
      </trkpt>
      <trkpt lat="45.76076" lon="6.50858">
        <ele>1723</ele>
        <time>2022-07-24T05:37:24Z</time>
      </trkpt>
      <trkpt lat="45.76077" lon="6.5086">
        <ele>1723</ele>
        <time>2022-07-24T05:37:25Z</time>
      </trkpt>
      <trkpt lat="45.76077" lon="6.50861">
        <ele>1723</ele>
        <time>2022-07-24T05:37:26Z</time>
      </trkpt>
      <trkpt lat="45.76078" lon="6.50863">
        <ele>1723</ele>
        <time>2022-07-24T05:37:27Z</time>
      </trkpt>
      <trkpt lat="45.76078" lon="6.50864">
        <ele>1723</ele>
        <time>2022-07-24T05:37:28Z</time>
      </trkpt>
      <trkpt lat="45.76078" lon="6.50866">
        <ele>1724</ele>
        <time>2022-07-24T05:37:29Z</time>
      </trkpt>
      <trkpt lat="45.76079" lon="6.50867">
        <ele>1724</ele>
        <time>2022-07-24T05:37:30Z</time>
      </trkpt>
      <trkpt lat="45.76079" lon="6.50868">
        <ele>1724</ele>
        <time>2022-07-24T05:37:31Z</time>
      </trkpt>
      <trkpt lat="45.76079" lon="6.50868">
        <ele>1724</ele>
        <time>2022-07-24T05:37:32Z</time>
      </trkpt>
      <trkpt lat="45.76079" lon="6.50868">
        <ele>1724</ele>
        <time>2022-07-24T05:37:33Z</time>
      </trkpt>
      <trkpt lat="45.76079" lon="6.50869">
        <ele>1724</ele>
        <time>2022-07-24T05:37:34Z</time>
      </trkpt>
      <trkpt lat="45.76079" lon="6.5087">
        <ele>1724</ele>
        <time>2022-07-24T05:37:35Z</time>
      </trkpt>
      <trkpt lat="45.7608" lon="6.50871">
        <ele>1724</ele>
        <time>2022-07-24T05:37:36Z</time>
      </trkpt>
      <trkpt lat="45.7608" lon="6.50872">
        <ele>1724</ele>
        <time>2022-07-24T05:37:37Z</time>
      </trkpt>
      <trkpt lat="45.7608" lon="6.50872">
        <ele>1726</ele>
        <time>2022-07-24T05:38:14Z</time>
      </trkpt>
      <trkpt lat="45.7608" lon="6.50872">
        <ele>1726</ele>
        <time>2022-07-24T05:38:15Z</time>
      </trkpt>
      <trkpt lat="45.7608" lon="6.50873">
        <ele>1726</ele>
        <time>2022-07-24T05:38:16Z</time>
      </trkpt>
      <trkpt lat="45.7608" lon="6.50873">
        <ele>1726</ele>
        <time>2022-07-24T05:38:17Z</time>
      </trkpt>
      <trkpt lat="45.7608" lon="6.50874">
        <ele>1726</ele>
        <time>2022-07-24T05:38:18Z</time>
      </trkpt>
      <trkpt lat="45.7608" lon="6.50875">
        <ele>1726</ele>
        <time>2022-07-24T05:38:19Z</time>
      </trkpt>
      <trkpt lat="45.7608" lon="6.50877">
        <ele>1726</ele>
        <time>2022-07-24T05:38:20Z</time>
      </trkpt>
      <trkpt lat="45.76081" lon="6.50878">
        <ele>1726</ele>
        <time>2022-07-24T05:38:21Z</time>
      </trkpt>
      <trkpt lat="45.76081" lon="6.5088">
        <ele>1726</ele>
        <time>2022-07-24T05:38:22Z</time>
      </trkpt>
      <trkpt lat="45.76082" lon="6.50882">
        <ele>1726</ele>
        <time>2022-07-24T05:38:23Z</time>
      </trkpt>
      <trkpt lat="45.76082" lon="6.50884">
        <ele>1726</ele>
        <time>2022-07-24T05:38:24Z</time>
      </trkpt>
      <trkpt lat="45.76083" lon="6.50885">
        <ele>1726</ele>
        <time>2022-07-24T05:38:25Z</time>
      </trkpt>
      <trkpt lat="45.76083" lon="6.50887">
        <ele>1726</ele>
        <time>2022-07-24T05:38:26Z</time>
      </trkpt>
      <trkpt lat="45.76084" lon="6.50888">
        <ele>1726</ele>
        <time>2022-07-24T05:38:27Z</time>
      </trkpt>
      <trkpt lat="45.76085" lon="6.5089">
        <ele>1726</ele>
        <time>2022-07-24T05:38:28Z</time>
      </trkpt>
      <trkpt lat="45.76085" lon="6.50891">
        <ele>1726</ele>
        <time>2022-07-24T05:38:29Z</time>
      </trkpt>
      <trkpt lat="45.76086" lon="6.50893">
        <ele>1726</ele>
        <time>2022-07-24T05:38:30Z</time>
      </trkpt>
      <trkpt lat="45.76086" lon="6.50894">
        <ele>1726</ele>
        <time>2022-07-24T05:38:31Z</time>
      </trkpt>
      <trkpt lat="45.76087" lon="6.50896">
        <ele>1726</ele>
        <time>2022-07-24T05:38:32Z</time>
      </trkpt>
      <trkpt lat="45.76087" lon="6.50897">
        <ele>1726</ele>
        <time>2022-07-24T05:38:33Z</time>
      </trkpt>
      <trkpt lat="45.76088" lon="6.50898">
        <ele>1726</ele>
        <time>2022-07-24T05:38:34Z</time>
      </trkpt>
      <trkpt lat="45.76089" lon="6.50899">
        <ele>1726</ele>
        <time>2022-07-24T05:38:35Z</time>
      </trkpt>
      <trkpt lat="45.76089" lon="6.50901">
        <ele>1726</ele>
        <time>2022-07-24T05:38:36Z</time>
      </trkpt>
      <trkpt lat="45.7609" lon="6.50902">
        <ele>1726</ele>
        <time>2022-07-24T05:38:37Z</time>
      </trkpt>
      <trkpt lat="45.7609" lon="6.50903">
        <ele>1726</ele>
        <time>2022-07-24T05:38:38Z</time>
      </trkpt>
      <trkpt lat="45.76091" lon="6.50904">
        <ele>1726</ele>
        <time>2022-07-24T05:38:39Z</time>
      </trkpt>
      <trkpt lat="45.76092" lon="6.50905">
        <ele>1726</ele>
        <time>2022-07-24T05:38:40Z</time>
      </trkpt>
      <trkpt lat="45.76093" lon="6.50906">
        <ele>1726</ele>
        <time>2022-07-24T05:38:41Z</time>
      </trkpt>
      <trkpt lat="45.76093" lon="6.50908">
        <ele>1726</ele>
        <time>2022-07-24T05:38:42Z</time>
      </trkpt>
      <trkpt lat="45.76094" lon="6.50909">
        <ele>1726</ele>
        <time>2022-07-24T05:38:43Z</time>
      </trkpt>
      <trkpt lat="45.76095" lon="6.5091">
        <ele>1726</ele>
        <time>2022-07-24T05:38:44Z</time>
      </trkpt>
      <trkpt lat="45.76096" lon="6.50911">
        <ele>1726</ele>
        <time>2022-07-24T05:38:45Z</time>
      </trkpt>
      <trkpt lat="45.76097" lon="6.50912">
        <ele>1726</ele>
        <time>2022-07-24T05:38:46Z</time>
      </trkpt>
      <trkpt lat="45.76098" lon="6.50913">
        <ele>1726</ele>
        <time>2022-07-24T05:38:47Z</time>
      </trkpt>
      <trkpt lat="45.761" lon="6.50914">
        <ele>1726</ele>
        <time>2022-07-24T05:38:48Z</time>
      </trkpt>
      <trkpt lat="45.76101" lon="6.50914">
        <ele>1727</ele>
        <time>2022-07-24T05:38:49Z</time>
      </trkpt>
      <trkpt lat="45.76102" lon="6.50915">
        <ele>1727</ele>
        <time>2022-07-24T05:38:50Z</time>
      </trkpt>
      <trkpt lat="45.76103" lon="6.50916">
        <ele>1727</ele>
        <time>2022-07-24T05:38:51Z</time>
      </trkpt>
      <trkpt lat="45.76104" lon="6.50917">
        <ele>1727</ele>
        <time>2022-07-24T05:38:52Z</time>
      </trkpt>
      <trkpt lat="45.76105" lon="6.50918">
        <ele>1727</ele>
        <time>2022-07-24T05:38:53Z</time>
      </trkpt>
      <trkpt lat="45.76106" lon="6.50918">
        <ele>1727</ele>
        <time>2022-07-24T05:38:54Z</time>
      </trkpt>
      <trkpt lat="45.76107" lon="6.50919">
        <ele>1727</ele>
        <time>2022-07-24T05:38:55Z</time>
      </trkpt>
      <trkpt lat="45.76107" lon="6.5092">
        <ele>1727</ele>
        <time>2022-07-24T05:38:56Z</time>
      </trkpt>
      <trkpt lat="45.76108" lon="6.50921">
        <ele>1727</ele>
        <time>2022-07-24T05:38:57Z</time>
      </trkpt>
      <trkpt lat="45.76109" lon="6.50922">
        <ele>1727</ele>
        <time>2022-07-24T05:38:58Z</time>
      </trkpt>
      <trkpt lat="45.7611" lon="6.50922">
        <ele>1727</ele>
        <time>2022-07-24T05:38:59Z</time>
      </trkpt>
      <trkpt lat="45.76111" lon="6.50923">
        <ele>1727</ele>
        <time>2022-07-24T05:39:00Z</time>
      </trkpt>
      <trkpt lat="45.76112" lon="6.50924">
        <ele>1727</ele>
        <time>2022-07-24T05:39:01Z</time>
      </trkpt>
      <trkpt lat="45.76113" lon="6.50925">
        <ele>1727</ele>
        <time>2022-07-24T05:39:02Z</time>
      </trkpt>
      <trkpt lat="45.76114" lon="6.50925">
        <ele>1727</ele>
        <time>2022-07-24T05:39:03Z</time>
      </trkpt>
      <trkpt lat="45.76115" lon="6.50926">
        <ele>1727</ele>
        <time>2022-07-24T05:39:04Z</time>
      </trkpt>
      <trkpt lat="45.76116" lon="6.50927">
        <ele>1727</ele>
        <time>2022-07-24T05:39:05Z</time>
      </trkpt>
      <trkpt lat="45.76117" lon="6.50928">
        <ele>1727</ele>
        <time>2022-07-24T05:39:06Z</time>
      </trkpt>
      <trkpt lat="45.76118" lon="6.50928">
        <ele>1727</ele>
        <time>2022-07-24T05:39:07Z</time>
      </trkpt>
      <trkpt lat="45.76119" lon="6.50929">
        <ele>1727</ele>
        <time>2022-07-24T05:39:08Z</time>
      </trkpt>
      <trkpt lat="45.7612" lon="6.5093">
        <ele>1727</ele>
        <time>2022-07-24T05:39:09Z</time>
      </trkpt>
      <trkpt lat="45.76121" lon="6.50931">
        <ele>1727</ele>
        <time>2022-07-24T05:39:10Z</time>
      </trkpt>
      <trkpt lat="45.76122" lon="6.50932">
        <ele>1727</ele>
        <time>2022-07-24T05:39:11Z</time>
      </trkpt>
      <trkpt lat="45.76123" lon="6.50933">
        <ele>1727</ele>
        <time>2022-07-24T05:39:12Z</time>
      </trkpt>
      <trkpt lat="45.76124" lon="6.50934">
        <ele>1727</ele>
        <time>2022-07-24T05:39:13Z</time>
      </trkpt>
      <trkpt lat="45.76125" lon="6.50935">
        <ele>1727</ele>
        <time>2022-07-24T05:39:14Z</time>
      </trkpt>
      <trkpt lat="45.76126" lon="6.50936">
        <ele>1727</ele>
        <time>2022-07-24T05:39:15Z</time>
      </trkpt>
      <trkpt lat="45.76127" lon="6.50938">
        <ele>1727</ele>
        <time>2022-07-24T05:39:16Z</time>
      </trkpt>
      <trkpt lat="45.76128" lon="6.50939">
        <ele>1727</ele>
        <time>2022-07-24T05:39:17Z</time>
      </trkpt>
      <trkpt lat="45.76129" lon="6.5094">
        <ele>1727</ele>
        <time>2022-07-24T05:39:18Z</time>
      </trkpt>
      <trkpt lat="45.7613" lon="6.50941">
        <ele>1727</ele>
        <time>2022-07-24T05:39:19Z</time>
      </trkpt>
      <trkpt lat="45.76131" lon="6.50943">
        <ele>1727</ele>
        <time>2022-07-24T05:39:20Z</time>
      </trkpt>
      <trkpt lat="45.76132" lon="6.50944">
        <ele>1727</ele>
        <time>2022-07-24T05:39:21Z</time>
      </trkpt>
      <trkpt lat="45.76133" lon="6.50945">
        <ele>1727</ele>
        <time>2022-07-24T05:39:22Z</time>
      </trkpt>
      <trkpt lat="45.76134" lon="6.50947">
        <ele>1727</ele>
        <time>2022-07-24T05:39:23Z</time>
      </trkpt>
      <trkpt lat="45.76134" lon="6.50948">
        <ele>1727</ele>
        <time>2022-07-24T05:39:24Z</time>
      </trkpt>
      <trkpt lat="45.76135" lon="6.50949">
        <ele>1727</ele>
        <time>2022-07-24T05:39:25Z</time>
      </trkpt>
      <trkpt lat="45.76136" lon="6.50951">
        <ele>1727</ele>
        <time>2022-07-24T05:39:26Z</time>
      </trkpt>
      <trkpt lat="45.76137" lon="6.50952">
        <ele>1727</ele>
        <time>2022-07-24T05:39:27Z</time>
      </trkpt>
      <trkpt lat="45.76137" lon="6.50954">
        <ele>1727</ele>
        <time>2022-07-24T05:39:28Z</time>
      </trkpt>
      <trkpt lat="45.76138" lon="6.50955">
        <ele>1727</ele>
        <time>2022-07-24T05:39:29Z</time>
      </trkpt>
      <trkpt lat="45.76139" lon="6.50956">
        <ele>1727</ele>
        <time>2022-07-24T05:39:30Z</time>
      </trkpt>
      <trkpt lat="45.7614" lon="6.50958">
        <ele>1727</ele>
        <time>2022-07-24T05:39:31Z</time>
      </trkpt>
      <trkpt lat="45.76141" lon="6.50959">
        <ele>1727</ele>
        <time>2022-07-24T05:39:32Z</time>
      </trkpt>
      <trkpt lat="45.76142" lon="6.5096">
        <ele>1727</ele>
        <time>2022-07-24T05:39:33Z</time>
      </trkpt>
      <trkpt lat="45.76143" lon="6.50962">
        <ele>1727</ele>
        <time>2022-07-24T05:39:34Z</time>
      </trkpt>
      <trkpt lat="45.76144" lon="6.50963">
        <ele>1726</ele>
        <time>2022-07-24T05:39:35Z</time>
      </trkpt>
      <trkpt lat="45.76145" lon="6.50965">
        <ele>1726</ele>
        <time>2022-07-24T05:39:36Z</time>
      </trkpt>
      <trkpt lat="45.76146" lon="6.50966">
        <ele>1726</ele>
        <time>2022-07-24T05:39:37Z</time>
      </trkpt>
      <trkpt lat="45.76147" lon="6.50967">
        <ele>1726</ele>
        <time>2022-07-24T05:39:38Z</time>
      </trkpt>
      <trkpt lat="45.76147" lon="6.50969">
        <ele>1726</ele>
        <time>2022-07-24T05:39:39Z</time>
      </trkpt>
      <trkpt lat="45.76148" lon="6.5097">
        <ele>1726</ele>
        <time>2022-07-24T05:39:40Z</time>
      </trkpt>
      <trkpt lat="45.76149" lon="6.50971">
        <ele>1726</ele>
        <time>2022-07-24T05:39:41Z</time>
      </trkpt>
      <trkpt lat="45.7615" lon="6.50972">
        <ele>1726</ele>
        <time>2022-07-24T05:39:42Z</time>
      </trkpt>
      <trkpt lat="45.76151" lon="6.50973">
        <ele>1726</ele>
        <time>2022-07-24T05:39:43Z</time>
      </trkpt>
      <trkpt lat="45.76152" lon="6.50974">
        <ele>1726</ele>
        <time>2022-07-24T05:39:44Z</time>
      </trkpt>
      <trkpt lat="45.76153" lon="6.50975">
        <ele>1726</ele>
        <time>2022-07-24T05:39:45Z</time>
      </trkpt>
      <trkpt lat="45.76154" lon="6.50976">
        <ele>1726</ele>
        <time>2022-07-24T05:39:46Z</time>
      </trkpt>
      <trkpt lat="45.76155" lon="6.50977">
        <ele>1726</ele>
        <time>2022-07-24T05:39:47Z</time>
      </trkpt>
      <trkpt lat="45.76156" lon="6.50978">
        <ele>1726</ele>
        <time>2022-07-24T05:39:48Z</time>
      </trkpt>
      <trkpt lat="45.76157" lon="6.50979">
        <ele>1726</ele>
        <time>2022-07-24T05:39:49Z</time>
      </trkpt>
      <trkpt lat="45.76158" lon="6.5098">
        <ele>1726</ele>
        <time>2022-07-24T05:39:50Z</time>
      </trkpt>
      <trkpt lat="45.76159" lon="6.50981">
        <ele>1726</ele>
        <time>2022-07-24T05:39:51Z</time>
      </trkpt>
      <trkpt lat="45.7616" lon="6.50982">
        <ele>1726</ele>
        <time>2022-07-24T05:39:52Z</time>
      </trkpt>
      <trkpt lat="45.76162" lon="6.50983">
        <ele>1726</ele>
        <time>2022-07-24T05:39:53Z</time>
      </trkpt>
      <trkpt lat="45.76163" lon="6.50984">
        <ele>1726</ele>
        <time>2022-07-24T05:39:54Z</time>
      </trkpt>
      <trkpt lat="45.76164" lon="6.50984">
        <ele>1726</ele>
        <time>2022-07-24T05:39:55Z</time>
      </trkpt>
      <trkpt lat="45.76165" lon="6.50985">
        <ele>1726</ele>
        <time>2022-07-24T05:39:56Z</time>
      </trkpt>
      <trkpt lat="45.76166" lon="6.50986">
        <ele>1726</ele>
        <time>2022-07-24T05:39:57Z</time>
      </trkpt>
      <trkpt lat="45.76167" lon="6.50987">
        <ele>1726</ele>
        <time>2022-07-24T05:39:58Z</time>
      </trkpt>
      <trkpt lat="45.76168" lon="6.50987">
        <ele>1726</ele>
        <time>2022-07-24T05:39:59Z</time>
      </trkpt>
      <trkpt lat="45.76169" lon="6.50988">
        <ele>1725</ele>
        <time>2022-07-24T05:40:00Z</time>
      </trkpt>
      <trkpt lat="45.7617" lon="6.50988">
        <ele>1725</ele>
        <time>2022-07-24T05:40:01Z</time>
      </trkpt>
      <trkpt lat="45.76172" lon="6.50989">
        <ele>1724</ele>
        <time>2022-07-24T05:40:02Z</time>
      </trkpt>
      <trkpt lat="45.76173" lon="6.50989">
        <ele>1724</ele>
        <time>2022-07-24T05:40:03Z</time>
      </trkpt>
      <trkpt lat="45.76174" lon="6.50989">
        <ele>1724</ele>
        <time>2022-07-24T05:40:04Z</time>
      </trkpt>
      <trkpt lat="45.76175" lon="6.5099">
        <ele>1724</ele>
        <time>2022-07-24T05:40:05Z</time>
      </trkpt>
      <trkpt lat="45.76177" lon="6.5099">
        <ele>1724</ele>
        <time>2022-07-24T05:40:06Z</time>
      </trkpt>
      <trkpt lat="45.76178" lon="6.5099">
        <ele>1724</ele>
        <time>2022-07-24T05:40:07Z</time>
      </trkpt>
      <trkpt lat="45.76179" lon="6.5099">
        <ele>1724</ele>
        <time>2022-07-24T05:40:08Z</time>
      </trkpt>
      <trkpt lat="45.76181" lon="6.50991">
        <ele>1724</ele>
        <time>2022-07-24T05:40:09Z</time>
      </trkpt>
      <trkpt lat="45.76182" lon="6.50991">
        <ele>1724</ele>
        <time>2022-07-24T05:40:10Z</time>
      </trkpt>
      <trkpt lat="45.76183" lon="6.50991">
        <ele>1724</ele>
        <time>2022-07-24T05:40:11Z</time>
      </trkpt>
      <trkpt lat="45.76185" lon="6.50991">
        <ele>1724</ele>
        <time>2022-07-24T05:40:12Z</time>
      </trkpt>
      <trkpt lat="45.76186" lon="6.50991">
        <ele>1724</ele>
        <time>2022-07-24T05:40:13Z</time>
      </trkpt>
      <trkpt lat="45.76187" lon="6.50991">
        <ele>1724</ele>
        <time>2022-07-24T05:40:14Z</time>
      </trkpt>
      <trkpt lat="45.76188" lon="6.50991">
        <ele>1724</ele>
        <time>2022-07-24T05:40:15Z</time>
      </trkpt>
      <trkpt lat="45.76189" lon="6.50991">
        <ele>1724</ele>
        <time>2022-07-24T05:40:16Z</time>
      </trkpt>
      <trkpt lat="45.7619" lon="6.50991">
        <ele>1724</ele>
        <time>2022-07-24T05:40:17Z</time>
      </trkpt>
      <trkpt lat="45.76192" lon="6.50992">
        <ele>1724</ele>
        <time>2022-07-24T05:40:18Z</time>
      </trkpt>
      <trkpt lat="45.76193" lon="6.50992">
        <ele>1724</ele>
        <time>2022-07-24T05:40:19Z</time>
      </trkpt>
      <trkpt lat="45.76194" lon="6.50992">
        <ele>1723</ele>
        <time>2022-07-24T05:40:20Z</time>
      </trkpt>
      <trkpt lat="45.76195" lon="6.50992">
        <ele>1723</ele>
        <time>2022-07-24T05:40:21Z</time>
      </trkpt>
      <trkpt lat="45.76196" lon="6.50993">
        <ele>1723</ele>
        <time>2022-07-24T05:40:22Z</time>
      </trkpt>
      <trkpt lat="45.76197" lon="6.50993">
        <ele>1723</ele>
        <time>2022-07-24T05:40:23Z</time>
      </trkpt>
      <trkpt lat="45.76198" lon="6.50993">
        <ele>1723</ele>
        <time>2022-07-24T05:40:24Z</time>
      </trkpt>
      <trkpt lat="45.762" lon="6.50993">
        <ele>1723</ele>
        <time>2022-07-24T05:40:25Z</time>
      </trkpt>
      <trkpt lat="45.76201" lon="6.50994">
        <ele>1723</ele>
        <time>2022-07-24T05:40:26Z</time>
      </trkpt>
      <trkpt lat="45.76202" lon="6.50994">
        <ele>1723</ele>
        <time>2022-07-24T05:40:27Z</time>
      </trkpt>
      <trkpt lat="45.76203" lon="6.50994">
        <ele>1723</ele>
        <time>2022-07-24T05:40:28Z</time>
      </trkpt>
      <trkpt lat="45.76204" lon="6.50994">
        <ele>1723</ele>
        <time>2022-07-24T05:40:29Z</time>
      </trkpt>
      <trkpt lat="45.76206" lon="6.50994">
        <ele>1723</ele>
        <time>2022-07-24T05:40:30Z</time>
      </trkpt>
      <trkpt lat="45.76207" lon="6.50994">
        <ele>1723</ele>
        <time>2022-07-24T05:40:31Z</time>
      </trkpt>
      <trkpt lat="45.76208" lon="6.50995">
        <ele>1723</ele>
        <time>2022-07-24T05:40:32Z</time>
      </trkpt>
      <trkpt lat="45.76209" lon="6.50995">
        <ele>1723</ele>
        <time>2022-07-24T05:40:33Z</time>
      </trkpt>
      <trkpt lat="45.7621" lon="6.50995">
        <ele>1723</ele>
        <time>2022-07-24T05:40:34Z</time>
      </trkpt>
      <trkpt lat="45.76212" lon="6.50995">
        <ele>1723</ele>
        <time>2022-07-24T05:40:35Z</time>
      </trkpt>
      <trkpt lat="45.76213" lon="6.50996">
        <ele>1723</ele>
        <time>2022-07-24T05:40:36Z</time>
      </trkpt>
      <trkpt lat="45.76214" lon="6.50996">
        <ele>1723</ele>
        <time>2022-07-24T05:40:37Z</time>
      </trkpt>
      <trkpt lat="45.76215" lon="6.50996">
        <ele>1723</ele>
        <time>2022-07-24T05:40:38Z</time>
      </trkpt>
      <trkpt lat="45.76216" lon="6.50997">
        <ele>1723</ele>
        <time>2022-07-24T05:40:39Z</time>
      </trkpt>
      <trkpt lat="45.76216" lon="6.50997">
        <ele>1722</ele>
        <time>2022-07-24T05:40:40Z</time>
      </trkpt>
      <trkpt lat="45.76217" lon="6.50997">
        <ele>1722</ele>
        <time>2022-07-24T05:40:41Z</time>
      </trkpt>
      <trkpt lat="45.76218" lon="6.50997">
        <ele>1722</ele>
        <time>2022-07-24T05:40:42Z</time>
      </trkpt>
      <trkpt lat="45.76219" lon="6.50997">
        <ele>1722</ele>
        <time>2022-07-24T05:40:43Z</time>
      </trkpt>
      <trkpt lat="45.7622" lon="6.50998">
        <ele>1722</ele>
        <time>2022-07-24T05:40:44Z</time>
      </trkpt>
      <trkpt lat="45.76222" lon="6.50998">
        <ele>1722</ele>
        <time>2022-07-24T05:40:45Z</time>
      </trkpt>
      <trkpt lat="45.76223" lon="6.50998">
        <ele>1722</ele>
        <time>2022-07-24T05:40:46Z</time>
      </trkpt>
      <trkpt lat="45.76224" lon="6.50998">
        <ele>1722</ele>
        <time>2022-07-24T05:40:47Z</time>
      </trkpt>
      <trkpt lat="45.76225" lon="6.50999">
        <ele>1722</ele>
        <time>2022-07-24T05:40:48Z</time>
      </trkpt>
      <trkpt lat="45.76226" lon="6.50999">
        <ele>1722</ele>
        <time>2022-07-24T05:40:49Z</time>
      </trkpt>
      <trkpt lat="45.76227" lon="6.50999">
        <ele>1722</ele>
        <time>2022-07-24T05:40:50Z</time>
      </trkpt>
      <trkpt lat="45.76228" lon="6.51">
        <ele>1722</ele>
        <time>2022-07-24T05:40:51Z</time>
      </trkpt>
      <trkpt lat="45.76229" lon="6.51">
        <ele>1722</ele>
        <time>2022-07-24T05:40:52Z</time>
      </trkpt>
      <trkpt lat="45.76231" lon="6.51">
        <ele>1721</ele>
        <time>2022-07-24T05:41:16Z</time>
      </trkpt>
      <trkpt lat="45.76232" lon="6.51">
        <ele>1721</ele>
        <time>2022-07-24T05:41:17Z</time>
      </trkpt>
      <trkpt lat="45.76233" lon="6.51">
        <ele>1721</ele>
        <time>2022-07-24T05:41:18Z</time>
      </trkpt>
      <trkpt lat="45.76234" lon="6.51">
        <ele>1721</ele>
        <time>2022-07-24T05:41:19Z</time>
      </trkpt>
      <trkpt lat="45.76235" lon="6.51001">
        <ele>1721</ele>
        <time>2022-07-24T05:41:20Z</time>
      </trkpt>
      <trkpt lat="45.76236" lon="6.51001">
        <ele>1721</ele>
        <time>2022-07-24T05:41:21Z</time>
      </trkpt>
      <trkpt lat="45.76237" lon="6.51002">
        <ele>1721</ele>
        <time>2022-07-24T05:41:22Z</time>
      </trkpt>
      <trkpt lat="45.76238" lon="6.51002">
        <ele>1721</ele>
        <time>2022-07-24T05:41:23Z</time>
      </trkpt>
      <trkpt lat="45.76238" lon="6.51003">
        <ele>1721</ele>
        <time>2022-07-24T05:41:24Z</time>
      </trkpt>
      <trkpt lat="45.76239" lon="6.51004">
        <ele>1721</ele>
        <time>2022-07-24T05:41:25Z</time>
      </trkpt>
      <trkpt lat="45.7624" lon="6.51004">
        <ele>1721</ele>
        <time>2022-07-24T05:41:26Z</time>
      </trkpt>
      <trkpt lat="45.76241" lon="6.51005">
        <ele>1721</ele>
        <time>2022-07-24T05:41:27Z</time>
      </trkpt>
      <trkpt lat="45.76242" lon="6.51006">
        <ele>1721</ele>
        <time>2022-07-24T05:41:28Z</time>
      </trkpt>
      <trkpt lat="45.76243" lon="6.51006">
        <ele>1721</ele>
        <time>2022-07-24T05:41:29Z</time>
      </trkpt>
      <trkpt lat="45.76244" lon="6.51007">
        <ele>1721</ele>
        <time>2022-07-24T05:41:30Z</time>
      </trkpt>
      <trkpt lat="45.76245" lon="6.51007">
        <ele>1721</ele>
        <time>2022-07-24T05:41:31Z</time>
      </trkpt>
      <trkpt lat="45.76246" lon="6.51008">
        <ele>1721</ele>
        <time>2022-07-24T05:41:32Z</time>
      </trkpt>
      <trkpt lat="45.76247" lon="6.51008">
        <ele>1721</ele>
        <time>2022-07-24T05:41:33Z</time>
      </trkpt>
      <trkpt lat="45.76248" lon="6.51009">
        <ele>1721</ele>
        <time>2022-07-24T05:41:34Z</time>
      </trkpt>
      <trkpt lat="45.76249" lon="6.51009">
        <ele>1721</ele>
        <time>2022-07-24T05:41:35Z</time>
      </trkpt>
      <trkpt lat="45.7625" lon="6.5101">
        <ele>1721</ele>
        <time>2022-07-24T05:41:36Z</time>
      </trkpt>
      <trkpt lat="45.76251" lon="6.5101">
        <ele>1721</ele>
        <time>2022-07-24T05:41:37Z</time>
      </trkpt>
      <trkpt lat="45.76252" lon="6.5101">
        <ele>1721</ele>
        <time>2022-07-24T05:41:38Z</time>
      </trkpt>
      <trkpt lat="45.76253" lon="6.5101">
        <ele>1721</ele>
        <time>2022-07-24T05:41:39Z</time>
      </trkpt>
      <trkpt lat="45.76254" lon="6.51011">
        <ele>1721</ele>
        <time>2022-07-24T05:41:40Z</time>
      </trkpt>
      <trkpt lat="45.76255" lon="6.51011">
        <ele>1721</ele>
        <time>2022-07-24T05:42:41Z</time>
      </trkpt>
      <trkpt lat="45.76256" lon="6.51011">
        <ele>1721</ele>
        <time>2022-07-24T05:42:42Z</time>
      </trkpt>
      <trkpt lat="45.76256" lon="6.51011">
        <ele>1721</ele>
        <time>2022-07-24T05:42:43Z</time>
      </trkpt>
      <trkpt lat="45.76257" lon="6.51011">
        <ele>1721</ele>
        <time>2022-07-24T05:42:44Z</time>
      </trkpt>
      <trkpt lat="45.76258" lon="6.51011">
        <ele>1721</ele>
        <time>2022-07-24T05:42:45Z</time>
      </trkpt>
      <trkpt lat="45.76259" lon="6.51011">
        <ele>1721</ele>
        <time>2022-07-24T05:42:46Z</time>
      </trkpt>
      <trkpt lat="45.7626" lon="6.51012">
        <ele>1721</ele>
        <time>2022-07-24T05:42:47Z</time>
      </trkpt>
      <trkpt lat="45.76261" lon="6.51012">
        <ele>1721</ele>
        <time>2022-07-24T05:42:48Z</time>
      </trkpt>
      <trkpt lat="45.76262" lon="6.51013">
        <ele>1721</ele>
        <time>2022-07-24T05:42:49Z</time>
      </trkpt>
      <trkpt lat="45.76263" lon="6.51013">
        <ele>1721</ele>
        <time>2022-07-24T05:42:50Z</time>
      </trkpt>
      <trkpt lat="45.76264" lon="6.51014">
        <ele>1721</ele>
        <time>2022-07-24T05:42:51Z</time>
      </trkpt>
      <trkpt lat="45.76265" lon="6.51014">
        <ele>1721</ele>
        <time>2022-07-24T05:42:52Z</time>
      </trkpt>
      <trkpt lat="45.76267" lon="6.51015">
        <ele>1721</ele>
        <time>2022-07-24T05:42:53Z</time>
      </trkpt>
      <trkpt lat="45.76268" lon="6.51016">
        <ele>1721</ele>
        <time>2022-07-24T05:42:54Z</time>
      </trkpt>
      <trkpt lat="45.76269" lon="6.51016">
        <ele>1720</ele>
        <time>2022-07-24T05:42:55Z</time>
      </trkpt>
      <trkpt lat="45.7627" lon="6.51017">
        <ele>1720</ele>
        <time>2022-07-24T05:42:56Z</time>
      </trkpt>
      <trkpt lat="45.76271" lon="6.51018">
        <ele>1720</ele>
        <time>2022-07-24T05:42:57Z</time>
      </trkpt>
      <trkpt lat="45.76273" lon="6.51019">
        <ele>1720</ele>
        <time>2022-07-24T05:42:58Z</time>
      </trkpt>
      <trkpt lat="45.76274" lon="6.5102">
        <ele>1720</ele>
        <time>2022-07-24T05:42:59Z</time>
      </trkpt>
      <trkpt lat="45.76275" lon="6.5102">
        <ele>1720</ele>
        <time>2022-07-24T05:43:00Z</time>
      </trkpt>
      <trkpt lat="45.76276" lon="6.51021">
        <ele>1720</ele>
        <time>2022-07-24T05:43:01Z</time>
      </trkpt>
      <trkpt lat="45.76278" lon="6.51021">
        <ele>1720</ele>
        <time>2022-07-24T05:43:02Z</time>
      </trkpt>
      <trkpt lat="45.76279" lon="6.51022">
        <ele>1720</ele>
        <time>2022-07-24T05:43:03Z</time>
      </trkpt>
      <trkpt lat="45.7628" lon="6.51022">
        <ele>1720</ele>
        <time>2022-07-24T05:43:04Z</time>
      </trkpt>
      <trkpt lat="45.76281" lon="6.51023">
        <ele>1720</ele>
        <time>2022-07-24T05:43:05Z</time>
      </trkpt>
      <trkpt lat="45.76283" lon="6.51023">
        <ele>1720</ele>
        <time>2022-07-24T05:43:06Z</time>
      </trkpt>
      <trkpt lat="45.76284" lon="6.51024">
        <ele>1720</ele>
        <time>2022-07-24T05:43:07Z</time>
      </trkpt>
      <trkpt lat="45.76285" lon="6.51024">
        <ele>1720</ele>
        <time>2022-07-24T05:43:08Z</time>
      </trkpt>
      <trkpt lat="45.76286" lon="6.51025">
        <ele>1720</ele>
        <time>2022-07-24T05:43:09Z</time>
      </trkpt>
      <trkpt lat="45.76288" lon="6.51025">
        <ele>1720</ele>
        <time>2022-07-24T05:43:10Z</time>
      </trkpt>
      <trkpt lat="45.76289" lon="6.51025">
        <ele>1720</ele>
        <time>2022-07-24T05:43:11Z</time>
      </trkpt>
      <trkpt lat="45.7629" lon="6.51026">
        <ele>1720</ele>
        <time>2022-07-24T05:43:12Z</time>
      </trkpt>
      <trkpt lat="45.76291" lon="6.51026">
        <ele>1720</ele>
        <time>2022-07-24T05:43:13Z</time>
      </trkpt>
      <trkpt lat="45.76293" lon="6.51026">
        <ele>1720</ele>
        <time>2022-07-24T05:43:14Z</time>
      </trkpt>
      <trkpt lat="45.76294" lon="6.51027">
        <ele>1720</ele>
        <time>2022-07-24T05:43:15Z</time>
      </trkpt>
      <trkpt lat="45.76295" lon="6.51027">
        <ele>1720</ele>
        <time>2022-07-24T05:43:16Z</time>
      </trkpt>
      <trkpt lat="45.76296" lon="6.51027">
        <ele>1720</ele>
        <time>2022-07-24T05:43:17Z</time>
      </trkpt>
      <trkpt lat="45.76298" lon="6.51028">
        <ele>1720</ele>
        <time>2022-07-24T05:43:18Z</time>
      </trkpt>
      <trkpt lat="45.76299" lon="6.51028">
        <ele>1720</ele>
        <time>2022-07-24T05:43:19Z</time>
      </trkpt>
      <trkpt lat="45.763" lon="6.51028">
        <ele>1720</ele>
        <time>2022-07-24T05:43:20Z</time>
      </trkpt>
      <trkpt lat="45.76301" lon="6.51029">
        <ele>1720</ele>
        <time>2022-07-24T05:43:21Z</time>
      </trkpt>
      <trkpt lat="45.76302" lon="6.51029">
        <ele>1720</ele>
        <time>2022-07-24T05:43:22Z</time>
      </trkpt>
      <trkpt lat="45.76303" lon="6.51029">
        <ele>1720</ele>
        <time>2022-07-24T05:43:23Z</time>
      </trkpt>
      <trkpt lat="45.76305" lon="6.51029">
        <ele>1720</ele>
        <time>2022-07-24T05:43:24Z</time>
      </trkpt>
      <trkpt lat="45.76306" lon="6.5103">
        <ele>1719</ele>
        <time>2022-07-24T05:43:25Z</time>
      </trkpt>
      <trkpt lat="45.76307" lon="6.5103">
        <ele>1719</ele>
        <time>2022-07-24T05:43:26Z</time>
      </trkpt>
      <trkpt lat="45.76309" lon="6.5103">
        <ele>1719</ele>
        <time>2022-07-24T05:43:27Z</time>
      </trkpt>
      <trkpt lat="45.7631" lon="6.51031">
        <ele>1719</ele>
        <time>2022-07-24T05:43:28Z</time>
      </trkpt>
      <trkpt lat="45.76311" lon="6.51031">
        <ele>1719</ele>
        <time>2022-07-24T05:43:29Z</time>
      </trkpt>
      <trkpt lat="45.76312" lon="6.51032">
        <ele>1719</ele>
        <time>2022-07-24T05:43:30Z</time>
      </trkpt>
      <trkpt lat="45.76314" lon="6.51032">
        <ele>1719</ele>
        <time>2022-07-24T05:43:31Z</time>
      </trkpt>
      <trkpt lat="45.76315" lon="6.51033">
        <ele>1719</ele>
        <time>2022-07-24T05:43:32Z</time>
      </trkpt>
      <trkpt lat="45.76316" lon="6.51033">
        <ele>1719</ele>
        <time>2022-07-24T05:43:33Z</time>
      </trkpt>
      <trkpt lat="45.76317" lon="6.51034">
        <ele>1719</ele>
        <time>2022-07-24T05:43:34Z</time>
      </trkpt>
      <trkpt lat="45.76319" lon="6.51035">
        <ele>1719</ele>
        <time>2022-07-24T05:43:35Z</time>
      </trkpt>
      <trkpt lat="45.7632" lon="6.51035">
        <ele>1719</ele>
        <time>2022-07-24T05:43:36Z</time>
      </trkpt>
      <trkpt lat="45.76321" lon="6.51036">
        <ele>1719</ele>
        <time>2022-07-24T05:43:37Z</time>
      </trkpt>
      <trkpt lat="45.76322" lon="6.51037">
        <ele>1719</ele>
        <time>2022-07-24T05:43:38Z</time>
      </trkpt>
      <trkpt lat="45.76323" lon="6.51038">
        <ele>1719</ele>
        <time>2022-07-24T05:43:39Z</time>
      </trkpt>
      <trkpt lat="45.76324" lon="6.51039">
        <ele>1719</ele>
        <time>2022-07-24T05:43:40Z</time>
      </trkpt>
      <trkpt lat="45.76325" lon="6.5104">
        <ele>1719</ele>
        <time>2022-07-24T05:43:41Z</time>
      </trkpt>
      <trkpt lat="45.76326" lon="6.51041">
        <ele>1719</ele>
        <time>2022-07-24T05:43:42Z</time>
      </trkpt>
      <trkpt lat="45.76327" lon="6.51042">
        <ele>1719</ele>
        <time>2022-07-24T05:43:43Z</time>
      </trkpt>
      <trkpt lat="45.76328" lon="6.51043">
        <ele>1719</ele>
        <time>2022-07-24T05:43:44Z</time>
      </trkpt>
      <trkpt lat="45.76329" lon="6.51044">
        <ele>1719</ele>
        <time>2022-07-24T05:43:45Z</time>
      </trkpt>
      <trkpt lat="45.7633" lon="6.51045">
        <ele>1719</ele>
        <time>2022-07-24T05:43:46Z</time>
      </trkpt>
      <trkpt lat="45.76332" lon="6.51046">
        <ele>1719</ele>
        <time>2022-07-24T05:43:47Z</time>
      </trkpt>
      <trkpt lat="45.76333" lon="6.51047">
        <ele>1719</ele>
        <time>2022-07-24T05:43:48Z</time>
      </trkpt>
      <trkpt lat="45.76334" lon="6.51048">
        <ele>1719</ele>
        <time>2022-07-24T05:43:49Z</time>
      </trkpt>
      <trkpt lat="45.76335" lon="6.51049">
        <ele>1719</ele>
        <time>2022-07-24T05:43:50Z</time>
      </trkpt>
      <trkpt lat="45.76336" lon="6.5105">
        <ele>1719</ele>
        <time>2022-07-24T05:43:51Z</time>
      </trkpt>
      <trkpt lat="45.76337" lon="6.51051">
        <ele>1719</ele>
        <time>2022-07-24T05:43:52Z</time>
      </trkpt>
      <trkpt lat="45.76338" lon="6.51052">
        <ele>1719</ele>
        <time>2022-07-24T05:43:53Z</time>
      </trkpt>
      <trkpt lat="45.76339" lon="6.51053">
        <ele>1719</ele>
        <time>2022-07-24T05:43:54Z</time>
      </trkpt>
      <trkpt lat="45.7634" lon="6.51054">
        <ele>1719</ele>
        <time>2022-07-24T05:43:55Z</time>
      </trkpt>
      <trkpt lat="45.76341" lon="6.51055">
        <ele>1719</ele>
        <time>2022-07-24T05:43:56Z</time>
      </trkpt>
      <trkpt lat="45.76342" lon="6.51055">
        <ele>1719</ele>
        <time>2022-07-24T05:43:57Z</time>
      </trkpt>
      <trkpt lat="45.76343" lon="6.51056">
        <ele>1719</ele>
        <time>2022-07-24T05:43:58Z</time>
      </trkpt>
      <trkpt lat="45.76344" lon="6.51057">
        <ele>1719</ele>
        <time>2022-07-24T05:43:59Z</time>
      </trkpt>
      <trkpt lat="45.76345" lon="6.51058">
        <ele>1719</ele>
        <time>2022-07-24T05:44:00Z</time>
      </trkpt>
      <trkpt lat="45.76346" lon="6.51058">
        <ele>1719</ele>
        <time>2022-07-24T05:44:01Z</time>
      </trkpt>
      <trkpt lat="45.76347" lon="6.51059">
        <ele>1719</ele>
        <time>2022-07-24T05:44:02Z</time>
      </trkpt>
      <trkpt lat="45.76349" lon="6.51059">
        <ele>1719</ele>
        <time>2022-07-24T05:44:03Z</time>
      </trkpt>
      <trkpt lat="45.7635" lon="6.5106">
        <ele>1719</ele>
        <time>2022-07-24T05:44:04Z</time>
      </trkpt>
      <trkpt lat="45.76351" lon="6.5106">
        <ele>1719</ele>
        <time>2022-07-24T05:44:05Z</time>
      </trkpt>
      <trkpt lat="45.76352" lon="6.5106">
        <ele>1719</ele>
        <time>2022-07-24T05:44:06Z</time>
      </trkpt>
      <trkpt lat="45.76353" lon="6.5106">
        <ele>1719</ele>
        <time>2022-07-24T05:44:07Z</time>
      </trkpt>
      <trkpt lat="45.76354" lon="6.5106">
        <ele>1719</ele>
        <time>2022-07-24T05:44:08Z</time>
      </trkpt>
      <trkpt lat="45.76355" lon="6.5106">
        <ele>1719</ele>
        <time>2022-07-24T05:44:09Z</time>
      </trkpt>
      <trkpt lat="45.76356" lon="6.5106">
        <ele>1719</ele>
        <time>2022-07-24T05:44:10Z</time>
      </trkpt>
      <trkpt lat="45.76357" lon="6.5106">
        <ele>1719</ele>
        <time>2022-07-24T05:44:11Z</time>
      </trkpt>
      <trkpt lat="45.76358" lon="6.5106">
        <ele>1719</ele>
        <time>2022-07-24T05:44:12Z</time>
      </trkpt>
      <trkpt lat="45.76359" lon="6.51059">
        <ele>1719</ele>
        <time>2022-07-24T05:44:13Z</time>
      </trkpt>
      <trkpt lat="45.7636" lon="6.51059">
        <ele>1719</ele>
        <time>2022-07-24T05:44:14Z</time>
      </trkpt>
      <trkpt lat="45.76361" lon="6.51059">
        <ele>1719</ele>
        <time>2022-07-24T05:44:15Z</time>
      </trkpt>
      <trkpt lat="45.76361" lon="6.51059">
        <ele>1719</ele>
        <time>2022-07-24T05:44:16Z</time>
      </trkpt>
      <trkpt lat="45.76362" lon="6.51059">
        <ele>1719</ele>
        <time>2022-07-24T05:44:17Z</time>
      </trkpt>
      <trkpt lat="45.76362" lon="6.51058">
        <ele>1719</ele>
        <time>2022-07-24T05:44:18Z</time>
      </trkpt>
      <trkpt lat="45.76363" lon="6.51058">
        <ele>1719</ele>
        <time>2022-07-24T05:44:19Z</time>
      </trkpt>
      <trkpt lat="45.76364" lon="6.51057">
        <ele>1719</ele>
        <time>2022-07-24T05:44:20Z</time>
      </trkpt>
      <trkpt lat="45.76365" lon="6.51057">
        <ele>1719</ele>
        <time>2022-07-24T05:44:21Z</time>
      </trkpt>
      <trkpt lat="45.76366" lon="6.51056">
        <ele>1719</ele>
        <time>2022-07-24T05:44:22Z</time>
      </trkpt>
      <trkpt lat="45.76367" lon="6.51056">
        <ele>1719</ele>
        <time>2022-07-24T05:44:23Z</time>
      </trkpt>
      <trkpt lat="45.76368" lon="6.51055">
        <ele>1719</ele>
        <time>2022-07-24T05:44:24Z</time>
      </trkpt>
      <trkpt lat="45.76369" lon="6.51054">
        <ele>1719</ele>
        <time>2022-07-24T05:44:25Z</time>
      </trkpt>
      <trkpt lat="45.7637" lon="6.51054">
        <ele>1719</ele>
        <time>2022-07-24T05:44:26Z</time>
      </trkpt>
      <trkpt lat="45.76371" lon="6.51054">
        <ele>1719</ele>
        <time>2022-07-24T05:44:27Z</time>
      </trkpt>
      <trkpt lat="45.76373" lon="6.51055">
        <ele>1720</ele>
        <time>2022-07-24T05:45:59Z</time>
      </trkpt>
      <trkpt lat="45.76373" lon="6.51056">
        <ele>1720</ele>
        <time>2022-07-24T05:46:00Z</time>
      </trkpt>
      <trkpt lat="45.76373" lon="6.51056">
        <ele>1720</ele>
        <time>2022-07-24T05:46:01Z</time>
      </trkpt>
      <trkpt lat="45.76374" lon="6.51057">
        <ele>1720</ele>
        <time>2022-07-24T05:46:02Z</time>
      </trkpt>
      <trkpt lat="45.76374" lon="6.51058">
        <ele>1720</ele>
        <time>2022-07-24T05:46:03Z</time>
      </trkpt>
      <trkpt lat="45.76373" lon="6.5106">
        <ele>1720</ele>
        <time>2022-07-24T05:46:04Z</time>
      </trkpt>
      <trkpt lat="45.76373" lon="6.51061">
        <ele>1720</ele>
        <time>2022-07-24T05:46:05Z</time>
      </trkpt>
      <trkpt lat="45.76373" lon="6.51063">
        <ele>1720</ele>
        <time>2022-07-24T05:46:06Z</time>
      </trkpt>
      <trkpt lat="45.76372" lon="6.51065">
        <ele>1720</ele>
        <time>2022-07-24T05:46:07Z</time>
      </trkpt>
      <trkpt lat="45.76372" lon="6.51067">
        <ele>1720</ele>
        <time>2022-07-24T05:46:08Z</time>
      </trkpt>
      <trkpt lat="45.76372" lon="6.51069">
        <ele>1720</ele>
        <time>2022-07-24T05:46:09Z</time>
      </trkpt>
      <trkpt lat="45.76371" lon="6.51071">
        <ele>1719</ele>
        <time>2022-07-24T05:46:10Z</time>
      </trkpt>
      <trkpt lat="45.76371" lon="6.51073">
        <ele>1719</ele>
        <time>2022-07-24T05:46:11Z</time>
      </trkpt>
      <trkpt lat="45.7637" lon="6.51075">
        <ele>1719</ele>
        <time>2022-07-24T05:46:12Z</time>
      </trkpt>
      <trkpt lat="45.7637" lon="6.51077">
        <ele>1719</ele>
        <time>2022-07-24T05:46:13Z</time>
      </trkpt>
      <trkpt lat="45.7637" lon="6.51079">
        <ele>1719</ele>
        <time>2022-07-24T05:46:14Z</time>
      </trkpt>
      <trkpt lat="45.7637" lon="6.51081">
        <ele>1719</ele>
        <time>2022-07-24T05:46:15Z</time>
      </trkpt>
      <trkpt lat="45.76369" lon="6.51082">
        <ele>1719</ele>
        <time>2022-07-24T05:46:16Z</time>
      </trkpt>
      <trkpt lat="45.76369" lon="6.51084">
        <ele>1719</ele>
        <time>2022-07-24T05:46:17Z</time>
      </trkpt>
      <trkpt lat="45.76369" lon="6.51086">
        <ele>1719</ele>
        <time>2022-07-24T05:46:18Z</time>
      </trkpt>
      <trkpt lat="45.76369" lon="6.51088">
        <ele>1719</ele>
        <time>2022-07-24T05:46:19Z</time>
      </trkpt>
      <trkpt lat="45.76369" lon="6.5109">
        <ele>1718</ele>
        <time>2022-07-24T05:46:20Z</time>
      </trkpt>
      <trkpt lat="45.7637" lon="6.51092">
        <ele>1718</ele>
        <time>2022-07-24T05:46:21Z</time>
      </trkpt>
      <trkpt lat="45.7637" lon="6.51094">
        <ele>1718</ele>
        <time>2022-07-24T05:46:22Z</time>
      </trkpt>
      <trkpt lat="45.76371" lon="6.51095">
        <ele>1718</ele>
        <time>2022-07-24T05:46:23Z</time>
      </trkpt>
      <trkpt lat="45.76371" lon="6.51097">
        <ele>1718</ele>
        <time>2022-07-24T05:46:24Z</time>
      </trkpt>
      <trkpt lat="45.76372" lon="6.51098">
        <ele>1718</ele>
        <time>2022-07-24T05:46:25Z</time>
      </trkpt>
      <trkpt lat="45.76373" lon="6.511">
        <ele>1718</ele>
        <time>2022-07-24T05:46:26Z</time>
      </trkpt>
      <trkpt lat="45.76374" lon="6.51101">
        <ele>1718</ele>
        <time>2022-07-24T05:46:27Z</time>
      </trkpt>
      <trkpt lat="45.76375" lon="6.51102">
        <ele>1718</ele>
        <time>2022-07-24T05:46:28Z</time>
      </trkpt>
      <trkpt lat="45.76375" lon="6.51104">
        <ele>1718</ele>
        <time>2022-07-24T05:46:29Z</time>
      </trkpt>
      <trkpt lat="45.76376" lon="6.51105">
        <ele>1718</ele>
        <time>2022-07-24T05:46:30Z</time>
      </trkpt>
      <trkpt lat="45.76377" lon="6.51106">
        <ele>1718</ele>
        <time>2022-07-24T05:46:31Z</time>
      </trkpt>
      <trkpt lat="45.76377" lon="6.51108">
        <ele>1718</ele>
        <time>2022-07-24T05:46:32Z</time>
      </trkpt>
      <trkpt lat="45.76378" lon="6.51109">
        <ele>1718</ele>
        <time>2022-07-24T05:46:33Z</time>
      </trkpt>
      <trkpt lat="45.76378" lon="6.51111">
        <ele>1718</ele>
        <time>2022-07-24T05:46:34Z</time>
      </trkpt>
      <trkpt lat="45.76379" lon="6.51112">
        <ele>1718</ele>
        <time>2022-07-24T05:46:35Z</time>
      </trkpt>
      <trkpt lat="45.76379" lon="6.51113">
        <ele>1718</ele>
        <time>2022-07-24T05:46:36Z</time>
      </trkpt>
      <trkpt lat="45.7638" lon="6.51114">
        <ele>1718</ele>
        <time>2022-07-24T05:46:37Z</time>
      </trkpt>
      <trkpt lat="45.7638" lon="6.51115">
        <ele>1718</ele>
        <time>2022-07-24T05:46:38Z</time>
      </trkpt>
      <trkpt lat="45.76381" lon="6.51115">
        <ele>1718</ele>
        <time>2022-07-24T05:46:39Z</time>
      </trkpt>
      <trkpt lat="45.76381" lon="6.51116">
        <ele>1718</ele>
        <time>2022-07-24T05:46:40Z</time>
      </trkpt>
      <trkpt lat="45.76381" lon="6.51117">
        <ele>1718</ele>
        <time>2022-07-24T05:46:41Z</time>
      </trkpt>
      <trkpt lat="45.76382" lon="6.51118">
        <ele>1718</ele>
        <time>2022-07-24T05:46:42Z</time>
      </trkpt>
      <trkpt lat="45.76382" lon="6.51118">
        <ele>1718</ele>
        <time>2022-07-24T05:46:43Z</time>
      </trkpt>
      <trkpt lat="45.76382" lon="6.51119">
        <ele>1718</ele>
        <time>2022-07-24T05:46:44Z</time>
      </trkpt>
      <trkpt lat="45.76383" lon="6.5112">
        <ele>1718</ele>
        <time>2022-07-24T05:46:45Z</time>
      </trkpt>
      <trkpt lat="45.76383" lon="6.51121">
        <ele>1718</ele>
        <time>2022-07-24T05:46:46Z</time>
      </trkpt>
      <trkpt lat="45.76384" lon="6.51122">
        <ele>1718</ele>
        <time>2022-07-24T05:46:47Z</time>
      </trkpt>
      <trkpt lat="45.76385" lon="6.51123">
        <ele>1718</ele>
        <time>2022-07-24T05:46:48Z</time>
      </trkpt>
      <trkpt lat="45.76385" lon="6.51125">
        <ele>1718</ele>
        <time>2022-07-24T05:46:49Z</time>
      </trkpt>
      <trkpt lat="45.76386" lon="6.51126">
        <ele>1717</ele>
        <time>2022-07-24T05:46:50Z</time>
      </trkpt>
      <trkpt lat="45.76386" lon="6.51127">
        <ele>1717</ele>
        <time>2022-07-24T05:46:51Z</time>
      </trkpt>
      <trkpt lat="45.76387" lon="6.51128">
        <ele>1717</ele>
        <time>2022-07-24T05:46:52Z</time>
      </trkpt>
      <trkpt lat="45.76388" lon="6.5113">
        <ele>1717</ele>
        <time>2022-07-24T05:46:53Z</time>
      </trkpt>
      <trkpt lat="45.76388" lon="6.51131">
        <ele>1717</ele>
        <time>2022-07-24T05:46:54Z</time>
      </trkpt>
      <trkpt lat="45.76389" lon="6.51132">
        <ele>1717</ele>
        <time>2022-07-24T05:46:55Z</time>
      </trkpt>
      <trkpt lat="45.7639" lon="6.51134">
        <ele>1717</ele>
        <time>2022-07-24T05:46:56Z</time>
      </trkpt>
      <trkpt lat="45.7639" lon="6.51135">
        <ele>1717</ele>
        <time>2022-07-24T05:46:57Z</time>
      </trkpt>
      <trkpt lat="45.7639" lon="6.51137">
        <ele>1717</ele>
        <time>2022-07-24T05:46:58Z</time>
      </trkpt>
      <trkpt lat="45.76391" lon="6.51139">
        <ele>1717</ele>
        <time>2022-07-24T05:46:59Z</time>
      </trkpt>
      <trkpt lat="45.76391" lon="6.51141">
        <ele>1717</ele>
        <time>2022-07-24T05:47:00Z</time>
      </trkpt>
      <trkpt lat="45.76391" lon="6.51143">
        <ele>1717</ele>
        <time>2022-07-24T05:47:01Z</time>
      </trkpt>
      <trkpt lat="45.76391" lon="6.51144">
        <ele>1717</ele>
        <time>2022-07-24T05:47:02Z</time>
      </trkpt>
      <trkpt lat="45.76391" lon="6.51146">
        <ele>1717</ele>
        <time>2022-07-24T05:47:03Z</time>
      </trkpt>
      <trkpt lat="45.76391" lon="6.51148">
        <ele>1717</ele>
        <time>2022-07-24T05:47:04Z</time>
      </trkpt>
      <trkpt lat="45.76391" lon="6.51149">
        <ele>1717</ele>
        <time>2022-07-24T05:47:05Z</time>
      </trkpt>
      <trkpt lat="45.76391" lon="6.51151">
        <ele>1717</ele>
        <time>2022-07-24T05:47:06Z</time>
      </trkpt>
      <trkpt lat="45.76391" lon="6.51153">
        <ele>1717</ele>
        <time>2022-07-24T05:47:07Z</time>
      </trkpt>
      <trkpt lat="45.7639" lon="6.51154">
        <ele>1717</ele>
        <time>2022-07-24T05:47:08Z</time>
      </trkpt>
      <trkpt lat="45.7639" lon="6.51156">
        <ele>1717</ele>
        <time>2022-07-24T05:47:09Z</time>
      </trkpt>
      <trkpt lat="45.7639" lon="6.51157">
        <ele>1716</ele>
        <time>2022-07-24T05:47:10Z</time>
      </trkpt>
      <trkpt lat="45.7639" lon="6.51157">
        <ele>1716</ele>
        <time>2022-07-24T05:47:11Z</time>
      </trkpt>
      <trkpt lat="45.7639" lon="6.51157">
        <ele>1716</ele>
        <time>2022-07-24T05:47:12Z</time>
      </trkpt>
      <trkpt lat="45.7639" lon="6.51158">
        <ele>1716</ele>
        <time>2022-07-24T05:47:13Z</time>
      </trkpt>
      <trkpt lat="45.7639" lon="6.51159">
        <ele>1716</ele>
        <time>2022-07-24T05:47:14Z</time>
      </trkpt>
      <trkpt lat="45.7639" lon="6.5116">
        <ele>1716</ele>
        <time>2022-07-24T05:47:15Z</time>
      </trkpt>
      <trkpt lat="45.7639" lon="6.5116">
        <ele>1716</ele>
        <time>2022-07-24T05:47:16Z</time>
      </trkpt>
      <trkpt lat="45.76389" lon="6.51162">
        <ele>1716</ele>
        <time>2022-07-24T05:47:17Z</time>
      </trkpt>
      <trkpt lat="45.76389" lon="6.51163">
        <ele>1716</ele>
        <time>2022-07-24T05:47:18Z</time>
      </trkpt>
      <trkpt lat="45.76389" lon="6.51164">
        <ele>1716</ele>
        <time>2022-07-24T05:47:19Z</time>
      </trkpt>
      <trkpt lat="45.76388" lon="6.51166">
        <ele>1715</ele>
        <time>2022-07-24T05:47:20Z</time>
      </trkpt>
      <trkpt lat="45.76388" lon="6.51168">
        <ele>1715</ele>
        <time>2022-07-24T05:47:21Z</time>
      </trkpt>
      <trkpt lat="45.76387" lon="6.51169">
        <ele>1715</ele>
        <time>2022-07-24T05:47:22Z</time>
      </trkpt>
      <trkpt lat="45.76386" lon="6.51171">
        <ele>1715</ele>
        <time>2022-07-24T05:47:23Z</time>
      </trkpt>
      <trkpt lat="45.76386" lon="6.51172">
        <ele>1715</ele>
        <time>2022-07-24T05:47:24Z</time>
      </trkpt>
      <trkpt lat="45.76385" lon="6.51174">
        <ele>1715</ele>
        <time>2022-07-24T05:47:25Z</time>
      </trkpt>
      <trkpt lat="45.76384" lon="6.51175">
        <ele>1715</ele>
        <time>2022-07-24T05:47:26Z</time>
      </trkpt>
      <trkpt lat="45.76383" lon="6.51177">
        <ele>1715</ele>
        <time>2022-07-24T05:47:27Z</time>
      </trkpt>
      <trkpt lat="45.76382" lon="6.51178">
        <ele>1715</ele>
        <time>2022-07-24T05:47:28Z</time>
      </trkpt>
      <trkpt lat="45.76382" lon="6.5118">
        <ele>1715</ele>
        <time>2022-07-24T05:47:29Z</time>
      </trkpt>
      <trkpt lat="45.76381" lon="6.51181">
        <ele>1714</ele>
        <time>2022-07-24T05:47:30Z</time>
      </trkpt>
      <trkpt lat="45.7638" lon="6.51183">
        <ele>1714</ele>
        <time>2022-07-24T05:47:31Z</time>
      </trkpt>
      <trkpt lat="45.76379" lon="6.51184">
        <ele>1714</ele>
        <time>2022-07-24T05:47:32Z</time>
      </trkpt>
      <trkpt lat="45.76378" lon="6.51186">
        <ele>1714</ele>
        <time>2022-07-24T05:47:33Z</time>
      </trkpt>
      <trkpt lat="45.76377" lon="6.51187">
        <ele>1714</ele>
        <time>2022-07-24T05:47:34Z</time>
      </trkpt>
      <trkpt lat="45.76376" lon="6.51188">
        <ele>1713</ele>
        <time>2022-07-24T05:47:35Z</time>
      </trkpt>
      <trkpt lat="45.76376" lon="6.51189">
        <ele>1713</ele>
        <time>2022-07-24T05:47:36Z</time>
      </trkpt>
      <trkpt lat="45.76375" lon="6.5119">
        <ele>1713</ele>
        <time>2022-07-24T05:47:37Z</time>
      </trkpt>
      <trkpt lat="45.76374" lon="6.51192">
        <ele>1713</ele>
        <time>2022-07-24T05:47:38Z</time>
      </trkpt>
      <trkpt lat="45.76373" lon="6.51193">
        <ele>1713</ele>
        <time>2022-07-24T05:47:39Z</time>
      </trkpt>
      <trkpt lat="45.76372" lon="6.51194">
        <ele>1713</ele>
        <time>2022-07-24T05:47:40Z</time>
      </trkpt>
      <trkpt lat="45.76371" lon="6.51195">
        <ele>1713</ele>
        <time>2022-07-24T05:47:41Z</time>
      </trkpt>
      <trkpt lat="45.7637" lon="6.51196">
        <ele>1713</ele>
        <time>2022-07-24T05:47:42Z</time>
      </trkpt>
      <trkpt lat="45.76369" lon="6.51198">
        <ele>1713</ele>
        <time>2022-07-24T05:47:43Z</time>
      </trkpt>
      <trkpt lat="45.76368" lon="6.51199">
        <ele>1713</ele>
        <time>2022-07-24T05:47:44Z</time>
      </trkpt>
      <trkpt lat="45.76368" lon="6.512">
        <ele>1713</ele>
        <time>2022-07-24T05:47:45Z</time>
      </trkpt>
      <trkpt lat="45.76367" lon="6.51202">
        <ele>1713</ele>
        <time>2022-07-24T05:47:46Z</time>
      </trkpt>
      <trkpt lat="45.76366" lon="6.51203">
        <ele>1713</ele>
        <time>2022-07-24T05:47:47Z</time>
      </trkpt>
      <trkpt lat="45.76365" lon="6.51204">
        <ele>1713</ele>
        <time>2022-07-24T05:47:48Z</time>
      </trkpt>
      <trkpt lat="45.76364" lon="6.51206">
        <ele>1713</ele>
        <time>2022-07-24T05:47:49Z</time>
      </trkpt>
      <trkpt lat="45.76364" lon="6.51207">
        <ele>1713</ele>
        <time>2022-07-24T05:47:50Z</time>
      </trkpt>
      <trkpt lat="45.76363" lon="6.51209">
        <ele>1713</ele>
        <time>2022-07-24T05:47:51Z</time>
      </trkpt>
      <trkpt lat="45.76362" lon="6.5121">
        <ele>1713</ele>
        <time>2022-07-24T05:47:52Z</time>
      </trkpt>
      <trkpt lat="45.76361" lon="6.51211">
        <ele>1713</ele>
        <time>2022-07-24T05:47:53Z</time>
      </trkpt>
      <trkpt lat="45.76361" lon="6.51213">
        <ele>1713</ele>
        <time>2022-07-24T05:47:54Z</time>
      </trkpt>
      <trkpt lat="45.7636" lon="6.51214">
        <ele>1713</ele>
        <time>2022-07-24T05:48:28Z</time>
      </trkpt>
      <trkpt lat="45.76359" lon="6.51215">
        <ele>1713</ele>
        <time>2022-07-24T05:48:29Z</time>
      </trkpt>
      <trkpt lat="45.76358" lon="6.51216">
        <ele>1713</ele>
        <time>2022-07-24T05:48:30Z</time>
      </trkpt>
      <trkpt lat="45.76358" lon="6.51217">
        <ele>1713</ele>
        <time>2022-07-24T05:48:31Z</time>
      </trkpt>
      <trkpt lat="45.76357" lon="6.51217">
        <ele>1713</ele>
        <time>2022-07-24T05:48:32Z</time>
      </trkpt>
      <trkpt lat="45.76356" lon="6.51218">
        <ele>1713</ele>
        <time>2022-07-24T05:48:33Z</time>
      </trkpt>
      <trkpt lat="45.76356" lon="6.51218">
        <ele>1713</ele>
        <time>2022-07-24T05:48:34Z</time>
      </trkpt>
      <trkpt lat="45.76355" lon="6.51218">
        <ele>1713</ele>
        <time>2022-07-24T05:48:35Z</time>
      </trkpt>
      <trkpt lat="45.76354" lon="6.51219">
        <ele>1713</ele>
        <time>2022-07-24T05:48:36Z</time>
      </trkpt>
      <trkpt lat="45.76353" lon="6.5122">
        <ele>1713</ele>
        <time>2022-07-24T05:48:37Z</time>
      </trkpt>
      <trkpt lat="45.76352" lon="6.5122">
        <ele>1713</ele>
        <time>2022-07-24T05:48:38Z</time>
      </trkpt>
      <trkpt lat="45.76352" lon="6.51221">
        <ele>1713</ele>
        <time>2022-07-24T05:48:39Z</time>
      </trkpt>
      <trkpt lat="45.76351" lon="6.51222">
        <ele>1713</ele>
        <time>2022-07-24T05:48:40Z</time>
      </trkpt>
      <trkpt lat="45.7635" lon="6.51223">
        <ele>1713</ele>
        <time>2022-07-24T05:48:41Z</time>
      </trkpt>
      <trkpt lat="45.76349" lon="6.51224">
        <ele>1713</ele>
        <time>2022-07-24T05:48:42Z</time>
      </trkpt>
      <trkpt lat="45.76348" lon="6.51225">
        <ele>1713</ele>
        <time>2022-07-24T05:48:43Z</time>
      </trkpt>
      <trkpt lat="45.76348" lon="6.51225">
        <ele>1713</ele>
        <time>2022-07-24T05:48:44Z</time>
      </trkpt>
      <trkpt lat="45.76347" lon="6.51226">
        <ele>1713</ele>
        <time>2022-07-24T05:48:45Z</time>
      </trkpt>
      <trkpt lat="45.76346" lon="6.51227">
        <ele>1713</ele>
        <time>2022-07-24T05:48:46Z</time>
      </trkpt>
      <trkpt lat="45.76345" lon="6.51228">
        <ele>1713</ele>
        <time>2022-07-24T05:48:47Z</time>
      </trkpt>
      <trkpt lat="45.76344" lon="6.51229">
        <ele>1713</ele>
        <time>2022-07-24T05:48:48Z</time>
      </trkpt>
      <trkpt lat="45.76343" lon="6.51229">
        <ele>1713</ele>
        <time>2022-07-24T05:48:49Z</time>
      </trkpt>
      <trkpt lat="45.76343" lon="6.5123">
        <ele>1713</ele>
        <time>2022-07-24T05:48:50Z</time>
      </trkpt>
      <trkpt lat="45.76342" lon="6.51231">
        <ele>1713</ele>
        <time>2022-07-24T05:48:51Z</time>
      </trkpt>
      <trkpt lat="45.76341" lon="6.51232">
        <ele>1713</ele>
        <time>2022-07-24T05:48:52Z</time>
      </trkpt>
      <trkpt lat="45.7634" lon="6.51233">
        <ele>1713</ele>
        <time>2022-07-24T05:48:53Z</time>
      </trkpt>
      <trkpt lat="45.76339" lon="6.51234">
        <ele>1713</ele>
        <time>2022-07-24T05:48:54Z</time>
      </trkpt>
      <trkpt lat="45.76339" lon="6.51235">
        <ele>1713</ele>
        <time>2022-07-24T05:48:55Z</time>
      </trkpt>
      <trkpt lat="45.76338" lon="6.51236">
        <ele>1713</ele>
        <time>2022-07-24T05:48:56Z</time>
      </trkpt>
      <trkpt lat="45.76337" lon="6.51237">
        <ele>1713</ele>
        <time>2022-07-24T05:48:57Z</time>
      </trkpt>
      <trkpt lat="45.76336" lon="6.51238">
        <ele>1713</ele>
        <time>2022-07-24T05:48:58Z</time>
      </trkpt>
      <trkpt lat="45.76335" lon="6.51238">
        <ele>1714</ele>
        <time>2022-07-24T05:48:59Z</time>
      </trkpt>
      <trkpt lat="45.76334" lon="6.51239">
        <ele>1714</ele>
        <time>2022-07-24T05:49:00Z</time>
      </trkpt>
      <trkpt lat="45.76333" lon="6.5124">
        <ele>1714</ele>
        <time>2022-07-24T05:49:01Z</time>
      </trkpt>
      <trkpt lat="45.76332" lon="6.51241">
        <ele>1714</ele>
        <time>2022-07-24T05:49:02Z</time>
      </trkpt>
      <trkpt lat="45.76332" lon="6.51241">
        <ele>1714</ele>
        <time>2022-07-24T05:49:03Z</time>
      </trkpt>
      <trkpt lat="45.76331" lon="6.51242">
        <ele>1714</ele>
        <time>2022-07-24T05:49:04Z</time>
      </trkpt>
      <trkpt lat="45.7633" lon="6.51242">
        <ele>1714</ele>
        <time>2022-07-24T05:49:05Z</time>
      </trkpt>
      <trkpt lat="45.76329" lon="6.51242">
        <ele>1714</ele>
        <time>2022-07-24T05:49:06Z</time>
      </trkpt>
      <trkpt lat="45.76328" lon="6.51243">
        <ele>1714</ele>
        <time>2022-07-24T05:49:07Z</time>
      </trkpt>
      <trkpt lat="45.76327" lon="6.51243">
        <ele>1714</ele>
        <time>2022-07-24T05:49:08Z</time>
      </trkpt>
      <trkpt lat="45.76326" lon="6.51244">
        <ele>1714</ele>
        <time>2022-07-24T05:49:09Z</time>
      </trkpt>
      <trkpt lat="45.76325" lon="6.51245">
        <ele>1714</ele>
        <time>2022-07-24T05:49:10Z</time>
      </trkpt>
      <trkpt lat="45.76324" lon="6.51245">
        <ele>1714</ele>
        <time>2022-07-24T05:49:11Z</time>
      </trkpt>
      <trkpt lat="45.76323" lon="6.51246">
        <ele>1714</ele>
        <time>2022-07-24T05:49:12Z</time>
      </trkpt>
      <trkpt lat="45.76321" lon="6.51246">
        <ele>1714</ele>
        <time>2022-07-24T05:49:13Z</time>
      </trkpt>
      <trkpt lat="45.7632" lon="6.51247">
        <ele>1714</ele>
        <time>2022-07-24T05:49:14Z</time>
      </trkpt>
      <trkpt lat="45.76319" lon="6.51247">
        <ele>1714</ele>
        <time>2022-07-24T05:49:15Z</time>
      </trkpt>
      <trkpt lat="45.76318" lon="6.51248">
        <ele>1714</ele>
        <time>2022-07-24T05:49:16Z</time>
      </trkpt>
      <trkpt lat="45.76317" lon="6.51249">
        <ele>1714</ele>
        <time>2022-07-24T05:49:17Z</time>
      </trkpt>
      <trkpt lat="45.76316" lon="6.51249">
        <ele>1714</ele>
        <time>2022-07-24T05:49:18Z</time>
      </trkpt>
      <trkpt lat="45.76315" lon="6.5125">
        <ele>1714</ele>
        <time>2022-07-24T05:49:19Z</time>
      </trkpt>
      <trkpt lat="45.76314" lon="6.51251">
        <ele>1714</ele>
        <time>2022-07-24T05:49:20Z</time>
      </trkpt>
      <trkpt lat="45.76313" lon="6.51251">
        <ele>1714</ele>
        <time>2022-07-24T05:49:21Z</time>
      </trkpt>
      <trkpt lat="45.76312" lon="6.51252">
        <ele>1714</ele>
        <time>2022-07-24T05:49:22Z</time>
      </trkpt>
      <trkpt lat="45.76311" lon="6.51253">
        <ele>1714</ele>
        <time>2022-07-24T05:49:23Z</time>
      </trkpt>
      <trkpt lat="45.7631" lon="6.51254">
        <ele>1715</ele>
        <time>2022-07-24T05:49:24Z</time>
      </trkpt>
      <trkpt lat="45.76309" lon="6.51255">
        <ele>1715</ele>
        <time>2022-07-24T05:49:25Z</time>
      </trkpt>
      <trkpt lat="45.76309" lon="6.51256">
        <ele>1715</ele>
        <time>2022-07-24T05:49:26Z</time>
      </trkpt>
      <trkpt lat="45.76308" lon="6.51257">
        <ele>1715</ele>
        <time>2022-07-24T05:49:27Z</time>
      </trkpt>
      <trkpt lat="45.76307" lon="6.51259">
        <ele>1715</ele>
        <time>2022-07-24T05:49:28Z</time>
      </trkpt>
      <trkpt lat="45.76307" lon="6.5126">
        <ele>1715</ele>
        <time>2022-07-24T05:49:29Z</time>
      </trkpt>
      <trkpt lat="45.76306" lon="6.51261">
        <ele>1715</ele>
        <time>2022-07-24T05:49:30Z</time>
      </trkpt>
      <trkpt lat="45.76306" lon="6.51263">
        <ele>1715</ele>
        <time>2022-07-24T05:49:31Z</time>
      </trkpt>
      <trkpt lat="45.76305" lon="6.51264">
        <ele>1715</ele>
        <time>2022-07-24T05:49:32Z</time>
      </trkpt>
      <trkpt lat="45.76305" lon="6.51266">
        <ele>1715</ele>
        <time>2022-07-24T05:49:33Z</time>
      </trkpt>
      <trkpt lat="45.76304" lon="6.51268">
        <ele>1715</ele>
        <time>2022-07-24T05:49:34Z</time>
      </trkpt>
      <trkpt lat="45.76304" lon="6.51269">
        <ele>1715</ele>
        <time>2022-07-24T05:49:35Z</time>
      </trkpt>
      <trkpt lat="45.76303" lon="6.51271">
        <ele>1715</ele>
        <time>2022-07-24T05:49:36Z</time>
      </trkpt>
      <trkpt lat="45.76303" lon="6.51272">
        <ele>1715</ele>
        <time>2022-07-24T05:49:37Z</time>
      </trkpt>
      <trkpt lat="45.76303" lon="6.51274">
        <ele>1715</ele>
        <time>2022-07-24T05:49:38Z</time>
      </trkpt>
      <trkpt lat="45.76302" lon="6.51275">
        <ele>1715</ele>
        <time>2022-07-24T05:49:39Z</time>
      </trkpt>
      <trkpt lat="45.76302" lon="6.51276">
        <ele>1715</ele>
        <time>2022-07-24T05:49:40Z</time>
      </trkpt>
      <trkpt lat="45.76302" lon="6.51278">
        <ele>1715</ele>
        <time>2022-07-24T05:49:41Z</time>
      </trkpt>
      <trkpt lat="45.76301" lon="6.51279">
        <ele>1715</ele>
        <time>2022-07-24T05:49:42Z</time>
      </trkpt>
      <trkpt lat="45.76301" lon="6.5128">
        <ele>1715</ele>
        <time>2022-07-24T05:49:43Z</time>
      </trkpt>
      <trkpt lat="45.76301" lon="6.51282">
        <ele>1715</ele>
        <time>2022-07-24T05:49:44Z</time>
      </trkpt>
      <trkpt lat="45.763" lon="6.51283">
        <ele>1715</ele>
        <time>2022-07-24T05:49:45Z</time>
      </trkpt>
      <trkpt lat="45.763" lon="6.51285">
        <ele>1715</ele>
        <time>2022-07-24T05:49:46Z</time>
      </trkpt>
      <trkpt lat="45.76299" lon="6.51286">
        <ele>1715</ele>
        <time>2022-07-24T05:49:47Z</time>
      </trkpt>
      <trkpt lat="45.76298" lon="6.51288">
        <ele>1715</ele>
        <time>2022-07-24T05:49:48Z</time>
      </trkpt>
      <trkpt lat="45.76297" lon="6.51289">
        <ele>1715</ele>
        <time>2022-07-24T05:49:49Z</time>
      </trkpt>
      <trkpt lat="45.76297" lon="6.51291">
        <ele>1715</ele>
        <time>2022-07-24T05:49:50Z</time>
      </trkpt>
      <trkpt lat="45.76296" lon="6.51292">
        <ele>1715</ele>
        <time>2022-07-24T05:49:51Z</time>
      </trkpt>
      <trkpt lat="45.76295" lon="6.51293">
        <ele>1715</ele>
        <time>2022-07-24T05:49:52Z</time>
      </trkpt>
      <trkpt lat="45.76294" lon="6.51295">
        <ele>1715</ele>
        <time>2022-07-24T05:49:53Z</time>
      </trkpt>
      <trkpt lat="45.76294" lon="6.51296">
        <ele>1715</ele>
        <time>2022-07-24T05:49:54Z</time>
      </trkpt>
      <trkpt lat="45.76293" lon="6.51297">
        <ele>1715</ele>
        <time>2022-07-24T05:49:55Z</time>
      </trkpt>
      <trkpt lat="45.76293" lon="6.51299">
        <ele>1715</ele>
        <time>2022-07-24T05:49:56Z</time>
      </trkpt>
      <trkpt lat="45.76293" lon="6.513">
        <ele>1715</ele>
        <time>2022-07-24T05:49:57Z</time>
      </trkpt>
      <trkpt lat="45.76292" lon="6.51301">
        <ele>1715</ele>
        <time>2022-07-24T05:49:58Z</time>
      </trkpt>
      <trkpt lat="45.76292" lon="6.51302">
        <ele>1715</ele>
        <time>2022-07-24T05:49:59Z</time>
      </trkpt>
      <trkpt lat="45.76292" lon="6.51303">
        <ele>1715</ele>
        <time>2022-07-24T05:50:00Z</time>
      </trkpt>
      <trkpt lat="45.76291" lon="6.51304">
        <ele>1715</ele>
        <time>2022-07-24T05:50:01Z</time>
      </trkpt>
      <trkpt lat="45.76291" lon="6.51306">
        <ele>1715</ele>
        <time>2022-07-24T05:50:02Z</time>
      </trkpt>
      <trkpt lat="45.7629" lon="6.51307">
        <ele>1715</ele>
        <time>2022-07-24T05:50:03Z</time>
      </trkpt>
      <trkpt lat="45.7629" lon="6.51308">
        <ele>1715</ele>
        <time>2022-07-24T05:50:04Z</time>
      </trkpt>
      <trkpt lat="45.76289" lon="6.51309">
        <ele>1715</ele>
        <time>2022-07-24T05:50:05Z</time>
      </trkpt>
      <trkpt lat="45.76289" lon="6.51311">
        <ele>1715</ele>
        <time>2022-07-24T05:50:06Z</time>
      </trkpt>
      <trkpt lat="45.76288" lon="6.51312">
        <ele>1715</ele>
        <time>2022-07-24T05:50:07Z</time>
      </trkpt>
      <trkpt lat="45.76287" lon="6.51314">
        <ele>1715</ele>
        <time>2022-07-24T05:50:08Z</time>
      </trkpt>
      <trkpt lat="45.76286" lon="6.51315">
        <ele>1715</ele>
        <time>2022-07-24T05:50:09Z</time>
      </trkpt>
      <trkpt lat="45.76285" lon="6.51317">
        <ele>1715</ele>
        <time>2022-07-24T05:50:10Z</time>
      </trkpt>
      <trkpt lat="45.76285" lon="6.51318">
        <ele>1715</ele>
        <time>2022-07-24T05:50:11Z</time>
      </trkpt>
      <trkpt lat="45.76284" lon="6.5132">
        <ele>1715</ele>
        <time>2022-07-24T05:50:12Z</time>
      </trkpt>
      <trkpt lat="45.76283" lon="6.51322">
        <ele>1715</ele>
        <time>2022-07-24T05:50:13Z</time>
      </trkpt>
      <trkpt lat="45.76282" lon="6.51323">
        <ele>1715</ele>
        <time>2022-07-24T05:50:14Z</time>
      </trkpt>
      <trkpt lat="45.76282" lon="6.51325">
        <ele>1715</ele>
        <time>2022-07-24T05:50:15Z</time>
      </trkpt>
      <trkpt lat="45.76281" lon="6.51327">
        <ele>1715</ele>
        <time>2022-07-24T05:50:16Z</time>
      </trkpt>
      <trkpt lat="45.7628" lon="6.51329">
        <ele>1715</ele>
        <time>2022-07-24T05:50:17Z</time>
      </trkpt>
      <trkpt lat="45.7628" lon="6.5133">
        <ele>1715</ele>
        <time>2022-07-24T05:50:18Z</time>
      </trkpt>
      <trkpt lat="45.7628" lon="6.51332">
        <ele>1715</ele>
        <time>2022-07-24T05:50:19Z</time>
      </trkpt>
      <trkpt lat="45.76279" lon="6.51334">
        <ele>1715</ele>
        <time>2022-07-24T05:50:20Z</time>
      </trkpt>
      <trkpt lat="45.76279" lon="6.51336">
        <ele>1715</ele>
        <time>2022-07-24T05:50:21Z</time>
      </trkpt>
      <trkpt lat="45.76279" lon="6.51338">
        <ele>1715</ele>
        <time>2022-07-24T05:50:22Z</time>
      </trkpt>
      <trkpt lat="45.76278" lon="6.51339">
        <ele>1715</ele>
        <time>2022-07-24T05:50:23Z</time>
      </trkpt>
      <trkpt lat="45.76278" lon="6.51341">
        <ele>1715</ele>
        <time>2022-07-24T05:50:24Z</time>
      </trkpt>
      <trkpt lat="45.76278" lon="6.51343">
        <ele>1714</ele>
        <time>2022-07-24T05:50:25Z</time>
      </trkpt>
      <trkpt lat="45.76278" lon="6.51345">
        <ele>1714</ele>
        <time>2022-07-24T05:50:26Z</time>
      </trkpt>
      <trkpt lat="45.76277" lon="6.51346">
        <ele>1714</ele>
        <time>2022-07-24T05:50:27Z</time>
      </trkpt>
      <trkpt lat="45.76277" lon="6.51348">
        <ele>1714</ele>
        <time>2022-07-24T05:50:28Z</time>
      </trkpt>
      <trkpt lat="45.76277" lon="6.5135">
        <ele>1714</ele>
        <time>2022-07-24T05:50:29Z</time>
      </trkpt>
      <trkpt lat="45.76277" lon="6.51352">
        <ele>1714</ele>
        <time>2022-07-24T05:50:30Z</time>
      </trkpt>
      <trkpt lat="45.76276" lon="6.51353">
        <ele>1714</ele>
        <time>2022-07-24T05:50:31Z</time>
      </trkpt>
      <trkpt lat="45.76276" lon="6.51355">
        <ele>1714</ele>
        <time>2022-07-24T05:50:32Z</time>
      </trkpt>
      <trkpt lat="45.76276" lon="6.51357">
        <ele>1714</ele>
        <time>2022-07-24T05:50:33Z</time>
      </trkpt>
      <trkpt lat="45.76276" lon="6.51358">
        <ele>1714</ele>
        <time>2022-07-24T05:50:34Z</time>
      </trkpt>
      <trkpt lat="45.76276" lon="6.5136">
        <ele>1714</ele>
        <time>2022-07-24T05:50:35Z</time>
      </trkpt>
      <trkpt lat="45.76275" lon="6.51362">
        <ele>1714</ele>
        <time>2022-07-24T05:50:36Z</time>
      </trkpt>
      <trkpt lat="45.76275" lon="6.51363">
        <ele>1714</ele>
        <time>2022-07-24T05:50:37Z</time>
      </trkpt>
      <trkpt lat="45.76275" lon="6.51365">
        <ele>1714</ele>
        <time>2022-07-24T05:50:38Z</time>
      </trkpt>
      <trkpt lat="45.76274" lon="6.51366">
        <ele>1714</ele>
        <time>2022-07-24T05:50:39Z</time>
      </trkpt>
      <trkpt lat="45.76274" lon="6.51367">
        <ele>1714</ele>
        <time>2022-07-24T05:50:40Z</time>
      </trkpt>
      <trkpt lat="45.76273" lon="6.51368">
        <ele>1714</ele>
        <time>2022-07-24T05:50:41Z</time>
      </trkpt>
      <trkpt lat="45.76272" lon="6.51369">
        <ele>1714</ele>
        <time>2022-07-24T05:50:42Z</time>
      </trkpt>
      <trkpt lat="45.76272" lon="6.5137">
        <ele>1714</ele>
        <time>2022-07-24T05:50:43Z</time>
      </trkpt>
      <trkpt lat="45.76271" lon="6.51371">
        <ele>1714</ele>
        <time>2022-07-24T05:50:44Z</time>
      </trkpt>
      <trkpt lat="45.76271" lon="6.51372">
        <ele>1714</ele>
        <time>2022-07-24T05:50:45Z</time>
      </trkpt>
      <trkpt lat="45.7627" lon="6.51373">
        <ele>1714</ele>
        <time>2022-07-24T05:50:46Z</time>
      </trkpt>
      <trkpt lat="45.76269" lon="6.51374">
        <ele>1714</ele>
        <time>2022-07-24T05:50:47Z</time>
      </trkpt>
      <trkpt lat="45.76269" lon="6.51375">
        <ele>1714</ele>
        <time>2022-07-24T05:50:48Z</time>
      </trkpt>
      <trkpt lat="45.76268" lon="6.51377">
        <ele>1714</ele>
        <time>2022-07-24T05:50:49Z</time>
      </trkpt>
      <trkpt lat="45.76267" lon="6.51378">
        <ele>1713</ele>
        <time>2022-07-24T05:50:50Z</time>
      </trkpt>
      <trkpt lat="45.76266" lon="6.51379">
        <ele>1713</ele>
        <time>2022-07-24T05:50:51Z</time>
      </trkpt>
      <trkpt lat="45.76265" lon="6.5138">
        <ele>1713</ele>
        <time>2022-07-24T05:50:52Z</time>
      </trkpt>
      <trkpt lat="45.76264" lon="6.5138">
        <ele>1713</ele>
        <time>2022-07-24T05:50:53Z</time>
      </trkpt>
      <trkpt lat="45.76263" lon="6.51381">
        <ele>1713</ele>
        <time>2022-07-24T05:50:54Z</time>
      </trkpt>
      <trkpt lat="45.76262" lon="6.51382">
        <ele>1712</ele>
        <time>2022-07-24T05:50:55Z</time>
      </trkpt>
      <trkpt lat="45.76261" lon="6.51382">
        <ele>1712</ele>
        <time>2022-07-24T05:50:56Z</time>
      </trkpt>
      <trkpt lat="45.7626" lon="6.51383">
        <ele>1712</ele>
        <time>2022-07-24T05:50:57Z</time>
      </trkpt>
      <trkpt lat="45.76259" lon="6.51384">
        <ele>1712</ele>
        <time>2022-07-24T05:50:58Z</time>
      </trkpt>
      <trkpt lat="45.76258" lon="6.51385">
        <ele>1712</ele>
        <time>2022-07-24T05:50:59Z</time>
      </trkpt>
      <trkpt lat="45.76257" lon="6.51386">
        <ele>1712</ele>
        <time>2022-07-24T05:51:00Z</time>
      </trkpt>
      <trkpt lat="45.76256" lon="6.51387">
        <ele>1712</ele>
        <time>2022-07-24T05:51:01Z</time>
      </trkpt>
      <trkpt lat="45.76255" lon="6.51388">
        <ele>1712</ele>
        <time>2022-07-24T05:51:02Z</time>
      </trkpt>
      <trkpt lat="45.76254" lon="6.51389">
        <ele>1712</ele>
        <time>2022-07-24T05:51:03Z</time>
      </trkpt>
      <trkpt lat="45.76253" lon="6.5139">
        <ele>1712</ele>
        <time>2022-07-24T05:51:04Z</time>
      </trkpt>
      <trkpt lat="45.76253" lon="6.51392">
        <ele>1711</ele>
        <time>2022-07-24T05:51:05Z</time>
      </trkpt>
      <trkpt lat="45.76252" lon="6.51393">
        <ele>1711</ele>
        <time>2022-07-24T05:51:06Z</time>
      </trkpt>
      <trkpt lat="45.76251" lon="6.51395">
        <ele>1711</ele>
        <time>2022-07-24T05:51:07Z</time>
      </trkpt>
      <trkpt lat="45.7625" lon="6.51396">
        <ele>1711</ele>
        <time>2022-07-24T05:51:08Z</time>
      </trkpt>
      <trkpt lat="45.76249" lon="6.51398">
        <ele>1711</ele>
        <time>2022-07-24T05:51:09Z</time>
      </trkpt>
      <trkpt lat="45.76249" lon="6.51399">
        <ele>1710</ele>
        <time>2022-07-24T05:51:10Z</time>
      </trkpt>
      <trkpt lat="45.76248" lon="6.514">
        <ele>1710</ele>
        <time>2022-07-24T05:51:11Z</time>
      </trkpt>
      <trkpt lat="45.76247" lon="6.51402">
        <ele>1710</ele>
        <time>2022-07-24T05:51:12Z</time>
      </trkpt>
      <trkpt lat="45.76246" lon="6.51403">
        <ele>1710</ele>
        <time>2022-07-24T05:51:13Z</time>
      </trkpt>
      <trkpt lat="45.76245" lon="6.51404">
        <ele>1710</ele>
        <time>2022-07-24T05:51:14Z</time>
      </trkpt>
      <trkpt lat="45.76244" lon="6.51405">
        <ele>1709</ele>
        <time>2022-07-24T05:51:15Z</time>
      </trkpt>
      <trkpt lat="45.76243" lon="6.51406">
        <ele>1709</ele>
        <time>2022-07-24T05:51:16Z</time>
      </trkpt>
      <trkpt lat="45.76242" lon="6.51407">
        <ele>1709</ele>
        <time>2022-07-24T05:51:17Z</time>
      </trkpt>
      <trkpt lat="45.76241" lon="6.51409">
        <ele>1709</ele>
        <time>2022-07-24T05:51:18Z</time>
      </trkpt>
      <trkpt lat="45.76241" lon="6.5141">
        <ele>1709</ele>
        <time>2022-07-24T05:51:19Z</time>
      </trkpt>
      <trkpt lat="45.7624" lon="6.51411">
        <ele>1708</ele>
        <time>2022-07-24T05:51:20Z</time>
      </trkpt>
      <trkpt lat="45.76239" lon="6.51412">
        <ele>1708</ele>
        <time>2022-07-24T05:51:21Z</time>
      </trkpt>
      <trkpt lat="45.76238" lon="6.51414">
        <ele>1708</ele>
        <time>2022-07-24T05:51:22Z</time>
      </trkpt>
      <trkpt lat="45.76237" lon="6.51415">
        <ele>1708</ele>
        <time>2022-07-24T05:51:23Z</time>
      </trkpt>
      <trkpt lat="45.76237" lon="6.51417">
        <ele>1708</ele>
        <time>2022-07-24T05:51:24Z</time>
      </trkpt>
      <trkpt lat="45.76236" lon="6.51418">
        <ele>1708</ele>
        <time>2022-07-24T05:51:25Z</time>
      </trkpt>
      <trkpt lat="45.76235" lon="6.51419">
        <ele>1708</ele>
        <time>2022-07-24T05:51:26Z</time>
      </trkpt>
      <trkpt lat="45.76235" lon="6.51421">
        <ele>1708</ele>
        <time>2022-07-24T05:51:27Z</time>
      </trkpt>
      <trkpt lat="45.76234" lon="6.51422">
        <ele>1708</ele>
        <time>2022-07-24T05:51:28Z</time>
      </trkpt>
      <trkpt lat="45.76233" lon="6.51424">
        <ele>1708</ele>
        <time>2022-07-24T05:51:29Z</time>
      </trkpt>
      <trkpt lat="45.76233" lon="6.51425">
        <ele>1707</ele>
        <time>2022-07-24T05:51:30Z</time>
      </trkpt>
      <trkpt lat="45.76232" lon="6.51427">
        <ele>1707</ele>
        <time>2022-07-24T05:51:31Z</time>
      </trkpt>
      <trkpt lat="45.76231" lon="6.51428">
        <ele>1707</ele>
        <time>2022-07-24T05:51:32Z</time>
      </trkpt>
      <trkpt lat="45.7623" lon="6.51429">
        <ele>1707</ele>
        <time>2022-07-24T05:51:33Z</time>
      </trkpt>
      <trkpt lat="45.7623" lon="6.5143">
        <ele>1707</ele>
        <time>2022-07-24T05:51:34Z</time>
      </trkpt>
      <trkpt lat="45.76229" lon="6.51432">
        <ele>1707</ele>
        <time>2022-07-24T05:51:35Z</time>
      </trkpt>
      <trkpt lat="45.76229" lon="6.51433">
        <ele>1707</ele>
        <time>2022-07-24T05:51:36Z</time>
      </trkpt>
      <trkpt lat="45.76228" lon="6.51434">
        <ele>1707</ele>
        <time>2022-07-24T05:51:37Z</time>
      </trkpt>
      <trkpt lat="45.76228" lon="6.51435">
        <ele>1707</ele>
        <time>2022-07-24T05:51:38Z</time>
      </trkpt>
      <trkpt lat="45.76227" lon="6.51437">
        <ele>1707</ele>
        <time>2022-07-24T05:51:39Z</time>
      </trkpt>
      <trkpt lat="45.76226" lon="6.51438">
        <ele>1706</ele>
        <time>2022-07-24T05:51:40Z</time>
      </trkpt>
      <trkpt lat="45.76226" lon="6.51439">
        <ele>1706</ele>
        <time>2022-07-24T05:51:41Z</time>
      </trkpt>
      <trkpt lat="45.76225" lon="6.51441">
        <ele>1706</ele>
        <time>2022-07-24T05:51:42Z</time>
      </trkpt>
      <trkpt lat="45.76225" lon="6.51442">
        <ele>1706</ele>
        <time>2022-07-24T05:51:43Z</time>
      </trkpt>
      <trkpt lat="45.76224" lon="6.51443">
        <ele>1706</ele>
        <time>2022-07-24T05:51:44Z</time>
      </trkpt>
      <trkpt lat="45.76224" lon="6.51445">
        <ele>1706</ele>
        <time>2022-07-24T05:51:45Z</time>
      </trkpt>
      <trkpt lat="45.76223" lon="6.51447">
        <ele>1706</ele>
        <time>2022-07-24T05:51:46Z</time>
      </trkpt>
      <trkpt lat="45.76223" lon="6.51448">
        <ele>1706</ele>
        <time>2022-07-24T05:51:47Z</time>
      </trkpt>
      <trkpt lat="45.76223" lon="6.5145">
        <ele>1706</ele>
        <time>2022-07-24T05:51:48Z</time>
      </trkpt>
      <trkpt lat="45.76222" lon="6.51452">
        <ele>1706</ele>
        <time>2022-07-24T05:51:49Z</time>
      </trkpt>
      <trkpt lat="45.76222" lon="6.51453">
        <ele>1705</ele>
        <time>2022-07-24T05:51:50Z</time>
      </trkpt>
      <trkpt lat="45.76222" lon="6.51455">
        <ele>1705</ele>
        <time>2022-07-24T05:51:51Z</time>
      </trkpt>
      <trkpt lat="45.76221" lon="6.51457">
        <ele>1705</ele>
        <time>2022-07-24T05:51:52Z</time>
      </trkpt>
      <trkpt lat="45.76221" lon="6.51458">
        <ele>1705</ele>
        <time>2022-07-24T05:51:53Z</time>
      </trkpt>
      <trkpt lat="45.76221" lon="6.51459">
        <ele>1705</ele>
        <time>2022-07-24T05:51:54Z</time>
      </trkpt>
      <trkpt lat="45.76221" lon="6.51461">
        <ele>1704</ele>
        <time>2022-07-24T05:52:05Z</time>
      </trkpt>
      <trkpt lat="45.76221" lon="6.51462">
        <ele>1704</ele>
        <time>2022-07-24T05:52:06Z</time>
      </trkpt>
      <trkpt lat="45.76221" lon="6.51463">
        <ele>1704</ele>
        <time>2022-07-24T05:52:07Z</time>
      </trkpt>
      <trkpt lat="45.76221" lon="6.51464">
        <ele>1704</ele>
        <time>2022-07-24T05:52:08Z</time>
      </trkpt>
      <trkpt lat="45.76221" lon="6.51465">
        <ele>1704</ele>
        <time>2022-07-24T05:52:09Z</time>
      </trkpt>
      <trkpt lat="45.76221" lon="6.51467">
        <ele>1704</ele>
        <time>2022-07-24T05:52:10Z</time>
      </trkpt>
      <trkpt lat="45.76222" lon="6.51469">
        <ele>1704</ele>
        <time>2022-07-24T05:52:11Z</time>
      </trkpt>
      <trkpt lat="45.76222" lon="6.51471">
        <ele>1704</ele>
        <time>2022-07-24T05:52:12Z</time>
      </trkpt>
      <trkpt lat="45.76222" lon="6.51472">
        <ele>1704</ele>
        <time>2022-07-24T05:52:13Z</time>
      </trkpt>
      <trkpt lat="45.76222" lon="6.51474">
        <ele>1704</ele>
        <time>2022-07-24T05:52:14Z</time>
      </trkpt>
      <trkpt lat="45.76223" lon="6.51476">
        <ele>1703</ele>
        <time>2022-07-24T05:52:15Z</time>
      </trkpt>
      <trkpt lat="45.76222" lon="6.51478">
        <ele>1703</ele>
        <time>2022-07-24T05:52:16Z</time>
      </trkpt>
      <trkpt lat="45.76222" lon="6.5148">
        <ele>1703</ele>
        <time>2022-07-24T05:52:17Z</time>
      </trkpt>
      <trkpt lat="45.76222" lon="6.51482">
        <ele>1703</ele>
        <time>2022-07-24T05:52:18Z</time>
      </trkpt>
      <trkpt lat="45.76222" lon="6.51484">
        <ele>1703</ele>
        <time>2022-07-24T05:52:19Z</time>
      </trkpt>
      <trkpt lat="45.76221" lon="6.51486">
        <ele>1702</ele>
        <time>2022-07-24T05:52:20Z</time>
      </trkpt>
      <trkpt lat="45.76221" lon="6.51488">
        <ele>1702</ele>
        <time>2022-07-24T05:52:21Z</time>
      </trkpt>
      <trkpt lat="45.76221" lon="6.51489">
        <ele>1702</ele>
        <time>2022-07-24T05:52:22Z</time>
      </trkpt>
      <trkpt lat="45.76221" lon="6.51491">
        <ele>1702</ele>
        <time>2022-07-24T05:52:23Z</time>
      </trkpt>
      <trkpt lat="45.76221" lon="6.51492">
        <ele>1702</ele>
        <time>2022-07-24T05:52:24Z</time>
      </trkpt>
      <trkpt lat="45.76221" lon="6.51494">
        <ele>1702</ele>
        <time>2022-07-24T05:52:25Z</time>
      </trkpt>
      <trkpt lat="45.76221" lon="6.51495">
        <ele>1702</ele>
        <time>2022-07-24T05:52:26Z</time>
      </trkpt>
      <trkpt lat="45.76222" lon="6.51497">
        <ele>1702</ele>
        <time>2022-07-24T05:52:27Z</time>
      </trkpt>
      <trkpt lat="45.76222" lon="6.51499">
        <ele>1702</ele>
        <time>2022-07-24T05:52:28Z</time>
      </trkpt>
      <trkpt lat="45.76222" lon="6.515">
        <ele>1702</ele>
        <time>2022-07-24T05:52:29Z</time>
      </trkpt>
      <trkpt lat="45.76223" lon="6.51502">
        <ele>1701</ele>
        <time>2022-07-24T05:52:30Z</time>
      </trkpt>
      <trkpt lat="45.76223" lon="6.51504">
        <ele>1701</ele>
        <time>2022-07-24T05:52:31Z</time>
      </trkpt>
      <trkpt lat="45.76223" lon="6.51505">
        <ele>1701</ele>
        <time>2022-07-24T05:52:32Z</time>
      </trkpt>
      <trkpt lat="45.76222" lon="6.51506">
        <ele>1701</ele>
        <time>2022-07-24T05:52:33Z</time>
      </trkpt>
      <trkpt lat="45.76222" lon="6.51508">
        <ele>1701</ele>
        <time>2022-07-24T05:52:34Z</time>
      </trkpt>
      <trkpt lat="45.76222" lon="6.51509">
        <ele>1700</ele>
        <time>2022-07-24T05:52:35Z</time>
      </trkpt>
      <trkpt lat="45.76221" lon="6.5151">
        <ele>1700</ele>
        <time>2022-07-24T05:52:36Z</time>
      </trkpt>
      <trkpt lat="45.76221" lon="6.51511">
        <ele>1700</ele>
        <time>2022-07-24T05:52:37Z</time>
      </trkpt>
      <trkpt lat="45.7622" lon="6.51513">
        <ele>1700</ele>
        <time>2022-07-24T05:52:38Z</time>
      </trkpt>
      <trkpt lat="45.7622" lon="6.51514">
        <ele>1700</ele>
        <time>2022-07-24T05:52:39Z</time>
      </trkpt>
      <trkpt lat="45.7622" lon="6.51516">
        <ele>1700</ele>
        <time>2022-07-24T05:52:40Z</time>
      </trkpt>
      <trkpt lat="45.7622" lon="6.51517">
        <ele>1700</ele>
        <time>2022-07-24T05:52:41Z</time>
      </trkpt>
      <trkpt lat="45.7622" lon="6.51518">
        <ele>1700</ele>
        <time>2022-07-24T05:52:42Z</time>
      </trkpt>
      <trkpt lat="45.76219" lon="6.5152">
        <ele>1700</ele>
        <time>2022-07-24T05:52:43Z</time>
      </trkpt>
      <trkpt lat="45.76219" lon="6.51521">
        <ele>1700</ele>
        <time>2022-07-24T05:52:44Z</time>
      </trkpt>
      <trkpt lat="45.76219" lon="6.51523">
        <ele>1699</ele>
        <time>2022-07-24T05:52:45Z</time>
      </trkpt>
      <trkpt lat="45.76219" lon="6.51524">
        <ele>1699</ele>
        <time>2022-07-24T05:52:46Z</time>
      </trkpt>
      <trkpt lat="45.76219" lon="6.51526">
        <ele>1699</ele>
        <time>2022-07-24T05:52:47Z</time>
      </trkpt>
      <trkpt lat="45.7622" lon="6.51528">
        <ele>1699</ele>
        <time>2022-07-24T05:52:48Z</time>
      </trkpt>
      <trkpt lat="45.7622" lon="6.51529">
        <ele>1699</ele>
        <time>2022-07-24T05:52:49Z</time>
      </trkpt>
      <trkpt lat="45.7622" lon="6.51531">
        <ele>1699</ele>
        <time>2022-07-24T05:52:50Z</time>
      </trkpt>
      <trkpt lat="45.7622" lon="6.51533">
        <ele>1699</ele>
        <time>2022-07-24T05:52:51Z</time>
      </trkpt>
      <trkpt lat="45.7622" lon="6.51534">
        <ele>1699</ele>
        <time>2022-07-24T05:52:52Z</time>
      </trkpt>
      <trkpt lat="45.7622" lon="6.51536">
        <ele>1699</ele>
        <time>2022-07-24T05:52:53Z</time>
      </trkpt>
      <trkpt lat="45.7622" lon="6.51538">
        <ele>1699</ele>
        <time>2022-07-24T05:52:54Z</time>
      </trkpt>
      <trkpt lat="45.7622" lon="6.5154">
        <ele>1698</ele>
        <time>2022-07-24T05:52:55Z</time>
      </trkpt>
      <trkpt lat="45.7622" lon="6.51541">
        <ele>1698</ele>
        <time>2022-07-24T05:52:56Z</time>
      </trkpt>
      <trkpt lat="45.7622" lon="6.51542">
        <ele>1698</ele>
        <time>2022-07-24T05:52:57Z</time>
      </trkpt>
      <trkpt lat="45.7622" lon="6.51544">
        <ele>1698</ele>
        <time>2022-07-24T05:52:58Z</time>
      </trkpt>
      <trkpt lat="45.7622" lon="6.51545">
        <ele>1698</ele>
        <time>2022-07-24T05:52:59Z</time>
      </trkpt>
      <trkpt lat="45.7622" lon="6.51547">
        <ele>1698</ele>
        <time>2022-07-24T05:53:00Z</time>
      </trkpt>
      <trkpt lat="45.7622" lon="6.51549">
        <ele>1698</ele>
        <time>2022-07-24T05:53:01Z</time>
      </trkpt>
      <trkpt lat="45.7622" lon="6.5155">
        <ele>1698</ele>
        <time>2022-07-24T05:53:02Z</time>
      </trkpt>
      <trkpt lat="45.7622" lon="6.51552">
        <ele>1698</ele>
        <time>2022-07-24T05:53:03Z</time>
      </trkpt>
      <trkpt lat="45.7622" lon="6.51553">
        <ele>1699</ele>
        <time>2022-07-24T05:53:04Z</time>
      </trkpt>
      <trkpt lat="45.7622" lon="6.51555">
        <ele>1698</ele>
        <time>2022-07-24T05:53:05Z</time>
      </trkpt>
      <trkpt lat="45.7622" lon="6.51557">
        <ele>1698</ele>
        <time>2022-07-24T05:53:06Z</time>
      </trkpt>
      <trkpt lat="45.76221" lon="6.51559">
        <ele>1698</ele>
        <time>2022-07-24T05:53:07Z</time>
      </trkpt>
      <trkpt lat="45.76221" lon="6.51561">
        <ele>1698</ele>
        <time>2022-07-24T05:53:08Z</time>
      </trkpt>
      <trkpt lat="45.76221" lon="6.51563">
        <ele>1698</ele>
        <time>2022-07-24T05:53:09Z</time>
      </trkpt>
      <trkpt lat="45.76221" lon="6.51565">
        <ele>1698</ele>
        <time>2022-07-24T05:53:10Z</time>
      </trkpt>
      <trkpt lat="45.76222" lon="6.51567">
        <ele>1698</ele>
        <time>2022-07-24T05:53:11Z</time>
      </trkpt>
      <trkpt lat="45.76222" lon="6.51569">
        <ele>1698</ele>
        <time>2022-07-24T05:53:12Z</time>
      </trkpt>
      <trkpt lat="45.76222" lon="6.51571">
        <ele>1698</ele>
        <time>2022-07-24T05:53:13Z</time>
      </trkpt>
      <trkpt lat="45.76223" lon="6.51572">
        <ele>1698</ele>
        <time>2022-07-24T05:53:14Z</time>
      </trkpt>
      <trkpt lat="45.76224" lon="6.51574">
        <ele>1698</ele>
        <time>2022-07-24T05:53:15Z</time>
      </trkpt>
      <trkpt lat="45.76224" lon="6.51576">
        <ele>1698</ele>
        <time>2022-07-24T05:53:16Z</time>
      </trkpt>
      <trkpt lat="45.76225" lon="6.51577">
        <ele>1698</ele>
        <time>2022-07-24T05:53:17Z</time>
      </trkpt>
      <trkpt lat="45.76226" lon="6.51579">
        <ele>1698</ele>
        <time>2022-07-24T05:53:18Z</time>
      </trkpt>
      <trkpt lat="45.76227" lon="6.51581">
        <ele>1698</ele>
        <time>2022-07-24T05:53:19Z</time>
      </trkpt>
      <trkpt lat="45.76227" lon="6.51583">
        <ele>1697</ele>
        <time>2022-07-24T05:53:20Z</time>
      </trkpt>
      <trkpt lat="45.76228" lon="6.51585">
        <ele>1697</ele>
        <time>2022-07-24T05:53:21Z</time>
      </trkpt>
      <trkpt lat="45.76228" lon="6.51587">
        <ele>1697</ele>
        <time>2022-07-24T05:53:22Z</time>
      </trkpt>
      <trkpt lat="45.76228" lon="6.51588">
        <ele>1697</ele>
        <time>2022-07-24T05:53:23Z</time>
      </trkpt>
      <trkpt lat="45.76228" lon="6.5159">
        <ele>1697</ele>
        <time>2022-07-24T05:53:24Z</time>
      </trkpt>
      <trkpt lat="45.76228" lon="6.51592">
        <ele>1697</ele>
        <time>2022-07-24T05:53:25Z</time>
      </trkpt>
      <trkpt lat="45.76228" lon="6.51594">
        <ele>1697</ele>
        <time>2022-07-24T05:53:26Z</time>
      </trkpt>
      <trkpt lat="45.76227" lon="6.51596">
        <ele>1697</ele>
        <time>2022-07-24T05:53:27Z</time>
      </trkpt>
      <trkpt lat="45.76227" lon="6.51597">
        <ele>1697</ele>
        <time>2022-07-24T05:53:28Z</time>
      </trkpt>
      <trkpt lat="45.76227" lon="6.51599">
        <ele>1697</ele>
        <time>2022-07-24T05:53:29Z</time>
      </trkpt>
      <trkpt lat="45.76227" lon="6.51601">
        <ele>1697</ele>
        <time>2022-07-24T05:53:30Z</time>
      </trkpt>
      <trkpt lat="45.76226" lon="6.51602">
        <ele>1697</ele>
        <time>2022-07-24T05:53:31Z</time>
      </trkpt>
      <trkpt lat="45.76226" lon="6.51604">
        <ele>1697</ele>
        <time>2022-07-24T05:53:32Z</time>
      </trkpt>
      <trkpt lat="45.76226" lon="6.51606">
        <ele>1697</ele>
        <time>2022-07-24T05:53:33Z</time>
      </trkpt>
      <trkpt lat="45.76226" lon="6.51607">
        <ele>1697</ele>
        <time>2022-07-24T05:53:34Z</time>
      </trkpt>
      <trkpt lat="45.76226" lon="6.51609">
        <ele>1696</ele>
        <time>2022-07-24T05:53:35Z</time>
      </trkpt>
      <trkpt lat="45.76226" lon="6.5161">
        <ele>1696</ele>
        <time>2022-07-24T05:53:36Z</time>
      </trkpt>
      <trkpt lat="45.76226" lon="6.51612">
        <ele>1696</ele>
        <time>2022-07-24T05:53:37Z</time>
      </trkpt>
      <trkpt lat="45.76226" lon="6.51613">
        <ele>1696</ele>
        <time>2022-07-24T05:53:38Z</time>
      </trkpt>
      <trkpt lat="45.76226" lon="6.51614">
        <ele>1696</ele>
        <time>2022-07-24T05:53:39Z</time>
      </trkpt>
      <trkpt lat="45.76226" lon="6.51615">
        <ele>1696</ele>
        <time>2022-07-24T05:53:40Z</time>
      </trkpt>
      <trkpt lat="45.76226" lon="6.51617">
        <ele>1696</ele>
        <time>2022-07-24T05:53:41Z</time>
      </trkpt>
      <trkpt lat="45.76226" lon="6.51618">
        <ele>1696</ele>
        <time>2022-07-24T05:53:42Z</time>
      </trkpt>
      <trkpt lat="45.76226" lon="6.5162">
        <ele>1696</ele>
        <time>2022-07-24T05:53:43Z</time>
      </trkpt>
      <trkpt lat="45.76225" lon="6.51621">
        <ele>1696</ele>
        <time>2022-07-24T05:53:44Z</time>
      </trkpt>
      <trkpt lat="45.76225" lon="6.51622">
        <ele>1695</ele>
        <time>2022-07-24T05:53:45Z</time>
      </trkpt>
      <trkpt lat="45.76225" lon="6.51624">
        <ele>1695</ele>
        <time>2022-07-24T05:53:46Z</time>
      </trkpt>
      <trkpt lat="45.76224" lon="6.51625">
        <ele>1695</ele>
        <time>2022-07-24T05:53:47Z</time>
      </trkpt>
      <trkpt lat="45.76224" lon="6.51627">
        <ele>1695</ele>
        <time>2022-07-24T05:53:48Z</time>
      </trkpt>
      <trkpt lat="45.76224" lon="6.51628">
        <ele>1695</ele>
        <time>2022-07-24T05:53:49Z</time>
      </trkpt>
      <trkpt lat="45.76223" lon="6.5163">
        <ele>1695</ele>
        <time>2022-07-24T05:53:50Z</time>
      </trkpt>
      <trkpt lat="45.76223" lon="6.51631">
        <ele>1695</ele>
        <time>2022-07-24T05:53:51Z</time>
      </trkpt>
      <trkpt lat="45.76223" lon="6.51633">
        <ele>1695</ele>
        <time>2022-07-24T05:53:52Z</time>
      </trkpt>
      <trkpt lat="45.76223" lon="6.51635">
        <ele>1695</ele>
        <time>2022-07-24T05:53:53Z</time>
      </trkpt>
      <trkpt lat="45.76222" lon="6.51637">
        <ele>1695</ele>
        <time>2022-07-24T05:53:54Z</time>
      </trkpt>
      <trkpt lat="45.76222" lon="6.5164">
        <ele>1694</ele>
        <time>2022-07-24T05:53:55Z</time>
      </trkpt>
      <trkpt lat="45.76222" lon="6.51642">
        <ele>1694</ele>
        <time>2022-07-24T05:53:56Z</time>
      </trkpt>
      <trkpt lat="45.76221" lon="6.51644">
        <ele>1694</ele>
        <time>2022-07-24T05:53:57Z</time>
      </trkpt>
      <trkpt lat="45.76221" lon="6.51646">
        <ele>1694</ele>
        <time>2022-07-24T05:53:58Z</time>
      </trkpt>
      <trkpt lat="45.7622" lon="6.51649">
        <ele>1694</ele>
        <time>2022-07-24T05:53:59Z</time>
      </trkpt>
      <trkpt lat="45.7622" lon="6.51651">
        <ele>1693</ele>
        <time>2022-07-24T05:54:00Z</time>
      </trkpt>
      <trkpt lat="45.76219" lon="6.51653">
        <ele>1693</ele>
        <time>2022-07-24T05:54:01Z</time>
      </trkpt>
      <trkpt lat="45.76219" lon="6.51655">
        <ele>1692</ele>
        <time>2022-07-24T05:54:02Z</time>
      </trkpt>
      <trkpt lat="45.76218" lon="6.51657">
        <ele>1692</ele>
        <time>2022-07-24T05:54:03Z</time>
      </trkpt>
      <trkpt lat="45.76218" lon="6.51659">
        <ele>1692</ele>
        <time>2022-07-24T05:54:04Z</time>
      </trkpt>
      <trkpt lat="45.76217" lon="6.51661">
        <ele>1691</ele>
        <time>2022-07-24T05:54:05Z</time>
      </trkpt>
      <trkpt lat="45.76216" lon="6.51663">
        <ele>1691</ele>
        <time>2022-07-24T05:54:06Z</time>
      </trkpt>
      <trkpt lat="45.76216" lon="6.51665">
        <ele>1691</ele>
        <time>2022-07-24T05:54:07Z</time>
      </trkpt>
      <trkpt lat="45.76215" lon="6.51666">
        <ele>1691</ele>
        <time>2022-07-24T05:54:08Z</time>
      </trkpt>
      <trkpt lat="45.76214" lon="6.51668">
        <ele>1691</ele>
        <time>2022-07-24T05:54:09Z</time>
      </trkpt>
      <trkpt lat="45.76214" lon="6.51669">
        <ele>1691</ele>
        <time>2022-07-24T05:54:10Z</time>
      </trkpt>
      <trkpt lat="45.76213" lon="6.51671">
        <ele>1691</ele>
        <time>2022-07-24T05:54:11Z</time>
      </trkpt>
      <trkpt lat="45.76213" lon="6.51672">
        <ele>1691</ele>
        <time>2022-07-24T05:54:12Z</time>
      </trkpt>
      <trkpt lat="45.76212" lon="6.51674">
        <ele>1691</ele>
        <time>2022-07-24T05:54:13Z</time>
      </trkpt>
      <trkpt lat="45.76211" lon="6.51675">
        <ele>1691</ele>
        <time>2022-07-24T05:54:14Z</time>
      </trkpt>
      <trkpt lat="45.76211" lon="6.51676">
        <ele>1690</ele>
        <time>2022-07-24T05:54:15Z</time>
      </trkpt>
      <trkpt lat="45.7621" lon="6.51678">
        <ele>1690</ele>
        <time>2022-07-24T05:54:16Z</time>
      </trkpt>
      <trkpt lat="45.76209" lon="6.51679">
        <ele>1690</ele>
        <time>2022-07-24T05:54:17Z</time>
      </trkpt>
      <trkpt lat="45.76209" lon="6.51681">
        <ele>1690</ele>
        <time>2022-07-24T05:54:18Z</time>
      </trkpt>
      <trkpt lat="45.76208" lon="6.51682">
        <ele>1690</ele>
        <time>2022-07-24T05:54:19Z</time>
      </trkpt>
      <trkpt lat="45.76207" lon="6.51683">
        <ele>1690</ele>
        <time>2022-07-24T05:54:20Z</time>
      </trkpt>
      <trkpt lat="45.76206" lon="6.51685">
        <ele>1690</ele>
        <time>2022-07-24T05:54:21Z</time>
      </trkpt>
      <trkpt lat="45.76206" lon="6.51686">
        <ele>1690</ele>
        <time>2022-07-24T05:54:22Z</time>
      </trkpt>
      <trkpt lat="45.76205" lon="6.51687">
        <ele>1690</ele>
        <time>2022-07-24T05:54:23Z</time>
      </trkpt>
      <trkpt lat="45.76204" lon="6.51688">
        <ele>1690</ele>
        <time>2022-07-24T05:54:24Z</time>
      </trkpt>
      <trkpt lat="45.76203" lon="6.51689">
        <ele>1690</ele>
        <time>2022-07-24T05:54:25Z</time>
      </trkpt>
      <trkpt lat="45.76202" lon="6.5169">
        <ele>1690</ele>
        <time>2022-07-24T05:54:26Z</time>
      </trkpt>
      <trkpt lat="45.76201" lon="6.51692">
        <ele>1690</ele>
        <time>2022-07-24T05:54:27Z</time>
      </trkpt>
      <trkpt lat="45.762" lon="6.51693">
        <ele>1690</ele>
        <time>2022-07-24T05:54:28Z</time>
      </trkpt>
      <trkpt lat="45.76199" lon="6.51694">
        <ele>1690</ele>
        <time>2022-07-24T05:54:29Z</time>
      </trkpt>
      <trkpt lat="45.76198" lon="6.51695">
        <ele>1690</ele>
        <time>2022-07-24T05:54:30Z</time>
      </trkpt>
      <trkpt lat="45.76197" lon="6.51696">
        <ele>1690</ele>
        <time>2022-07-24T05:54:31Z</time>
      </trkpt>
      <trkpt lat="45.76196" lon="6.51697">
        <ele>1690</ele>
        <time>2022-07-24T05:54:32Z</time>
      </trkpt>
      <trkpt lat="45.76195" lon="6.51698">
        <ele>1690</ele>
        <time>2022-07-24T05:54:33Z</time>
      </trkpt>
      <trkpt lat="45.76194" lon="6.51699">
        <ele>1690</ele>
        <time>2022-07-24T05:54:34Z</time>
      </trkpt>
      <trkpt lat="45.76193" lon="6.517">
        <ele>1689</ele>
        <time>2022-07-24T05:54:35Z</time>
      </trkpt>
      <trkpt lat="45.76192" lon="6.51701">
        <ele>1689</ele>
        <time>2022-07-24T05:54:36Z</time>
      </trkpt>
      <trkpt lat="45.76191" lon="6.51702">
        <ele>1689</ele>
        <time>2022-07-24T05:54:37Z</time>
      </trkpt>
      <trkpt lat="45.7619" lon="6.51703">
        <ele>1689</ele>
        <time>2022-07-24T05:54:38Z</time>
      </trkpt>
      <trkpt lat="45.76189" lon="6.51704">
        <ele>1689</ele>
        <time>2022-07-24T05:54:39Z</time>
      </trkpt>
      <trkpt lat="45.76188" lon="6.51705">
        <ele>1688</ele>
        <time>2022-07-24T05:54:40Z</time>
      </trkpt>
      <trkpt lat="45.76186" lon="6.51706">
        <ele>1688</ele>
        <time>2022-07-24T05:54:41Z</time>
      </trkpt>
      <trkpt lat="45.76185" lon="6.51706">
        <ele>1688</ele>
        <time>2022-07-24T05:54:42Z</time>
      </trkpt>
      <trkpt lat="45.76184" lon="6.51707">
        <ele>1688</ele>
        <time>2022-07-24T05:54:43Z</time>
      </trkpt>
      <trkpt lat="45.76182" lon="6.51708">
        <ele>1688</ele>
        <time>2022-07-24T05:54:44Z</time>
      </trkpt>
      <trkpt lat="45.76181" lon="6.51709">
        <ele>1688</ele>
        <time>2022-07-24T05:54:45Z</time>
      </trkpt>
      <trkpt lat="45.7618" lon="6.5171">
        <ele>1688</ele>
        <time>2022-07-24T05:54:46Z</time>
      </trkpt>
      <trkpt lat="45.76179" lon="6.5171">
        <ele>1688</ele>
        <time>2022-07-24T05:54:47Z</time>
      </trkpt>
      <trkpt lat="45.76177" lon="6.51711">
        <ele>1688</ele>
        <time>2022-07-24T05:54:48Z</time>
      </trkpt>
      <trkpt lat="45.76176" lon="6.51712">
        <ele>1688</ele>
        <time>2022-07-24T05:54:49Z</time>
      </trkpt>
      <trkpt lat="45.76175" lon="6.51713">
        <ele>1687</ele>
        <time>2022-07-24T05:54:50Z</time>
      </trkpt>
      <trkpt lat="45.76174" lon="6.51713">
        <ele>1687</ele>
        <time>2022-07-24T05:54:51Z</time>
      </trkpt>
      <trkpt lat="45.76173" lon="6.51714">
        <ele>1687</ele>
        <time>2022-07-24T05:54:52Z</time>
      </trkpt>
      <trkpt lat="45.76172" lon="6.51715">
        <ele>1687</ele>
        <time>2022-07-24T05:54:53Z</time>
      </trkpt>
      <trkpt lat="45.76171" lon="6.51715">
        <ele>1687</ele>
        <time>2022-07-24T05:54:54Z</time>
      </trkpt>
      <trkpt lat="45.7617" lon="6.51716">
        <ele>1686</ele>
        <time>2022-07-24T05:54:55Z</time>
      </trkpt>
      <trkpt lat="45.76168" lon="6.51717">
        <ele>1686</ele>
        <time>2022-07-24T05:54:56Z</time>
      </trkpt>
      <trkpt lat="45.76167" lon="6.51718">
        <ele>1686</ele>
        <time>2022-07-24T05:54:57Z</time>
      </trkpt>
      <trkpt lat="45.76166" lon="6.51719">
        <ele>1686</ele>
        <time>2022-07-24T05:54:58Z</time>
      </trkpt>
      <trkpt lat="45.76165" lon="6.5172">
        <ele>1686</ele>
        <time>2022-07-24T05:54:59Z</time>
      </trkpt>
      <trkpt lat="45.76165" lon="6.51721">
        <ele>1686</ele>
        <time>2022-07-24T05:55:00Z</time>
      </trkpt>
      <trkpt lat="45.76164" lon="6.51722">
        <ele>1686</ele>
        <time>2022-07-24T05:55:01Z</time>
      </trkpt>
      <trkpt lat="45.76163" lon="6.51723">
        <ele>1686</ele>
        <time>2022-07-24T05:55:02Z</time>
      </trkpt>
      <trkpt lat="45.76162" lon="6.51725">
        <ele>1686</ele>
        <time>2022-07-24T05:55:03Z</time>
      </trkpt>
      <trkpt lat="45.76161" lon="6.51726">
        <ele>1686</ele>
        <time>2022-07-24T05:55:04Z</time>
      </trkpt>
      <trkpt lat="45.7616" lon="6.51727">
        <ele>1686</ele>
        <time>2022-07-24T05:55:05Z</time>
      </trkpt>
      <trkpt lat="45.76159" lon="6.51728">
        <ele>1686</ele>
        <time>2022-07-24T05:55:06Z</time>
      </trkpt>
      <trkpt lat="45.76159" lon="6.51729">
        <ele>1686</ele>
        <time>2022-07-24T05:55:07Z</time>
      </trkpt>
      <trkpt lat="45.76158" lon="6.5173">
        <ele>1686</ele>
        <time>2022-07-24T05:55:08Z</time>
      </trkpt>
      <trkpt lat="45.76157" lon="6.51731">
        <ele>1686</ele>
        <time>2022-07-24T05:55:09Z</time>
      </trkpt>
      <trkpt lat="45.76156" lon="6.51733">
        <ele>1686</ele>
        <time>2022-07-24T05:55:10Z</time>
      </trkpt>
      <trkpt lat="45.76155" lon="6.51734">
        <ele>1686</ele>
        <time>2022-07-24T05:55:11Z</time>
      </trkpt>
      <trkpt lat="45.76155" lon="6.51735">
        <ele>1686</ele>
        <time>2022-07-24T05:55:12Z</time>
      </trkpt>
      <trkpt lat="45.76154" lon="6.51736">
        <ele>1686</ele>
        <time>2022-07-24T05:55:13Z</time>
      </trkpt>
      <trkpt lat="45.76153" lon="6.51737">
        <ele>1687</ele>
        <time>2022-07-24T05:55:14Z</time>
      </trkpt>
      <trkpt lat="45.76153" lon="6.51738">
        <ele>1687</ele>
        <time>2022-07-24T05:55:15Z</time>
      </trkpt>
      <trkpt lat="45.76152" lon="6.51739">
        <ele>1687</ele>
        <time>2022-07-24T05:55:16Z</time>
      </trkpt>
      <trkpt lat="45.76151" lon="6.51741">
        <ele>1687</ele>
        <time>2022-07-24T05:55:17Z</time>
      </trkpt>
      <trkpt lat="45.76151" lon="6.51742">
        <ele>1687</ele>
        <time>2022-07-24T05:55:18Z</time>
      </trkpt>
      <trkpt lat="45.7615" lon="6.51743">
        <ele>1687</ele>
        <time>2022-07-24T05:55:19Z</time>
      </trkpt>
      <trkpt lat="45.7615" lon="6.51744">
        <ele>1687</ele>
        <time>2022-07-24T05:55:20Z</time>
      </trkpt>
      <trkpt lat="45.76149" lon="6.51745">
        <ele>1687</ele>
        <time>2022-07-24T05:55:21Z</time>
      </trkpt>
      <trkpt lat="45.76149" lon="6.51746">
        <ele>1687</ele>
        <time>2022-07-24T05:55:22Z</time>
      </trkpt>
      <trkpt lat="45.76148" lon="6.51747">
        <ele>1687</ele>
        <time>2022-07-24T05:55:23Z</time>
      </trkpt>
      <trkpt lat="45.76148" lon="6.51748">
        <ele>1688</ele>
        <time>2022-07-24T05:55:24Z</time>
      </trkpt>
      <trkpt lat="45.76147" lon="6.51749">
        <ele>1688</ele>
        <time>2022-07-24T05:55:25Z</time>
      </trkpt>
      <trkpt lat="45.76147" lon="6.51751">
        <ele>1688</ele>
        <time>2022-07-24T05:55:26Z</time>
      </trkpt>
      <trkpt lat="45.76146" lon="6.51752">
        <ele>1688</ele>
        <time>2022-07-24T05:55:27Z</time>
      </trkpt>
      <trkpt lat="45.76146" lon="6.51754">
        <ele>1688</ele>
        <time>2022-07-24T05:55:28Z</time>
      </trkpt>
      <trkpt lat="45.76146" lon="6.51756">
        <ele>1688</ele>
        <time>2022-07-24T05:55:29Z</time>
      </trkpt>
      <trkpt lat="45.76145" lon="6.51757">
        <ele>1688</ele>
        <time>2022-07-24T05:55:30Z</time>
      </trkpt>
      <trkpt lat="45.76145" lon="6.51759">
        <ele>1688</ele>
        <time>2022-07-24T05:55:31Z</time>
      </trkpt>
      <trkpt lat="45.76145" lon="6.5176">
        <ele>1688</ele>
        <time>2022-07-24T05:55:32Z</time>
      </trkpt>
      <trkpt lat="45.76145" lon="6.51762">
        <ele>1688</ele>
        <time>2022-07-24T05:55:33Z</time>
      </trkpt>
      <trkpt lat="45.76144" lon="6.51763">
        <ele>1688</ele>
        <time>2022-07-24T05:55:34Z</time>
      </trkpt>
      <trkpt lat="45.76144" lon="6.51765">
        <ele>1688</ele>
        <time>2022-07-24T05:55:35Z</time>
      </trkpt>
      <trkpt lat="45.76144" lon="6.51766">
        <ele>1688</ele>
        <time>2022-07-24T05:55:36Z</time>
      </trkpt>
      <trkpt lat="45.76144" lon="6.51768">
        <ele>1688</ele>
        <time>2022-07-24T05:55:37Z</time>
      </trkpt>
      <trkpt lat="45.76143" lon="6.51769">
        <ele>1688</ele>
        <time>2022-07-24T05:55:38Z</time>
      </trkpt>
      <trkpt lat="45.76143" lon="6.51771">
        <ele>1688</ele>
        <time>2022-07-24T05:55:39Z</time>
      </trkpt>
      <trkpt lat="45.76142" lon="6.51773">
        <ele>1687</ele>
        <time>2022-07-24T05:55:40Z</time>
      </trkpt>
      <trkpt lat="45.76142" lon="6.51774">
        <ele>1687</ele>
        <time>2022-07-24T05:55:41Z</time>
      </trkpt>
      <trkpt lat="45.76142" lon="6.51776">
        <ele>1687</ele>
        <time>2022-07-24T05:55:42Z</time>
      </trkpt>
      <trkpt lat="45.76141" lon="6.51778">
        <ele>1687</ele>
        <time>2022-07-24T05:55:43Z</time>
      </trkpt>
      <trkpt lat="45.76141" lon="6.51779">
        <ele>1687</ele>
        <time>2022-07-24T05:55:44Z</time>
      </trkpt>
      <trkpt lat="45.76141" lon="6.51781">
        <ele>1687</ele>
        <time>2022-07-24T05:55:45Z</time>
      </trkpt>
      <trkpt lat="45.7614" lon="6.51783">
        <ele>1687</ele>
        <time>2022-07-24T05:55:46Z</time>
      </trkpt>
      <trkpt lat="45.7614" lon="6.51784">
        <ele>1687</ele>
        <time>2022-07-24T05:55:47Z</time>
      </trkpt>
      <trkpt lat="45.7614" lon="6.51786">
        <ele>1687</ele>
        <time>2022-07-24T05:55:48Z</time>
      </trkpt>
      <trkpt lat="45.7614" lon="6.51788">
        <ele>1687</ele>
        <time>2022-07-24T05:55:49Z</time>
      </trkpt>
      <trkpt lat="45.7614" lon="6.51789">
        <ele>1686</ele>
        <time>2022-07-24T05:55:50Z</time>
      </trkpt>
      <trkpt lat="45.76139" lon="6.51791">
        <ele>1686</ele>
        <time>2022-07-24T05:55:51Z</time>
      </trkpt>
      <trkpt lat="45.76139" lon="6.51793">
        <ele>1686</ele>
        <time>2022-07-24T05:55:52Z</time>
      </trkpt>
      <trkpt lat="45.76139" lon="6.51795">
        <ele>1686</ele>
        <time>2022-07-24T05:55:53Z</time>
      </trkpt>
      <trkpt lat="45.76138" lon="6.51796">
        <ele>1686</ele>
        <time>2022-07-24T05:55:54Z</time>
      </trkpt>
      <trkpt lat="45.76138" lon="6.51798">
        <ele>1686</ele>
        <time>2022-07-24T05:55:55Z</time>
      </trkpt>
      <trkpt lat="45.76137" lon="6.518">
        <ele>1686</ele>
        <time>2022-07-24T05:55:56Z</time>
      </trkpt>
      <trkpt lat="45.76137" lon="6.51801">
        <ele>1686</ele>
        <time>2022-07-24T05:55:57Z</time>
      </trkpt>
      <trkpt lat="45.76136" lon="6.51803">
        <ele>1686</ele>
        <time>2022-07-24T05:55:58Z</time>
      </trkpt>
      <trkpt lat="45.76136" lon="6.51805">
        <ele>1686</ele>
        <time>2022-07-24T05:55:59Z</time>
      </trkpt>
      <trkpt lat="45.76136" lon="6.51806">
        <ele>1685</ele>
        <time>2022-07-24T05:56:00Z</time>
      </trkpt>
      <trkpt lat="45.76135" lon="6.51808">
        <ele>1685</ele>
        <time>2022-07-24T05:56:01Z</time>
      </trkpt>
      <trkpt lat="45.76135" lon="6.51809">
        <ele>1685</ele>
        <time>2022-07-24T05:56:02Z</time>
      </trkpt>
      <trkpt lat="45.76134" lon="6.51811">
        <ele>1685</ele>
        <time>2022-07-24T05:56:03Z</time>
      </trkpt>
      <trkpt lat="45.76134" lon="6.51812">
        <ele>1685</ele>
        <time>2022-07-24T05:56:04Z</time>
      </trkpt>
      <trkpt lat="45.76133" lon="6.51814">
        <ele>1685</ele>
        <time>2022-07-24T05:56:05Z</time>
      </trkpt>
      <trkpt lat="45.76133" lon="6.51816">
        <ele>1685</ele>
        <time>2022-07-24T05:56:06Z</time>
      </trkpt>
      <trkpt lat="45.76132" lon="6.51817">
        <ele>1685</ele>
        <time>2022-07-24T05:56:07Z</time>
      </trkpt>
      <trkpt lat="45.76132" lon="6.51819">
        <ele>1685</ele>
        <time>2022-07-24T05:56:08Z</time>
      </trkpt>
      <trkpt lat="45.76132" lon="6.5182">
        <ele>1685</ele>
        <time>2022-07-24T05:56:09Z</time>
      </trkpt>
      <trkpt lat="45.76131" lon="6.51822">
        <ele>1684</ele>
        <time>2022-07-24T05:56:10Z</time>
      </trkpt>
      <trkpt lat="45.76131" lon="6.51823">
        <ele>1684</ele>
        <time>2022-07-24T05:56:11Z</time>
      </trkpt>
      <trkpt lat="45.76131" lon="6.51825">
        <ele>1684</ele>
        <time>2022-07-24T05:56:12Z</time>
      </trkpt>
      <trkpt lat="45.76131" lon="6.51826">
        <ele>1684</ele>
        <time>2022-07-24T05:56:13Z</time>
      </trkpt>
      <trkpt lat="45.76131" lon="6.51828">
        <ele>1684</ele>
        <time>2022-07-24T05:56:14Z</time>
      </trkpt>
      <trkpt lat="45.76131" lon="6.51829">
        <ele>1684</ele>
        <time>2022-07-24T05:56:15Z</time>
      </trkpt>
      <trkpt lat="45.7613" lon="6.51831">
        <ele>1684</ele>
        <time>2022-07-24T05:56:16Z</time>
      </trkpt>
      <trkpt lat="45.7613" lon="6.51832">
        <ele>1684</ele>
        <time>2022-07-24T05:56:17Z</time>
      </trkpt>
      <trkpt lat="45.7613" lon="6.51834">
        <ele>1684</ele>
        <time>2022-07-24T05:56:18Z</time>
      </trkpt>
      <trkpt lat="45.7613" lon="6.51836">
        <ele>1684</ele>
        <time>2022-07-24T05:56:19Z</time>
      </trkpt>
      <trkpt lat="45.7613" lon="6.51838">
        <ele>1683</ele>
        <time>2022-07-24T05:56:20Z</time>
      </trkpt>
      <trkpt lat="45.76129" lon="6.51839">
        <ele>1683</ele>
        <time>2022-07-24T05:56:21Z</time>
      </trkpt>
      <trkpt lat="45.76129" lon="6.51841">
        <ele>1683</ele>
        <time>2022-07-24T05:56:22Z</time>
      </trkpt>
      <trkpt lat="45.76129" lon="6.51843">
        <ele>1683</ele>
        <time>2022-07-24T05:56:23Z</time>
      </trkpt>
      <trkpt lat="45.76129" lon="6.51845">
        <ele>1683</ele>
        <time>2022-07-24T05:56:24Z</time>
      </trkpt>
      <trkpt lat="45.76129" lon="6.51847">
        <ele>1683</ele>
        <time>2022-07-24T05:56:25Z</time>
      </trkpt>
      <trkpt lat="45.76129" lon="6.51848">
        <ele>1683</ele>
        <time>2022-07-24T05:56:26Z</time>
      </trkpt>
      <trkpt lat="45.76129" lon="6.5185">
        <ele>1683</ele>
        <time>2022-07-24T05:56:27Z</time>
      </trkpt>
      <trkpt lat="45.76129" lon="6.51852">
        <ele>1683</ele>
        <time>2022-07-24T05:56:28Z</time>
      </trkpt>
      <trkpt lat="45.76129" lon="6.51853">
        <ele>1683</ele>
        <time>2022-07-24T05:56:29Z</time>
      </trkpt>
      <trkpt lat="45.76128" lon="6.51854">
        <ele>1683</ele>
        <time>2022-07-24T05:56:30Z</time>
      </trkpt>
      <trkpt lat="45.76128" lon="6.51856">
        <ele>1683</ele>
        <time>2022-07-24T05:56:31Z</time>
      </trkpt>
      <trkpt lat="45.76128" lon="6.51857">
        <ele>1683</ele>
        <time>2022-07-24T05:56:32Z</time>
      </trkpt>
      <trkpt lat="45.76128" lon="6.51859">
        <ele>1683</ele>
        <time>2022-07-24T05:56:33Z</time>
      </trkpt>
      <trkpt lat="45.76127" lon="6.5186">
        <ele>1683</ele>
        <time>2022-07-24T05:56:34Z</time>
      </trkpt>
      <trkpt lat="45.76127" lon="6.51862">
        <ele>1682</ele>
        <time>2022-07-24T05:56:35Z</time>
      </trkpt>
      <trkpt lat="45.76127" lon="6.51863">
        <ele>1682</ele>
        <time>2022-07-24T05:56:36Z</time>
      </trkpt>
      <trkpt lat="45.76127" lon="6.51864">
        <ele>1682</ele>
        <time>2022-07-24T05:56:37Z</time>
      </trkpt>
      <trkpt lat="45.76126" lon="6.51866">
        <ele>1682</ele>
        <time>2022-07-24T05:56:38Z</time>
      </trkpt>
      <trkpt lat="45.76126" lon="6.51867">
        <ele>1682</ele>
        <time>2022-07-24T05:56:39Z</time>
      </trkpt>
      <trkpt lat="45.76126" lon="6.51869">
        <ele>1682</ele>
        <time>2022-07-24T05:56:40Z</time>
      </trkpt>
      <trkpt lat="45.76126" lon="6.5187">
        <ele>1682</ele>
        <time>2022-07-24T05:56:41Z</time>
      </trkpt>
      <trkpt lat="45.76126" lon="6.51872">
        <ele>1682</ele>
        <time>2022-07-24T05:56:42Z</time>
      </trkpt>
      <trkpt lat="45.76126" lon="6.51873">
        <ele>1682</ele>
        <time>2022-07-24T05:56:43Z</time>
      </trkpt>
      <trkpt lat="45.76126" lon="6.51875">
        <ele>1682</ele>
        <time>2022-07-24T05:56:44Z</time>
      </trkpt>
      <trkpt lat="45.76126" lon="6.51876">
        <ele>1681</ele>
        <time>2022-07-24T05:56:45Z</time>
      </trkpt>
      <trkpt lat="45.76126" lon="6.51878">
        <ele>1681</ele>
        <time>2022-07-24T05:56:46Z</time>
      </trkpt>
      <trkpt lat="45.76125" lon="6.51879">
        <ele>1681</ele>
        <time>2022-07-24T05:56:47Z</time>
      </trkpt>
      <trkpt lat="45.76125" lon="6.51881">
        <ele>1681</ele>
        <time>2022-07-24T05:56:48Z</time>
      </trkpt>
      <trkpt lat="45.76125" lon="6.51883">
        <ele>1681</ele>
        <time>2022-07-24T05:56:49Z</time>
      </trkpt>
      <trkpt lat="45.76125" lon="6.51885">
        <ele>1681</ele>
        <time>2022-07-24T05:56:50Z</time>
      </trkpt>
      <trkpt lat="45.76125" lon="6.51886">
        <ele>1681</ele>
        <time>2022-07-24T05:56:51Z</time>
      </trkpt>
      <trkpt lat="45.76125" lon="6.51888">
        <ele>1681</ele>
        <time>2022-07-24T05:56:52Z</time>
      </trkpt>
      <trkpt lat="45.76124" lon="6.5189">
        <ele>1681</ele>
        <time>2022-07-24T05:56:53Z</time>
      </trkpt>
      <trkpt lat="45.76124" lon="6.51892">
        <ele>1681</ele>
        <time>2022-07-24T05:56:54Z</time>
      </trkpt>
      <trkpt lat="45.76124" lon="6.51893">
        <ele>1680</ele>
        <time>2022-07-24T05:56:55Z</time>
      </trkpt>
      <trkpt lat="45.76123" lon="6.51895">
        <ele>1680</ele>
        <time>2022-07-24T05:56:56Z</time>
      </trkpt>
      <trkpt lat="45.76123" lon="6.51897">
        <ele>1680</ele>
        <time>2022-07-24T05:56:57Z</time>
      </trkpt>
      <trkpt lat="45.76123" lon="6.51898">
        <ele>1680</ele>
        <time>2022-07-24T05:56:58Z</time>
      </trkpt>
      <trkpt lat="45.76123" lon="6.519">
        <ele>1680</ele>
        <time>2022-07-24T05:56:59Z</time>
      </trkpt>
      <trkpt lat="45.76122" lon="6.51901">
        <ele>1680</ele>
        <time>2022-07-24T05:57:00Z</time>
      </trkpt>
      <trkpt lat="45.76122" lon="6.51903">
        <ele>1680</ele>
        <time>2022-07-24T05:57:01Z</time>
      </trkpt>
      <trkpt lat="45.76122" lon="6.51904">
        <ele>1680</ele>
        <time>2022-07-24T05:57:02Z</time>
      </trkpt>
      <trkpt lat="45.76122" lon="6.51905">
        <ele>1680</ele>
        <time>2022-07-24T05:57:03Z</time>
      </trkpt>
      <trkpt lat="45.76122" lon="6.51907">
        <ele>1680</ele>
        <time>2022-07-24T05:57:04Z</time>
      </trkpt>
      <trkpt lat="45.76122" lon="6.51908">
        <ele>1680</ele>
        <time>2022-07-24T05:57:05Z</time>
      </trkpt>
      <trkpt lat="45.76122" lon="6.51909">
        <ele>1680</ele>
        <time>2022-07-24T05:57:25Z</time>
      </trkpt>
      <trkpt lat="45.76121" lon="6.51909">
        <ele>1680</ele>
        <time>2022-07-24T05:57:26Z</time>
      </trkpt>
      <trkpt lat="45.76121" lon="6.5191">
        <ele>1680</ele>
        <time>2022-07-24T05:57:27Z</time>
      </trkpt>
      <trkpt lat="45.76121" lon="6.51911">
        <ele>1680</ele>
        <time>2022-07-24T05:57:28Z</time>
      </trkpt>
      <trkpt lat="45.7612" lon="6.51913">
        <ele>1680</ele>
        <time>2022-07-24T05:57:29Z</time>
      </trkpt>
      <trkpt lat="45.7612" lon="6.51914">
        <ele>1679</ele>
        <time>2022-07-24T05:57:30Z</time>
      </trkpt>
      <trkpt lat="45.76119" lon="6.51916">
        <ele>1679</ele>
        <time>2022-07-24T05:57:31Z</time>
      </trkpt>
      <trkpt lat="45.76118" lon="6.51918">
        <ele>1679</ele>
        <time>2022-07-24T05:57:32Z</time>
      </trkpt>
      <trkpt lat="45.76118" lon="6.51921">
        <ele>1679</ele>
        <time>2022-07-24T05:57:33Z</time>
      </trkpt>
      <trkpt lat="45.76117" lon="6.51923">
        <ele>1679</ele>
        <time>2022-07-24T05:57:34Z</time>
      </trkpt>
      <trkpt lat="45.76116" lon="6.51925">
        <ele>1679</ele>
        <time>2022-07-24T05:57:35Z</time>
      </trkpt>
      <trkpt lat="45.76115" lon="6.51927">
        <ele>1679</ele>
        <time>2022-07-24T05:57:36Z</time>
      </trkpt>
      <trkpt lat="45.76115" lon="6.51929">
        <ele>1679</ele>
        <time>2022-07-24T05:57:37Z</time>
      </trkpt>
      <trkpt lat="45.76114" lon="6.51931">
        <ele>1679</ele>
        <time>2022-07-24T05:57:38Z</time>
      </trkpt>
      <trkpt lat="45.76113" lon="6.51933">
        <ele>1679</ele>
        <time>2022-07-24T05:57:39Z</time>
      </trkpt>
      <trkpt lat="45.76112" lon="6.51935">
        <ele>1678</ele>
        <time>2022-07-24T05:57:40Z</time>
      </trkpt>
      <trkpt lat="45.76111" lon="6.51937">
        <ele>1678</ele>
        <time>2022-07-24T05:57:41Z</time>
      </trkpt>
      <trkpt lat="45.7611" lon="6.51938">
        <ele>1678</ele>
        <time>2022-07-24T05:57:42Z</time>
      </trkpt>
      <trkpt lat="45.76109" lon="6.5194">
        <ele>1678</ele>
        <time>2022-07-24T05:57:43Z</time>
      </trkpt>
      <trkpt lat="45.76108" lon="6.51942">
        <ele>1678</ele>
        <time>2022-07-24T05:57:44Z</time>
      </trkpt>
      <trkpt lat="45.76107" lon="6.51943">
        <ele>1677</ele>
        <time>2022-07-24T05:57:45Z</time>
      </trkpt>
      <trkpt lat="45.76106" lon="6.51945">
        <ele>1677</ele>
        <time>2022-07-24T05:57:46Z</time>
      </trkpt>
      <trkpt lat="45.76105" lon="6.51947">
        <ele>1677</ele>
        <time>2022-07-24T05:57:47Z</time>
      </trkpt>
      <trkpt lat="45.76104" lon="6.51948">
        <ele>1677</ele>
        <time>2022-07-24T05:57:48Z</time>
      </trkpt>
      <trkpt lat="45.76103" lon="6.5195">
        <ele>1677</ele>
        <time>2022-07-24T05:57:49Z</time>
      </trkpt>
      <trkpt lat="45.76103" lon="6.51952">
        <ele>1677</ele>
        <time>2022-07-24T05:57:50Z</time>
      </trkpt>
      <trkpt lat="45.76102" lon="6.51954">
        <ele>1677</ele>
        <time>2022-07-24T05:57:51Z</time>
      </trkpt>
      <trkpt lat="45.76102" lon="6.51956">
        <ele>1677</ele>
        <time>2022-07-24T05:57:52Z</time>
      </trkpt>
      <trkpt lat="45.76101" lon="6.51958">
        <ele>1677</ele>
        <time>2022-07-24T05:57:53Z</time>
      </trkpt>
      <trkpt lat="45.76101" lon="6.51959">
        <ele>1677</ele>
        <time>2022-07-24T05:57:54Z</time>
      </trkpt>
      <trkpt lat="45.76101" lon="6.51959">
        <ele>1677</ele>
        <time>2022-07-24T05:57:55Z</time>
      </trkpt>
      <trkpt lat="45.76101" lon="6.5196">
        <ele>1677</ele>
        <time>2022-07-24T05:57:56Z</time>
      </trkpt>
      <trkpt lat="45.76101" lon="6.51961">
        <ele>1677</ele>
        <time>2022-07-24T05:57:57Z</time>
      </trkpt>
      <trkpt lat="45.76101" lon="6.51962">
        <ele>1677</ele>
        <time>2022-07-24T05:57:58Z</time>
      </trkpt>
      <trkpt lat="45.761" lon="6.51963">
        <ele>1677</ele>
        <time>2022-07-24T05:57:59Z</time>
      </trkpt>
      <trkpt lat="45.761" lon="6.51964">
        <ele>1677</ele>
        <time>2022-07-24T05:58:00Z</time>
      </trkpt>
      <trkpt lat="45.761" lon="6.51966">
        <ele>1677</ele>
        <time>2022-07-24T05:58:01Z</time>
      </trkpt>
      <trkpt lat="45.76099" lon="6.51967">
        <ele>1677</ele>
        <time>2022-07-24T05:58:02Z</time>
      </trkpt>
      <trkpt lat="45.76098" lon="6.51969">
        <ele>1677</ele>
        <time>2022-07-24T05:58:03Z</time>
      </trkpt>
      <trkpt lat="45.76098" lon="6.51971">
        <ele>1677</ele>
        <time>2022-07-24T05:58:04Z</time>
      </trkpt>
      <trkpt lat="45.76097" lon="6.51972">
        <ele>1677</ele>
        <time>2022-07-24T05:58:05Z</time>
      </trkpt>
      <trkpt lat="45.76096" lon="6.51974">
        <ele>1677</ele>
        <time>2022-07-24T05:58:06Z</time>
      </trkpt>
      <trkpt lat="45.76095" lon="6.51975">
        <ele>1677</ele>
        <time>2022-07-24T05:58:07Z</time>
      </trkpt>
      <trkpt lat="45.76094" lon="6.51977">
        <ele>1677</ele>
        <time>2022-07-24T05:58:08Z</time>
      </trkpt>
      <trkpt lat="45.76093" lon="6.51978">
        <ele>1677</ele>
        <time>2022-07-24T05:58:09Z</time>
      </trkpt>
      <trkpt lat="45.76092" lon="6.5198">
        <ele>1677</ele>
        <time>2022-07-24T05:58:10Z</time>
      </trkpt>
      <trkpt lat="45.76091" lon="6.51981">
        <ele>1677</ele>
        <time>2022-07-24T05:58:11Z</time>
      </trkpt>
      <trkpt lat="45.7609" lon="6.51983">
        <ele>1677</ele>
        <time>2022-07-24T05:58:12Z</time>
      </trkpt>
      <trkpt lat="45.76089" lon="6.51985">
        <ele>1677</ele>
        <time>2022-07-24T05:58:13Z</time>
      </trkpt>
      <trkpt lat="45.76088" lon="6.51986">
        <ele>1677</ele>
        <time>2022-07-24T05:58:14Z</time>
      </trkpt>
      <trkpt lat="45.76087" lon="6.51988">
        <ele>1676</ele>
        <time>2022-07-24T05:58:15Z</time>
      </trkpt>
      <trkpt lat="45.76087" lon="6.5199">
        <ele>1676</ele>
        <time>2022-07-24T05:58:16Z</time>
      </trkpt>
      <trkpt lat="45.76086" lon="6.51992">
        <ele>1676</ele>
        <time>2022-07-24T05:58:17Z</time>
      </trkpt>
      <trkpt lat="45.76085" lon="6.51994">
        <ele>1676</ele>
        <time>2022-07-24T05:58:18Z</time>
      </trkpt>
      <trkpt lat="45.76084" lon="6.51996">
        <ele>1676</ele>
        <time>2022-07-24T05:58:19Z</time>
      </trkpt>
      <trkpt lat="45.76084" lon="6.51998">
        <ele>1676</ele>
        <time>2022-07-24T05:58:20Z</time>
      </trkpt>
      <trkpt lat="45.76083" lon="6.51999">
        <ele>1676</ele>
        <time>2022-07-24T05:58:21Z</time>
      </trkpt>
      <trkpt lat="45.76082" lon="6.52001">
        <ele>1676</ele>
        <time>2022-07-24T05:58:22Z</time>
      </trkpt>
      <trkpt lat="45.76081" lon="6.52003">
        <ele>1676</ele>
        <time>2022-07-24T05:58:23Z</time>
      </trkpt>
      <trkpt lat="45.7608" lon="6.52004">
        <ele>1676</ele>
        <time>2022-07-24T05:58:24Z</time>
      </trkpt>
      <trkpt lat="45.76079" lon="6.52005">
        <ele>1676</ele>
        <time>2022-07-24T05:58:25Z</time>
      </trkpt>
      <trkpt lat="45.76077" lon="6.52007">
        <ele>1676</ele>
        <time>2022-07-24T05:58:26Z</time>
      </trkpt>
      <trkpt lat="45.76076" lon="6.52008">
        <ele>1676</ele>
        <time>2022-07-24T05:58:27Z</time>
      </trkpt>
      <trkpt lat="45.76075" lon="6.5201">
        <ele>1676</ele>
        <time>2022-07-24T05:58:28Z</time>
      </trkpt>
      <trkpt lat="45.76074" lon="6.52011">
        <ele>1676</ele>
        <time>2022-07-24T05:58:29Z</time>
      </trkpt>
      <trkpt lat="45.76073" lon="6.52012">
        <ele>1675</ele>
        <time>2022-07-24T05:58:30Z</time>
      </trkpt>
      <trkpt lat="45.76072" lon="6.52014">
        <ele>1675</ele>
        <time>2022-07-24T05:58:31Z</time>
      </trkpt>
      <trkpt lat="45.7607" lon="6.52015">
        <ele>1675</ele>
        <time>2022-07-24T05:58:32Z</time>
      </trkpt>
      <trkpt lat="45.76069" lon="6.52016">
        <ele>1675</ele>
        <time>2022-07-24T05:58:33Z</time>
      </trkpt>
      <trkpt lat="45.76068" lon="6.52018">
        <ele>1675</ele>
        <time>2022-07-24T05:58:34Z</time>
      </trkpt>
      <trkpt lat="45.76066" lon="6.52019">
        <ele>1675</ele>
        <time>2022-07-24T05:58:35Z</time>
      </trkpt>
      <trkpt lat="45.76065" lon="6.5202">
        <ele>1675</ele>
        <time>2022-07-24T05:58:36Z</time>
      </trkpt>
      <trkpt lat="45.76063" lon="6.52021">
        <ele>1675</ele>
        <time>2022-07-24T05:58:37Z</time>
      </trkpt>
      <trkpt lat="45.76062" lon="6.52021">
        <ele>1675</ele>
        <time>2022-07-24T05:58:38Z</time>
      </trkpt>
      <trkpt lat="45.76061" lon="6.52022">
        <ele>1675</ele>
        <time>2022-07-24T05:58:39Z</time>
      </trkpt>
      <trkpt lat="45.76059" lon="6.52022">
        <ele>1675</ele>
        <time>2022-07-24T05:58:40Z</time>
      </trkpt>
      <trkpt lat="45.76058" lon="6.52022">
        <ele>1675</ele>
        <time>2022-07-24T05:58:41Z</time>
      </trkpt>
      <trkpt lat="45.76056" lon="6.52022">
        <ele>1675</ele>
        <time>2022-07-24T05:58:42Z</time>
      </trkpt>
      <trkpt lat="45.76055" lon="6.52022">
        <ele>1675</ele>
        <time>2022-07-24T05:58:43Z</time>
      </trkpt>
      <trkpt lat="45.76053" lon="6.52022">
        <ele>1675</ele>
        <time>2022-07-24T05:58:44Z</time>
      </trkpt>
      <trkpt lat="45.76052" lon="6.52023">
        <ele>1674</ele>
        <time>2022-07-24T05:58:45Z</time>
      </trkpt>
      <trkpt lat="45.76051" lon="6.52023">
        <ele>1674</ele>
        <time>2022-07-24T05:58:46Z</time>
      </trkpt>
      <trkpt lat="45.76051" lon="6.52024">
        <ele>1674</ele>
        <time>2022-07-24T05:58:47Z</time>
      </trkpt>
      <trkpt lat="45.7605" lon="6.52024">
        <ele>1674</ele>
        <time>2022-07-24T05:58:48Z</time>
      </trkpt>
      <trkpt lat="45.7605" lon="6.52025">
        <ele>1674</ele>
        <time>2022-07-24T05:59:02Z</time>
      </trkpt>
      <trkpt lat="45.76049" lon="6.52026">
        <ele>1674</ele>
        <time>2022-07-24T05:59:03Z</time>
      </trkpt>
      <trkpt lat="45.76049" lon="6.52026">
        <ele>1674</ele>
        <time>2022-07-24T05:59:04Z</time>
      </trkpt>
      <trkpt lat="45.76048" lon="6.52026">
        <ele>1673</ele>
        <time>2022-07-24T05:59:05Z</time>
      </trkpt>
      <trkpt lat="45.76047" lon="6.52027">
        <ele>1673</ele>
        <time>2022-07-24T05:59:06Z</time>
      </trkpt>
      <trkpt lat="45.76046" lon="6.52026">
        <ele>1673</ele>
        <time>2022-07-24T05:59:07Z</time>
      </trkpt>
      <trkpt lat="45.76045" lon="6.52026">
        <ele>1673</ele>
        <time>2022-07-24T05:59:08Z</time>
      </trkpt>
      <trkpt lat="45.76044" lon="6.52026">
        <ele>1673</ele>
        <time>2022-07-24T05:59:09Z</time>
      </trkpt>
      <trkpt lat="45.76042" lon="6.52026">
        <ele>1673</ele>
        <time>2022-07-24T05:59:10Z</time>
      </trkpt>
      <trkpt lat="45.76041" lon="6.52026">
        <ele>1673</ele>
        <time>2022-07-24T05:59:11Z</time>
      </trkpt>
      <trkpt lat="45.7604" lon="6.52026">
        <ele>1673</ele>
        <time>2022-07-24T05:59:12Z</time>
      </trkpt>
      <trkpt lat="45.76039" lon="6.52027">
        <ele>1673</ele>
        <time>2022-07-24T05:59:13Z</time>
      </trkpt>
      <trkpt lat="45.76038" lon="6.52027">
        <ele>1673</ele>
        <time>2022-07-24T05:59:14Z</time>
      </trkpt>
      <trkpt lat="45.76037" lon="6.52027">
        <ele>1672</ele>
        <time>2022-07-24T05:59:15Z</time>
      </trkpt>
      <trkpt lat="45.76036" lon="6.52028">
        <ele>1672</ele>
        <time>2022-07-24T05:59:16Z</time>
      </trkpt>
      <trkpt lat="45.76035" lon="6.52028">
        <ele>1672</ele>
        <time>2022-07-24T05:59:17Z</time>
      </trkpt>
      <trkpt lat="45.76034" lon="6.52029">
        <ele>1672</ele>
        <time>2022-07-24T05:59:18Z</time>
      </trkpt>
      <trkpt lat="45.76033" lon="6.52029">
        <ele>1672</ele>
        <time>2022-07-24T05:59:19Z</time>
      </trkpt>
      <trkpt lat="45.76032" lon="6.5203">
        <ele>1672</ele>
        <time>2022-07-24T05:59:20Z</time>
      </trkpt>
      <trkpt lat="45.76031" lon="6.5203">
        <ele>1672</ele>
        <time>2022-07-24T05:59:21Z</time>
      </trkpt>
      <trkpt lat="45.7603" lon="6.5203">
        <ele>1672</ele>
        <time>2022-07-24T05:59:22Z</time>
      </trkpt>
      <trkpt lat="45.76029" lon="6.52031">
        <ele>1672</ele>
        <time>2022-07-24T05:59:23Z</time>
      </trkpt>
      <trkpt lat="45.76028" lon="6.52031">
        <ele>1672</ele>
        <time>2022-07-24T05:59:24Z</time>
      </trkpt>
      <trkpt lat="45.76027" lon="6.52032">
        <ele>1671</ele>
        <time>2022-07-24T05:59:25Z</time>
      </trkpt>
      <trkpt lat="45.76026" lon="6.52032">
        <ele>1671</ele>
        <time>2022-07-24T05:59:26Z</time>
      </trkpt>
      <trkpt lat="45.76025" lon="6.52033">
        <ele>1671</ele>
        <time>2022-07-24T05:59:27Z</time>
      </trkpt>
      <trkpt lat="45.76024" lon="6.52033">
        <ele>1671</ele>
        <time>2022-07-24T05:59:28Z</time>
      </trkpt>
      <trkpt lat="45.76022" lon="6.52034">
        <ele>1671</ele>
        <time>2022-07-24T05:59:29Z</time>
      </trkpt>
      <trkpt lat="45.76021" lon="6.52034">
        <ele>1671</ele>
        <time>2022-07-24T05:59:30Z</time>
      </trkpt>
      <trkpt lat="45.7602" lon="6.52035">
        <ele>1671</ele>
        <time>2022-07-24T05:59:31Z</time>
      </trkpt>
      <trkpt lat="45.76019" lon="6.52035">
        <ele>1671</ele>
        <time>2022-07-24T05:59:32Z</time>
      </trkpt>
      <trkpt lat="45.76018" lon="6.52036">
        <ele>1671</ele>
        <time>2022-07-24T05:59:33Z</time>
      </trkpt>
      <trkpt lat="45.76017" lon="6.52036">
        <ele>1671</ele>
        <time>2022-07-24T05:59:34Z</time>
      </trkpt>
      <trkpt lat="45.76015" lon="6.52037">
        <ele>1670</ele>
        <time>2022-07-24T05:59:35Z</time>
      </trkpt>
      <trkpt lat="45.76014" lon="6.52037">
        <ele>1670</ele>
        <time>2022-07-24T05:59:36Z</time>
      </trkpt>
      <trkpt lat="45.76013" lon="6.52038">
        <ele>1670</ele>
        <time>2022-07-24T05:59:37Z</time>
      </trkpt>
      <trkpt lat="45.76012" lon="6.52038">
        <ele>1670</ele>
        <time>2022-07-24T05:59:38Z</time>
      </trkpt>
      <trkpt lat="45.76011" lon="6.52039">
        <ele>1670</ele>
        <time>2022-07-24T05:59:39Z</time>
      </trkpt>
      <trkpt lat="45.76009" lon="6.52039">
        <ele>1670</ele>
        <time>2022-07-24T05:59:40Z</time>
      </trkpt>
      <trkpt lat="45.76008" lon="6.52039">
        <ele>1670</ele>
        <time>2022-07-24T05:59:41Z</time>
      </trkpt>
      <trkpt lat="45.76007" lon="6.5204">
        <ele>1670</ele>
        <time>2022-07-24T05:59:42Z</time>
      </trkpt>
      <trkpt lat="45.76006" lon="6.5204">
        <ele>1670</ele>
        <time>2022-07-24T05:59:43Z</time>
      </trkpt>
      <trkpt lat="45.76004" lon="6.5204">
        <ele>1670</ele>
        <time>2022-07-24T05:59:44Z</time>
      </trkpt>
      <trkpt lat="45.76003" lon="6.52041">
        <ele>1669</ele>
        <time>2022-07-24T05:59:45Z</time>
      </trkpt>
      <trkpt lat="45.76002" lon="6.52041">
        <ele>1669</ele>
        <time>2022-07-24T05:59:46Z</time>
      </trkpt>
      <trkpt lat="45.76001" lon="6.52041">
        <ele>1669</ele>
        <time>2022-07-24T05:59:47Z</time>
      </trkpt>
      <trkpt lat="45.75999" lon="6.52041">
        <ele>1669</ele>
        <time>2022-07-24T05:59:48Z</time>
      </trkpt>
      <trkpt lat="45.75998" lon="6.52042">
        <ele>1669</ele>
        <time>2022-07-24T05:59:49Z</time>
      </trkpt>
      <trkpt lat="45.75997" lon="6.52042">
        <ele>1669</ele>
        <time>2022-07-24T05:59:50Z</time>
      </trkpt>
      <trkpt lat="45.75996" lon="6.52042">
        <ele>1669</ele>
        <time>2022-07-24T05:59:51Z</time>
      </trkpt>
      <trkpt lat="45.75994" lon="6.52042">
        <ele>1669</ele>
        <time>2022-07-24T05:59:52Z</time>
      </trkpt>
      <trkpt lat="45.75993" lon="6.52042">
        <ele>1669</ele>
        <time>2022-07-24T05:59:53Z</time>
      </trkpt>
      <trkpt lat="45.75992" lon="6.52043">
        <ele>1669</ele>
        <time>2022-07-24T05:59:54Z</time>
      </trkpt>
      <trkpt lat="45.75991" lon="6.52043">
        <ele>1668</ele>
        <time>2022-07-24T05:59:55Z</time>
      </trkpt>
      <trkpt lat="45.75989" lon="6.52043">
        <ele>1668</ele>
        <time>2022-07-24T05:59:56Z</time>
      </trkpt>
      <trkpt lat="45.75988" lon="6.52043">
        <ele>1668</ele>
        <time>2022-07-24T05:59:57Z</time>
      </trkpt>
      <trkpt lat="45.75987" lon="6.52043">
        <ele>1668</ele>
        <time>2022-07-24T05:59:58Z</time>
      </trkpt>
      <trkpt lat="45.75986" lon="6.52043">
        <ele>1668</ele>
        <time>2022-07-24T05:59:59Z</time>
      </trkpt>
      <trkpt lat="45.75985" lon="6.52043">
        <ele>1668</ele>
        <time>2022-07-24T06:00:00Z</time>
      </trkpt>
      <trkpt lat="45.75983" lon="6.52043">
        <ele>1668</ele>
        <time>2022-07-24T06:00:01Z</time>
      </trkpt>
      <trkpt lat="45.75982" lon="6.52043">
        <ele>1668</ele>
        <time>2022-07-24T06:00:02Z</time>
      </trkpt>
      <trkpt lat="45.75981" lon="6.52044">
        <ele>1668</ele>
        <time>2022-07-24T06:00:03Z</time>
      </trkpt>
      <trkpt lat="45.7598" lon="6.52044">
        <ele>1668</ele>
        <time>2022-07-24T06:00:04Z</time>
      </trkpt>
      <trkpt lat="45.75979" lon="6.52045">
        <ele>1667</ele>
        <time>2022-07-24T06:00:05Z</time>
      </trkpt>
      <trkpt lat="45.75978" lon="6.52045">
        <ele>1667</ele>
        <time>2022-07-24T06:00:06Z</time>
      </trkpt>
      <trkpt lat="45.75977" lon="6.52046">
        <ele>1667</ele>
        <time>2022-07-24T06:00:07Z</time>
      </trkpt>
      <trkpt lat="45.75976" lon="6.52046">
        <ele>1667</ele>
        <time>2022-07-24T06:00:08Z</time>
      </trkpt>
      <trkpt lat="45.75975" lon="6.52046">
        <ele>1667</ele>
        <time>2022-07-24T06:00:09Z</time>
      </trkpt>
      <trkpt lat="45.75973" lon="6.52047">
        <ele>1667</ele>
        <time>2022-07-24T06:00:10Z</time>
      </trkpt>
      <trkpt lat="45.75972" lon="6.52047">
        <ele>1667</ele>
        <time>2022-07-24T06:00:11Z</time>
      </trkpt>
      <trkpt lat="45.75971" lon="6.52048">
        <ele>1667</ele>
        <time>2022-07-24T06:00:12Z</time>
      </trkpt>
      <trkpt lat="45.7597" lon="6.52048">
        <ele>1667</ele>
        <time>2022-07-24T06:00:13Z</time>
      </trkpt>
      <trkpt lat="45.75969" lon="6.52049">
        <ele>1667</ele>
        <time>2022-07-24T06:00:14Z</time>
      </trkpt>
      <trkpt lat="45.75968" lon="6.52049">
        <ele>1666</ele>
        <time>2022-07-24T06:00:15Z</time>
      </trkpt>
      <trkpt lat="45.75967" lon="6.5205">
        <ele>1666</ele>
        <time>2022-07-24T06:00:16Z</time>
      </trkpt>
      <trkpt lat="45.75966" lon="6.5205">
        <ele>1666</ele>
        <time>2022-07-24T06:00:17Z</time>
      </trkpt>
      <trkpt lat="45.75965" lon="6.52051">
        <ele>1666</ele>
        <time>2022-07-24T06:00:18Z</time>
      </trkpt>
      <trkpt lat="45.75964" lon="6.52051">
        <ele>1666</ele>
        <time>2022-07-24T06:00:19Z</time>
      </trkpt>
      <trkpt lat="45.75963" lon="6.52052">
        <ele>1666</ele>
        <time>2022-07-24T06:00:20Z</time>
      </trkpt>
      <trkpt lat="45.75962" lon="6.52052">
        <ele>1666</ele>
        <time>2022-07-24T06:00:21Z</time>
      </trkpt>
      <trkpt lat="45.75961" lon="6.52053">
        <ele>1666</ele>
        <time>2022-07-24T06:00:22Z</time>
      </trkpt>
      <trkpt lat="45.7596" lon="6.52053">
        <ele>1666</ele>
        <time>2022-07-24T06:00:23Z</time>
      </trkpt>
      <trkpt lat="45.75959" lon="6.52054">
        <ele>1666</ele>
        <time>2022-07-24T06:00:24Z</time>
      </trkpt>
      <trkpt lat="45.75958" lon="6.52054">
        <ele>1665</ele>
        <time>2022-07-24T06:00:25Z</time>
      </trkpt>
      <trkpt lat="45.75957" lon="6.52054">
        <ele>1665</ele>
        <time>2022-07-24T06:00:26Z</time>
      </trkpt>
      <trkpt lat="45.75955" lon="6.52055">
        <ele>1665</ele>
        <time>2022-07-24T06:00:27Z</time>
      </trkpt>
      <trkpt lat="45.75954" lon="6.52055">
        <ele>1665</ele>
        <time>2022-07-24T06:00:28Z</time>
      </trkpt>
      <trkpt lat="45.75953" lon="6.52055">
        <ele>1665</ele>
        <time>2022-07-24T06:00:29Z</time>
      </trkpt>
      <trkpt lat="45.75952" lon="6.52056">
        <ele>1665</ele>
        <time>2022-07-24T06:00:30Z</time>
      </trkpt>
      <trkpt lat="45.75951" lon="6.52056">
        <ele>1665</ele>
        <time>2022-07-24T06:00:31Z</time>
      </trkpt>
      <trkpt lat="45.7595" lon="6.52056">
        <ele>1665</ele>
        <time>2022-07-24T06:00:32Z</time>
      </trkpt>
      <trkpt lat="45.75948" lon="6.52056">
        <ele>1665</ele>
        <time>2022-07-24T06:00:33Z</time>
      </trkpt>
      <trkpt lat="45.75947" lon="6.52057">
        <ele>1665</ele>
        <time>2022-07-24T06:00:34Z</time>
      </trkpt>
      <trkpt lat="45.75946" lon="6.52057">
        <ele>1664</ele>
        <time>2022-07-24T06:00:35Z</time>
      </trkpt>
      <trkpt lat="45.75945" lon="6.52058">
        <ele>1664</ele>
        <time>2022-07-24T06:00:36Z</time>
      </trkpt>
      <trkpt lat="45.75944" lon="6.52059">
        <ele>1664</ele>
        <time>2022-07-24T06:00:37Z</time>
      </trkpt>
      <trkpt lat="45.75942" lon="6.52059">
        <ele>1664</ele>
        <time>2022-07-24T06:00:38Z</time>
      </trkpt>
      <trkpt lat="45.75941" lon="6.5206">
        <ele>1664</ele>
        <time>2022-07-24T06:00:39Z</time>
      </trkpt>
      <trkpt lat="45.7594" lon="6.5206">
        <ele>1664</ele>
        <time>2022-07-24T06:00:40Z</time>
      </trkpt>
      <trkpt lat="45.75939" lon="6.52061">
        <ele>1664</ele>
        <time>2022-07-24T06:00:41Z</time>
      </trkpt>
      <trkpt lat="45.75938" lon="6.52061">
        <ele>1664</ele>
        <time>2022-07-24T06:00:42Z</time>
      </trkpt>
      <trkpt lat="45.75937" lon="6.52062">
        <ele>1664</ele>
        <time>2022-07-24T06:00:43Z</time>
      </trkpt>
      <trkpt lat="45.75936" lon="6.52062">
        <ele>1664</ele>
        <time>2022-07-24T06:00:44Z</time>
      </trkpt>
      <trkpt lat="45.75935" lon="6.52063">
        <ele>1664</ele>
        <time>2022-07-24T06:00:45Z</time>
      </trkpt>
      <trkpt lat="45.75934" lon="6.52063">
        <ele>1664</ele>
        <time>2022-07-24T06:00:46Z</time>
      </trkpt>
      <trkpt lat="45.75933" lon="6.52063">
        <ele>1664</ele>
        <time>2022-07-24T06:00:47Z</time>
      </trkpt>
      <trkpt lat="45.75932" lon="6.52063">
        <ele>1664</ele>
        <time>2022-07-24T06:00:48Z</time>
      </trkpt>
      <trkpt lat="45.75931" lon="6.52064">
        <ele>1664</ele>
        <time>2022-07-24T06:00:49Z</time>
      </trkpt>
      <trkpt lat="45.75929" lon="6.52064">
        <ele>1664</ele>
        <time>2022-07-24T06:00:50Z</time>
      </trkpt>
      <trkpt lat="45.75928" lon="6.52064">
        <ele>1664</ele>
        <time>2022-07-24T06:00:51Z</time>
      </trkpt>
      <trkpt lat="45.75927" lon="6.52064">
        <ele>1664</ele>
        <time>2022-07-24T06:00:52Z</time>
      </trkpt>
      <trkpt lat="45.75926" lon="6.52064">
        <ele>1664</ele>
        <time>2022-07-24T06:00:53Z</time>
      </trkpt>
      <trkpt lat="45.75924" lon="6.52065">
        <ele>1664</ele>
        <time>2022-07-24T06:00:54Z</time>
      </trkpt>
      <trkpt lat="45.75923" lon="6.52065">
        <ele>1664</ele>
        <time>2022-07-24T06:00:55Z</time>
      </trkpt>
      <trkpt lat="45.75922" lon="6.52065">
        <ele>1664</ele>
        <time>2022-07-24T06:00:56Z</time>
      </trkpt>
      <trkpt lat="45.75921" lon="6.52066">
        <ele>1664</ele>
        <time>2022-07-24T06:00:57Z</time>
      </trkpt>
      <trkpt lat="45.75919" lon="6.52066">
        <ele>1664</ele>
        <time>2022-07-24T06:00:58Z</time>
      </trkpt>
      <trkpt lat="45.75918" lon="6.52066">
        <ele>1664</ele>
        <time>2022-07-24T06:00:59Z</time>
      </trkpt>
      <trkpt lat="45.75917" lon="6.52067">
        <ele>1664</ele>
        <time>2022-07-24T06:01:00Z</time>
      </trkpt>
      <trkpt lat="45.75916" lon="6.52067">
        <ele>1664</ele>
        <time>2022-07-24T06:01:01Z</time>
      </trkpt>
      <trkpt lat="45.75915" lon="6.52067">
        <ele>1664</ele>
        <time>2022-07-24T06:01:02Z</time>
      </trkpt>
      <trkpt lat="45.75914" lon="6.52068">
        <ele>1664</ele>
        <time>2022-07-24T06:01:03Z</time>
      </trkpt>
      <trkpt lat="45.75913" lon="6.52068">
        <ele>1664</ele>
        <time>2022-07-24T06:01:04Z</time>
      </trkpt>
      <trkpt lat="45.75912" lon="6.52069">
        <ele>1664</ele>
        <time>2022-07-24T06:01:05Z</time>
      </trkpt>
      <trkpt lat="45.75911" lon="6.52069">
        <ele>1664</ele>
        <time>2022-07-24T06:01:06Z</time>
      </trkpt>
      <trkpt lat="45.7591" lon="6.5207">
        <ele>1664</ele>
        <time>2022-07-24T06:01:07Z</time>
      </trkpt>
      <trkpt lat="45.75909" lon="6.5207">
        <ele>1664</ele>
        <time>2022-07-24T06:01:08Z</time>
      </trkpt>
      <trkpt lat="45.75908" lon="6.52071">
        <ele>1664</ele>
        <time>2022-07-24T06:01:09Z</time>
      </trkpt>
      <trkpt lat="45.75907" lon="6.52071">
        <ele>1664</ele>
        <time>2022-07-24T06:01:10Z</time>
      </trkpt>
      <trkpt lat="45.75906" lon="6.52072">
        <ele>1664</ele>
        <time>2022-07-24T06:01:11Z</time>
      </trkpt>
      <trkpt lat="45.75905" lon="6.52072">
        <ele>1664</ele>
        <time>2022-07-24T06:01:12Z</time>
      </trkpt>
      <trkpt lat="45.75904" lon="6.52073">
        <ele>1664</ele>
        <time>2022-07-24T06:01:13Z</time>
      </trkpt>
      <trkpt lat="45.75903" lon="6.52073">
        <ele>1664</ele>
        <time>2022-07-24T06:01:14Z</time>
      </trkpt>
      <trkpt lat="45.75902" lon="6.52074">
        <ele>1664</ele>
        <time>2022-07-24T06:01:15Z</time>
      </trkpt>
      <trkpt lat="45.75901" lon="6.52074">
        <ele>1664</ele>
        <time>2022-07-24T06:01:16Z</time>
      </trkpt>
      <trkpt lat="45.759" lon="6.52075">
        <ele>1664</ele>
        <time>2022-07-24T06:01:17Z</time>
      </trkpt>
      <trkpt lat="45.75899" lon="6.52075">
        <ele>1664</ele>
        <time>2022-07-24T06:01:18Z</time>
      </trkpt>
      <trkpt lat="45.75898" lon="6.52076">
        <ele>1664</ele>
        <time>2022-07-24T06:01:19Z</time>
      </trkpt>
      <trkpt lat="45.75896" lon="6.52076">
        <ele>1663</ele>
        <time>2022-07-24T06:01:20Z</time>
      </trkpt>
      <trkpt lat="45.75895" lon="6.52077">
        <ele>1663</ele>
        <time>2022-07-24T06:01:21Z</time>
      </trkpt>
      <trkpt lat="45.75894" lon="6.52078">
        <ele>1663</ele>
        <time>2022-07-24T06:01:22Z</time>
      </trkpt>
      <trkpt lat="45.75893" lon="6.52079">
        <ele>1663</ele>
        <time>2022-07-24T06:01:23Z</time>
      </trkpt>
      <trkpt lat="45.75892" lon="6.52079">
        <ele>1663</ele>
        <time>2022-07-24T06:01:24Z</time>
      </trkpt>
      <trkpt lat="45.75891" lon="6.5208">
        <ele>1663</ele>
        <time>2022-07-24T06:01:25Z</time>
      </trkpt>
      <trkpt lat="45.75889" lon="6.52081">
        <ele>1663</ele>
        <time>2022-07-24T06:01:26Z</time>
      </trkpt>
      <trkpt lat="45.75888" lon="6.52081">
        <ele>1663</ele>
        <time>2022-07-24T06:01:27Z</time>
      </trkpt>
      <trkpt lat="45.75887" lon="6.52082">
        <ele>1663</ele>
        <time>2022-07-24T06:01:28Z</time>
      </trkpt>
      <trkpt lat="45.75886" lon="6.52083">
        <ele>1663</ele>
        <time>2022-07-24T06:01:29Z</time>
      </trkpt>
      <trkpt lat="45.75885" lon="6.52084">
        <ele>1663</ele>
        <time>2022-07-24T06:01:30Z</time>
      </trkpt>
      <trkpt lat="45.75883" lon="6.52084">
        <ele>1663</ele>
        <time>2022-07-24T06:01:31Z</time>
      </trkpt>
      <trkpt lat="45.75882" lon="6.52085">
        <ele>1663</ele>
        <time>2022-07-24T06:01:32Z</time>
      </trkpt>
      <trkpt lat="45.75881" lon="6.52086">
        <ele>1663</ele>
        <time>2022-07-24T06:01:33Z</time>
      </trkpt>
      <trkpt lat="45.7588" lon="6.52087">
        <ele>1663</ele>
        <time>2022-07-24T06:01:34Z</time>
      </trkpt>
      <trkpt lat="45.75879" lon="6.52088">
        <ele>1662</ele>
        <time>2022-07-24T06:01:35Z</time>
      </trkpt>
      <trkpt lat="45.75878" lon="6.52089">
        <ele>1662</ele>
        <time>2022-07-24T06:01:36Z</time>
      </trkpt>
      <trkpt lat="45.75877" lon="6.5209">
        <ele>1661</ele>
        <time>2022-07-24T06:01:37Z</time>
      </trkpt>
      <trkpt lat="45.75876" lon="6.52091">
        <ele>1661</ele>
        <time>2022-07-24T06:01:38Z</time>
      </trkpt>
      <trkpt lat="45.75875" lon="6.52091">
        <ele>1661</ele>
        <time>2022-07-24T06:01:39Z</time>
      </trkpt>
      <trkpt lat="45.75874" lon="6.52092">
        <ele>1661</ele>
        <time>2022-07-24T06:01:40Z</time>
      </trkpt>
      <trkpt lat="45.75873" lon="6.52093">
        <ele>1661</ele>
        <time>2022-07-24T06:01:41Z</time>
      </trkpt>
      <trkpt lat="45.75872" lon="6.52094">
        <ele>1661</ele>
        <time>2022-07-24T06:01:42Z</time>
      </trkpt>
      <trkpt lat="45.75871" lon="6.52095">
        <ele>1661</ele>
        <time>2022-07-24T06:01:43Z</time>
      </trkpt>
      <trkpt lat="45.7587" lon="6.52095">
        <ele>1661</ele>
        <time>2022-07-24T06:01:44Z</time>
      </trkpt>
      <trkpt lat="45.75869" lon="6.52096">
        <ele>1660</ele>
        <time>2022-07-24T06:01:45Z</time>
      </trkpt>
      <trkpt lat="45.75868" lon="6.52097">
        <ele>1660</ele>
        <time>2022-07-24T06:01:46Z</time>
      </trkpt>
      <trkpt lat="45.75867" lon="6.52098">
        <ele>1660</ele>
        <time>2022-07-24T06:01:47Z</time>
      </trkpt>
      <trkpt lat="45.75866" lon="6.52099">
        <ele>1660</ele>
        <time>2022-07-24T06:01:48Z</time>
      </trkpt>
      <trkpt lat="45.75865" lon="6.52099">
        <ele>1660</ele>
        <time>2022-07-24T06:01:49Z</time>
      </trkpt>
      <trkpt lat="45.75864" lon="6.521">
        <ele>1660</ele>
        <time>2022-07-24T06:01:50Z</time>
      </trkpt>
      <trkpt lat="45.75863" lon="6.52101">
        <ele>1660</ele>
        <time>2022-07-24T06:01:51Z</time>
      </trkpt>
      <trkpt lat="45.75862" lon="6.52102">
        <ele>1660</ele>
        <time>2022-07-24T06:01:52Z</time>
      </trkpt>
      <trkpt lat="45.75861" lon="6.52102">
        <ele>1660</ele>
        <time>2022-07-24T06:01:53Z</time>
      </trkpt>
      <trkpt lat="45.75861" lon="6.52103">
        <ele>1660</ele>
        <time>2022-07-24T06:01:54Z</time>
      </trkpt>
      <trkpt lat="45.7586" lon="6.52104">
        <ele>1660</ele>
        <time>2022-07-24T06:01:55Z</time>
      </trkpt>
      <trkpt lat="45.75859" lon="6.52104">
        <ele>1660</ele>
        <time>2022-07-24T06:01:56Z</time>
      </trkpt>
      <trkpt lat="45.75858" lon="6.52105">
        <ele>1660</ele>
        <time>2022-07-24T06:01:57Z</time>
      </trkpt>
      <trkpt lat="45.75857" lon="6.52106">
        <ele>1660</ele>
        <time>2022-07-24T06:01:58Z</time>
      </trkpt>
      <trkpt lat="45.75856" lon="6.52107">
        <ele>1661</ele>
        <time>2022-07-24T06:01:59Z</time>
      </trkpt>
      <trkpt lat="45.75855" lon="6.52108">
        <ele>1661</ele>
        <time>2022-07-24T06:02:00Z</time>
      </trkpt>
      <trkpt lat="45.75854" lon="6.52108">
        <ele>1661</ele>
        <time>2022-07-24T06:02:01Z</time>
      </trkpt>
      <trkpt lat="45.75853" lon="6.52109">
        <ele>1661</ele>
        <time>2022-07-24T06:02:02Z</time>
      </trkpt>
      <trkpt lat="45.75852" lon="6.5211">
        <ele>1661</ele>
        <time>2022-07-24T06:02:03Z</time>
      </trkpt>
      <trkpt lat="45.75852" lon="6.52111">
        <ele>1661</ele>
        <time>2022-07-24T06:02:04Z</time>
      </trkpt>
      <trkpt lat="45.75851" lon="6.52112">
        <ele>1661</ele>
        <time>2022-07-24T06:02:05Z</time>
      </trkpt>
      <trkpt lat="45.7585" lon="6.52112">
        <ele>1661</ele>
        <time>2022-07-24T06:02:06Z</time>
      </trkpt>
      <trkpt lat="45.75849" lon="6.52113">
        <ele>1661</ele>
        <time>2022-07-24T06:02:07Z</time>
      </trkpt>
      <trkpt lat="45.75848" lon="6.52114">
        <ele>1661</ele>
        <time>2022-07-24T06:02:08Z</time>
      </trkpt>
      <trkpt lat="45.75847" lon="6.52115">
        <ele>1661</ele>
        <time>2022-07-24T06:02:09Z</time>
      </trkpt>
      <trkpt lat="45.75847" lon="6.52115">
        <ele>1661</ele>
        <time>2022-07-24T06:02:10Z</time>
      </trkpt>
      <trkpt lat="45.75846" lon="6.52116">
        <ele>1661</ele>
        <time>2022-07-24T06:02:11Z</time>
      </trkpt>
      <trkpt lat="45.75845" lon="6.52117">
        <ele>1661</ele>
        <time>2022-07-24T06:02:12Z</time>
      </trkpt>
      <trkpt lat="45.75844" lon="6.52118">
        <ele>1661</ele>
        <time>2022-07-24T06:02:13Z</time>
      </trkpt>
      <trkpt lat="45.75843" lon="6.52118">
        <ele>1661</ele>
        <time>2022-07-24T06:02:14Z</time>
      </trkpt>
      <trkpt lat="45.75842" lon="6.52119">
        <ele>1661</ele>
        <time>2022-07-24T06:02:15Z</time>
      </trkpt>
      <trkpt lat="45.7584" lon="6.5212">
        <ele>1661</ele>
        <time>2022-07-24T06:02:16Z</time>
      </trkpt>
      <trkpt lat="45.75839" lon="6.5212">
        <ele>1661</ele>
        <time>2022-07-24T06:02:17Z</time>
      </trkpt>
      <trkpt lat="45.75838" lon="6.52121">
        <ele>1661</ele>
        <time>2022-07-24T06:02:18Z</time>
      </trkpt>
      <trkpt lat="45.75837" lon="6.52122">
        <ele>1661</ele>
        <time>2022-07-24T06:02:19Z</time>
      </trkpt>
      <trkpt lat="45.75836" lon="6.52122">
        <ele>1661</ele>
        <time>2022-07-24T06:02:20Z</time>
      </trkpt>
      <trkpt lat="45.75835" lon="6.52123">
        <ele>1661</ele>
        <time>2022-07-24T06:02:21Z</time>
      </trkpt>
      <trkpt lat="45.75834" lon="6.52123">
        <ele>1661</ele>
        <time>2022-07-24T06:02:22Z</time>
      </trkpt>
      <trkpt lat="45.75833" lon="6.52124">
        <ele>1661</ele>
        <time>2022-07-24T06:02:23Z</time>
      </trkpt>
      <trkpt lat="45.75831" lon="6.52124">
        <ele>1661</ele>
        <time>2022-07-24T06:02:24Z</time>
      </trkpt>
      <trkpt lat="45.7583" lon="6.52125">
        <ele>1661</ele>
        <time>2022-07-24T06:02:25Z</time>
      </trkpt>
      <trkpt lat="45.75829" lon="6.52125">
        <ele>1661</ele>
        <time>2022-07-24T06:02:26Z</time>
      </trkpt>
      <trkpt lat="45.75828" lon="6.52126">
        <ele>1662</ele>
        <time>2022-07-24T06:02:27Z</time>
      </trkpt>
      <trkpt lat="45.75827" lon="6.52126">
        <ele>1662</ele>
        <time>2022-07-24T06:02:28Z</time>
      </trkpt>
      <trkpt lat="45.75826" lon="6.52127">
        <ele>1663</ele>
        <time>2022-07-24T06:02:29Z</time>
      </trkpt>
      <trkpt lat="45.75825" lon="6.52127">
        <ele>1663</ele>
        <time>2022-07-24T06:02:30Z</time>
      </trkpt>
      <trkpt lat="45.75824" lon="6.52128">
        <ele>1663</ele>
        <time>2022-07-24T06:02:31Z</time>
      </trkpt>
      <trkpt lat="45.75823" lon="6.52128">
        <ele>1663</ele>
        <time>2022-07-24T06:02:32Z</time>
      </trkpt>
      <trkpt lat="45.75822" lon="6.52129">
        <ele>1663</ele>
        <time>2022-07-24T06:02:33Z</time>
      </trkpt>
      <trkpt lat="45.75821" lon="6.5213">
        <ele>1664</ele>
        <time>2022-07-24T06:02:34Z</time>
      </trkpt>
      <trkpt lat="45.75819" lon="6.5213">
        <ele>1664</ele>
        <time>2022-07-24T06:02:35Z</time>
      </trkpt>
      <trkpt lat="45.75818" lon="6.52131">
        <ele>1664</ele>
        <time>2022-07-24T06:02:36Z</time>
      </trkpt>
      <trkpt lat="45.75817" lon="6.52132">
        <ele>1664</ele>
        <time>2022-07-24T06:02:37Z</time>
      </trkpt>
      <trkpt lat="45.75816" lon="6.52132">
        <ele>1664</ele>
        <time>2022-07-24T06:02:38Z</time>
      </trkpt>
      <trkpt lat="45.75815" lon="6.52133">
        <ele>1664</ele>
        <time>2022-07-24T06:02:39Z</time>
      </trkpt>
      <trkpt lat="45.75814" lon="6.52134">
        <ele>1664</ele>
        <time>2022-07-24T06:02:40Z</time>
      </trkpt>
      <trkpt lat="45.75813" lon="6.52135">
        <ele>1664</ele>
        <time>2022-07-24T06:02:41Z</time>
      </trkpt>
      <trkpt lat="45.75812" lon="6.52136">
        <ele>1664</ele>
        <time>2022-07-24T06:02:42Z</time>
      </trkpt>
      <trkpt lat="45.75811" lon="6.52137">
        <ele>1664</ele>
        <time>2022-07-24T06:02:43Z</time>
      </trkpt>
      <trkpt lat="45.7581" lon="6.52138">
        <ele>1664</ele>
        <time>2022-07-24T06:02:44Z</time>
      </trkpt>
      <trkpt lat="45.75809" lon="6.52139">
        <ele>1664</ele>
        <time>2022-07-24T06:02:45Z</time>
      </trkpt>
      <trkpt lat="45.75808" lon="6.5214">
        <ele>1664</ele>
        <time>2022-07-24T06:02:46Z</time>
      </trkpt>
      <trkpt lat="45.75808" lon="6.5214">
        <ele>1664</ele>
        <time>2022-07-24T06:02:47Z</time>
      </trkpt>
      <trkpt lat="45.75807" lon="6.52141">
        <ele>1664</ele>
        <time>2022-07-24T06:02:48Z</time>
      </trkpt>
      <trkpt lat="45.75806" lon="6.52142">
        <ele>1664</ele>
        <time>2022-07-24T06:02:49Z</time>
      </trkpt>
      <trkpt lat="45.75805" lon="6.52143">
        <ele>1663</ele>
        <time>2022-07-24T06:02:50Z</time>
      </trkpt>
      <trkpt lat="45.75804" lon="6.52144">
        <ele>1663</ele>
        <time>2022-07-24T06:02:51Z</time>
      </trkpt>
      <trkpt lat="45.75803" lon="6.52145">
        <ele>1663</ele>
        <time>2022-07-24T06:02:52Z</time>
      </trkpt>
      <trkpt lat="45.75803" lon="6.52146">
        <ele>1663</ele>
        <time>2022-07-24T06:02:53Z</time>
      </trkpt>
      <trkpt lat="45.75802" lon="6.52147">
        <ele>1663</ele>
        <time>2022-07-24T06:02:54Z</time>
      </trkpt>
      <trkpt lat="45.75801" lon="6.52149">
        <ele>1663</ele>
        <time>2022-07-24T06:02:55Z</time>
      </trkpt>
      <trkpt lat="45.758" lon="6.5215">
        <ele>1663</ele>
        <time>2022-07-24T06:02:56Z</time>
      </trkpt>
      <trkpt lat="45.758" lon="6.52151">
        <ele>1663</ele>
        <time>2022-07-24T06:02:57Z</time>
      </trkpt>
      <trkpt lat="45.75799" lon="6.52153">
        <ele>1663</ele>
        <time>2022-07-24T06:02:58Z</time>
      </trkpt>
      <trkpt lat="45.75798" lon="6.52154">
        <ele>1663</ele>
        <time>2022-07-24T06:02:59Z</time>
      </trkpt>
      <trkpt lat="45.75798" lon="6.52156">
        <ele>1662</ele>
        <time>2022-07-24T06:03:00Z</time>
      </trkpt>
      <trkpt lat="45.75797" lon="6.52157">
        <ele>1662</ele>
        <time>2022-07-24T06:03:01Z</time>
      </trkpt>
      <trkpt lat="45.75797" lon="6.52159">
        <ele>1661</ele>
        <time>2022-07-24T06:03:02Z</time>
      </trkpt>
      <trkpt lat="45.75796" lon="6.5216">
        <ele>1661</ele>
        <time>2022-07-24T06:03:03Z</time>
      </trkpt>
      <trkpt lat="45.75795" lon="6.52162">
        <ele>1661</ele>
        <time>2022-07-24T06:03:04Z</time>
      </trkpt>
      <trkpt lat="45.75795" lon="6.52163">
        <ele>1661</ele>
        <time>2022-07-24T06:03:05Z</time>
      </trkpt>
      <trkpt lat="45.75794" lon="6.52165">
        <ele>1661</ele>
        <time>2022-07-24T06:03:06Z</time>
      </trkpt>
      <trkpt lat="45.75793" lon="6.52166">
        <ele>1661</ele>
        <time>2022-07-24T06:03:07Z</time>
      </trkpt>
      <trkpt lat="45.75793" lon="6.52168">
        <ele>1661</ele>
        <time>2022-07-24T06:03:08Z</time>
      </trkpt>
      <trkpt lat="45.75792" lon="6.52169">
        <ele>1661</ele>
        <time>2022-07-24T06:03:09Z</time>
      </trkpt>
      <trkpt lat="45.75792" lon="6.52171">
        <ele>1661</ele>
        <time>2022-07-24T06:03:10Z</time>
      </trkpt>
      <trkpt lat="45.75792" lon="6.52172">
        <ele>1661</ele>
        <time>2022-07-24T06:03:11Z</time>
      </trkpt>
      <trkpt lat="45.75791" lon="6.52173">
        <ele>1661</ele>
        <time>2022-07-24T06:03:12Z</time>
      </trkpt>
      <trkpt lat="45.75791" lon="6.52175">
        <ele>1661</ele>
        <time>2022-07-24T06:03:13Z</time>
      </trkpt>
      <trkpt lat="45.75791" lon="6.52176">
        <ele>1661</ele>
        <time>2022-07-24T06:03:14Z</time>
      </trkpt>
      <trkpt lat="45.75791" lon="6.52178">
        <ele>1661</ele>
        <time>2022-07-24T06:03:15Z</time>
      </trkpt>
      <trkpt lat="45.75791" lon="6.52179">
        <ele>1661</ele>
        <time>2022-07-24T06:03:16Z</time>
      </trkpt>
      <trkpt lat="45.7579" lon="6.52181">
        <ele>1661</ele>
        <time>2022-07-24T06:03:17Z</time>
      </trkpt>
      <trkpt lat="45.7579" lon="6.52182">
        <ele>1661</ele>
        <time>2022-07-24T06:03:18Z</time>
      </trkpt>
      <trkpt lat="45.7579" lon="6.52183">
        <ele>1661</ele>
        <time>2022-07-24T06:03:19Z</time>
      </trkpt>
      <trkpt lat="45.75789" lon="6.52184">
        <ele>1661</ele>
        <time>2022-07-24T06:03:20Z</time>
      </trkpt>
      <trkpt lat="45.75789" lon="6.52185">
        <ele>1661</ele>
        <time>2022-07-24T06:03:21Z</time>
      </trkpt>
      <trkpt lat="45.75788" lon="6.52186">
        <ele>1661</ele>
        <time>2022-07-24T06:03:22Z</time>
      </trkpt>
      <trkpt lat="45.75788" lon="6.52188">
        <ele>1661</ele>
        <time>2022-07-24T06:03:23Z</time>
      </trkpt>
      <trkpt lat="45.75787" lon="6.52189">
        <ele>1661</ele>
        <time>2022-07-24T06:03:24Z</time>
      </trkpt>
      <trkpt lat="45.75787" lon="6.5219">
        <ele>1661</ele>
        <time>2022-07-24T06:03:25Z</time>
      </trkpt>
      <trkpt lat="45.75787" lon="6.52191">
        <ele>1661</ele>
        <time>2022-07-24T06:03:26Z</time>
      </trkpt>
      <trkpt lat="45.75786" lon="6.52192">
        <ele>1661</ele>
        <time>2022-07-24T06:03:27Z</time>
      </trkpt>
      <trkpt lat="45.75786" lon="6.52193">
        <ele>1661</ele>
        <time>2022-07-24T06:03:28Z</time>
      </trkpt>
      <trkpt lat="45.75786" lon="6.52195">
        <ele>1661</ele>
        <time>2022-07-24T06:03:29Z</time>
      </trkpt>
      <trkpt lat="45.75785" lon="6.52196">
        <ele>1661</ele>
        <time>2022-07-24T06:03:30Z</time>
      </trkpt>
      <trkpt lat="45.75785" lon="6.52198">
        <ele>1661</ele>
        <time>2022-07-24T06:03:31Z</time>
      </trkpt>
      <trkpt lat="45.75784" lon="6.52199">
        <ele>1661</ele>
        <time>2022-07-24T06:03:32Z</time>
      </trkpt>
      <trkpt lat="45.75784" lon="6.522">
        <ele>1661</ele>
        <time>2022-07-24T06:03:33Z</time>
      </trkpt>
      <trkpt lat="45.75784" lon="6.52201">
        <ele>1661</ele>
        <time>2022-07-24T06:03:34Z</time>
      </trkpt>
      <trkpt lat="45.75784" lon="6.52202">
        <ele>1661</ele>
        <time>2022-07-24T06:03:35Z</time>
      </trkpt>
      <trkpt lat="45.75784" lon="6.52202">
        <ele>1661</ele>
        <time>2022-07-24T06:03:36Z</time>
      </trkpt>
      <trkpt lat="45.75784" lon="6.52203">
        <ele>1661</ele>
        <time>2022-07-24T06:03:37Z</time>
      </trkpt>
      <trkpt lat="45.75784" lon="6.52203">
        <ele>1661</ele>
        <time>2022-07-24T06:03:38Z</time>
      </trkpt>
      <trkpt lat="45.75784" lon="6.52204">
        <ele>1661</ele>
        <time>2022-07-24T06:03:39Z</time>
      </trkpt>
      <trkpt lat="45.75784" lon="6.52204">
        <ele>1661</ele>
        <time>2022-07-24T06:03:40Z</time>
      </trkpt>
      <trkpt lat="45.75784" lon="6.52205">
        <ele>1661</ele>
        <time>2022-07-24T06:03:41Z</time>
      </trkpt>
      <trkpt lat="45.75784" lon="6.52206">
        <ele>1661</ele>
        <time>2022-07-24T06:03:42Z</time>
      </trkpt>
      <trkpt lat="45.75784" lon="6.52207">
        <ele>1661</ele>
        <time>2022-07-24T06:03:43Z</time>
      </trkpt>
      <trkpt lat="45.75784" lon="6.52208">
        <ele>1661</ele>
        <time>2022-07-24T06:03:44Z</time>
      </trkpt>
      <trkpt lat="45.75783" lon="6.52209">
        <ele>1660</ele>
        <time>2022-07-24T06:03:45Z</time>
      </trkpt>
      <trkpt lat="45.75783" lon="6.52211">
        <ele>1660</ele>
        <time>2022-07-24T06:03:46Z</time>
      </trkpt>
      <trkpt lat="45.75783" lon="6.52212">
        <ele>1660</ele>
        <time>2022-07-24T06:03:47Z</time>
      </trkpt>
      <trkpt lat="45.75782" lon="6.52214">
        <ele>1660</ele>
        <time>2022-07-24T06:03:48Z</time>
      </trkpt>
      <trkpt lat="45.75782" lon="6.52215">
        <ele>1660</ele>
        <time>2022-07-24T06:03:49Z</time>
      </trkpt>
      <trkpt lat="45.75782" lon="6.52217">
        <ele>1660</ele>
        <time>2022-07-24T06:03:50Z</time>
      </trkpt>
      <trkpt lat="45.75782" lon="6.52218">
        <ele>1660</ele>
        <time>2022-07-24T06:03:51Z</time>
      </trkpt>
      <trkpt lat="45.75782" lon="6.5222">
        <ele>1660</ele>
        <time>2022-07-24T06:03:52Z</time>
      </trkpt>
      <trkpt lat="45.75782" lon="6.52221">
        <ele>1660</ele>
        <time>2022-07-24T06:03:53Z</time>
      </trkpt>
      <trkpt lat="45.75782" lon="6.52223">
        <ele>1660</ele>
        <time>2022-07-24T06:03:54Z</time>
      </trkpt>
      <trkpt lat="45.75782" lon="6.52224">
        <ele>1660</ele>
        <time>2022-07-24T06:03:55Z</time>
      </trkpt>
      <trkpt lat="45.75782" lon="6.52226">
        <ele>1660</ele>
        <time>2022-07-24T06:03:56Z</time>
      </trkpt>
      <trkpt lat="45.75782" lon="6.52228">
        <ele>1660</ele>
        <time>2022-07-24T06:03:57Z</time>
      </trkpt>
      <trkpt lat="45.75782" lon="6.52229">
        <ele>1660</ele>
        <time>2022-07-24T06:03:58Z</time>
      </trkpt>
      <trkpt lat="45.75782" lon="6.52231">
        <ele>1660</ele>
        <time>2022-07-24T06:03:59Z</time>
      </trkpt>
      <trkpt lat="45.75782" lon="6.52233">
        <ele>1660</ele>
        <time>2022-07-24T06:04:00Z</time>
      </trkpt>
      <trkpt lat="45.75782" lon="6.52234">
        <ele>1660</ele>
        <time>2022-07-24T06:04:01Z</time>
      </trkpt>
      <trkpt lat="45.75781" lon="6.52236">
        <ele>1660</ele>
        <time>2022-07-24T06:04:02Z</time>
      </trkpt>
      <trkpt lat="45.75781" lon="6.52237">
        <ele>1660</ele>
        <time>2022-07-24T06:04:03Z</time>
      </trkpt>
      <trkpt lat="45.75781" lon="6.52239">
        <ele>1660</ele>
        <time>2022-07-24T06:04:04Z</time>
      </trkpt>
      <trkpt lat="45.75781" lon="6.52241">
        <ele>1660</ele>
        <time>2022-07-24T06:04:05Z</time>
      </trkpt>
      <trkpt lat="45.75781" lon="6.52243">
        <ele>1660</ele>
        <time>2022-07-24T06:04:06Z</time>
      </trkpt>
      <trkpt lat="45.75781" lon="6.52244">
        <ele>1660</ele>
        <time>2022-07-24T06:04:07Z</time>
      </trkpt>
      <trkpt lat="45.75781" lon="6.52246">
        <ele>1660</ele>
        <time>2022-07-24T06:04:08Z</time>
      </trkpt>
      <trkpt lat="45.7578" lon="6.52248">
        <ele>1660</ele>
        <time>2022-07-24T06:04:09Z</time>
      </trkpt>
      <trkpt lat="45.7578" lon="6.5225">
        <ele>1660</ele>
        <time>2022-07-24T06:04:10Z</time>
      </trkpt>
      <trkpt lat="45.7578" lon="6.52251">
        <ele>1660</ele>
        <time>2022-07-24T06:04:11Z</time>
      </trkpt>
      <trkpt lat="45.7578" lon="6.52253">
        <ele>1660</ele>
        <time>2022-07-24T06:04:12Z</time>
      </trkpt>
      <trkpt lat="45.7578" lon="6.52255">
        <ele>1660</ele>
        <time>2022-07-24T06:04:13Z</time>
      </trkpt>
      <trkpt lat="45.75781" lon="6.52256">
        <ele>1661</ele>
        <time>2022-07-24T06:04:14Z</time>
      </trkpt>
      <trkpt lat="45.75781" lon="6.52258">
        <ele>1661</ele>
        <time>2022-07-24T06:04:15Z</time>
      </trkpt>
      <trkpt lat="45.75781" lon="6.52259">
        <ele>1661</ele>
        <time>2022-07-24T06:04:16Z</time>
      </trkpt>
      <trkpt lat="45.75782" lon="6.52261">
        <ele>1661</ele>
        <time>2022-07-24T06:04:17Z</time>
      </trkpt>
      <trkpt lat="45.75782" lon="6.52262">
        <ele>1661</ele>
        <time>2022-07-24T06:04:18Z</time>
      </trkpt>
      <trkpt lat="45.75782" lon="6.52264">
        <ele>1661</ele>
        <time>2022-07-24T06:04:19Z</time>
      </trkpt>
      <trkpt lat="45.75783" lon="6.52265">
        <ele>1661</ele>
        <time>2022-07-24T06:04:20Z</time>
      </trkpt>
      <trkpt lat="45.75783" lon="6.52266">
        <ele>1661</ele>
        <time>2022-07-24T06:04:21Z</time>
      </trkpt>
      <trkpt lat="45.75784" lon="6.52267">
        <ele>1661</ele>
        <time>2022-07-24T06:04:22Z</time>
      </trkpt>
      <trkpt lat="45.75785" lon="6.52268">
        <ele>1661</ele>
        <time>2022-07-24T06:04:23Z</time>
      </trkpt>
      <trkpt lat="45.75786" lon="6.52269">
        <ele>1661</ele>
        <time>2022-07-24T06:04:24Z</time>
      </trkpt>
      <trkpt lat="45.75787" lon="6.5227">
        <ele>1661</ele>
        <time>2022-07-24T06:04:25Z</time>
      </trkpt>
      <trkpt lat="45.75787" lon="6.52272">
        <ele>1661</ele>
        <time>2022-07-24T06:04:26Z</time>
      </trkpt>
      <trkpt lat="45.75788" lon="6.52273">
        <ele>1661</ele>
        <time>2022-07-24T06:04:27Z</time>
      </trkpt>
      <trkpt lat="45.75789" lon="6.52275">
        <ele>1661</ele>
        <time>2022-07-24T06:04:28Z</time>
      </trkpt>
      <trkpt lat="45.75789" lon="6.52277">
        <ele>1661</ele>
        <time>2022-07-24T06:04:29Z</time>
      </trkpt>
      <trkpt lat="45.7579" lon="6.52278">
        <ele>1660</ele>
        <time>2022-07-24T06:04:30Z</time>
      </trkpt>
      <trkpt lat="45.7579" lon="6.5228">
        <ele>1660</ele>
        <time>2022-07-24T06:04:31Z</time>
      </trkpt>
      <trkpt lat="45.75791" lon="6.52282">
        <ele>1660</ele>
        <time>2022-07-24T06:04:32Z</time>
      </trkpt>
      <trkpt lat="45.75792" lon="6.52283">
        <ele>1660</ele>
        <time>2022-07-24T06:04:33Z</time>
      </trkpt>
      <trkpt lat="45.75792" lon="6.52285">
        <ele>1660</ele>
        <time>2022-07-24T06:04:34Z</time>
      </trkpt>
      <trkpt lat="45.75793" lon="6.52286">
        <ele>1660</ele>
        <time>2022-07-24T06:04:35Z</time>
      </trkpt>
      <trkpt lat="45.75794" lon="6.52288">
        <ele>1660</ele>
        <time>2022-07-24T06:04:36Z</time>
      </trkpt>
      <trkpt lat="45.75794" lon="6.5229">
        <ele>1660</ele>
        <time>2022-07-24T06:04:37Z</time>
      </trkpt>
      <trkpt lat="45.75795" lon="6.52291">
        <ele>1660</ele>
        <time>2022-07-24T06:04:38Z</time>
      </trkpt>
      <trkpt lat="45.75796" lon="6.52292">
        <ele>1660</ele>
        <time>2022-07-24T06:04:39Z</time>
      </trkpt>
      <trkpt lat="45.75796" lon="6.52293">
        <ele>1660</ele>
        <time>2022-07-24T06:04:40Z</time>
      </trkpt>
      <trkpt lat="45.75797" lon="6.52295">
        <ele>1660</ele>
        <time>2022-07-24T06:04:41Z</time>
      </trkpt>
      <trkpt lat="45.75798" lon="6.52296">
        <ele>1660</ele>
        <time>2022-07-24T06:04:42Z</time>
      </trkpt>
      <trkpt lat="45.75799" lon="6.52297">
        <ele>1660</ele>
        <time>2022-07-24T06:04:43Z</time>
      </trkpt>
      <trkpt lat="45.758" lon="6.52298">
        <ele>1660</ele>
        <time>2022-07-24T06:04:44Z</time>
      </trkpt>
      <trkpt lat="45.75801" lon="6.52299">
        <ele>1660</ele>
        <time>2022-07-24T06:04:45Z</time>
      </trkpt>
      <trkpt lat="45.75802" lon="6.52301">
        <ele>1660</ele>
        <time>2022-07-24T06:04:46Z</time>
      </trkpt>
      <trkpt lat="45.75803" lon="6.52302">
        <ele>1660</ele>
        <time>2022-07-24T06:04:47Z</time>
      </trkpt>
      <trkpt lat="45.75804" lon="6.52303">
        <ele>1660</ele>
        <time>2022-07-24T06:04:48Z</time>
      </trkpt>
      <trkpt lat="45.75804" lon="6.52305">
        <ele>1660</ele>
        <time>2022-07-24T06:04:49Z</time>
      </trkpt>
      <trkpt lat="45.75805" lon="6.52306">
        <ele>1660</ele>
        <time>2022-07-24T06:04:50Z</time>
      </trkpt>
      <trkpt lat="45.75806" lon="6.52308">
        <ele>1660</ele>
        <time>2022-07-24T06:04:51Z</time>
      </trkpt>
      <trkpt lat="45.75807" lon="6.52309">
        <ele>1660</ele>
        <time>2022-07-24T06:04:52Z</time>
      </trkpt>
      <trkpt lat="45.75807" lon="6.52311">
        <ele>1660</ele>
        <time>2022-07-24T06:04:53Z</time>
      </trkpt>
      <trkpt lat="45.75808" lon="6.52313">
        <ele>1660</ele>
        <time>2022-07-24T06:04:54Z</time>
      </trkpt>
      <trkpt lat="45.75809" lon="6.52314">
        <ele>1659</ele>
        <time>2022-07-24T06:04:55Z</time>
      </trkpt>
      <trkpt lat="45.75809" lon="6.52316">
        <ele>1659</ele>
        <time>2022-07-24T06:04:56Z</time>
      </trkpt>
      <trkpt lat="45.7581" lon="6.52317">
        <ele>1659</ele>
        <time>2022-07-24T06:04:57Z</time>
      </trkpt>
      <trkpt lat="45.75811" lon="6.52318">
        <ele>1659</ele>
        <time>2022-07-24T06:04:58Z</time>
      </trkpt>
      <trkpt lat="45.75812" lon="6.5232">
        <ele>1659</ele>
        <time>2022-07-24T06:04:59Z</time>
      </trkpt>
      <trkpt lat="45.75813" lon="6.52321">
        <ele>1659</ele>
        <time>2022-07-24T06:05:00Z</time>
      </trkpt>
      <trkpt lat="45.75814" lon="6.52322">
        <ele>1659</ele>
        <time>2022-07-24T06:05:01Z</time>
      </trkpt>
      <trkpt lat="45.75815" lon="6.52324">
        <ele>1659</ele>
        <time>2022-07-24T06:05:02Z</time>
      </trkpt>
      <trkpt lat="45.75816" lon="6.52325">
        <ele>1659</ele>
        <time>2022-07-24T06:05:03Z</time>
      </trkpt>
      <trkpt lat="45.75816" lon="6.52327">
        <ele>1659</ele>
        <time>2022-07-24T06:05:04Z</time>
      </trkpt>
      <trkpt lat="45.75817" lon="6.52328">
        <ele>1659</ele>
        <time>2022-07-24T06:05:05Z</time>
      </trkpt>
      <trkpt lat="45.75818" lon="6.5233">
        <ele>1659</ele>
        <time>2022-07-24T06:05:06Z</time>
      </trkpt>
      <trkpt lat="45.75819" lon="6.52332">
        <ele>1659</ele>
        <time>2022-07-24T06:05:07Z</time>
      </trkpt>
      <trkpt lat="45.7582" lon="6.52333">
        <ele>1659</ele>
        <time>2022-07-24T06:05:08Z</time>
      </trkpt>
      <trkpt lat="45.7582" lon="6.52334">
        <ele>1659</ele>
        <time>2022-07-24T06:05:09Z</time>
      </trkpt>
      <trkpt lat="45.75821" lon="6.52336">
        <ele>1658</ele>
        <time>2022-07-24T06:05:10Z</time>
      </trkpt>
      <trkpt lat="45.75821" lon="6.52337">
        <ele>1658</ele>
        <time>2022-07-24T06:05:11Z</time>
      </trkpt>
      <trkpt lat="45.75822" lon="6.52338">
        <ele>1658</ele>
        <time>2022-07-24T06:05:12Z</time>
      </trkpt>
      <trkpt lat="45.75823" lon="6.52339">
        <ele>1658</ele>
        <time>2022-07-24T06:05:13Z</time>
      </trkpt>
      <trkpt lat="45.75824" lon="6.52341">
        <ele>1658</ele>
        <time>2022-07-24T06:05:14Z</time>
      </trkpt>
      <trkpt lat="45.75824" lon="6.52342">
        <ele>1658</ele>
        <time>2022-07-24T06:05:15Z</time>
      </trkpt>
      <trkpt lat="45.75825" lon="6.52344">
        <ele>1658</ele>
        <time>2022-07-24T06:05:16Z</time>
      </trkpt>
      <trkpt lat="45.75826" lon="6.52345">
        <ele>1658</ele>
        <time>2022-07-24T06:05:17Z</time>
      </trkpt>
      <trkpt lat="45.75827" lon="6.52347">
        <ele>1658</ele>
        <time>2022-07-24T06:05:18Z</time>
      </trkpt>
      <trkpt lat="45.75827" lon="6.52348">
        <ele>1658</ele>
        <time>2022-07-24T06:05:19Z</time>
      </trkpt>
      <trkpt lat="45.75828" lon="6.52349">
        <ele>1658</ele>
        <time>2022-07-24T06:05:20Z</time>
      </trkpt>
      <trkpt lat="45.75828" lon="6.52351">
        <ele>1658</ele>
        <time>2022-07-24T06:05:21Z</time>
      </trkpt>
      <trkpt lat="45.75829" lon="6.52352">
        <ele>1658</ele>
        <time>2022-07-24T06:05:22Z</time>
      </trkpt>
      <trkpt lat="45.75829" lon="6.52354">
        <ele>1658</ele>
        <time>2022-07-24T06:05:23Z</time>
      </trkpt>
      <trkpt lat="45.7583" lon="6.52355">
        <ele>1658</ele>
        <time>2022-07-24T06:05:24Z</time>
      </trkpt>
      <trkpt lat="45.75831" lon="6.52356">
        <ele>1658</ele>
        <time>2022-07-24T06:05:25Z</time>
      </trkpt>
      <trkpt lat="45.75831" lon="6.52357">
        <ele>1658</ele>
        <time>2022-07-24T06:05:26Z</time>
      </trkpt>
      <trkpt lat="45.75832" lon="6.52359">
        <ele>1658</ele>
        <time>2022-07-24T06:05:27Z</time>
      </trkpt>
      <trkpt lat="45.75832" lon="6.5236">
        <ele>1658</ele>
        <time>2022-07-24T06:05:28Z</time>
      </trkpt>
      <trkpt lat="45.75833" lon="6.52361">
        <ele>1658</ele>
        <time>2022-07-24T06:05:29Z</time>
      </trkpt>
      <trkpt lat="45.75833" lon="6.52362">
        <ele>1658</ele>
        <time>2022-07-24T06:05:30Z</time>
      </trkpt>
      <trkpt lat="45.75834" lon="6.52364">
        <ele>1658</ele>
        <time>2022-07-24T06:05:31Z</time>
      </trkpt>
      <trkpt lat="45.75834" lon="6.52365">
        <ele>1658</ele>
        <time>2022-07-24T06:05:32Z</time>
      </trkpt>
      <trkpt lat="45.75835" lon="6.52367">
        <ele>1658</ele>
        <time>2022-07-24T06:05:33Z</time>
      </trkpt>
      <trkpt lat="45.75835" lon="6.52368">
        <ele>1658</ele>
        <time>2022-07-24T06:05:34Z</time>
      </trkpt>
      <trkpt lat="45.75836" lon="6.5237">
        <ele>1658</ele>
        <time>2022-07-24T06:05:35Z</time>
      </trkpt>
      <trkpt lat="45.75836" lon="6.52371">
        <ele>1658</ele>
        <time>2022-07-24T06:05:36Z</time>
      </trkpt>
      <trkpt lat="45.75836" lon="6.52373">
        <ele>1658</ele>
        <time>2022-07-24T06:05:37Z</time>
      </trkpt>
      <trkpt lat="45.75837" lon="6.52374">
        <ele>1658</ele>
        <time>2022-07-24T06:05:38Z</time>
      </trkpt>
      <trkpt lat="45.75837" lon="6.52375">
        <ele>1658</ele>
        <time>2022-07-24T06:05:39Z</time>
      </trkpt>
      <trkpt lat="45.75838" lon="6.52377">
        <ele>1658</ele>
        <time>2022-07-24T06:05:40Z</time>
      </trkpt>
      <trkpt lat="45.75838" lon="6.52378">
        <ele>1658</ele>
        <time>2022-07-24T06:05:41Z</time>
      </trkpt>
      <trkpt lat="45.75839" lon="6.5238">
        <ele>1658</ele>
        <time>2022-07-24T06:05:42Z</time>
      </trkpt>
      <trkpt lat="45.75839" lon="6.52381">
        <ele>1658</ele>
        <time>2022-07-24T06:05:43Z</time>
      </trkpt>
      <trkpt lat="45.7584" lon="6.52383">
        <ele>1658</ele>
        <time>2022-07-24T06:05:44Z</time>
      </trkpt>
      <trkpt lat="45.7584" lon="6.52384">
        <ele>1658</ele>
        <time>2022-07-24T06:05:45Z</time>
      </trkpt>
      <trkpt lat="45.75841" lon="6.52386">
        <ele>1658</ele>
        <time>2022-07-24T06:05:46Z</time>
      </trkpt>
      <trkpt lat="45.75841" lon="6.52388">
        <ele>1658</ele>
        <time>2022-07-24T06:05:47Z</time>
      </trkpt>
      <trkpt lat="45.75842" lon="6.5239">
        <ele>1658</ele>
        <time>2022-07-24T06:05:48Z</time>
      </trkpt>
      <trkpt lat="45.75842" lon="6.52391">
        <ele>1658</ele>
        <time>2022-07-24T06:05:49Z</time>
      </trkpt>
      <trkpt lat="45.75842" lon="6.52393">
        <ele>1657</ele>
        <time>2022-07-24T06:05:50Z</time>
      </trkpt>
      <trkpt lat="45.75842" lon="6.52395">
        <ele>1657</ele>
        <time>2022-07-24T06:05:51Z</time>
      </trkpt>
      <trkpt lat="45.75843" lon="6.52397">
        <ele>1657</ele>
        <time>2022-07-24T06:05:52Z</time>
      </trkpt>
      <trkpt lat="45.75843" lon="6.52398">
        <ele>1657</ele>
        <time>2022-07-24T06:05:53Z</time>
      </trkpt>
      <trkpt lat="45.75843" lon="6.524">
        <ele>1657</ele>
        <time>2022-07-24T06:05:54Z</time>
      </trkpt>
      <trkpt lat="45.75844" lon="6.52402">
        <ele>1657</ele>
        <time>2022-07-24T06:05:55Z</time>
      </trkpt>
      <trkpt lat="45.75844" lon="6.52404">
        <ele>1657</ele>
        <time>2022-07-24T06:05:56Z</time>
      </trkpt>
      <trkpt lat="45.75845" lon="6.52406">
        <ele>1657</ele>
        <time>2022-07-24T06:05:57Z</time>
      </trkpt>
      <trkpt lat="45.75845" lon="6.52408">
        <ele>1657</ele>
        <time>2022-07-24T06:05:58Z</time>
      </trkpt>
      <trkpt lat="45.75845" lon="6.52409">
        <ele>1657</ele>
        <time>2022-07-24T06:05:59Z</time>
      </trkpt>
      <trkpt lat="45.75846" lon="6.52411">
        <ele>1657</ele>
        <time>2022-07-24T06:06:00Z</time>
      </trkpt>
      <trkpt lat="45.75846" lon="6.52413">
        <ele>1657</ele>
        <time>2022-07-24T06:06:01Z</time>
      </trkpt>
      <trkpt lat="45.75846" lon="6.52414">
        <ele>1657</ele>
        <time>2022-07-24T06:06:02Z</time>
      </trkpt>
      <trkpt lat="45.75847" lon="6.52416">
        <ele>1657</ele>
        <time>2022-07-24T06:06:03Z</time>
      </trkpt>
      <trkpt lat="45.75847" lon="6.52418">
        <ele>1657</ele>
        <time>2022-07-24T06:06:04Z</time>
      </trkpt>
      <trkpt lat="45.75847" lon="6.52419">
        <ele>1656</ele>
        <time>2022-07-24T06:06:05Z</time>
      </trkpt>
      <trkpt lat="45.75847" lon="6.52421">
        <ele>1656</ele>
        <time>2022-07-24T06:06:06Z</time>
      </trkpt>
      <trkpt lat="45.75847" lon="6.52423">
        <ele>1656</ele>
        <time>2022-07-24T06:06:07Z</time>
      </trkpt>
      <trkpt lat="45.75847" lon="6.52424">
        <ele>1656</ele>
        <time>2022-07-24T06:06:08Z</time>
      </trkpt>
      <trkpt lat="45.75847" lon="6.52426">
        <ele>1656</ele>
        <time>2022-07-24T06:06:09Z</time>
      </trkpt>
      <trkpt lat="45.75847" lon="6.52427">
        <ele>1656</ele>
        <time>2022-07-24T06:06:10Z</time>
      </trkpt>
      <trkpt lat="45.75848" lon="6.52428">
        <ele>1656</ele>
        <time>2022-07-24T06:06:11Z</time>
      </trkpt>
      <trkpt lat="45.75848" lon="6.5243">
        <ele>1656</ele>
        <time>2022-07-24T06:06:12Z</time>
      </trkpt>
      <trkpt lat="45.75849" lon="6.52431">
        <ele>1656</ele>
        <time>2022-07-24T06:06:13Z</time>
      </trkpt>
      <trkpt lat="45.75849" lon="6.52432">
        <ele>1656</ele>
        <time>2022-07-24T06:06:14Z</time>
      </trkpt>
      <trkpt lat="45.75849" lon="6.52434">
        <ele>1656</ele>
        <time>2022-07-24T06:06:15Z</time>
      </trkpt>
      <trkpt lat="45.7585" lon="6.52435">
        <ele>1656</ele>
        <time>2022-07-24T06:06:16Z</time>
      </trkpt>
      <trkpt lat="45.7585" lon="6.52437">
        <ele>1656</ele>
        <time>2022-07-24T06:06:17Z</time>
      </trkpt>
      <trkpt lat="45.7585" lon="6.52438">
        <ele>1656</ele>
        <time>2022-07-24T06:06:18Z</time>
      </trkpt>
      <trkpt lat="45.75851" lon="6.5244">
        <ele>1656</ele>
        <time>2022-07-24T06:06:19Z</time>
      </trkpt>
      <trkpt lat="45.75851" lon="6.52441">
        <ele>1656</ele>
        <time>2022-07-24T06:06:20Z</time>
      </trkpt>
      <trkpt lat="45.75851" lon="6.52443">
        <ele>1656</ele>
        <time>2022-07-24T06:06:21Z</time>
      </trkpt>
      <trkpt lat="45.75852" lon="6.52445">
        <ele>1656</ele>
        <time>2022-07-24T06:06:22Z</time>
      </trkpt>
      <trkpt lat="45.75852" lon="6.52446">
        <ele>1656</ele>
        <time>2022-07-24T06:06:23Z</time>
      </trkpt>
      <trkpt lat="45.75852" lon="6.52448">
        <ele>1656</ele>
        <time>2022-07-24T06:06:24Z</time>
      </trkpt>
      <trkpt lat="45.75852" lon="6.5245">
        <ele>1656</ele>
        <time>2022-07-24T06:06:25Z</time>
      </trkpt>
      <trkpt lat="45.75853" lon="6.52452">
        <ele>1656</ele>
        <time>2022-07-24T06:06:26Z</time>
      </trkpt>
      <trkpt lat="45.75853" lon="6.52453">
        <ele>1656</ele>
        <time>2022-07-24T06:06:27Z</time>
      </trkpt>
      <trkpt lat="45.75853" lon="6.52455">
        <ele>1656</ele>
        <time>2022-07-24T06:06:28Z</time>
      </trkpt>
      <trkpt lat="45.75854" lon="6.52457">
        <ele>1657</ele>
        <time>2022-07-24T06:06:29Z</time>
      </trkpt>
      <trkpt lat="45.75854" lon="6.52458">
        <ele>1656</ele>
        <time>2022-07-24T06:06:30Z</time>
      </trkpt>
      <trkpt lat="45.75854" lon="6.5246">
        <ele>1656</ele>
        <time>2022-07-24T06:06:31Z</time>
      </trkpt>
      <trkpt lat="45.75855" lon="6.52461">
        <ele>1656</ele>
        <time>2022-07-24T06:06:32Z</time>
      </trkpt>
      <trkpt lat="45.75855" lon="6.52463">
        <ele>1656</ele>
        <time>2022-07-24T06:06:33Z</time>
      </trkpt>
      <trkpt lat="45.75855" lon="6.52464">
        <ele>1656</ele>
        <time>2022-07-24T06:06:34Z</time>
      </trkpt>
      <trkpt lat="45.75855" lon="6.52466">
        <ele>1656</ele>
        <time>2022-07-24T06:06:35Z</time>
      </trkpt>
      <trkpt lat="45.75856" lon="6.52467">
        <ele>1656</ele>
        <time>2022-07-24T06:06:36Z</time>
      </trkpt>
      <trkpt lat="45.75856" lon="6.52469">
        <ele>1656</ele>
        <time>2022-07-24T06:06:37Z</time>
      </trkpt>
      <trkpt lat="45.75856" lon="6.52471">
        <ele>1656</ele>
        <time>2022-07-24T06:06:38Z</time>
      </trkpt>
      <trkpt lat="45.75856" lon="6.52472">
        <ele>1656</ele>
        <time>2022-07-24T06:06:39Z</time>
      </trkpt>
      <trkpt lat="45.75856" lon="6.52474">
        <ele>1656</ele>
        <time>2022-07-24T06:06:40Z</time>
      </trkpt>
      <trkpt lat="45.75857" lon="6.52475">
        <ele>1656</ele>
        <time>2022-07-24T06:06:41Z</time>
      </trkpt>
      <trkpt lat="45.75857" lon="6.52477">
        <ele>1656</ele>
        <time>2022-07-24T06:06:42Z</time>
      </trkpt>
      <trkpt lat="45.75857" lon="6.52478">
        <ele>1656</ele>
        <time>2022-07-24T06:06:43Z</time>
      </trkpt>
      <trkpt lat="45.75856" lon="6.52479">
        <ele>1656</ele>
        <time>2022-07-24T06:06:44Z</time>
      </trkpt>
      <trkpt lat="45.75856" lon="6.52481">
        <ele>1656</ele>
        <time>2022-07-24T06:06:45Z</time>
      </trkpt>
      <trkpt lat="45.75856" lon="6.52482">
        <ele>1656</ele>
        <time>2022-07-24T06:06:46Z</time>
      </trkpt>
      <trkpt lat="45.75855" lon="6.52484">
        <ele>1656</ele>
        <time>2022-07-24T06:06:47Z</time>
      </trkpt>
      <trkpt lat="45.75855" lon="6.52485">
        <ele>1656</ele>
        <time>2022-07-24T06:06:48Z</time>
      </trkpt>
      <trkpt lat="45.75855" lon="6.52486">
        <ele>1656</ele>
        <time>2022-07-24T06:06:49Z</time>
      </trkpt>
      <trkpt lat="45.75855" lon="6.52488">
        <ele>1655</ele>
        <time>2022-07-24T06:06:50Z</time>
      </trkpt>
      <trkpt lat="45.75854" lon="6.52489">
        <ele>1655</ele>
        <time>2022-07-24T06:06:51Z</time>
      </trkpt>
      <trkpt lat="45.75854" lon="6.52491">
        <ele>1655</ele>
        <time>2022-07-24T06:06:52Z</time>
      </trkpt>
      <trkpt lat="45.75854" lon="6.52492">
        <ele>1655</ele>
        <time>2022-07-24T06:06:53Z</time>
      </trkpt>
      <trkpt lat="45.75853" lon="6.52494">
        <ele>1655</ele>
        <time>2022-07-24T06:06:54Z</time>
      </trkpt>
      <trkpt lat="45.75853" lon="6.52496">
        <ele>1655</ele>
        <time>2022-07-24T06:06:55Z</time>
      </trkpt>
      <trkpt lat="45.75853" lon="6.52499">
        <ele>1655</ele>
        <time>2022-07-24T06:06:56Z</time>
      </trkpt>
      <trkpt lat="45.75852" lon="6.52501">
        <ele>1655</ele>
        <time>2022-07-24T06:06:57Z</time>
      </trkpt>
      <trkpt lat="45.75852" lon="6.52503">
        <ele>1655</ele>
        <time>2022-07-24T06:06:58Z</time>
      </trkpt>
      <trkpt lat="45.75852" lon="6.52505">
        <ele>1655</ele>
        <time>2022-07-24T06:06:59Z</time>
      </trkpt>
      <trkpt lat="45.75852" lon="6.52506">
        <ele>1655</ele>
        <time>2022-07-24T06:07:00Z</time>
      </trkpt>
      <trkpt lat="45.75852" lon="6.52508">
        <ele>1655</ele>
        <time>2022-07-24T06:07:01Z</time>
      </trkpt>
      <trkpt lat="45.75852" lon="6.5251">
        <ele>1655</ele>
        <time>2022-07-24T06:07:02Z</time>
      </trkpt>
      <trkpt lat="45.75852" lon="6.52512">
        <ele>1655</ele>
        <time>2022-07-24T06:07:03Z</time>
      </trkpt>
      <trkpt lat="45.75852" lon="6.52514">
        <ele>1655</ele>
        <time>2022-07-24T06:07:04Z</time>
      </trkpt>
      <trkpt lat="45.75852" lon="6.52516">
        <ele>1655</ele>
        <time>2022-07-24T06:07:05Z</time>
      </trkpt>
      <trkpt lat="45.75852" lon="6.52517">
        <ele>1655</ele>
        <time>2022-07-24T06:07:06Z</time>
      </trkpt>
      <trkpt lat="45.75852" lon="6.52519">
        <ele>1655</ele>
        <time>2022-07-24T06:07:07Z</time>
      </trkpt>
      <trkpt lat="45.75852" lon="6.5252">
        <ele>1655</ele>
        <time>2022-07-24T06:07:08Z</time>
      </trkpt>
      <trkpt lat="45.75852" lon="6.52522">
        <ele>1655</ele>
        <time>2022-07-24T06:07:09Z</time>
      </trkpt>
      <trkpt lat="45.75851" lon="6.52524">
        <ele>1654</ele>
        <time>2022-07-24T06:07:10Z</time>
      </trkpt>
      <trkpt lat="45.75851" lon="6.52525">
        <ele>1654</ele>
        <time>2022-07-24T06:07:11Z</time>
      </trkpt>
      <trkpt lat="45.75851" lon="6.52527">
        <ele>1654</ele>
        <time>2022-07-24T06:07:12Z</time>
      </trkpt>
      <trkpt lat="45.75851" lon="6.52528">
        <ele>1654</ele>
        <time>2022-07-24T06:07:13Z</time>
      </trkpt>
      <trkpt lat="45.7585" lon="6.5253">
        <ele>1654</ele>
        <time>2022-07-24T06:07:14Z</time>
      </trkpt>
      <trkpt lat="45.7585" lon="6.52532">
        <ele>1654</ele>
        <time>2022-07-24T06:07:15Z</time>
      </trkpt>
      <trkpt lat="45.7585" lon="6.52533">
        <ele>1654</ele>
        <time>2022-07-24T06:07:16Z</time>
      </trkpt>
      <trkpt lat="45.7585" lon="6.52535">
        <ele>1654</ele>
        <time>2022-07-24T06:07:17Z</time>
      </trkpt>
      <trkpt lat="45.75849" lon="6.52536">
        <ele>1654</ele>
        <time>2022-07-24T06:07:18Z</time>
      </trkpt>
      <trkpt lat="45.75849" lon="6.52538">
        <ele>1655</ele>
        <time>2022-07-24T06:07:19Z</time>
      </trkpt>
      <trkpt lat="45.75849" lon="6.5254">
        <ele>1654</ele>
        <time>2022-07-24T06:07:20Z</time>
      </trkpt>
      <trkpt lat="45.75849" lon="6.52541">
        <ele>1654</ele>
        <time>2022-07-24T06:07:21Z</time>
      </trkpt>
      <trkpt lat="45.75849" lon="6.52543">
        <ele>1654</ele>
        <time>2022-07-24T06:07:22Z</time>
      </trkpt>
      <trkpt lat="45.75849" lon="6.52545">
        <ele>1654</ele>
        <time>2022-07-24T06:07:23Z</time>
      </trkpt>
      <trkpt lat="45.75849" lon="6.52546">
        <ele>1654</ele>
        <time>2022-07-24T06:07:24Z</time>
      </trkpt>
      <trkpt lat="45.75848" lon="6.52548">
        <ele>1654</ele>
        <time>2022-07-24T06:07:25Z</time>
      </trkpt>
      <trkpt lat="45.75848" lon="6.5255">
        <ele>1654</ele>
        <time>2022-07-24T06:07:26Z</time>
      </trkpt>
      <trkpt lat="45.75848" lon="6.52551">
        <ele>1654</ele>
        <time>2022-07-24T06:07:27Z</time>
      </trkpt>
      <trkpt lat="45.75848" lon="6.52553">
        <ele>1654</ele>
        <time>2022-07-24T06:07:28Z</time>
      </trkpt>
      <trkpt lat="45.75847" lon="6.52554">
        <ele>1654</ele>
        <time>2022-07-24T06:07:29Z</time>
      </trkpt>
      <trkpt lat="45.75847" lon="6.52556">
        <ele>1654</ele>
        <time>2022-07-24T06:07:30Z</time>
      </trkpt>
      <trkpt lat="45.75847" lon="6.52557">
        <ele>1654</ele>
        <time>2022-07-24T06:07:31Z</time>
      </trkpt>
      <trkpt lat="45.75847" lon="6.52559">
        <ele>1654</ele>
        <time>2022-07-24T06:07:32Z</time>
      </trkpt>
      <trkpt lat="45.75846" lon="6.5256">
        <ele>1654</ele>
        <time>2022-07-24T06:07:33Z</time>
      </trkpt>
      <trkpt lat="45.75846" lon="6.52562">
        <ele>1654</ele>
        <time>2022-07-24T06:07:34Z</time>
      </trkpt>
      <trkpt lat="45.75846" lon="6.52564">
        <ele>1654</ele>
        <time>2022-07-24T06:07:35Z</time>
      </trkpt>
      <trkpt lat="45.75846" lon="6.52565">
        <ele>1654</ele>
        <time>2022-07-24T06:07:36Z</time>
      </trkpt>
      <trkpt lat="45.75845" lon="6.52567">
        <ele>1654</ele>
        <time>2022-07-24T06:07:37Z</time>
      </trkpt>
      <trkpt lat="45.75845" lon="6.52569">
        <ele>1654</ele>
        <time>2022-07-24T06:07:38Z</time>
      </trkpt>
      <trkpt lat="45.75845" lon="6.5257">
        <ele>1654</ele>
        <time>2022-07-24T06:07:39Z</time>
      </trkpt>
      <trkpt lat="45.75844" lon="6.52572">
        <ele>1653</ele>
        <time>2022-07-24T06:07:40Z</time>
      </trkpt>
      <trkpt lat="45.75844" lon="6.52574">
        <ele>1653</ele>
        <time>2022-07-24T06:07:41Z</time>
      </trkpt>
      <trkpt lat="45.75844" lon="6.52576">
        <ele>1653</ele>
        <time>2022-07-24T06:07:42Z</time>
      </trkpt>
      <trkpt lat="45.75844" lon="6.52578">
        <ele>1653</ele>
        <time>2022-07-24T06:07:43Z</time>
      </trkpt>
      <trkpt lat="45.75844" lon="6.5258">
        <ele>1653</ele>
        <time>2022-07-24T06:07:44Z</time>
      </trkpt>
      <trkpt lat="45.75843" lon="6.52582">
        <ele>1653</ele>
        <time>2022-07-24T06:07:45Z</time>
      </trkpt>
      <trkpt lat="45.75843" lon="6.52583">
        <ele>1653</ele>
        <time>2022-07-24T06:07:46Z</time>
      </trkpt>
      <trkpt lat="45.75843" lon="6.52585">
        <ele>1653</ele>
        <time>2022-07-24T06:07:47Z</time>
      </trkpt>
      <trkpt lat="45.75843" lon="6.52587">
        <ele>1653</ele>
        <time>2022-07-24T06:07:48Z</time>
      </trkpt>
      <trkpt lat="45.75843" lon="6.52589">
        <ele>1653</ele>
        <time>2022-07-24T06:07:49Z</time>
      </trkpt>
      <trkpt lat="45.75843" lon="6.52589">
        <ele>1653</ele>
        <time>2022-07-24T06:07:50Z</time>
      </trkpt>
      <trkpt lat="45.75843" lon="6.5259">
        <ele>1653</ele>
        <time>2022-07-24T06:07:51Z</time>
      </trkpt>
      <trkpt lat="45.75843" lon="6.52591">
        <ele>1653</ele>
        <time>2022-07-24T06:07:52Z</time>
      </trkpt>
      <trkpt lat="45.75843" lon="6.52591">
        <ele>1653</ele>
        <time>2022-07-24T06:07:53Z</time>
      </trkpt>
      <trkpt lat="45.75843" lon="6.52592">
        <ele>1653</ele>
        <time>2022-07-24T06:07:54Z</time>
      </trkpt>
      <trkpt lat="45.75843" lon="6.52593">
        <ele>1653</ele>
        <time>2022-07-24T06:07:55Z</time>
      </trkpt>
      <trkpt lat="45.75843" lon="6.52594">
        <ele>1653</ele>
        <time>2022-07-24T06:07:56Z</time>
      </trkpt>
      <trkpt lat="45.75843" lon="6.52595">
        <ele>1653</ele>
        <time>2022-07-24T06:07:57Z</time>
      </trkpt>
      <trkpt lat="45.75843" lon="6.52596">
        <ele>1653</ele>
        <time>2022-07-24T06:07:58Z</time>
      </trkpt>
      <trkpt lat="45.75843" lon="6.52597">
        <ele>1653</ele>
        <time>2022-07-24T06:07:59Z</time>
      </trkpt>
      <trkpt lat="45.75843" lon="6.52598">
        <ele>1653</ele>
        <time>2022-07-24T06:08:00Z</time>
      </trkpt>
      <trkpt lat="45.75842" lon="6.526">
        <ele>1653</ele>
        <time>2022-07-24T06:08:01Z</time>
      </trkpt>
      <trkpt lat="45.75842" lon="6.52601">
        <ele>1652</ele>
        <time>2022-07-24T06:08:19Z</time>
      </trkpt>
      <trkpt lat="45.75842" lon="6.52602">
        <ele>1652</ele>
        <time>2022-07-24T06:08:20Z</time>
      </trkpt>
      <trkpt lat="45.75842" lon="6.52603">
        <ele>1652</ele>
        <time>2022-07-24T06:08:21Z</time>
      </trkpt>
      <trkpt lat="45.75842" lon="6.52604">
        <ele>1652</ele>
        <time>2022-07-24T06:08:22Z</time>
      </trkpt>
      <trkpt lat="45.75842" lon="6.52605">
        <ele>1652</ele>
        <time>2022-07-24T06:08:23Z</time>
      </trkpt>
      <trkpt lat="45.75842" lon="6.52607">
        <ele>1652</ele>
        <time>2022-07-24T06:08:24Z</time>
      </trkpt>
      <trkpt lat="45.75842" lon="6.52609">
        <ele>1651</ele>
        <time>2022-07-24T06:08:25Z</time>
      </trkpt>
      <trkpt lat="45.75841" lon="6.52611">
        <ele>1651</ele>
        <time>2022-07-24T06:08:26Z</time>
      </trkpt>
      <trkpt lat="45.75841" lon="6.52613">
        <ele>1651</ele>
        <time>2022-07-24T06:08:27Z</time>
      </trkpt>
      <trkpt lat="45.75841" lon="6.52615">
        <ele>1651</ele>
        <time>2022-07-24T06:08:28Z</time>
      </trkpt>
      <trkpt lat="45.75841" lon="6.52617">
        <ele>1651</ele>
        <time>2022-07-24T06:08:29Z</time>
      </trkpt>
      <trkpt lat="45.7584" lon="6.52619">
        <ele>1651</ele>
        <time>2022-07-24T06:08:30Z</time>
      </trkpt>
      <trkpt lat="45.7584" lon="6.52621">
        <ele>1651</ele>
        <time>2022-07-24T06:08:31Z</time>
      </trkpt>
      <trkpt lat="45.7584" lon="6.52623">
        <ele>1651</ele>
        <time>2022-07-24T06:08:32Z</time>
      </trkpt>
      <trkpt lat="45.75839" lon="6.52625">
        <ele>1651</ele>
        <time>2022-07-24T06:08:33Z</time>
      </trkpt>
      <trkpt lat="45.75839" lon="6.52626">
        <ele>1651</ele>
        <time>2022-07-24T06:08:34Z</time>
      </trkpt>
      <trkpt lat="45.75839" lon="6.52628">
        <ele>1650</ele>
        <time>2022-07-24T06:08:35Z</time>
      </trkpt>
      <trkpt lat="45.75838" lon="6.5263">
        <ele>1650</ele>
        <time>2022-07-24T06:08:36Z</time>
      </trkpt>
      <trkpt lat="45.75838" lon="6.52632">
        <ele>1650</ele>
        <time>2022-07-24T06:08:37Z</time>
      </trkpt>
      <trkpt lat="45.75838" lon="6.52633">
        <ele>1650</ele>
        <time>2022-07-24T06:08:38Z</time>
      </trkpt>
      <trkpt lat="45.75838" lon="6.52635">
        <ele>1650</ele>
        <time>2022-07-24T06:08:39Z</time>
      </trkpt>
      <trkpt lat="45.75838" lon="6.52637">
        <ele>1650</ele>
        <time>2022-07-24T06:08:40Z</time>
      </trkpt>
      <trkpt lat="45.75838" lon="6.52638">
        <ele>1650</ele>
        <time>2022-07-24T06:08:41Z</time>
      </trkpt>
      <trkpt lat="45.75838" lon="6.5264">
        <ele>1650</ele>
        <time>2022-07-24T06:08:42Z</time>
      </trkpt>
      <trkpt lat="45.75837" lon="6.52642">
        <ele>1650</ele>
        <time>2022-07-24T06:08:43Z</time>
      </trkpt>
      <trkpt lat="45.75837" lon="6.52643">
        <ele>1650</ele>
        <time>2022-07-24T06:08:44Z</time>
      </trkpt>
      <trkpt lat="45.75837" lon="6.52645">
        <ele>1650</ele>
        <time>2022-07-24T06:08:45Z</time>
      </trkpt>
      <trkpt lat="45.75837" lon="6.52646">
        <ele>1650</ele>
        <time>2022-07-24T06:08:46Z</time>
      </trkpt>
      <trkpt lat="45.75836" lon="6.52648">
        <ele>1650</ele>
        <time>2022-07-24T06:08:47Z</time>
      </trkpt>
      <trkpt lat="45.75836" lon="6.52649">
        <ele>1650</ele>
        <time>2022-07-24T06:08:48Z</time>
      </trkpt>
      <trkpt lat="45.75835" lon="6.5265">
        <ele>1650</ele>
        <time>2022-07-24T06:08:49Z</time>
      </trkpt>
      <trkpt lat="45.75835" lon="6.52652">
        <ele>1649</ele>
        <time>2022-07-24T06:08:50Z</time>
      </trkpt>
      <trkpt lat="45.75834" lon="6.52653">
        <ele>1649</ele>
        <time>2022-07-24T06:08:51Z</time>
      </trkpt>
      <trkpt lat="45.75834" lon="6.52655">
        <ele>1649</ele>
        <time>2022-07-24T06:08:52Z</time>
      </trkpt>
      <trkpt lat="45.75833" lon="6.52656">
        <ele>1649</ele>
        <time>2022-07-24T06:08:53Z</time>
      </trkpt>
      <trkpt lat="45.75832" lon="6.52658">
        <ele>1649</ele>
        <time>2022-07-24T06:08:54Z</time>
      </trkpt>
      <trkpt lat="45.75832" lon="6.5266">
        <ele>1649</ele>
        <time>2022-07-24T06:08:55Z</time>
      </trkpt>
      <trkpt lat="45.75831" lon="6.52661">
        <ele>1649</ele>
        <time>2022-07-24T06:08:56Z</time>
      </trkpt>
      <trkpt lat="45.75831" lon="6.52663">
        <ele>1649</ele>
        <time>2022-07-24T06:08:57Z</time>
      </trkpt>
      <trkpt lat="45.75831" lon="6.52664">
        <ele>1649</ele>
        <time>2022-07-24T06:08:58Z</time>
      </trkpt>
      <trkpt lat="45.75831" lon="6.52666">
        <ele>1649</ele>
        <time>2022-07-24T06:08:59Z</time>
      </trkpt>
      <trkpt lat="45.75831" lon="6.52667">
        <ele>1648</ele>
        <time>2022-07-24T06:09:00Z</time>
      </trkpt>
      <trkpt lat="45.75831" lon="6.52669">
        <ele>1648</ele>
        <time>2022-07-24T06:09:01Z</time>
      </trkpt>
      <trkpt lat="45.75831" lon="6.52671">
        <ele>1648</ele>
        <time>2022-07-24T06:09:02Z</time>
      </trkpt>
      <trkpt lat="45.75831" lon="6.52673">
        <ele>1648</ele>
        <time>2022-07-24T06:09:03Z</time>
      </trkpt>
      <trkpt lat="45.75831" lon="6.52674">
        <ele>1648</ele>
        <time>2022-07-24T06:09:04Z</time>
      </trkpt>
      <trkpt lat="45.7583" lon="6.52676">
        <ele>1647</ele>
        <time>2022-07-24T06:09:05Z</time>
      </trkpt>
      <trkpt lat="45.7583" lon="6.52678">
        <ele>1647</ele>
        <time>2022-07-24T06:09:06Z</time>
      </trkpt>
      <trkpt lat="45.75829" lon="6.52679">
        <ele>1647</ele>
        <time>2022-07-24T06:09:07Z</time>
      </trkpt>
      <trkpt lat="45.75828" lon="6.52681">
        <ele>1647</ele>
        <time>2022-07-24T06:09:08Z</time>
      </trkpt>
      <trkpt lat="45.75828" lon="6.52683">
        <ele>1647</ele>
        <time>2022-07-24T06:09:09Z</time>
      </trkpt>
      <trkpt lat="45.75827" lon="6.52685">
        <ele>1647</ele>
        <time>2022-07-24T06:09:10Z</time>
      </trkpt>
      <trkpt lat="45.75826" lon="6.52687">
        <ele>1647</ele>
        <time>2022-07-24T06:09:11Z</time>
      </trkpt>
      <trkpt lat="45.75826" lon="6.52688">
        <ele>1647</ele>
        <time>2022-07-24T06:09:12Z</time>
      </trkpt>
      <trkpt lat="45.75825" lon="6.5269">
        <ele>1647</ele>
        <time>2022-07-24T06:09:13Z</time>
      </trkpt>
      <trkpt lat="45.75825" lon="6.52692">
        <ele>1647</ele>
        <time>2022-07-24T06:09:14Z</time>
      </trkpt>
      <trkpt lat="45.75825" lon="6.52693">
        <ele>1646</ele>
        <time>2022-07-24T06:09:15Z</time>
      </trkpt>
      <trkpt lat="45.75824" lon="6.52695">
        <ele>1646</ele>
        <time>2022-07-24T06:09:16Z</time>
      </trkpt>
      <trkpt lat="45.75824" lon="6.52697">
        <ele>1646</ele>
        <time>2022-07-24T06:09:17Z</time>
      </trkpt>
      <trkpt lat="45.75824" lon="6.52699">
        <ele>1646</ele>
        <time>2022-07-24T06:09:18Z</time>
      </trkpt>
      <trkpt lat="45.75823" lon="6.52701">
        <ele>1646</ele>
        <time>2022-07-24T06:09:19Z</time>
      </trkpt>
      <trkpt lat="45.75823" lon="6.52702">
        <ele>1646</ele>
        <time>2022-07-24T06:09:20Z</time>
      </trkpt>
      <trkpt lat="45.75823" lon="6.52704">
        <ele>1646</ele>
        <time>2022-07-24T06:09:21Z</time>
      </trkpt>
      <trkpt lat="45.75823" lon="6.52706">
        <ele>1646</ele>
        <time>2022-07-24T06:09:22Z</time>
      </trkpt>
      <trkpt lat="45.75822" lon="6.52708">
        <ele>1646</ele>
        <time>2022-07-24T06:09:23Z</time>
      </trkpt>
      <trkpt lat="45.75822" lon="6.52709">
        <ele>1646</ele>
        <time>2022-07-24T06:09:24Z</time>
      </trkpt>
      <trkpt lat="45.75821" lon="6.52711">
        <ele>1645</ele>
        <time>2022-07-24T06:09:25Z</time>
      </trkpt>
      <trkpt lat="45.75821" lon="6.52713">
        <ele>1645</ele>
        <time>2022-07-24T06:09:26Z</time>
      </trkpt>
      <trkpt lat="45.75821" lon="6.52715">
        <ele>1645</ele>
        <time>2022-07-24T06:09:27Z</time>
      </trkpt>
      <trkpt lat="45.7582" lon="6.52717">
        <ele>1645</ele>
        <time>2022-07-24T06:09:28Z</time>
      </trkpt>
      <trkpt lat="45.7582" lon="6.52719">
        <ele>1645</ele>
        <time>2022-07-24T06:09:29Z</time>
      </trkpt>
      <trkpt lat="45.7582" lon="6.5272">
        <ele>1645</ele>
        <time>2022-07-24T06:09:30Z</time>
      </trkpt>
      <trkpt lat="45.7582" lon="6.52722">
        <ele>1645</ele>
        <time>2022-07-24T06:09:31Z</time>
      </trkpt>
      <trkpt lat="45.75819" lon="6.52724">
        <ele>1645</ele>
        <time>2022-07-24T06:09:32Z</time>
      </trkpt>
      <trkpt lat="45.75819" lon="6.52726">
        <ele>1645</ele>
        <time>2022-07-24T06:09:33Z</time>
      </trkpt>
      <trkpt lat="45.75819" lon="6.52728">
        <ele>1645</ele>
        <time>2022-07-24T06:09:34Z</time>
      </trkpt>
      <trkpt lat="45.75819" lon="6.5273">
        <ele>1645</ele>
        <time>2022-07-24T06:09:35Z</time>
      </trkpt>
      <trkpt lat="45.75818" lon="6.52732">
        <ele>1645</ele>
        <time>2022-07-24T06:09:36Z</time>
      </trkpt>
      <trkpt lat="45.75818" lon="6.52733">
        <ele>1645</ele>
        <time>2022-07-24T06:09:37Z</time>
      </trkpt>
      <trkpt lat="45.75818" lon="6.52735">
        <ele>1645</ele>
        <time>2022-07-24T06:09:38Z</time>
      </trkpt>
      <trkpt lat="45.75818" lon="6.52737">
        <ele>1645</ele>
        <time>2022-07-24T06:09:39Z</time>
      </trkpt>
      <trkpt lat="45.75817" lon="6.52739">
        <ele>1644</ele>
        <time>2022-07-24T06:09:40Z</time>
      </trkpt>
      <trkpt lat="45.75817" lon="6.5274">
        <ele>1644</ele>
        <time>2022-07-24T06:09:41Z</time>
      </trkpt>
      <trkpt lat="45.75817" lon="6.52742">
        <ele>1644</ele>
        <time>2022-07-24T06:09:42Z</time>
      </trkpt>
      <trkpt lat="45.75817" lon="6.52744">
        <ele>1644</ele>
        <time>2022-07-24T06:09:43Z</time>
      </trkpt>
      <trkpt lat="45.75817" lon="6.52745">
        <ele>1644</ele>
        <time>2022-07-24T06:09:44Z</time>
      </trkpt>
      <trkpt lat="45.75817" lon="6.52747">
        <ele>1644</ele>
        <time>2022-07-24T06:09:45Z</time>
      </trkpt>
      <trkpt lat="45.75818" lon="6.52749">
        <ele>1644</ele>
        <time>2022-07-24T06:09:46Z</time>
      </trkpt>
      <trkpt lat="45.75818" lon="6.52751">
        <ele>1644</ele>
        <time>2022-07-24T06:09:47Z</time>
      </trkpt>
      <trkpt lat="45.75818" lon="6.52752">
        <ele>1644</ele>
        <time>2022-07-24T06:09:48Z</time>
      </trkpt>
      <trkpt lat="45.75819" lon="6.52754">
        <ele>1644</ele>
        <time>2022-07-24T06:09:49Z</time>
      </trkpt>
      <trkpt lat="45.75819" lon="6.52756">
        <ele>1644</ele>
        <time>2022-07-24T06:09:50Z</time>
      </trkpt>
      <trkpt lat="45.7582" lon="6.52758">
        <ele>1644</ele>
        <time>2022-07-24T06:09:51Z</time>
      </trkpt>
      <trkpt lat="45.7582" lon="6.5276">
        <ele>1644</ele>
        <time>2022-07-24T06:09:52Z</time>
      </trkpt>
      <trkpt lat="45.7582" lon="6.52761">
        <ele>1644</ele>
        <time>2022-07-24T06:09:53Z</time>
      </trkpt>
      <trkpt lat="45.75821" lon="6.52763">
        <ele>1644</ele>
        <time>2022-07-24T06:09:54Z</time>
      </trkpt>
      <trkpt lat="45.75821" lon="6.52765">
        <ele>1643</ele>
        <time>2022-07-24T06:09:55Z</time>
      </trkpt>
      <trkpt lat="45.75821" lon="6.52767">
        <ele>1643</ele>
        <time>2022-07-24T06:09:56Z</time>
      </trkpt>
      <trkpt lat="45.75822" lon="6.52769">
        <ele>1643</ele>
        <time>2022-07-24T06:09:57Z</time>
      </trkpt>
      <trkpt lat="45.75822" lon="6.52771">
        <ele>1643</ele>
        <time>2022-07-24T06:09:58Z</time>
      </trkpt>
      <trkpt lat="45.75823" lon="6.52773">
        <ele>1643</ele>
        <time>2022-07-24T06:09:59Z</time>
      </trkpt>
      <trkpt lat="45.75823" lon="6.52775">
        <ele>1643</ele>
        <time>2022-07-24T06:10:00Z</time>
      </trkpt>
      <trkpt lat="45.75824" lon="6.52776">
        <ele>1643</ele>
        <time>2022-07-24T06:10:01Z</time>
      </trkpt>
      <trkpt lat="45.75824" lon="6.52778">
        <ele>1643</ele>
        <time>2022-07-24T06:10:02Z</time>
      </trkpt>
      <trkpt lat="45.75824" lon="6.5278">
        <ele>1643</ele>
        <time>2022-07-24T06:10:03Z</time>
      </trkpt>
      <trkpt lat="45.75825" lon="6.52781">
        <ele>1643</ele>
        <time>2022-07-24T06:10:04Z</time>
      </trkpt>
      <trkpt lat="45.75825" lon="6.52783">
        <ele>1642</ele>
        <time>2022-07-24T06:10:05Z</time>
      </trkpt>
      <trkpt lat="45.75826" lon="6.52785">
        <ele>1642</ele>
        <time>2022-07-24T06:10:06Z</time>
      </trkpt>
      <trkpt lat="45.75826" lon="6.52787">
        <ele>1642</ele>
        <time>2022-07-24T06:10:07Z</time>
      </trkpt>
      <trkpt lat="45.75826" lon="6.52788">
        <ele>1642</ele>
        <time>2022-07-24T06:10:08Z</time>
      </trkpt>
      <trkpt lat="45.75826" lon="6.5279">
        <ele>1642</ele>
        <time>2022-07-24T06:10:09Z</time>
      </trkpt>
      <trkpt lat="45.75827" lon="6.52792">
        <ele>1642</ele>
        <time>2022-07-24T06:10:10Z</time>
      </trkpt>
      <trkpt lat="45.75827" lon="6.52794">
        <ele>1642</ele>
        <time>2022-07-24T06:10:11Z</time>
      </trkpt>
      <trkpt lat="45.75828" lon="6.52795">
        <ele>1642</ele>
        <time>2022-07-24T06:10:12Z</time>
      </trkpt>
      <trkpt lat="45.75828" lon="6.52797">
        <ele>1642</ele>
        <time>2022-07-24T06:10:13Z</time>
      </trkpt>
      <trkpt lat="45.75829" lon="6.52798">
        <ele>1642</ele>
        <time>2022-07-24T06:10:14Z</time>
      </trkpt>
      <trkpt lat="45.75829" lon="6.52799">
        <ele>1642</ele>
        <time>2022-07-24T06:10:15Z</time>
      </trkpt>
      <trkpt lat="45.7583" lon="6.528">
        <ele>1642</ele>
        <time>2022-07-24T06:10:16Z</time>
      </trkpt>
      <trkpt lat="45.75831" lon="6.52801">
        <ele>1642</ele>
        <time>2022-07-24T06:10:17Z</time>
      </trkpt>
      <trkpt lat="45.75832" lon="6.52802">
        <ele>1642</ele>
        <time>2022-07-24T06:10:18Z</time>
      </trkpt>
      <trkpt lat="45.75832" lon="6.52803">
        <ele>1642</ele>
        <time>2022-07-24T06:10:19Z</time>
      </trkpt>
      <trkpt lat="45.75833" lon="6.52805">
        <ele>1641</ele>
        <time>2022-07-24T06:10:20Z</time>
      </trkpt>
      <trkpt lat="45.75834" lon="6.52806">
        <ele>1641</ele>
        <time>2022-07-24T06:10:21Z</time>
      </trkpt>
      <trkpt lat="45.75834" lon="6.52807">
        <ele>1641</ele>
        <time>2022-07-24T06:10:22Z</time>
      </trkpt>
      <trkpt lat="45.75835" lon="6.52808">
        <ele>1641</ele>
        <time>2022-07-24T06:10:23Z</time>
      </trkpt>
      <trkpt lat="45.75835" lon="6.5281">
        <ele>1641</ele>
        <time>2022-07-24T06:10:24Z</time>
      </trkpt>
      <trkpt lat="45.75836" lon="6.52811">
        <ele>1641</ele>
        <time>2022-07-24T06:10:25Z</time>
      </trkpt>
      <trkpt lat="45.75837" lon="6.52813">
        <ele>1641</ele>
        <time>2022-07-24T06:10:26Z</time>
      </trkpt>
      <trkpt lat="45.75837" lon="6.52814">
        <ele>1641</ele>
        <time>2022-07-24T06:10:27Z</time>
      </trkpt>
      <trkpt lat="45.75838" lon="6.52815">
        <ele>1641</ele>
        <time>2022-07-24T06:10:28Z</time>
      </trkpt>
      <trkpt lat="45.75838" lon="6.52816">
        <ele>1641</ele>
        <time>2022-07-24T06:10:29Z</time>
      </trkpt>
      <trkpt lat="45.75839" lon="6.52818">
        <ele>1641</ele>
        <time>2022-07-24T06:10:30Z</time>
      </trkpt>
      <trkpt lat="45.7584" lon="6.52819">
        <ele>1641</ele>
        <time>2022-07-24T06:10:31Z</time>
      </trkpt>
      <trkpt lat="45.7584" lon="6.52821">
        <ele>1641</ele>
        <time>2022-07-24T06:10:32Z</time>
      </trkpt>
      <trkpt lat="45.75841" lon="6.52823">
        <ele>1641</ele>
        <time>2022-07-24T06:10:33Z</time>
      </trkpt>
      <trkpt lat="45.75841" lon="6.52824">
        <ele>1641</ele>
        <time>2022-07-24T06:10:34Z</time>
      </trkpt>
      <trkpt lat="45.75841" lon="6.52826">
        <ele>1641</ele>
        <time>2022-07-24T06:10:35Z</time>
      </trkpt>
      <trkpt lat="45.75841" lon="6.52828">
        <ele>1641</ele>
        <time>2022-07-24T06:10:36Z</time>
      </trkpt>
      <trkpt lat="45.75841" lon="6.52829">
        <ele>1641</ele>
        <time>2022-07-24T06:10:37Z</time>
      </trkpt>
      <trkpt lat="45.75841" lon="6.52831">
        <ele>1641</ele>
        <time>2022-07-24T06:10:38Z</time>
      </trkpt>
      <trkpt lat="45.75841" lon="6.52833">
        <ele>1641</ele>
        <time>2022-07-24T06:10:39Z</time>
      </trkpt>
      <trkpt lat="45.75841" lon="6.52833">
        <ele>1641</ele>
        <time>2022-07-24T06:10:40Z</time>
      </trkpt>
      <trkpt lat="45.75841" lon="6.52834">
        <ele>1641</ele>
        <time>2022-07-24T06:10:41Z</time>
      </trkpt>
      <trkpt lat="45.75841" lon="6.52834">
        <ele>1641</ele>
        <time>2022-07-24T06:10:42Z</time>
      </trkpt>
      <trkpt lat="45.75841" lon="6.52835">
        <ele>1641</ele>
        <time>2022-07-24T06:10:43Z</time>
      </trkpt>
      <trkpt lat="45.75841" lon="6.52836">
        <ele>1641</ele>
        <time>2022-07-24T06:10:44Z</time>
      </trkpt>
      <trkpt lat="45.75841" lon="6.52837">
        <ele>1640</ele>
        <time>2022-07-24T06:10:45Z</time>
      </trkpt>
      <trkpt lat="45.75841" lon="6.52838">
        <ele>1640</ele>
        <time>2022-07-24T06:10:46Z</time>
      </trkpt>
      <trkpt lat="45.75841" lon="6.52839">
        <ele>1640</ele>
        <time>2022-07-24T06:10:47Z</time>
      </trkpt>
      <trkpt lat="45.75842" lon="6.5284">
        <ele>1640</ele>
        <time>2022-07-24T06:10:48Z</time>
      </trkpt>
      <trkpt lat="45.75842" lon="6.52842">
        <ele>1640</ele>
        <time>2022-07-24T06:10:49Z</time>
      </trkpt>
      <trkpt lat="45.75842" lon="6.52843">
        <ele>1640</ele>
        <time>2022-07-24T06:10:50Z</time>
      </trkpt>
      <trkpt lat="45.75842" lon="6.52845">
        <ele>1640</ele>
        <time>2022-07-24T06:10:51Z</time>
      </trkpt>
      <trkpt lat="45.75842" lon="6.52846">
        <ele>1640</ele>
        <time>2022-07-24T06:10:52Z</time>
      </trkpt>
      <trkpt lat="45.75842" lon="6.52848">
        <ele>1640</ele>
        <time>2022-07-24T06:10:53Z</time>
      </trkpt>
      <trkpt lat="45.75842" lon="6.52849">
        <ele>1640</ele>
        <time>2022-07-24T06:10:54Z</time>
      </trkpt>
      <trkpt lat="45.75842" lon="6.52851">
        <ele>1640</ele>
        <time>2022-07-24T06:10:55Z</time>
      </trkpt>
      <trkpt lat="45.75842" lon="6.52853">
        <ele>1640</ele>
        <time>2022-07-24T06:10:56Z</time>
      </trkpt>
      <trkpt lat="45.75842" lon="6.52854">
        <ele>1640</ele>
        <time>2022-07-24T06:10:57Z</time>
      </trkpt>
      <trkpt lat="45.75842" lon="6.52856">
        <ele>1640</ele>
        <time>2022-07-24T06:10:58Z</time>
      </trkpt>
      <trkpt lat="45.75842" lon="6.52857">
        <ele>1641</ele>
        <time>2022-07-24T06:10:59Z</time>
      </trkpt>
      <trkpt lat="45.75842" lon="6.52859">
        <ele>1641</ele>
        <time>2022-07-24T06:11:00Z</time>
      </trkpt>
      <trkpt lat="45.75842" lon="6.52861">
        <ele>1641</ele>
        <time>2022-07-24T06:11:01Z</time>
      </trkpt>
      <trkpt lat="45.75842" lon="6.52862">
        <ele>1641</ele>
        <time>2022-07-24T06:11:02Z</time>
      </trkpt>
      <trkpt lat="45.75842" lon="6.52864">
        <ele>1641</ele>
        <time>2022-07-24T06:11:03Z</time>
      </trkpt>
      <trkpt lat="45.75843" lon="6.52865">
        <ele>1641</ele>
        <time>2022-07-24T06:11:04Z</time>
      </trkpt>
      <trkpt lat="45.75843" lon="6.52867">
        <ele>1641</ele>
        <time>2022-07-24T06:11:05Z</time>
      </trkpt>
      <trkpt lat="45.75843" lon="6.52868">
        <ele>1641</ele>
        <time>2022-07-24T06:11:06Z</time>
      </trkpt>
      <trkpt lat="45.75843" lon="6.52869">
        <ele>1641</ele>
        <time>2022-07-24T06:11:07Z</time>
      </trkpt>
      <trkpt lat="45.75843" lon="6.52871">
        <ele>1641</ele>
        <time>2022-07-24T06:11:15Z</time>
      </trkpt>
      <trkpt lat="45.75843" lon="6.52872">
        <ele>1641</ele>
        <time>2022-07-24T06:11:16Z</time>
      </trkpt>
      <trkpt lat="45.75844" lon="6.52873">
        <ele>1641</ele>
        <time>2022-07-24T06:11:17Z</time>
      </trkpt>
      <trkpt lat="45.75844" lon="6.52874">
        <ele>1641</ele>
        <time>2022-07-24T06:11:18Z</time>
      </trkpt>
      <trkpt lat="45.75844" lon="6.52875">
        <ele>1641</ele>
        <time>2022-07-24T06:11:19Z</time>
      </trkpt>
      <trkpt lat="45.75844" lon="6.52877">
        <ele>1641</ele>
        <time>2022-07-24T06:11:20Z</time>
      </trkpt>
      <trkpt lat="45.75844" lon="6.52878">
        <ele>1641</ele>
        <time>2022-07-24T06:11:21Z</time>
      </trkpt>
      <trkpt lat="45.75844" lon="6.5288">
        <ele>1641</ele>
        <time>2022-07-24T06:11:22Z</time>
      </trkpt>
      <trkpt lat="45.75844" lon="6.52881">
        <ele>1641</ele>
        <time>2022-07-24T06:11:23Z</time>
      </trkpt>
      <trkpt lat="45.75844" lon="6.52883">
        <ele>1641</ele>
        <time>2022-07-24T06:11:24Z</time>
      </trkpt>
      <trkpt lat="45.75844" lon="6.52885">
        <ele>1641</ele>
        <time>2022-07-24T06:11:25Z</time>
      </trkpt>
      <trkpt lat="45.75844" lon="6.52886">
        <ele>1641</ele>
        <time>2022-07-24T06:11:26Z</time>
      </trkpt>
      <trkpt lat="45.75844" lon="6.52888">
        <ele>1641</ele>
        <time>2022-07-24T06:11:27Z</time>
      </trkpt>
      <trkpt lat="45.75845" lon="6.52889">
        <ele>1641</ele>
        <time>2022-07-24T06:11:28Z</time>
      </trkpt>
      <trkpt lat="45.75845" lon="6.52891">
        <ele>1642</ele>
        <time>2022-07-24T06:11:29Z</time>
      </trkpt>
      <trkpt lat="45.75845" lon="6.52892">
        <ele>1642</ele>
        <time>2022-07-24T06:11:30Z</time>
      </trkpt>
      <trkpt lat="45.75845" lon="6.52894">
        <ele>1642</ele>
        <time>2022-07-24T06:11:31Z</time>
      </trkpt>
      <trkpt lat="45.75845" lon="6.52896">
        <ele>1642</ele>
        <time>2022-07-24T06:11:32Z</time>
      </trkpt>
      <trkpt lat="45.75846" lon="6.52897">
        <ele>1642</ele>
        <time>2022-07-24T06:11:33Z</time>
      </trkpt>
      <trkpt lat="45.75846" lon="6.52899">
        <ele>1642</ele>
        <time>2022-07-24T06:11:34Z</time>
      </trkpt>
      <trkpt lat="45.75846" lon="6.52901">
        <ele>1642</ele>
        <time>2022-07-24T06:11:35Z</time>
      </trkpt>
      <trkpt lat="45.75846" lon="6.52902">
        <ele>1642</ele>
        <time>2022-07-24T06:11:36Z</time>
      </trkpt>
      <trkpt lat="45.75846" lon="6.52904">
        <ele>1642</ele>
        <time>2022-07-24T06:11:37Z</time>
      </trkpt>
      <trkpt lat="45.75846" lon="6.52906">
        <ele>1642</ele>
        <time>2022-07-24T06:11:38Z</time>
      </trkpt>
      <trkpt lat="45.75846" lon="6.52907">
        <ele>1642</ele>
        <time>2022-07-24T06:11:39Z</time>
      </trkpt>
      <trkpt lat="45.75846" lon="6.52909">
        <ele>1642</ele>
        <time>2022-07-24T06:11:40Z</time>
      </trkpt>
      <trkpt lat="45.75846" lon="6.52911">
        <ele>1642</ele>
        <time>2022-07-24T06:11:41Z</time>
      </trkpt>
      <trkpt lat="45.75845" lon="6.52913">
        <ele>1642</ele>
        <time>2022-07-24T06:11:42Z</time>
      </trkpt>
      <trkpt lat="45.75845" lon="6.52915">
        <ele>1642</ele>
        <time>2022-07-24T06:11:43Z</time>
      </trkpt>
      <trkpt lat="45.75845" lon="6.52916">
        <ele>1642</ele>
        <time>2022-07-24T06:11:44Z</time>
      </trkpt>
      <trkpt lat="45.75844" lon="6.52918">
        <ele>1642</ele>
        <time>2022-07-24T06:11:45Z</time>
      </trkpt>
      <trkpt lat="45.75844" lon="6.5292">
        <ele>1642</ele>
        <time>2022-07-24T06:11:46Z</time>
      </trkpt>
      <trkpt lat="45.75844" lon="6.52921">
        <ele>1642</ele>
        <time>2022-07-24T06:11:47Z</time>
      </trkpt>
      <trkpt lat="45.75844" lon="6.52923">
        <ele>1642</ele>
        <time>2022-07-24T06:11:48Z</time>
      </trkpt>
      <trkpt lat="45.75843" lon="6.52925">
        <ele>1642</ele>
        <time>2022-07-24T06:11:49Z</time>
      </trkpt>
      <trkpt lat="45.75843" lon="6.52926">
        <ele>1642</ele>
        <time>2022-07-24T06:11:50Z</time>
      </trkpt>
      <trkpt lat="45.75843" lon="6.52928">
        <ele>1642</ele>
        <time>2022-07-24T06:11:51Z</time>
      </trkpt>
      <trkpt lat="45.75843" lon="6.52929">
        <ele>1642</ele>
        <time>2022-07-24T06:11:52Z</time>
      </trkpt>
      <trkpt lat="45.75842" lon="6.52931">
        <ele>1642</ele>
        <time>2022-07-24T06:11:53Z</time>
      </trkpt>
      <trkpt lat="45.75842" lon="6.52932">
        <ele>1642</ele>
        <time>2022-07-24T06:11:54Z</time>
      </trkpt>
      <trkpt lat="45.75842" lon="6.52934">
        <ele>1642</ele>
        <time>2022-07-24T06:11:55Z</time>
      </trkpt>
      <trkpt lat="45.75842" lon="6.52936">
        <ele>1642</ele>
        <time>2022-07-24T06:11:56Z</time>
      </trkpt>
      <trkpt lat="45.75841" lon="6.52937">
        <ele>1642</ele>
        <time>2022-07-24T06:11:57Z</time>
      </trkpt>
      <trkpt lat="45.75841" lon="6.52939">
        <ele>1642</ele>
        <time>2022-07-24T06:11:58Z</time>
      </trkpt>
      <trkpt lat="45.75841" lon="6.52941">
        <ele>1642</ele>
        <time>2022-07-24T06:11:59Z</time>
      </trkpt>
      <trkpt lat="45.75841" lon="6.52942">
        <ele>1642</ele>
        <time>2022-07-24T06:12:00Z</time>
      </trkpt>
      <trkpt lat="45.7584" lon="6.52944">
        <ele>1642</ele>
        <time>2022-07-24T06:12:01Z</time>
      </trkpt>
      <trkpt lat="45.7584" lon="6.52946">
        <ele>1642</ele>
        <time>2022-07-24T06:12:02Z</time>
      </trkpt>
      <trkpt lat="45.7584" lon="6.52947">
        <ele>1642</ele>
        <time>2022-07-24T06:12:03Z</time>
      </trkpt>
      <trkpt lat="45.7584" lon="6.52949">
        <ele>1642</ele>
        <time>2022-07-24T06:12:04Z</time>
      </trkpt>
      <trkpt lat="45.7584" lon="6.52951">
        <ele>1642</ele>
        <time>2022-07-24T06:12:05Z</time>
      </trkpt>
      <trkpt lat="45.7584" lon="6.52952">
        <ele>1642</ele>
        <time>2022-07-24T06:12:06Z</time>
      </trkpt>
      <trkpt lat="45.75841" lon="6.52954">
        <ele>1642</ele>
        <time>2022-07-24T06:12:07Z</time>
      </trkpt>
      <trkpt lat="45.75841" lon="6.52956">
        <ele>1642</ele>
        <time>2022-07-24T06:12:08Z</time>
      </trkpt>
      <trkpt lat="45.75841" lon="6.52957">
        <ele>1642</ele>
        <time>2022-07-24T06:12:09Z</time>
      </trkpt>
      <trkpt lat="45.75841" lon="6.52959">
        <ele>1642</ele>
        <time>2022-07-24T06:12:10Z</time>
      </trkpt>
      <trkpt lat="45.75841" lon="6.52961">
        <ele>1642</ele>
        <time>2022-07-24T06:12:11Z</time>
      </trkpt>
      <trkpt lat="45.75841" lon="6.52962">
        <ele>1642</ele>
        <time>2022-07-24T06:12:12Z</time>
      </trkpt>
      <trkpt lat="45.75842" lon="6.52964">
        <ele>1642</ele>
        <time>2022-07-24T06:12:13Z</time>
      </trkpt>
      <trkpt lat="45.75842" lon="6.52965">
        <ele>1643</ele>
        <time>2022-07-24T06:12:14Z</time>
      </trkpt>
      <trkpt lat="45.75842" lon="6.52967">
        <ele>1643</ele>
        <time>2022-07-24T06:12:15Z</time>
      </trkpt>
      <trkpt lat="45.75842" lon="6.52968">
        <ele>1643</ele>
        <time>2022-07-24T06:12:16Z</time>
      </trkpt>
      <trkpt lat="45.75843" lon="6.5297">
        <ele>1643</ele>
        <time>2022-07-24T06:12:17Z</time>
      </trkpt>
      <trkpt lat="45.75843" lon="6.52971">
        <ele>1643</ele>
        <time>2022-07-24T06:12:18Z</time>
      </trkpt>
      <trkpt lat="45.75843" lon="6.52973">
        <ele>1643</ele>
        <time>2022-07-24T06:12:19Z</time>
      </trkpt>
      <trkpt lat="45.75844" lon="6.52974">
        <ele>1643</ele>
        <time>2022-07-24T06:12:20Z</time>
      </trkpt>
      <trkpt lat="45.75844" lon="6.52976">
        <ele>1643</ele>
        <time>2022-07-24T06:12:21Z</time>
      </trkpt>
      <trkpt lat="45.75845" lon="6.52978">
        <ele>1644</ele>
        <time>2022-07-24T06:12:34Z</time>
      </trkpt>
      <trkpt lat="45.75845" lon="6.52979">
        <ele>1644</ele>
        <time>2022-07-24T06:12:35Z</time>
      </trkpt>
      <trkpt lat="45.75845" lon="6.52979">
        <ele>1644</ele>
        <time>2022-07-24T06:12:36Z</time>
      </trkpt>
      <trkpt lat="45.75845" lon="6.5298">
        <ele>1644</ele>
        <time>2022-07-24T06:12:37Z</time>
      </trkpt>
      <trkpt lat="45.75846" lon="6.52981">
        <ele>1644</ele>
        <time>2022-07-24T06:12:38Z</time>
      </trkpt>
      <trkpt lat="45.75846" lon="6.52983">
        <ele>1644</ele>
        <time>2022-07-24T06:12:39Z</time>
      </trkpt>
      <trkpt lat="45.75846" lon="6.52984">
        <ele>1644</ele>
        <time>2022-07-24T06:12:40Z</time>
      </trkpt>
      <trkpt lat="45.75847" lon="6.52986">
        <ele>1644</ele>
        <time>2022-07-24T06:12:41Z</time>
      </trkpt>
      <trkpt lat="45.75847" lon="6.52988">
        <ele>1644</ele>
        <time>2022-07-24T06:12:42Z</time>
      </trkpt>
      <trkpt lat="45.75848" lon="6.52989">
        <ele>1644</ele>
        <time>2022-07-24T06:12:43Z</time>
      </trkpt>
      <trkpt lat="45.75848" lon="6.52991">
        <ele>1644</ele>
        <time>2022-07-24T06:12:44Z</time>
      </trkpt>
      <trkpt lat="45.75848" lon="6.52993">
        <ele>1644</ele>
        <time>2022-07-24T06:12:45Z</time>
      </trkpt>
      <trkpt lat="45.75848" lon="6.52995">
        <ele>1644</ele>
        <time>2022-07-24T06:12:46Z</time>
      </trkpt>
      <trkpt lat="45.75849" lon="6.52996">
        <ele>1644</ele>
        <time>2022-07-24T06:12:47Z</time>
      </trkpt>
      <trkpt lat="45.75849" lon="6.52998">
        <ele>1644</ele>
        <time>2022-07-24T06:12:48Z</time>
      </trkpt>
      <trkpt lat="45.75849" lon="6.52999">
        <ele>1645</ele>
        <time>2022-07-24T06:12:49Z</time>
      </trkpt>
      <trkpt lat="45.75849" lon="6.53001">
        <ele>1645</ele>
        <time>2022-07-24T06:12:50Z</time>
      </trkpt>
      <trkpt lat="45.75849" lon="6.53002">
        <ele>1645</ele>
        <time>2022-07-24T06:12:51Z</time>
      </trkpt>
      <trkpt lat="45.7585" lon="6.53004">
        <ele>1645</ele>
        <time>2022-07-24T06:12:52Z</time>
      </trkpt>
      <trkpt lat="45.7585" lon="6.53006">
        <ele>1645</ele>
        <time>2022-07-24T06:12:53Z</time>
      </trkpt>
      <trkpt lat="45.7585" lon="6.53007">
        <ele>1645</ele>
        <time>2022-07-24T06:12:54Z</time>
      </trkpt>
      <trkpt lat="45.7585" lon="6.53009">
        <ele>1645</ele>
        <time>2022-07-24T06:12:55Z</time>
      </trkpt>
      <trkpt lat="45.7585" lon="6.5301">
        <ele>1645</ele>
        <time>2022-07-24T06:12:56Z</time>
      </trkpt>
      <trkpt lat="45.7585" lon="6.53012">
        <ele>1645</ele>
        <time>2022-07-24T06:12:57Z</time>
      </trkpt>
      <trkpt lat="45.75851" lon="6.53014">
        <ele>1645</ele>
        <time>2022-07-24T06:12:58Z</time>
      </trkpt>
      <trkpt lat="45.75851" lon="6.53015">
        <ele>1645</ele>
        <time>2022-07-24T06:12:59Z</time>
      </trkpt>
      <trkpt lat="45.75851" lon="6.53017">
        <ele>1645</ele>
        <time>2022-07-24T06:13:00Z</time>
      </trkpt>
      <trkpt lat="45.75851" lon="6.53018">
        <ele>1645</ele>
        <time>2022-07-24T06:13:01Z</time>
      </trkpt>
      <trkpt lat="45.75851" lon="6.5302">
        <ele>1645</ele>
        <time>2022-07-24T06:13:02Z</time>
      </trkpt>
      <trkpt lat="45.75851" lon="6.53021">
        <ele>1645</ele>
        <time>2022-07-24T06:13:03Z</time>
      </trkpt>
      <trkpt lat="45.75851" lon="6.53023">
        <ele>1645</ele>
        <time>2022-07-24T06:13:04Z</time>
      </trkpt>
      <trkpt lat="45.75851" lon="6.53024">
        <ele>1645</ele>
        <time>2022-07-24T06:13:05Z</time>
      </trkpt>
      <trkpt lat="45.7585" lon="6.53026">
        <ele>1645</ele>
        <time>2022-07-24T06:13:06Z</time>
      </trkpt>
      <trkpt lat="45.7585" lon="6.53027">
        <ele>1645</ele>
        <time>2022-07-24T06:13:07Z</time>
      </trkpt>
      <trkpt lat="45.7585" lon="6.53029">
        <ele>1645</ele>
        <time>2022-07-24T06:13:08Z</time>
      </trkpt>
      <trkpt lat="45.75849" lon="6.5303">
        <ele>1646</ele>
        <time>2022-07-24T06:13:09Z</time>
      </trkpt>
      <trkpt lat="45.75849" lon="6.53032">
        <ele>1646</ele>
        <time>2022-07-24T06:13:10Z</time>
      </trkpt>
      <trkpt lat="45.75849" lon="6.53033">
        <ele>1646</ele>
        <time>2022-07-24T06:13:11Z</time>
      </trkpt>
      <trkpt lat="45.75848" lon="6.53034">
        <ele>1646</ele>
        <time>2022-07-24T06:13:12Z</time>
      </trkpt>
      <trkpt lat="45.75847" lon="6.53036">
        <ele>1646</ele>
        <time>2022-07-24T06:13:13Z</time>
      </trkpt>
      <trkpt lat="45.75847" lon="6.53037">
        <ele>1646</ele>
        <time>2022-07-24T06:13:14Z</time>
      </trkpt>
      <trkpt lat="45.75846" lon="6.53038">
        <ele>1646</ele>
        <time>2022-07-24T06:13:15Z</time>
      </trkpt>
      <trkpt lat="45.75845" lon="6.53039">
        <ele>1646</ele>
        <time>2022-07-24T06:13:16Z</time>
      </trkpt>
      <trkpt lat="45.75845" lon="6.5304">
        <ele>1646</ele>
        <time>2022-07-24T06:13:17Z</time>
      </trkpt>
      <trkpt lat="45.75844" lon="6.53042">
        <ele>1646</ele>
        <time>2022-07-24T06:13:18Z</time>
      </trkpt>
      <trkpt lat="45.75843" lon="6.53043">
        <ele>1646</ele>
        <time>2022-07-24T06:13:19Z</time>
      </trkpt>
      <trkpt lat="45.75843" lon="6.53044">
        <ele>1646</ele>
        <time>2022-07-24T06:13:20Z</time>
      </trkpt>
      <trkpt lat="45.75842" lon="6.53045">
        <ele>1646</ele>
        <time>2022-07-24T06:13:21Z</time>
      </trkpt>
      <trkpt lat="45.75841" lon="6.53047">
        <ele>1646</ele>
        <time>2022-07-24T06:13:22Z</time>
      </trkpt>
      <trkpt lat="45.7584" lon="6.53048">
        <ele>1646</ele>
        <time>2022-07-24T06:13:23Z</time>
      </trkpt>
      <trkpt lat="45.75839" lon="6.53049">
        <ele>1647</ele>
        <time>2022-07-24T06:13:24Z</time>
      </trkpt>
      <trkpt lat="45.75838" lon="6.5305">
        <ele>1647</ele>
        <time>2022-07-24T06:13:25Z</time>
      </trkpt>
      <trkpt lat="45.75837" lon="6.53051">
        <ele>1647</ele>
        <time>2022-07-24T06:13:26Z</time>
      </trkpt>
      <trkpt lat="45.75836" lon="6.53052">
        <ele>1647</ele>
        <time>2022-07-24T06:13:27Z</time>
      </trkpt>
      <trkpt lat="45.75836" lon="6.53052">
        <ele>1647</ele>
        <time>2022-07-24T06:13:28Z</time>
      </trkpt>
      <trkpt lat="45.75835" lon="6.53053">
        <ele>1647</ele>
        <time>2022-07-24T06:13:29Z</time>
      </trkpt>
      <trkpt lat="45.75834" lon="6.53053">
        <ele>1647</ele>
        <time>2022-07-24T06:13:30Z</time>
      </trkpt>
      <trkpt lat="45.75833" lon="6.53054">
        <ele>1647</ele>
        <time>2022-07-24T06:13:31Z</time>
      </trkpt>
      <trkpt lat="45.75833" lon="6.53055">
        <ele>1647</ele>
        <time>2022-07-24T06:13:32Z</time>
      </trkpt>
      <trkpt lat="45.75832" lon="6.53056">
        <ele>1647</ele>
        <time>2022-07-24T06:13:33Z</time>
      </trkpt>
      <trkpt lat="45.75831" lon="6.53057">
        <ele>1647</ele>
        <time>2022-07-24T06:13:34Z</time>
      </trkpt>
      <trkpt lat="45.7583" lon="6.53057">
        <ele>1647</ele>
        <time>2022-07-24T06:13:35Z</time>
      </trkpt>
      <trkpt lat="45.75829" lon="6.53058">
        <ele>1647</ele>
        <time>2022-07-24T06:13:36Z</time>
      </trkpt>
      <trkpt lat="45.75828" lon="6.53059">
        <ele>1647</ele>
        <time>2022-07-24T06:13:37Z</time>
      </trkpt>
      <trkpt lat="45.75827" lon="6.53061">
        <ele>1647</ele>
        <time>2022-07-24T06:13:38Z</time>
      </trkpt>
      <trkpt lat="45.75826" lon="6.53062">
        <ele>1647</ele>
        <time>2022-07-24T06:13:39Z</time>
      </trkpt>
      <trkpt lat="45.75826" lon="6.53063">
        <ele>1647</ele>
        <time>2022-07-24T06:13:40Z</time>
      </trkpt>
      <trkpt lat="45.75825" lon="6.53064">
        <ele>1647</ele>
        <time>2022-07-24T06:13:41Z</time>
      </trkpt>
      <trkpt lat="45.75824" lon="6.53065">
        <ele>1647</ele>
        <time>2022-07-24T06:13:42Z</time>
      </trkpt>
      <trkpt lat="45.75823" lon="6.53066">
        <ele>1647</ele>
        <time>2022-07-24T06:13:43Z</time>
      </trkpt>
      <trkpt lat="45.75822" lon="6.53067">
        <ele>1648</ele>
        <time>2022-07-24T06:13:44Z</time>
      </trkpt>
      <trkpt lat="45.75821" lon="6.53069">
        <ele>1648</ele>
        <time>2022-07-24T06:13:45Z</time>
      </trkpt>
      <trkpt lat="45.7582" lon="6.5307">
        <ele>1648</ele>
        <time>2022-07-24T06:13:46Z</time>
      </trkpt>
      <trkpt lat="45.75819" lon="6.53071">
        <ele>1648</ele>
        <time>2022-07-24T06:13:47Z</time>
      </trkpt>
      <trkpt lat="45.75818" lon="6.53072">
        <ele>1648</ele>
        <time>2022-07-24T06:13:48Z</time>
      </trkpt>
      <trkpt lat="45.75817" lon="6.53073">
        <ele>1648</ele>
        <time>2022-07-24T06:13:49Z</time>
      </trkpt>
      <trkpt lat="45.75816" lon="6.53074">
        <ele>1648</ele>
        <time>2022-07-24T06:13:50Z</time>
      </trkpt>
      <trkpt lat="45.75815" lon="6.53075">
        <ele>1648</ele>
        <time>2022-07-24T06:13:51Z</time>
      </trkpt>
      <trkpt lat="45.75815" lon="6.53076">
        <ele>1648</ele>
        <time>2022-07-24T06:13:52Z</time>
      </trkpt>
      <trkpt lat="45.75814" lon="6.53078">
        <ele>1648</ele>
        <time>2022-07-24T06:13:53Z</time>
      </trkpt>
      <trkpt lat="45.75813" lon="6.53079">
        <ele>1648</ele>
        <time>2022-07-24T06:13:54Z</time>
      </trkpt>
      <trkpt lat="45.75812" lon="6.5308">
        <ele>1648</ele>
        <time>2022-07-24T06:13:55Z</time>
      </trkpt>
      <trkpt lat="45.75812" lon="6.53081">
        <ele>1648</ele>
        <time>2022-07-24T06:13:56Z</time>
      </trkpt>
      <trkpt lat="45.75811" lon="6.53082">
        <ele>1648</ele>
        <time>2022-07-24T06:13:57Z</time>
      </trkpt>
      <trkpt lat="45.7581" lon="6.53083">
        <ele>1648</ele>
        <time>2022-07-24T06:13:58Z</time>
      </trkpt>
      <trkpt lat="45.75809" lon="6.53084">
        <ele>1649</ele>
        <time>2022-07-24T06:13:59Z</time>
      </trkpt>
      <trkpt lat="45.75808" lon="6.53085">
        <ele>1649</ele>
        <time>2022-07-24T06:14:00Z</time>
      </trkpt>
      <trkpt lat="45.75807" lon="6.53086">
        <ele>1649</ele>
        <time>2022-07-24T06:14:01Z</time>
      </trkpt>
      <trkpt lat="45.75807" lon="6.53087">
        <ele>1649</ele>
        <time>2022-07-24T06:14:02Z</time>
      </trkpt>
      <trkpt lat="45.75806" lon="6.53088">
        <ele>1649</ele>
        <time>2022-07-24T06:14:03Z</time>
      </trkpt>
      <trkpt lat="45.75805" lon="6.53089">
        <ele>1649</ele>
        <time>2022-07-24T06:14:04Z</time>
      </trkpt>
      <trkpt lat="45.75805" lon="6.5309">
        <ele>1649</ele>
        <time>2022-07-24T06:14:05Z</time>
      </trkpt>
      <trkpt lat="45.75804" lon="6.53091">
        <ele>1649</ele>
        <time>2022-07-24T06:14:06Z</time>
      </trkpt>
      <trkpt lat="45.75803" lon="6.53092">
        <ele>1649</ele>
        <time>2022-07-24T06:14:07Z</time>
      </trkpt>
      <trkpt lat="45.75803" lon="6.53094">
        <ele>1649</ele>
        <time>2022-07-24T06:14:08Z</time>
      </trkpt>
      <trkpt lat="45.75802" lon="6.53095">
        <ele>1650</ele>
        <time>2022-07-24T06:14:09Z</time>
      </trkpt>
      <trkpt lat="45.75801" lon="6.53096">
        <ele>1650</ele>
        <time>2022-07-24T06:14:10Z</time>
      </trkpt>
      <trkpt lat="45.75801" lon="6.53097">
        <ele>1650</ele>
        <time>2022-07-24T06:14:11Z</time>
      </trkpt>
      <trkpt lat="45.758" lon="6.53098">
        <ele>1650</ele>
        <time>2022-07-24T06:14:12Z</time>
      </trkpt>
      <trkpt lat="45.75799" lon="6.531">
        <ele>1650</ele>
        <time>2022-07-24T06:14:13Z</time>
      </trkpt>
      <trkpt lat="45.75799" lon="6.53101">
        <ele>1650</ele>
        <time>2022-07-24T06:14:14Z</time>
      </trkpt>
      <trkpt lat="45.75798" lon="6.53102">
        <ele>1650</ele>
        <time>2022-07-24T06:14:15Z</time>
      </trkpt>
      <trkpt lat="45.75797" lon="6.53103">
        <ele>1650</ele>
        <time>2022-07-24T06:14:16Z</time>
      </trkpt>
      <trkpt lat="45.75796" lon="6.53104">
        <ele>1650</ele>
        <time>2022-07-24T06:14:17Z</time>
      </trkpt>
      <trkpt lat="45.75795" lon="6.53106">
        <ele>1650</ele>
        <time>2022-07-24T06:14:18Z</time>
      </trkpt>
      <trkpt lat="45.75795" lon="6.53107">
        <ele>1650</ele>
        <time>2022-07-24T06:14:19Z</time>
      </trkpt>
      <trkpt lat="45.75794" lon="6.53108">
        <ele>1650</ele>
        <time>2022-07-24T06:14:20Z</time>
      </trkpt>
      <trkpt lat="45.75793" lon="6.53109">
        <ele>1650</ele>
        <time>2022-07-24T06:14:21Z</time>
      </trkpt>
      <trkpt lat="45.75792" lon="6.5311">
        <ele>1650</ele>
        <time>2022-07-24T06:14:22Z</time>
      </trkpt>
      <trkpt lat="45.75792" lon="6.53111">
        <ele>1650</ele>
        <time>2022-07-24T06:14:23Z</time>
      </trkpt>
      <trkpt lat="45.75791" lon="6.53112">
        <ele>1650</ele>
        <time>2022-07-24T06:14:24Z</time>
      </trkpt>
      <trkpt lat="45.7579" lon="6.53114">
        <ele>1650</ele>
        <time>2022-07-24T06:14:25Z</time>
      </trkpt>
      <trkpt lat="45.7579" lon="6.53115">
        <ele>1650</ele>
        <time>2022-07-24T06:14:26Z</time>
      </trkpt>
      <trkpt lat="45.75789" lon="6.53116">
        <ele>1650</ele>
        <time>2022-07-24T06:14:27Z</time>
      </trkpt>
      <trkpt lat="45.75788" lon="6.53118">
        <ele>1650</ele>
        <time>2022-07-24T06:14:28Z</time>
      </trkpt>
      <trkpt lat="45.75788" lon="6.53119">
        <ele>1650</ele>
        <time>2022-07-24T06:14:29Z</time>
      </trkpt>
      <trkpt lat="45.75787" lon="6.53121">
        <ele>1650</ele>
        <time>2022-07-24T06:14:30Z</time>
      </trkpt>
      <trkpt lat="45.75786" lon="6.53122">
        <ele>1650</ele>
        <time>2022-07-24T06:14:31Z</time>
      </trkpt>
      <trkpt lat="45.75786" lon="6.53124">
        <ele>1650</ele>
        <time>2022-07-24T06:14:32Z</time>
      </trkpt>
      <trkpt lat="45.75785" lon="6.53125">
        <ele>1650</ele>
        <time>2022-07-24T06:14:33Z</time>
      </trkpt>
      <trkpt lat="45.75784" lon="6.53127">
        <ele>1650</ele>
        <time>2022-07-24T06:14:34Z</time>
      </trkpt>
      <trkpt lat="45.75784" lon="6.53128">
        <ele>1650</ele>
        <time>2022-07-24T06:14:35Z</time>
      </trkpt>
      <trkpt lat="45.75783" lon="6.5313">
        <ele>1650</ele>
        <time>2022-07-24T06:14:36Z</time>
      </trkpt>
      <trkpt lat="45.75783" lon="6.53131">
        <ele>1650</ele>
        <time>2022-07-24T06:14:37Z</time>
      </trkpt>
      <trkpt lat="45.75783" lon="6.53133">
        <ele>1650</ele>
        <time>2022-07-24T06:14:38Z</time>
      </trkpt>
      <trkpt lat="45.75782" lon="6.53135">
        <ele>1651</ele>
        <time>2022-07-24T06:14:39Z</time>
      </trkpt>
      <trkpt lat="45.75782" lon="6.53136">
        <ele>1651</ele>
        <time>2022-07-24T06:14:40Z</time>
      </trkpt>
      <trkpt lat="45.75782" lon="6.53138">
        <ele>1651</ele>
        <time>2022-07-24T06:14:41Z</time>
      </trkpt>
      <trkpt lat="45.75782" lon="6.5314">
        <ele>1651</ele>
        <time>2022-07-24T06:14:42Z</time>
      </trkpt>
      <trkpt lat="45.75781" lon="6.53142">
        <ele>1651</ele>
        <time>2022-07-24T06:14:43Z</time>
      </trkpt>
      <trkpt lat="45.75781" lon="6.53143">
        <ele>1651</ele>
        <time>2022-07-24T06:14:44Z</time>
      </trkpt>
      <trkpt lat="45.75781" lon="6.53145">
        <ele>1651</ele>
        <time>2022-07-24T06:14:45Z</time>
      </trkpt>
      <trkpt lat="45.7578" lon="6.53147">
        <ele>1651</ele>
        <time>2022-07-24T06:14:46Z</time>
      </trkpt>
      <trkpt lat="45.7578" lon="6.53149">
        <ele>1651</ele>
        <time>2022-07-24T06:14:47Z</time>
      </trkpt>
      <trkpt lat="45.7578" lon="6.5315">
        <ele>1651</ele>
        <time>2022-07-24T06:14:48Z</time>
      </trkpt>
      <trkpt lat="45.7578" lon="6.53152">
        <ele>1651</ele>
        <time>2022-07-24T06:14:49Z</time>
      </trkpt>
      <trkpt lat="45.75779" lon="6.53154">
        <ele>1651</ele>
        <time>2022-07-24T06:14:50Z</time>
      </trkpt>
      <trkpt lat="45.75779" lon="6.53156">
        <ele>1651</ele>
        <time>2022-07-24T06:14:51Z</time>
      </trkpt>
      <trkpt lat="45.75779" lon="6.53157">
        <ele>1651</ele>
        <time>2022-07-24T06:14:52Z</time>
      </trkpt>
      <trkpt lat="45.75779" lon="6.53159">
        <ele>1651</ele>
        <time>2022-07-24T06:14:53Z</time>
      </trkpt>
      <trkpt lat="45.75779" lon="6.5316">
        <ele>1651</ele>
        <time>2022-07-24T06:14:54Z</time>
      </trkpt>
      <trkpt lat="45.75779" lon="6.53162">
        <ele>1651</ele>
        <time>2022-07-24T06:14:55Z</time>
      </trkpt>
      <trkpt lat="45.75779" lon="6.53164">
        <ele>1651</ele>
        <time>2022-07-24T06:14:56Z</time>
      </trkpt>
      <trkpt lat="45.75778" lon="6.53165">
        <ele>1651</ele>
        <time>2022-07-24T06:14:57Z</time>
      </trkpt>
      <trkpt lat="45.75778" lon="6.53167">
        <ele>1651</ele>
        <time>2022-07-24T06:14:58Z</time>
      </trkpt>
      <trkpt lat="45.75778" lon="6.53168">
        <ele>1651</ele>
        <time>2022-07-24T06:14:59Z</time>
      </trkpt>
      <trkpt lat="45.75778" lon="6.5317">
        <ele>1651</ele>
        <time>2022-07-24T06:15:00Z</time>
      </trkpt>
      <trkpt lat="45.75777" lon="6.53172">
        <ele>1651</ele>
        <time>2022-07-24T06:15:01Z</time>
      </trkpt>
      <trkpt lat="45.75777" lon="6.53173">
        <ele>1651</ele>
        <time>2022-07-24T06:15:02Z</time>
      </trkpt>
      <trkpt lat="45.75777" lon="6.53175">
        <ele>1651</ele>
        <time>2022-07-24T06:15:03Z</time>
      </trkpt>
      <trkpt lat="45.75777" lon="6.53176">
        <ele>1652</ele>
        <time>2022-07-24T06:15:04Z</time>
      </trkpt>
      <trkpt lat="45.75777" lon="6.53178">
        <ele>1652</ele>
        <time>2022-07-24T06:15:05Z</time>
      </trkpt>
      <trkpt lat="45.75776" lon="6.5318">
        <ele>1652</ele>
        <time>2022-07-24T06:15:06Z</time>
      </trkpt>
      <trkpt lat="45.75776" lon="6.53181">
        <ele>1652</ele>
        <time>2022-07-24T06:15:07Z</time>
      </trkpt>
      <trkpt lat="45.75776" lon="6.53183">
        <ele>1652</ele>
        <time>2022-07-24T06:15:08Z</time>
      </trkpt>
      <trkpt lat="45.75776" lon="6.53184">
        <ele>1652</ele>
        <time>2022-07-24T06:15:09Z</time>
      </trkpt>
      <trkpt lat="45.75776" lon="6.53186">
        <ele>1652</ele>
        <time>2022-07-24T06:15:10Z</time>
      </trkpt>
      <trkpt lat="45.75776" lon="6.53188">
        <ele>1652</ele>
        <time>2022-07-24T06:15:11Z</time>
      </trkpt>
      <trkpt lat="45.75775" lon="6.53189">
        <ele>1652</ele>
        <time>2022-07-24T06:15:12Z</time>
      </trkpt>
      <trkpt lat="45.75775" lon="6.53191">
        <ele>1652</ele>
        <time>2022-07-24T06:15:13Z</time>
      </trkpt>
      <trkpt lat="45.75774" lon="6.53193">
        <ele>1652</ele>
        <time>2022-07-24T06:15:14Z</time>
      </trkpt>
      <trkpt lat="45.75774" lon="6.53194">
        <ele>1652</ele>
        <time>2022-07-24T06:15:15Z</time>
      </trkpt>
      <trkpt lat="45.75774" lon="6.53196">
        <ele>1652</ele>
        <time>2022-07-24T06:15:16Z</time>
      </trkpt>
      <trkpt lat="45.75773" lon="6.53198">
        <ele>1652</ele>
        <time>2022-07-24T06:15:17Z</time>
      </trkpt>
      <trkpt lat="45.75773" lon="6.532">
        <ele>1652</ele>
        <time>2022-07-24T06:15:18Z</time>
      </trkpt>
      <trkpt lat="45.75773" lon="6.53202">
        <ele>1652</ele>
        <time>2022-07-24T06:15:19Z</time>
      </trkpt>
      <trkpt lat="45.75773" lon="6.53203">
        <ele>1652</ele>
        <time>2022-07-24T06:15:20Z</time>
      </trkpt>
      <trkpt lat="45.75773" lon="6.53205">
        <ele>1652</ele>
        <time>2022-07-24T06:15:21Z</time>
      </trkpt>
      <trkpt lat="45.75772" lon="6.53207">
        <ele>1652</ele>
        <time>2022-07-24T06:15:22Z</time>
      </trkpt>
      <trkpt lat="45.75772" lon="6.53209">
        <ele>1652</ele>
        <time>2022-07-24T06:15:23Z</time>
      </trkpt>
      <trkpt lat="45.75772" lon="6.5321">
        <ele>1652</ele>
        <time>2022-07-24T06:15:24Z</time>
      </trkpt>
      <trkpt lat="45.75772" lon="6.53212">
        <ele>1652</ele>
        <time>2022-07-24T06:15:25Z</time>
      </trkpt>
      <trkpt lat="45.75772" lon="6.53214">
        <ele>1652</ele>
        <time>2022-07-24T06:15:26Z</time>
      </trkpt>
      <trkpt lat="45.75772" lon="6.53216">
        <ele>1652</ele>
        <time>2022-07-24T06:15:27Z</time>
      </trkpt>
      <trkpt lat="45.75772" lon="6.53218">
        <ele>1652</ele>
        <time>2022-07-24T06:15:28Z</time>
      </trkpt>
      <trkpt lat="45.75772" lon="6.5322">
        <ele>1652</ele>
        <time>2022-07-24T06:15:29Z</time>
      </trkpt>
      <trkpt lat="45.75771" lon="6.53221">
        <ele>1652</ele>
        <time>2022-07-24T06:15:30Z</time>
      </trkpt>
      <trkpt lat="45.75771" lon="6.53223">
        <ele>1652</ele>
        <time>2022-07-24T06:15:31Z</time>
      </trkpt>
      <trkpt lat="45.75771" lon="6.53225">
        <ele>1652</ele>
        <time>2022-07-24T06:15:32Z</time>
      </trkpt>
      <trkpt lat="45.75771" lon="6.53228">
        <ele>1652</ele>
        <time>2022-07-24T06:15:42Z</time>
      </trkpt>
      <trkpt lat="45.75771" lon="6.53229">
        <ele>1652</ele>
        <time>2022-07-24T06:15:43Z</time>
      </trkpt>
      <trkpt lat="45.75771" lon="6.5323">
        <ele>1652</ele>
        <time>2022-07-24T06:15:44Z</time>
      </trkpt>
      <trkpt lat="45.75771" lon="6.53231">
        <ele>1652</ele>
        <time>2022-07-24T06:15:45Z</time>
      </trkpt>
      <trkpt lat="45.75772" lon="6.53232">
        <ele>1652</ele>
        <time>2022-07-24T06:15:46Z</time>
      </trkpt>
      <trkpt lat="45.75772" lon="6.53233">
        <ele>1652</ele>
        <time>2022-07-24T06:15:47Z</time>
      </trkpt>
      <trkpt lat="45.75772" lon="6.53234">
        <ele>1652</ele>
        <time>2022-07-24T06:15:48Z</time>
      </trkpt>
      <trkpt lat="45.75772" lon="6.53236">
        <ele>1652</ele>
        <time>2022-07-24T06:15:49Z</time>
      </trkpt>
      <trkpt lat="45.75772" lon="6.53238">
        <ele>1652</ele>
        <time>2022-07-24T06:15:50Z</time>
      </trkpt>
      <trkpt lat="45.75772" lon="6.53239">
        <ele>1652</ele>
        <time>2022-07-24T06:15:51Z</time>
      </trkpt>
      <trkpt lat="45.75772" lon="6.53241">
        <ele>1652</ele>
        <time>2022-07-24T06:15:52Z</time>
      </trkpt>
      <trkpt lat="45.75772" lon="6.53243">
        <ele>1652</ele>
        <time>2022-07-24T06:15:53Z</time>
      </trkpt>
      <trkpt lat="45.75772" lon="6.53245">
        <ele>1652</ele>
        <time>2022-07-24T06:15:54Z</time>
      </trkpt>
      <trkpt lat="45.75772" lon="6.53246">
        <ele>1652</ele>
        <time>2022-07-24T06:15:55Z</time>
      </trkpt>
      <trkpt lat="45.75772" lon="6.53248">
        <ele>1652</ele>
        <time>2022-07-24T06:15:56Z</time>
      </trkpt>
      <trkpt lat="45.75772" lon="6.5325">
        <ele>1652</ele>
        <time>2022-07-24T06:15:57Z</time>
      </trkpt>
      <trkpt lat="45.75773" lon="6.53252">
        <ele>1652</ele>
        <time>2022-07-24T06:15:58Z</time>
      </trkpt>
      <trkpt lat="45.75773" lon="6.53253">
        <ele>1652</ele>
        <time>2022-07-24T06:15:59Z</time>
      </trkpt>
      <trkpt lat="45.75773" lon="6.53255">
        <ele>1652</ele>
        <time>2022-07-24T06:16:00Z</time>
      </trkpt>
      <trkpt lat="45.75773" lon="6.53256">
        <ele>1652</ele>
        <time>2022-07-24T06:16:01Z</time>
      </trkpt>
      <trkpt lat="45.75773" lon="6.53257">
        <ele>1652</ele>
        <time>2022-07-24T06:16:02Z</time>
      </trkpt>
      <trkpt lat="45.75773" lon="6.53259">
        <ele>1652</ele>
        <time>2022-07-24T06:16:03Z</time>
      </trkpt>
      <trkpt lat="45.75774" lon="6.5326">
        <ele>1652</ele>
        <time>2022-07-24T06:16:04Z</time>
      </trkpt>
      <trkpt lat="45.75774" lon="6.53262">
        <ele>1652</ele>
        <time>2022-07-24T06:16:05Z</time>
      </trkpt>
      <trkpt lat="45.75774" lon="6.53263">
        <ele>1652</ele>
        <time>2022-07-24T06:16:06Z</time>
      </trkpt>
      <trkpt lat="45.75775" lon="6.53264">
        <ele>1652</ele>
        <time>2022-07-24T06:16:07Z</time>
      </trkpt>
      <trkpt lat="45.75775" lon="6.53266">
        <ele>1652</ele>
        <time>2022-07-24T06:16:08Z</time>
      </trkpt>
      <trkpt lat="45.75775" lon="6.53267">
        <ele>1652</ele>
        <time>2022-07-24T06:16:09Z</time>
      </trkpt>
      <trkpt lat="45.75775" lon="6.53269">
        <ele>1652</ele>
        <time>2022-07-24T06:16:10Z</time>
      </trkpt>
      <trkpt lat="45.75776" lon="6.5327">
        <ele>1652</ele>
        <time>2022-07-24T06:16:11Z</time>
      </trkpt>
      <trkpt lat="45.75776" lon="6.53272">
        <ele>1652</ele>
        <time>2022-07-24T06:16:12Z</time>
      </trkpt>
      <trkpt lat="45.75776" lon="6.53274">
        <ele>1652</ele>
        <time>2022-07-24T06:16:13Z</time>
      </trkpt>
      <trkpt lat="45.75776" lon="6.53275">
        <ele>1652</ele>
        <time>2022-07-24T06:16:14Z</time>
      </trkpt>
      <trkpt lat="45.75776" lon="6.53277">
        <ele>1652</ele>
        <time>2022-07-24T06:16:15Z</time>
      </trkpt>
      <trkpt lat="45.75777" lon="6.53278">
        <ele>1652</ele>
        <time>2022-07-24T06:16:16Z</time>
      </trkpt>
      <trkpt lat="45.75777" lon="6.5328">
        <ele>1652</ele>
        <time>2022-07-24T06:16:17Z</time>
      </trkpt>
      <trkpt lat="45.75777" lon="6.53281">
        <ele>1652</ele>
        <time>2022-07-24T06:16:18Z</time>
      </trkpt>
      <trkpt lat="45.75777" lon="6.53282">
        <ele>1652</ele>
        <time>2022-07-24T06:16:19Z</time>
      </trkpt>
      <trkpt lat="45.75777" lon="6.53283">
        <ele>1652</ele>
        <time>2022-07-24T06:16:20Z</time>
      </trkpt>
      <trkpt lat="45.75777" lon="6.53285">
        <ele>1652</ele>
        <time>2022-07-24T06:16:21Z</time>
      </trkpt>
      <trkpt lat="45.75777" lon="6.53286">
        <ele>1652</ele>
        <time>2022-07-24T06:16:22Z</time>
      </trkpt>
      <trkpt lat="45.75777" lon="6.53288">
        <ele>1652</ele>
        <time>2022-07-24T06:16:23Z</time>
      </trkpt>
      <trkpt lat="45.75777" lon="6.53289">
        <ele>1652</ele>
        <time>2022-07-24T06:16:24Z</time>
      </trkpt>
      <trkpt lat="45.75777" lon="6.53291">
        <ele>1652</ele>
        <time>2022-07-24T06:16:25Z</time>
      </trkpt>
      <trkpt lat="45.75777" lon="6.53293">
        <ele>1652</ele>
        <time>2022-07-24T06:16:26Z</time>
      </trkpt>
      <trkpt lat="45.75777" lon="6.53295">
        <ele>1652</ele>
        <time>2022-07-24T06:16:27Z</time>
      </trkpt>
      <trkpt lat="45.75777" lon="6.53297">
        <ele>1652</ele>
        <time>2022-07-24T06:16:28Z</time>
      </trkpt>
      <trkpt lat="45.75777" lon="6.53299">
        <ele>1652</ele>
        <time>2022-07-24T06:16:29Z</time>
      </trkpt>
      <trkpt lat="45.75778" lon="6.533">
        <ele>1652</ele>
        <time>2022-07-24T06:16:30Z</time>
      </trkpt>
      <trkpt lat="45.75778" lon="6.53302">
        <ele>1652</ele>
        <time>2022-07-24T06:16:31Z</time>
      </trkpt>
      <trkpt lat="45.75778" lon="6.53304">
        <ele>1652</ele>
        <time>2022-07-24T06:16:32Z</time>
      </trkpt>
      <trkpt lat="45.75779" lon="6.53306">
        <ele>1652</ele>
        <time>2022-07-24T06:16:33Z</time>
      </trkpt>
      <trkpt lat="45.75779" lon="6.53308">
        <ele>1652</ele>
        <time>2022-07-24T06:16:34Z</time>
      </trkpt>
      <trkpt lat="45.7578" lon="6.53309">
        <ele>1651</ele>
        <time>2022-07-24T06:16:35Z</time>
      </trkpt>
      <trkpt lat="45.7578" lon="6.53311">
        <ele>1651</ele>
        <time>2022-07-24T06:16:36Z</time>
      </trkpt>
      <trkpt lat="45.7578" lon="6.53313">
        <ele>1651</ele>
        <time>2022-07-24T06:16:37Z</time>
      </trkpt>
      <trkpt lat="45.75781" lon="6.53314">
        <ele>1651</ele>
        <time>2022-07-24T06:16:38Z</time>
      </trkpt>
      <trkpt lat="45.75781" lon="6.53316">
        <ele>1651</ele>
        <time>2022-07-24T06:16:39Z</time>
      </trkpt>
      <trkpt lat="45.75781" lon="6.53318">
        <ele>1651</ele>
        <time>2022-07-24T06:16:40Z</time>
      </trkpt>
      <trkpt lat="45.75781" lon="6.53319">
        <ele>1651</ele>
        <time>2022-07-24T06:16:41Z</time>
      </trkpt>
      <trkpt lat="45.75782" lon="6.53321">
        <ele>1651</ele>
        <time>2022-07-24T06:16:42Z</time>
      </trkpt>
      <trkpt lat="45.75782" lon="6.53322">
        <ele>1651</ele>
        <time>2022-07-24T06:16:43Z</time>
      </trkpt>
      <trkpt lat="45.75782" lon="6.53324">
        <ele>1651</ele>
        <time>2022-07-24T06:16:44Z</time>
      </trkpt>
      <trkpt lat="45.75782" lon="6.53326">
        <ele>1651</ele>
        <time>2022-07-24T06:16:45Z</time>
      </trkpt>
      <trkpt lat="45.75782" lon="6.53327">
        <ele>1651</ele>
        <time>2022-07-24T06:16:46Z</time>
      </trkpt>
      <trkpt lat="45.75783" lon="6.53329">
        <ele>1651</ele>
        <time>2022-07-24T06:16:47Z</time>
      </trkpt>
      <trkpt lat="45.75783" lon="6.5333">
        <ele>1651</ele>
        <time>2022-07-24T06:16:48Z</time>
      </trkpt>
      <trkpt lat="45.75783" lon="6.53332">
        <ele>1652</ele>
        <time>2022-07-24T06:16:49Z</time>
      </trkpt>
      <trkpt lat="45.75784" lon="6.53333">
        <ele>1652</ele>
        <time>2022-07-24T06:16:50Z</time>
      </trkpt>
      <trkpt lat="45.75784" lon="6.53336">
        <ele>1652</ele>
        <time>2022-07-24T06:16:57Z</time>
      </trkpt>
      <trkpt lat="45.75784" lon="6.53337">
        <ele>1652</ele>
        <time>2022-07-24T06:16:58Z</time>
      </trkpt>
      <trkpt lat="45.75783" lon="6.53339">
        <ele>1652</ele>
        <time>2022-07-24T06:16:59Z</time>
      </trkpt>
      <trkpt lat="45.75783" lon="6.5334">
        <ele>1652</ele>
        <time>2022-07-24T06:17:00Z</time>
      </trkpt>
      <trkpt lat="45.75783" lon="6.53341">
        <ele>1652</ele>
        <time>2022-07-24T06:17:01Z</time>
      </trkpt>
      <trkpt lat="45.75783" lon="6.53342">
        <ele>1652</ele>
        <time>2022-07-24T06:17:02Z</time>
      </trkpt>
      <trkpt lat="45.75783" lon="6.53344">
        <ele>1652</ele>
        <time>2022-07-24T06:17:03Z</time>
      </trkpt>
      <trkpt lat="45.75783" lon="6.53345">
        <ele>1652</ele>
        <time>2022-07-24T06:17:04Z</time>
      </trkpt>
      <trkpt lat="45.75783" lon="6.53346">
        <ele>1652</ele>
        <time>2022-07-24T06:17:05Z</time>
      </trkpt>
      <trkpt lat="45.75784" lon="6.53348">
        <ele>1652</ele>
        <time>2022-07-24T06:17:06Z</time>
      </trkpt>
      <trkpt lat="45.75784" lon="6.53349">
        <ele>1652</ele>
        <time>2022-07-24T06:17:07Z</time>
      </trkpt>
      <trkpt lat="45.75784" lon="6.53351">
        <ele>1652</ele>
        <time>2022-07-24T06:17:08Z</time>
      </trkpt>
      <trkpt lat="45.75784" lon="6.53353">
        <ele>1652</ele>
        <time>2022-07-24T06:17:09Z</time>
      </trkpt>
      <trkpt lat="45.75784" lon="6.53354">
        <ele>1652</ele>
        <time>2022-07-24T06:17:10Z</time>
      </trkpt>
      <trkpt lat="45.75785" lon="6.53356">
        <ele>1652</ele>
        <time>2022-07-24T06:17:11Z</time>
      </trkpt>
      <trkpt lat="45.75785" lon="6.53358">
        <ele>1652</ele>
        <time>2022-07-24T06:17:12Z</time>
      </trkpt>
      <trkpt lat="45.75785" lon="6.5336">
        <ele>1652</ele>
        <time>2022-07-24T06:17:13Z</time>
      </trkpt>
      <trkpt lat="45.75785" lon="6.53362">
        <ele>1652</ele>
        <time>2022-07-24T06:17:14Z</time>
      </trkpt>
      <trkpt lat="45.75785" lon="6.53364">
        <ele>1652</ele>
        <time>2022-07-24T06:17:15Z</time>
      </trkpt>
      <trkpt lat="45.75785" lon="6.53366">
        <ele>1652</ele>
        <time>2022-07-24T06:17:16Z</time>
      </trkpt>
      <trkpt lat="45.75785" lon="6.53368">
        <ele>1652</ele>
        <time>2022-07-24T06:17:17Z</time>
      </trkpt>
      <trkpt lat="45.75785" lon="6.53369">
        <ele>1652</ele>
        <time>2022-07-24T06:17:18Z</time>
      </trkpt>
      <trkpt lat="45.75786" lon="6.53371">
        <ele>1652</ele>
        <time>2022-07-24T06:17:19Z</time>
      </trkpt>
      <trkpt lat="45.75786" lon="6.53373">
        <ele>1651</ele>
        <time>2022-07-24T06:17:20Z</time>
      </trkpt>
      <trkpt lat="45.75786" lon="6.53374">
        <ele>1651</ele>
        <time>2022-07-24T06:17:21Z</time>
      </trkpt>
      <trkpt lat="45.75787" lon="6.53376">
        <ele>1651</ele>
        <time>2022-07-24T06:17:22Z</time>
      </trkpt>
      <trkpt lat="45.75788" lon="6.53377">
        <ele>1651</ele>
        <time>2022-07-24T06:17:23Z</time>
      </trkpt>
      <trkpt lat="45.75788" lon="6.53379">
        <ele>1651</ele>
        <time>2022-07-24T06:17:24Z</time>
      </trkpt>
      <trkpt lat="45.75789" lon="6.5338">
        <ele>1651</ele>
        <time>2022-07-24T06:17:25Z</time>
      </trkpt>
      <trkpt lat="45.75789" lon="6.53381">
        <ele>1651</ele>
        <time>2022-07-24T06:17:26Z</time>
      </trkpt>
      <trkpt lat="45.7579" lon="6.53383">
        <ele>1651</ele>
        <time>2022-07-24T06:17:27Z</time>
      </trkpt>
      <trkpt lat="45.75791" lon="6.53384">
        <ele>1651</ele>
        <time>2022-07-24T06:17:28Z</time>
      </trkpt>
      <trkpt lat="45.75791" lon="6.53386">
        <ele>1651</ele>
        <time>2022-07-24T06:17:29Z</time>
      </trkpt>
      <trkpt lat="45.75792" lon="6.53387">
        <ele>1651</ele>
        <time>2022-07-24T06:17:30Z</time>
      </trkpt>
      <trkpt lat="45.75792" lon="6.53389">
        <ele>1651</ele>
        <time>2022-07-24T06:17:31Z</time>
      </trkpt>
      <trkpt lat="45.75793" lon="6.5339">
        <ele>1651</ele>
        <time>2022-07-24T06:17:32Z</time>
      </trkpt>
      <trkpt lat="45.75793" lon="6.53392">
        <ele>1651</ele>
        <time>2022-07-24T06:17:33Z</time>
      </trkpt>
      <trkpt lat="45.75794" lon="6.53393">
        <ele>1651</ele>
        <time>2022-07-24T06:17:34Z</time>
      </trkpt>
      <trkpt lat="45.75794" lon="6.53395">
        <ele>1650</ele>
        <time>2022-07-24T06:17:35Z</time>
      </trkpt>
      <trkpt lat="45.75795" lon="6.53396">
        <ele>1650</ele>
        <time>2022-07-24T06:17:36Z</time>
      </trkpt>
      <trkpt lat="45.75796" lon="6.53398">
        <ele>1650</ele>
        <time>2022-07-24T06:17:37Z</time>
      </trkpt>
      <trkpt lat="45.75796" lon="6.53399">
        <ele>1650</ele>
        <time>2022-07-24T06:17:38Z</time>
      </trkpt>
      <trkpt lat="45.75797" lon="6.53401">
        <ele>1650</ele>
        <time>2022-07-24T06:17:39Z</time>
      </trkpt>
      <trkpt lat="45.75797" lon="6.53402">
        <ele>1650</ele>
        <time>2022-07-24T06:17:40Z</time>
      </trkpt>
      <trkpt lat="45.75798" lon="6.53404">
        <ele>1650</ele>
        <time>2022-07-24T06:17:41Z</time>
      </trkpt>
      <trkpt lat="45.75799" lon="6.53405">
        <ele>1650</ele>
        <time>2022-07-24T06:17:42Z</time>
      </trkpt>
      <trkpt lat="45.75799" lon="6.53406">
        <ele>1650</ele>
        <time>2022-07-24T06:17:43Z</time>
      </trkpt>
      <trkpt lat="45.758" lon="6.53408">
        <ele>1650</ele>
        <time>2022-07-24T06:17:44Z</time>
      </trkpt>
      <trkpt lat="45.75801" lon="6.53409">
        <ele>1650</ele>
        <time>2022-07-24T06:17:45Z</time>
      </trkpt>
      <trkpt lat="45.75801" lon="6.5341">
        <ele>1650</ele>
        <time>2022-07-24T06:17:46Z</time>
      </trkpt>
      <trkpt lat="45.75802" lon="6.53412">
        <ele>1650</ele>
        <time>2022-07-24T06:17:47Z</time>
      </trkpt>
      <trkpt lat="45.75802" lon="6.53413">
        <ele>1650</ele>
        <time>2022-07-24T06:17:48Z</time>
      </trkpt>
      <trkpt lat="45.75803" lon="6.53414">
        <ele>1650</ele>
        <time>2022-07-24T06:17:49Z</time>
      </trkpt>
      <trkpt lat="45.75804" lon="6.53415">
        <ele>1650</ele>
        <time>2022-07-24T06:17:50Z</time>
      </trkpt>
      <trkpt lat="45.75804" lon="6.53417">
        <ele>1650</ele>
        <time>2022-07-24T06:17:51Z</time>
      </trkpt>
      <trkpt lat="45.75805" lon="6.53418">
        <ele>1650</ele>
        <time>2022-07-24T06:17:52Z</time>
      </trkpt>
      <trkpt lat="45.75805" lon="6.53419">
        <ele>1650</ele>
        <time>2022-07-24T06:17:53Z</time>
      </trkpt>
      <trkpt lat="45.75806" lon="6.5342">
        <ele>1650</ele>
        <time>2022-07-24T06:17:54Z</time>
      </trkpt>
      <trkpt lat="45.75806" lon="6.53421">
        <ele>1650</ele>
        <time>2022-07-24T06:17:55Z</time>
      </trkpt>
      <trkpt lat="45.75807" lon="6.53422">
        <ele>1650</ele>
        <time>2022-07-24T06:17:56Z</time>
      </trkpt>
      <trkpt lat="45.75808" lon="6.53423">
        <ele>1650</ele>
        <time>2022-07-24T06:17:57Z</time>
      </trkpt>
      <trkpt lat="45.75808" lon="6.53424">
        <ele>1650</ele>
        <time>2022-07-24T06:17:58Z</time>
      </trkpt>
      <trkpt lat="45.75809" lon="6.53425">
        <ele>1650</ele>
        <time>2022-07-24T06:17:59Z</time>
      </trkpt>
      <trkpt lat="45.75809" lon="6.53426">
        <ele>1650</ele>
        <time>2022-07-24T06:18:00Z</time>
      </trkpt>
      <trkpt lat="45.7581" lon="6.53427">
        <ele>1650</ele>
        <time>2022-07-24T06:18:01Z</time>
      </trkpt>
      <trkpt lat="45.7581" lon="6.53428">
        <ele>1650</ele>
        <time>2022-07-24T06:18:02Z</time>
      </trkpt>
      <trkpt lat="45.75811" lon="6.53429">
        <ele>1650</ele>
        <time>2022-07-24T06:18:03Z</time>
      </trkpt>
      <trkpt lat="45.75811" lon="6.5343">
        <ele>1651</ele>
        <time>2022-07-24T06:18:04Z</time>
      </trkpt>
      <trkpt lat="45.75812" lon="6.53431">
        <ele>1651</ele>
        <time>2022-07-24T06:18:05Z</time>
      </trkpt>
      <trkpt lat="45.75812" lon="6.53432">
        <ele>1651</ele>
        <time>2022-07-24T06:18:06Z</time>
      </trkpt>
      <trkpt lat="45.75813" lon="6.53432">
        <ele>1651</ele>
        <time>2022-07-24T06:18:07Z</time>
      </trkpt>
      <trkpt lat="45.75813" lon="6.53433">
        <ele>1651</ele>
        <time>2022-07-24T06:18:08Z</time>
      </trkpt>
      <trkpt lat="45.75814" lon="6.53434">
        <ele>1651</ele>
        <time>2022-07-24T06:18:09Z</time>
      </trkpt>
      <trkpt lat="45.75814" lon="6.53435">
        <ele>1651</ele>
        <time>2022-07-24T06:18:10Z</time>
      </trkpt>
      <trkpt lat="45.75815" lon="6.53436">
        <ele>1651</ele>
        <time>2022-07-24T06:18:11Z</time>
      </trkpt>
      <trkpt lat="45.75815" lon="6.53437">
        <ele>1651</ele>
        <time>2022-07-24T06:18:12Z</time>
      </trkpt>
      <trkpt lat="45.75816" lon="6.53438">
        <ele>1651</ele>
        <time>2022-07-24T06:18:13Z</time>
      </trkpt>
      <trkpt lat="45.75817" lon="6.53439">
        <ele>1651</ele>
        <time>2022-07-24T06:18:14Z</time>
      </trkpt>
      <trkpt lat="45.75817" lon="6.5344">
        <ele>1651</ele>
        <time>2022-07-24T06:18:15Z</time>
      </trkpt>
      <trkpt lat="45.75818" lon="6.53441">
        <ele>1651</ele>
        <time>2022-07-24T06:18:16Z</time>
      </trkpt>
      <trkpt lat="45.75818" lon="6.53442">
        <ele>1651</ele>
        <time>2022-07-24T06:18:17Z</time>
      </trkpt>
      <trkpt lat="45.75819" lon="6.53443">
        <ele>1651</ele>
        <time>2022-07-24T06:18:18Z</time>
      </trkpt>
      <trkpt lat="45.7582" lon="6.53445">
        <ele>1652</ele>
        <time>2022-07-24T06:18:19Z</time>
      </trkpt>
      <trkpt lat="45.7582" lon="6.53446">
        <ele>1652</ele>
        <time>2022-07-24T06:18:20Z</time>
      </trkpt>
      <trkpt lat="45.75821" lon="6.53447">
        <ele>1652</ele>
        <time>2022-07-24T06:18:21Z</time>
      </trkpt>
      <trkpt lat="45.75822" lon="6.53448">
        <ele>1652</ele>
        <time>2022-07-24T06:18:22Z</time>
      </trkpt>
      <trkpt lat="45.75822" lon="6.53449">
        <ele>1652</ele>
        <time>2022-07-24T06:18:23Z</time>
      </trkpt>
      <trkpt lat="45.75823" lon="6.5345">
        <ele>1653</ele>
        <time>2022-07-24T06:18:24Z</time>
      </trkpt>
      <trkpt lat="45.75824" lon="6.53451">
        <ele>1653</ele>
        <time>2022-07-24T06:18:25Z</time>
      </trkpt>
      <trkpt lat="45.75825" lon="6.53452">
        <ele>1653</ele>
        <time>2022-07-24T06:18:26Z</time>
      </trkpt>
      <trkpt lat="45.75825" lon="6.53453">
        <ele>1653</ele>
        <time>2022-07-24T06:18:27Z</time>
      </trkpt>
      <trkpt lat="45.75826" lon="6.53454">
        <ele>1653</ele>
        <time>2022-07-24T06:18:28Z</time>
      </trkpt>
      <trkpt lat="45.75827" lon="6.53455">
        <ele>1653</ele>
        <time>2022-07-24T06:18:29Z</time>
      </trkpt>
      <trkpt lat="45.75828" lon="6.53456">
        <ele>1653</ele>
        <time>2022-07-24T06:18:30Z</time>
      </trkpt>
      <trkpt lat="45.75829" lon="6.53456">
        <ele>1653</ele>
        <time>2022-07-24T06:18:31Z</time>
      </trkpt>
      <trkpt lat="45.75831" lon="6.53457">
        <ele>1653</ele>
        <time>2022-07-24T06:18:32Z</time>
      </trkpt>
      <trkpt lat="45.75832" lon="6.53457">
        <ele>1653</ele>
        <time>2022-07-24T06:18:33Z</time>
      </trkpt>
      <trkpt lat="45.75833" lon="6.53458">
        <ele>1654</ele>
        <time>2022-07-24T06:18:34Z</time>
      </trkpt>
      <trkpt lat="45.75834" lon="6.53458">
        <ele>1654</ele>
        <time>2022-07-24T06:18:35Z</time>
      </trkpt>
      <trkpt lat="45.75835" lon="6.53459">
        <ele>1654</ele>
        <time>2022-07-24T06:18:36Z</time>
      </trkpt>
      <trkpt lat="45.75835" lon="6.5346">
        <ele>1654</ele>
        <time>2022-07-24T06:18:37Z</time>
      </trkpt>
      <trkpt lat="45.75836" lon="6.5346">
        <ele>1654</ele>
        <time>2022-07-24T06:18:38Z</time>
      </trkpt>
      <trkpt lat="45.75837" lon="6.53461">
        <ele>1654</ele>
        <time>2022-07-24T06:18:39Z</time>
      </trkpt>
      <trkpt lat="45.75838" lon="6.53461">
        <ele>1654</ele>
        <time>2022-07-24T06:18:40Z</time>
      </trkpt>
      <trkpt lat="45.75839" lon="6.53461">
        <ele>1654</ele>
        <time>2022-07-24T06:18:41Z</time>
      </trkpt>
      <trkpt lat="45.7584" lon="6.53462">
        <ele>1654</ele>
        <time>2022-07-24T06:18:42Z</time>
      </trkpt>
      <trkpt lat="45.75841" lon="6.53462">
        <ele>1654</ele>
        <time>2022-07-24T06:18:43Z</time>
      </trkpt>
      <trkpt lat="45.75842" lon="6.53462">
        <ele>1654</ele>
        <time>2022-07-24T06:18:44Z</time>
      </trkpt>
      <trkpt lat="45.75843" lon="6.53462">
        <ele>1654</ele>
        <time>2022-07-24T06:18:45Z</time>
      </trkpt>
      <trkpt lat="45.75844" lon="6.53463">
        <ele>1654</ele>
        <time>2022-07-24T06:18:46Z</time>
      </trkpt>
      <trkpt lat="45.75845" lon="6.53463">
        <ele>1654</ele>
        <time>2022-07-24T06:18:47Z</time>
      </trkpt>
      <trkpt lat="45.75846" lon="6.53464">
        <ele>1654</ele>
        <time>2022-07-24T06:18:48Z</time>
      </trkpt>
      <trkpt lat="45.75846" lon="6.53464">
        <ele>1654</ele>
        <time>2022-07-24T06:18:49Z</time>
      </trkpt>
      <trkpt lat="45.75847" lon="6.53465">
        <ele>1654</ele>
        <time>2022-07-24T06:18:50Z</time>
      </trkpt>
      <trkpt lat="45.75848" lon="6.53466">
        <ele>1654</ele>
        <time>2022-07-24T06:18:51Z</time>
      </trkpt>
      <trkpt lat="45.75849" lon="6.53466">
        <ele>1654</ele>
        <time>2022-07-24T06:18:52Z</time>
      </trkpt>
      <trkpt lat="45.7585" lon="6.53467">
        <ele>1654</ele>
        <time>2022-07-24T06:18:53Z</time>
      </trkpt>
      <trkpt lat="45.7585" lon="6.53468">
        <ele>1655</ele>
        <time>2022-07-24T06:18:54Z</time>
      </trkpt>
      <trkpt lat="45.75851" lon="6.53469">
        <ele>1654</ele>
        <time>2022-07-24T06:18:55Z</time>
      </trkpt>
      <trkpt lat="45.75852" lon="6.5347">
        <ele>1654</ele>
        <time>2022-07-24T06:18:56Z</time>
      </trkpt>
      <trkpt lat="45.75853" lon="6.53471">
        <ele>1654</ele>
        <time>2022-07-24T06:18:57Z</time>
      </trkpt>
      <trkpt lat="45.75854" lon="6.53472">
        <ele>1654</ele>
        <time>2022-07-24T06:18:58Z</time>
      </trkpt>
      <trkpt lat="45.75855" lon="6.53473">
        <ele>1654</ele>
        <time>2022-07-24T06:18:59Z</time>
      </trkpt>
      <trkpt lat="45.75855" lon="6.53474">
        <ele>1654</ele>
        <time>2022-07-24T06:19:00Z</time>
      </trkpt>
      <trkpt lat="45.75856" lon="6.53475">
        <ele>1654</ele>
        <time>2022-07-24T06:19:01Z</time>
      </trkpt>
      <trkpt lat="45.75857" lon="6.53476">
        <ele>1654</ele>
        <time>2022-07-24T06:19:02Z</time>
      </trkpt>
      <trkpt lat="45.75858" lon="6.53477">
        <ele>1654</ele>
        <time>2022-07-24T06:19:03Z</time>
      </trkpt>
      <trkpt lat="45.75858" lon="6.53478">
        <ele>1655</ele>
        <time>2022-07-24T06:19:04Z</time>
      </trkpt>
      <trkpt lat="45.75859" lon="6.53479">
        <ele>1655</ele>
        <time>2022-07-24T06:19:05Z</time>
      </trkpt>
      <trkpt lat="45.7586" lon="6.5348">
        <ele>1655</ele>
        <time>2022-07-24T06:19:06Z</time>
      </trkpt>
      <trkpt lat="45.7586" lon="6.53482">
        <ele>1655</ele>
        <time>2022-07-24T06:19:07Z</time>
      </trkpt>
      <trkpt lat="45.75861" lon="6.53483">
        <ele>1655</ele>
        <time>2022-07-24T06:19:08Z</time>
      </trkpt>
      <trkpt lat="45.75861" lon="6.53484">
        <ele>1655</ele>
        <time>2022-07-24T06:19:09Z</time>
      </trkpt>
      <trkpt lat="45.75861" lon="6.53486">
        <ele>1655</ele>
        <time>2022-07-24T06:19:10Z</time>
      </trkpt>
      <trkpt lat="45.75861" lon="6.53488">
        <ele>1655</ele>
        <time>2022-07-24T06:19:11Z</time>
      </trkpt>
      <trkpt lat="45.75862" lon="6.53489">
        <ele>1655</ele>
        <time>2022-07-24T06:19:12Z</time>
      </trkpt>
      <trkpt lat="45.75862" lon="6.53491">
        <ele>1655</ele>
        <time>2022-07-24T06:19:13Z</time>
      </trkpt>
      <trkpt lat="45.75862" lon="6.53493">
        <ele>1655</ele>
        <time>2022-07-24T06:19:14Z</time>
      </trkpt>
      <trkpt lat="45.75862" lon="6.53495">
        <ele>1655</ele>
        <time>2022-07-24T06:19:15Z</time>
      </trkpt>
      <trkpt lat="45.75862" lon="6.53497">
        <ele>1655</ele>
        <time>2022-07-24T06:19:16Z</time>
      </trkpt>
      <trkpt lat="45.75862" lon="6.53499">
        <ele>1655</ele>
        <time>2022-07-24T06:19:17Z</time>
      </trkpt>
      <trkpt lat="45.75862" lon="6.53501">
        <ele>1655</ele>
        <time>2022-07-24T06:19:18Z</time>
      </trkpt>
      <trkpt lat="45.75862" lon="6.53503">
        <ele>1656</ele>
        <time>2022-07-24T06:19:19Z</time>
      </trkpt>
      <trkpt lat="45.75862" lon="6.53504">
        <ele>1656</ele>
        <time>2022-07-24T06:19:20Z</time>
      </trkpt>
      <trkpt lat="45.75862" lon="6.53506">
        <ele>1656</ele>
        <time>2022-07-24T06:19:21Z</time>
      </trkpt>
      <trkpt lat="45.75862" lon="6.53508">
        <ele>1656</ele>
        <time>2022-07-24T06:19:22Z</time>
      </trkpt>
      <trkpt lat="45.75862" lon="6.5351">
        <ele>1656</ele>
        <time>2022-07-24T06:19:23Z</time>
      </trkpt>
      <trkpt lat="45.75862" lon="6.53512">
        <ele>1656</ele>
        <time>2022-07-24T06:19:24Z</time>
      </trkpt>
      <trkpt lat="45.75862" lon="6.53514">
        <ele>1656</ele>
        <time>2022-07-24T06:19:25Z</time>
      </trkpt>
      <trkpt lat="45.75862" lon="6.53516">
        <ele>1656</ele>
        <time>2022-07-24T06:19:26Z</time>
      </trkpt>
      <trkpt lat="45.75862" lon="6.53517">
        <ele>1656</ele>
        <time>2022-07-24T06:19:27Z</time>
      </trkpt>
      <trkpt lat="45.75862" lon="6.53518">
        <ele>1656</ele>
        <time>2022-07-24T06:19:28Z</time>
      </trkpt>
      <trkpt lat="45.75862" lon="6.5352">
        <ele>1656</ele>
        <time>2022-07-24T06:19:29Z</time>
      </trkpt>
      <trkpt lat="45.75862" lon="6.53521">
        <ele>1656</ele>
        <time>2022-07-24T06:19:30Z</time>
      </trkpt>
      <trkpt lat="45.75861" lon="6.53522">
        <ele>1656</ele>
        <time>2022-07-24T06:19:31Z</time>
      </trkpt>
      <trkpt lat="45.75862" lon="6.53524">
        <ele>1656</ele>
        <time>2022-07-24T06:19:32Z</time>
      </trkpt>
      <trkpt lat="45.75862" lon="6.53525">
        <ele>1656</ele>
        <time>2022-07-24T06:19:33Z</time>
      </trkpt>
      <trkpt lat="45.75862" lon="6.53527">
        <ele>1657</ele>
        <time>2022-07-24T06:19:34Z</time>
      </trkpt>
      <trkpt lat="45.75862" lon="6.53528">
        <ele>1657</ele>
        <time>2022-07-24T06:19:35Z</time>
      </trkpt>
      <trkpt lat="45.75862" lon="6.5353">
        <ele>1657</ele>
        <time>2022-07-24T06:19:36Z</time>
      </trkpt>
      <trkpt lat="45.75863" lon="6.53531">
        <ele>1657</ele>
        <time>2022-07-24T06:19:37Z</time>
      </trkpt>
      <trkpt lat="45.75864" lon="6.53532">
        <ele>1657</ele>
        <time>2022-07-24T06:19:38Z</time>
      </trkpt>
      <trkpt lat="45.75864" lon="6.53534">
        <ele>1657</ele>
        <time>2022-07-24T06:19:39Z</time>
      </trkpt>
      <trkpt lat="45.75865" lon="6.53535">
        <ele>1657</ele>
        <time>2022-07-24T06:19:40Z</time>
      </trkpt>
      <trkpt lat="45.75866" lon="6.53536">
        <ele>1657</ele>
        <time>2022-07-24T06:19:41Z</time>
      </trkpt>
      <trkpt lat="45.75867" lon="6.53537">
        <ele>1657</ele>
        <time>2022-07-24T06:19:42Z</time>
      </trkpt>
      <trkpt lat="45.75867" lon="6.53538">
        <ele>1657</ele>
        <time>2022-07-24T06:19:43Z</time>
      </trkpt>
      <trkpt lat="45.75868" lon="6.5354">
        <ele>1658</ele>
        <time>2022-07-24T06:19:44Z</time>
      </trkpt>
      <trkpt lat="45.75869" lon="6.53541">
        <ele>1658</ele>
        <time>2022-07-24T06:19:45Z</time>
      </trkpt>
      <trkpt lat="45.7587" lon="6.53542">
        <ele>1658</ele>
        <time>2022-07-24T06:19:46Z</time>
      </trkpt>
      <trkpt lat="45.75871" lon="6.53543">
        <ele>1658</ele>
        <time>2022-07-24T06:19:47Z</time>
      </trkpt>
      <trkpt lat="45.75872" lon="6.53545">
        <ele>1658</ele>
        <time>2022-07-24T06:19:48Z</time>
      </trkpt>
      <trkpt lat="45.75872" lon="6.53546">
        <ele>1658</ele>
        <time>2022-07-24T06:19:49Z</time>
      </trkpt>
      <trkpt lat="45.75872" lon="6.53547">
        <ele>1658</ele>
        <time>2022-07-24T06:19:50Z</time>
      </trkpt>
      <trkpt lat="45.75871" lon="6.53549">
        <ele>1658</ele>
        <time>2022-07-24T06:19:51Z</time>
      </trkpt>
      <trkpt lat="45.75871" lon="6.5355">
        <ele>1658</ele>
        <time>2022-07-24T06:19:52Z</time>
      </trkpt>
      <trkpt lat="45.7587" lon="6.53552">
        <ele>1658</ele>
        <time>2022-07-24T06:19:53Z</time>
      </trkpt>
      <trkpt lat="45.75869" lon="6.53553">
        <ele>1658</ele>
        <time>2022-07-24T06:19:54Z</time>
      </trkpt>
      <trkpt lat="45.75868" lon="6.53555">
        <ele>1658</ele>
        <time>2022-07-24T06:19:55Z</time>
      </trkpt>
      <trkpt lat="45.75867" lon="6.53556">
        <ele>1658</ele>
        <time>2022-07-24T06:19:56Z</time>
      </trkpt>
      <trkpt lat="45.75866" lon="6.53558">
        <ele>1658</ele>
        <time>2022-07-24T06:19:57Z</time>
      </trkpt>
      <trkpt lat="45.75865" lon="6.53559">
        <ele>1658</ele>
        <time>2022-07-24T06:19:58Z</time>
      </trkpt>
      <trkpt lat="45.75864" lon="6.53561">
        <ele>1658</ele>
        <time>2022-07-24T06:19:59Z</time>
      </trkpt>
      <trkpt lat="45.75863" lon="6.53562">
        <ele>1658</ele>
        <time>2022-07-24T06:20:00Z</time>
      </trkpt>
      <trkpt lat="45.75862" lon="6.53564">
        <ele>1658</ele>
        <time>2022-07-24T06:20:01Z</time>
      </trkpt>
      <trkpt lat="45.75862" lon="6.53565">
        <ele>1658</ele>
        <time>2022-07-24T06:20:02Z</time>
      </trkpt>
      <trkpt lat="45.75861" lon="6.53567">
        <ele>1658</ele>
        <time>2022-07-24T06:20:03Z</time>
      </trkpt>
      <trkpt lat="45.7586" lon="6.53568">
        <ele>1658</ele>
        <time>2022-07-24T06:20:04Z</time>
      </trkpt>
      <trkpt lat="45.75859" lon="6.5357">
        <ele>1658</ele>
        <time>2022-07-24T06:20:05Z</time>
      </trkpt>
      <trkpt lat="45.75858" lon="6.53571">
        <ele>1658</ele>
        <time>2022-07-24T06:20:06Z</time>
      </trkpt>
      <trkpt lat="45.75857" lon="6.53572">
        <ele>1658</ele>
        <time>2022-07-24T06:20:07Z</time>
      </trkpt>
      <trkpt lat="45.75857" lon="6.53574">
        <ele>1658</ele>
        <time>2022-07-24T06:20:08Z</time>
      </trkpt>
      <trkpt lat="45.75856" lon="6.53575">
        <ele>1658</ele>
        <time>2022-07-24T06:20:09Z</time>
      </trkpt>
      <trkpt lat="45.75855" lon="6.53576">
        <ele>1657</ele>
        <time>2022-07-24T06:20:10Z</time>
      </trkpt>
      <trkpt lat="45.75854" lon="6.53578">
        <ele>1657</ele>
        <time>2022-07-24T06:20:11Z</time>
      </trkpt>
      <trkpt lat="45.75853" lon="6.53579">
        <ele>1657</ele>
        <time>2022-07-24T06:20:12Z</time>
      </trkpt>
      <trkpt lat="45.75853" lon="6.5358">
        <ele>1657</ele>
        <time>2022-07-24T06:20:13Z</time>
      </trkpt>
      <trkpt lat="45.75852" lon="6.53581">
        <ele>1657</ele>
        <time>2022-07-24T06:20:14Z</time>
      </trkpt>
      <trkpt lat="45.75851" lon="6.53583">
        <ele>1657</ele>
        <time>2022-07-24T06:20:15Z</time>
      </trkpt>
      <trkpt lat="45.7585" lon="6.53584">
        <ele>1657</ele>
        <time>2022-07-24T06:20:16Z</time>
      </trkpt>
      <trkpt lat="45.7585" lon="6.53585">
        <ele>1657</ele>
        <time>2022-07-24T06:20:17Z</time>
      </trkpt>
      <trkpt lat="45.75849" lon="6.53587">
        <ele>1657</ele>
        <time>2022-07-24T06:20:18Z</time>
      </trkpt>
      <trkpt lat="45.75848" lon="6.53588">
        <ele>1657</ele>
        <time>2022-07-24T06:20:19Z</time>
      </trkpt>
      <trkpt lat="45.75848" lon="6.5359">
        <ele>1657</ele>
        <time>2022-07-24T06:20:20Z</time>
      </trkpt>
      <trkpt lat="45.75847" lon="6.53591">
        <ele>1657</ele>
        <time>2022-07-24T06:20:21Z</time>
      </trkpt>
      <trkpt lat="45.75846" lon="6.53592">
        <ele>1657</ele>
        <time>2022-07-24T06:20:22Z</time>
      </trkpt>
      <trkpt lat="45.75846" lon="6.53594">
        <ele>1657</ele>
        <time>2022-07-24T06:20:23Z</time>
      </trkpt>
      <trkpt lat="45.75845" lon="6.53595">
        <ele>1657</ele>
        <time>2022-07-24T06:20:24Z</time>
      </trkpt>
      <trkpt lat="45.75844" lon="6.53596">
        <ele>1657</ele>
        <time>2022-07-24T06:20:25Z</time>
      </trkpt>
      <trkpt lat="45.75844" lon="6.53598">
        <ele>1657</ele>
        <time>2022-07-24T06:20:26Z</time>
      </trkpt>
      <trkpt lat="45.75843" lon="6.53599">
        <ele>1657</ele>
        <time>2022-07-24T06:20:27Z</time>
      </trkpt>
      <trkpt lat="45.75842" lon="6.536">
        <ele>1657</ele>
        <time>2022-07-24T06:20:28Z</time>
      </trkpt>
      <trkpt lat="45.75841" lon="6.53601">
        <ele>1657</ele>
        <time>2022-07-24T06:20:29Z</time>
      </trkpt>
      <trkpt lat="45.75841" lon="6.53602">
        <ele>1657</ele>
        <time>2022-07-24T06:20:30Z</time>
      </trkpt>
      <trkpt lat="45.7584" lon="6.53604">
        <ele>1657</ele>
        <time>2022-07-24T06:20:31Z</time>
      </trkpt>
      <trkpt lat="45.75839" lon="6.53605">
        <ele>1657</ele>
        <time>2022-07-24T06:20:32Z</time>
      </trkpt>
      <trkpt lat="45.75839" lon="6.53607">
        <ele>1657</ele>
        <time>2022-07-24T06:20:33Z</time>
      </trkpt>
      <trkpt lat="45.75838" lon="6.53608">
        <ele>1657</ele>
        <time>2022-07-24T06:20:34Z</time>
      </trkpt>
      <trkpt lat="45.75838" lon="6.53609">
        <ele>1657</ele>
        <time>2022-07-24T06:20:35Z</time>
      </trkpt>
      <trkpt lat="45.75837" lon="6.53611">
        <ele>1657</ele>
        <time>2022-07-24T06:20:36Z</time>
      </trkpt>
      <trkpt lat="45.75837" lon="6.53612">
        <ele>1657</ele>
        <time>2022-07-24T06:20:37Z</time>
      </trkpt>
      <trkpt lat="45.75836" lon="6.53613">
        <ele>1657</ele>
        <time>2022-07-24T06:20:38Z</time>
      </trkpt>
      <trkpt lat="45.75836" lon="6.53614">
        <ele>1657</ele>
        <time>2022-07-24T06:20:39Z</time>
      </trkpt>
      <trkpt lat="45.75835" lon="6.53615">
        <ele>1656</ele>
        <time>2022-07-24T06:20:40Z</time>
      </trkpt>
      <trkpt lat="45.75835" lon="6.53617">
        <ele>1656</ele>
        <time>2022-07-24T06:20:41Z</time>
      </trkpt>
      <trkpt lat="45.75834" lon="6.53618">
        <ele>1656</ele>
        <time>2022-07-24T06:20:42Z</time>
      </trkpt>
      <trkpt lat="45.75834" lon="6.53619">
        <ele>1656</ele>
        <time>2022-07-24T06:20:43Z</time>
      </trkpt>
      <trkpt lat="45.75833" lon="6.53621">
        <ele>1656</ele>
        <time>2022-07-24T06:20:44Z</time>
      </trkpt>
      <trkpt lat="45.75833" lon="6.53622">
        <ele>1656</ele>
        <time>2022-07-24T06:20:45Z</time>
      </trkpt>
      <trkpt lat="45.75832" lon="6.53624">
        <ele>1656</ele>
        <time>2022-07-24T06:20:46Z</time>
      </trkpt>
      <trkpt lat="45.75831" lon="6.53625">
        <ele>1656</ele>
        <time>2022-07-24T06:20:47Z</time>
      </trkpt>
      <trkpt lat="45.75831" lon="6.53627">
        <ele>1656</ele>
        <time>2022-07-24T06:20:48Z</time>
      </trkpt>
      <trkpt lat="45.7583" lon="6.53628">
        <ele>1656</ele>
        <time>2022-07-24T06:20:49Z</time>
      </trkpt>
      <trkpt lat="45.7583" lon="6.5363">
        <ele>1655</ele>
        <time>2022-07-24T06:20:50Z</time>
      </trkpt>
      <trkpt lat="45.75829" lon="6.53631">
        <ele>1655</ele>
        <time>2022-07-24T06:20:51Z</time>
      </trkpt>
      <trkpt lat="45.75829" lon="6.53633">
        <ele>1655</ele>
        <time>2022-07-24T06:20:52Z</time>
      </trkpt>
      <trkpt lat="45.75828" lon="6.53634">
        <ele>1655</ele>
        <time>2022-07-24T06:20:53Z</time>
      </trkpt>
      <trkpt lat="45.75828" lon="6.53636">
        <ele>1655</ele>
        <time>2022-07-24T06:20:54Z</time>
      </trkpt>
      <trkpt lat="45.75827" lon="6.53637">
        <ele>1655</ele>
        <time>2022-07-24T06:20:55Z</time>
      </trkpt>
      <trkpt lat="45.75827" lon="6.53639">
        <ele>1655</ele>
        <time>2022-07-24T06:20:56Z</time>
      </trkpt>
      <trkpt lat="45.75826" lon="6.53641">
        <ele>1655</ele>
        <time>2022-07-24T06:20:57Z</time>
      </trkpt>
      <trkpt lat="45.75825" lon="6.53642">
        <ele>1655</ele>
        <time>2022-07-24T06:20:58Z</time>
      </trkpt>
      <trkpt lat="45.75825" lon="6.53643">
        <ele>1655</ele>
        <time>2022-07-24T06:20:59Z</time>
      </trkpt>
      <trkpt lat="45.75824" lon="6.53645">
        <ele>1655</ele>
        <time>2022-07-24T06:21:00Z</time>
      </trkpt>
      <trkpt lat="45.75824" lon="6.53646">
        <ele>1655</ele>
        <time>2022-07-24T06:21:01Z</time>
      </trkpt>
      <trkpt lat="45.75823" lon="6.53648">
        <ele>1655</ele>
        <time>2022-07-24T06:21:02Z</time>
      </trkpt>
      <trkpt lat="45.75823" lon="6.53649">
        <ele>1655</ele>
        <time>2022-07-24T06:21:03Z</time>
      </trkpt>
      <trkpt lat="45.75822" lon="6.53651">
        <ele>1655</ele>
        <time>2022-07-24T06:21:04Z</time>
      </trkpt>
      <trkpt lat="45.75822" lon="6.53652">
        <ele>1654</ele>
        <time>2022-07-24T06:21:05Z</time>
      </trkpt>
      <trkpt lat="45.75821" lon="6.53654">
        <ele>1654</ele>
        <time>2022-07-24T06:21:06Z</time>
      </trkpt>
      <trkpt lat="45.75821" lon="6.53655">
        <ele>1654</ele>
        <time>2022-07-24T06:21:07Z</time>
      </trkpt>
      <trkpt lat="45.7582" lon="6.53657">
        <ele>1654</ele>
        <time>2022-07-24T06:21:08Z</time>
      </trkpt>
      <trkpt lat="45.7582" lon="6.53658">
        <ele>1654</ele>
        <time>2022-07-24T06:21:09Z</time>
      </trkpt>
      <trkpt lat="45.75819" lon="6.5366">
        <ele>1654</ele>
        <time>2022-07-24T06:21:10Z</time>
      </trkpt>
      <trkpt lat="45.75819" lon="6.53661">
        <ele>1654</ele>
        <time>2022-07-24T06:21:11Z</time>
      </trkpt>
      <trkpt lat="45.75818" lon="6.53663">
        <ele>1654</ele>
        <time>2022-07-24T06:21:12Z</time>
      </trkpt>
      <trkpt lat="45.75817" lon="6.53665">
        <ele>1654</ele>
        <time>2022-07-24T06:21:13Z</time>
      </trkpt>
      <trkpt lat="45.75817" lon="6.53666">
        <ele>1654</ele>
        <time>2022-07-24T06:21:14Z</time>
      </trkpt>
      <trkpt lat="45.75816" lon="6.53668">
        <ele>1653</ele>
        <time>2022-07-24T06:21:15Z</time>
      </trkpt>
      <trkpt lat="45.75815" lon="6.53669">
        <ele>1653</ele>
        <time>2022-07-24T06:21:16Z</time>
      </trkpt>
      <trkpt lat="45.75815" lon="6.53671">
        <ele>1653</ele>
        <time>2022-07-24T06:21:17Z</time>
      </trkpt>
      <trkpt lat="45.75814" lon="6.53672">
        <ele>1653</ele>
        <time>2022-07-24T06:21:18Z</time>
      </trkpt>
      <trkpt lat="45.75813" lon="6.53674">
        <ele>1653</ele>
        <time>2022-07-24T06:21:19Z</time>
      </trkpt>
      <trkpt lat="45.75812" lon="6.53675">
        <ele>1653</ele>
        <time>2022-07-24T06:21:20Z</time>
      </trkpt>
      <trkpt lat="45.75812" lon="6.53677">
        <ele>1653</ele>
        <time>2022-07-24T06:21:21Z</time>
      </trkpt>
      <trkpt lat="45.75811" lon="6.53679">
        <ele>1653</ele>
        <time>2022-07-24T06:21:22Z</time>
      </trkpt>
      <trkpt lat="45.75811" lon="6.5368">
        <ele>1653</ele>
        <time>2022-07-24T06:21:23Z</time>
      </trkpt>
      <trkpt lat="45.7581" lon="6.53682">
        <ele>1653</ele>
        <time>2022-07-24T06:21:24Z</time>
      </trkpt>
      <trkpt lat="45.75809" lon="6.53683">
        <ele>1653</ele>
        <time>2022-07-24T06:21:25Z</time>
      </trkpt>
      <trkpt lat="45.75809" lon="6.53685">
        <ele>1653</ele>
        <time>2022-07-24T06:21:26Z</time>
      </trkpt>
      <trkpt lat="45.75808" lon="6.53686">
        <ele>1653</ele>
        <time>2022-07-24T06:21:27Z</time>
      </trkpt>
      <trkpt lat="45.75808" lon="6.53688">
        <ele>1653</ele>
        <time>2022-07-24T06:21:28Z</time>
      </trkpt>
      <trkpt lat="45.75807" lon="6.53689">
        <ele>1653</ele>
        <time>2022-07-24T06:21:29Z</time>
      </trkpt>
      <trkpt lat="45.75806" lon="6.53691">
        <ele>1652</ele>
        <time>2022-07-24T06:21:30Z</time>
      </trkpt>
      <trkpt lat="45.75806" lon="6.53693">
        <ele>1652</ele>
        <time>2022-07-24T06:21:31Z</time>
      </trkpt>
      <trkpt lat="45.75805" lon="6.53694">
        <ele>1652</ele>
        <time>2022-07-24T06:21:32Z</time>
      </trkpt>
      <trkpt lat="45.75805" lon="6.53696">
        <ele>1652</ele>
        <time>2022-07-24T06:21:33Z</time>
      </trkpt>
      <trkpt lat="45.75804" lon="6.53697">
        <ele>1652</ele>
        <time>2022-07-24T06:21:34Z</time>
      </trkpt>
      <trkpt lat="45.75804" lon="6.53699">
        <ele>1652</ele>
        <time>2022-07-24T06:21:35Z</time>
      </trkpt>
      <trkpt lat="45.75803" lon="6.53701">
        <ele>1652</ele>
        <time>2022-07-24T06:21:36Z</time>
      </trkpt>
      <trkpt lat="45.75803" lon="6.53702">
        <ele>1652</ele>
        <time>2022-07-24T06:21:37Z</time>
      </trkpt>
      <trkpt lat="45.75803" lon="6.53704">
        <ele>1652</ele>
        <time>2022-07-24T06:21:38Z</time>
      </trkpt>
      <trkpt lat="45.75802" lon="6.53705">
        <ele>1652</ele>
        <time>2022-07-24T06:21:39Z</time>
      </trkpt>
      <trkpt lat="45.75802" lon="6.53707">
        <ele>1652</ele>
        <time>2022-07-24T06:21:40Z</time>
      </trkpt>
      <trkpt lat="45.75801" lon="6.53709">
        <ele>1652</ele>
        <time>2022-07-24T06:21:41Z</time>
      </trkpt>
      <trkpt lat="45.75801" lon="6.5371">
        <ele>1652</ele>
        <time>2022-07-24T06:21:42Z</time>
      </trkpt>
      <trkpt lat="45.75801" lon="6.53712">
        <ele>1652</ele>
        <time>2022-07-24T06:21:43Z</time>
      </trkpt>
      <trkpt lat="45.75801" lon="6.53714">
        <ele>1652</ele>
        <time>2022-07-24T06:21:44Z</time>
      </trkpt>
      <trkpt lat="45.758" lon="6.53715">
        <ele>1651</ele>
        <time>2022-07-24T06:21:45Z</time>
      </trkpt>
      <trkpt lat="45.758" lon="6.53717">
        <ele>1651</ele>
        <time>2022-07-24T06:21:46Z</time>
      </trkpt>
      <trkpt lat="45.758" lon="6.53718">
        <ele>1651</ele>
        <time>2022-07-24T06:21:47Z</time>
      </trkpt>
      <trkpt lat="45.758" lon="6.53719">
        <ele>1651</ele>
        <time>2022-07-24T06:21:48Z</time>
      </trkpt>
      <trkpt lat="45.758" lon="6.53721">
        <ele>1651</ele>
        <time>2022-07-24T06:21:49Z</time>
      </trkpt>
      <trkpt lat="45.75799" lon="6.53722">
        <ele>1651</ele>
        <time>2022-07-24T06:21:50Z</time>
      </trkpt>
      <trkpt lat="45.75799" lon="6.53723">
        <ele>1651</ele>
        <time>2022-07-24T06:21:51Z</time>
      </trkpt>
      <trkpt lat="45.75799" lon="6.53725">
        <ele>1651</ele>
        <time>2022-07-24T06:21:52Z</time>
      </trkpt>
      <trkpt lat="45.75799" lon="6.53726">
        <ele>1651</ele>
        <time>2022-07-24T06:21:53Z</time>
      </trkpt>
      <trkpt lat="45.75799" lon="6.53728">
        <ele>1651</ele>
        <time>2022-07-24T06:21:54Z</time>
      </trkpt>
      <trkpt lat="45.75799" lon="6.53729">
        <ele>1651</ele>
        <time>2022-07-24T06:21:55Z</time>
      </trkpt>
      <trkpt lat="45.75799" lon="6.53731">
        <ele>1651</ele>
        <time>2022-07-24T06:21:56Z</time>
      </trkpt>
      <trkpt lat="45.75798" lon="6.53733">
        <ele>1651</ele>
        <time>2022-07-24T06:21:57Z</time>
      </trkpt>
      <trkpt lat="45.75798" lon="6.53734">
        <ele>1651</ele>
        <time>2022-07-24T06:21:58Z</time>
      </trkpt>
      <trkpt lat="45.75798" lon="6.53736">
        <ele>1651</ele>
        <time>2022-07-24T06:21:59Z</time>
      </trkpt>
      <trkpt lat="45.75798" lon="6.53738">
        <ele>1651</ele>
        <time>2022-07-24T06:22:00Z</time>
      </trkpt>
      <trkpt lat="45.75797" lon="6.53739">
        <ele>1651</ele>
        <time>2022-07-24T06:22:01Z</time>
      </trkpt>
      <trkpt lat="45.75797" lon="6.53741">
        <ele>1651</ele>
        <time>2022-07-24T06:22:02Z</time>
      </trkpt>
      <trkpt lat="45.75796" lon="6.53743">
        <ele>1651</ele>
        <time>2022-07-24T06:22:03Z</time>
      </trkpt>
      <trkpt lat="45.75796" lon="6.53745">
        <ele>1651</ele>
        <time>2022-07-24T06:22:04Z</time>
      </trkpt>
      <trkpt lat="45.75795" lon="6.53747">
        <ele>1651</ele>
        <time>2022-07-24T06:22:05Z</time>
      </trkpt>
      <trkpt lat="45.75794" lon="6.53749">
        <ele>1651</ele>
        <time>2022-07-24T06:22:06Z</time>
      </trkpt>
      <trkpt lat="45.75794" lon="6.5375">
        <ele>1651</ele>
        <time>2022-07-24T06:22:07Z</time>
      </trkpt>
      <trkpt lat="45.75793" lon="6.53752">
        <ele>1651</ele>
        <time>2022-07-24T06:22:08Z</time>
      </trkpt>
      <trkpt lat="45.75792" lon="6.53754">
        <ele>1651</ele>
        <time>2022-07-24T06:22:09Z</time>
      </trkpt>
      <trkpt lat="45.75792" lon="6.53756">
        <ele>1650</ele>
        <time>2022-07-24T06:22:10Z</time>
      </trkpt>
      <trkpt lat="45.75791" lon="6.53757">
        <ele>1650</ele>
        <time>2022-07-24T06:22:11Z</time>
      </trkpt>
      <trkpt lat="45.7579" lon="6.53759">
        <ele>1650</ele>
        <time>2022-07-24T06:22:12Z</time>
      </trkpt>
      <trkpt lat="45.7579" lon="6.53761">
        <ele>1650</ele>
        <time>2022-07-24T06:22:13Z</time>
      </trkpt>
      <trkpt lat="45.75789" lon="6.53762">
        <ele>1650</ele>
        <time>2022-07-24T06:22:14Z</time>
      </trkpt>
      <trkpt lat="45.75789" lon="6.53764">
        <ele>1649</ele>
        <time>2022-07-24T06:22:15Z</time>
      </trkpt>
      <trkpt lat="45.75788" lon="6.53766">
        <ele>1649</ele>
        <time>2022-07-24T06:22:16Z</time>
      </trkpt>
      <trkpt lat="45.75788" lon="6.53768">
        <ele>1649</ele>
        <time>2022-07-24T06:22:17Z</time>
      </trkpt>
      <trkpt lat="45.75787" lon="6.5377">
        <ele>1649</ele>
        <time>2022-07-24T06:22:18Z</time>
      </trkpt>
      <trkpt lat="45.75787" lon="6.53772">
        <ele>1649</ele>
        <time>2022-07-24T06:22:19Z</time>
      </trkpt>
      <trkpt lat="45.75786" lon="6.53774">
        <ele>1649</ele>
        <time>2022-07-24T06:22:20Z</time>
      </trkpt>
      <trkpt lat="45.75785" lon="6.53776">
        <ele>1649</ele>
        <time>2022-07-24T06:22:21Z</time>
      </trkpt>
      <trkpt lat="45.75784" lon="6.53777">
        <ele>1649</ele>
        <time>2022-07-24T06:22:22Z</time>
      </trkpt>
      <trkpt lat="45.75784" lon="6.53779">
        <ele>1649</ele>
        <time>2022-07-24T06:22:23Z</time>
      </trkpt>
      <trkpt lat="45.75783" lon="6.53781">
        <ele>1649</ele>
        <time>2022-07-24T06:22:24Z</time>
      </trkpt>
      <trkpt lat="45.75782" lon="6.53782">
        <ele>1649</ele>
        <time>2022-07-24T06:22:25Z</time>
      </trkpt>
      <trkpt lat="45.75781" lon="6.53783">
        <ele>1649</ele>
        <time>2022-07-24T06:22:26Z</time>
      </trkpt>
      <trkpt lat="45.75781" lon="6.53785">
        <ele>1649</ele>
        <time>2022-07-24T06:22:27Z</time>
      </trkpt>
      <trkpt lat="45.7578" lon="6.53786">
        <ele>1649</ele>
        <time>2022-07-24T06:22:28Z</time>
      </trkpt>
      <trkpt lat="45.7578" lon="6.53788">
        <ele>1649</ele>
        <time>2022-07-24T06:22:29Z</time>
      </trkpt>
      <trkpt lat="45.75779" lon="6.53789">
        <ele>1648</ele>
        <time>2022-07-24T06:22:30Z</time>
      </trkpt>
      <trkpt lat="45.75778" lon="6.53791">
        <ele>1648</ele>
        <time>2022-07-24T06:22:31Z</time>
      </trkpt>
      <trkpt lat="45.75777" lon="6.53792">
        <ele>1648</ele>
        <time>2022-07-24T06:22:32Z</time>
      </trkpt>
      <trkpt lat="45.75777" lon="6.53794">
        <ele>1648</ele>
        <time>2022-07-24T06:22:33Z</time>
      </trkpt>
      <trkpt lat="45.75776" lon="6.53795">
        <ele>1648</ele>
        <time>2022-07-24T06:22:34Z</time>
      </trkpt>
      <trkpt lat="45.75775" lon="6.53796">
        <ele>1648</ele>
        <time>2022-07-24T06:22:35Z</time>
      </trkpt>
      <trkpt lat="45.75775" lon="6.53798">
        <ele>1648</ele>
        <time>2022-07-24T06:22:36Z</time>
      </trkpt>
      <trkpt lat="45.75774" lon="6.53799">
        <ele>1648</ele>
        <time>2022-07-24T06:22:37Z</time>
      </trkpt>
      <trkpt lat="45.75773" lon="6.53801">
        <ele>1648</ele>
        <time>2022-07-24T06:22:38Z</time>
      </trkpt>
      <trkpt lat="45.75772" lon="6.53802">
        <ele>1648</ele>
        <time>2022-07-24T06:22:39Z</time>
      </trkpt>
      <trkpt lat="45.75772" lon="6.53803">
        <ele>1647</ele>
        <time>2022-07-24T06:22:40Z</time>
      </trkpt>
      <trkpt lat="45.75771" lon="6.53805">
        <ele>1647</ele>
        <time>2022-07-24T06:22:41Z</time>
      </trkpt>
      <trkpt lat="45.7577" lon="6.53806">
        <ele>1647</ele>
        <time>2022-07-24T06:22:42Z</time>
      </trkpt>
      <trkpt lat="45.75769" lon="6.53808">
        <ele>1647</ele>
        <time>2022-07-24T06:22:43Z</time>
      </trkpt>
      <trkpt lat="45.75769" lon="6.53809">
        <ele>1647</ele>
        <time>2022-07-24T06:22:44Z</time>
      </trkpt>
      <trkpt lat="45.75768" lon="6.5381">
        <ele>1647</ele>
        <time>2022-07-24T06:22:45Z</time>
      </trkpt>
      <trkpt lat="45.75767" lon="6.53812">
        <ele>1647</ele>
        <time>2022-07-24T06:22:46Z</time>
      </trkpt>
      <trkpt lat="45.75766" lon="6.53813">
        <ele>1647</ele>
        <time>2022-07-24T06:22:47Z</time>
      </trkpt>
      <trkpt lat="45.75766" lon="6.53815">
        <ele>1647</ele>
        <time>2022-07-24T06:22:48Z</time>
      </trkpt>
      <trkpt lat="45.75765" lon="6.53816">
        <ele>1647</ele>
        <time>2022-07-24T06:22:49Z</time>
      </trkpt>
      <trkpt lat="45.75764" lon="6.53818">
        <ele>1646</ele>
        <time>2022-07-24T06:22:50Z</time>
      </trkpt>
      <trkpt lat="45.75764" lon="6.5382">
        <ele>1646</ele>
        <time>2022-07-24T06:22:51Z</time>
      </trkpt>
      <trkpt lat="45.75763" lon="6.53822">
        <ele>1646</ele>
        <time>2022-07-24T06:22:52Z</time>
      </trkpt>
      <trkpt lat="45.75763" lon="6.53823">
        <ele>1646</ele>
        <time>2022-07-24T06:22:53Z</time>
      </trkpt>
      <trkpt lat="45.75762" lon="6.53825">
        <ele>1646</ele>
        <time>2022-07-24T06:22:54Z</time>
      </trkpt>
      <trkpt lat="45.75761" lon="6.53826">
        <ele>1646</ele>
        <time>2022-07-24T06:22:55Z</time>
      </trkpt>
      <trkpt lat="45.75761" lon="6.53828">
        <ele>1646</ele>
        <time>2022-07-24T06:22:56Z</time>
      </trkpt>
      <trkpt lat="45.7576" lon="6.53829">
        <ele>1646</ele>
        <time>2022-07-24T06:22:57Z</time>
      </trkpt>
      <trkpt lat="45.7576" lon="6.53831">
        <ele>1646</ele>
        <time>2022-07-24T06:22:58Z</time>
      </trkpt>
      <trkpt lat="45.75759" lon="6.53832">
        <ele>1646</ele>
        <time>2022-07-24T06:22:59Z</time>
      </trkpt>
      <trkpt lat="45.75758" lon="6.53833">
        <ele>1646</ele>
        <time>2022-07-24T06:23:00Z</time>
      </trkpt>
      <trkpt lat="45.75758" lon="6.53835">
        <ele>1646</ele>
        <time>2022-07-24T06:23:01Z</time>
      </trkpt>
      <trkpt lat="45.75757" lon="6.53836">
        <ele>1646</ele>
        <time>2022-07-24T06:23:02Z</time>
      </trkpt>
      <trkpt lat="45.75757" lon="6.53838">
        <ele>1646</ele>
        <time>2022-07-24T06:23:03Z</time>
      </trkpt>
      <trkpt lat="45.75756" lon="6.53839">
        <ele>1646</ele>
        <time>2022-07-24T06:23:04Z</time>
      </trkpt>
      <trkpt lat="45.75756" lon="6.5384">
        <ele>1645</ele>
        <time>2022-07-24T06:23:05Z</time>
      </trkpt>
      <trkpt lat="45.75755" lon="6.53842">
        <ele>1645</ele>
        <time>2022-07-24T06:23:06Z</time>
      </trkpt>
      <trkpt lat="45.75755" lon="6.53843">
        <ele>1645</ele>
        <time>2022-07-24T06:23:07Z</time>
      </trkpt>
      <trkpt lat="45.75754" lon="6.53844">
        <ele>1645</ele>
        <time>2022-07-24T06:23:08Z</time>
      </trkpt>
      <trkpt lat="45.75754" lon="6.53846">
        <ele>1645</ele>
        <time>2022-07-24T06:23:09Z</time>
      </trkpt>
      <trkpt lat="45.75754" lon="6.53847">
        <ele>1645</ele>
        <time>2022-07-24T06:23:10Z</time>
      </trkpt>
      <trkpt lat="45.75753" lon="6.53849">
        <ele>1645</ele>
        <time>2022-07-24T06:23:11Z</time>
      </trkpt>
      <trkpt lat="45.75753" lon="6.53851">
        <ele>1645</ele>
        <time>2022-07-24T06:23:12Z</time>
      </trkpt>
      <trkpt lat="45.75753" lon="6.53852">
        <ele>1645</ele>
        <time>2022-07-24T06:23:13Z</time>
      </trkpt>
      <trkpt lat="45.75752" lon="6.53854">
        <ele>1645</ele>
        <time>2022-07-24T06:23:14Z</time>
      </trkpt>
      <trkpt lat="45.75752" lon="6.53856">
        <ele>1645</ele>
        <time>2022-07-24T06:23:15Z</time>
      </trkpt>
      <trkpt lat="45.75752" lon="6.53857">
        <ele>1645</ele>
        <time>2022-07-24T06:23:16Z</time>
      </trkpt>
      <trkpt lat="45.75751" lon="6.53859">
        <ele>1645</ele>
        <time>2022-07-24T06:23:17Z</time>
      </trkpt>
      <trkpt lat="45.75751" lon="6.53861">
        <ele>1645</ele>
        <time>2022-07-24T06:23:18Z</time>
      </trkpt>
      <trkpt lat="45.7575" lon="6.53863">
        <ele>1645</ele>
        <time>2022-07-24T06:23:19Z</time>
      </trkpt>
      <trkpt lat="45.7575" lon="6.53864">
        <ele>1644</ele>
        <time>2022-07-24T06:23:20Z</time>
      </trkpt>
      <trkpt lat="45.75749" lon="6.53866">
        <ele>1644</ele>
        <time>2022-07-24T06:23:21Z</time>
      </trkpt>
      <trkpt lat="45.75749" lon="6.53868">
        <ele>1644</ele>
        <time>2022-07-24T06:23:22Z</time>
      </trkpt>
      <trkpt lat="45.75749" lon="6.53869">
        <ele>1644</ele>
        <time>2022-07-24T06:23:23Z</time>
      </trkpt>
      <trkpt lat="45.75748" lon="6.53871">
        <ele>1644</ele>
        <time>2022-07-24T06:23:24Z</time>
      </trkpt>
      <trkpt lat="45.75748" lon="6.53873">
        <ele>1643</ele>
        <time>2022-07-24T06:23:25Z</time>
      </trkpt>
      <trkpt lat="45.75747" lon="6.53874">
        <ele>1643</ele>
        <time>2022-07-24T06:23:26Z</time>
      </trkpt>
      <trkpt lat="45.75747" lon="6.53876">
        <ele>1643</ele>
        <time>2022-07-24T06:23:27Z</time>
      </trkpt>
      <trkpt lat="45.75746" lon="6.53877">
        <ele>1643</ele>
        <time>2022-07-24T06:23:28Z</time>
      </trkpt>
      <trkpt lat="45.75745" lon="6.53879">
        <ele>1643</ele>
        <time>2022-07-24T06:23:29Z</time>
      </trkpt>
      <trkpt lat="45.75745" lon="6.53881">
        <ele>1643</ele>
        <time>2022-07-24T06:23:30Z</time>
      </trkpt>
      <trkpt lat="45.75745" lon="6.53882">
        <ele>1643</ele>
        <time>2022-07-24T06:23:31Z</time>
      </trkpt>
      <trkpt lat="45.75744" lon="6.53884">
        <ele>1643</ele>
        <time>2022-07-24T06:23:32Z</time>
      </trkpt>
      <trkpt lat="45.75744" lon="6.53886">
        <ele>1643</ele>
        <time>2022-07-24T06:23:33Z</time>
      </trkpt>
      <trkpt lat="45.75743" lon="6.53887">
        <ele>1643</ele>
        <time>2022-07-24T06:23:34Z</time>
      </trkpt>
      <trkpt lat="45.75742" lon="6.53889">
        <ele>1642</ele>
        <time>2022-07-24T06:23:35Z</time>
      </trkpt>
      <trkpt lat="45.75742" lon="6.5389">
        <ele>1642</ele>
        <time>2022-07-24T06:23:36Z</time>
      </trkpt>
      <trkpt lat="45.75741" lon="6.53892">
        <ele>1642</ele>
        <time>2022-07-24T06:23:37Z</time>
      </trkpt>
      <trkpt lat="45.7574" lon="6.53893">
        <ele>1642</ele>
        <time>2022-07-24T06:23:38Z</time>
      </trkpt>
      <trkpt lat="45.75739" lon="6.53895">
        <ele>1642</ele>
        <time>2022-07-24T06:23:39Z</time>
      </trkpt>
      <trkpt lat="45.75738" lon="6.53896">
        <ele>1642</ele>
        <time>2022-07-24T06:23:40Z</time>
      </trkpt>
      <trkpt lat="45.75737" lon="6.53897">
        <ele>1642</ele>
        <time>2022-07-24T06:23:41Z</time>
      </trkpt>
      <trkpt lat="45.75736" lon="6.53899">
        <ele>1642</ele>
        <time>2022-07-24T06:23:42Z</time>
      </trkpt>
      <trkpt lat="45.75735" lon="6.539">
        <ele>1642</ele>
        <time>2022-07-24T06:23:43Z</time>
      </trkpt>
      <trkpt lat="45.75734" lon="6.53901">
        <ele>1642</ele>
        <time>2022-07-24T06:23:44Z</time>
      </trkpt>
      <trkpt lat="45.75733" lon="6.53902">
        <ele>1641</ele>
        <time>2022-07-24T06:23:45Z</time>
      </trkpt>
      <trkpt lat="45.75732" lon="6.53903">
        <ele>1641</ele>
        <time>2022-07-24T06:23:46Z</time>
      </trkpt>
      <trkpt lat="45.75731" lon="6.53904">
        <ele>1641</ele>
        <time>2022-07-24T06:23:47Z</time>
      </trkpt>
      <trkpt lat="45.7573" lon="6.53905">
        <ele>1641</ele>
        <time>2022-07-24T06:23:48Z</time>
      </trkpt>
      <trkpt lat="45.75729" lon="6.53906">
        <ele>1641</ele>
        <time>2022-07-24T06:23:49Z</time>
      </trkpt>
      <trkpt lat="45.75728" lon="6.53907">
        <ele>1641</ele>
        <time>2022-07-24T06:23:50Z</time>
      </trkpt>
      <trkpt lat="45.75727" lon="6.53908">
        <ele>1641</ele>
        <time>2022-07-24T06:23:51Z</time>
      </trkpt>
      <trkpt lat="45.75726" lon="6.5391">
        <ele>1641</ele>
        <time>2022-07-24T06:23:52Z</time>
      </trkpt>
      <trkpt lat="45.75726" lon="6.53911">
        <ele>1641</ele>
        <time>2022-07-24T06:23:53Z</time>
      </trkpt>
      <trkpt lat="45.75725" lon="6.53912">
        <ele>1641</ele>
        <time>2022-07-24T06:23:54Z</time>
      </trkpt>
      <trkpt lat="45.75724" lon="6.53913">
        <ele>1641</ele>
        <time>2022-07-24T06:23:55Z</time>
      </trkpt>
      <trkpt lat="45.75723" lon="6.53914">
        <ele>1641</ele>
        <time>2022-07-24T06:23:56Z</time>
      </trkpt>
      <trkpt lat="45.75723" lon="6.53916">
        <ele>1641</ele>
        <time>2022-07-24T06:23:57Z</time>
      </trkpt>
      <trkpt lat="45.75722" lon="6.53917">
        <ele>1641</ele>
        <time>2022-07-24T06:23:58Z</time>
      </trkpt>
      <trkpt lat="45.75721" lon="6.53918">
        <ele>1641</ele>
        <time>2022-07-24T06:23:59Z</time>
      </trkpt>
      <trkpt lat="45.7572" lon="6.53919">
        <ele>1641</ele>
        <time>2022-07-24T06:24:00Z</time>
      </trkpt>
      <trkpt lat="45.7572" lon="6.5392">
        <ele>1641</ele>
        <time>2022-07-24T06:24:01Z</time>
      </trkpt>
      <trkpt lat="45.75719" lon="6.53921">
        <ele>1641</ele>
        <time>2022-07-24T06:24:02Z</time>
      </trkpt>
      <trkpt lat="45.75718" lon="6.53921">
        <ele>1641</ele>
        <time>2022-07-24T06:24:03Z</time>
      </trkpt>
      <trkpt lat="45.75717" lon="6.53922">
        <ele>1641</ele>
        <time>2022-07-24T06:24:04Z</time>
      </trkpt>
      <trkpt lat="45.75716" lon="6.53922">
        <ele>1640</ele>
        <time>2022-07-24T06:24:05Z</time>
      </trkpt>
      <trkpt lat="45.75715" lon="6.53922">
        <ele>1640</ele>
        <time>2022-07-24T06:24:06Z</time>
      </trkpt>
      <trkpt lat="45.75714" lon="6.53922">
        <ele>1640</ele>
        <time>2022-07-24T06:24:07Z</time>
      </trkpt>
      <trkpt lat="45.75713" lon="6.53921">
        <ele>1640</ele>
        <time>2022-07-24T06:24:08Z</time>
      </trkpt>
      <trkpt lat="45.75713" lon="6.53921">
        <ele>1640</ele>
        <time>2022-07-24T06:24:09Z</time>
      </trkpt>
      <trkpt lat="45.75712" lon="6.53922">
        <ele>1640</ele>
        <time>2022-07-24T06:24:10Z</time>
      </trkpt>
      <trkpt lat="45.75711" lon="6.53922">
        <ele>1640</ele>
        <time>2022-07-24T06:24:11Z</time>
      </trkpt>
      <trkpt lat="45.75711" lon="6.53923">
        <ele>1640</ele>
        <time>2022-07-24T06:24:12Z</time>
      </trkpt>
      <trkpt lat="45.7571" lon="6.53924">
        <ele>1640</ele>
        <time>2022-07-24T06:24:13Z</time>
      </trkpt>
      <trkpt lat="45.7571" lon="6.53926">
        <ele>1640</ele>
        <time>2022-07-24T06:24:14Z</time>
      </trkpt>
      <trkpt lat="45.7571" lon="6.53927">
        <ele>1640</ele>
        <time>2022-07-24T06:24:15Z</time>
      </trkpt>
      <trkpt lat="45.7571" lon="6.53929">
        <ele>1640</ele>
        <time>2022-07-24T06:24:16Z</time>
      </trkpt>
      <trkpt lat="45.7571" lon="6.5393">
        <ele>1640</ele>
        <time>2022-07-24T06:24:17Z</time>
      </trkpt>
      <trkpt lat="45.7571" lon="6.53932">
        <ele>1640</ele>
        <time>2022-07-24T06:24:18Z</time>
      </trkpt>
      <trkpt lat="45.7571" lon="6.53933">
        <ele>1640</ele>
        <time>2022-07-24T06:24:19Z</time>
      </trkpt>
      <trkpt lat="45.75709" lon="6.53934">
        <ele>1640</ele>
        <time>2022-07-24T06:24:20Z</time>
      </trkpt>
      <trkpt lat="45.75709" lon="6.53936">
        <ele>1640</ele>
        <time>2022-07-24T06:24:21Z</time>
      </trkpt>
      <trkpt lat="45.75709" lon="6.53936">
        <ele>1640</ele>
        <time>2022-07-24T06:24:22Z</time>
      </trkpt>
      <trkpt lat="45.75709" lon="6.53937">
        <ele>1640</ele>
        <time>2022-07-24T06:24:23Z</time>
      </trkpt>
      <trkpt lat="45.75708" lon="6.53938">
        <ele>1640</ele>
        <time>2022-07-24T06:24:24Z</time>
      </trkpt>
      <trkpt lat="45.75708" lon="6.53939">
        <ele>1640</ele>
        <time>2022-07-24T06:24:25Z</time>
      </trkpt>
      <trkpt lat="45.75707" lon="6.5394">
        <ele>1640</ele>
        <time>2022-07-24T06:24:26Z</time>
      </trkpt>
      <trkpt lat="45.75707" lon="6.5394">
        <ele>1640</ele>
        <time>2022-07-24T06:24:27Z</time>
      </trkpt>
      <trkpt lat="45.75705" lon="6.53941">
        <ele>1640</ele>
        <time>2022-07-24T06:24:35Z</time>
      </trkpt>
      <trkpt lat="45.75705" lon="6.53941">
        <ele>1640</ele>
        <time>2022-07-24T06:24:36Z</time>
      </trkpt>
      <trkpt lat="45.75704" lon="6.5394">
        <ele>1640</ele>
        <time>2022-07-24T06:24:37Z</time>
      </trkpt>
      <trkpt lat="45.75704" lon="6.5394">
        <ele>1640</ele>
        <time>2022-07-24T06:24:38Z</time>
      </trkpt>
      <trkpt lat="45.75704" lon="6.5394">
        <ele>1640</ele>
        <time>2022-07-24T06:24:39Z</time>
      </trkpt>
      <trkpt lat="45.75705" lon="6.5394">
        <ele>1640</ele>
        <time>2022-07-24T06:24:40Z</time>
      </trkpt>
      <trkpt lat="45.75705" lon="6.5394">
        <ele>1640</ele>
        <time>2022-07-24T06:24:41Z</time>
      </trkpt>
      <trkpt lat="45.75705" lon="6.5394">
        <ele>1640</ele>
        <time>2022-07-24T06:24:42Z</time>
      </trkpt>
      <trkpt lat="45.75705" lon="6.5394">
        <ele>1640</ele>
        <time>2022-07-24T06:24:43Z</time>
      </trkpt>
      <trkpt lat="45.75706" lon="6.5394">
        <ele>1640</ele>
        <time>2022-07-24T06:24:44Z</time>
      </trkpt>
      <trkpt lat="45.75708" lon="6.5394">
        <ele>1640</ele>
        <time>2022-07-24T06:25:09Z</time>
      </trkpt>
      <trkpt lat="45.75709" lon="6.5394">
        <ele>1640</ele>
        <time>2022-07-24T06:25:10Z</time>
      </trkpt>
      <trkpt lat="45.7571" lon="6.5394">
        <ele>1640</ele>
        <time>2022-07-24T06:25:11Z</time>
      </trkpt>
      <trkpt lat="45.75711" lon="6.53941">
        <ele>1640</ele>
        <time>2022-07-24T06:25:12Z</time>
      </trkpt>
      <trkpt lat="45.75712" lon="6.53942">
        <ele>1640</ele>
        <time>2022-07-24T06:25:13Z</time>
      </trkpt>
      <trkpt lat="45.75713" lon="6.53943">
        <ele>1640</ele>
        <time>2022-07-24T06:25:14Z</time>
      </trkpt>
      <trkpt lat="45.75714" lon="6.53944">
        <ele>1639</ele>
        <time>2022-07-24T06:25:15Z</time>
      </trkpt>
      <trkpt lat="45.75715" lon="6.53945">
        <ele>1639</ele>
        <time>2022-07-24T06:25:16Z</time>
      </trkpt>
      <trkpt lat="45.75716" lon="6.53945">
        <ele>1639</ele>
        <time>2022-07-24T06:25:17Z</time>
      </trkpt>
      <trkpt lat="45.75717" lon="6.53946">
        <ele>1639</ele>
        <time>2022-07-24T06:25:18Z</time>
      </trkpt>
      <trkpt lat="45.75718" lon="6.53947">
        <ele>1639</ele>
        <time>2022-07-24T06:25:19Z</time>
      </trkpt>
      <trkpt lat="45.75719" lon="6.53947">
        <ele>1639</ele>
        <time>2022-07-24T06:25:20Z</time>
      </trkpt>
      <trkpt lat="45.7572" lon="6.53947">
        <ele>1639</ele>
        <time>2022-07-24T06:25:21Z</time>
      </trkpt>
      <trkpt lat="45.75727" lon="6.53945">
        <ele>1640</ele>
        <time>2022-07-24T06:30:05Z</time>
      </trkpt>
      <trkpt lat="45.7573" lon="6.53943">
        <ele>1640</ele>
        <time>2022-07-24T06:30:06Z</time>
      </trkpt>
      <trkpt lat="45.75733" lon="6.53941">
        <ele>1640</ele>
        <time>2022-07-24T06:30:07Z</time>
      </trkpt>
      <trkpt lat="45.75734" lon="6.53941">
        <ele>1640</ele>
        <time>2022-07-24T06:30:08Z</time>
      </trkpt>
      <trkpt lat="45.75734" lon="6.5394">
        <ele>1641</ele>
        <time>2022-07-24T06:30:09Z</time>
      </trkpt>
      <trkpt lat="45.75733" lon="6.5394">
        <ele>1640</ele>
        <time>2022-07-24T06:30:10Z</time>
      </trkpt>
      <trkpt lat="45.75732" lon="6.53939">
        <ele>1640</ele>
        <time>2022-07-24T06:30:11Z</time>
      </trkpt>
      <trkpt lat="45.75731" lon="6.5394">
        <ele>1640</ele>
        <time>2022-07-24T06:30:12Z</time>
      </trkpt>
      <trkpt lat="45.75731" lon="6.5394">
        <ele>1640</ele>
        <time>2022-07-24T06:30:13Z</time>
      </trkpt>
      <trkpt lat="45.7573" lon="6.5394">
        <ele>1640</ele>
        <time>2022-07-24T06:30:14Z</time>
      </trkpt>
      <trkpt lat="45.75729" lon="6.53941">
        <ele>1640</ele>
        <time>2022-07-24T06:30:15Z</time>
      </trkpt>
      <trkpt lat="45.75728" lon="6.53942">
        <ele>1640</ele>
        <time>2022-07-24T06:30:16Z</time>
      </trkpt>
      <trkpt lat="45.75727" lon="6.53943">
        <ele>1640</ele>
        <time>2022-07-24T06:30:24Z</time>
      </trkpt>
      <trkpt lat="45.75727" lon="6.53943">
        <ele>1640</ele>
        <time>2022-07-24T06:30:25Z</time>
      </trkpt>
      <trkpt lat="45.75726" lon="6.53943">
        <ele>1640</ele>
        <time>2022-07-24T06:30:26Z</time>
      </trkpt>
      <trkpt lat="45.75726" lon="6.53943">
        <ele>1640</ele>
        <time>2022-07-24T06:30:27Z</time>
      </trkpt>
      <trkpt lat="45.75726" lon="6.53943">
        <ele>1640</ele>
        <time>2022-07-24T06:30:28Z</time>
      </trkpt>
      <trkpt lat="45.75725" lon="6.53943">
        <ele>1640</ele>
        <time>2022-07-24T06:30:29Z</time>
      </trkpt>
      <trkpt lat="45.75723" lon="6.53943">
        <ele>1640</ele>
        <time>2022-07-24T06:30:30Z</time>
      </trkpt>
      <trkpt lat="45.75721" lon="6.53943">
        <ele>1640</ele>
        <time>2022-07-24T06:30:31Z</time>
      </trkpt>
      <trkpt lat="45.75719" lon="6.53943">
        <ele>1640</ele>
        <time>2022-07-24T06:30:32Z</time>
      </trkpt>
      <trkpt lat="45.75717" lon="6.53943">
        <ele>1640</ele>
        <time>2022-07-24T06:30:33Z</time>
      </trkpt>
      <trkpt lat="45.75713" lon="6.53943">
        <ele>1640</ele>
        <time>2022-07-24T06:30:39Z</time>
      </trkpt>
      <trkpt lat="45.75712" lon="6.53944">
        <ele>1640</ele>
        <time>2022-07-24T06:30:40Z</time>
      </trkpt>
      <trkpt lat="45.75711" lon="6.53945">
        <ele>1640</ele>
        <time>2022-07-24T06:30:41Z</time>
      </trkpt>
      <trkpt lat="45.75704" lon="6.53948">
        <ele>1640</ele>
        <time>2022-07-24T06:31:29Z</time>
      </trkpt>
      <trkpt lat="45.75702" lon="6.5395">
        <ele>1640</ele>
        <time>2022-07-24T06:31:30Z</time>
      </trkpt>
      <trkpt lat="45.75699" lon="6.53951">
        <ele>1640</ele>
        <time>2022-07-24T06:31:31Z</time>
      </trkpt>
      <trkpt lat="45.75699" lon="6.53952">
        <ele>1640</ele>
        <time>2022-07-24T06:31:42Z</time>
      </trkpt>
      <trkpt lat="45.75699" lon="6.53953">
        <ele>1640</ele>
        <time>2022-07-24T06:31:43Z</time>
      </trkpt>
      <trkpt lat="45.75699" lon="6.53953">
        <ele>1640</ele>
        <time>2022-07-24T06:31:44Z</time>
      </trkpt>
      <trkpt lat="45.75699" lon="6.53954">
        <ele>1640</ele>
        <time>2022-07-24T06:31:45Z</time>
      </trkpt>
      <trkpt lat="45.75699" lon="6.53955">
        <ele>1640</ele>
        <time>2022-07-24T06:31:46Z</time>
      </trkpt>
      <trkpt lat="45.75698" lon="6.53957">
        <ele>1640</ele>
        <time>2022-07-24T06:31:47Z</time>
      </trkpt>
      <trkpt lat="45.75698" lon="6.53958">
        <ele>1640</ele>
        <time>2022-07-24T06:31:48Z</time>
      </trkpt>
      <trkpt lat="45.75698" lon="6.53962">
        <ele>1640</ele>
        <time>2022-07-24T06:31:49Z</time>
      </trkpt>
      <trkpt lat="45.75697" lon="6.53965">
        <ele>1640</ele>
        <time>2022-07-24T06:31:50Z</time>
      </trkpt>
      <trkpt lat="45.75697" lon="6.53969">
        <ele>1640</ele>
        <time>2022-07-24T06:31:51Z</time>
      </trkpt>
      <trkpt lat="45.75697" lon="6.53972">
        <ele>1640</ele>
        <time>2022-07-24T06:31:52Z</time>
      </trkpt>
      <trkpt lat="45.75697" lon="6.53974">
        <ele>1640</ele>
        <time>2022-07-24T06:31:53Z</time>
      </trkpt>
      <trkpt lat="45.75698" lon="6.53976">
        <ele>1641</ele>
        <time>2022-07-24T06:31:54Z</time>
      </trkpt>
      <trkpt lat="45.75698" lon="6.53975">
        <ele>1641</ele>
        <time>2022-07-24T06:31:55Z</time>
      </trkpt>
      <trkpt lat="45.75697" lon="6.53975">
        <ele>1641</ele>
        <time>2022-07-24T06:31:56Z</time>
      </trkpt>
      <trkpt lat="45.75697" lon="6.53973">
        <ele>1641</ele>
        <time>2022-07-24T06:31:57Z</time>
      </trkpt>
      <trkpt lat="45.75697" lon="6.53972">
        <ele>1641</ele>
        <time>2022-07-24T06:31:58Z</time>
      </trkpt>
      <trkpt lat="45.75698" lon="6.53969">
        <ele>1641</ele>
        <time>2022-07-24T06:31:59Z</time>
      </trkpt>
      <trkpt lat="45.75698" lon="6.53966">
        <ele>1641</ele>
        <time>2022-07-24T06:32:00Z</time>
      </trkpt>
      <trkpt lat="45.75698" lon="6.53965">
        <ele>1641</ele>
        <time>2022-07-24T06:32:01Z</time>
      </trkpt>
      <trkpt lat="45.75698" lon="6.53964">
        <ele>1641</ele>
        <time>2022-07-24T06:32:02Z</time>
      </trkpt>
      <trkpt lat="45.75698" lon="6.53964">
        <ele>1641</ele>
        <time>2022-07-24T06:32:03Z</time>
      </trkpt>
      <trkpt lat="45.75698" lon="6.53963">
        <ele>1641</ele>
        <time>2022-07-24T06:32:04Z</time>
      </trkpt>
      <trkpt lat="45.75698" lon="6.53962">
        <ele>1641</ele>
        <time>2022-07-24T06:32:05Z</time>
      </trkpt>
      <trkpt lat="45.75698" lon="6.53961">
        <ele>1641</ele>
        <time>2022-07-24T06:32:06Z</time>
      </trkpt>
      <trkpt lat="45.75697" lon="6.53959">
        <ele>1641</ele>
        <time>2022-07-24T06:32:07Z</time>
      </trkpt>
      <trkpt lat="45.75697" lon="6.53958">
        <ele>1641</ele>
        <time>2022-07-24T06:32:08Z</time>
      </trkpt>
      <trkpt lat="45.75697" lon="6.53957">
        <ele>1641</ele>
        <time>2022-07-24T06:32:09Z</time>
      </trkpt>
      <trkpt lat="45.75696" lon="6.53956">
        <ele>1641</ele>
        <time>2022-07-24T06:32:10Z</time>
      </trkpt>
      <trkpt lat="45.75696" lon="6.53955">
        <ele>1641</ele>
        <time>2022-07-24T06:32:11Z</time>
      </trkpt>
      <trkpt lat="45.75794" lon="6.53919">
        <ele>1640</ele>
        <time>2022-07-24T06:35:28Z</time>
      </trkpt>
      <trkpt lat="45.75793" lon="6.53921">
        <ele>1640</ele>
        <time>2022-07-24T06:35:29Z</time>
      </trkpt>
      <trkpt lat="45.75792" lon="6.53923">
        <ele>1640</ele>
        <time>2022-07-24T06:35:30Z</time>
      </trkpt>
      <trkpt lat="45.75792" lon="6.53924">
        <ele>1640</ele>
        <time>2022-07-24T06:35:31Z</time>
      </trkpt>
      <trkpt lat="45.75791" lon="6.53925">
        <ele>1640</ele>
        <time>2022-07-24T06:35:32Z</time>
      </trkpt>
      <trkpt lat="45.7579" lon="6.53925">
        <ele>1640</ele>
        <time>2022-07-24T06:35:33Z</time>
      </trkpt>
      <trkpt lat="45.7579" lon="6.53926">
        <ele>1640</ele>
        <time>2022-07-24T06:35:34Z</time>
      </trkpt>
      <trkpt lat="45.75789" lon="6.53926">
        <ele>1640</ele>
        <time>2022-07-24T06:35:51Z</time>
      </trkpt>
      <trkpt lat="45.75789" lon="6.53927">
        <ele>1640</ele>
        <time>2022-07-24T06:35:52Z</time>
      </trkpt>
      <trkpt lat="45.75788" lon="6.53927">
        <ele>1640</ele>
        <time>2022-07-24T06:35:53Z</time>
      </trkpt>
      <trkpt lat="45.75788" lon="6.53927">
        <ele>1640</ele>
        <time>2022-07-24T06:35:54Z</time>
      </trkpt>
      <trkpt lat="45.75788" lon="6.53927">
        <ele>1640</ele>
        <time>2022-07-24T06:35:55Z</time>
      </trkpt>
      <trkpt lat="45.75787" lon="6.53927">
        <ele>1640</ele>
        <time>2022-07-24T06:35:56Z</time>
      </trkpt>
      <trkpt lat="45.75787" lon="6.53927">
        <ele>1640</ele>
        <time>2022-07-24T06:35:57Z</time>
      </trkpt>
      <trkpt lat="45.75787" lon="6.53927">
        <ele>1640</ele>
        <time>2022-07-24T06:35:58Z</time>
      </trkpt>
      <trkpt lat="45.75786" lon="6.53926">
        <ele>1640</ele>
        <time>2022-07-24T06:35:59Z</time>
      </trkpt>
      <trkpt lat="45.75785" lon="6.53926">
        <ele>1640</ele>
        <time>2022-07-24T06:36:00Z</time>
      </trkpt>
      <trkpt lat="45.75785" lon="6.53926">
        <ele>1640</ele>
        <time>2022-07-24T06:36:01Z</time>
      </trkpt>
      <trkpt lat="45.75783" lon="6.53927">
        <ele>1640</ele>
        <time>2022-07-24T06:36:02Z</time>
      </trkpt>
      <trkpt lat="45.75782" lon="6.53927">
        <ele>1640</ele>
        <time>2022-07-24T06:36:03Z</time>
      </trkpt>
      <trkpt lat="45.7578" lon="6.53927">
        <ele>1640</ele>
        <time>2022-07-24T06:36:04Z</time>
      </trkpt>
      <trkpt lat="45.75779" lon="6.53928">
        <ele>1640</ele>
        <time>2022-07-24T06:36:05Z</time>
      </trkpt>
      <trkpt lat="45.75777" lon="6.53928">
        <ele>1640</ele>
        <time>2022-07-24T06:36:06Z</time>
      </trkpt>
      <trkpt lat="45.75776" lon="6.53929">
        <ele>1640</ele>
        <time>2022-07-24T06:36:07Z</time>
      </trkpt>
      <trkpt lat="45.75774" lon="6.53929">
        <ele>1640</ele>
        <time>2022-07-24T06:36:08Z</time>
      </trkpt>
      <trkpt lat="45.75773" lon="6.53929">
        <ele>1640</ele>
        <time>2022-07-24T06:36:09Z</time>
      </trkpt>
      <trkpt lat="45.75772" lon="6.53929">
        <ele>1640</ele>
        <time>2022-07-24T06:36:10Z</time>
      </trkpt>
      <trkpt lat="45.7577" lon="6.5393">
        <ele>1640</ele>
        <time>2022-07-24T06:36:11Z</time>
      </trkpt>
      <trkpt lat="45.75769" lon="6.5393">
        <ele>1640</ele>
        <time>2022-07-24T06:36:12Z</time>
      </trkpt>
      <trkpt lat="45.75767" lon="6.5393">
        <ele>1640</ele>
        <time>2022-07-24T06:36:13Z</time>
      </trkpt>
      <trkpt lat="45.75766" lon="6.53931">
        <ele>1640</ele>
        <time>2022-07-24T06:36:14Z</time>
      </trkpt>
      <trkpt lat="45.75764" lon="6.53931">
        <ele>1640</ele>
        <time>2022-07-24T06:36:15Z</time>
      </trkpt>
      <trkpt lat="45.75762" lon="6.53931">
        <ele>1640</ele>
        <time>2022-07-24T06:36:16Z</time>
      </trkpt>
      <trkpt lat="45.75761" lon="6.53932">
        <ele>1640</ele>
        <time>2022-07-24T06:36:17Z</time>
      </trkpt>
      <trkpt lat="45.75759" lon="6.53932">
        <ele>1640</ele>
        <time>2022-07-24T06:36:18Z</time>
      </trkpt>
      <trkpt lat="45.75758" lon="6.53931">
        <ele>1640</ele>
        <time>2022-07-24T06:36:19Z</time>
      </trkpt>
      <trkpt lat="45.75757" lon="6.53931">
        <ele>1640</ele>
        <time>2022-07-24T06:36:20Z</time>
      </trkpt>
      <trkpt lat="45.75756" lon="6.53931">
        <ele>1640</ele>
        <time>2022-07-24T06:36:21Z</time>
      </trkpt>
      <trkpt lat="45.75755" lon="6.53931">
        <ele>1640</ele>
        <time>2022-07-24T06:36:22Z</time>
      </trkpt>
      <trkpt lat="45.75754" lon="6.53931">
        <ele>1640</ele>
        <time>2022-07-24T06:36:23Z</time>
      </trkpt>
      <trkpt lat="45.75753" lon="6.53931">
        <ele>1640</ele>
        <time>2022-07-24T06:36:29Z</time>
      </trkpt>
      <trkpt lat="45.75752" lon="6.53932">
        <ele>1640</ele>
        <time>2022-07-24T06:36:30Z</time>
      </trkpt>
      <trkpt lat="45.75752" lon="6.53932">
        <ele>1640</ele>
        <time>2022-07-24T06:36:31Z</time>
      </trkpt>
      <trkpt lat="45.75751" lon="6.53932">
        <ele>1640</ele>
        <time>2022-07-24T06:36:32Z</time>
      </trkpt>
      <trkpt lat="45.75751" lon="6.53932">
        <ele>1640</ele>
        <time>2022-07-24T06:36:33Z</time>
      </trkpt>
      <trkpt lat="45.7575" lon="6.53932">
        <ele>1640</ele>
        <time>2022-07-24T06:36:34Z</time>
      </trkpt>
      <trkpt lat="45.7575" lon="6.53933">
        <ele>1640</ele>
        <time>2022-07-24T06:36:35Z</time>
      </trkpt>
      <trkpt lat="45.75749" lon="6.53933">
        <ele>1640</ele>
        <time>2022-07-24T06:36:36Z</time>
      </trkpt>
      <trkpt lat="45.75743" lon="6.53932">
        <ele>1640</ele>
        <time>2022-07-24T06:38:25Z</time>
      </trkpt>
      <trkpt lat="45.7574" lon="6.53931">
        <ele>1640</ele>
        <time>2022-07-24T06:38:26Z</time>
      </trkpt>
      <trkpt lat="45.75737" lon="6.5393">
        <ele>1640</ele>
        <time>2022-07-24T06:38:27Z</time>
      </trkpt>
      <trkpt lat="45.75735" lon="6.5393">
        <ele>1640</ele>
        <time>2022-07-24T06:38:28Z</time>
      </trkpt>
      <trkpt lat="45.75734" lon="6.5393">
        <ele>1640</ele>
        <time>2022-07-24T06:38:29Z</time>
      </trkpt>
      <trkpt lat="45.75732" lon="6.5393">
        <ele>1640</ele>
        <time>2022-07-24T06:38:30Z</time>
      </trkpt>
      <trkpt lat="45.7573" lon="6.5393">
        <ele>1640</ele>
        <time>2022-07-24T06:38:31Z</time>
      </trkpt>
      <trkpt lat="45.7571" lon="6.53934">
        <ele>1640</ele>
        <time>2022-07-24T07:09:35Z</time>
      </trkpt>
      <trkpt lat="45.7571" lon="6.53933">
        <ele>1640</ele>
        <time>2022-07-24T07:09:36Z</time>
      </trkpt>
      <trkpt lat="45.7571" lon="6.53933">
        <ele>1640</ele>
        <time>2022-07-24T07:09:37Z</time>
      </trkpt>
      <trkpt lat="45.7571" lon="6.53932">
        <ele>1640</ele>
        <time>2022-07-24T07:09:38Z</time>
      </trkpt>
      <trkpt lat="45.7571" lon="6.53931">
        <ele>1640</ele>
        <time>2022-07-24T07:09:39Z</time>
      </trkpt>
      <trkpt lat="45.7571" lon="6.5393">
        <ele>1640</ele>
        <time>2022-07-24T07:09:40Z</time>
      </trkpt>
      <trkpt lat="45.75709" lon="6.53929">
        <ele>1640</ele>
        <time>2022-07-24T07:09:41Z</time>
      </trkpt>
      <trkpt lat="45.75709" lon="6.53928">
        <ele>1640</ele>
        <time>2022-07-24T07:09:42Z</time>
      </trkpt>
      <trkpt lat="45.75709" lon="6.53926">
        <ele>1640</ele>
        <time>2022-07-24T07:09:43Z</time>
      </trkpt>
      <trkpt lat="45.75709" lon="6.53925">
        <ele>1640</ele>
        <time>2022-07-24T07:09:44Z</time>
      </trkpt>
      <trkpt lat="45.75709" lon="6.53924">
        <ele>1640</ele>
        <time>2022-07-24T07:09:45Z</time>
      </trkpt>
      <trkpt lat="45.7571" lon="6.53922">
        <ele>1640</ele>
        <time>2022-07-24T07:09:46Z</time>
      </trkpt>
      <trkpt lat="45.7571" lon="6.53921">
        <ele>1640</ele>
        <time>2022-07-24T07:09:47Z</time>
      </trkpt>
      <trkpt lat="45.75711" lon="6.5392">
        <ele>1640</ele>
        <time>2022-07-24T07:09:48Z</time>
      </trkpt>
      <trkpt lat="45.75712" lon="6.53919">
        <ele>1640</ele>
        <time>2022-07-24T07:09:49Z</time>
      </trkpt>
      <trkpt lat="45.75713" lon="6.53918">
        <ele>1640</ele>
        <time>2022-07-24T07:09:50Z</time>
      </trkpt>
      <trkpt lat="45.75714" lon="6.53918">
        <ele>1640</ele>
        <time>2022-07-24T07:09:51Z</time>
      </trkpt>
      <trkpt lat="45.75715" lon="6.53918">
        <ele>1640</ele>
        <time>2022-07-24T07:09:52Z</time>
      </trkpt>
      <trkpt lat="45.75716" lon="6.53917">
        <ele>1640</ele>
        <time>2022-07-24T07:09:53Z</time>
      </trkpt>
      <trkpt lat="45.75717" lon="6.53917">
        <ele>1640</ele>
        <time>2022-07-24T07:09:54Z</time>
      </trkpt>
      <trkpt lat="45.75717" lon="6.53917">
        <ele>1640</ele>
        <time>2022-07-24T07:09:55Z</time>
      </trkpt>
      <trkpt lat="45.75717" lon="6.53917">
        <ele>1641</ele>
        <time>2022-07-24T07:09:56Z</time>
      </trkpt>
      <trkpt lat="45.75717" lon="6.53917">
        <ele>1641</ele>
        <time>2022-07-24T07:09:57Z</time>
      </trkpt>
      <trkpt lat="45.75718" lon="6.53916">
        <ele>1641</ele>
        <time>2022-07-24T07:09:58Z</time>
      </trkpt>
      <trkpt lat="45.75719" lon="6.53916">
        <ele>1641</ele>
        <time>2022-07-24T07:09:59Z</time>
      </trkpt>
      <trkpt lat="45.75719" lon="6.53915">
        <ele>1641</ele>
        <time>2022-07-24T07:10:00Z</time>
      </trkpt>
      <trkpt lat="45.7572" lon="6.53914">
        <ele>1641</ele>
        <time>2022-07-24T07:10:01Z</time>
      </trkpt>
      <trkpt lat="45.7572" lon="6.53913">
        <ele>1641</ele>
        <time>2022-07-24T07:10:02Z</time>
      </trkpt>
      <trkpt lat="45.75721" lon="6.53913">
        <ele>1641</ele>
        <time>2022-07-24T07:10:03Z</time>
      </trkpt>
      <trkpt lat="45.75722" lon="6.53912">
        <ele>1641</ele>
        <time>2022-07-24T07:10:04Z</time>
      </trkpt>
      <trkpt lat="45.75723" lon="6.53911">
        <ele>1641</ele>
        <time>2022-07-24T07:10:05Z</time>
      </trkpt>
      <trkpt lat="45.75723" lon="6.5391">
        <ele>1641</ele>
        <time>2022-07-24T07:10:06Z</time>
      </trkpt>
      <trkpt lat="45.75724" lon="6.5391">
        <ele>1641</ele>
        <time>2022-07-24T07:10:07Z</time>
      </trkpt>
      <trkpt lat="45.75725" lon="6.53909">
        <ele>1641</ele>
        <time>2022-07-24T07:10:08Z</time>
      </trkpt>
      <trkpt lat="45.75725" lon="6.53908">
        <ele>1641</ele>
        <time>2022-07-24T07:10:09Z</time>
      </trkpt>
      <trkpt lat="45.75726" lon="6.53907">
        <ele>1641</ele>
        <time>2022-07-24T07:10:10Z</time>
      </trkpt>
      <trkpt lat="45.75727" lon="6.53906">
        <ele>1642</ele>
        <time>2022-07-24T07:10:11Z</time>
      </trkpt>
      <trkpt lat="45.75727" lon="6.53905">
        <ele>1642</ele>
        <time>2022-07-24T07:10:12Z</time>
      </trkpt>
      <trkpt lat="45.75728" lon="6.53904">
        <ele>1642</ele>
        <time>2022-07-24T07:10:13Z</time>
      </trkpt>
      <trkpt lat="45.75729" lon="6.53903">
        <ele>1642</ele>
        <time>2022-07-24T07:10:14Z</time>
      </trkpt>
      <trkpt lat="45.75729" lon="6.53902">
        <ele>1642</ele>
        <time>2022-07-24T07:10:15Z</time>
      </trkpt>
      <trkpt lat="45.7573" lon="6.53901">
        <ele>1642</ele>
        <time>2022-07-24T07:10:16Z</time>
      </trkpt>
      <trkpt lat="45.75731" lon="6.53899">
        <ele>1642</ele>
        <time>2022-07-24T07:10:17Z</time>
      </trkpt>
      <trkpt lat="45.75731" lon="6.53898">
        <ele>1642</ele>
        <time>2022-07-24T07:10:18Z</time>
      </trkpt>
      <trkpt lat="45.75732" lon="6.53897">
        <ele>1642</ele>
        <time>2022-07-24T07:10:19Z</time>
      </trkpt>
      <trkpt lat="45.75733" lon="6.53896">
        <ele>1642</ele>
        <time>2022-07-24T07:10:20Z</time>
      </trkpt>
      <trkpt lat="45.75733" lon="6.53894">
        <ele>1643</ele>
        <time>2022-07-24T07:10:21Z</time>
      </trkpt>
      <trkpt lat="45.75734" lon="6.53893">
        <ele>1643</ele>
        <time>2022-07-24T07:10:22Z</time>
      </trkpt>
      <trkpt lat="45.75734" lon="6.53892">
        <ele>1643</ele>
        <time>2022-07-24T07:10:23Z</time>
      </trkpt>
      <trkpt lat="45.75735" lon="6.53891">
        <ele>1643</ele>
        <time>2022-07-24T07:10:24Z</time>
      </trkpt>
      <trkpt lat="45.75736" lon="6.53889">
        <ele>1643</ele>
        <time>2022-07-24T07:10:25Z</time>
      </trkpt>
      <trkpt lat="45.75736" lon="6.53888">
        <ele>1643</ele>
        <time>2022-07-24T07:10:26Z</time>
      </trkpt>
      <trkpt lat="45.75737" lon="6.53887">
        <ele>1643</ele>
        <time>2022-07-24T07:10:27Z</time>
      </trkpt>
      <trkpt lat="45.75737" lon="6.53886">
        <ele>1643</ele>
        <time>2022-07-24T07:10:28Z</time>
      </trkpt>
      <trkpt lat="45.75738" lon="6.53885">
        <ele>1643</ele>
        <time>2022-07-24T07:10:29Z</time>
      </trkpt>
      <trkpt lat="45.75738" lon="6.53884">
        <ele>1643</ele>
        <time>2022-07-24T07:10:30Z</time>
      </trkpt>
      <trkpt lat="45.75739" lon="6.53882">
        <ele>1643</ele>
        <time>2022-07-24T07:10:31Z</time>
      </trkpt>
      <trkpt lat="45.75739" lon="6.53881">
        <ele>1643</ele>
        <time>2022-07-24T07:10:32Z</time>
      </trkpt>
      <trkpt lat="45.7574" lon="6.5388">
        <ele>1643</ele>
        <time>2022-07-24T07:10:33Z</time>
      </trkpt>
      <trkpt lat="45.7574" lon="6.53879">
        <ele>1643</ele>
        <time>2022-07-24T07:10:34Z</time>
      </trkpt>
      <trkpt lat="45.75741" lon="6.53878">
        <ele>1643</ele>
        <time>2022-07-24T07:10:35Z</time>
      </trkpt>
      <trkpt lat="45.75742" lon="6.53877">
        <ele>1644</ele>
        <time>2022-07-24T07:10:36Z</time>
      </trkpt>
      <trkpt lat="45.75742" lon="6.53876">
        <ele>1644</ele>
        <time>2022-07-24T07:10:37Z</time>
      </trkpt>
      <trkpt lat="45.75743" lon="6.53875">
        <ele>1644</ele>
        <time>2022-07-24T07:10:38Z</time>
      </trkpt>
      <trkpt lat="45.75743" lon="6.53874">
        <ele>1644</ele>
        <time>2022-07-24T07:10:39Z</time>
      </trkpt>
      <trkpt lat="45.75744" lon="6.53872">
        <ele>1644</ele>
        <time>2022-07-24T07:10:40Z</time>
      </trkpt>
      <trkpt lat="45.75744" lon="6.53871">
        <ele>1644</ele>
        <time>2022-07-24T07:10:41Z</time>
      </trkpt>
      <trkpt lat="45.75745" lon="6.53871">
        <ele>1644</ele>
        <time>2022-07-24T07:10:42Z</time>
      </trkpt>
      <trkpt lat="45.75745" lon="6.5387">
        <ele>1644</ele>
        <time>2022-07-24T07:10:43Z</time>
      </trkpt>
      <trkpt lat="45.75745" lon="6.53869">
        <ele>1644</ele>
        <time>2022-07-24T07:10:44Z</time>
      </trkpt>
      <trkpt lat="45.75746" lon="6.53869">
        <ele>1644</ele>
        <time>2022-07-24T07:10:45Z</time>
      </trkpt>
      <trkpt lat="45.75746" lon="6.53868">
        <ele>1644</ele>
        <time>2022-07-24T07:10:46Z</time>
      </trkpt>
      <trkpt lat="45.75747" lon="6.53867">
        <ele>1644</ele>
        <time>2022-07-24T07:10:47Z</time>
      </trkpt>
      <trkpt lat="45.75747" lon="6.53866">
        <ele>1644</ele>
        <time>2022-07-24T07:10:48Z</time>
      </trkpt>
      <trkpt lat="45.75747" lon="6.53866">
        <ele>1644</ele>
        <time>2022-07-24T07:10:49Z</time>
      </trkpt>
      <trkpt lat="45.75748" lon="6.53865">
        <ele>1644</ele>
        <time>2022-07-24T07:10:50Z</time>
      </trkpt>
      <trkpt lat="45.75748" lon="6.53864">
        <ele>1645</ele>
        <time>2022-07-24T07:10:51Z</time>
      </trkpt>
      <trkpt lat="45.75749" lon="6.53863">
        <ele>1645</ele>
        <time>2022-07-24T07:10:52Z</time>
      </trkpt>
      <trkpt lat="45.75749" lon="6.53862">
        <ele>1645</ele>
        <time>2022-07-24T07:10:53Z</time>
      </trkpt>
      <trkpt lat="45.7575" lon="6.53861">
        <ele>1645</ele>
        <time>2022-07-24T07:10:54Z</time>
      </trkpt>
      <trkpt lat="45.7575" lon="6.5386">
        <ele>1645</ele>
        <time>2022-07-24T07:10:55Z</time>
      </trkpt>
      <trkpt lat="45.75751" lon="6.53858">
        <ele>1645</ele>
        <time>2022-07-24T07:10:56Z</time>
      </trkpt>
      <trkpt lat="45.75751" lon="6.53857">
        <ele>1645</ele>
        <time>2022-07-24T07:10:57Z</time>
      </trkpt>
      <trkpt lat="45.75752" lon="6.53856">
        <ele>1645</ele>
        <time>2022-07-24T07:10:58Z</time>
      </trkpt>
      <trkpt lat="45.75752" lon="6.53855">
        <ele>1645</ele>
        <time>2022-07-24T07:10:59Z</time>
      </trkpt>
      <trkpt lat="45.75753" lon="6.53854">
        <ele>1645</ele>
        <time>2022-07-24T07:11:00Z</time>
      </trkpt>
      <trkpt lat="45.75754" lon="6.53853">
        <ele>1645</ele>
        <time>2022-07-24T07:11:01Z</time>
      </trkpt>
      <trkpt lat="45.75754" lon="6.53852">
        <ele>1645</ele>
        <time>2022-07-24T07:11:02Z</time>
      </trkpt>
      <trkpt lat="45.75755" lon="6.53851">
        <ele>1645</ele>
        <time>2022-07-24T07:11:03Z</time>
      </trkpt>
      <trkpt lat="45.75755" lon="6.5385">
        <ele>1645</ele>
        <time>2022-07-24T07:11:04Z</time>
      </trkpt>
      <trkpt lat="45.75756" lon="6.53849">
        <ele>1645</ele>
        <time>2022-07-24T07:11:05Z</time>
      </trkpt>
      <trkpt lat="45.75756" lon="6.53848">
        <ele>1646</ele>
        <time>2022-07-24T07:11:06Z</time>
      </trkpt>
      <trkpt lat="45.75756" lon="6.53847">
        <ele>1646</ele>
        <time>2022-07-24T07:11:07Z</time>
      </trkpt>
      <trkpt lat="45.75757" lon="6.53845">
        <ele>1646</ele>
        <time>2022-07-24T07:11:08Z</time>
      </trkpt>
      <trkpt lat="45.75757" lon="6.53844">
        <ele>1646</ele>
        <time>2022-07-24T07:11:09Z</time>
      </trkpt>
      <trkpt lat="45.75757" lon="6.53843">
        <ele>1646</ele>
        <time>2022-07-24T07:11:10Z</time>
      </trkpt>
      <trkpt lat="45.75757" lon="6.53842">
        <ele>1646</ele>
        <time>2022-07-24T07:11:11Z</time>
      </trkpt>
      <trkpt lat="45.75758" lon="6.53841">
        <ele>1646</ele>
        <time>2022-07-24T07:11:12Z</time>
      </trkpt>
      <trkpt lat="45.75758" lon="6.5384">
        <ele>1646</ele>
        <time>2022-07-24T07:11:13Z</time>
      </trkpt>
      <trkpt lat="45.75758" lon="6.53838">
        <ele>1646</ele>
        <time>2022-07-24T07:11:14Z</time>
      </trkpt>
      <trkpt lat="45.75759" lon="6.53837">
        <ele>1646</ele>
        <time>2022-07-24T07:11:15Z</time>
      </trkpt>
      <trkpt lat="45.75759" lon="6.53836">
        <ele>1646</ele>
        <time>2022-07-24T07:11:16Z</time>
      </trkpt>
      <trkpt lat="45.7576" lon="6.53835">
        <ele>1646</ele>
        <time>2022-07-24T07:11:17Z</time>
      </trkpt>
      <trkpt lat="45.7576" lon="6.53833">
        <ele>1646</ele>
        <time>2022-07-24T07:11:18Z</time>
      </trkpt>
      <trkpt lat="45.7576" lon="6.53832">
        <ele>1646</ele>
        <time>2022-07-24T07:11:19Z</time>
      </trkpt>
      <trkpt lat="45.75761" lon="6.53831">
        <ele>1646</ele>
        <time>2022-07-24T07:11:20Z</time>
      </trkpt>
      <trkpt lat="45.75761" lon="6.5383">
        <ele>1646</ele>
        <time>2022-07-24T07:11:21Z</time>
      </trkpt>
      <trkpt lat="45.75761" lon="6.53828">
        <ele>1646</ele>
        <time>2022-07-24T07:11:22Z</time>
      </trkpt>
      <trkpt lat="45.75762" lon="6.53827">
        <ele>1646</ele>
        <time>2022-07-24T07:11:23Z</time>
      </trkpt>
      <trkpt lat="45.75762" lon="6.53825">
        <ele>1646</ele>
        <time>2022-07-24T07:11:24Z</time>
      </trkpt>
      <trkpt lat="45.75763" lon="6.53824">
        <ele>1646</ele>
        <time>2022-07-24T07:11:25Z</time>
      </trkpt>
      <trkpt lat="45.75763" lon="6.53823">
        <ele>1647</ele>
        <time>2022-07-24T07:11:26Z</time>
      </trkpt>
      <trkpt lat="45.75764" lon="6.53822">
        <ele>1647</ele>
        <time>2022-07-24T07:11:27Z</time>
      </trkpt>
      <trkpt lat="45.75764" lon="6.5382">
        <ele>1647</ele>
        <time>2022-07-24T07:11:28Z</time>
      </trkpt>
      <trkpt lat="45.75765" lon="6.53819">
        <ele>1647</ele>
        <time>2022-07-24T07:11:29Z</time>
      </trkpt>
      <trkpt lat="45.75765" lon="6.53818">
        <ele>1647</ele>
        <time>2022-07-24T07:11:30Z</time>
      </trkpt>
      <trkpt lat="45.75766" lon="6.53817">
        <ele>1647</ele>
        <time>2022-07-24T07:11:31Z</time>
      </trkpt>
      <trkpt lat="45.75766" lon="6.53816">
        <ele>1647</ele>
        <time>2022-07-24T07:11:32Z</time>
      </trkpt>
      <trkpt lat="45.75766" lon="6.53814">
        <ele>1647</ele>
        <time>2022-07-24T07:11:33Z</time>
      </trkpt>
      <trkpt lat="45.75767" lon="6.53813">
        <ele>1647</ele>
        <time>2022-07-24T07:11:34Z</time>
      </trkpt>
      <trkpt lat="45.75767" lon="6.53812">
        <ele>1647</ele>
        <time>2022-07-24T07:11:35Z</time>
      </trkpt>
      <trkpt lat="45.75768" lon="6.53811">
        <ele>1647</ele>
        <time>2022-07-24T07:11:36Z</time>
      </trkpt>
      <trkpt lat="45.75768" lon="6.5381">
        <ele>1647</ele>
        <time>2022-07-24T07:11:37Z</time>
      </trkpt>
      <trkpt lat="45.75769" lon="6.53809">
        <ele>1647</ele>
        <time>2022-07-24T07:11:38Z</time>
      </trkpt>
      <trkpt lat="45.75769" lon="6.53808">
        <ele>1647</ele>
        <time>2022-07-24T07:11:39Z</time>
      </trkpt>
      <trkpt lat="45.7577" lon="6.53807">
        <ele>1647</ele>
        <time>2022-07-24T07:11:40Z</time>
      </trkpt>
      <trkpt lat="45.7577" lon="6.53806">
        <ele>1648</ele>
        <time>2022-07-24T07:11:41Z</time>
      </trkpt>
      <trkpt lat="45.75771" lon="6.53805">
        <ele>1648</ele>
        <time>2022-07-24T07:11:42Z</time>
      </trkpt>
      <trkpt lat="45.75772" lon="6.53804">
        <ele>1648</ele>
        <time>2022-07-24T07:11:43Z</time>
      </trkpt>
      <trkpt lat="45.75772" lon="6.53802">
        <ele>1648</ele>
        <time>2022-07-24T07:11:44Z</time>
      </trkpt>
      <trkpt lat="45.75773" lon="6.53801">
        <ele>1648</ele>
        <time>2022-07-24T07:11:45Z</time>
      </trkpt>
      <trkpt lat="45.75773" lon="6.538">
        <ele>1648</ele>
        <time>2022-07-24T07:11:46Z</time>
      </trkpt>
      <trkpt lat="45.75774" lon="6.53799">
        <ele>1648</ele>
        <time>2022-07-24T07:11:47Z</time>
      </trkpt>
      <trkpt lat="45.75774" lon="6.53797">
        <ele>1648</ele>
        <time>2022-07-24T07:11:48Z</time>
      </trkpt>
      <trkpt lat="45.75775" lon="6.53796">
        <ele>1648</ele>
        <time>2022-07-24T07:11:49Z</time>
      </trkpt>
      <trkpt lat="45.75776" lon="6.53795">
        <ele>1648</ele>
        <time>2022-07-24T07:11:50Z</time>
      </trkpt>
      <trkpt lat="45.75776" lon="6.53794">
        <ele>1648</ele>
        <time>2022-07-24T07:11:51Z</time>
      </trkpt>
      <trkpt lat="45.75777" lon="6.53792">
        <ele>1648</ele>
        <time>2022-07-24T07:11:52Z</time>
      </trkpt>
      <trkpt lat="45.75777" lon="6.53791">
        <ele>1648</ele>
        <time>2022-07-24T07:11:53Z</time>
      </trkpt>
      <trkpt lat="45.75778" lon="6.5379">
        <ele>1648</ele>
        <time>2022-07-24T07:11:54Z</time>
      </trkpt>
      <trkpt lat="45.75778" lon="6.53789">
        <ele>1648</ele>
        <time>2022-07-24T07:11:55Z</time>
      </trkpt>
      <trkpt lat="45.75778" lon="6.53787">
        <ele>1648</ele>
        <time>2022-07-24T07:11:56Z</time>
      </trkpt>
      <trkpt lat="45.75779" lon="6.53786">
        <ele>1648</ele>
        <time>2022-07-24T07:11:57Z</time>
      </trkpt>
      <trkpt lat="45.75779" lon="6.53784">
        <ele>1648</ele>
        <time>2022-07-24T07:11:58Z</time>
      </trkpt>
      <trkpt lat="45.7578" lon="6.53783">
        <ele>1648</ele>
        <time>2022-07-24T07:11:59Z</time>
      </trkpt>
      <trkpt lat="45.7578" lon="6.53782">
        <ele>1648</ele>
        <time>2022-07-24T07:12:00Z</time>
      </trkpt>
      <trkpt lat="45.7578" lon="6.5378">
        <ele>1649</ele>
        <time>2022-07-24T07:12:01Z</time>
      </trkpt>
      <trkpt lat="45.75781" lon="6.53779">
        <ele>1649</ele>
        <time>2022-07-24T07:12:02Z</time>
      </trkpt>
      <trkpt lat="45.75781" lon="6.53778">
        <ele>1649</ele>
        <time>2022-07-24T07:12:03Z</time>
      </trkpt>
      <trkpt lat="45.75781" lon="6.53777">
        <ele>1649</ele>
        <time>2022-07-24T07:12:04Z</time>
      </trkpt>
      <trkpt lat="45.75782" lon="6.53775">
        <ele>1649</ele>
        <time>2022-07-24T07:12:05Z</time>
      </trkpt>
      <trkpt lat="45.75782" lon="6.53774">
        <ele>1649</ele>
        <time>2022-07-24T07:12:06Z</time>
      </trkpt>
      <trkpt lat="45.75782" lon="6.53773">
        <ele>1649</ele>
        <time>2022-07-24T07:12:07Z</time>
      </trkpt>
      <trkpt lat="45.75783" lon="6.53772">
        <ele>1649</ele>
        <time>2022-07-24T07:12:08Z</time>
      </trkpt>
      <trkpt lat="45.75783" lon="6.5377">
        <ele>1649</ele>
        <time>2022-07-24T07:12:09Z</time>
      </trkpt>
      <trkpt lat="45.75784" lon="6.53769">
        <ele>1649</ele>
        <time>2022-07-24T07:12:10Z</time>
      </trkpt>
      <trkpt lat="45.75784" lon="6.53768">
        <ele>1649</ele>
        <time>2022-07-24T07:12:11Z</time>
      </trkpt>
      <trkpt lat="45.75784" lon="6.53767">
        <ele>1649</ele>
        <time>2022-07-24T07:12:12Z</time>
      </trkpt>
      <trkpt lat="45.75785" lon="6.53765">
        <ele>1649</ele>
        <time>2022-07-24T07:12:13Z</time>
      </trkpt>
      <trkpt lat="45.75785" lon="6.53764">
        <ele>1649</ele>
        <time>2022-07-24T07:12:14Z</time>
      </trkpt>
      <trkpt lat="45.75786" lon="6.53763">
        <ele>1649</ele>
        <time>2022-07-24T07:12:15Z</time>
      </trkpt>
      <trkpt lat="45.75786" lon="6.53761">
        <ele>1650</ele>
        <time>2022-07-24T07:12:16Z</time>
      </trkpt>
      <trkpt lat="45.75787" lon="6.5376">
        <ele>1650</ele>
        <time>2022-07-24T07:12:17Z</time>
      </trkpt>
      <trkpt lat="45.75787" lon="6.53759">
        <ele>1650</ele>
        <time>2022-07-24T07:12:18Z</time>
      </trkpt>
      <trkpt lat="45.75787" lon="6.53757">
        <ele>1650</ele>
        <time>2022-07-24T07:12:19Z</time>
      </trkpt>
      <trkpt lat="45.75788" lon="6.53756">
        <ele>1650</ele>
        <time>2022-07-24T07:12:20Z</time>
      </trkpt>
      <trkpt lat="45.75788" lon="6.53755">
        <ele>1650</ele>
        <time>2022-07-24T07:12:21Z</time>
      </trkpt>
      <trkpt lat="45.75789" lon="6.53753">
        <ele>1650</ele>
        <time>2022-07-24T07:12:22Z</time>
      </trkpt>
      <trkpt lat="45.75789" lon="6.53752">
        <ele>1650</ele>
        <time>2022-07-24T07:12:23Z</time>
      </trkpt>
      <trkpt lat="45.7579" lon="6.53751">
        <ele>1650</ele>
        <time>2022-07-24T07:12:24Z</time>
      </trkpt>
      <trkpt lat="45.7579" lon="6.53749">
        <ele>1650</ele>
        <time>2022-07-24T07:12:25Z</time>
      </trkpt>
      <trkpt lat="45.7579" lon="6.53748">
        <ele>1650</ele>
        <time>2022-07-24T07:12:26Z</time>
      </trkpt>
      <trkpt lat="45.75791" lon="6.53747">
        <ele>1650</ele>
        <time>2022-07-24T07:12:27Z</time>
      </trkpt>
      <trkpt lat="45.75791" lon="6.53746">
        <ele>1650</ele>
        <time>2022-07-24T07:12:28Z</time>
      </trkpt>
      <trkpt lat="45.75792" lon="6.53745">
        <ele>1650</ele>
        <time>2022-07-24T07:12:29Z</time>
      </trkpt>
      <trkpt lat="45.75792" lon="6.53743">
        <ele>1650</ele>
        <time>2022-07-24T07:12:30Z</time>
      </trkpt>
      <trkpt lat="45.75792" lon="6.53742">
        <ele>1650</ele>
        <time>2022-07-24T07:12:31Z</time>
      </trkpt>
      <trkpt lat="45.75793" lon="6.53741">
        <ele>1650</ele>
        <time>2022-07-24T07:12:32Z</time>
      </trkpt>
      <trkpt lat="45.75793" lon="6.5374">
        <ele>1650</ele>
        <time>2022-07-24T07:12:33Z</time>
      </trkpt>
      <trkpt lat="45.75793" lon="6.53738">
        <ele>1650</ele>
        <time>2022-07-24T07:12:34Z</time>
      </trkpt>
      <trkpt lat="45.75794" lon="6.53737">
        <ele>1650</ele>
        <time>2022-07-24T07:12:35Z</time>
      </trkpt>
      <trkpt lat="45.75794" lon="6.53735">
        <ele>1651</ele>
        <time>2022-07-24T07:12:36Z</time>
      </trkpt>
      <trkpt lat="45.75794" lon="6.53734">
        <ele>1651</ele>
        <time>2022-07-24T07:12:37Z</time>
      </trkpt>
      <trkpt lat="45.75794" lon="6.53732">
        <ele>1651</ele>
        <time>2022-07-24T07:12:38Z</time>
      </trkpt>
      <trkpt lat="45.75794" lon="6.53731">
        <ele>1651</ele>
        <time>2022-07-24T07:12:39Z</time>
      </trkpt>
      <trkpt lat="45.75794" lon="6.53729">
        <ele>1651</ele>
        <time>2022-07-24T07:12:40Z</time>
      </trkpt>
      <trkpt lat="45.75794" lon="6.53728">
        <ele>1651</ele>
        <time>2022-07-24T07:12:41Z</time>
      </trkpt>
      <trkpt lat="45.75794" lon="6.53727">
        <ele>1651</ele>
        <time>2022-07-24T07:12:42Z</time>
      </trkpt>
      <trkpt lat="45.75795" lon="6.53725">
        <ele>1651</ele>
        <time>2022-07-24T07:12:43Z</time>
      </trkpt>
      <trkpt lat="45.75795" lon="6.53724">
        <ele>1651</ele>
        <time>2022-07-24T07:12:44Z</time>
      </trkpt>
      <trkpt lat="45.75796" lon="6.53723">
        <ele>1651</ele>
        <time>2022-07-24T07:12:45Z</time>
      </trkpt>
      <trkpt lat="45.75796" lon="6.53721">
        <ele>1651</ele>
        <time>2022-07-24T07:12:46Z</time>
      </trkpt>
      <trkpt lat="45.75796" lon="6.5372">
        <ele>1651</ele>
        <time>2022-07-24T07:12:47Z</time>
      </trkpt>
      <trkpt lat="45.75797" lon="6.53718">
        <ele>1651</ele>
        <time>2022-07-24T07:12:48Z</time>
      </trkpt>
      <trkpt lat="45.75797" lon="6.53717">
        <ele>1651</ele>
        <time>2022-07-24T07:12:49Z</time>
      </trkpt>
      <trkpt lat="45.75797" lon="6.53716">
        <ele>1651</ele>
        <time>2022-07-24T07:12:50Z</time>
      </trkpt>
      <trkpt lat="45.75797" lon="6.53714">
        <ele>1652</ele>
        <time>2022-07-24T07:12:51Z</time>
      </trkpt>
      <trkpt lat="45.75798" lon="6.53713">
        <ele>1652</ele>
        <time>2022-07-24T07:12:52Z</time>
      </trkpt>
      <trkpt lat="45.75798" lon="6.53712">
        <ele>1652</ele>
        <time>2022-07-24T07:12:53Z</time>
      </trkpt>
      <trkpt lat="45.75798" lon="6.5371">
        <ele>1652</ele>
        <time>2022-07-24T07:12:54Z</time>
      </trkpt>
      <trkpt lat="45.75799" lon="6.53709">
        <ele>1652</ele>
        <time>2022-07-24T07:12:55Z</time>
      </trkpt>
      <trkpt lat="45.75799" lon="6.53708">
        <ele>1652</ele>
        <time>2022-07-24T07:12:56Z</time>
      </trkpt>
      <trkpt lat="45.75799" lon="6.53706">
        <ele>1652</ele>
        <time>2022-07-24T07:12:57Z</time>
      </trkpt>
      <trkpt lat="45.758" lon="6.53705">
        <ele>1652</ele>
        <time>2022-07-24T07:12:58Z</time>
      </trkpt>
      <trkpt lat="45.758" lon="6.53704">
        <ele>1652</ele>
        <time>2022-07-24T07:12:59Z</time>
      </trkpt>
      <trkpt lat="45.75801" lon="6.53703">
        <ele>1652</ele>
        <time>2022-07-24T07:13:00Z</time>
      </trkpt>
      <trkpt lat="45.75801" lon="6.53701">
        <ele>1652</ele>
        <time>2022-07-24T07:13:01Z</time>
      </trkpt>
      <trkpt lat="45.75802" lon="6.537">
        <ele>1652</ele>
        <time>2022-07-24T07:13:02Z</time>
      </trkpt>
      <trkpt lat="45.75802" lon="6.53699">
        <ele>1652</ele>
        <time>2022-07-24T07:13:03Z</time>
      </trkpt>
      <trkpt lat="45.75803" lon="6.53697">
        <ele>1652</ele>
        <time>2022-07-24T07:13:04Z</time>
      </trkpt>
      <trkpt lat="45.75803" lon="6.53696">
        <ele>1652</ele>
        <time>2022-07-24T07:13:05Z</time>
      </trkpt>
      <trkpt lat="45.75804" lon="6.53695">
        <ele>1652</ele>
        <time>2022-07-24T07:13:06Z</time>
      </trkpt>
      <trkpt lat="45.75804" lon="6.53693">
        <ele>1652</ele>
        <time>2022-07-24T07:13:07Z</time>
      </trkpt>
      <trkpt lat="45.75805" lon="6.53692">
        <ele>1652</ele>
        <time>2022-07-24T07:13:08Z</time>
      </trkpt>
      <trkpt lat="45.75805" lon="6.53691">
        <ele>1652</ele>
        <time>2022-07-24T07:13:09Z</time>
      </trkpt>
      <trkpt lat="45.75806" lon="6.5369">
        <ele>1652</ele>
        <time>2022-07-24T07:13:10Z</time>
      </trkpt>
      <trkpt lat="45.75807" lon="6.53689">
        <ele>1653</ele>
        <time>2022-07-24T07:13:11Z</time>
      </trkpt>
      <trkpt lat="45.75807" lon="6.53687">
        <ele>1653</ele>
        <time>2022-07-24T07:13:12Z</time>
      </trkpt>
      <trkpt lat="45.75808" lon="6.53686">
        <ele>1653</ele>
        <time>2022-07-24T07:13:13Z</time>
      </trkpt>
      <trkpt lat="45.75808" lon="6.53685">
        <ele>1653</ele>
        <time>2022-07-24T07:13:14Z</time>
      </trkpt>
      <trkpt lat="45.75809" lon="6.53684">
        <ele>1653</ele>
        <time>2022-07-24T07:13:15Z</time>
      </trkpt>
      <trkpt lat="45.75809" lon="6.53683">
        <ele>1653</ele>
        <time>2022-07-24T07:13:16Z</time>
      </trkpt>
      <trkpt lat="45.7581" lon="6.53682">
        <ele>1653</ele>
        <time>2022-07-24T07:13:17Z</time>
      </trkpt>
      <trkpt lat="45.7581" lon="6.53681">
        <ele>1653</ele>
        <time>2022-07-24T07:13:18Z</time>
      </trkpt>
      <trkpt lat="45.75811" lon="6.5368">
        <ele>1653</ele>
        <time>2022-07-24T07:13:19Z</time>
      </trkpt>
      <trkpt lat="45.75812" lon="6.53679">
        <ele>1653</ele>
        <time>2022-07-24T07:13:20Z</time>
      </trkpt>
      <trkpt lat="45.75812" lon="6.53678">
        <ele>1653</ele>
        <time>2022-07-24T07:13:21Z</time>
      </trkpt>
      <trkpt lat="45.75813" lon="6.53677">
        <ele>1653</ele>
        <time>2022-07-24T07:13:22Z</time>
      </trkpt>
      <trkpt lat="45.75813" lon="6.53676">
        <ele>1653</ele>
        <time>2022-07-24T07:13:23Z</time>
      </trkpt>
      <trkpt lat="45.75814" lon="6.53674">
        <ele>1653</ele>
        <time>2022-07-24T07:13:24Z</time>
      </trkpt>
      <trkpt lat="45.75814" lon="6.53673">
        <ele>1653</ele>
        <time>2022-07-24T07:13:25Z</time>
      </trkpt>
      <trkpt lat="45.75815" lon="6.53672">
        <ele>1654</ele>
        <time>2022-07-24T07:13:26Z</time>
      </trkpt>
      <trkpt lat="45.75815" lon="6.53671">
        <ele>1654</ele>
        <time>2022-07-24T07:13:27Z</time>
      </trkpt>
      <trkpt lat="45.75816" lon="6.5367">
        <ele>1654</ele>
        <time>2022-07-24T07:13:28Z</time>
      </trkpt>
      <trkpt lat="45.75816" lon="6.53668">
        <ele>1654</ele>
        <time>2022-07-24T07:13:29Z</time>
      </trkpt>
      <trkpt lat="45.75816" lon="6.53667">
        <ele>1654</ele>
        <time>2022-07-24T07:13:30Z</time>
      </trkpt>
      <trkpt lat="45.75817" lon="6.53665">
        <ele>1654</ele>
        <time>2022-07-24T07:13:31Z</time>
      </trkpt>
      <trkpt lat="45.75817" lon="6.53664">
        <ele>1654</ele>
        <time>2022-07-24T07:13:32Z</time>
      </trkpt>
      <trkpt lat="45.75818" lon="6.53663">
        <ele>1654</ele>
        <time>2022-07-24T07:13:33Z</time>
      </trkpt>
      <trkpt lat="45.75818" lon="6.53662">
        <ele>1654</ele>
        <time>2022-07-24T07:13:34Z</time>
      </trkpt>
      <trkpt lat="45.75818" lon="6.5366">
        <ele>1654</ele>
        <time>2022-07-24T07:13:35Z</time>
      </trkpt>
      <trkpt lat="45.75819" lon="6.53659">
        <ele>1655</ele>
        <time>2022-07-24T07:13:36Z</time>
      </trkpt>
      <trkpt lat="45.75819" lon="6.53658">
        <ele>1655</ele>
        <time>2022-07-24T07:13:37Z</time>
      </trkpt>
      <trkpt lat="45.7582" lon="6.53656">
        <ele>1655</ele>
        <time>2022-07-24T07:13:38Z</time>
      </trkpt>
      <trkpt lat="45.7582" lon="6.53655">
        <ele>1655</ele>
        <time>2022-07-24T07:13:39Z</time>
      </trkpt>
      <trkpt lat="45.75821" lon="6.53654">
        <ele>1655</ele>
        <time>2022-07-24T07:13:40Z</time>
      </trkpt>
      <trkpt lat="45.75821" lon="6.53652">
        <ele>1655</ele>
        <time>2022-07-24T07:13:41Z</time>
      </trkpt>
      <trkpt lat="45.75822" lon="6.53651">
        <ele>1655</ele>
        <time>2022-07-24T07:13:42Z</time>
      </trkpt>
      <trkpt lat="45.75823" lon="6.5365">
        <ele>1655</ele>
        <time>2022-07-24T07:13:43Z</time>
      </trkpt>
      <trkpt lat="45.75823" lon="6.53649">
        <ele>1655</ele>
        <time>2022-07-24T07:13:44Z</time>
      </trkpt>
      <trkpt lat="45.75824" lon="6.53648">
        <ele>1655</ele>
        <time>2022-07-24T07:13:45Z</time>
      </trkpt>
      <trkpt lat="45.75824" lon="6.53646">
        <ele>1655</ele>
        <time>2022-07-24T07:13:46Z</time>
      </trkpt>
      <trkpt lat="45.75825" lon="6.53645">
        <ele>1655</ele>
        <time>2022-07-24T07:13:47Z</time>
      </trkpt>
      <trkpt lat="45.75825" lon="6.53644">
        <ele>1655</ele>
        <time>2022-07-24T07:13:48Z</time>
      </trkpt>
      <trkpt lat="45.75826" lon="6.53643">
        <ele>1655</ele>
        <time>2022-07-24T07:13:49Z</time>
      </trkpt>
      <trkpt lat="45.75826" lon="6.53641">
        <ele>1655</ele>
        <time>2022-07-24T07:13:50Z</time>
      </trkpt>
      <trkpt lat="45.75827" lon="6.5364">
        <ele>1655</ele>
        <time>2022-07-24T07:13:51Z</time>
      </trkpt>
      <trkpt lat="45.75827" lon="6.53639">
        <ele>1655</ele>
        <time>2022-07-24T07:13:52Z</time>
      </trkpt>
      <trkpt lat="45.75828" lon="6.53637">
        <ele>1655</ele>
        <time>2022-07-24T07:13:53Z</time>
      </trkpt>
      <trkpt lat="45.75829" lon="6.53636">
        <ele>1655</ele>
        <time>2022-07-24T07:13:54Z</time>
      </trkpt>
      <trkpt lat="45.75829" lon="6.53635">
        <ele>1655</ele>
        <time>2022-07-24T07:13:55Z</time>
      </trkpt>
      <trkpt lat="45.7583" lon="6.53634">
        <ele>1656</ele>
        <time>2022-07-24T07:13:56Z</time>
      </trkpt>
      <trkpt lat="45.7583" lon="6.53633">
        <ele>1656</ele>
        <time>2022-07-24T07:13:57Z</time>
      </trkpt>
      <trkpt lat="45.75831" lon="6.53632">
        <ele>1656</ele>
        <time>2022-07-24T07:13:58Z</time>
      </trkpt>
      <trkpt lat="45.75831" lon="6.53631">
        <ele>1656</ele>
        <time>2022-07-24T07:13:59Z</time>
      </trkpt>
      <trkpt lat="45.75831" lon="6.5363">
        <ele>1656</ele>
        <time>2022-07-24T07:14:00Z</time>
      </trkpt>
      <trkpt lat="45.75832" lon="6.53629">
        <ele>1656</ele>
        <time>2022-07-24T07:14:01Z</time>
      </trkpt>
      <trkpt lat="45.75832" lon="6.53628">
        <ele>1656</ele>
        <time>2022-07-24T07:14:02Z</time>
      </trkpt>
      <trkpt lat="45.75833" lon="6.53626">
        <ele>1656</ele>
        <time>2022-07-24T07:14:03Z</time>
      </trkpt>
      <trkpt lat="45.75833" lon="6.53625">
        <ele>1656</ele>
        <time>2022-07-24T07:14:04Z</time>
      </trkpt>
      <trkpt lat="45.75834" lon="6.53624">
        <ele>1656</ele>
        <time>2022-07-24T07:14:05Z</time>
      </trkpt>
      <trkpt lat="45.75834" lon="6.53623">
        <ele>1656</ele>
        <time>2022-07-24T07:14:06Z</time>
      </trkpt>
      <trkpt lat="45.75835" lon="6.53622">
        <ele>1656</ele>
        <time>2022-07-24T07:14:07Z</time>
      </trkpt>
      <trkpt lat="45.75835" lon="6.53621">
        <ele>1656</ele>
        <time>2022-07-24T07:14:08Z</time>
      </trkpt>
      <trkpt lat="45.75836" lon="6.53619">
        <ele>1656</ele>
        <time>2022-07-24T07:14:09Z</time>
      </trkpt>
      <trkpt lat="45.75836" lon="6.53618">
        <ele>1656</ele>
        <time>2022-07-24T07:14:10Z</time>
      </trkpt>
      <trkpt lat="45.75837" lon="6.53617">
        <ele>1656</ele>
        <time>2022-07-24T07:14:11Z</time>
      </trkpt>
      <trkpt lat="45.75837" lon="6.53616">
        <ele>1656</ele>
        <time>2022-07-24T07:14:12Z</time>
      </trkpt>
      <trkpt lat="45.75838" lon="6.53614">
        <ele>1656</ele>
        <time>2022-07-24T07:14:13Z</time>
      </trkpt>
      <trkpt lat="45.75838" lon="6.53613">
        <ele>1656</ele>
        <time>2022-07-24T07:14:14Z</time>
      </trkpt>
      <trkpt lat="45.75839" lon="6.53612">
        <ele>1656</ele>
        <time>2022-07-24T07:14:15Z</time>
      </trkpt>
      <trkpt lat="45.75839" lon="6.53611">
        <ele>1656</ele>
        <time>2022-07-24T07:14:16Z</time>
      </trkpt>
      <trkpt lat="45.7584" lon="6.5361">
        <ele>1656</ele>
        <time>2022-07-24T07:14:17Z</time>
      </trkpt>
      <trkpt lat="45.75841" lon="6.53609">
        <ele>1656</ele>
        <time>2022-07-24T07:14:18Z</time>
      </trkpt>
      <trkpt lat="45.75841" lon="6.53607">
        <ele>1656</ele>
        <time>2022-07-24T07:14:19Z</time>
      </trkpt>
      <trkpt lat="45.75842" lon="6.53606">
        <ele>1656</ele>
        <time>2022-07-24T07:14:20Z</time>
      </trkpt>
      <trkpt lat="45.75843" lon="6.53605">
        <ele>1657</ele>
        <time>2022-07-24T07:14:21Z</time>
      </trkpt>
      <trkpt lat="45.75843" lon="6.53604">
        <ele>1657</ele>
        <time>2022-07-24T07:14:22Z</time>
      </trkpt>
      <trkpt lat="45.75844" lon="6.53603">
        <ele>1657</ele>
        <time>2022-07-24T07:14:23Z</time>
      </trkpt>
      <trkpt lat="45.75845" lon="6.53602">
        <ele>1657</ele>
        <time>2022-07-24T07:14:24Z</time>
      </trkpt>
      <trkpt lat="45.75845" lon="6.53601">
        <ele>1657</ele>
        <time>2022-07-24T07:14:25Z</time>
      </trkpt>
      <trkpt lat="45.75846" lon="6.536">
        <ele>1657</ele>
        <time>2022-07-24T07:14:26Z</time>
      </trkpt>
      <trkpt lat="45.75847" lon="6.53599">
        <ele>1657</ele>
        <time>2022-07-24T07:14:27Z</time>
      </trkpt>
      <trkpt lat="45.75847" lon="6.53598">
        <ele>1657</ele>
        <time>2022-07-24T07:14:28Z</time>
      </trkpt>
      <trkpt lat="45.75848" lon="6.53597">
        <ele>1657</ele>
        <time>2022-07-24T07:14:29Z</time>
      </trkpt>
      <trkpt lat="45.75849" lon="6.53596">
        <ele>1657</ele>
        <time>2022-07-24T07:14:30Z</time>
      </trkpt>
      <trkpt lat="45.7585" lon="6.53595">
        <ele>1657</ele>
        <time>2022-07-24T07:14:31Z</time>
      </trkpt>
      <trkpt lat="45.7585" lon="6.53594">
        <ele>1657</ele>
        <time>2022-07-24T07:14:32Z</time>
      </trkpt>
      <trkpt lat="45.75851" lon="6.53593">
        <ele>1657</ele>
        <time>2022-07-24T07:14:33Z</time>
      </trkpt>
      <trkpt lat="45.75852" lon="6.53592">
        <ele>1657</ele>
        <time>2022-07-24T07:14:34Z</time>
      </trkpt>
      <trkpt lat="45.75853" lon="6.53591">
        <ele>1657</ele>
        <time>2022-07-24T07:14:35Z</time>
      </trkpt>
      <trkpt lat="45.75853" lon="6.5359">
        <ele>1657</ele>
        <time>2022-07-24T07:14:36Z</time>
      </trkpt>
      <trkpt lat="45.75854" lon="6.53589">
        <ele>1657</ele>
        <time>2022-07-24T07:14:37Z</time>
      </trkpt>
      <trkpt lat="45.75855" lon="6.53588">
        <ele>1657</ele>
        <time>2022-07-24T07:14:38Z</time>
      </trkpt>
      <trkpt lat="45.75856" lon="6.53587">
        <ele>1657</ele>
        <time>2022-07-24T07:14:39Z</time>
      </trkpt>
      <trkpt lat="45.75856" lon="6.53586">
        <ele>1657</ele>
        <time>2022-07-24T07:14:40Z</time>
      </trkpt>
      <trkpt lat="45.75857" lon="6.53585">
        <ele>1658</ele>
        <time>2022-07-24T07:14:41Z</time>
      </trkpt>
      <trkpt lat="45.75858" lon="6.53584">
        <ele>1658</ele>
        <time>2022-07-24T07:14:42Z</time>
      </trkpt>
      <trkpt lat="45.75858" lon="6.53583">
        <ele>1658</ele>
        <time>2022-07-24T07:14:43Z</time>
      </trkpt>
      <trkpt lat="45.75859" lon="6.53582">
        <ele>1658</ele>
        <time>2022-07-24T07:14:44Z</time>
      </trkpt>
      <trkpt lat="45.7586" lon="6.53582">
        <ele>1658</ele>
        <time>2022-07-24T07:14:45Z</time>
      </trkpt>
      <trkpt lat="45.75861" lon="6.53581">
        <ele>1658</ele>
        <time>2022-07-24T07:14:46Z</time>
      </trkpt>
      <trkpt lat="45.75862" lon="6.5358">
        <ele>1658</ele>
        <time>2022-07-24T07:14:47Z</time>
      </trkpt>
      <trkpt lat="45.75863" lon="6.53579">
        <ele>1658</ele>
        <time>2022-07-24T07:14:48Z</time>
      </trkpt>
      <trkpt lat="45.75863" lon="6.53578">
        <ele>1658</ele>
        <time>2022-07-24T07:14:49Z</time>
      </trkpt>
      <trkpt lat="45.75864" lon="6.53577">
        <ele>1658</ele>
        <time>2022-07-24T07:14:50Z</time>
      </trkpt>
      <trkpt lat="45.75865" lon="6.53576">
        <ele>1658</ele>
        <time>2022-07-24T07:14:51Z</time>
      </trkpt>
      <trkpt lat="45.75866" lon="6.53575">
        <ele>1658</ele>
        <time>2022-07-24T07:14:52Z</time>
      </trkpt>
      <trkpt lat="45.75867" lon="6.53574">
        <ele>1658</ele>
        <time>2022-07-24T07:14:53Z</time>
      </trkpt>
      <trkpt lat="45.75868" lon="6.53573">
        <ele>1658</ele>
        <time>2022-07-24T07:14:54Z</time>
      </trkpt>
      <trkpt lat="45.75868" lon="6.53572">
        <ele>1658</ele>
        <time>2022-07-24T07:14:55Z</time>
      </trkpt>
      <trkpt lat="45.75869" lon="6.53571">
        <ele>1659</ele>
        <time>2022-07-24T07:14:56Z</time>
      </trkpt>
      <trkpt lat="45.7587" lon="6.53571">
        <ele>1659</ele>
        <time>2022-07-24T07:14:57Z</time>
      </trkpt>
      <trkpt lat="45.75871" lon="6.5357">
        <ele>1659</ele>
        <time>2022-07-24T07:14:58Z</time>
      </trkpt>
      <trkpt lat="45.75872" lon="6.53569">
        <ele>1659</ele>
        <time>2022-07-24T07:14:59Z</time>
      </trkpt>
      <trkpt lat="45.75873" lon="6.53568">
        <ele>1659</ele>
        <time>2022-07-24T07:15:00Z</time>
      </trkpt>
      <trkpt lat="45.75874" lon="6.53567">
        <ele>1659</ele>
        <time>2022-07-24T07:15:01Z</time>
      </trkpt>
      <trkpt lat="45.75875" lon="6.53566">
        <ele>1659</ele>
        <time>2022-07-24T07:15:02Z</time>
      </trkpt>
      <trkpt lat="45.75875" lon="6.53565">
        <ele>1659</ele>
        <time>2022-07-24T07:15:03Z</time>
      </trkpt>
      <trkpt lat="45.75876" lon="6.53564">
        <ele>1659</ele>
        <time>2022-07-24T07:15:04Z</time>
      </trkpt>
      <trkpt lat="45.75877" lon="6.53563">
        <ele>1659</ele>
        <time>2022-07-24T07:15:05Z</time>
      </trkpt>
      <trkpt lat="45.75878" lon="6.53562">
        <ele>1660</ele>
        <time>2022-07-24T07:15:06Z</time>
      </trkpt>
      <trkpt lat="45.75879" lon="6.53561">
        <ele>1660</ele>
        <time>2022-07-24T07:15:07Z</time>
      </trkpt>
      <trkpt lat="45.75879" lon="6.5356">
        <ele>1660</ele>
        <time>2022-07-24T07:15:08Z</time>
      </trkpt>
      <trkpt lat="45.7588" lon="6.53559">
        <ele>1660</ele>
        <time>2022-07-24T07:15:09Z</time>
      </trkpt>
      <trkpt lat="45.75881" lon="6.53558">
        <ele>1660</ele>
        <time>2022-07-24T07:15:10Z</time>
      </trkpt>
      <trkpt lat="45.75882" lon="6.53558">
        <ele>1660</ele>
        <time>2022-07-24T07:15:11Z</time>
      </trkpt>
      <trkpt lat="45.75883" lon="6.53557">
        <ele>1660</ele>
        <time>2022-07-24T07:15:12Z</time>
      </trkpt>
      <trkpt lat="45.75885" lon="6.53556">
        <ele>1660</ele>
        <time>2022-07-24T07:15:13Z</time>
      </trkpt>
      <trkpt lat="45.75886" lon="6.53556">
        <ele>1660</ele>
        <time>2022-07-24T07:15:14Z</time>
      </trkpt>
      <trkpt lat="45.75887" lon="6.53555">
        <ele>1660</ele>
        <time>2022-07-24T07:15:15Z</time>
      </trkpt>
      <trkpt lat="45.75888" lon="6.53554">
        <ele>1660</ele>
        <time>2022-07-24T07:15:16Z</time>
      </trkpt>
      <trkpt lat="45.75889" lon="6.53553">
        <ele>1660</ele>
        <time>2022-07-24T07:15:17Z</time>
      </trkpt>
      <trkpt lat="45.7589" lon="6.53553">
        <ele>1660</ele>
        <time>2022-07-24T07:15:18Z</time>
      </trkpt>
      <trkpt lat="45.75891" lon="6.53552">
        <ele>1660</ele>
        <time>2022-07-24T07:15:19Z</time>
      </trkpt>
      <trkpt lat="45.75892" lon="6.53551">
        <ele>1660</ele>
        <time>2022-07-24T07:15:20Z</time>
      </trkpt>
      <trkpt lat="45.75892" lon="6.5355">
        <ele>1660</ele>
        <time>2022-07-24T07:15:21Z</time>
      </trkpt>
      <trkpt lat="45.75893" lon="6.53549">
        <ele>1660</ele>
        <time>2022-07-24T07:15:22Z</time>
      </trkpt>
      <trkpt lat="45.75894" lon="6.53547">
        <ele>1660</ele>
        <time>2022-07-24T07:15:23Z</time>
      </trkpt>
      <trkpt lat="45.75895" lon="6.53546">
        <ele>1660</ele>
        <time>2022-07-24T07:15:24Z</time>
      </trkpt>
      <trkpt lat="45.75895" lon="6.53545">
        <ele>1660</ele>
        <time>2022-07-24T07:15:25Z</time>
      </trkpt>
      <trkpt lat="45.75896" lon="6.53545">
        <ele>1660</ele>
        <time>2022-07-24T07:15:26Z</time>
      </trkpt>
      <trkpt lat="45.75896" lon="6.53544">
        <ele>1660</ele>
        <time>2022-07-24T07:15:27Z</time>
      </trkpt>
      <trkpt lat="45.75896" lon="6.53543">
        <ele>1660</ele>
        <time>2022-07-24T07:15:28Z</time>
      </trkpt>
      <trkpt lat="45.75896" lon="6.53542">
        <ele>1660</ele>
        <time>2022-07-24T07:15:29Z</time>
      </trkpt>
      <trkpt lat="45.75897" lon="6.53541">
        <ele>1660</ele>
        <time>2022-07-24T07:15:30Z</time>
      </trkpt>
      <trkpt lat="45.75897" lon="6.5354">
        <ele>1660</ele>
        <time>2022-07-24T07:15:31Z</time>
      </trkpt>
      <trkpt lat="45.75897" lon="6.53539">
        <ele>1660</ele>
        <time>2022-07-24T07:15:32Z</time>
      </trkpt>
      <trkpt lat="45.75897" lon="6.53538">
        <ele>1660</ele>
        <time>2022-07-24T07:15:33Z</time>
      </trkpt>
      <trkpt lat="45.75898" lon="6.53537">
        <ele>1660</ele>
        <time>2022-07-24T07:15:34Z</time>
      </trkpt>
      <trkpt lat="45.75898" lon="6.53536">
        <ele>1660</ele>
        <time>2022-07-24T07:15:35Z</time>
      </trkpt>
      <trkpt lat="45.75898" lon="6.53536">
        <ele>1660</ele>
        <time>2022-07-24T07:15:36Z</time>
      </trkpt>
      <trkpt lat="45.75898" lon="6.53536">
        <ele>1660</ele>
        <time>2022-07-24T07:15:37Z</time>
      </trkpt>
      <trkpt lat="45.75898" lon="6.53535">
        <ele>1660</ele>
        <time>2022-07-24T07:15:38Z</time>
      </trkpt>
      <trkpt lat="45.75899" lon="6.53535">
        <ele>1660</ele>
        <time>2022-07-24T07:15:39Z</time>
      </trkpt>
      <trkpt lat="45.75899" lon="6.53536">
        <ele>1660</ele>
        <time>2022-07-24T07:15:40Z</time>
      </trkpt>
      <trkpt lat="45.75899" lon="6.53536">
        <ele>1660</ele>
        <time>2022-07-24T07:15:41Z</time>
      </trkpt>
      <trkpt lat="45.759" lon="6.53536">
        <ele>1660</ele>
        <time>2022-07-24T07:15:42Z</time>
      </trkpt>
      <trkpt lat="45.759" lon="6.53537">
        <ele>1660</ele>
        <time>2022-07-24T07:15:43Z</time>
      </trkpt>
      <trkpt lat="45.759" lon="6.53537">
        <ele>1660</ele>
        <time>2022-07-24T07:15:44Z</time>
      </trkpt>
      <trkpt lat="45.75901" lon="6.53538">
        <ele>1660</ele>
        <time>2022-07-24T07:15:45Z</time>
      </trkpt>
      <trkpt lat="45.75901" lon="6.53538">
        <ele>1661</ele>
        <time>2022-07-24T07:15:46Z</time>
      </trkpt>
      <trkpt lat="45.75902" lon="6.53538">
        <ele>1661</ele>
        <time>2022-07-24T07:15:47Z</time>
      </trkpt>
      <trkpt lat="45.75902" lon="6.53539">
        <ele>1661</ele>
        <time>2022-07-24T07:15:48Z</time>
      </trkpt>
      <trkpt lat="45.75903" lon="6.53539">
        <ele>1662</ele>
        <time>2022-07-24T07:15:49Z</time>
      </trkpt>
      <trkpt lat="45.75903" lon="6.5354">
        <ele>1662</ele>
        <time>2022-07-24T07:15:50Z</time>
      </trkpt>
      <trkpt lat="45.75904" lon="6.5354">
        <ele>1663</ele>
        <time>2022-07-24T07:15:51Z</time>
      </trkpt>
      <trkpt lat="45.75904" lon="6.53541">
        <ele>1663</ele>
        <time>2022-07-24T07:15:52Z</time>
      </trkpt>
      <trkpt lat="45.75905" lon="6.53541">
        <ele>1663</ele>
        <time>2022-07-24T07:15:53Z</time>
      </trkpt>
      <trkpt lat="45.75905" lon="6.53542">
        <ele>1663</ele>
        <time>2022-07-24T07:15:54Z</time>
      </trkpt>
      <trkpt lat="45.75906" lon="6.53542">
        <ele>1663</ele>
        <time>2022-07-24T07:15:55Z</time>
      </trkpt>
      <trkpt lat="45.75907" lon="6.53543">
        <ele>1664</ele>
        <time>2022-07-24T07:15:56Z</time>
      </trkpt>
      <trkpt lat="45.75907" lon="6.53543">
        <ele>1664</ele>
        <time>2022-07-24T07:15:57Z</time>
      </trkpt>
      <trkpt lat="45.75908" lon="6.53544">
        <ele>1664</ele>
        <time>2022-07-24T07:15:58Z</time>
      </trkpt>
      <trkpt lat="45.75908" lon="6.53544">
        <ele>1664</ele>
        <time>2022-07-24T07:15:59Z</time>
      </trkpt>
      <trkpt lat="45.75909" lon="6.53545">
        <ele>1664</ele>
        <time>2022-07-24T07:16:00Z</time>
      </trkpt>
      <trkpt lat="45.7591" lon="6.53545">
        <ele>1664</ele>
        <time>2022-07-24T07:16:01Z</time>
      </trkpt>
      <trkpt lat="45.7591" lon="6.53546">
        <ele>1664</ele>
        <time>2022-07-24T07:16:02Z</time>
      </trkpt>
      <trkpt lat="45.75911" lon="6.53547">
        <ele>1664</ele>
        <time>2022-07-24T07:16:03Z</time>
      </trkpt>
      <trkpt lat="45.75912" lon="6.53548">
        <ele>1664</ele>
        <time>2022-07-24T07:16:04Z</time>
      </trkpt>
      <trkpt lat="45.75913" lon="6.53549">
        <ele>1664</ele>
        <time>2022-07-24T07:16:05Z</time>
      </trkpt>
      <trkpt lat="45.75913" lon="6.5355">
        <ele>1665</ele>
        <time>2022-07-24T07:16:06Z</time>
      </trkpt>
      <trkpt lat="45.75914" lon="6.53552">
        <ele>1665</ele>
        <time>2022-07-24T07:16:07Z</time>
      </trkpt>
      <trkpt lat="45.75915" lon="6.53553">
        <ele>1665</ele>
        <time>2022-07-24T07:16:08Z</time>
      </trkpt>
      <trkpt lat="45.75915" lon="6.53555">
        <ele>1665</ele>
        <time>2022-07-24T07:16:09Z</time>
      </trkpt>
      <trkpt lat="45.75915" lon="6.53556">
        <ele>1665</ele>
        <time>2022-07-24T07:16:10Z</time>
      </trkpt>
      <trkpt lat="45.75916" lon="6.53558">
        <ele>1665</ele>
        <time>2022-07-24T07:16:11Z</time>
      </trkpt>
      <trkpt lat="45.75916" lon="6.5356">
        <ele>1665</ele>
        <time>2022-07-24T07:16:12Z</time>
      </trkpt>
      <trkpt lat="45.75916" lon="6.53561">
        <ele>1665</ele>
        <time>2022-07-24T07:16:13Z</time>
      </trkpt>
      <trkpt lat="45.75916" lon="6.53563">
        <ele>1665</ele>
        <time>2022-07-24T07:16:14Z</time>
      </trkpt>
      <trkpt lat="45.75916" lon="6.53564">
        <ele>1665</ele>
        <time>2022-07-24T07:16:15Z</time>
      </trkpt>
      <trkpt lat="45.75917" lon="6.53566">
        <ele>1665</ele>
        <time>2022-07-24T07:16:16Z</time>
      </trkpt>
      <trkpt lat="45.75917" lon="6.53568">
        <ele>1665</ele>
        <time>2022-07-24T07:16:17Z</time>
      </trkpt>
      <trkpt lat="45.75917" lon="6.53569">
        <ele>1665</ele>
        <time>2022-07-24T07:16:18Z</time>
      </trkpt>
      <trkpt lat="45.75917" lon="6.53571">
        <ele>1665</ele>
        <time>2022-07-24T07:16:19Z</time>
      </trkpt>
      <trkpt lat="45.75916" lon="6.53572">
        <ele>1665</ele>
        <time>2022-07-24T07:16:20Z</time>
      </trkpt>
      <trkpt lat="45.75916" lon="6.53574">
        <ele>1666</ele>
        <time>2022-07-24T07:16:21Z</time>
      </trkpt>
      <trkpt lat="45.75916" lon="6.53575">
        <ele>1666</ele>
        <time>2022-07-24T07:16:22Z</time>
      </trkpt>
      <trkpt lat="45.75916" lon="6.53577">
        <ele>1666</ele>
        <time>2022-07-24T07:16:23Z</time>
      </trkpt>
      <trkpt lat="45.75915" lon="6.53579">
        <ele>1666</ele>
        <time>2022-07-24T07:16:24Z</time>
      </trkpt>
      <trkpt lat="45.75915" lon="6.5358">
        <ele>1666</ele>
        <time>2022-07-24T07:16:25Z</time>
      </trkpt>
      <trkpt lat="45.75915" lon="6.53582">
        <ele>1666</ele>
        <time>2022-07-24T07:16:26Z</time>
      </trkpt>
      <trkpt lat="45.75915" lon="6.53583">
        <ele>1666</ele>
        <time>2022-07-24T07:16:27Z</time>
      </trkpt>
      <trkpt lat="45.75915" lon="6.53585">
        <ele>1666</ele>
        <time>2022-07-24T07:16:28Z</time>
      </trkpt>
      <trkpt lat="45.75915" lon="6.53586">
        <ele>1666</ele>
        <time>2022-07-24T07:16:29Z</time>
      </trkpt>
      <trkpt lat="45.75915" lon="6.53587">
        <ele>1666</ele>
        <time>2022-07-24T07:16:30Z</time>
      </trkpt>
      <trkpt lat="45.75915" lon="6.53589">
        <ele>1666</ele>
        <time>2022-07-24T07:16:31Z</time>
      </trkpt>
      <trkpt lat="45.75916" lon="6.5359">
        <ele>1666</ele>
        <time>2022-07-24T07:16:32Z</time>
      </trkpt>
      <trkpt lat="45.75917" lon="6.53591">
        <ele>1666</ele>
        <time>2022-07-24T07:16:33Z</time>
      </trkpt>
      <trkpt lat="45.75917" lon="6.53592">
        <ele>1666</ele>
        <time>2022-07-24T07:16:34Z</time>
      </trkpt>
      <trkpt lat="45.75918" lon="6.53593">
        <ele>1666</ele>
        <time>2022-07-24T07:16:35Z</time>
      </trkpt>
      <trkpt lat="45.75919" lon="6.53593">
        <ele>1667</ele>
        <time>2022-07-24T07:16:36Z</time>
      </trkpt>
      <trkpt lat="45.7592" lon="6.53594">
        <ele>1667</ele>
        <time>2022-07-24T07:16:37Z</time>
      </trkpt>
      <trkpt lat="45.75921" lon="6.53595">
        <ele>1667</ele>
        <time>2022-07-24T07:16:38Z</time>
      </trkpt>
      <trkpt lat="45.75922" lon="6.53595">
        <ele>1667</ele>
        <time>2022-07-24T07:16:39Z</time>
      </trkpt>
      <trkpt lat="45.75923" lon="6.53596">
        <ele>1667</ele>
        <time>2022-07-24T07:16:40Z</time>
      </trkpt>
      <trkpt lat="45.75924" lon="6.53596">
        <ele>1667</ele>
        <time>2022-07-24T07:16:41Z</time>
      </trkpt>
      <trkpt lat="45.75925" lon="6.53597">
        <ele>1667</ele>
        <time>2022-07-24T07:16:42Z</time>
      </trkpt>
      <trkpt lat="45.75926" lon="6.53598">
        <ele>1667</ele>
        <time>2022-07-24T07:16:43Z</time>
      </trkpt>
      <trkpt lat="45.75926" lon="6.53599">
        <ele>1667</ele>
        <time>2022-07-24T07:16:44Z</time>
      </trkpt>
      <trkpt lat="45.75927" lon="6.53599">
        <ele>1667</ele>
        <time>2022-07-24T07:16:45Z</time>
      </trkpt>
      <trkpt lat="45.75928" lon="6.536">
        <ele>1668</ele>
        <time>2022-07-24T07:16:46Z</time>
      </trkpt>
      <trkpt lat="45.75929" lon="6.53601">
        <ele>1668</ele>
        <time>2022-07-24T07:16:47Z</time>
      </trkpt>
      <trkpt lat="45.75929" lon="6.53602">
        <ele>1668</ele>
        <time>2022-07-24T07:16:48Z</time>
      </trkpt>
      <trkpt lat="45.7593" lon="6.53603">
        <ele>1668</ele>
        <time>2022-07-24T07:16:49Z</time>
      </trkpt>
      <trkpt lat="45.7593" lon="6.53604">
        <ele>1668</ele>
        <time>2022-07-24T07:16:50Z</time>
      </trkpt>
      <trkpt lat="45.75931" lon="6.53605">
        <ele>1668</ele>
        <time>2022-07-24T07:16:51Z</time>
      </trkpt>
      <trkpt lat="45.75931" lon="6.53606">
        <ele>1668</ele>
        <time>2022-07-24T07:16:52Z</time>
      </trkpt>
      <trkpt lat="45.75932" lon="6.53607">
        <ele>1668</ele>
        <time>2022-07-24T07:16:53Z</time>
      </trkpt>
      <trkpt lat="45.75932" lon="6.53609">
        <ele>1668</ele>
        <time>2022-07-24T07:16:54Z</time>
      </trkpt>
      <trkpt lat="45.75933" lon="6.5361">
        <ele>1668</ele>
        <time>2022-07-24T07:16:55Z</time>
      </trkpt>
      <trkpt lat="45.75933" lon="6.53612">
        <ele>1669</ele>
        <time>2022-07-24T07:16:56Z</time>
      </trkpt>
      <trkpt lat="45.75933" lon="6.53613">
        <ele>1669</ele>
        <time>2022-07-24T07:16:57Z</time>
      </trkpt>
      <trkpt lat="45.75934" lon="6.53614">
        <ele>1669</ele>
        <time>2022-07-24T07:16:58Z</time>
      </trkpt>
      <trkpt lat="45.75934" lon="6.53616">
        <ele>1669</ele>
        <time>2022-07-24T07:16:59Z</time>
      </trkpt>
      <trkpt lat="45.75935" lon="6.53617">
        <ele>1669</ele>
        <time>2022-07-24T07:17:00Z</time>
      </trkpt>
      <trkpt lat="45.75935" lon="6.53619">
        <ele>1669</ele>
        <time>2022-07-24T07:17:01Z</time>
      </trkpt>
      <trkpt lat="45.75935" lon="6.5362">
        <ele>1669</ele>
        <time>2022-07-24T07:17:02Z</time>
      </trkpt>
      <trkpt lat="45.75935" lon="6.53622">
        <ele>1669</ele>
        <time>2022-07-24T07:17:03Z</time>
      </trkpt>
      <trkpt lat="45.75935" lon="6.53623">
        <ele>1669</ele>
        <time>2022-07-24T07:17:04Z</time>
      </trkpt>
      <trkpt lat="45.75935" lon="6.53625">
        <ele>1669</ele>
        <time>2022-07-24T07:17:05Z</time>
      </trkpt>
      <trkpt lat="45.75935" lon="6.53626">
        <ele>1669</ele>
        <time>2022-07-24T07:17:06Z</time>
      </trkpt>
      <trkpt lat="45.75935" lon="6.53627">
        <ele>1669</ele>
        <time>2022-07-24T07:17:07Z</time>
      </trkpt>
      <trkpt lat="45.75935" lon="6.53628">
        <ele>1669</ele>
        <time>2022-07-24T07:17:08Z</time>
      </trkpt>
      <trkpt lat="45.75935" lon="6.53629">
        <ele>1669</ele>
        <time>2022-07-24T07:17:09Z</time>
      </trkpt>
      <trkpt lat="45.75935" lon="6.5363">
        <ele>1669</ele>
        <time>2022-07-24T07:17:10Z</time>
      </trkpt>
      <trkpt lat="45.75935" lon="6.53631">
        <ele>1670</ele>
        <time>2022-07-24T07:17:11Z</time>
      </trkpt>
      <trkpt lat="45.75935" lon="6.53632">
        <ele>1670</ele>
        <time>2022-07-24T07:17:12Z</time>
      </trkpt>
      <trkpt lat="45.75935" lon="6.53633">
        <ele>1670</ele>
        <time>2022-07-24T07:17:13Z</time>
      </trkpt>
      <trkpt lat="45.75936" lon="6.53634">
        <ele>1670</ele>
        <time>2022-07-24T07:17:14Z</time>
      </trkpt>
      <trkpt lat="45.75936" lon="6.53635">
        <ele>1670</ele>
        <time>2022-07-24T07:17:15Z</time>
      </trkpt>
      <trkpt lat="45.75936" lon="6.53636">
        <ele>1670</ele>
        <time>2022-07-24T07:17:16Z</time>
      </trkpt>
      <trkpt lat="45.75936" lon="6.53637">
        <ele>1670</ele>
        <time>2022-07-24T07:17:17Z</time>
      </trkpt>
      <trkpt lat="45.75936" lon="6.53638">
        <ele>1670</ele>
        <time>2022-07-24T07:17:18Z</time>
      </trkpt>
      <trkpt lat="45.75937" lon="6.53639">
        <ele>1670</ele>
        <time>2022-07-24T07:17:19Z</time>
      </trkpt>
      <trkpt lat="45.75937" lon="6.5364">
        <ele>1670</ele>
        <time>2022-07-24T07:17:20Z</time>
      </trkpt>
      <trkpt lat="45.75937" lon="6.5364">
        <ele>1672</ele>
        <time>2022-07-24T07:17:35Z</time>
      </trkpt>
      <trkpt lat="45.75938" lon="6.53641">
        <ele>1672</ele>
        <time>2022-07-24T07:17:36Z</time>
      </trkpt>
      <trkpt lat="45.75938" lon="6.53642">
        <ele>1672</ele>
        <time>2022-07-24T07:17:37Z</time>
      </trkpt>
      <trkpt lat="45.75938" lon="6.53642">
        <ele>1672</ele>
        <time>2022-07-24T07:17:38Z</time>
      </trkpt>
      <trkpt lat="45.75938" lon="6.53643">
        <ele>1672</ele>
        <time>2022-07-24T07:17:39Z</time>
      </trkpt>
      <trkpt lat="45.75938" lon="6.53644">
        <ele>1672</ele>
        <time>2022-07-24T07:17:40Z</time>
      </trkpt>
      <trkpt lat="45.75939" lon="6.53645">
        <ele>1672</ele>
        <time>2022-07-24T07:17:41Z</time>
      </trkpt>
      <trkpt lat="45.75939" lon="6.53646">
        <ele>1672</ele>
        <time>2022-07-24T07:17:42Z</time>
      </trkpt>
      <trkpt lat="45.75939" lon="6.53647">
        <ele>1672</ele>
        <time>2022-07-24T07:17:43Z</time>
      </trkpt>
      <trkpt lat="45.75939" lon="6.53648">
        <ele>1672</ele>
        <time>2022-07-24T07:17:44Z</time>
      </trkpt>
      <trkpt lat="45.75939" lon="6.53649">
        <ele>1672</ele>
        <time>2022-07-24T07:17:45Z</time>
      </trkpt>
      <trkpt lat="45.75939" lon="6.5365">
        <ele>1673</ele>
        <time>2022-07-24T07:17:46Z</time>
      </trkpt>
      <trkpt lat="45.75939" lon="6.53651">
        <ele>1673</ele>
        <time>2022-07-24T07:17:47Z</time>
      </trkpt>
      <trkpt lat="45.75939" lon="6.53652">
        <ele>1673</ele>
        <time>2022-07-24T07:17:48Z</time>
      </trkpt>
      <trkpt lat="45.75939" lon="6.53653">
        <ele>1673</ele>
        <time>2022-07-24T07:17:49Z</time>
      </trkpt>
      <trkpt lat="45.75939" lon="6.53654">
        <ele>1673</ele>
        <time>2022-07-24T07:17:50Z</time>
      </trkpt>
      <trkpt lat="45.75939" lon="6.53656">
        <ele>1675</ele>
        <time>2022-07-24T07:18:58Z</time>
      </trkpt>
      <trkpt lat="45.75939" lon="6.53657">
        <ele>1675</ele>
        <time>2022-07-24T07:18:59Z</time>
      </trkpt>
      <trkpt lat="45.75939" lon="6.53658">
        <ele>1675</ele>
        <time>2022-07-24T07:19:00Z</time>
      </trkpt>
      <trkpt lat="45.75939" lon="6.53659">
        <ele>1675</ele>
        <time>2022-07-24T07:19:01Z</time>
      </trkpt>
      <trkpt lat="45.75939" lon="6.53659">
        <ele>1675</ele>
        <time>2022-07-24T07:19:02Z</time>
      </trkpt>
      <trkpt lat="45.75939" lon="6.5366">
        <ele>1675</ele>
        <time>2022-07-24T07:19:03Z</time>
      </trkpt>
      <trkpt lat="45.7594" lon="6.53661">
        <ele>1675</ele>
        <time>2022-07-24T07:19:04Z</time>
      </trkpt>
      <trkpt lat="45.7594" lon="6.53662">
        <ele>1675</ele>
        <time>2022-07-24T07:19:05Z</time>
      </trkpt>
      <trkpt lat="45.7594" lon="6.53663">
        <ele>1675</ele>
        <time>2022-07-24T07:19:06Z</time>
      </trkpt>
      <trkpt lat="45.7594" lon="6.53664">
        <ele>1675</ele>
        <time>2022-07-24T07:19:07Z</time>
      </trkpt>
      <trkpt lat="45.7594" lon="6.53665">
        <ele>1675</ele>
        <time>2022-07-24T07:19:08Z</time>
      </trkpt>
      <trkpt lat="45.7594" lon="6.53667">
        <ele>1675</ele>
        <time>2022-07-24T07:19:09Z</time>
      </trkpt>
      <trkpt lat="45.7594" lon="6.53668">
        <ele>1675</ele>
        <time>2022-07-24T07:19:10Z</time>
      </trkpt>
      <trkpt lat="45.7594" lon="6.5367">
        <ele>1675</ele>
        <time>2022-07-24T07:19:11Z</time>
      </trkpt>
      <trkpt lat="45.7594" lon="6.53671">
        <ele>1675</ele>
        <time>2022-07-24T07:19:12Z</time>
      </trkpt>
      <trkpt lat="45.7594" lon="6.53673">
        <ele>1675</ele>
        <time>2022-07-24T07:19:13Z</time>
      </trkpt>
      <trkpt lat="45.7594" lon="6.53674">
        <ele>1675</ele>
        <time>2022-07-24T07:19:14Z</time>
      </trkpt>
      <trkpt lat="45.7594" lon="6.53676">
        <ele>1675</ele>
        <time>2022-07-24T07:19:15Z</time>
      </trkpt>
      <trkpt lat="45.7594" lon="6.53678">
        <ele>1675</ele>
        <time>2022-07-24T07:19:16Z</time>
      </trkpt>
      <trkpt lat="45.7594" lon="6.53679">
        <ele>1675</ele>
        <time>2022-07-24T07:19:17Z</time>
      </trkpt>
      <trkpt lat="45.7594" lon="6.53681">
        <ele>1675</ele>
        <time>2022-07-24T07:19:18Z</time>
      </trkpt>
      <trkpt lat="45.7594" lon="6.53682">
        <ele>1675</ele>
        <time>2022-07-24T07:19:19Z</time>
      </trkpt>
      <trkpt lat="45.7594" lon="6.53684">
        <ele>1675</ele>
        <time>2022-07-24T07:19:20Z</time>
      </trkpt>
      <trkpt lat="45.7594" lon="6.53685">
        <ele>1675</ele>
        <time>2022-07-24T07:19:21Z</time>
      </trkpt>
      <trkpt lat="45.7594" lon="6.53687">
        <ele>1675</ele>
        <time>2022-07-24T07:19:22Z</time>
      </trkpt>
      <trkpt lat="45.7594" lon="6.53688">
        <ele>1675</ele>
        <time>2022-07-24T07:19:23Z</time>
      </trkpt>
      <trkpt lat="45.7594" lon="6.53689">
        <ele>1675</ele>
        <time>2022-07-24T07:19:24Z</time>
      </trkpt>
      <trkpt lat="45.7594" lon="6.53691">
        <ele>1675</ele>
        <time>2022-07-24T07:19:25Z</time>
      </trkpt>
      <trkpt lat="45.7594" lon="6.53692">
        <ele>1675</ele>
        <time>2022-07-24T07:19:26Z</time>
      </trkpt>
      <trkpt lat="45.7594" lon="6.53693">
        <ele>1675</ele>
        <time>2022-07-24T07:19:27Z</time>
      </trkpt>
      <trkpt lat="45.75941" lon="6.53695">
        <ele>1675</ele>
        <time>2022-07-24T07:19:28Z</time>
      </trkpt>
      <trkpt lat="45.75941" lon="6.53696">
        <ele>1675</ele>
        <time>2022-07-24T07:19:29Z</time>
      </trkpt>
      <trkpt lat="45.75941" lon="6.53697">
        <ele>1675</ele>
        <time>2022-07-24T07:19:30Z</time>
      </trkpt>
      <trkpt lat="45.75941" lon="6.53698">
        <ele>1676</ele>
        <time>2022-07-24T07:19:31Z</time>
      </trkpt>
      <trkpt lat="45.75941" lon="6.537">
        <ele>1676</ele>
        <time>2022-07-24T07:19:32Z</time>
      </trkpt>
      <trkpt lat="45.75942" lon="6.53701">
        <ele>1676</ele>
        <time>2022-07-24T07:19:33Z</time>
      </trkpt>
      <trkpt lat="45.75942" lon="6.53702">
        <ele>1676</ele>
        <time>2022-07-24T07:19:34Z</time>
      </trkpt>
      <trkpt lat="45.75942" lon="6.53704">
        <ele>1676</ele>
        <time>2022-07-24T07:19:35Z</time>
      </trkpt>
      <trkpt lat="45.75943" lon="6.53705">
        <ele>1676</ele>
        <time>2022-07-24T07:19:36Z</time>
      </trkpt>
      <trkpt lat="45.75943" lon="6.53706">
        <ele>1676</ele>
        <time>2022-07-24T07:19:37Z</time>
      </trkpt>
      <trkpt lat="45.75944" lon="6.53708">
        <ele>1676</ele>
        <time>2022-07-24T07:19:38Z</time>
      </trkpt>
      <trkpt lat="45.75944" lon="6.53709">
        <ele>1676</ele>
        <time>2022-07-24T07:19:39Z</time>
      </trkpt>
      <trkpt lat="45.75945" lon="6.5371">
        <ele>1676</ele>
        <time>2022-07-24T07:19:40Z</time>
      </trkpt>
      <trkpt lat="45.75945" lon="6.53711">
        <ele>1677</ele>
        <time>2022-07-24T07:19:41Z</time>
      </trkpt>
      <trkpt lat="45.75946" lon="6.53713">
        <ele>1677</ele>
        <time>2022-07-24T07:19:42Z</time>
      </trkpt>
      <trkpt lat="45.75946" lon="6.53714">
        <ele>1677</ele>
        <time>2022-07-24T07:19:43Z</time>
      </trkpt>
      <trkpt lat="45.75947" lon="6.53715">
        <ele>1677</ele>
        <time>2022-07-24T07:19:44Z</time>
      </trkpt>
      <trkpt lat="45.75947" lon="6.53716">
        <ele>1677</ele>
        <time>2022-07-24T07:19:45Z</time>
      </trkpt>
      <trkpt lat="45.75948" lon="6.53717">
        <ele>1677</ele>
        <time>2022-07-24T07:19:46Z</time>
      </trkpt>
      <trkpt lat="45.75949" lon="6.53718">
        <ele>1677</ele>
        <time>2022-07-24T07:19:47Z</time>
      </trkpt>
      <trkpt lat="45.75949" lon="6.5372">
        <ele>1677</ele>
        <time>2022-07-24T07:19:48Z</time>
      </trkpt>
      <trkpt lat="45.7595" lon="6.53721">
        <ele>1677</ele>
        <time>2022-07-24T07:19:49Z</time>
      </trkpt>
      <trkpt lat="45.75951" lon="6.53722">
        <ele>1677</ele>
        <time>2022-07-24T07:19:50Z</time>
      </trkpt>
      <trkpt lat="45.75952" lon="6.53724">
        <ele>1677</ele>
        <time>2022-07-24T07:19:51Z</time>
      </trkpt>
      <trkpt lat="45.75952" lon="6.53725">
        <ele>1677</ele>
        <time>2022-07-24T07:19:52Z</time>
      </trkpt>
      <trkpt lat="45.75953" lon="6.53726">
        <ele>1677</ele>
        <time>2022-07-24T07:19:53Z</time>
      </trkpt>
      <trkpt lat="45.75953" lon="6.53727">
        <ele>1677</ele>
        <time>2022-07-24T07:19:54Z</time>
      </trkpt>
      <trkpt lat="45.75954" lon="6.53729">
        <ele>1677</ele>
        <time>2022-07-24T07:19:55Z</time>
      </trkpt>
      <trkpt lat="45.75954" lon="6.5373">
        <ele>1678</ele>
        <time>2022-07-24T07:19:56Z</time>
      </trkpt>
      <trkpt lat="45.75954" lon="6.53731">
        <ele>1678</ele>
        <time>2022-07-24T07:19:57Z</time>
      </trkpt>
      <trkpt lat="45.75954" lon="6.53732">
        <ele>1678</ele>
        <time>2022-07-24T07:19:58Z</time>
      </trkpt>
      <trkpt lat="45.75955" lon="6.53734">
        <ele>1678</ele>
        <time>2022-07-24T07:19:59Z</time>
      </trkpt>
      <trkpt lat="45.75954" lon="6.53735">
        <ele>1678</ele>
        <time>2022-07-24T07:20:00Z</time>
      </trkpt>
      <trkpt lat="45.75954" lon="6.53736">
        <ele>1678</ele>
        <time>2022-07-24T07:20:01Z</time>
      </trkpt>
      <trkpt lat="45.75954" lon="6.53737">
        <ele>1678</ele>
        <time>2022-07-24T07:20:02Z</time>
      </trkpt>
      <trkpt lat="45.75954" lon="6.53738">
        <ele>1678</ele>
        <time>2022-07-24T07:20:03Z</time>
      </trkpt>
      <trkpt lat="45.75954" lon="6.53739">
        <ele>1678</ele>
        <time>2022-07-24T07:20:04Z</time>
      </trkpt>
      <trkpt lat="45.75954" lon="6.53741">
        <ele>1678</ele>
        <time>2022-07-24T07:20:05Z</time>
      </trkpt>
      <trkpt lat="45.75953" lon="6.53742">
        <ele>1679</ele>
        <time>2022-07-24T07:20:06Z</time>
      </trkpt>
      <trkpt lat="45.75953" lon="6.53743">
        <ele>1679</ele>
        <time>2022-07-24T07:20:07Z</time>
      </trkpt>
      <trkpt lat="45.75953" lon="6.53744">
        <ele>1679</ele>
        <time>2022-07-24T07:20:08Z</time>
      </trkpt>
      <trkpt lat="45.75953" lon="6.53746">
        <ele>1679</ele>
        <time>2022-07-24T07:20:09Z</time>
      </trkpt>
      <trkpt lat="45.75952" lon="6.53747">
        <ele>1679</ele>
        <time>2022-07-24T07:20:10Z</time>
      </trkpt>
      <trkpt lat="45.75952" lon="6.53749">
        <ele>1679</ele>
        <time>2022-07-24T07:20:11Z</time>
      </trkpt>
      <trkpt lat="45.75952" lon="6.5375">
        <ele>1679</ele>
        <time>2022-07-24T07:20:12Z</time>
      </trkpt>
      <trkpt lat="45.75952" lon="6.53752">
        <ele>1679</ele>
        <time>2022-07-24T07:20:13Z</time>
      </trkpt>
      <trkpt lat="45.75952" lon="6.53753">
        <ele>1679</ele>
        <time>2022-07-24T07:20:14Z</time>
      </trkpt>
      <trkpt lat="45.75952" lon="6.53755">
        <ele>1679</ele>
        <time>2022-07-24T07:20:15Z</time>
      </trkpt>
      <trkpt lat="45.75951" lon="6.53756">
        <ele>1679</ele>
        <time>2022-07-24T07:20:16Z</time>
      </trkpt>
      <trkpt lat="45.75951" lon="6.53757">
        <ele>1679</ele>
        <time>2022-07-24T07:20:17Z</time>
      </trkpt>
      <trkpt lat="45.75951" lon="6.53758">
        <ele>1679</ele>
        <time>2022-07-24T07:20:18Z</time>
      </trkpt>
      <trkpt lat="45.75951" lon="6.5376">
        <ele>1679</ele>
        <time>2022-07-24T07:20:19Z</time>
      </trkpt>
      <trkpt lat="45.7595" lon="6.53761">
        <ele>1679</ele>
        <time>2022-07-24T07:20:20Z</time>
      </trkpt>
      <trkpt lat="45.7595" lon="6.53762">
        <ele>1680</ele>
        <time>2022-07-24T07:20:21Z</time>
      </trkpt>
      <trkpt lat="45.7595" lon="6.53763">
        <ele>1680</ele>
        <time>2022-07-24T07:20:22Z</time>
      </trkpt>
      <trkpt lat="45.7595" lon="6.53764">
        <ele>1680</ele>
        <time>2022-07-24T07:20:23Z</time>
      </trkpt>
      <trkpt lat="45.7595" lon="6.53765">
        <ele>1680</ele>
        <time>2022-07-24T07:20:24Z</time>
      </trkpt>
      <trkpt lat="45.75949" lon="6.53766">
        <ele>1680</ele>
        <time>2022-07-24T07:20:25Z</time>
      </trkpt>
      <trkpt lat="45.75949" lon="6.53767">
        <ele>1680</ele>
        <time>2022-07-24T07:20:26Z</time>
      </trkpt>
      <trkpt lat="45.75949" lon="6.53768">
        <ele>1680</ele>
        <time>2022-07-24T07:20:27Z</time>
      </trkpt>
      <trkpt lat="45.75949" lon="6.53769">
        <ele>1680</ele>
        <time>2022-07-24T07:20:28Z</time>
      </trkpt>
      <trkpt lat="45.75949" lon="6.5377">
        <ele>1680</ele>
        <time>2022-07-24T07:20:29Z</time>
      </trkpt>
      <trkpt lat="45.75949" lon="6.53771">
        <ele>1680</ele>
        <time>2022-07-24T07:20:30Z</time>
      </trkpt>
      <trkpt lat="45.75949" lon="6.53772">
        <ele>1681</ele>
        <time>2022-07-24T07:20:31Z</time>
      </trkpt>
      <trkpt lat="45.75949" lon="6.53774">
        <ele>1681</ele>
        <time>2022-07-24T07:20:32Z</time>
      </trkpt>
      <trkpt lat="45.75949" lon="6.53775">
        <ele>1681</ele>
        <time>2022-07-24T07:20:33Z</time>
      </trkpt>
      <trkpt lat="45.75949" lon="6.53776">
        <ele>1681</ele>
        <time>2022-07-24T07:20:34Z</time>
      </trkpt>
      <trkpt lat="45.75949" lon="6.53777">
        <ele>1681</ele>
        <time>2022-07-24T07:20:35Z</time>
      </trkpt>
      <trkpt lat="45.75948" lon="6.53778">
        <ele>1682</ele>
        <time>2022-07-24T07:20:36Z</time>
      </trkpt>
      <trkpt lat="45.75948" lon="6.53779">
        <ele>1682</ele>
        <time>2022-07-24T07:20:37Z</time>
      </trkpt>
      <trkpt lat="45.75948" lon="6.5378">
        <ele>1682</ele>
        <time>2022-07-24T07:20:38Z</time>
      </trkpt>
      <trkpt lat="45.75948" lon="6.53782">
        <ele>1682</ele>
        <time>2022-07-24T07:20:39Z</time>
      </trkpt>
      <trkpt lat="45.75948" lon="6.53783">
        <ele>1682</ele>
        <time>2022-07-24T07:20:40Z</time>
      </trkpt>
      <trkpt lat="45.75948" lon="6.53784">
        <ele>1682</ele>
        <time>2022-07-24T07:20:41Z</time>
      </trkpt>
      <trkpt lat="45.75948" lon="6.53785">
        <ele>1682</ele>
        <time>2022-07-24T07:20:42Z</time>
      </trkpt>
      <trkpt lat="45.75948" lon="6.53786">
        <ele>1682</ele>
        <time>2022-07-24T07:20:43Z</time>
      </trkpt>
      <trkpt lat="45.75948" lon="6.53787">
        <ele>1682</ele>
        <time>2022-07-24T07:20:44Z</time>
      </trkpt>
      <trkpt lat="45.75948" lon="6.53788">
        <ele>1682</ele>
        <time>2022-07-24T07:20:45Z</time>
      </trkpt>
      <trkpt lat="45.75948" lon="6.53789">
        <ele>1683</ele>
        <time>2022-07-24T07:20:46Z</time>
      </trkpt>
      <trkpt lat="45.75947" lon="6.53791">
        <ele>1683</ele>
        <time>2022-07-24T07:20:47Z</time>
      </trkpt>
      <trkpt lat="45.75947" lon="6.53792">
        <ele>1683</ele>
        <time>2022-07-24T07:20:48Z</time>
      </trkpt>
      <trkpt lat="45.75947" lon="6.53793">
        <ele>1683</ele>
        <time>2022-07-24T07:20:49Z</time>
      </trkpt>
      <trkpt lat="45.75947" lon="6.53794">
        <ele>1683</ele>
        <time>2022-07-24T07:20:50Z</time>
      </trkpt>
      <trkpt lat="45.75947" lon="6.53795">
        <ele>1683</ele>
        <time>2022-07-24T07:20:51Z</time>
      </trkpt>
      <trkpt lat="45.75947" lon="6.53797">
        <ele>1683</ele>
        <time>2022-07-24T07:20:52Z</time>
      </trkpt>
      <trkpt lat="45.75947" lon="6.53798">
        <ele>1683</ele>
        <time>2022-07-24T07:20:53Z</time>
      </trkpt>
      <trkpt lat="45.75947" lon="6.53799">
        <ele>1683</ele>
        <time>2022-07-24T07:20:54Z</time>
      </trkpt>
      <trkpt lat="45.75947" lon="6.538">
        <ele>1683</ele>
        <time>2022-07-24T07:20:55Z</time>
      </trkpt>
      <trkpt lat="45.75947" lon="6.53801">
        <ele>1684</ele>
        <time>2022-07-24T07:20:56Z</time>
      </trkpt>
      <trkpt lat="45.75947" lon="6.53802">
        <ele>1684</ele>
        <time>2022-07-24T07:20:57Z</time>
      </trkpt>
      <trkpt lat="45.75947" lon="6.53804">
        <ele>1684</ele>
        <time>2022-07-24T07:20:58Z</time>
      </trkpt>
      <trkpt lat="45.75947" lon="6.53805">
        <ele>1684</ele>
        <time>2022-07-24T07:20:59Z</time>
      </trkpt>
      <trkpt lat="45.75947" lon="6.53806">
        <ele>1684</ele>
        <time>2022-07-24T07:21:00Z</time>
      </trkpt>
      <trkpt lat="45.75947" lon="6.53807">
        <ele>1684</ele>
        <time>2022-07-24T07:21:01Z</time>
      </trkpt>
      <trkpt lat="45.75946" lon="6.53808">
        <ele>1684</ele>
        <time>2022-07-24T07:21:02Z</time>
      </trkpt>
      <trkpt lat="45.75946" lon="6.5381">
        <ele>1684</ele>
        <time>2022-07-24T07:21:03Z</time>
      </trkpt>
      <trkpt lat="45.75946" lon="6.53811">
        <ele>1684</ele>
        <time>2022-07-24T07:21:04Z</time>
      </trkpt>
      <trkpt lat="45.75946" lon="6.53812">
        <ele>1684</ele>
        <time>2022-07-24T07:21:05Z</time>
      </trkpt>
      <trkpt lat="45.75946" lon="6.53813">
        <ele>1684</ele>
        <time>2022-07-24T07:21:06Z</time>
      </trkpt>
      <trkpt lat="45.75946" lon="6.53815">
        <ele>1684</ele>
        <time>2022-07-24T07:21:07Z</time>
      </trkpt>
      <trkpt lat="45.75946" lon="6.53816">
        <ele>1684</ele>
        <time>2022-07-24T07:21:08Z</time>
      </trkpt>
      <trkpt lat="45.75945" lon="6.53817">
        <ele>1684</ele>
        <time>2022-07-24T07:21:09Z</time>
      </trkpt>
      <trkpt lat="45.75945" lon="6.53819">
        <ele>1684</ele>
        <time>2022-07-24T07:21:10Z</time>
      </trkpt>
      <trkpt lat="45.75945" lon="6.5382">
        <ele>1684</ele>
        <time>2022-07-24T07:21:11Z</time>
      </trkpt>
      <trkpt lat="45.75945" lon="6.53821">
        <ele>1684</ele>
        <time>2022-07-24T07:21:12Z</time>
      </trkpt>
      <trkpt lat="45.75944" lon="6.53822">
        <ele>1684</ele>
        <time>2022-07-24T07:21:13Z</time>
      </trkpt>
      <trkpt lat="45.75944" lon="6.53824">
        <ele>1684</ele>
        <time>2022-07-24T07:21:14Z</time>
      </trkpt>
      <trkpt lat="45.75944" lon="6.53825">
        <ele>1684</ele>
        <time>2022-07-24T07:21:15Z</time>
      </trkpt>
      <trkpt lat="45.75944" lon="6.53826">
        <ele>1685</ele>
        <time>2022-07-24T07:21:16Z</time>
      </trkpt>
      <trkpt lat="45.75943" lon="6.53827">
        <ele>1685</ele>
        <time>2022-07-24T07:21:17Z</time>
      </trkpt>
      <trkpt lat="45.75943" lon="6.53829">
        <ele>1685</ele>
        <time>2022-07-24T07:21:18Z</time>
      </trkpt>
      <trkpt lat="45.75943" lon="6.5383">
        <ele>1685</ele>
        <time>2022-07-24T07:21:19Z</time>
      </trkpt>
      <trkpt lat="45.75942" lon="6.53831">
        <ele>1685</ele>
        <time>2022-07-24T07:21:20Z</time>
      </trkpt>
      <trkpt lat="45.75942" lon="6.53832">
        <ele>1685</ele>
        <time>2022-07-24T07:21:21Z</time>
      </trkpt>
      <trkpt lat="45.75942" lon="6.53833">
        <ele>1685</ele>
        <time>2022-07-24T07:21:22Z</time>
      </trkpt>
      <trkpt lat="45.75942" lon="6.53834">
        <ele>1685</ele>
        <time>2022-07-24T07:21:23Z</time>
      </trkpt>
      <trkpt lat="45.75941" lon="6.53835">
        <ele>1685</ele>
        <time>2022-07-24T07:21:24Z</time>
      </trkpt>
      <trkpt lat="45.75941" lon="6.53836">
        <ele>1685</ele>
        <time>2022-07-24T07:21:25Z</time>
      </trkpt>
      <trkpt lat="45.75941" lon="6.53837">
        <ele>1686</ele>
        <time>2022-07-24T07:21:26Z</time>
      </trkpt>
      <trkpt lat="45.7594" lon="6.53838">
        <ele>1686</ele>
        <time>2022-07-24T07:21:27Z</time>
      </trkpt>
      <trkpt lat="45.7594" lon="6.53839">
        <ele>1686</ele>
        <time>2022-07-24T07:21:28Z</time>
      </trkpt>
      <trkpt lat="45.7594" lon="6.5384">
        <ele>1686</ele>
        <time>2022-07-24T07:21:29Z</time>
      </trkpt>
      <trkpt lat="45.75939" lon="6.53841">
        <ele>1686</ele>
        <time>2022-07-24T07:21:30Z</time>
      </trkpt>
      <trkpt lat="45.75939" lon="6.53842">
        <ele>1686</ele>
        <time>2022-07-24T07:21:31Z</time>
      </trkpt>
      <trkpt lat="45.75939" lon="6.53844">
        <ele>1686</ele>
        <time>2022-07-24T07:21:32Z</time>
      </trkpt>
      <trkpt lat="45.75938" lon="6.53845">
        <ele>1686</ele>
        <time>2022-07-24T07:21:33Z</time>
      </trkpt>
      <trkpt lat="45.75938" lon="6.53846">
        <ele>1686</ele>
        <time>2022-07-24T07:21:34Z</time>
      </trkpt>
      <trkpt lat="45.75938" lon="6.53847">
        <ele>1686</ele>
        <time>2022-07-24T07:21:35Z</time>
      </trkpt>
      <trkpt lat="45.75937" lon="6.53848">
        <ele>1687</ele>
        <time>2022-07-24T07:21:36Z</time>
      </trkpt>
      <trkpt lat="45.75937" lon="6.53849">
        <ele>1687</ele>
        <time>2022-07-24T07:21:37Z</time>
      </trkpt>
      <trkpt lat="45.75937" lon="6.53851">
        <ele>1687</ele>
        <time>2022-07-24T07:21:38Z</time>
      </trkpt>
      <trkpt lat="45.75937" lon="6.53852">
        <ele>1687</ele>
        <time>2022-07-24T07:21:39Z</time>
      </trkpt>
      <trkpt lat="45.75937" lon="6.53853">
        <ele>1687</ele>
        <time>2022-07-24T07:21:40Z</time>
      </trkpt>
      <trkpt lat="45.75936" lon="6.53854">
        <ele>1687</ele>
        <time>2022-07-24T07:21:41Z</time>
      </trkpt>
      <trkpt lat="45.75936" lon="6.53856">
        <ele>1687</ele>
        <time>2022-07-24T07:21:42Z</time>
      </trkpt>
      <trkpt lat="45.75936" lon="6.53857">
        <ele>1687</ele>
        <time>2022-07-24T07:21:43Z</time>
      </trkpt>
      <trkpt lat="45.75936" lon="6.53858">
        <ele>1687</ele>
        <time>2022-07-24T07:21:44Z</time>
      </trkpt>
      <trkpt lat="45.75935" lon="6.53859">
        <ele>1687</ele>
        <time>2022-07-24T07:21:45Z</time>
      </trkpt>
      <trkpt lat="45.75935" lon="6.53861">
        <ele>1688</ele>
        <time>2022-07-24T07:21:46Z</time>
      </trkpt>
      <trkpt lat="45.75935" lon="6.53862">
        <ele>1688</ele>
        <time>2022-07-24T07:21:47Z</time>
      </trkpt>
      <trkpt lat="45.75934" lon="6.53863">
        <ele>1688</ele>
        <time>2022-07-24T07:21:48Z</time>
      </trkpt>
      <trkpt lat="45.75934" lon="6.53865">
        <ele>1688</ele>
        <time>2022-07-24T07:21:49Z</time>
      </trkpt>
      <trkpt lat="45.75934" lon="6.53866">
        <ele>1688</ele>
        <time>2022-07-24T07:21:50Z</time>
      </trkpt>
      <trkpt lat="45.75934" lon="6.53867">
        <ele>1688</ele>
        <time>2022-07-24T07:21:51Z</time>
      </trkpt>
      <trkpt lat="45.75933" lon="6.53869">
        <ele>1688</ele>
        <time>2022-07-24T07:21:52Z</time>
      </trkpt>
      <trkpt lat="45.75933" lon="6.5387">
        <ele>1688</ele>
        <time>2022-07-24T07:21:53Z</time>
      </trkpt>
      <trkpt lat="45.75933" lon="6.53872">
        <ele>1688</ele>
        <time>2022-07-24T07:21:54Z</time>
      </trkpt>
      <trkpt lat="45.75932" lon="6.53873">
        <ele>1688</ele>
        <time>2022-07-24T07:21:55Z</time>
      </trkpt>
      <trkpt lat="45.75932" lon="6.53875">
        <ele>1689</ele>
        <time>2022-07-24T07:21:56Z</time>
      </trkpt>
      <trkpt lat="45.75932" lon="6.53876">
        <ele>1689</ele>
        <time>2022-07-24T07:21:57Z</time>
      </trkpt>
      <trkpt lat="45.75931" lon="6.53878">
        <ele>1689</ele>
        <time>2022-07-24T07:21:58Z</time>
      </trkpt>
      <trkpt lat="45.75931" lon="6.53879">
        <ele>1689</ele>
        <time>2022-07-24T07:21:59Z</time>
      </trkpt>
      <trkpt lat="45.75931" lon="6.53881">
        <ele>1689</ele>
        <time>2022-07-24T07:22:00Z</time>
      </trkpt>
      <trkpt lat="45.7593" lon="6.53882">
        <ele>1689</ele>
        <time>2022-07-24T07:22:01Z</time>
      </trkpt>
      <trkpt lat="45.7593" lon="6.53884">
        <ele>1689</ele>
        <time>2022-07-24T07:22:02Z</time>
      </trkpt>
      <trkpt lat="45.7593" lon="6.53885">
        <ele>1689</ele>
        <time>2022-07-24T07:22:03Z</time>
      </trkpt>
      <trkpt lat="45.7593" lon="6.53887">
        <ele>1689</ele>
        <time>2022-07-24T07:22:04Z</time>
      </trkpt>
      <trkpt lat="45.75929" lon="6.53888">
        <ele>1689</ele>
        <time>2022-07-24T07:22:05Z</time>
      </trkpt>
      <trkpt lat="45.75929" lon="6.5389">
        <ele>1689</ele>
        <time>2022-07-24T07:22:06Z</time>
      </trkpt>
      <trkpt lat="45.75929" lon="6.53891">
        <ele>1689</ele>
        <time>2022-07-24T07:22:07Z</time>
      </trkpt>
      <trkpt lat="45.75928" lon="6.53893">
        <ele>1689</ele>
        <time>2022-07-24T07:22:08Z</time>
      </trkpt>
      <trkpt lat="45.75928" lon="6.53894">
        <ele>1689</ele>
        <time>2022-07-24T07:22:09Z</time>
      </trkpt>
      <trkpt lat="45.75928" lon="6.53896">
        <ele>1689</ele>
        <time>2022-07-24T07:22:10Z</time>
      </trkpt>
      <trkpt lat="45.75927" lon="6.53897">
        <ele>1689</ele>
        <time>2022-07-24T07:22:11Z</time>
      </trkpt>
      <trkpt lat="45.75927" lon="6.53899">
        <ele>1689</ele>
        <time>2022-07-24T07:22:12Z</time>
      </trkpt>
      <trkpt lat="45.75926" lon="6.539">
        <ele>1689</ele>
        <time>2022-07-24T07:22:13Z</time>
      </trkpt>
      <trkpt lat="45.75926" lon="6.53901">
        <ele>1689</ele>
        <time>2022-07-24T07:22:14Z</time>
      </trkpt>
      <trkpt lat="45.75926" lon="6.53903">
        <ele>1689</ele>
        <time>2022-07-24T07:22:15Z</time>
      </trkpt>
      <trkpt lat="45.75925" lon="6.53904">
        <ele>1689</ele>
        <time>2022-07-24T07:22:16Z</time>
      </trkpt>
      <trkpt lat="45.75925" lon="6.53905">
        <ele>1689</ele>
        <time>2022-07-24T07:22:17Z</time>
      </trkpt>
      <trkpt lat="45.75925" lon="6.53907">
        <ele>1689</ele>
        <time>2022-07-24T07:22:18Z</time>
      </trkpt>
      <trkpt lat="45.75925" lon="6.53908">
        <ele>1689</ele>
        <time>2022-07-24T07:22:19Z</time>
      </trkpt>
      <trkpt lat="45.75924" lon="6.5391">
        <ele>1689</ele>
        <time>2022-07-24T07:22:20Z</time>
      </trkpt>
      <trkpt lat="45.75924" lon="6.53911">
        <ele>1689</ele>
        <time>2022-07-24T07:22:21Z</time>
      </trkpt>
      <trkpt lat="45.75924" lon="6.53912">
        <ele>1689</ele>
        <time>2022-07-24T07:22:22Z</time>
      </trkpt>
      <trkpt lat="45.75923" lon="6.53914">
        <ele>1689</ele>
        <time>2022-07-24T07:22:23Z</time>
      </trkpt>
      <trkpt lat="45.75923" lon="6.53915">
        <ele>1689</ele>
        <time>2022-07-24T07:22:24Z</time>
      </trkpt>
      <trkpt lat="45.75923" lon="6.53917">
        <ele>1689</ele>
        <time>2022-07-24T07:22:25Z</time>
      </trkpt>
      <trkpt lat="45.75922" lon="6.53918">
        <ele>1690</ele>
        <time>2022-07-24T07:22:26Z</time>
      </trkpt>
      <trkpt lat="45.75922" lon="6.5392">
        <ele>1690</ele>
        <time>2022-07-24T07:22:27Z</time>
      </trkpt>
      <trkpt lat="45.75922" lon="6.53921">
        <ele>1690</ele>
        <time>2022-07-24T07:22:28Z</time>
      </trkpt>
      <trkpt lat="45.75921" lon="6.53923">
        <ele>1690</ele>
        <time>2022-07-24T07:22:29Z</time>
      </trkpt>
      <trkpt lat="45.75921" lon="6.53924">
        <ele>1690</ele>
        <time>2022-07-24T07:22:30Z</time>
      </trkpt>
      <trkpt lat="45.75921" lon="6.53925">
        <ele>1690</ele>
        <time>2022-07-24T07:22:31Z</time>
      </trkpt>
      <trkpt lat="45.75921" lon="6.53926">
        <ele>1690</ele>
        <time>2022-07-24T07:22:32Z</time>
      </trkpt>
      <trkpt lat="45.7592" lon="6.53927">
        <ele>1690</ele>
        <time>2022-07-24T07:22:33Z</time>
      </trkpt>
      <trkpt lat="45.7592" lon="6.53929">
        <ele>1690</ele>
        <time>2022-07-24T07:22:34Z</time>
      </trkpt>
      <trkpt lat="45.7592" lon="6.5393">
        <ele>1690</ele>
        <time>2022-07-24T07:22:35Z</time>
      </trkpt>
      <trkpt lat="45.75919" lon="6.53931">
        <ele>1690</ele>
        <time>2022-07-24T07:22:36Z</time>
      </trkpt>
      <trkpt lat="45.75919" lon="6.53932">
        <ele>1690</ele>
        <time>2022-07-24T07:22:37Z</time>
      </trkpt>
      <trkpt lat="45.75919" lon="6.53933">
        <ele>1690</ele>
        <time>2022-07-24T07:22:38Z</time>
      </trkpt>
      <trkpt lat="45.75919" lon="6.53934">
        <ele>1690</ele>
        <time>2022-07-24T07:22:39Z</time>
      </trkpt>
      <trkpt lat="45.75919" lon="6.53935">
        <ele>1690</ele>
        <time>2022-07-24T07:22:40Z</time>
      </trkpt>
      <trkpt lat="45.75919" lon="6.53937">
        <ele>1691</ele>
        <time>2022-07-24T07:22:41Z</time>
      </trkpt>
      <trkpt lat="45.75919" lon="6.53938">
        <ele>1691</ele>
        <time>2022-07-24T07:22:42Z</time>
      </trkpt>
      <trkpt lat="45.75919" lon="6.53939">
        <ele>1691</ele>
        <time>2022-07-24T07:22:43Z</time>
      </trkpt>
      <trkpt lat="45.75919" lon="6.5394">
        <ele>1691</ele>
        <time>2022-07-24T07:22:44Z</time>
      </trkpt>
      <trkpt lat="45.75919" lon="6.53941">
        <ele>1691</ele>
        <time>2022-07-24T07:22:45Z</time>
      </trkpt>
      <trkpt lat="45.75919" lon="6.53942">
        <ele>1691</ele>
        <time>2022-07-24T07:22:46Z</time>
      </trkpt>
      <trkpt lat="45.75919" lon="6.53943">
        <ele>1691</ele>
        <time>2022-07-24T07:22:47Z</time>
      </trkpt>
      <trkpt lat="45.7592" lon="6.53944">
        <ele>1691</ele>
        <time>2022-07-24T07:22:48Z</time>
      </trkpt>
      <trkpt lat="45.7592" lon="6.53945">
        <ele>1691</ele>
        <time>2022-07-24T07:22:49Z</time>
      </trkpt>
      <trkpt lat="45.7592" lon="6.53946">
        <ele>1691</ele>
        <time>2022-07-24T07:22:50Z</time>
      </trkpt>
      <trkpt lat="45.7592" lon="6.53947">
        <ele>1692</ele>
        <time>2022-07-24T07:22:51Z</time>
      </trkpt>
      <trkpt lat="45.7592" lon="6.53948">
        <ele>1692</ele>
        <time>2022-07-24T07:22:52Z</time>
      </trkpt>
      <trkpt lat="45.7592" lon="6.53949">
        <ele>1692</ele>
        <time>2022-07-24T07:22:53Z</time>
      </trkpt>
      <trkpt lat="45.7592" lon="6.5395">
        <ele>1692</ele>
        <time>2022-07-24T07:22:54Z</time>
      </trkpt>
      <trkpt lat="45.7592" lon="6.53951">
        <ele>1692</ele>
        <time>2022-07-24T07:22:55Z</time>
      </trkpt>
      <trkpt lat="45.7592" lon="6.53952">
        <ele>1692</ele>
        <time>2022-07-24T07:22:56Z</time>
      </trkpt>
      <trkpt lat="45.7592" lon="6.53953">
        <ele>1692</ele>
        <time>2022-07-24T07:22:57Z</time>
      </trkpt>
      <trkpt lat="45.7592" lon="6.53954">
        <ele>1692</ele>
        <time>2022-07-24T07:22:58Z</time>
      </trkpt>
      <trkpt lat="45.75921" lon="6.53955">
        <ele>1693</ele>
        <time>2022-07-24T07:22:59Z</time>
      </trkpt>
      <trkpt lat="45.7592" lon="6.53956">
        <ele>1693</ele>
        <time>2022-07-24T07:23:00Z</time>
      </trkpt>
      <trkpt lat="45.7592" lon="6.53958">
        <ele>1694</ele>
        <time>2022-07-24T07:23:01Z</time>
      </trkpt>
      <trkpt lat="45.7592" lon="6.53959">
        <ele>1694</ele>
        <time>2022-07-24T07:23:02Z</time>
      </trkpt>
      <trkpt lat="45.7592" lon="6.5396">
        <ele>1694</ele>
        <time>2022-07-24T07:23:03Z</time>
      </trkpt>
      <trkpt lat="45.7592" lon="6.53961">
        <ele>1694</ele>
        <time>2022-07-24T07:23:04Z</time>
      </trkpt>
      <trkpt lat="45.7592" lon="6.53962">
        <ele>1694</ele>
        <time>2022-07-24T07:23:05Z</time>
      </trkpt>
      <trkpt lat="45.7592" lon="6.53963">
        <ele>1694</ele>
        <time>2022-07-24T07:23:06Z</time>
      </trkpt>
      <trkpt lat="45.7592" lon="6.53964">
        <ele>1694</ele>
        <time>2022-07-24T07:23:07Z</time>
      </trkpt>
      <trkpt lat="45.7592" lon="6.53965">
        <ele>1694</ele>
        <time>2022-07-24T07:23:08Z</time>
      </trkpt>
      <trkpt lat="45.7592" lon="6.53966">
        <ele>1694</ele>
        <time>2022-07-24T07:23:09Z</time>
      </trkpt>
      <trkpt lat="45.7592" lon="6.53967">
        <ele>1694</ele>
        <time>2022-07-24T07:23:10Z</time>
      </trkpt>
      <trkpt lat="45.7592" lon="6.53968">
        <ele>1695</ele>
        <time>2022-07-24T07:23:11Z</time>
      </trkpt>
      <trkpt lat="45.7592" lon="6.53969">
        <ele>1695</ele>
        <time>2022-07-24T07:23:12Z</time>
      </trkpt>
      <trkpt lat="45.75921" lon="6.53971">
        <ele>1695</ele>
        <time>2022-07-24T07:23:13Z</time>
      </trkpt>
      <trkpt lat="45.75921" lon="6.53972">
        <ele>1695</ele>
        <time>2022-07-24T07:23:14Z</time>
      </trkpt>
      <trkpt lat="45.75921" lon="6.53973">
        <ele>1695</ele>
        <time>2022-07-24T07:23:15Z</time>
      </trkpt>
      <trkpt lat="45.75921" lon="6.53973">
        <ele>1695</ele>
        <time>2022-07-24T07:23:16Z</time>
      </trkpt>
      <trkpt lat="45.75921" lon="6.53974">
        <ele>1695</ele>
        <time>2022-07-24T07:23:17Z</time>
      </trkpt>
      <trkpt lat="45.75921" lon="6.53975">
        <ele>1695</ele>
        <time>2022-07-24T07:23:18Z</time>
      </trkpt>
      <trkpt lat="45.75921" lon="6.53976">
        <ele>1695</ele>
        <time>2022-07-24T07:23:19Z</time>
      </trkpt>
      <trkpt lat="45.75922" lon="6.53977">
        <ele>1695</ele>
        <time>2022-07-24T07:23:20Z</time>
      </trkpt>
      <trkpt lat="45.75922" lon="6.53978">
        <ele>1696</ele>
        <time>2022-07-24T07:23:21Z</time>
      </trkpt>
      <trkpt lat="45.75922" lon="6.53979">
        <ele>1696</ele>
        <time>2022-07-24T07:23:22Z</time>
      </trkpt>
      <trkpt lat="45.75922" lon="6.5398">
        <ele>1696</ele>
        <time>2022-07-24T07:23:23Z</time>
      </trkpt>
      <trkpt lat="45.75922" lon="6.53981">
        <ele>1696</ele>
        <time>2022-07-24T07:23:24Z</time>
      </trkpt>
      <trkpt lat="45.75923" lon="6.53982">
        <ele>1696</ele>
        <time>2022-07-24T07:23:25Z</time>
      </trkpt>
      <trkpt lat="45.75923" lon="6.53983">
        <ele>1697</ele>
        <time>2022-07-24T07:23:26Z</time>
      </trkpt>
      <trkpt lat="45.75923" lon="6.53984">
        <ele>1697</ele>
        <time>2022-07-24T07:23:27Z</time>
      </trkpt>
      <trkpt lat="45.75923" lon="6.53985">
        <ele>1697</ele>
        <time>2022-07-24T07:23:28Z</time>
      </trkpt>
      <trkpt lat="45.75923" lon="6.53986">
        <ele>1697</ele>
        <time>2022-07-24T07:23:29Z</time>
      </trkpt>
      <trkpt lat="45.75923" lon="6.53987">
        <ele>1697</ele>
        <time>2022-07-24T07:23:30Z</time>
      </trkpt>
      <trkpt lat="45.75923" lon="6.53988">
        <ele>1697</ele>
        <time>2022-07-24T07:23:31Z</time>
      </trkpt>
      <trkpt lat="45.75923" lon="6.53989">
        <ele>1697</ele>
        <time>2022-07-24T07:23:32Z</time>
      </trkpt>
      <trkpt lat="45.75923" lon="6.5399">
        <ele>1697</ele>
        <time>2022-07-24T07:23:33Z</time>
      </trkpt>
      <trkpt lat="45.75923" lon="6.53991">
        <ele>1697</ele>
        <time>2022-07-24T07:23:34Z</time>
      </trkpt>
      <trkpt lat="45.75923" lon="6.53992">
        <ele>1697</ele>
        <time>2022-07-24T07:23:35Z</time>
      </trkpt>
      <trkpt lat="45.75923" lon="6.53992">
        <ele>1698</ele>
        <time>2022-07-24T07:23:36Z</time>
      </trkpt>
      <trkpt lat="45.75923" lon="6.53994">
        <ele>1698</ele>
        <time>2022-07-24T07:23:37Z</time>
      </trkpt>
      <trkpt lat="45.75923" lon="6.53995">
        <ele>1698</ele>
        <time>2022-07-24T07:23:38Z</time>
      </trkpt>
      <trkpt lat="45.75923" lon="6.53996">
        <ele>1698</ele>
        <time>2022-07-24T07:23:39Z</time>
      </trkpt>
      <trkpt lat="45.75923" lon="6.53997">
        <ele>1698</ele>
        <time>2022-07-24T07:23:40Z</time>
      </trkpt>
      <trkpt lat="45.75924" lon="6.53998">
        <ele>1698</ele>
        <time>2022-07-24T07:23:41Z</time>
      </trkpt>
      <trkpt lat="45.75924" lon="6.53999">
        <ele>1698</ele>
        <time>2022-07-24T07:23:42Z</time>
      </trkpt>
      <trkpt lat="45.75924" lon="6.54">
        <ele>1698</ele>
        <time>2022-07-24T07:23:43Z</time>
      </trkpt>
      <trkpt lat="45.75924" lon="6.54001">
        <ele>1698</ele>
        <time>2022-07-24T07:23:44Z</time>
      </trkpt>
      <trkpt lat="45.75924" lon="6.54002">
        <ele>1698</ele>
        <time>2022-07-24T07:23:45Z</time>
      </trkpt>
      <trkpt lat="45.75924" lon="6.54003">
        <ele>1699</ele>
        <time>2022-07-24T07:23:46Z</time>
      </trkpt>
      <trkpt lat="45.75924" lon="6.54004">
        <ele>1699</ele>
        <time>2022-07-24T07:23:47Z</time>
      </trkpt>
      <trkpt lat="45.75924" lon="6.54006">
        <ele>1699</ele>
        <time>2022-07-24T07:23:48Z</time>
      </trkpt>
      <trkpt lat="45.75924" lon="6.54007">
        <ele>1699</ele>
        <time>2022-07-24T07:23:49Z</time>
      </trkpt>
      <trkpt lat="45.75924" lon="6.54008">
        <ele>1699</ele>
        <time>2022-07-24T07:23:50Z</time>
      </trkpt>
      <trkpt lat="45.75924" lon="6.54009">
        <ele>1699</ele>
        <time>2022-07-24T07:23:51Z</time>
      </trkpt>
      <trkpt lat="45.75924" lon="6.5401">
        <ele>1699</ele>
        <time>2022-07-24T07:23:52Z</time>
      </trkpt>
      <trkpt lat="45.75924" lon="6.54011">
        <ele>1699</ele>
        <time>2022-07-24T07:23:53Z</time>
      </trkpt>
      <trkpt lat="45.75924" lon="6.54013">
        <ele>1699</ele>
        <time>2022-07-24T07:23:54Z</time>
      </trkpt>
      <trkpt lat="45.75924" lon="6.54014">
        <ele>1699</ele>
        <time>2022-07-24T07:23:55Z</time>
      </trkpt>
      <trkpt lat="45.75924" lon="6.54015">
        <ele>1700</ele>
        <time>2022-07-24T07:23:56Z</time>
      </trkpt>
      <trkpt lat="45.75924" lon="6.54016">
        <ele>1700</ele>
        <time>2022-07-24T07:23:57Z</time>
      </trkpt>
      <trkpt lat="45.75924" lon="6.54017">
        <ele>1700</ele>
        <time>2022-07-24T07:23:58Z</time>
      </trkpt>
      <trkpt lat="45.75924" lon="6.54019">
        <ele>1700</ele>
        <time>2022-07-24T07:23:59Z</time>
      </trkpt>
      <trkpt lat="45.75924" lon="6.5402">
        <ele>1700</ele>
        <time>2022-07-24T07:24:00Z</time>
      </trkpt>
      <trkpt lat="45.75924" lon="6.54021">
        <ele>1700</ele>
        <time>2022-07-24T07:24:01Z</time>
      </trkpt>
      <trkpt lat="45.75924" lon="6.54022">
        <ele>1700</ele>
        <time>2022-07-24T07:24:02Z</time>
      </trkpt>
      <trkpt lat="45.75924" lon="6.54023">
        <ele>1700</ele>
        <time>2022-07-24T07:24:03Z</time>
      </trkpt>
      <trkpt lat="45.75924" lon="6.54024">
        <ele>1700</ele>
        <time>2022-07-24T07:24:04Z</time>
      </trkpt>
      <trkpt lat="45.75925" lon="6.54025">
        <ele>1700</ele>
        <time>2022-07-24T07:24:05Z</time>
      </trkpt>
      <trkpt lat="45.75925" lon="6.54026">
        <ele>1701</ele>
        <time>2022-07-24T07:24:06Z</time>
      </trkpt>
      <trkpt lat="45.75925" lon="6.54027">
        <ele>1701</ele>
        <time>2022-07-24T07:24:07Z</time>
      </trkpt>
      <trkpt lat="45.75925" lon="6.54028">
        <ele>1701</ele>
        <time>2022-07-24T07:24:08Z</time>
      </trkpt>
      <trkpt lat="45.75925" lon="6.54029">
        <ele>1701</ele>
        <time>2022-07-24T07:24:09Z</time>
      </trkpt>
      <trkpt lat="45.75925" lon="6.5403">
        <ele>1701</ele>
        <time>2022-07-24T07:24:10Z</time>
      </trkpt>
      <trkpt lat="45.75925" lon="6.54031">
        <ele>1701</ele>
        <time>2022-07-24T07:24:11Z</time>
      </trkpt>
      <trkpt lat="45.75926" lon="6.54032">
        <ele>1701</ele>
        <time>2022-07-24T07:24:12Z</time>
      </trkpt>
      <trkpt lat="45.75926" lon="6.54033">
        <ele>1701</ele>
        <time>2022-07-24T07:24:13Z</time>
      </trkpt>
      <trkpt lat="45.75926" lon="6.54034">
        <ele>1701</ele>
        <time>2022-07-24T07:24:14Z</time>
      </trkpt>
      <trkpt lat="45.75926" lon="6.54035">
        <ele>1701</ele>
        <time>2022-07-24T07:24:15Z</time>
      </trkpt>
      <trkpt lat="45.75926" lon="6.54036">
        <ele>1702</ele>
        <time>2022-07-24T07:24:16Z</time>
      </trkpt>
      <trkpt lat="45.75927" lon="6.54037">
        <ele>1702</ele>
        <time>2022-07-24T07:24:17Z</time>
      </trkpt>
      <trkpt lat="45.75927" lon="6.54038">
        <ele>1702</ele>
        <time>2022-07-24T07:24:18Z</time>
      </trkpt>
      <trkpt lat="45.75927" lon="6.54039">
        <ele>1702</ele>
        <time>2022-07-24T07:24:19Z</time>
      </trkpt>
      <trkpt lat="45.75927" lon="6.5404">
        <ele>1702</ele>
        <time>2022-07-24T07:24:20Z</time>
      </trkpt>
      <trkpt lat="45.75928" lon="6.54041">
        <ele>1702</ele>
        <time>2022-07-24T07:24:21Z</time>
      </trkpt>
      <trkpt lat="45.75928" lon="6.54043">
        <ele>1702</ele>
        <time>2022-07-24T07:24:22Z</time>
      </trkpt>
      <trkpt lat="45.75928" lon="6.54044">
        <ele>1702</ele>
        <time>2022-07-24T07:24:23Z</time>
      </trkpt>
      <trkpt lat="45.75929" lon="6.54045">
        <ele>1702</ele>
        <time>2022-07-24T07:24:24Z</time>
      </trkpt>
      <trkpt lat="45.75929" lon="6.54047">
        <ele>1702</ele>
        <time>2022-07-24T07:24:25Z</time>
      </trkpt>
      <trkpt lat="45.7593" lon="6.54048">
        <ele>1702</ele>
        <time>2022-07-24T07:24:26Z</time>
      </trkpt>
      <trkpt lat="45.7593" lon="6.54049">
        <ele>1702</ele>
        <time>2022-07-24T07:24:27Z</time>
      </trkpt>
      <trkpt lat="45.7593" lon="6.54051">
        <ele>1702</ele>
        <time>2022-07-24T07:24:28Z</time>
      </trkpt>
      <trkpt lat="45.75931" lon="6.54052">
        <ele>1702</ele>
        <time>2022-07-24T07:24:29Z</time>
      </trkpt>
      <trkpt lat="45.75931" lon="6.54053">
        <ele>1702</ele>
        <time>2022-07-24T07:24:30Z</time>
      </trkpt>
      <trkpt lat="45.75931" lon="6.54054">
        <ele>1702</ele>
        <time>2022-07-24T07:24:31Z</time>
      </trkpt>
      <trkpt lat="45.75932" lon="6.54055">
        <ele>1702</ele>
        <time>2022-07-24T07:24:32Z</time>
      </trkpt>
      <trkpt lat="45.75932" lon="6.54057">
        <ele>1702</ele>
        <time>2022-07-24T07:24:33Z</time>
      </trkpt>
      <trkpt lat="45.75933" lon="6.54058">
        <ele>1702</ele>
        <time>2022-07-24T07:24:34Z</time>
      </trkpt>
      <trkpt lat="45.75933" lon="6.54059">
        <ele>1702</ele>
        <time>2022-07-24T07:24:35Z</time>
      </trkpt>
      <trkpt lat="45.75934" lon="6.5406">
        <ele>1703</ele>
        <time>2022-07-24T07:24:36Z</time>
      </trkpt>
      <trkpt lat="45.75934" lon="6.54061">
        <ele>1703</ele>
        <time>2022-07-24T07:24:37Z</time>
      </trkpt>
      <trkpt lat="45.75934" lon="6.54062">
        <ele>1703</ele>
        <time>2022-07-24T07:24:38Z</time>
      </trkpt>
      <trkpt lat="45.75935" lon="6.54063">
        <ele>1703</ele>
        <time>2022-07-24T07:24:39Z</time>
      </trkpt>
      <trkpt lat="45.75935" lon="6.54064">
        <ele>1703</ele>
        <time>2022-07-24T07:24:40Z</time>
      </trkpt>
      <trkpt lat="45.75935" lon="6.54065">
        <ele>1703</ele>
        <time>2022-07-24T07:24:41Z</time>
      </trkpt>
      <trkpt lat="45.75936" lon="6.54067">
        <ele>1703</ele>
        <time>2022-07-24T07:24:42Z</time>
      </trkpt>
      <trkpt lat="45.75936" lon="6.54068">
        <ele>1703</ele>
        <time>2022-07-24T07:24:43Z</time>
      </trkpt>
      <trkpt lat="45.75936" lon="6.54069">
        <ele>1703</ele>
        <time>2022-07-24T07:24:44Z</time>
      </trkpt>
      <trkpt lat="45.75936" lon="6.54071">
        <ele>1703</ele>
        <time>2022-07-24T07:24:45Z</time>
      </trkpt>
      <trkpt lat="45.75936" lon="6.54072">
        <ele>1703</ele>
        <time>2022-07-24T07:24:46Z</time>
      </trkpt>
      <trkpt lat="45.75936" lon="6.54073">
        <ele>1703</ele>
        <time>2022-07-24T07:24:47Z</time>
      </trkpt>
      <trkpt lat="45.75937" lon="6.54074">
        <ele>1703</ele>
        <time>2022-07-24T07:24:48Z</time>
      </trkpt>
      <trkpt lat="45.75937" lon="6.54075">
        <ele>1703</ele>
        <time>2022-07-24T07:24:49Z</time>
      </trkpt>
      <trkpt lat="45.75937" lon="6.54076">
        <ele>1703</ele>
        <time>2022-07-24T07:24:50Z</time>
      </trkpt>
      <trkpt lat="45.75937" lon="6.54077">
        <ele>1704</ele>
        <time>2022-07-24T07:24:51Z</time>
      </trkpt>
      <trkpt lat="45.75937" lon="6.54078">
        <ele>1704</ele>
        <time>2022-07-24T07:24:52Z</time>
      </trkpt>
      <trkpt lat="45.75938" lon="6.54079">
        <ele>1704</ele>
        <time>2022-07-24T07:24:53Z</time>
      </trkpt>
      <trkpt lat="45.75938" lon="6.54081">
        <ele>1704</ele>
        <time>2022-07-24T07:24:54Z</time>
      </trkpt>
      <trkpt lat="45.75938" lon="6.54082">
        <ele>1704</ele>
        <time>2022-07-24T07:24:55Z</time>
      </trkpt>
      <trkpt lat="45.75938" lon="6.54083">
        <ele>1704</ele>
        <time>2022-07-24T07:24:56Z</time>
      </trkpt>
      <trkpt lat="45.75938" lon="6.54084">
        <ele>1704</ele>
        <time>2022-07-24T07:24:57Z</time>
      </trkpt>
      <trkpt lat="45.75938" lon="6.54086">
        <ele>1704</ele>
        <time>2022-07-24T07:24:58Z</time>
      </trkpt>
      <trkpt lat="45.75938" lon="6.54087">
        <ele>1704</ele>
        <time>2022-07-24T07:24:59Z</time>
      </trkpt>
      <trkpt lat="45.75939" lon="6.54088">
        <ele>1704</ele>
        <time>2022-07-24T07:25:00Z</time>
      </trkpt>
      <trkpt lat="45.75939" lon="6.54089">
        <ele>1704</ele>
        <time>2022-07-24T07:25:01Z</time>
      </trkpt>
      <trkpt lat="45.75939" lon="6.5409">
        <ele>1704</ele>
        <time>2022-07-24T07:25:02Z</time>
      </trkpt>
      <trkpt lat="45.75939" lon="6.54091">
        <ele>1704</ele>
        <time>2022-07-24T07:25:03Z</time>
      </trkpt>
      <trkpt lat="45.75939" lon="6.54093">
        <ele>1704</ele>
        <time>2022-07-24T07:25:04Z</time>
      </trkpt>
      <trkpt lat="45.75939" lon="6.54094">
        <ele>1704</ele>
        <time>2022-07-24T07:25:05Z</time>
      </trkpt>
      <trkpt lat="45.75939" lon="6.54095">
        <ele>1705</ele>
        <time>2022-07-24T07:25:06Z</time>
      </trkpt>
      <trkpt lat="45.75939" lon="6.54096">
        <ele>1705</ele>
        <time>2022-07-24T07:25:07Z</time>
      </trkpt>
      <trkpt lat="45.75939" lon="6.54098">
        <ele>1705</ele>
        <time>2022-07-24T07:25:08Z</time>
      </trkpt>
      <trkpt lat="45.7594" lon="6.54099">
        <ele>1705</ele>
        <time>2022-07-24T07:25:09Z</time>
      </trkpt>
      <trkpt lat="45.7594" lon="6.541">
        <ele>1705</ele>
        <time>2022-07-24T07:25:10Z</time>
      </trkpt>
      <trkpt lat="45.7594" lon="6.54101">
        <ele>1706</ele>
        <time>2022-07-24T07:25:11Z</time>
      </trkpt>
      <trkpt lat="45.7594" lon="6.54102">
        <ele>1706</ele>
        <time>2022-07-24T07:25:12Z</time>
      </trkpt>
      <trkpt lat="45.7594" lon="6.54104">
        <ele>1706</ele>
        <time>2022-07-24T07:25:13Z</time>
      </trkpt>
      <trkpt lat="45.7594" lon="6.54105">
        <ele>1706</ele>
        <time>2022-07-24T07:25:14Z</time>
      </trkpt>
      <trkpt lat="45.75941" lon="6.54106">
        <ele>1706</ele>
        <time>2022-07-24T07:25:15Z</time>
      </trkpt>
      <trkpt lat="45.75941" lon="6.54107">
        <ele>1706</ele>
        <time>2022-07-24T07:25:16Z</time>
      </trkpt>
      <trkpt lat="45.75941" lon="6.54108">
        <ele>1706</ele>
        <time>2022-07-24T07:25:17Z</time>
      </trkpt>
      <trkpt lat="45.75941" lon="6.54109">
        <ele>1706</ele>
        <time>2022-07-24T07:25:18Z</time>
      </trkpt>
      <trkpt lat="45.75941" lon="6.5411">
        <ele>1706</ele>
        <time>2022-07-24T07:25:19Z</time>
      </trkpt>
      <trkpt lat="45.75942" lon="6.54111">
        <ele>1706</ele>
        <time>2022-07-24T07:25:20Z</time>
      </trkpt>
      <trkpt lat="45.75942" lon="6.54112">
        <ele>1707</ele>
        <time>2022-07-24T07:25:21Z</time>
      </trkpt>
      <trkpt lat="45.75942" lon="6.54113">
        <ele>1707</ele>
        <time>2022-07-24T07:25:22Z</time>
      </trkpt>
      <trkpt lat="45.75943" lon="6.54115">
        <ele>1707</ele>
        <time>2022-07-24T07:25:23Z</time>
      </trkpt>
      <trkpt lat="45.75943" lon="6.54116">
        <ele>1707</ele>
        <time>2022-07-24T07:25:24Z</time>
      </trkpt>
      <trkpt lat="45.75943" lon="6.54117">
        <ele>1707</ele>
        <time>2022-07-24T07:25:25Z</time>
      </trkpt>
      <trkpt lat="45.75943" lon="6.54118">
        <ele>1707</ele>
        <time>2022-07-24T07:25:26Z</time>
      </trkpt>
      <trkpt lat="45.75943" lon="6.5412">
        <ele>1707</ele>
        <time>2022-07-24T07:25:27Z</time>
      </trkpt>
      <trkpt lat="45.75943" lon="6.54121">
        <ele>1707</ele>
        <time>2022-07-24T07:25:28Z</time>
      </trkpt>
      <trkpt lat="45.75944" lon="6.54122">
        <ele>1707</ele>
        <time>2022-07-24T07:25:29Z</time>
      </trkpt>
      <trkpt lat="45.75944" lon="6.54123">
        <ele>1707</ele>
        <time>2022-07-24T07:25:30Z</time>
      </trkpt>
      <trkpt lat="45.75944" lon="6.54125">
        <ele>1708</ele>
        <time>2022-07-24T07:25:31Z</time>
      </trkpt>
      <trkpt lat="45.75944" lon="6.54126">
        <ele>1708</ele>
        <time>2022-07-24T07:25:32Z</time>
      </trkpt>
      <trkpt lat="45.75944" lon="6.54128">
        <ele>1708</ele>
        <time>2022-07-24T07:25:33Z</time>
      </trkpt>
      <trkpt lat="45.75944" lon="6.54129">
        <ele>1708</ele>
        <time>2022-07-24T07:25:34Z</time>
      </trkpt>
      <trkpt lat="45.75944" lon="6.5413">
        <ele>1708</ele>
        <time>2022-07-24T07:25:35Z</time>
      </trkpt>
      <trkpt lat="45.75944" lon="6.54132">
        <ele>1708</ele>
        <time>2022-07-24T07:25:36Z</time>
      </trkpt>
      <trkpt lat="45.75944" lon="6.54133">
        <ele>1708</ele>
        <time>2022-07-24T07:25:37Z</time>
      </trkpt>
      <trkpt lat="45.75944" lon="6.54134">
        <ele>1708</ele>
        <time>2022-07-24T07:25:38Z</time>
      </trkpt>
      <trkpt lat="45.75944" lon="6.54135">
        <ele>1708</ele>
        <time>2022-07-24T07:25:39Z</time>
      </trkpt>
      <trkpt lat="45.75944" lon="6.54137">
        <ele>1708</ele>
        <time>2022-07-24T07:25:40Z</time>
      </trkpt>
      <trkpt lat="45.75944" lon="6.54138">
        <ele>1708</ele>
        <time>2022-07-24T07:25:41Z</time>
      </trkpt>
      <trkpt lat="45.75943" lon="6.54139">
        <ele>1708</ele>
        <time>2022-07-24T07:25:42Z</time>
      </trkpt>
      <trkpt lat="45.75943" lon="6.5414">
        <ele>1708</ele>
        <time>2022-07-24T07:25:43Z</time>
      </trkpt>
      <trkpt lat="45.75943" lon="6.54142">
        <ele>1708</ele>
        <time>2022-07-24T07:25:44Z</time>
      </trkpt>
      <trkpt lat="45.75943" lon="6.54143">
        <ele>1708</ele>
        <time>2022-07-24T07:25:45Z</time>
      </trkpt>
      <trkpt lat="45.75943" lon="6.54144">
        <ele>1709</ele>
        <time>2022-07-24T07:25:46Z</time>
      </trkpt>
      <trkpt lat="45.75942" lon="6.54145">
        <ele>1709</ele>
        <time>2022-07-24T07:25:47Z</time>
      </trkpt>
      <trkpt lat="45.75942" lon="6.54147">
        <ele>1709</ele>
        <time>2022-07-24T07:25:48Z</time>
      </trkpt>
      <trkpt lat="45.75942" lon="6.54148">
        <ele>1709</ele>
        <time>2022-07-24T07:25:49Z</time>
      </trkpt>
      <trkpt lat="45.75942" lon="6.54149">
        <ele>1709</ele>
        <time>2022-07-24T07:25:50Z</time>
      </trkpt>
      <trkpt lat="45.75943" lon="6.54151">
        <ele>1709</ele>
        <time>2022-07-24T07:25:51Z</time>
      </trkpt>
      <trkpt lat="45.75943" lon="6.54152">
        <ele>1709</ele>
        <time>2022-07-24T07:25:52Z</time>
      </trkpt>
      <trkpt lat="45.75943" lon="6.54153">
        <ele>1709</ele>
        <time>2022-07-24T07:25:53Z</time>
      </trkpt>
      <trkpt lat="45.75943" lon="6.54154">
        <ele>1709</ele>
        <time>2022-07-24T07:25:54Z</time>
      </trkpt>
      <trkpt lat="45.75943" lon="6.54156">
        <ele>1709</ele>
        <time>2022-07-24T07:25:55Z</time>
      </trkpt>
      <trkpt lat="45.75943" lon="6.54157">
        <ele>1710</ele>
        <time>2022-07-24T07:25:56Z</time>
      </trkpt>
      <trkpt lat="45.75943" lon="6.54158">
        <ele>1710</ele>
        <time>2022-07-24T07:25:57Z</time>
      </trkpt>
      <trkpt lat="45.75943" lon="6.5416">
        <ele>1710</ele>
        <time>2022-07-24T07:25:58Z</time>
      </trkpt>
      <trkpt lat="45.75943" lon="6.54161">
        <ele>1710</ele>
        <time>2022-07-24T07:25:59Z</time>
      </trkpt>
      <trkpt lat="45.75943" lon="6.54162">
        <ele>1710</ele>
        <time>2022-07-24T07:26:00Z</time>
      </trkpt>
      <trkpt lat="45.75942" lon="6.54163">
        <ele>1710</ele>
        <time>2022-07-24T07:26:01Z</time>
      </trkpt>
      <trkpt lat="45.75942" lon="6.54165">
        <ele>1710</ele>
        <time>2022-07-24T07:26:02Z</time>
      </trkpt>
      <trkpt lat="45.75942" lon="6.54166">
        <ele>1710</ele>
        <time>2022-07-24T07:26:03Z</time>
      </trkpt>
      <trkpt lat="45.75942" lon="6.54167">
        <ele>1710</ele>
        <time>2022-07-24T07:26:04Z</time>
      </trkpt>
      <trkpt lat="45.75942" lon="6.54168">
        <ele>1710</ele>
        <time>2022-07-24T07:26:05Z</time>
      </trkpt>
      <trkpt lat="45.75942" lon="6.5417">
        <ele>1711</ele>
        <time>2022-07-24T07:26:06Z</time>
      </trkpt>
      <trkpt lat="45.75942" lon="6.54171">
        <ele>1711</ele>
        <time>2022-07-24T07:26:07Z</time>
      </trkpt>
      <trkpt lat="45.75942" lon="6.54172">
        <ele>1711</ele>
        <time>2022-07-24T07:26:08Z</time>
      </trkpt>
      <trkpt lat="45.75942" lon="6.54173">
        <ele>1711</ele>
        <time>2022-07-24T07:26:09Z</time>
      </trkpt>
      <trkpt lat="45.75942" lon="6.54174">
        <ele>1711</ele>
        <time>2022-07-24T07:26:10Z</time>
      </trkpt>
      <trkpt lat="45.75942" lon="6.54175">
        <ele>1711</ele>
        <time>2022-07-24T07:26:11Z</time>
      </trkpt>
      <trkpt lat="45.75941" lon="6.54176">
        <ele>1711</ele>
        <time>2022-07-24T07:26:12Z</time>
      </trkpt>
      <trkpt lat="45.75941" lon="6.54177">
        <ele>1711</ele>
        <time>2022-07-24T07:26:13Z</time>
      </trkpt>
      <trkpt lat="45.75941" lon="6.54178">
        <ele>1711</ele>
        <time>2022-07-24T07:26:14Z</time>
      </trkpt>
      <trkpt lat="45.75941" lon="6.5418">
        <ele>1711</ele>
        <time>2022-07-24T07:26:15Z</time>
      </trkpt>
      <trkpt lat="45.75941" lon="6.54181">
        <ele>1712</ele>
        <time>2022-07-24T07:26:16Z</time>
      </trkpt>
      <trkpt lat="45.75941" lon="6.54182">
        <ele>1712</ele>
        <time>2022-07-24T07:26:17Z</time>
      </trkpt>
      <trkpt lat="45.75941" lon="6.54184">
        <ele>1712</ele>
        <time>2022-07-24T07:26:18Z</time>
      </trkpt>
      <trkpt lat="45.7594" lon="6.54185">
        <ele>1712</ele>
        <time>2022-07-24T07:26:19Z</time>
      </trkpt>
      <trkpt lat="45.7594" lon="6.54187">
        <ele>1712</ele>
        <time>2022-07-24T07:26:20Z</time>
      </trkpt>
      <trkpt lat="45.7594" lon="6.54188">
        <ele>1712</ele>
        <time>2022-07-24T07:26:21Z</time>
      </trkpt>
      <trkpt lat="45.7594" lon="6.54189">
        <ele>1712</ele>
        <time>2022-07-24T07:26:22Z</time>
      </trkpt>
      <trkpt lat="45.7594" lon="6.54191">
        <ele>1712</ele>
        <time>2022-07-24T07:26:23Z</time>
      </trkpt>
      <trkpt lat="45.7594" lon="6.54192">
        <ele>1712</ele>
        <time>2022-07-24T07:26:24Z</time>
      </trkpt>
      <trkpt lat="45.7594" lon="6.54193">
        <ele>1712</ele>
        <time>2022-07-24T07:26:25Z</time>
      </trkpt>
      <trkpt lat="45.7594" lon="6.54195">
        <ele>1712</ele>
        <time>2022-07-24T07:26:26Z</time>
      </trkpt>
      <trkpt lat="45.7594" lon="6.54196">
        <ele>1712</ele>
        <time>2022-07-24T07:26:27Z</time>
      </trkpt>
      <trkpt lat="45.7594" lon="6.54197">
        <ele>1712</ele>
        <time>2022-07-24T07:26:28Z</time>
      </trkpt>
      <trkpt lat="45.7594" lon="6.54199">
        <ele>1712</ele>
        <time>2022-07-24T07:26:29Z</time>
      </trkpt>
      <trkpt lat="45.7594" lon="6.542">
        <ele>1712</ele>
        <time>2022-07-24T07:26:30Z</time>
      </trkpt>
      <trkpt lat="45.7594" lon="6.54201">
        <ele>1713</ele>
        <time>2022-07-24T07:26:31Z</time>
      </trkpt>
      <trkpt lat="45.7594" lon="6.54202">
        <ele>1713</ele>
        <time>2022-07-24T07:26:32Z</time>
      </trkpt>
      <trkpt lat="45.75941" lon="6.54204">
        <ele>1713</ele>
        <time>2022-07-24T07:26:33Z</time>
      </trkpt>
      <trkpt lat="45.75941" lon="6.54205">
        <ele>1713</ele>
        <time>2022-07-24T07:26:34Z</time>
      </trkpt>
      <trkpt lat="45.75941" lon="6.54206">
        <ele>1713</ele>
        <time>2022-07-24T07:26:35Z</time>
      </trkpt>
      <trkpt lat="45.75942" lon="6.54207">
        <ele>1713</ele>
        <time>2022-07-24T07:26:36Z</time>
      </trkpt>
      <trkpt lat="45.75942" lon="6.54209">
        <ele>1713</ele>
        <time>2022-07-24T07:26:37Z</time>
      </trkpt>
      <trkpt lat="45.75942" lon="6.5421">
        <ele>1713</ele>
        <time>2022-07-24T07:26:38Z</time>
      </trkpt>
      <trkpt lat="45.75942" lon="6.54212">
        <ele>1713</ele>
        <time>2022-07-24T07:26:39Z</time>
      </trkpt>
      <trkpt lat="45.75942" lon="6.54213">
        <ele>1713</ele>
        <time>2022-07-24T07:26:40Z</time>
      </trkpt>
      <trkpt lat="45.75942" lon="6.54215">
        <ele>1713</ele>
        <time>2022-07-24T07:26:41Z</time>
      </trkpt>
      <trkpt lat="45.75943" lon="6.54216">
        <ele>1713</ele>
        <time>2022-07-24T07:26:42Z</time>
      </trkpt>
      <trkpt lat="45.75943" lon="6.54218">
        <ele>1713</ele>
        <time>2022-07-24T07:26:43Z</time>
      </trkpt>
      <trkpt lat="45.75943" lon="6.54219">
        <ele>1713</ele>
        <time>2022-07-24T07:26:44Z</time>
      </trkpt>
      <trkpt lat="45.75943" lon="6.5422">
        <ele>1713</ele>
        <time>2022-07-24T07:26:45Z</time>
      </trkpt>
      <trkpt lat="45.75943" lon="6.54222">
        <ele>1713</ele>
        <time>2022-07-24T07:26:46Z</time>
      </trkpt>
      <trkpt lat="45.75943" lon="6.54223">
        <ele>1713</ele>
        <time>2022-07-24T07:26:47Z</time>
      </trkpt>
      <trkpt lat="45.75943" lon="6.54224">
        <ele>1713</ele>
        <time>2022-07-24T07:26:48Z</time>
      </trkpt>
      <trkpt lat="45.75943" lon="6.54225">
        <ele>1713</ele>
        <time>2022-07-24T07:26:49Z</time>
      </trkpt>
      <trkpt lat="45.75944" lon="6.54226">
        <ele>1713</ele>
        <time>2022-07-24T07:26:50Z</time>
      </trkpt>
      <trkpt lat="45.75944" lon="6.54227">
        <ele>1714</ele>
        <time>2022-07-24T07:26:51Z</time>
      </trkpt>
      <trkpt lat="45.75944" lon="6.54228">
        <ele>1714</ele>
        <time>2022-07-24T07:26:52Z</time>
      </trkpt>
      <trkpt lat="45.75944" lon="6.54229">
        <ele>1714</ele>
        <time>2022-07-24T07:26:53Z</time>
      </trkpt>
      <trkpt lat="45.75944" lon="6.5423">
        <ele>1714</ele>
        <time>2022-07-24T07:26:54Z</time>
      </trkpt>
      <trkpt lat="45.75944" lon="6.54232">
        <ele>1714</ele>
        <time>2022-07-24T07:26:55Z</time>
      </trkpt>
      <trkpt lat="45.75945" lon="6.54233">
        <ele>1714</ele>
        <time>2022-07-24T07:26:56Z</time>
      </trkpt>
      <trkpt lat="45.75944" lon="6.54234">
        <ele>1714</ele>
        <time>2022-07-24T07:26:57Z</time>
      </trkpt>
      <trkpt lat="45.75944" lon="6.54236">
        <ele>1714</ele>
        <time>2022-07-24T07:26:58Z</time>
      </trkpt>
      <trkpt lat="45.75944" lon="6.54237">
        <ele>1714</ele>
        <time>2022-07-24T07:26:59Z</time>
      </trkpt>
      <trkpt lat="45.75944" lon="6.54238">
        <ele>1714</ele>
        <time>2022-07-24T07:27:00Z</time>
      </trkpt>
      <trkpt lat="45.75944" lon="6.5424">
        <ele>1715</ele>
        <time>2022-07-24T07:27:01Z</time>
      </trkpt>
      <trkpt lat="45.75944" lon="6.54241">
        <ele>1715</ele>
        <time>2022-07-24T07:27:02Z</time>
      </trkpt>
      <trkpt lat="45.75944" lon="6.54242">
        <ele>1715</ele>
        <time>2022-07-24T07:27:03Z</time>
      </trkpt>
      <trkpt lat="45.75944" lon="6.54244">
        <ele>1715</ele>
        <time>2022-07-24T07:27:04Z</time>
      </trkpt>
      <trkpt lat="45.75944" lon="6.54245">
        <ele>1715</ele>
        <time>2022-07-24T07:27:05Z</time>
      </trkpt>
      <trkpt lat="45.75943" lon="6.54246">
        <ele>1715</ele>
        <time>2022-07-24T07:27:06Z</time>
      </trkpt>
      <trkpt lat="45.75944" lon="6.54247">
        <ele>1715</ele>
        <time>2022-07-24T07:27:07Z</time>
      </trkpt>
      <trkpt lat="45.75944" lon="6.54249">
        <ele>1715</ele>
        <time>2022-07-24T07:27:08Z</time>
      </trkpt>
      <trkpt lat="45.75944" lon="6.5425">
        <ele>1715</ele>
        <time>2022-07-24T07:27:09Z</time>
      </trkpt>
      <trkpt lat="45.75944" lon="6.54251">
        <ele>1715</ele>
        <time>2022-07-24T07:27:10Z</time>
      </trkpt>
      <trkpt lat="45.75944" lon="6.54253">
        <ele>1715</ele>
        <time>2022-07-24T07:27:11Z</time>
      </trkpt>
      <trkpt lat="45.75944" lon="6.54254">
        <ele>1715</ele>
        <time>2022-07-24T07:27:12Z</time>
      </trkpt>
      <trkpt lat="45.75944" lon="6.54255">
        <ele>1715</ele>
        <time>2022-07-24T07:27:13Z</time>
      </trkpt>
      <trkpt lat="45.75944" lon="6.54256">
        <ele>1715</ele>
        <time>2022-07-24T07:27:14Z</time>
      </trkpt>
      <trkpt lat="45.75944" lon="6.54258">
        <ele>1716</ele>
        <time>2022-07-24T07:27:25Z</time>
      </trkpt>
      <trkpt lat="45.75944" lon="6.54259">
        <ele>1716</ele>
        <time>2022-07-24T07:27:26Z</time>
      </trkpt>
      <trkpt lat="45.75944" lon="6.5426">
        <ele>1716</ele>
        <time>2022-07-24T07:27:27Z</time>
      </trkpt>
      <trkpt lat="45.75944" lon="6.54261">
        <ele>1716</ele>
        <time>2022-07-24T07:27:28Z</time>
      </trkpt>
      <trkpt lat="45.75944" lon="6.54262">
        <ele>1716</ele>
        <time>2022-07-24T07:27:29Z</time>
      </trkpt>
      <trkpt lat="45.75944" lon="6.54263">
        <ele>1716</ele>
        <time>2022-07-24T07:27:30Z</time>
      </trkpt>
      <trkpt lat="45.75944" lon="6.54264">
        <ele>1716</ele>
        <time>2022-07-24T07:27:31Z</time>
      </trkpt>
      <trkpt lat="45.75944" lon="6.54266">
        <ele>1716</ele>
        <time>2022-07-24T07:27:32Z</time>
      </trkpt>
      <trkpt lat="45.75943" lon="6.54267">
        <ele>1716</ele>
        <time>2022-07-24T07:27:33Z</time>
      </trkpt>
      <trkpt lat="45.75943" lon="6.54268">
        <ele>1716</ele>
        <time>2022-07-24T07:27:34Z</time>
      </trkpt>
      <trkpt lat="45.75943" lon="6.5427">
        <ele>1716</ele>
        <time>2022-07-24T07:27:35Z</time>
      </trkpt>
      <trkpt lat="45.75943" lon="6.54271">
        <ele>1716</ele>
        <time>2022-07-24T07:27:36Z</time>
      </trkpt>
      <trkpt lat="45.75943" lon="6.54272">
        <ele>1716</ele>
        <time>2022-07-24T07:27:37Z</time>
      </trkpt>
      <trkpt lat="45.75942" lon="6.54273">
        <ele>1716</ele>
        <time>2022-07-24T07:27:38Z</time>
      </trkpt>
      <trkpt lat="45.75942" lon="6.54275">
        <ele>1716</ele>
        <time>2022-07-24T07:27:39Z</time>
      </trkpt>
      <trkpt lat="45.75942" lon="6.54276">
        <ele>1716</ele>
        <time>2022-07-24T07:27:40Z</time>
      </trkpt>
      <trkpt lat="45.75942" lon="6.54277">
        <ele>1717</ele>
        <time>2022-07-24T07:27:41Z</time>
      </trkpt>
      <trkpt lat="45.75942" lon="6.54278">
        <ele>1717</ele>
        <time>2022-07-24T07:27:42Z</time>
      </trkpt>
      <trkpt lat="45.75942" lon="6.5428">
        <ele>1717</ele>
        <time>2022-07-24T07:27:43Z</time>
      </trkpt>
      <trkpt lat="45.75942" lon="6.54281">
        <ele>1717</ele>
        <time>2022-07-24T07:27:44Z</time>
      </trkpt>
      <trkpt lat="45.75942" lon="6.54282">
        <ele>1717</ele>
        <time>2022-07-24T07:27:45Z</time>
      </trkpt>
      <trkpt lat="45.75942" lon="6.54283">
        <ele>1717</ele>
        <time>2022-07-24T07:27:46Z</time>
      </trkpt>
      <trkpt lat="45.75942" lon="6.54284">
        <ele>1717</ele>
        <time>2022-07-24T07:27:47Z</time>
      </trkpt>
      <trkpt lat="45.75942" lon="6.54286">
        <ele>1717</ele>
        <time>2022-07-24T07:27:48Z</time>
      </trkpt>
      <trkpt lat="45.75942" lon="6.54287">
        <ele>1717</ele>
        <time>2022-07-24T07:27:49Z</time>
      </trkpt>
      <trkpt lat="45.75942" lon="6.54288">
        <ele>1717</ele>
        <time>2022-07-24T07:27:50Z</time>
      </trkpt>
      <trkpt lat="45.75942" lon="6.54289">
        <ele>1717</ele>
        <time>2022-07-24T07:27:51Z</time>
      </trkpt>
      <trkpt lat="45.75942" lon="6.5429">
        <ele>1717</ele>
        <time>2022-07-24T07:27:52Z</time>
      </trkpt>
      <trkpt lat="45.75941" lon="6.54291">
        <ele>1717</ele>
        <time>2022-07-24T07:27:53Z</time>
      </trkpt>
      <trkpt lat="45.75941" lon="6.54292">
        <ele>1717</ele>
        <time>2022-07-24T07:27:54Z</time>
      </trkpt>
      <trkpt lat="45.75941" lon="6.54294">
        <ele>1717</ele>
        <time>2022-07-24T07:27:55Z</time>
      </trkpt>
      <trkpt lat="45.75941" lon="6.54295">
        <ele>1718</ele>
        <time>2022-07-24T07:27:56Z</time>
      </trkpt>
      <trkpt lat="45.75941" lon="6.54296">
        <ele>1718</ele>
        <time>2022-07-24T07:27:57Z</time>
      </trkpt>
      <trkpt lat="45.75942" lon="6.54297">
        <ele>1718</ele>
        <time>2022-07-24T07:27:58Z</time>
      </trkpt>
      <trkpt lat="45.75942" lon="6.54299">
        <ele>1718</ele>
        <time>2022-07-24T07:27:59Z</time>
      </trkpt>
      <trkpt lat="45.75942" lon="6.543">
        <ele>1718</ele>
        <time>2022-07-24T07:28:00Z</time>
      </trkpt>
      <trkpt lat="45.75942" lon="6.54301">
        <ele>1718</ele>
        <time>2022-07-24T07:28:01Z</time>
      </trkpt>
      <trkpt lat="45.75942" lon="6.54302">
        <ele>1718</ele>
        <time>2022-07-24T07:28:02Z</time>
      </trkpt>
      <trkpt lat="45.75942" lon="6.54304">
        <ele>1718</ele>
        <time>2022-07-24T07:28:03Z</time>
      </trkpt>
      <trkpt lat="45.75942" lon="6.54305">
        <ele>1718</ele>
        <time>2022-07-24T07:28:04Z</time>
      </trkpt>
      <trkpt lat="45.75943" lon="6.54306">
        <ele>1718</ele>
        <time>2022-07-24T07:28:05Z</time>
      </trkpt>
      <trkpt lat="45.75943" lon="6.54307">
        <ele>1718</ele>
        <time>2022-07-24T07:28:06Z</time>
      </trkpt>
      <trkpt lat="45.75943" lon="6.54308">
        <ele>1718</ele>
        <time>2022-07-24T07:28:07Z</time>
      </trkpt>
      <trkpt lat="45.75943" lon="6.5431">
        <ele>1718</ele>
        <time>2022-07-24T07:28:08Z</time>
      </trkpt>
      <trkpt lat="45.75943" lon="6.54311">
        <ele>1718</ele>
        <time>2022-07-24T07:28:09Z</time>
      </trkpt>
      <trkpt lat="45.75943" lon="6.54312">
        <ele>1718</ele>
        <time>2022-07-24T07:28:10Z</time>
      </trkpt>
      <trkpt lat="45.75943" lon="6.54313">
        <ele>1719</ele>
        <time>2022-07-24T07:28:11Z</time>
      </trkpt>
      <trkpt lat="45.75943" lon="6.54314">
        <ele>1719</ele>
        <time>2022-07-24T07:28:12Z</time>
      </trkpt>
      <trkpt lat="45.75943" lon="6.54315">
        <ele>1719</ele>
        <time>2022-07-24T07:28:13Z</time>
      </trkpt>
      <trkpt lat="45.75943" lon="6.54316">
        <ele>1719</ele>
        <time>2022-07-24T07:28:14Z</time>
      </trkpt>
      <trkpt lat="45.75943" lon="6.54317">
        <ele>1719</ele>
        <time>2022-07-24T07:28:15Z</time>
      </trkpt>
      <trkpt lat="45.75943" lon="6.54318">
        <ele>1719</ele>
        <time>2022-07-24T07:28:16Z</time>
      </trkpt>
      <trkpt lat="45.75943" lon="6.5432">
        <ele>1719</ele>
        <time>2022-07-24T07:28:17Z</time>
      </trkpt>
      <trkpt lat="45.75943" lon="6.54321">
        <ele>1719</ele>
        <time>2022-07-24T07:28:18Z</time>
      </trkpt>
      <trkpt lat="45.75944" lon="6.54322">
        <ele>1719</ele>
        <time>2022-07-24T07:28:19Z</time>
      </trkpt>
      <trkpt lat="45.75944" lon="6.54323">
        <ele>1719</ele>
        <time>2022-07-24T07:28:20Z</time>
      </trkpt>
      <trkpt lat="45.75944" lon="6.54325">
        <ele>1719</ele>
        <time>2022-07-24T07:28:21Z</time>
      </trkpt>
      <trkpt lat="45.75945" lon="6.54326">
        <ele>1719</ele>
        <time>2022-07-24T07:28:22Z</time>
      </trkpt>
      <trkpt lat="45.75945" lon="6.54327">
        <ele>1719</ele>
        <time>2022-07-24T07:28:23Z</time>
      </trkpt>
      <trkpt lat="45.75945" lon="6.54328">
        <ele>1719</ele>
        <time>2022-07-24T07:28:24Z</time>
      </trkpt>
      <trkpt lat="45.75946" lon="6.5433">
        <ele>1719</ele>
        <time>2022-07-24T07:28:25Z</time>
      </trkpt>
      <trkpt lat="45.75946" lon="6.54331">
        <ele>1719</ele>
        <time>2022-07-24T07:28:26Z</time>
      </trkpt>
      <trkpt lat="45.75946" lon="6.54332">
        <ele>1719</ele>
        <time>2022-07-24T07:28:27Z</time>
      </trkpt>
      <trkpt lat="45.75946" lon="6.54333">
        <ele>1719</ele>
        <time>2022-07-24T07:28:28Z</time>
      </trkpt>
      <trkpt lat="45.75946" lon="6.54334">
        <ele>1719</ele>
        <time>2022-07-24T07:28:29Z</time>
      </trkpt>
      <trkpt lat="45.75946" lon="6.54336">
        <ele>1719</ele>
        <time>2022-07-24T07:28:30Z</time>
      </trkpt>
      <trkpt lat="45.75946" lon="6.54337">
        <ele>1719</ele>
        <time>2022-07-24T07:28:31Z</time>
      </trkpt>
      <trkpt lat="45.75946" lon="6.54338">
        <ele>1719</ele>
        <time>2022-07-24T07:28:32Z</time>
      </trkpt>
      <trkpt lat="45.75946" lon="6.54339">
        <ele>1719</ele>
        <time>2022-07-24T07:28:33Z</time>
      </trkpt>
      <trkpt lat="45.75946" lon="6.5434">
        <ele>1719</ele>
        <time>2022-07-24T07:28:34Z</time>
      </trkpt>
      <trkpt lat="45.75946" lon="6.54341">
        <ele>1719</ele>
        <time>2022-07-24T07:28:35Z</time>
      </trkpt>
      <trkpt lat="45.75946" lon="6.54343">
        <ele>1720</ele>
        <time>2022-07-24T07:28:36Z</time>
      </trkpt>
      <trkpt lat="45.75946" lon="6.54344">
        <ele>1720</ele>
        <time>2022-07-24T07:28:37Z</time>
      </trkpt>
      <trkpt lat="45.75946" lon="6.54345">
        <ele>1720</ele>
        <time>2022-07-24T07:28:38Z</time>
      </trkpt>
      <trkpt lat="45.75946" lon="6.54347">
        <ele>1720</ele>
        <time>2022-07-24T07:28:39Z</time>
      </trkpt>
      <trkpt lat="45.75946" lon="6.54348">
        <ele>1720</ele>
        <time>2022-07-24T07:28:40Z</time>
      </trkpt>
      <trkpt lat="45.75946" lon="6.5435">
        <ele>1720</ele>
        <time>2022-07-24T07:28:41Z</time>
      </trkpt>
      <trkpt lat="45.75946" lon="6.5435">
        <ele>1720</ele>
        <time>2022-07-24T07:28:42Z</time>
      </trkpt>
      <trkpt lat="45.75946" lon="6.5435">
        <ele>1720</ele>
        <time>2022-07-24T07:28:43Z</time>
      </trkpt>
      <trkpt lat="45.75946" lon="6.54351">
        <ele>1720</ele>
        <time>2022-07-24T07:28:44Z</time>
      </trkpt>
      <trkpt lat="45.75946" lon="6.54351">
        <ele>1720</ele>
        <time>2022-07-24T07:28:45Z</time>
      </trkpt>
      <trkpt lat="45.75946" lon="6.54351">
        <ele>1721</ele>
        <time>2022-07-24T07:28:46Z</time>
      </trkpt>
      <trkpt lat="45.75946" lon="6.54353">
        <ele>1721</ele>
        <time>2022-07-24T07:28:47Z</time>
      </trkpt>
      <trkpt lat="45.75946" lon="6.54354">
        <ele>1721</ele>
        <time>2022-07-24T07:28:48Z</time>
      </trkpt>
      <trkpt lat="45.75946" lon="6.54355">
        <ele>1721</ele>
        <time>2022-07-24T07:28:49Z</time>
      </trkpt>
      <trkpt lat="45.75946" lon="6.54356">
        <ele>1721</ele>
        <time>2022-07-24T07:28:50Z</time>
      </trkpt>
      <trkpt lat="45.75946" lon="6.54357">
        <ele>1721</ele>
        <time>2022-07-24T07:28:51Z</time>
      </trkpt>
      <trkpt lat="45.75946" lon="6.54358">
        <ele>1721</ele>
        <time>2022-07-24T07:28:52Z</time>
      </trkpt>
      <trkpt lat="45.75946" lon="6.54359">
        <ele>1721</ele>
        <time>2022-07-24T07:28:53Z</time>
      </trkpt>
      <trkpt lat="45.75947" lon="6.5436">
        <ele>1721</ele>
        <time>2022-07-24T07:28:54Z</time>
      </trkpt>
      <trkpt lat="45.75947" lon="6.54361">
        <ele>1721</ele>
        <time>2022-07-24T07:28:55Z</time>
      </trkpt>
      <trkpt lat="45.75947" lon="6.54362">
        <ele>1721</ele>
        <time>2022-07-24T07:28:56Z</time>
      </trkpt>
      <trkpt lat="45.75947" lon="6.54363">
        <ele>1721</ele>
        <time>2022-07-24T07:28:57Z</time>
      </trkpt>
      <trkpt lat="45.75948" lon="6.54364">
        <ele>1721</ele>
        <time>2022-07-24T07:28:58Z</time>
      </trkpt>
      <trkpt lat="45.75948" lon="6.54365">
        <ele>1721</ele>
        <time>2022-07-24T07:28:59Z</time>
      </trkpt>
      <trkpt lat="45.75948" lon="6.54367">
        <ele>1721</ele>
        <time>2022-07-24T07:29:00Z</time>
      </trkpt>
      <trkpt lat="45.75948" lon="6.54368">
        <ele>1722</ele>
        <time>2022-07-24T07:29:10Z</time>
      </trkpt>
      <trkpt lat="45.75948" lon="6.54369">
        <ele>1722</ele>
        <time>2022-07-24T07:29:11Z</time>
      </trkpt>
      <trkpt lat="45.75948" lon="6.54369">
        <ele>1722</ele>
        <time>2022-07-24T07:29:12Z</time>
      </trkpt>
      <trkpt lat="45.75949" lon="6.5437">
        <ele>1722</ele>
        <time>2022-07-24T07:29:13Z</time>
      </trkpt>
      <trkpt lat="45.75949" lon="6.54371">
        <ele>1722</ele>
        <time>2022-07-24T07:29:14Z</time>
      </trkpt>
      <trkpt lat="45.75949" lon="6.54372">
        <ele>1722</ele>
        <time>2022-07-24T07:29:15Z</time>
      </trkpt>
      <trkpt lat="45.75949" lon="6.54373">
        <ele>1722</ele>
        <time>2022-07-24T07:29:16Z</time>
      </trkpt>
      <trkpt lat="45.7595" lon="6.54374">
        <ele>1722</ele>
        <time>2022-07-24T07:29:17Z</time>
      </trkpt>
      <trkpt lat="45.7595" lon="6.54376">
        <ele>1722</ele>
        <time>2022-07-24T07:29:18Z</time>
      </trkpt>
      <trkpt lat="45.75951" lon="6.54377">
        <ele>1722</ele>
        <time>2022-07-24T07:29:19Z</time>
      </trkpt>
      <trkpt lat="45.75951" lon="6.54378">
        <ele>1722</ele>
        <time>2022-07-24T07:29:20Z</time>
      </trkpt>
      <trkpt lat="45.75952" lon="6.54379">
        <ele>1722</ele>
        <time>2022-07-24T07:29:21Z</time>
      </trkpt>
      <trkpt lat="45.75953" lon="6.54381">
        <ele>1722</ele>
        <time>2022-07-24T07:29:22Z</time>
      </trkpt>
      <trkpt lat="45.75953" lon="6.54382">
        <ele>1722</ele>
        <time>2022-07-24T07:29:23Z</time>
      </trkpt>
      <trkpt lat="45.75953" lon="6.54383">
        <ele>1722</ele>
        <time>2022-07-24T07:29:24Z</time>
      </trkpt>
      <trkpt lat="45.75954" lon="6.54385">
        <ele>1722</ele>
        <time>2022-07-24T07:29:25Z</time>
      </trkpt>
      <trkpt lat="45.75954" lon="6.54386">
        <ele>1723</ele>
        <time>2022-07-24T07:29:26Z</time>
      </trkpt>
      <trkpt lat="45.75954" lon="6.54388">
        <ele>1723</ele>
        <time>2022-07-24T07:29:27Z</time>
      </trkpt>
      <trkpt lat="45.75954" lon="6.54389">
        <ele>1723</ele>
        <time>2022-07-24T07:29:28Z</time>
      </trkpt>
      <trkpt lat="45.75954" lon="6.5439">
        <ele>1723</ele>
        <time>2022-07-24T07:29:29Z</time>
      </trkpt>
      <trkpt lat="45.75954" lon="6.54391">
        <ele>1723</ele>
        <time>2022-07-24T07:29:30Z</time>
      </trkpt>
      <trkpt lat="45.75954" lon="6.54393">
        <ele>1724</ele>
        <time>2022-07-24T07:29:31Z</time>
      </trkpt>
      <trkpt lat="45.75954" lon="6.54394">
        <ele>1724</ele>
        <time>2022-07-24T07:29:32Z</time>
      </trkpt>
      <trkpt lat="45.75954" lon="6.54395">
        <ele>1724</ele>
        <time>2022-07-24T07:29:33Z</time>
      </trkpt>
      <trkpt lat="45.75954" lon="6.54396">
        <ele>1724</ele>
        <time>2022-07-24T07:29:34Z</time>
      </trkpt>
      <trkpt lat="45.75954" lon="6.54397">
        <ele>1724</ele>
        <time>2022-07-24T07:29:35Z</time>
      </trkpt>
      <trkpt lat="45.75954" lon="6.54398">
        <ele>1724</ele>
        <time>2022-07-24T07:29:36Z</time>
      </trkpt>
      <trkpt lat="45.75954" lon="6.54398">
        <ele>1724</ele>
        <time>2022-07-24T07:29:37Z</time>
      </trkpt>
      <trkpt lat="45.75954" lon="6.544">
        <ele>1724</ele>
        <time>2022-07-24T07:29:38Z</time>
      </trkpt>
      <trkpt lat="45.75955" lon="6.54401">
        <ele>1725</ele>
        <time>2022-07-24T07:29:39Z</time>
      </trkpt>
      <trkpt lat="45.75955" lon="6.54402">
        <ele>1725</ele>
        <time>2022-07-24T07:29:40Z</time>
      </trkpt>
      <trkpt lat="45.75955" lon="6.54403">
        <ele>1726</ele>
        <time>2022-07-24T07:29:41Z</time>
      </trkpt>
      <trkpt lat="45.75956" lon="6.54405">
        <ele>1726</ele>
        <time>2022-07-24T07:29:42Z</time>
      </trkpt>
      <trkpt lat="45.75956" lon="6.54406">
        <ele>1726</ele>
        <time>2022-07-24T07:29:43Z</time>
      </trkpt>
      <trkpt lat="45.75956" lon="6.54407">
        <ele>1726</ele>
        <time>2022-07-24T07:29:44Z</time>
      </trkpt>
      <trkpt lat="45.75957" lon="6.54409">
        <ele>1726</ele>
        <time>2022-07-24T07:29:45Z</time>
      </trkpt>
      <trkpt lat="45.75957" lon="6.5441">
        <ele>1726</ele>
        <time>2022-07-24T07:29:46Z</time>
      </trkpt>
      <trkpt lat="45.75957" lon="6.54411">
        <ele>1726</ele>
        <time>2022-07-24T07:29:47Z</time>
      </trkpt>
      <trkpt lat="45.75957" lon="6.54412">
        <ele>1726</ele>
        <time>2022-07-24T07:29:48Z</time>
      </trkpt>
      <trkpt lat="45.75958" lon="6.54414">
        <ele>1726</ele>
        <time>2022-07-24T07:29:49Z</time>
      </trkpt>
      <trkpt lat="45.75958" lon="6.54415">
        <ele>1726</ele>
        <time>2022-07-24T07:29:50Z</time>
      </trkpt>
      <trkpt lat="45.75958" lon="6.54416">
        <ele>1727</ele>
        <time>2022-07-24T07:29:51Z</time>
      </trkpt>
      <trkpt lat="45.75958" lon="6.54417">
        <ele>1727</ele>
        <time>2022-07-24T07:29:52Z</time>
      </trkpt>
      <trkpt lat="45.75958" lon="6.54418">
        <ele>1727</ele>
        <time>2022-07-24T07:29:53Z</time>
      </trkpt>
      <trkpt lat="45.75959" lon="6.5442">
        <ele>1727</ele>
        <time>2022-07-24T07:29:54Z</time>
      </trkpt>
      <trkpt lat="45.75959" lon="6.54421">
        <ele>1727</ele>
        <time>2022-07-24T07:29:55Z</time>
      </trkpt>
      <trkpt lat="45.75959" lon="6.54422">
        <ele>1727</ele>
        <time>2022-07-24T07:29:56Z</time>
      </trkpt>
      <trkpt lat="45.75959" lon="6.54424">
        <ele>1727</ele>
        <time>2022-07-24T07:29:57Z</time>
      </trkpt>
      <trkpt lat="45.75959" lon="6.54425">
        <ele>1727</ele>
        <time>2022-07-24T07:29:58Z</time>
      </trkpt>
      <trkpt lat="45.75959" lon="6.54426">
        <ele>1727</ele>
        <time>2022-07-24T07:29:59Z</time>
      </trkpt>
      <trkpt lat="45.7596" lon="6.54427">
        <ele>1727</ele>
        <time>2022-07-24T07:30:00Z</time>
      </trkpt>
      <trkpt lat="45.7596" lon="6.54429">
        <ele>1728</ele>
        <time>2022-07-24T07:30:01Z</time>
      </trkpt>
      <trkpt lat="45.7596" lon="6.5443">
        <ele>1728</ele>
        <time>2022-07-24T07:30:02Z</time>
      </trkpt>
      <trkpt lat="45.7596" lon="6.54431">
        <ele>1728</ele>
        <time>2022-07-24T07:30:03Z</time>
      </trkpt>
      <trkpt lat="45.7596" lon="6.54432">
        <ele>1728</ele>
        <time>2022-07-24T07:30:04Z</time>
      </trkpt>
      <trkpt lat="45.75961" lon="6.54434">
        <ele>1728</ele>
        <time>2022-07-24T07:30:05Z</time>
      </trkpt>
      <trkpt lat="45.75961" lon="6.54435">
        <ele>1729</ele>
        <time>2022-07-24T07:30:06Z</time>
      </trkpt>
      <trkpt lat="45.75961" lon="6.54436">
        <ele>1729</ele>
        <time>2022-07-24T07:30:07Z</time>
      </trkpt>
      <trkpt lat="45.75961" lon="6.54438">
        <ele>1729</ele>
        <time>2022-07-24T07:30:08Z</time>
      </trkpt>
      <trkpt lat="45.75961" lon="6.54439">
        <ele>1729</ele>
        <time>2022-07-24T07:30:09Z</time>
      </trkpt>
      <trkpt lat="45.75961" lon="6.5444">
        <ele>1729</ele>
        <time>2022-07-24T07:30:10Z</time>
      </trkpt>
      <trkpt lat="45.75961" lon="6.54441">
        <ele>1729</ele>
        <time>2022-07-24T07:30:11Z</time>
      </trkpt>
      <trkpt lat="45.75961" lon="6.54442">
        <ele>1729</ele>
        <time>2022-07-24T07:30:12Z</time>
      </trkpt>
      <trkpt lat="45.75961" lon="6.54443">
        <ele>1729</ele>
        <time>2022-07-24T07:30:13Z</time>
      </trkpt>
      <trkpt lat="45.75961" lon="6.54444">
        <ele>1729</ele>
        <time>2022-07-24T07:30:14Z</time>
      </trkpt>
      <trkpt lat="45.75961" lon="6.54445">
        <ele>1729</ele>
        <time>2022-07-24T07:30:15Z</time>
      </trkpt>
      <trkpt lat="45.75961" lon="6.54446">
        <ele>1730</ele>
        <time>2022-07-24T07:30:16Z</time>
      </trkpt>
      <trkpt lat="45.75961" lon="6.54447">
        <ele>1730</ele>
        <time>2022-07-24T07:30:17Z</time>
      </trkpt>
      <trkpt lat="45.7596" lon="6.54448">
        <ele>1730</ele>
        <time>2022-07-24T07:30:18Z</time>
      </trkpt>
      <trkpt lat="45.75961" lon="6.54449">
        <ele>1730</ele>
        <time>2022-07-24T07:30:19Z</time>
      </trkpt>
      <trkpt lat="45.75961" lon="6.54451">
        <ele>1730</ele>
        <time>2022-07-24T07:30:20Z</time>
      </trkpt>
      <trkpt lat="45.75961" lon="6.54452">
        <ele>1730</ele>
        <time>2022-07-24T07:30:21Z</time>
      </trkpt>
      <trkpt lat="45.75961" lon="6.54453">
        <ele>1730</ele>
        <time>2022-07-24T07:30:22Z</time>
      </trkpt>
      <trkpt lat="45.75961" lon="6.54454">
        <ele>1730</ele>
        <time>2022-07-24T07:30:23Z</time>
      </trkpt>
      <trkpt lat="45.75962" lon="6.54455">
        <ele>1730</ele>
        <time>2022-07-24T07:30:24Z</time>
      </trkpt>
      <trkpt lat="45.75962" lon="6.54456">
        <ele>1730</ele>
        <time>2022-07-24T07:30:25Z</time>
      </trkpt>
      <trkpt lat="45.75962" lon="6.54457">
        <ele>1731</ele>
        <time>2022-07-24T07:30:26Z</time>
      </trkpt>
      <trkpt lat="45.75962" lon="6.54458">
        <ele>1731</ele>
        <time>2022-07-24T07:30:27Z</time>
      </trkpt>
      <trkpt lat="45.75962" lon="6.54459">
        <ele>1731</ele>
        <time>2022-07-24T07:30:28Z</time>
      </trkpt>
      <trkpt lat="45.75963" lon="6.5446">
        <ele>1731</ele>
        <time>2022-07-24T07:30:29Z</time>
      </trkpt>
      <trkpt lat="45.75963" lon="6.54461">
        <ele>1731</ele>
        <time>2022-07-24T07:30:30Z</time>
      </trkpt>
      <trkpt lat="45.75963" lon="6.54462">
        <ele>1731</ele>
        <time>2022-07-24T07:30:31Z</time>
      </trkpt>
      <trkpt lat="45.75963" lon="6.54463">
        <ele>1731</ele>
        <time>2022-07-24T07:30:32Z</time>
      </trkpt>
      <trkpt lat="45.75963" lon="6.54463">
        <ele>1731</ele>
        <time>2022-07-24T07:30:33Z</time>
      </trkpt>
      <trkpt lat="45.75963" lon="6.54464">
        <ele>1731</ele>
        <time>2022-07-24T07:30:34Z</time>
      </trkpt>
      <trkpt lat="45.75963" lon="6.54465">
        <ele>1731</ele>
        <time>2022-07-24T07:30:35Z</time>
      </trkpt>
      <trkpt lat="45.75963" lon="6.54466">
        <ele>1732</ele>
        <time>2022-07-24T07:30:36Z</time>
      </trkpt>
      <trkpt lat="45.75963" lon="6.54467">
        <ele>1732</ele>
        <time>2022-07-24T07:30:37Z</time>
      </trkpt>
      <trkpt lat="45.75963" lon="6.54468">
        <ele>1732</ele>
        <time>2022-07-24T07:30:38Z</time>
      </trkpt>
      <trkpt lat="45.75963" lon="6.5447">
        <ele>1732</ele>
        <time>2022-07-24T07:30:39Z</time>
      </trkpt>
      <trkpt lat="45.75963" lon="6.54471">
        <ele>1732</ele>
        <time>2022-07-24T07:30:40Z</time>
      </trkpt>
      <trkpt lat="45.75963" lon="6.54472">
        <ele>1732</ele>
        <time>2022-07-24T07:30:41Z</time>
      </trkpt>
      <trkpt lat="45.75963" lon="6.54473">
        <ele>1732</ele>
        <time>2022-07-24T07:30:42Z</time>
      </trkpt>
      <trkpt lat="45.75963" lon="6.54473">
        <ele>1732</ele>
        <time>2022-07-24T07:30:43Z</time>
      </trkpt>
      <trkpt lat="45.75963" lon="6.54474">
        <ele>1732</ele>
        <time>2022-07-24T07:30:44Z</time>
      </trkpt>
      <trkpt lat="45.75963" lon="6.54475">
        <ele>1732</ele>
        <time>2022-07-24T07:30:45Z</time>
      </trkpt>
      <trkpt lat="45.75963" lon="6.54476">
        <ele>1733</ele>
        <time>2022-07-24T07:30:46Z</time>
      </trkpt>
      <trkpt lat="45.75964" lon="6.54477">
        <ele>1733</ele>
        <time>2022-07-24T07:30:47Z</time>
      </trkpt>
      <trkpt lat="45.75964" lon="6.54478">
        <ele>1733</ele>
        <time>2022-07-24T07:30:48Z</time>
      </trkpt>
      <trkpt lat="45.75964" lon="6.54479">
        <ele>1733</ele>
        <time>2022-07-24T07:30:49Z</time>
      </trkpt>
      <trkpt lat="45.75964" lon="6.54481">
        <ele>1733</ele>
        <time>2022-07-24T07:30:50Z</time>
      </trkpt>
      <trkpt lat="45.75964" lon="6.54482">
        <ele>1733</ele>
        <time>2022-07-24T07:30:51Z</time>
      </trkpt>
      <trkpt lat="45.75965" lon="6.54483">
        <ele>1733</ele>
        <time>2022-07-24T07:30:52Z</time>
      </trkpt>
      <trkpt lat="45.75965" lon="6.54484">
        <ele>1733</ele>
        <time>2022-07-24T07:30:53Z</time>
      </trkpt>
      <trkpt lat="45.75965" lon="6.54485">
        <ele>1733</ele>
        <time>2022-07-24T07:30:54Z</time>
      </trkpt>
      <trkpt lat="45.75966" lon="6.54486">
        <ele>1733</ele>
        <time>2022-07-24T07:30:55Z</time>
      </trkpt>
      <trkpt lat="45.75966" lon="6.54487">
        <ele>1734</ele>
        <time>2022-07-24T07:30:56Z</time>
      </trkpt>
      <trkpt lat="45.75967" lon="6.54487">
        <ele>1734</ele>
        <time>2022-07-24T07:30:57Z</time>
      </trkpt>
      <trkpt lat="45.75967" lon="6.54489">
        <ele>1734</ele>
        <time>2022-07-24T07:30:58Z</time>
      </trkpt>
      <trkpt lat="45.75967" lon="6.5449">
        <ele>1734</ele>
        <time>2022-07-24T07:30:59Z</time>
      </trkpt>
      <trkpt lat="45.75967" lon="6.54491">
        <ele>1734</ele>
        <time>2022-07-24T07:31:00Z</time>
      </trkpt>
      <trkpt lat="45.75967" lon="6.54492">
        <ele>1735</ele>
        <time>2022-07-24T07:31:01Z</time>
      </trkpt>
      <trkpt lat="45.75968" lon="6.54493">
        <ele>1735</ele>
        <time>2022-07-24T07:31:02Z</time>
      </trkpt>
      <trkpt lat="45.75968" lon="6.54494">
        <ele>1735</ele>
        <time>2022-07-24T07:31:03Z</time>
      </trkpt>
      <trkpt lat="45.75968" lon="6.54495">
        <ele>1735</ele>
        <time>2022-07-24T07:31:04Z</time>
      </trkpt>
      <trkpt lat="45.75968" lon="6.54496">
        <ele>1735</ele>
        <time>2022-07-24T07:31:05Z</time>
      </trkpt>
      <trkpt lat="45.75967" lon="6.54497">
        <ele>1736</ele>
        <time>2022-07-24T07:31:11Z</time>
      </trkpt>
      <trkpt lat="45.75967" lon="6.54497">
        <ele>1736</ele>
        <time>2022-07-24T07:31:12Z</time>
      </trkpt>
      <trkpt lat="45.75967" lon="6.54498">
        <ele>1736</ele>
        <time>2022-07-24T07:31:13Z</time>
      </trkpt>
      <trkpt lat="45.75967" lon="6.54499">
        <ele>1736</ele>
        <time>2022-07-24T07:31:14Z</time>
      </trkpt>
      <trkpt lat="45.75967" lon="6.545">
        <ele>1736</ele>
        <time>2022-07-24T07:31:15Z</time>
      </trkpt>
      <trkpt lat="45.75967" lon="6.54501">
        <ele>1736</ele>
        <time>2022-07-24T07:31:16Z</time>
      </trkpt>
      <trkpt lat="45.75967" lon="6.54502">
        <ele>1736</ele>
        <time>2022-07-24T07:31:17Z</time>
      </trkpt>
      <trkpt lat="45.75967" lon="6.54504">
        <ele>1736</ele>
        <time>2022-07-24T07:31:18Z</time>
      </trkpt>
      <trkpt lat="45.75967" lon="6.54505">
        <ele>1736</ele>
        <time>2022-07-24T07:31:19Z</time>
      </trkpt>
      <trkpt lat="45.75967" lon="6.54506">
        <ele>1736</ele>
        <time>2022-07-24T07:31:20Z</time>
      </trkpt>
      <trkpt lat="45.75967" lon="6.54507">
        <ele>1736</ele>
        <time>2022-07-24T07:31:21Z</time>
      </trkpt>
      <trkpt lat="45.75966" lon="6.54508">
        <ele>1736</ele>
        <time>2022-07-24T07:31:22Z</time>
      </trkpt>
      <trkpt lat="45.75966" lon="6.54509">
        <ele>1736</ele>
        <time>2022-07-24T07:31:23Z</time>
      </trkpt>
      <trkpt lat="45.75966" lon="6.54511">
        <ele>1736</ele>
        <time>2022-07-24T07:31:24Z</time>
      </trkpt>
      <trkpt lat="45.75966" lon="6.54512">
        <ele>1736</ele>
        <time>2022-07-24T07:31:25Z</time>
      </trkpt>
      <trkpt lat="45.75966" lon="6.54513">
        <ele>1737</ele>
        <time>2022-07-24T07:31:26Z</time>
      </trkpt>
      <trkpt lat="45.75966" lon="6.54514">
        <ele>1737</ele>
        <time>2022-07-24T07:31:27Z</time>
      </trkpt>
      <trkpt lat="45.75966" lon="6.54515">
        <ele>1737</ele>
        <time>2022-07-24T07:31:28Z</time>
      </trkpt>
      <trkpt lat="45.75966" lon="6.54517">
        <ele>1737</ele>
        <time>2022-07-24T07:31:29Z</time>
      </trkpt>
      <trkpt lat="45.75967" lon="6.54518">
        <ele>1737</ele>
        <time>2022-07-24T07:31:30Z</time>
      </trkpt>
      <trkpt lat="45.75967" lon="6.54519">
        <ele>1737</ele>
        <time>2022-07-24T07:31:31Z</time>
      </trkpt>
      <trkpt lat="45.75967" lon="6.5452">
        <ele>1737</ele>
        <time>2022-07-24T07:31:32Z</time>
      </trkpt>
      <trkpt lat="45.75968" lon="6.54521">
        <ele>1737</ele>
        <time>2022-07-24T07:31:33Z</time>
      </trkpt>
      <trkpt lat="45.75968" lon="6.54523">
        <ele>1737</ele>
        <time>2022-07-24T07:31:34Z</time>
      </trkpt>
      <trkpt lat="45.75968" lon="6.54524">
        <ele>1737</ele>
        <time>2022-07-24T07:31:35Z</time>
      </trkpt>
      <trkpt lat="45.75968" lon="6.54525">
        <ele>1737</ele>
        <time>2022-07-24T07:31:36Z</time>
      </trkpt>
      <trkpt lat="45.75969" lon="6.54526">
        <ele>1737</ele>
        <time>2022-07-24T07:31:37Z</time>
      </trkpt>
      <trkpt lat="45.75969" lon="6.54527">
        <ele>1737</ele>
        <time>2022-07-24T07:31:38Z</time>
      </trkpt>
      <trkpt lat="45.75969" lon="6.54529">
        <ele>1737</ele>
        <time>2022-07-24T07:31:39Z</time>
      </trkpt>
      <trkpt lat="45.75969" lon="6.5453">
        <ele>1737</ele>
        <time>2022-07-24T07:31:40Z</time>
      </trkpt>
      <trkpt lat="45.75969" lon="6.54531">
        <ele>1738</ele>
        <time>2022-07-24T07:31:41Z</time>
      </trkpt>
      <trkpt lat="45.75969" lon="6.54532">
        <ele>1738</ele>
        <time>2022-07-24T07:31:42Z</time>
      </trkpt>
      <trkpt lat="45.75969" lon="6.54533">
        <ele>1738</ele>
        <time>2022-07-24T07:31:43Z</time>
      </trkpt>
      <trkpt lat="45.75969" lon="6.54535">
        <ele>1738</ele>
        <time>2022-07-24T07:31:44Z</time>
      </trkpt>
      <trkpt lat="45.75969" lon="6.54536">
        <ele>1738</ele>
        <time>2022-07-24T07:31:45Z</time>
      </trkpt>
      <trkpt lat="45.75968" lon="6.54537">
        <ele>1738</ele>
        <time>2022-07-24T07:31:46Z</time>
      </trkpt>
      <trkpt lat="45.75968" lon="6.54539">
        <ele>1738</ele>
        <time>2022-07-24T07:31:47Z</time>
      </trkpt>
      <trkpt lat="45.75968" lon="6.5454">
        <ele>1738</ele>
        <time>2022-07-24T07:31:48Z</time>
      </trkpt>
      <trkpt lat="45.75968" lon="6.54541">
        <ele>1738</ele>
        <time>2022-07-24T07:31:49Z</time>
      </trkpt>
      <trkpt lat="45.75968" lon="6.54543">
        <ele>1738</ele>
        <time>2022-07-24T07:31:50Z</time>
      </trkpt>
      <trkpt lat="45.75968" lon="6.54544">
        <ele>1739</ele>
        <time>2022-07-24T07:31:51Z</time>
      </trkpt>
      <trkpt lat="45.75968" lon="6.54546">
        <ele>1739</ele>
        <time>2022-07-24T07:31:52Z</time>
      </trkpt>
      <trkpt lat="45.75968" lon="6.54547">
        <ele>1739</ele>
        <time>2022-07-24T07:31:53Z</time>
      </trkpt>
      <trkpt lat="45.75967" lon="6.54548">
        <ele>1739</ele>
        <time>2022-07-24T07:31:54Z</time>
      </trkpt>
      <trkpt lat="45.75967" lon="6.5455">
        <ele>1739</ele>
        <time>2022-07-24T07:31:55Z</time>
      </trkpt>
      <trkpt lat="45.75967" lon="6.54551">
        <ele>1739</ele>
        <time>2022-07-24T07:31:56Z</time>
      </trkpt>
      <trkpt lat="45.75966" lon="6.54552">
        <ele>1739</ele>
        <time>2022-07-24T07:31:57Z</time>
      </trkpt>
      <trkpt lat="45.75966" lon="6.54553">
        <ele>1739</ele>
        <time>2022-07-24T07:31:58Z</time>
      </trkpt>
      <trkpt lat="45.75966" lon="6.54554">
        <ele>1739</ele>
        <time>2022-07-24T07:31:59Z</time>
      </trkpt>
      <trkpt lat="45.75966" lon="6.54555">
        <ele>1739</ele>
        <time>2022-07-24T07:32:00Z</time>
      </trkpt>
      <trkpt lat="45.75965" lon="6.54556">
        <ele>1740</ele>
        <time>2022-07-24T07:32:01Z</time>
      </trkpt>
      <trkpt lat="45.75965" lon="6.54557">
        <ele>1740</ele>
        <time>2022-07-24T07:32:02Z</time>
      </trkpt>
      <trkpt lat="45.75966" lon="6.54559">
        <ele>1740</ele>
        <time>2022-07-24T07:32:03Z</time>
      </trkpt>
      <trkpt lat="45.75966" lon="6.5456">
        <ele>1740</ele>
        <time>2022-07-24T07:32:04Z</time>
      </trkpt>
      <trkpt lat="45.75966" lon="6.54561">
        <ele>1740</ele>
        <time>2022-07-24T07:32:05Z</time>
      </trkpt>
      <trkpt lat="45.75966" lon="6.54562">
        <ele>1740</ele>
        <time>2022-07-24T07:32:06Z</time>
      </trkpt>
      <trkpt lat="45.75966" lon="6.54563">
        <ele>1740</ele>
        <time>2022-07-24T07:32:07Z</time>
      </trkpt>
      <trkpt lat="45.75967" lon="6.54564">
        <ele>1740</ele>
        <time>2022-07-24T07:32:08Z</time>
      </trkpt>
      <trkpt lat="45.75967" lon="6.54565">
        <ele>1740</ele>
        <time>2022-07-24T07:32:09Z</time>
      </trkpt>
      <trkpt lat="45.75967" lon="6.54566">
        <ele>1740</ele>
        <time>2022-07-24T07:32:10Z</time>
      </trkpt>
      <trkpt lat="45.75967" lon="6.54567">
        <ele>1741</ele>
        <time>2022-07-24T07:32:11Z</time>
      </trkpt>
      <trkpt lat="45.75967" lon="6.54568">
        <ele>1741</ele>
        <time>2022-07-24T07:32:12Z</time>
      </trkpt>
      <trkpt lat="45.75967" lon="6.54569">
        <ele>1741</ele>
        <time>2022-07-24T07:32:13Z</time>
      </trkpt>
      <trkpt lat="45.75967" lon="6.5457">
        <ele>1741</ele>
        <time>2022-07-24T07:32:14Z</time>
      </trkpt>
      <trkpt lat="45.75966" lon="6.54571">
        <ele>1741</ele>
        <time>2022-07-24T07:32:15Z</time>
      </trkpt>
      <trkpt lat="45.75966" lon="6.54572">
        <ele>1742</ele>
        <time>2022-07-24T07:32:16Z</time>
      </trkpt>
      <trkpt lat="45.75966" lon="6.54573">
        <ele>1742</ele>
        <time>2022-07-24T07:32:17Z</time>
      </trkpt>
      <trkpt lat="45.75965" lon="6.54574">
        <ele>1742</ele>
        <time>2022-07-24T07:32:18Z</time>
      </trkpt>
      <trkpt lat="45.75965" lon="6.54575">
        <ele>1742</ele>
        <time>2022-07-24T07:32:19Z</time>
      </trkpt>
      <trkpt lat="45.75965" lon="6.54576">
        <ele>1742</ele>
        <time>2022-07-24T07:32:20Z</time>
      </trkpt>
      <trkpt lat="45.75965" lon="6.54577">
        <ele>1742</ele>
        <time>2022-07-24T07:32:21Z</time>
      </trkpt>
      <trkpt lat="45.75965" lon="6.54578">
        <ele>1742</ele>
        <time>2022-07-24T07:32:22Z</time>
      </trkpt>
      <trkpt lat="45.75965" lon="6.54579">
        <ele>1742</ele>
        <time>2022-07-24T07:32:23Z</time>
      </trkpt>
      <trkpt lat="45.75965" lon="6.5458">
        <ele>1742</ele>
        <time>2022-07-24T07:32:24Z</time>
      </trkpt>
      <trkpt lat="45.75965" lon="6.54581">
        <ele>1742</ele>
        <time>2022-07-24T07:32:25Z</time>
      </trkpt>
      <trkpt lat="45.75965" lon="6.54582">
        <ele>1743</ele>
        <time>2022-07-24T07:32:26Z</time>
      </trkpt>
      <trkpt lat="45.75965" lon="6.54583">
        <ele>1743</ele>
        <time>2022-07-24T07:32:27Z</time>
      </trkpt>
      <trkpt lat="45.75965" lon="6.54584">
        <ele>1743</ele>
        <time>2022-07-24T07:32:28Z</time>
      </trkpt>
      <trkpt lat="45.75965" lon="6.54585">
        <ele>1743</ele>
        <time>2022-07-24T07:32:29Z</time>
      </trkpt>
      <trkpt lat="45.75965" lon="6.54586">
        <ele>1743</ele>
        <time>2022-07-24T07:32:30Z</time>
      </trkpt>
      <trkpt lat="45.75965" lon="6.54587">
        <ele>1744</ele>
        <time>2022-07-24T07:32:31Z</time>
      </trkpt>
      <trkpt lat="45.75965" lon="6.54588">
        <ele>1744</ele>
        <time>2022-07-24T07:32:32Z</time>
      </trkpt>
      <trkpt lat="45.75965" lon="6.54589">
        <ele>1744</ele>
        <time>2022-07-24T07:32:33Z</time>
      </trkpt>
      <trkpt lat="45.75966" lon="6.5459">
        <ele>1744</ele>
        <time>2022-07-24T07:32:34Z</time>
      </trkpt>
      <trkpt lat="45.75966" lon="6.54591">
        <ele>1744</ele>
        <time>2022-07-24T07:32:35Z</time>
      </trkpt>
      <trkpt lat="45.75966" lon="6.54591">
        <ele>1744</ele>
        <time>2022-07-24T07:32:36Z</time>
      </trkpt>
      <trkpt lat="45.75966" lon="6.54592">
        <ele>1744</ele>
        <time>2022-07-24T07:32:37Z</time>
      </trkpt>
      <trkpt lat="45.75966" lon="6.54593">
        <ele>1744</ele>
        <time>2022-07-24T07:32:38Z</time>
      </trkpt>
      <trkpt lat="45.75966" lon="6.54593">
        <ele>1744</ele>
        <time>2022-07-24T07:32:39Z</time>
      </trkpt>
      <trkpt lat="45.75965" lon="6.54594">
        <ele>1744</ele>
        <time>2022-07-24T07:32:40Z</time>
      </trkpt>
      <trkpt lat="45.75965" lon="6.54595">
        <ele>1744</ele>
        <time>2022-07-24T07:32:41Z</time>
      </trkpt>
      <trkpt lat="45.75965" lon="6.54596">
        <ele>1744</ele>
        <time>2022-07-24T07:32:42Z</time>
      </trkpt>
      <trkpt lat="45.75965" lon="6.54597">
        <ele>1744</ele>
        <time>2022-07-24T07:32:43Z</time>
      </trkpt>
      <trkpt lat="45.75964" lon="6.54598">
        <ele>1744</ele>
        <time>2022-07-24T07:32:44Z</time>
      </trkpt>
      <trkpt lat="45.75964" lon="6.54599">
        <ele>1744</ele>
        <time>2022-07-24T07:32:45Z</time>
      </trkpt>
      <trkpt lat="45.75964" lon="6.546">
        <ele>1745</ele>
        <time>2022-07-24T07:32:46Z</time>
      </trkpt>
      <trkpt lat="45.75964" lon="6.54602">
        <ele>1745</ele>
        <time>2022-07-24T07:32:47Z</time>
      </trkpt>
      <trkpt lat="45.75964" lon="6.54603">
        <ele>1745</ele>
        <time>2022-07-24T07:32:48Z</time>
      </trkpt>
      <trkpt lat="45.75963" lon="6.54604">
        <ele>1745</ele>
        <time>2022-07-24T07:32:49Z</time>
      </trkpt>
      <trkpt lat="45.75963" lon="6.54605">
        <ele>1745</ele>
        <time>2022-07-24T07:32:50Z</time>
      </trkpt>
      <trkpt lat="45.75963" lon="6.54606">
        <ele>1745</ele>
        <time>2022-07-24T07:32:51Z</time>
      </trkpt>
      <trkpt lat="45.75964" lon="6.54607">
        <ele>1745</ele>
        <time>2022-07-24T07:32:52Z</time>
      </trkpt>
      <trkpt lat="45.75964" lon="6.54609">
        <ele>1745</ele>
        <time>2022-07-24T07:32:53Z</time>
      </trkpt>
      <trkpt lat="45.75964" lon="6.5461">
        <ele>1745</ele>
        <time>2022-07-24T07:32:54Z</time>
      </trkpt>
      <trkpt lat="45.75964" lon="6.54611">
        <ele>1745</ele>
        <time>2022-07-24T07:32:55Z</time>
      </trkpt>
      <trkpt lat="45.75964" lon="6.54612">
        <ele>1746</ele>
        <time>2022-07-24T07:32:56Z</time>
      </trkpt>
      <trkpt lat="45.75964" lon="6.54613">
        <ele>1746</ele>
        <time>2022-07-24T07:32:57Z</time>
      </trkpt>
      <trkpt lat="45.75963" lon="6.54614">
        <ele>1746</ele>
        <time>2022-07-24T07:32:58Z</time>
      </trkpt>
      <trkpt lat="45.75963" lon="6.54615">
        <ele>1746</ele>
        <time>2022-07-24T07:32:59Z</time>
      </trkpt>
      <trkpt lat="45.75963" lon="6.54616">
        <ele>1746</ele>
        <time>2022-07-24T07:33:00Z</time>
      </trkpt>
      <trkpt lat="45.75962" lon="6.54616">
        <ele>1746</ele>
        <time>2022-07-24T07:33:01Z</time>
      </trkpt>
      <trkpt lat="45.75962" lon="6.54618">
        <ele>1746</ele>
        <time>2022-07-24T07:33:02Z</time>
      </trkpt>
      <trkpt lat="45.75962" lon="6.54619">
        <ele>1746</ele>
        <time>2022-07-24T07:33:03Z</time>
      </trkpt>
      <trkpt lat="45.75962" lon="6.5462">
        <ele>1746</ele>
        <time>2022-07-24T07:33:04Z</time>
      </trkpt>
      <trkpt lat="45.75961" lon="6.54621">
        <ele>1746</ele>
        <time>2022-07-24T07:33:05Z</time>
      </trkpt>
      <trkpt lat="45.75961" lon="6.54622">
        <ele>1747</ele>
        <time>2022-07-24T07:33:06Z</time>
      </trkpt>
      <trkpt lat="45.75961" lon="6.54623">
        <ele>1747</ele>
        <time>2022-07-24T07:33:07Z</time>
      </trkpt>
      <trkpt lat="45.7596" lon="6.54624">
        <ele>1747</ele>
        <time>2022-07-24T07:33:08Z</time>
      </trkpt>
      <trkpt lat="45.7596" lon="6.54625">
        <ele>1747</ele>
        <time>2022-07-24T07:33:09Z</time>
      </trkpt>
      <trkpt lat="45.7596" lon="6.54626">
        <ele>1747</ele>
        <time>2022-07-24T07:33:10Z</time>
      </trkpt>
      <trkpt lat="45.75959" lon="6.54627">
        <ele>1747</ele>
        <time>2022-07-24T07:33:11Z</time>
      </trkpt>
      <trkpt lat="45.75959" lon="6.54628">
        <ele>1747</ele>
        <time>2022-07-24T07:33:12Z</time>
      </trkpt>
      <trkpt lat="45.75959" lon="6.54629">
        <ele>1747</ele>
        <time>2022-07-24T07:33:13Z</time>
      </trkpt>
      <trkpt lat="45.75959" lon="6.54631">
        <ele>1747</ele>
        <time>2022-07-24T07:33:14Z</time>
      </trkpt>
      <trkpt lat="45.75959" lon="6.54632">
        <ele>1747</ele>
        <time>2022-07-24T07:33:15Z</time>
      </trkpt>
      <trkpt lat="45.75959" lon="6.54633">
        <ele>1748</ele>
        <time>2022-07-24T07:33:16Z</time>
      </trkpt>
      <trkpt lat="45.75958" lon="6.54634">
        <ele>1748</ele>
        <time>2022-07-24T07:33:17Z</time>
      </trkpt>
      <trkpt lat="45.75958" lon="6.54635">
        <ele>1748</ele>
        <time>2022-07-24T07:33:18Z</time>
      </trkpt>
      <trkpt lat="45.75958" lon="6.54637">
        <ele>1748</ele>
        <time>2022-07-24T07:33:19Z</time>
      </trkpt>
      <trkpt lat="45.75958" lon="6.54638">
        <ele>1748</ele>
        <time>2022-07-24T07:33:20Z</time>
      </trkpt>
      <trkpt lat="45.75957" lon="6.54639">
        <ele>1748</ele>
        <time>2022-07-24T07:33:21Z</time>
      </trkpt>
      <trkpt lat="45.75957" lon="6.54641">
        <ele>1748</ele>
        <time>2022-07-24T07:33:22Z</time>
      </trkpt>
      <trkpt lat="45.75957" lon="6.54642">
        <ele>1748</ele>
        <time>2022-07-24T07:33:23Z</time>
      </trkpt>
      <trkpt lat="45.75956" lon="6.54643">
        <ele>1748</ele>
        <time>2022-07-24T07:33:24Z</time>
      </trkpt>
      <trkpt lat="45.75956" lon="6.54644">
        <ele>1748</ele>
        <time>2022-07-24T07:33:25Z</time>
      </trkpt>
      <trkpt lat="45.75956" lon="6.54645">
        <ele>1749</ele>
        <time>2022-07-24T07:33:26Z</time>
      </trkpt>
      <trkpt lat="45.75956" lon="6.54646">
        <ele>1749</ele>
        <time>2022-07-24T07:33:27Z</time>
      </trkpt>
      <trkpt lat="45.75956" lon="6.54647">
        <ele>1749</ele>
        <time>2022-07-24T07:33:28Z</time>
      </trkpt>
      <trkpt lat="45.75956" lon="6.54648">
        <ele>1749</ele>
        <time>2022-07-24T07:33:29Z</time>
      </trkpt>
      <trkpt lat="45.75956" lon="6.54649">
        <ele>1749</ele>
        <time>2022-07-24T07:33:30Z</time>
      </trkpt>
      <trkpt lat="45.75955" lon="6.5465">
        <ele>1750</ele>
        <time>2022-07-24T07:33:31Z</time>
      </trkpt>
      <trkpt lat="45.75955" lon="6.54651">
        <ele>1750</ele>
        <time>2022-07-24T07:33:32Z</time>
      </trkpt>
      <trkpt lat="45.75955" lon="6.54652">
        <ele>1750</ele>
        <time>2022-07-24T07:33:33Z</time>
      </trkpt>
      <trkpt lat="45.75955" lon="6.54652">
        <ele>1750</ele>
        <time>2022-07-24T07:33:34Z</time>
      </trkpt>
      <trkpt lat="45.75955" lon="6.54653">
        <ele>1750</ele>
        <time>2022-07-24T07:33:35Z</time>
      </trkpt>
      <trkpt lat="45.75955" lon="6.54654">
        <ele>1751</ele>
        <time>2022-07-24T07:33:36Z</time>
      </trkpt>
      <trkpt lat="45.75955" lon="6.54655">
        <ele>1751</ele>
        <time>2022-07-24T07:33:37Z</time>
      </trkpt>
      <trkpt lat="45.75955" lon="6.54656">
        <ele>1751</ele>
        <time>2022-07-24T07:33:38Z</time>
      </trkpt>
      <trkpt lat="45.75955" lon="6.54658">
        <ele>1751</ele>
        <time>2022-07-24T07:33:39Z</time>
      </trkpt>
      <trkpt lat="45.75955" lon="6.54659">
        <ele>1751</ele>
        <time>2022-07-24T07:33:40Z</time>
      </trkpt>
      <trkpt lat="45.75955" lon="6.5466">
        <ele>1751</ele>
        <time>2022-07-24T07:33:41Z</time>
      </trkpt>
      <trkpt lat="45.75955" lon="6.54661">
        <ele>1751</ele>
        <time>2022-07-24T07:33:42Z</time>
      </trkpt>
      <trkpt lat="45.75955" lon="6.54662">
        <ele>1751</ele>
        <time>2022-07-24T07:33:43Z</time>
      </trkpt>
      <trkpt lat="45.75955" lon="6.54662">
        <ele>1751</ele>
        <time>2022-07-24T07:33:44Z</time>
      </trkpt>
      <trkpt lat="45.75955" lon="6.54663">
        <ele>1751</ele>
        <time>2022-07-24T07:33:45Z</time>
      </trkpt>
      <trkpt lat="45.75956" lon="6.54665">
        <ele>1752</ele>
        <time>2022-07-24T07:33:46Z</time>
      </trkpt>
      <trkpt lat="45.75956" lon="6.54666">
        <ele>1752</ele>
        <time>2022-07-24T07:33:47Z</time>
      </trkpt>
      <trkpt lat="45.75956" lon="6.54667">
        <ele>1752</ele>
        <time>2022-07-24T07:33:48Z</time>
      </trkpt>
      <trkpt lat="45.75956" lon="6.54668">
        <ele>1752</ele>
        <time>2022-07-24T07:33:49Z</time>
      </trkpt>
      <trkpt lat="45.75956" lon="6.54669">
        <ele>1752</ele>
        <time>2022-07-24T07:33:50Z</time>
      </trkpt>
      <trkpt lat="45.75956" lon="6.5467">
        <ele>1752</ele>
        <time>2022-07-24T07:33:51Z</time>
      </trkpt>
      <trkpt lat="45.75955" lon="6.54671">
        <ele>1752</ele>
        <time>2022-07-24T07:33:52Z</time>
      </trkpt>
      <trkpt lat="45.75955" lon="6.54673">
        <ele>1752</ele>
        <time>2022-07-24T07:33:53Z</time>
      </trkpt>
      <trkpt lat="45.75955" lon="6.54674">
        <ele>1752</ele>
        <time>2022-07-24T07:33:54Z</time>
      </trkpt>
      <trkpt lat="45.75955" lon="6.54675">
        <ele>1752</ele>
        <time>2022-07-24T07:33:55Z</time>
      </trkpt>
      <trkpt lat="45.75955" lon="6.54676">
        <ele>1752</ele>
        <time>2022-07-24T07:33:56Z</time>
      </trkpt>
      <trkpt lat="45.75955" lon="6.54676">
        <ele>1752</ele>
        <time>2022-07-24T07:33:57Z</time>
      </trkpt>
      <trkpt lat="45.75955" lon="6.54677">
        <ele>1752</ele>
        <time>2022-07-24T07:33:58Z</time>
      </trkpt>
      <trkpt lat="45.75955" lon="6.54678">
        <ele>1752</ele>
        <time>2022-07-24T07:33:59Z</time>
      </trkpt>
      <trkpt lat="45.75955" lon="6.54679">
        <ele>1752</ele>
        <time>2022-07-24T07:34:00Z</time>
      </trkpt>
      <trkpt lat="45.75955" lon="6.5468">
        <ele>1753</ele>
        <time>2022-07-24T07:34:01Z</time>
      </trkpt>
      <trkpt lat="45.75956" lon="6.54681">
        <ele>1753</ele>
        <time>2022-07-24T07:34:02Z</time>
      </trkpt>
      <trkpt lat="45.75956" lon="6.54682">
        <ele>1753</ele>
        <time>2022-07-24T07:34:03Z</time>
      </trkpt>
      <trkpt lat="45.75956" lon="6.54683">
        <ele>1753</ele>
        <time>2022-07-24T07:34:04Z</time>
      </trkpt>
      <trkpt lat="45.75956" lon="6.54683">
        <ele>1753</ele>
        <time>2022-07-24T07:34:05Z</time>
      </trkpt>
      <trkpt lat="45.75956" lon="6.54684">
        <ele>1753</ele>
        <time>2022-07-24T07:34:06Z</time>
      </trkpt>
      <trkpt lat="45.75956" lon="6.54685">
        <ele>1753</ele>
        <time>2022-07-24T07:34:07Z</time>
      </trkpt>
      <trkpt lat="45.75956" lon="6.54685">
        <ele>1753</ele>
        <time>2022-07-24T07:34:08Z</time>
      </trkpt>
      <trkpt lat="45.75957" lon="6.54686">
        <ele>1753</ele>
        <time>2022-07-24T07:34:09Z</time>
      </trkpt>
      <trkpt lat="45.75957" lon="6.54686">
        <ele>1753</ele>
        <time>2022-07-24T07:34:10Z</time>
      </trkpt>
      <trkpt lat="45.75957" lon="6.54686">
        <ele>1754</ele>
        <time>2022-07-24T07:34:11Z</time>
      </trkpt>
      <trkpt lat="45.75957" lon="6.54687">
        <ele>1754</ele>
        <time>2022-07-24T07:34:12Z</time>
      </trkpt>
      <trkpt lat="45.75957" lon="6.54688">
        <ele>1754</ele>
        <time>2022-07-24T07:34:13Z</time>
      </trkpt>
      <trkpt lat="45.75958" lon="6.54689">
        <ele>1754</ele>
        <time>2022-07-24T07:34:14Z</time>
      </trkpt>
      <trkpt lat="45.75958" lon="6.5469">
        <ele>1754</ele>
        <time>2022-07-24T07:34:15Z</time>
      </trkpt>
      <trkpt lat="45.75958" lon="6.54691">
        <ele>1755</ele>
        <time>2022-07-24T07:34:16Z</time>
      </trkpt>
      <trkpt lat="45.75958" lon="6.54691">
        <ele>1755</ele>
        <time>2022-07-24T07:34:17Z</time>
      </trkpt>
      <trkpt lat="45.75958" lon="6.54692">
        <ele>1755</ele>
        <time>2022-07-24T07:34:18Z</time>
      </trkpt>
      <trkpt lat="45.75959" lon="6.54693">
        <ele>1756</ele>
        <time>2022-07-24T07:34:19Z</time>
      </trkpt>
      <trkpt lat="45.75959" lon="6.54693">
        <ele>1756</ele>
        <time>2022-07-24T07:34:20Z</time>
      </trkpt>
      <trkpt lat="45.75959" lon="6.54694">
        <ele>1757</ele>
        <time>2022-07-24T07:34:21Z</time>
      </trkpt>
      <trkpt lat="45.75958" lon="6.54695">
        <ele>1757</ele>
        <time>2022-07-24T07:34:22Z</time>
      </trkpt>
      <trkpt lat="45.75958" lon="6.54696">
        <ele>1757</ele>
        <time>2022-07-24T07:34:23Z</time>
      </trkpt>
      <trkpt lat="45.75958" lon="6.54697">
        <ele>1757</ele>
        <time>2022-07-24T07:34:24Z</time>
      </trkpt>
      <trkpt lat="45.75958" lon="6.54699">
        <ele>1757</ele>
        <time>2022-07-24T07:34:25Z</time>
      </trkpt>
      <trkpt lat="45.75958" lon="6.547">
        <ele>1757</ele>
        <time>2022-07-24T07:34:26Z</time>
      </trkpt>
      <trkpt lat="45.75958" lon="6.54701">
        <ele>1757</ele>
        <time>2022-07-24T07:34:27Z</time>
      </trkpt>
      <trkpt lat="45.75958" lon="6.54702">
        <ele>1757</ele>
        <time>2022-07-24T07:34:28Z</time>
      </trkpt>
      <trkpt lat="45.75958" lon="6.54703">
        <ele>1757</ele>
        <time>2022-07-24T07:34:29Z</time>
      </trkpt>
      <trkpt lat="45.75958" lon="6.54705">
        <ele>1757</ele>
        <time>2022-07-24T07:34:30Z</time>
      </trkpt>
      <trkpt lat="45.75958" lon="6.54706">
        <ele>1758</ele>
        <time>2022-07-24T07:34:31Z</time>
      </trkpt>
      <trkpt lat="45.75958" lon="6.54707">
        <ele>1758</ele>
        <time>2022-07-24T07:34:32Z</time>
      </trkpt>
      <trkpt lat="45.75958" lon="6.54708">
        <ele>1758</ele>
        <time>2022-07-24T07:34:33Z</time>
      </trkpt>
      <trkpt lat="45.75958" lon="6.54708">
        <ele>1758</ele>
        <time>2022-07-24T07:34:34Z</time>
      </trkpt>
      <trkpt lat="45.75958" lon="6.54709">
        <ele>1758</ele>
        <time>2022-07-24T07:34:35Z</time>
      </trkpt>
      <trkpt lat="45.75959" lon="6.5471">
        <ele>1759</ele>
        <time>2022-07-24T07:34:36Z</time>
      </trkpt>
      <trkpt lat="45.75959" lon="6.54711">
        <ele>1759</ele>
        <time>2022-07-24T07:34:37Z</time>
      </trkpt>
      <trkpt lat="45.75959" lon="6.54712">
        <ele>1759</ele>
        <time>2022-07-24T07:34:38Z</time>
      </trkpt>
      <trkpt lat="45.75959" lon="6.54713">
        <ele>1759</ele>
        <time>2022-07-24T07:34:39Z</time>
      </trkpt>
      <trkpt lat="45.75959" lon="6.54714">
        <ele>1759</ele>
        <time>2022-07-24T07:34:40Z</time>
      </trkpt>
      <trkpt lat="45.75959" lon="6.54715">
        <ele>1760</ele>
        <time>2022-07-24T07:34:52Z</time>
      </trkpt>
      <trkpt lat="45.75959" lon="6.54715">
        <ele>1760</ele>
        <time>2022-07-24T07:34:53Z</time>
      </trkpt>
      <trkpt lat="45.7596" lon="6.54716">
        <ele>1760</ele>
        <time>2022-07-24T07:34:54Z</time>
      </trkpt>
      <trkpt lat="45.7596" lon="6.54717">
        <ele>1760</ele>
        <time>2022-07-24T07:34:55Z</time>
      </trkpt>
      <trkpt lat="45.7596" lon="6.54718">
        <ele>1760</ele>
        <time>2022-07-24T07:34:56Z</time>
      </trkpt>
      <trkpt lat="45.7596" lon="6.54719">
        <ele>1760</ele>
        <time>2022-07-24T07:34:57Z</time>
      </trkpt>
      <trkpt lat="45.7596" lon="6.5472">
        <ele>1760</ele>
        <time>2022-07-24T07:34:58Z</time>
      </trkpt>
      <trkpt lat="45.7596" lon="6.54721">
        <ele>1760</ele>
        <time>2022-07-24T07:34:59Z</time>
      </trkpt>
      <trkpt lat="45.75961" lon="6.54722">
        <ele>1760</ele>
        <time>2022-07-24T07:35:00Z</time>
      </trkpt>
      <trkpt lat="45.75961" lon="6.54723">
        <ele>1761</ele>
        <time>2022-07-24T07:35:01Z</time>
      </trkpt>
      <trkpt lat="45.75961" lon="6.54724">
        <ele>1761</ele>
        <time>2022-07-24T07:35:02Z</time>
      </trkpt>
      <trkpt lat="45.75961" lon="6.54725">
        <ele>1761</ele>
        <time>2022-07-24T07:35:03Z</time>
      </trkpt>
      <trkpt lat="45.75961" lon="6.54726">
        <ele>1761</ele>
        <time>2022-07-24T07:35:04Z</time>
      </trkpt>
      <trkpt lat="45.75962" lon="6.54728">
        <ele>1761</ele>
        <time>2022-07-24T07:35:05Z</time>
      </trkpt>
      <trkpt lat="45.75962" lon="6.54729">
        <ele>1761</ele>
        <time>2022-07-24T07:35:06Z</time>
      </trkpt>
      <trkpt lat="45.75962" lon="6.5473">
        <ele>1761</ele>
        <time>2022-07-24T07:35:07Z</time>
      </trkpt>
      <trkpt lat="45.75962" lon="6.54731">
        <ele>1761</ele>
        <time>2022-07-24T07:35:08Z</time>
      </trkpt>
      <trkpt lat="45.75963" lon="6.54732">
        <ele>1761</ele>
        <time>2022-07-24T07:35:09Z</time>
      </trkpt>
      <trkpt lat="45.75963" lon="6.54733">
        <ele>1761</ele>
        <time>2022-07-24T07:35:10Z</time>
      </trkpt>
      <trkpt lat="45.75963" lon="6.54734">
        <ele>1762</ele>
        <time>2022-07-24T07:35:11Z</time>
      </trkpt>
      <trkpt lat="45.75963" lon="6.54735">
        <ele>1762</ele>
        <time>2022-07-24T07:35:12Z</time>
      </trkpt>
      <trkpt lat="45.75964" lon="6.54736">
        <ele>1762</ele>
        <time>2022-07-24T07:35:13Z</time>
      </trkpt>
      <trkpt lat="45.75964" lon="6.54737">
        <ele>1762</ele>
        <time>2022-07-24T07:35:14Z</time>
      </trkpt>
      <trkpt lat="45.75965" lon="6.54738">
        <ele>1762</ele>
        <time>2022-07-24T07:35:15Z</time>
      </trkpt>
      <trkpt lat="45.75965" lon="6.54739">
        <ele>1762</ele>
        <time>2022-07-24T07:35:16Z</time>
      </trkpt>
      <trkpt lat="45.75965" lon="6.54741">
        <ele>1762</ele>
        <time>2022-07-24T07:35:17Z</time>
      </trkpt>
      <trkpt lat="45.75966" lon="6.54742">
        <ele>1762</ele>
        <time>2022-07-24T07:35:18Z</time>
      </trkpt>
      <trkpt lat="45.75966" lon="6.54743">
        <ele>1762</ele>
        <time>2022-07-24T07:35:19Z</time>
      </trkpt>
      <trkpt lat="45.75966" lon="6.54744">
        <ele>1762</ele>
        <time>2022-07-24T07:35:20Z</time>
      </trkpt>
      <trkpt lat="45.75967" lon="6.54745">
        <ele>1763</ele>
        <time>2022-07-24T07:35:21Z</time>
      </trkpt>
      <trkpt lat="45.75967" lon="6.54746">
        <ele>1763</ele>
        <time>2022-07-24T07:35:22Z</time>
      </trkpt>
      <trkpt lat="45.75967" lon="6.54747">
        <ele>1764</ele>
        <time>2022-07-24T07:35:41Z</time>
      </trkpt>
      <trkpt lat="45.75968" lon="6.54748">
        <ele>1764</ele>
        <time>2022-07-24T07:35:42Z</time>
      </trkpt>
      <trkpt lat="45.75968" lon="6.54748">
        <ele>1764</ele>
        <time>2022-07-24T07:35:43Z</time>
      </trkpt>
      <trkpt lat="45.75968" lon="6.54749">
        <ele>1764</ele>
        <time>2022-07-24T07:35:44Z</time>
      </trkpt>
      <trkpt lat="45.75968" lon="6.5475">
        <ele>1764</ele>
        <time>2022-07-24T07:35:45Z</time>
      </trkpt>
      <trkpt lat="45.75969" lon="6.54751">
        <ele>1764</ele>
        <time>2022-07-24T07:35:46Z</time>
      </trkpt>
      <trkpt lat="45.75969" lon="6.54752">
        <ele>1764</ele>
        <time>2022-07-24T07:35:47Z</time>
      </trkpt>
      <trkpt lat="45.7597" lon="6.54753">
        <ele>1764</ele>
        <time>2022-07-24T07:35:48Z</time>
      </trkpt>
      <trkpt lat="45.7597" lon="6.54755">
        <ele>1764</ele>
        <time>2022-07-24T07:35:49Z</time>
      </trkpt>
      <trkpt lat="45.7597" lon="6.54756">
        <ele>1764</ele>
        <time>2022-07-24T07:35:50Z</time>
      </trkpt>
      <trkpt lat="45.75971" lon="6.54757">
        <ele>1764</ele>
        <time>2022-07-24T07:35:51Z</time>
      </trkpt>
      <trkpt lat="45.75971" lon="6.54758">
        <ele>1764</ele>
        <time>2022-07-24T07:35:52Z</time>
      </trkpt>
      <trkpt lat="45.75972" lon="6.54759">
        <ele>1764</ele>
        <time>2022-07-24T07:35:53Z</time>
      </trkpt>
      <trkpt lat="45.75972" lon="6.5476">
        <ele>1764</ele>
        <time>2022-07-24T07:35:54Z</time>
      </trkpt>
      <trkpt lat="45.75972" lon="6.54761">
        <ele>1764</ele>
        <time>2022-07-24T07:35:55Z</time>
      </trkpt>
      <trkpt lat="45.75972" lon="6.54762">
        <ele>1764</ele>
        <time>2022-07-24T07:35:56Z</time>
      </trkpt>
      <trkpt lat="45.75973" lon="6.54763">
        <ele>1764</ele>
        <time>2022-07-24T07:35:57Z</time>
      </trkpt>
      <trkpt lat="45.75973" lon="6.54764">
        <ele>1764</ele>
        <time>2022-07-24T07:35:58Z</time>
      </trkpt>
      <trkpt lat="45.75973" lon="6.54765">
        <ele>1764</ele>
        <time>2022-07-24T07:35:59Z</time>
      </trkpt>
      <trkpt lat="45.75974" lon="6.54766">
        <ele>1764</ele>
        <time>2022-07-24T07:36:00Z</time>
      </trkpt>
      <trkpt lat="45.75974" lon="6.54768">
        <ele>1764</ele>
        <time>2022-07-24T07:36:01Z</time>
      </trkpt>
      <trkpt lat="45.75974" lon="6.54769">
        <ele>1764</ele>
        <time>2022-07-24T07:36:02Z</time>
      </trkpt>
      <trkpt lat="45.75974" lon="6.5477">
        <ele>1764</ele>
        <time>2022-07-24T07:36:03Z</time>
      </trkpt>
      <trkpt lat="45.75974" lon="6.54771">
        <ele>1765</ele>
        <time>2022-07-24T07:36:18Z</time>
      </trkpt>
      <trkpt lat="45.75974" lon="6.54772">
        <ele>1765</ele>
        <time>2022-07-24T07:36:19Z</time>
      </trkpt>
      <trkpt lat="45.75975" lon="6.54772">
        <ele>1765</ele>
        <time>2022-07-24T07:36:20Z</time>
      </trkpt>
      <trkpt lat="45.75975" lon="6.54773">
        <ele>1766</ele>
        <time>2022-07-24T07:36:21Z</time>
      </trkpt>
      <trkpt lat="45.75975" lon="6.54774">
        <ele>1766</ele>
        <time>2022-07-24T07:36:22Z</time>
      </trkpt>
      <trkpt lat="45.75975" lon="6.54774">
        <ele>1766</ele>
        <time>2022-07-24T07:36:23Z</time>
      </trkpt>
      <trkpt lat="45.75976" lon="6.54775">
        <ele>1766</ele>
        <time>2022-07-24T07:36:24Z</time>
      </trkpt>
      <trkpt lat="45.75976" lon="6.54777">
        <ele>1766</ele>
        <time>2022-07-24T07:36:25Z</time>
      </trkpt>
      <trkpt lat="45.75976" lon="6.54778">
        <ele>1766</ele>
        <time>2022-07-24T07:36:26Z</time>
      </trkpt>
      <trkpt lat="45.75976" lon="6.54779">
        <ele>1766</ele>
        <time>2022-07-24T07:36:27Z</time>
      </trkpt>
      <trkpt lat="45.75976" lon="6.5478">
        <ele>1766</ele>
        <time>2022-07-24T07:36:28Z</time>
      </trkpt>
      <trkpt lat="45.75977" lon="6.54782">
        <ele>1766</ele>
        <time>2022-07-24T07:36:29Z</time>
      </trkpt>
      <trkpt lat="45.75977" lon="6.54783">
        <ele>1766</ele>
        <time>2022-07-24T07:36:30Z</time>
      </trkpt>
      <trkpt lat="45.75977" lon="6.54784">
        <ele>1766</ele>
        <time>2022-07-24T07:36:31Z</time>
      </trkpt>
      <trkpt lat="45.75978" lon="6.54785">
        <ele>1766</ele>
        <time>2022-07-24T07:36:32Z</time>
      </trkpt>
      <trkpt lat="45.75978" lon="6.54786">
        <ele>1766</ele>
        <time>2022-07-24T07:36:33Z</time>
      </trkpt>
      <trkpt lat="45.75978" lon="6.54788">
        <ele>1766</ele>
        <time>2022-07-24T07:36:34Z</time>
      </trkpt>
      <trkpt lat="45.75979" lon="6.54789">
        <ele>1766</ele>
        <time>2022-07-24T07:36:35Z</time>
      </trkpt>
      <trkpt lat="45.75979" lon="6.5479">
        <ele>1766</ele>
        <time>2022-07-24T07:36:36Z</time>
      </trkpt>
      <trkpt lat="45.7598" lon="6.54791">
        <ele>1766</ele>
        <time>2022-07-24T07:36:37Z</time>
      </trkpt>
      <trkpt lat="45.7598" lon="6.54792">
        <ele>1766</ele>
        <time>2022-07-24T07:36:38Z</time>
      </trkpt>
      <trkpt lat="45.75981" lon="6.54793">
        <ele>1766</ele>
        <time>2022-07-24T07:36:39Z</time>
      </trkpt>
      <trkpt lat="45.75981" lon="6.54794">
        <ele>1766</ele>
        <time>2022-07-24T07:36:40Z</time>
      </trkpt>
      <trkpt lat="45.75981" lon="6.54795">
        <ele>1767</ele>
        <time>2022-07-24T07:36:41Z</time>
      </trkpt>
      <trkpt lat="45.75982" lon="6.54796">
        <ele>1767</ele>
        <time>2022-07-24T07:36:42Z</time>
      </trkpt>
      <trkpt lat="45.75982" lon="6.54797">
        <ele>1767</ele>
        <time>2022-07-24T07:36:43Z</time>
      </trkpt>
      <trkpt lat="45.75982" lon="6.54798">
        <ele>1767</ele>
        <time>2022-07-24T07:36:44Z</time>
      </trkpt>
      <trkpt lat="45.75983" lon="6.54799">
        <ele>1767</ele>
        <time>2022-07-24T07:36:45Z</time>
      </trkpt>
      <trkpt lat="45.75983" lon="6.548">
        <ele>1767</ele>
        <time>2022-07-24T07:36:46Z</time>
      </trkpt>
      <trkpt lat="45.75984" lon="6.54801">
        <ele>1767</ele>
        <time>2022-07-24T07:36:47Z</time>
      </trkpt>
      <trkpt lat="45.75984" lon="6.54802">
        <ele>1767</ele>
        <time>2022-07-24T07:36:48Z</time>
      </trkpt>
      <trkpt lat="45.75985" lon="6.54803">
        <ele>1767</ele>
        <time>2022-07-24T07:36:49Z</time>
      </trkpt>
      <trkpt lat="45.75985" lon="6.54804">
        <ele>1767</ele>
        <time>2022-07-24T07:36:50Z</time>
      </trkpt>
      <trkpt lat="45.75986" lon="6.54806">
        <ele>1767</ele>
        <time>2022-07-24T07:36:51Z</time>
      </trkpt>
      <trkpt lat="45.75986" lon="6.54807">
        <ele>1767</ele>
        <time>2022-07-24T07:36:52Z</time>
      </trkpt>
      <trkpt lat="45.75987" lon="6.54808">
        <ele>1767</ele>
        <time>2022-07-24T07:36:53Z</time>
      </trkpt>
      <trkpt lat="45.75987" lon="6.54809">
        <ele>1767</ele>
        <time>2022-07-24T07:36:54Z</time>
      </trkpt>
      <trkpt lat="45.75988" lon="6.54811">
        <ele>1767</ele>
        <time>2022-07-24T07:36:55Z</time>
      </trkpt>
      <trkpt lat="45.75988" lon="6.54812">
        <ele>1768</ele>
        <time>2022-07-24T07:36:56Z</time>
      </trkpt>
      <trkpt lat="45.75989" lon="6.54813">
        <ele>1768</ele>
        <time>2022-07-24T07:36:57Z</time>
      </trkpt>
      <trkpt lat="45.75989" lon="6.54814">
        <ele>1768</ele>
        <time>2022-07-24T07:36:58Z</time>
      </trkpt>
      <trkpt lat="45.7599" lon="6.54815">
        <ele>1768</ele>
        <time>2022-07-24T07:36:59Z</time>
      </trkpt>
      <trkpt lat="45.75991" lon="6.54817">
        <ele>1768</ele>
        <time>2022-07-24T07:37:00Z</time>
      </trkpt>
      <trkpt lat="45.75991" lon="6.54818">
        <ele>1768</ele>
        <time>2022-07-24T07:37:01Z</time>
      </trkpt>
      <trkpt lat="45.75992" lon="6.54819">
        <ele>1768</ele>
        <time>2022-07-24T07:37:02Z</time>
      </trkpt>
      <trkpt lat="45.75992" lon="6.5482">
        <ele>1768</ele>
        <time>2022-07-24T07:37:03Z</time>
      </trkpt>
      <trkpt lat="45.75992" lon="6.54822">
        <ele>1768</ele>
        <time>2022-07-24T07:37:04Z</time>
      </trkpt>
      <trkpt lat="45.75993" lon="6.54823">
        <ele>1768</ele>
        <time>2022-07-24T07:37:05Z</time>
      </trkpt>
      <trkpt lat="45.75993" lon="6.54824">
        <ele>1769</ele>
        <time>2022-07-24T07:37:06Z</time>
      </trkpt>
      <trkpt lat="45.75994" lon="6.54825">
        <ele>1769</ele>
        <time>2022-07-24T07:37:07Z</time>
      </trkpt>
      <trkpt lat="45.75994" lon="6.54827">
        <ele>1769</ele>
        <time>2022-07-24T07:37:08Z</time>
      </trkpt>
      <trkpt lat="45.75994" lon="6.54828">
        <ele>1769</ele>
        <time>2022-07-24T07:37:09Z</time>
      </trkpt>
      <trkpt lat="45.75995" lon="6.54829">
        <ele>1769</ele>
        <time>2022-07-24T07:37:10Z</time>
      </trkpt>
      <trkpt lat="45.75995" lon="6.5483">
        <ele>1769</ele>
        <time>2022-07-24T07:37:11Z</time>
      </trkpt>
      <trkpt lat="45.75995" lon="6.54831">
        <ele>1769</ele>
        <time>2022-07-24T07:37:12Z</time>
      </trkpt>
      <trkpt lat="45.75996" lon="6.54833">
        <ele>1769</ele>
        <time>2022-07-24T07:37:13Z</time>
      </trkpt>
      <trkpt lat="45.75996" lon="6.54834">
        <ele>1769</ele>
        <time>2022-07-24T07:37:14Z</time>
      </trkpt>
      <trkpt lat="45.75997" lon="6.54835">
        <ele>1769</ele>
        <time>2022-07-24T07:37:15Z</time>
      </trkpt>
      <trkpt lat="45.75997" lon="6.54836">
        <ele>1769</ele>
        <time>2022-07-24T07:37:16Z</time>
      </trkpt>
      <trkpt lat="45.75997" lon="6.54838">
        <ele>1769</ele>
        <time>2022-07-24T07:37:17Z</time>
      </trkpt>
      <trkpt lat="45.75998" lon="6.54839">
        <ele>1769</ele>
        <time>2022-07-24T07:37:18Z</time>
      </trkpt>
      <trkpt lat="45.75998" lon="6.5484">
        <ele>1769</ele>
        <time>2022-07-24T07:37:19Z</time>
      </trkpt>
      <trkpt lat="45.75999" lon="6.54842">
        <ele>1769</ele>
        <time>2022-07-24T07:37:20Z</time>
      </trkpt>
      <trkpt lat="45.75999" lon="6.54843">
        <ele>1770</ele>
        <time>2022-07-24T07:37:21Z</time>
      </trkpt>
      <trkpt lat="45.75999" lon="6.54844">
        <ele>1770</ele>
        <time>2022-07-24T07:37:22Z</time>
      </trkpt>
      <trkpt lat="45.76" lon="6.54845">
        <ele>1770</ele>
        <time>2022-07-24T07:37:23Z</time>
      </trkpt>
      <trkpt lat="45.76" lon="6.54847">
        <ele>1770</ele>
        <time>2022-07-24T07:37:24Z</time>
      </trkpt>
      <trkpt lat="45.76" lon="6.54848">
        <ele>1770</ele>
        <time>2022-07-24T07:37:25Z</time>
      </trkpt>
      <trkpt lat="45.76001" lon="6.54849">
        <ele>1770</ele>
        <time>2022-07-24T07:37:26Z</time>
      </trkpt>
      <trkpt lat="45.76001" lon="6.5485">
        <ele>1770</ele>
        <time>2022-07-24T07:37:27Z</time>
      </trkpt>
      <trkpt lat="45.76001" lon="6.54851">
        <ele>1770</ele>
        <time>2022-07-24T07:37:28Z</time>
      </trkpt>
      <trkpt lat="45.76002" lon="6.54853">
        <ele>1770</ele>
        <time>2022-07-24T07:37:29Z</time>
      </trkpt>
      <trkpt lat="45.76002" lon="6.54854">
        <ele>1770</ele>
        <time>2022-07-24T07:37:30Z</time>
      </trkpt>
      <trkpt lat="45.76003" lon="6.54855">
        <ele>1771</ele>
        <time>2022-07-24T07:37:31Z</time>
      </trkpt>
      <trkpt lat="45.76003" lon="6.54856">
        <ele>1771</ele>
        <time>2022-07-24T07:37:32Z</time>
      </trkpt>
      <trkpt lat="45.76003" lon="6.54857">
        <ele>1771</ele>
        <time>2022-07-24T07:37:33Z</time>
      </trkpt>
      <trkpt lat="45.76004" lon="6.54858">
        <ele>1771</ele>
        <time>2022-07-24T07:37:34Z</time>
      </trkpt>
      <trkpt lat="45.76004" lon="6.54859">
        <ele>1771</ele>
        <time>2022-07-24T07:37:35Z</time>
      </trkpt>
      <trkpt lat="45.76004" lon="6.5486">
        <ele>1771</ele>
        <time>2022-07-24T07:37:36Z</time>
      </trkpt>
      <trkpt lat="45.76005" lon="6.54861">
        <ele>1771</ele>
        <time>2022-07-24T07:37:37Z</time>
      </trkpt>
      <trkpt lat="45.76005" lon="6.54863">
        <ele>1771</ele>
        <time>2022-07-24T07:37:38Z</time>
      </trkpt>
      <trkpt lat="45.76006" lon="6.54864">
        <ele>1771</ele>
        <time>2022-07-24T07:37:39Z</time>
      </trkpt>
      <trkpt lat="45.76006" lon="6.54865">
        <ele>1771</ele>
        <time>2022-07-24T07:37:40Z</time>
      </trkpt>
      <trkpt lat="45.76006" lon="6.54867">
        <ele>1771</ele>
        <time>2022-07-24T07:37:41Z</time>
      </trkpt>
      <trkpt lat="45.76006" lon="6.54868">
        <ele>1771</ele>
        <time>2022-07-24T07:37:42Z</time>
      </trkpt>
      <trkpt lat="45.76007" lon="6.54869">
        <ele>1771</ele>
        <time>2022-07-24T07:37:43Z</time>
      </trkpt>
      <trkpt lat="45.76007" lon="6.54871">
        <ele>1771</ele>
        <time>2022-07-24T07:37:44Z</time>
      </trkpt>
      <trkpt lat="45.76007" lon="6.54872">
        <ele>1771</ele>
        <time>2022-07-24T07:37:45Z</time>
      </trkpt>
      <trkpt lat="45.76007" lon="6.54874">
        <ele>1771</ele>
        <time>2022-07-24T07:37:46Z</time>
      </trkpt>
      <trkpt lat="45.76007" lon="6.54875">
        <ele>1771</ele>
        <time>2022-07-24T07:37:47Z</time>
      </trkpt>
      <trkpt lat="45.76008" lon="6.54876">
        <ele>1771</ele>
        <time>2022-07-24T07:37:48Z</time>
      </trkpt>
      <trkpt lat="45.76008" lon="6.54878">
        <ele>1771</ele>
        <time>2022-07-24T07:37:49Z</time>
      </trkpt>
      <trkpt lat="45.76008" lon="6.54879">
        <ele>1771</ele>
        <time>2022-07-24T07:37:50Z</time>
      </trkpt>
      <trkpt lat="45.76008" lon="6.54881">
        <ele>1772</ele>
        <time>2022-07-24T07:37:51Z</time>
      </trkpt>
      <trkpt lat="45.76009" lon="6.54882">
        <ele>1772</ele>
        <time>2022-07-24T07:37:52Z</time>
      </trkpt>
      <trkpt lat="45.76009" lon="6.54883">
        <ele>1772</ele>
        <time>2022-07-24T07:37:53Z</time>
      </trkpt>
      <trkpt lat="45.76009" lon="6.54885">
        <ele>1772</ele>
        <time>2022-07-24T07:37:54Z</time>
      </trkpt>
      <trkpt lat="45.76009" lon="6.54886">
        <ele>1772</ele>
        <time>2022-07-24T07:37:55Z</time>
      </trkpt>
      <trkpt lat="45.7601" lon="6.54888">
        <ele>1772</ele>
        <time>2022-07-24T07:37:56Z</time>
      </trkpt>
      <trkpt lat="45.7601" lon="6.54889">
        <ele>1772</ele>
        <time>2022-07-24T07:37:57Z</time>
      </trkpt>
      <trkpt lat="45.7601" lon="6.5489">
        <ele>1772</ele>
        <time>2022-07-24T07:37:58Z</time>
      </trkpt>
      <trkpt lat="45.7601" lon="6.54891">
        <ele>1772</ele>
        <time>2022-07-24T07:37:59Z</time>
      </trkpt>
      <trkpt lat="45.76011" lon="6.54893">
        <ele>1772</ele>
        <time>2022-07-24T07:38:00Z</time>
      </trkpt>
      <trkpt lat="45.76011" lon="6.54894">
        <ele>1772</ele>
        <time>2022-07-24T07:38:01Z</time>
      </trkpt>
      <trkpt lat="45.76011" lon="6.54895">
        <ele>1772</ele>
        <time>2022-07-24T07:38:02Z</time>
      </trkpt>
      <trkpt lat="45.76011" lon="6.54896">
        <ele>1772</ele>
        <time>2022-07-24T07:38:03Z</time>
      </trkpt>
      <trkpt lat="45.76012" lon="6.54898">
        <ele>1772</ele>
        <time>2022-07-24T07:38:04Z</time>
      </trkpt>
      <trkpt lat="45.76012" lon="6.54899">
        <ele>1772</ele>
        <time>2022-07-24T07:38:05Z</time>
      </trkpt>
      <trkpt lat="45.76012" lon="6.549">
        <ele>1772</ele>
        <time>2022-07-24T07:38:06Z</time>
      </trkpt>
      <trkpt lat="45.76013" lon="6.54901">
        <ele>1772</ele>
        <time>2022-07-24T07:38:07Z</time>
      </trkpt>
      <trkpt lat="45.76013" lon="6.54903">
        <ele>1772</ele>
        <time>2022-07-24T07:38:08Z</time>
      </trkpt>
      <trkpt lat="45.76014" lon="6.54904">
        <ele>1772</ele>
        <time>2022-07-24T07:38:09Z</time>
      </trkpt>
      <trkpt lat="45.76014" lon="6.54905">
        <ele>1772</ele>
        <time>2022-07-24T07:38:10Z</time>
      </trkpt>
      <trkpt lat="45.76014" lon="6.54907">
        <ele>1773</ele>
        <time>2022-07-24T07:38:11Z</time>
      </trkpt>
      <trkpt lat="45.76015" lon="6.54908">
        <ele>1773</ele>
        <time>2022-07-24T07:38:12Z</time>
      </trkpt>
      <trkpt lat="45.76015" lon="6.54909">
        <ele>1773</ele>
        <time>2022-07-24T07:38:13Z</time>
      </trkpt>
      <trkpt lat="45.76015" lon="6.5491">
        <ele>1773</ele>
        <time>2022-07-24T07:38:14Z</time>
      </trkpt>
      <trkpt lat="45.76015" lon="6.54911">
        <ele>1773</ele>
        <time>2022-07-24T07:38:15Z</time>
      </trkpt>
      <trkpt lat="45.76016" lon="6.54912">
        <ele>1773</ele>
        <time>2022-07-24T07:38:16Z</time>
      </trkpt>
      <trkpt lat="45.76016" lon="6.54914">
        <ele>1773</ele>
        <time>2022-07-24T07:38:17Z</time>
      </trkpt>
      <trkpt lat="45.76016" lon="6.54915">
        <ele>1773</ele>
        <time>2022-07-24T07:38:18Z</time>
      </trkpt>
      <trkpt lat="45.76015" lon="6.54916">
        <ele>1773</ele>
        <time>2022-07-24T07:38:19Z</time>
      </trkpt>
      <trkpt lat="45.76015" lon="6.54917">
        <ele>1773</ele>
        <time>2022-07-24T07:38:20Z</time>
      </trkpt>
      <trkpt lat="45.76015" lon="6.54918">
        <ele>1773</ele>
        <time>2022-07-24T07:38:29Z</time>
      </trkpt>
      <trkpt lat="45.76015" lon="6.54919">
        <ele>1773</ele>
        <time>2022-07-24T07:38:30Z</time>
      </trkpt>
      <trkpt lat="45.76015" lon="6.5492">
        <ele>1774</ele>
        <time>2022-07-24T07:38:31Z</time>
      </trkpt>
      <trkpt lat="45.76015" lon="6.54921">
        <ele>1774</ele>
        <time>2022-07-24T07:38:32Z</time>
      </trkpt>
      <trkpt lat="45.76015" lon="6.54922">
        <ele>1774</ele>
        <time>2022-07-24T07:38:33Z</time>
      </trkpt>
      <trkpt lat="45.76015" lon="6.54923">
        <ele>1774</ele>
        <time>2022-07-24T07:38:34Z</time>
      </trkpt>
      <trkpt lat="45.76015" lon="6.54924">
        <ele>1774</ele>
        <time>2022-07-24T07:38:35Z</time>
      </trkpt>
      <trkpt lat="45.76015" lon="6.54925">
        <ele>1774</ele>
        <time>2022-07-24T07:38:36Z</time>
      </trkpt>
      <trkpt lat="45.76016" lon="6.54927">
        <ele>1774</ele>
        <time>2022-07-24T07:38:37Z</time>
      </trkpt>
      <trkpt lat="45.76016" lon="6.54928">
        <ele>1774</ele>
        <time>2022-07-24T07:38:38Z</time>
      </trkpt>
      <trkpt lat="45.76016" lon="6.54929">
        <ele>1774</ele>
        <time>2022-07-24T07:38:39Z</time>
      </trkpt>
      <trkpt lat="45.76016" lon="6.54931">
        <ele>1774</ele>
        <time>2022-07-24T07:38:40Z</time>
      </trkpt>
      <trkpt lat="45.76016" lon="6.54932">
        <ele>1774</ele>
        <time>2022-07-24T07:38:41Z</time>
      </trkpt>
      <trkpt lat="45.76016" lon="6.54933">
        <ele>1774</ele>
        <time>2022-07-24T07:38:42Z</time>
      </trkpt>
      <trkpt lat="45.76016" lon="6.54935">
        <ele>1774</ele>
        <time>2022-07-24T07:38:43Z</time>
      </trkpt>
      <trkpt lat="45.76017" lon="6.54936">
        <ele>1774</ele>
        <time>2022-07-24T07:38:44Z</time>
      </trkpt>
      <trkpt lat="45.76017" lon="6.54937">
        <ele>1774</ele>
        <time>2022-07-24T07:38:45Z</time>
      </trkpt>
      <trkpt lat="45.76017" lon="6.54938">
        <ele>1775</ele>
        <time>2022-07-24T07:38:46Z</time>
      </trkpt>
      <trkpt lat="45.76017" lon="6.54939">
        <ele>1775</ele>
        <time>2022-07-24T07:38:47Z</time>
      </trkpt>
      <trkpt lat="45.76017" lon="6.5494">
        <ele>1775</ele>
        <time>2022-07-24T07:38:48Z</time>
      </trkpt>
      <trkpt lat="45.76017" lon="6.54941">
        <ele>1775</ele>
        <time>2022-07-24T07:38:49Z</time>
      </trkpt>
      <trkpt lat="45.76017" lon="6.54942">
        <ele>1775</ele>
        <time>2022-07-24T07:38:50Z</time>
      </trkpt>
      <trkpt lat="45.76017" lon="6.54944">
        <ele>1776</ele>
        <time>2022-07-24T07:38:51Z</time>
      </trkpt>
      <trkpt lat="45.76017" lon="6.54945">
        <ele>1776</ele>
        <time>2022-07-24T07:38:52Z</time>
      </trkpt>
      <trkpt lat="45.76017" lon="6.54946">
        <ele>1776</ele>
        <time>2022-07-24T07:38:53Z</time>
      </trkpt>
      <trkpt lat="45.76017" lon="6.54947">
        <ele>1776</ele>
        <time>2022-07-24T07:38:54Z</time>
      </trkpt>
      <trkpt lat="45.76017" lon="6.54949">
        <ele>1776</ele>
        <time>2022-07-24T07:38:55Z</time>
      </trkpt>
      <trkpt lat="45.76017" lon="6.5495">
        <ele>1776</ele>
        <time>2022-07-24T07:38:56Z</time>
      </trkpt>
      <trkpt lat="45.76017" lon="6.54951">
        <ele>1776</ele>
        <time>2022-07-24T07:38:57Z</time>
      </trkpt>
      <trkpt lat="45.76016" lon="6.54952">
        <ele>1776</ele>
        <time>2022-07-24T07:38:58Z</time>
      </trkpt>
      <trkpt lat="45.76016" lon="6.54953">
        <ele>1776</ele>
        <time>2022-07-24T07:38:59Z</time>
      </trkpt>
      <trkpt lat="45.76016" lon="6.54955">
        <ele>1776</ele>
        <time>2022-07-24T07:39:00Z</time>
      </trkpt>
      <trkpt lat="45.76016" lon="6.54956">
        <ele>1776</ele>
        <time>2022-07-24T07:39:01Z</time>
      </trkpt>
      <trkpt lat="45.76016" lon="6.54957">
        <ele>1776</ele>
        <time>2022-07-24T07:39:02Z</time>
      </trkpt>
      <trkpt lat="45.76016" lon="6.54958">
        <ele>1776</ele>
        <time>2022-07-24T07:39:03Z</time>
      </trkpt>
      <trkpt lat="45.76016" lon="6.54959">
        <ele>1776</ele>
        <time>2022-07-24T07:39:04Z</time>
      </trkpt>
      <trkpt lat="45.76017" lon="6.54961">
        <ele>1776</ele>
        <time>2022-07-24T07:39:05Z</time>
      </trkpt>
      <trkpt lat="45.76017" lon="6.54962">
        <ele>1777</ele>
        <time>2022-07-24T07:39:06Z</time>
      </trkpt>
      <trkpt lat="45.76017" lon="6.54963">
        <ele>1777</ele>
        <time>2022-07-24T07:39:07Z</time>
      </trkpt>
      <trkpt lat="45.76017" lon="6.54964">
        <ele>1777</ele>
        <time>2022-07-24T07:39:08Z</time>
      </trkpt>
      <trkpt lat="45.76017" lon="6.54965">
        <ele>1777</ele>
        <time>2022-07-24T07:39:09Z</time>
      </trkpt>
      <trkpt lat="45.76017" lon="6.54966">
        <ele>1777</ele>
        <time>2022-07-24T07:39:10Z</time>
      </trkpt>
      <trkpt lat="45.76017" lon="6.54967">
        <ele>1777</ele>
        <time>2022-07-24T07:39:11Z</time>
      </trkpt>
      <trkpt lat="45.76017" lon="6.54968">
        <ele>1777</ele>
        <time>2022-07-24T07:39:12Z</time>
      </trkpt>
      <trkpt lat="45.76017" lon="6.54968">
        <ele>1777</ele>
        <time>2022-07-24T07:39:13Z</time>
      </trkpt>
      <trkpt lat="45.76017" lon="6.54968">
        <ele>1777</ele>
        <time>2022-07-24T07:39:14Z</time>
      </trkpt>
      <trkpt lat="45.76017" lon="6.54969">
        <ele>1777</ele>
        <time>2022-07-24T07:39:15Z</time>
      </trkpt>
      <trkpt lat="45.76017" lon="6.5497">
        <ele>1778</ele>
        <time>2022-07-24T07:39:16Z</time>
      </trkpt>
      <trkpt lat="45.76017" lon="6.54971">
        <ele>1778</ele>
        <time>2022-07-24T07:39:17Z</time>
      </trkpt>
      <trkpt lat="45.76018" lon="6.54971">
        <ele>1778</ele>
        <time>2022-07-24T07:39:18Z</time>
      </trkpt>
      <trkpt lat="45.76018" lon="6.54972">
        <ele>1778</ele>
        <time>2022-07-24T07:39:19Z</time>
      </trkpt>
      <trkpt lat="45.76018" lon="6.54973">
        <ele>1778</ele>
        <time>2022-07-24T07:39:20Z</time>
      </trkpt>
      <trkpt lat="45.76018" lon="6.54973">
        <ele>1778</ele>
        <time>2022-07-24T07:39:21Z</time>
      </trkpt>
      <trkpt lat="45.76018" lon="6.54974">
        <ele>1778</ele>
        <time>2022-07-24T07:39:22Z</time>
      </trkpt>
      <trkpt lat="45.76019" lon="6.54975">
        <ele>1778</ele>
        <time>2022-07-24T07:39:23Z</time>
      </trkpt>
      <trkpt lat="45.76019" lon="6.54976">
        <ele>1778</ele>
        <time>2022-07-24T07:39:24Z</time>
      </trkpt>
      <trkpt lat="45.76019" lon="6.54977">
        <ele>1778</ele>
        <time>2022-07-24T07:39:25Z</time>
      </trkpt>
      <trkpt lat="45.7602" lon="6.54978">
        <ele>1778</ele>
        <time>2022-07-24T07:39:26Z</time>
      </trkpt>
      <trkpt lat="45.7602" lon="6.54979">
        <ele>1778</ele>
        <time>2022-07-24T07:39:27Z</time>
      </trkpt>
      <trkpt lat="45.7602" lon="6.5498">
        <ele>1778</ele>
        <time>2022-07-24T07:39:28Z</time>
      </trkpt>
      <trkpt lat="45.76021" lon="6.54981">
        <ele>1778</ele>
        <time>2022-07-24T07:39:29Z</time>
      </trkpt>
      <trkpt lat="45.76021" lon="6.54982">
        <ele>1778</ele>
        <time>2022-07-24T07:39:30Z</time>
      </trkpt>
      <trkpt lat="45.76021" lon="6.54984">
        <ele>1778</ele>
        <time>2022-07-24T07:39:31Z</time>
      </trkpt>
      <trkpt lat="45.76022" lon="6.54985">
        <ele>1778</ele>
        <time>2022-07-24T07:39:32Z</time>
      </trkpt>
      <trkpt lat="45.76022" lon="6.54986">
        <ele>1778</ele>
        <time>2022-07-24T07:39:33Z</time>
      </trkpt>
      <trkpt lat="45.76023" lon="6.54987">
        <ele>1778</ele>
        <time>2022-07-24T07:39:34Z</time>
      </trkpt>
      <trkpt lat="45.76023" lon="6.54989">
        <ele>1778</ele>
        <time>2022-07-24T07:39:35Z</time>
      </trkpt>
      <trkpt lat="45.76024" lon="6.5499">
        <ele>1779</ele>
        <time>2022-07-24T07:39:36Z</time>
      </trkpt>
      <trkpt lat="45.76024" lon="6.54992">
        <ele>1779</ele>
        <time>2022-07-24T07:39:37Z</time>
      </trkpt>
      <trkpt lat="45.76024" lon="6.54993">
        <ele>1779</ele>
        <time>2022-07-24T07:39:38Z</time>
      </trkpt>
      <trkpt lat="45.76024" lon="6.54995">
        <ele>1779</ele>
        <time>2022-07-24T07:39:39Z</time>
      </trkpt>
      <trkpt lat="45.76025" lon="6.54996">
        <ele>1779</ele>
        <time>2022-07-24T07:39:40Z</time>
      </trkpt>
      <trkpt lat="45.76025" lon="6.54998">
        <ele>1779</ele>
        <time>2022-07-24T07:39:41Z</time>
      </trkpt>
      <trkpt lat="45.76025" lon="6.54999">
        <ele>1779</ele>
        <time>2022-07-24T07:39:42Z</time>
      </trkpt>
      <trkpt lat="45.76026" lon="6.55001">
        <ele>1779</ele>
        <time>2022-07-24T07:39:43Z</time>
      </trkpt>
      <trkpt lat="45.76026" lon="6.55002">
        <ele>1779</ele>
        <time>2022-07-24T07:39:44Z</time>
      </trkpt>
      <trkpt lat="45.76026" lon="6.55004">
        <ele>1779</ele>
        <time>2022-07-24T07:39:45Z</time>
      </trkpt>
      <trkpt lat="45.76026" lon="6.55005">
        <ele>1779</ele>
        <time>2022-07-24T07:39:46Z</time>
      </trkpt>
      <trkpt lat="45.76027" lon="6.55007">
        <ele>1779</ele>
        <time>2022-07-24T07:39:47Z</time>
      </trkpt>
      <trkpt lat="45.76027" lon="6.55008">
        <ele>1779</ele>
        <time>2022-07-24T07:39:48Z</time>
      </trkpt>
      <trkpt lat="45.76027" lon="6.5501">
        <ele>1779</ele>
        <time>2022-07-24T07:39:49Z</time>
      </trkpt>
      <trkpt lat="45.76027" lon="6.55011">
        <ele>1779</ele>
        <time>2022-07-24T07:39:50Z</time>
      </trkpt>
      <trkpt lat="45.76027" lon="6.55013">
        <ele>1779</ele>
        <time>2022-07-24T07:39:51Z</time>
      </trkpt>
      <trkpt lat="45.76028" lon="6.55014">
        <ele>1779</ele>
        <time>2022-07-24T07:39:52Z</time>
      </trkpt>
      <trkpt lat="45.76028" lon="6.55015">
        <ele>1779</ele>
        <time>2022-07-24T07:39:53Z</time>
      </trkpt>
      <trkpt lat="45.76028" lon="6.55017">
        <ele>1779</ele>
        <time>2022-07-24T07:39:54Z</time>
      </trkpt>
      <trkpt lat="45.76028" lon="6.55018">
        <ele>1779</ele>
        <time>2022-07-24T07:39:55Z</time>
      </trkpt>
      <trkpt lat="45.76028" lon="6.55019">
        <ele>1779</ele>
        <time>2022-07-24T07:39:56Z</time>
      </trkpt>
      <trkpt lat="45.76029" lon="6.55021">
        <ele>1779</ele>
        <time>2022-07-24T07:39:57Z</time>
      </trkpt>
      <trkpt lat="45.76029" lon="6.55022">
        <ele>1779</ele>
        <time>2022-07-24T07:39:58Z</time>
      </trkpt>
      <trkpt lat="45.76029" lon="6.55023">
        <ele>1779</ele>
        <time>2022-07-24T07:39:59Z</time>
      </trkpt>
      <trkpt lat="45.76029" lon="6.55025">
        <ele>1779</ele>
        <time>2022-07-24T07:40:00Z</time>
      </trkpt>
      <trkpt lat="45.76029" lon="6.55026">
        <ele>1779</ele>
        <time>2022-07-24T07:40:01Z</time>
      </trkpt>
      <trkpt lat="45.7603" lon="6.55028">
        <ele>1779</ele>
        <time>2022-07-24T07:40:02Z</time>
      </trkpt>
      <trkpt lat="45.7603" lon="6.55029">
        <ele>1779</ele>
        <time>2022-07-24T07:40:03Z</time>
      </trkpt>
      <trkpt lat="45.7603" lon="6.5503">
        <ele>1779</ele>
        <time>2022-07-24T07:40:04Z</time>
      </trkpt>
      <trkpt lat="45.7603" lon="6.55032">
        <ele>1779</ele>
        <time>2022-07-24T07:40:05Z</time>
      </trkpt>
      <trkpt lat="45.76031" lon="6.55033">
        <ele>1780</ele>
        <time>2022-07-24T07:40:06Z</time>
      </trkpt>
      <trkpt lat="45.76031" lon="6.55035">
        <ele>1780</ele>
        <time>2022-07-24T07:40:07Z</time>
      </trkpt>
      <trkpt lat="45.76031" lon="6.55036">
        <ele>1780</ele>
        <time>2022-07-24T07:40:08Z</time>
      </trkpt>
      <trkpt lat="45.76031" lon="6.55038">
        <ele>1780</ele>
        <time>2022-07-24T07:40:09Z</time>
      </trkpt>
      <trkpt lat="45.76032" lon="6.55039">
        <ele>1780</ele>
        <time>2022-07-24T07:40:10Z</time>
      </trkpt>
      <trkpt lat="45.76032" lon="6.5504">
        <ele>1780</ele>
        <time>2022-07-24T07:40:11Z</time>
      </trkpt>
      <trkpt lat="45.76032" lon="6.55042">
        <ele>1780</ele>
        <time>2022-07-24T07:40:12Z</time>
      </trkpt>
      <trkpt lat="45.76032" lon="6.55043">
        <ele>1780</ele>
        <time>2022-07-24T07:40:13Z</time>
      </trkpt>
      <trkpt lat="45.76032" lon="6.55044">
        <ele>1780</ele>
        <time>2022-07-24T07:40:14Z</time>
      </trkpt>
      <trkpt lat="45.76032" lon="6.55045">
        <ele>1780</ele>
        <time>2022-07-24T07:40:15Z</time>
      </trkpt>
      <trkpt lat="45.76032" lon="6.55046">
        <ele>1781</ele>
        <time>2022-07-24T07:40:16Z</time>
      </trkpt>
      <trkpt lat="45.76033" lon="6.55047">
        <ele>1781</ele>
        <time>2022-07-24T07:40:17Z</time>
      </trkpt>
      <trkpt lat="45.76033" lon="6.55048">
        <ele>1781</ele>
        <time>2022-07-24T07:40:18Z</time>
      </trkpt>
      <trkpt lat="45.76033" lon="6.55048">
        <ele>1781</ele>
        <time>2022-07-24T07:40:19Z</time>
      </trkpt>
      <trkpt lat="45.76034" lon="6.55049">
        <ele>1781</ele>
        <time>2022-07-24T07:40:20Z</time>
      </trkpt>
      <trkpt lat="45.76034" lon="6.55051">
        <ele>1781</ele>
        <time>2022-07-24T07:40:21Z</time>
      </trkpt>
      <trkpt lat="45.76035" lon="6.55052">
        <ele>1781</ele>
        <time>2022-07-24T07:40:22Z</time>
      </trkpt>
      <trkpt lat="45.76036" lon="6.55053">
        <ele>1781</ele>
        <time>2022-07-24T07:40:23Z</time>
      </trkpt>
      <trkpt lat="45.76037" lon="6.55055">
        <ele>1781</ele>
        <time>2022-07-24T07:40:24Z</time>
      </trkpt>
      <trkpt lat="45.76038" lon="6.55056">
        <ele>1781</ele>
        <time>2022-07-24T07:40:25Z</time>
      </trkpt>
      <trkpt lat="45.76038" lon="6.55058">
        <ele>1782</ele>
        <time>2022-07-24T07:40:26Z</time>
      </trkpt>
      <trkpt lat="45.76039" lon="6.55059">
        <ele>1782</ele>
        <time>2022-07-24T07:40:27Z</time>
      </trkpt>
      <trkpt lat="45.7604" lon="6.5506">
        <ele>1782</ele>
        <time>2022-07-24T07:40:28Z</time>
      </trkpt>
      <trkpt lat="45.7604" lon="6.55062">
        <ele>1782</ele>
        <time>2022-07-24T07:40:29Z</time>
      </trkpt>
      <trkpt lat="45.76041" lon="6.55063">
        <ele>1782</ele>
        <time>2022-07-24T07:40:30Z</time>
      </trkpt>
      <trkpt lat="45.76041" lon="6.55064">
        <ele>1782</ele>
        <time>2022-07-24T07:40:31Z</time>
      </trkpt>
      <trkpt lat="45.76042" lon="6.55066">
        <ele>1782</ele>
        <time>2022-07-24T07:40:32Z</time>
      </trkpt>
      <trkpt lat="45.76042" lon="6.55067">
        <ele>1782</ele>
        <time>2022-07-24T07:40:33Z</time>
      </trkpt>
      <trkpt lat="45.76043" lon="6.55068">
        <ele>1782</ele>
        <time>2022-07-24T07:40:34Z</time>
      </trkpt>
      <trkpt lat="45.76043" lon="6.5507">
        <ele>1782</ele>
        <time>2022-07-24T07:40:35Z</time>
      </trkpt>
      <trkpt lat="45.76044" lon="6.55071">
        <ele>1782</ele>
        <time>2022-07-24T07:40:36Z</time>
      </trkpt>
      <trkpt lat="45.76044" lon="6.55072">
        <ele>1782</ele>
        <time>2022-07-24T07:40:37Z</time>
      </trkpt>
      <trkpt lat="45.76045" lon="6.55073">
        <ele>1782</ele>
        <time>2022-07-24T07:40:38Z</time>
      </trkpt>
      <trkpt lat="45.76045" lon="6.55074">
        <ele>1782</ele>
        <time>2022-07-24T07:40:39Z</time>
      </trkpt>
      <trkpt lat="45.76046" lon="6.55075">
        <ele>1782</ele>
        <time>2022-07-24T07:40:40Z</time>
      </trkpt>
      <trkpt lat="45.76046" lon="6.55077">
        <ele>1782</ele>
        <time>2022-07-24T07:40:41Z</time>
      </trkpt>
      <trkpt lat="45.76047" lon="6.55078">
        <ele>1782</ele>
        <time>2022-07-24T07:40:42Z</time>
      </trkpt>
      <trkpt lat="45.76047" lon="6.55079">
        <ele>1782</ele>
        <time>2022-07-24T07:40:43Z</time>
      </trkpt>
      <trkpt lat="45.76048" lon="6.5508">
        <ele>1782</ele>
        <time>2022-07-24T07:40:44Z</time>
      </trkpt>
      <trkpt lat="45.76048" lon="6.55081">
        <ele>1782</ele>
        <time>2022-07-24T07:40:45Z</time>
      </trkpt>
      <trkpt lat="45.76049" lon="6.55082">
        <ele>1783</ele>
        <time>2022-07-24T07:40:46Z</time>
      </trkpt>
      <trkpt lat="45.76049" lon="6.55083">
        <ele>1783</ele>
        <time>2022-07-24T07:40:47Z</time>
      </trkpt>
      <trkpt lat="45.7605" lon="6.55085">
        <ele>1783</ele>
        <time>2022-07-24T07:40:48Z</time>
      </trkpt>
      <trkpt lat="45.76051" lon="6.55086">
        <ele>1783</ele>
        <time>2022-07-24T07:40:49Z</time>
      </trkpt>
      <trkpt lat="45.76051" lon="6.55087">
        <ele>1783</ele>
        <time>2022-07-24T07:40:50Z</time>
      </trkpt>
      <trkpt lat="45.76052" lon="6.55088">
        <ele>1783</ele>
        <time>2022-07-24T07:40:51Z</time>
      </trkpt>
      <trkpt lat="45.76052" lon="6.55089">
        <ele>1783</ele>
        <time>2022-07-24T07:40:52Z</time>
      </trkpt>
      <trkpt lat="45.76053" lon="6.5509">
        <ele>1783</ele>
        <time>2022-07-24T07:40:53Z</time>
      </trkpt>
      <trkpt lat="45.76053" lon="6.55092">
        <ele>1783</ele>
        <time>2022-07-24T07:40:54Z</time>
      </trkpt>
      <trkpt lat="45.76054" lon="6.55093">
        <ele>1783</ele>
        <time>2022-07-24T07:40:55Z</time>
      </trkpt>
      <trkpt lat="45.76054" lon="6.55094">
        <ele>1784</ele>
        <time>2022-07-24T07:40:56Z</time>
      </trkpt>
      <trkpt lat="45.76055" lon="6.55095">
        <ele>1784</ele>
        <time>2022-07-24T07:40:57Z</time>
      </trkpt>
      <trkpt lat="45.76055" lon="6.55096">
        <ele>1784</ele>
        <time>2022-07-24T07:40:58Z</time>
      </trkpt>
      <trkpt lat="45.76056" lon="6.55097">
        <ele>1784</ele>
        <time>2022-07-24T07:40:59Z</time>
      </trkpt>
      <trkpt lat="45.76056" lon="6.55098">
        <ele>1784</ele>
        <time>2022-07-24T07:41:00Z</time>
      </trkpt>
      <trkpt lat="45.76057" lon="6.55099">
        <ele>1784</ele>
        <time>2022-07-24T07:41:01Z</time>
      </trkpt>
      <trkpt lat="45.76057" lon="6.551">
        <ele>1784</ele>
        <time>2022-07-24T07:41:02Z</time>
      </trkpt>
      <trkpt lat="45.76057" lon="6.55101">
        <ele>1784</ele>
        <time>2022-07-24T07:41:03Z</time>
      </trkpt>
      <trkpt lat="45.76058" lon="6.55103">
        <ele>1784</ele>
        <time>2022-07-24T07:41:04Z</time>
      </trkpt>
      <trkpt lat="45.76058" lon="6.55104">
        <ele>1784</ele>
        <time>2022-07-24T07:41:05Z</time>
      </trkpt>
      <trkpt lat="45.76059" lon="6.55105">
        <ele>1785</ele>
        <time>2022-07-24T07:41:06Z</time>
      </trkpt>
      <trkpt lat="45.76059" lon="6.55107">
        <ele>1785</ele>
        <time>2022-07-24T07:41:07Z</time>
      </trkpt>
      <trkpt lat="45.7606" lon="6.55108">
        <ele>1785</ele>
        <time>2022-07-24T07:41:08Z</time>
      </trkpt>
      <trkpt lat="45.7606" lon="6.55109">
        <ele>1785</ele>
        <time>2022-07-24T07:41:09Z</time>
      </trkpt>
      <trkpt lat="45.76061" lon="6.55111">
        <ele>1785</ele>
        <time>2022-07-24T07:41:10Z</time>
      </trkpt>
      <trkpt lat="45.76061" lon="6.55112">
        <ele>1785</ele>
        <time>2022-07-24T07:41:11Z</time>
      </trkpt>
      <trkpt lat="45.76062" lon="6.55114">
        <ele>1785</ele>
        <time>2022-07-24T07:41:12Z</time>
      </trkpt>
      <trkpt lat="45.76062" lon="6.55115">
        <ele>1785</ele>
        <time>2022-07-24T07:41:13Z</time>
      </trkpt>
      <trkpt lat="45.76063" lon="6.55116">
        <ele>1785</ele>
        <time>2022-07-24T07:41:14Z</time>
      </trkpt>
      <trkpt lat="45.76064" lon="6.55117">
        <ele>1785</ele>
        <time>2022-07-24T07:41:15Z</time>
      </trkpt>
      <trkpt lat="45.76064" lon="6.55119">
        <ele>1785</ele>
        <time>2022-07-24T07:41:16Z</time>
      </trkpt>
      <trkpt lat="45.76065" lon="6.5512">
        <ele>1785</ele>
        <time>2022-07-24T07:41:17Z</time>
      </trkpt>
      <trkpt lat="45.76066" lon="6.55121">
        <ele>1785</ele>
        <time>2022-07-24T07:41:18Z</time>
      </trkpt>
      <trkpt lat="45.76066" lon="6.55122">
        <ele>1785</ele>
        <time>2022-07-24T07:41:19Z</time>
      </trkpt>
      <trkpt lat="45.76066" lon="6.55124">
        <ele>1785</ele>
        <time>2022-07-24T07:41:20Z</time>
      </trkpt>
      <trkpt lat="45.76066" lon="6.55125">
        <ele>1786</ele>
        <time>2022-07-24T07:41:21Z</time>
      </trkpt>
      <trkpt lat="45.76067" lon="6.55126">
        <ele>1786</ele>
        <time>2022-07-24T07:41:22Z</time>
      </trkpt>
      <trkpt lat="45.76067" lon="6.55128">
        <ele>1786</ele>
        <time>2022-07-24T07:41:23Z</time>
      </trkpt>
      <trkpt lat="45.76067" lon="6.55129">
        <ele>1786</ele>
        <time>2022-07-24T07:41:24Z</time>
      </trkpt>
      <trkpt lat="45.76067" lon="6.5513">
        <ele>1786</ele>
        <time>2022-07-24T07:41:25Z</time>
      </trkpt>
      <trkpt lat="45.76067" lon="6.55132">
        <ele>1786</ele>
        <time>2022-07-24T07:41:26Z</time>
      </trkpt>
      <trkpt lat="45.76067" lon="6.55133">
        <ele>1786</ele>
        <time>2022-07-24T07:41:27Z</time>
      </trkpt>
      <trkpt lat="45.76067" lon="6.55134">
        <ele>1786</ele>
        <time>2022-07-24T07:41:28Z</time>
      </trkpt>
      <trkpt lat="45.76067" lon="6.55136">
        <ele>1786</ele>
        <time>2022-07-24T07:41:29Z</time>
      </trkpt>
      <trkpt lat="45.76067" lon="6.55137">
        <ele>1786</ele>
        <time>2022-07-24T07:41:30Z</time>
      </trkpt>
      <trkpt lat="45.76067" lon="6.55138">
        <ele>1786</ele>
        <time>2022-07-24T07:41:31Z</time>
      </trkpt>
      <trkpt lat="45.76067" lon="6.5514">
        <ele>1786</ele>
        <time>2022-07-24T07:41:32Z</time>
      </trkpt>
      <trkpt lat="45.76067" lon="6.55141">
        <ele>1786</ele>
        <time>2022-07-24T07:41:33Z</time>
      </trkpt>
      <trkpt lat="45.76067" lon="6.55142">
        <ele>1787</ele>
        <time>2022-07-24T07:41:34Z</time>
      </trkpt>
      <trkpt lat="45.76067" lon="6.55144">
        <ele>1787</ele>
        <time>2022-07-24T07:41:35Z</time>
      </trkpt>
      <trkpt lat="45.76067" lon="6.55145">
        <ele>1788</ele>
        <time>2022-07-24T07:41:36Z</time>
      </trkpt>
      <trkpt lat="45.76067" lon="6.55146">
        <ele>1788</ele>
        <time>2022-07-24T07:41:37Z</time>
      </trkpt>
      <trkpt lat="45.76067" lon="6.55147">
        <ele>1788</ele>
        <time>2022-07-24T07:41:38Z</time>
      </trkpt>
      <trkpt lat="45.76067" lon="6.55149">
        <ele>1788</ele>
        <time>2022-07-24T07:41:39Z</time>
      </trkpt>
      <trkpt lat="45.76067" lon="6.5515">
        <ele>1788</ele>
        <time>2022-07-24T07:41:40Z</time>
      </trkpt>
      <trkpt lat="45.76067" lon="6.55152">
        <ele>1788</ele>
        <time>2022-07-24T07:41:41Z</time>
      </trkpt>
      <trkpt lat="45.76067" lon="6.55153">
        <ele>1788</ele>
        <time>2022-07-24T07:41:42Z</time>
      </trkpt>
      <trkpt lat="45.76067" lon="6.55154">
        <ele>1788</ele>
        <time>2022-07-24T07:41:43Z</time>
      </trkpt>
      <trkpt lat="45.76067" lon="6.55156">
        <ele>1788</ele>
        <time>2022-07-24T07:41:44Z</time>
      </trkpt>
      <trkpt lat="45.76067" lon="6.55157">
        <ele>1788</ele>
        <time>2022-07-24T07:41:45Z</time>
      </trkpt>
      <trkpt lat="45.76067" lon="6.55159">
        <ele>1788</ele>
        <time>2022-07-24T07:41:46Z</time>
      </trkpt>
      <trkpt lat="45.76067" lon="6.5516">
        <ele>1788</ele>
        <time>2022-07-24T07:41:47Z</time>
      </trkpt>
      <trkpt lat="45.76067" lon="6.55162">
        <ele>1788</ele>
        <time>2022-07-24T07:41:48Z</time>
      </trkpt>
      <trkpt lat="45.76067" lon="6.55163">
        <ele>1788</ele>
        <time>2022-07-24T07:41:49Z</time>
      </trkpt>
      <trkpt lat="45.76067" lon="6.55165">
        <ele>1788</ele>
        <time>2022-07-24T07:41:50Z</time>
      </trkpt>
      <trkpt lat="45.76067" lon="6.55166">
        <ele>1789</ele>
        <time>2022-07-24T07:41:51Z</time>
      </trkpt>
      <trkpt lat="45.76067" lon="6.55168">
        <ele>1789</ele>
        <time>2022-07-24T07:41:52Z</time>
      </trkpt>
      <trkpt lat="45.76067" lon="6.55169">
        <ele>1789</ele>
        <time>2022-07-24T07:41:53Z</time>
      </trkpt>
      <trkpt lat="45.76067" lon="6.55171">
        <ele>1789</ele>
        <time>2022-07-24T07:41:54Z</time>
      </trkpt>
      <trkpt lat="45.76067" lon="6.55172">
        <ele>1789</ele>
        <time>2022-07-24T07:41:55Z</time>
      </trkpt>
      <trkpt lat="45.76067" lon="6.55174">
        <ele>1789</ele>
        <time>2022-07-24T07:41:56Z</time>
      </trkpt>
      <trkpt lat="45.76067" lon="6.55175">
        <ele>1789</ele>
        <time>2022-07-24T07:41:57Z</time>
      </trkpt>
      <trkpt lat="45.76067" lon="6.55177">
        <ele>1789</ele>
        <time>2022-07-24T07:41:58Z</time>
      </trkpt>
      <trkpt lat="45.76067" lon="6.55178">
        <ele>1789</ele>
        <time>2022-07-24T07:41:59Z</time>
      </trkpt>
      <trkpt lat="45.76068" lon="6.55179">
        <ele>1789</ele>
        <time>2022-07-24T07:42:00Z</time>
      </trkpt>
      <trkpt lat="45.76068" lon="6.55181">
        <ele>1789</ele>
        <time>2022-07-24T07:42:01Z</time>
      </trkpt>
      <trkpt lat="45.76068" lon="6.55182">
        <ele>1789</ele>
        <time>2022-07-24T07:42:02Z</time>
      </trkpt>
      <trkpt lat="45.76068" lon="6.55183">
        <ele>1789</ele>
        <time>2022-07-24T07:42:03Z</time>
      </trkpt>
      <trkpt lat="45.76068" lon="6.55185">
        <ele>1789</ele>
        <time>2022-07-24T07:42:04Z</time>
      </trkpt>
      <trkpt lat="45.76068" lon="6.55186">
        <ele>1789</ele>
        <time>2022-07-24T07:42:05Z</time>
      </trkpt>
      <trkpt lat="45.76068" lon="6.55188">
        <ele>1790</ele>
        <time>2022-07-24T07:42:06Z</time>
      </trkpt>
      <trkpt lat="45.76069" lon="6.55189">
        <ele>1790</ele>
        <time>2022-07-24T07:42:07Z</time>
      </trkpt>
      <trkpt lat="45.76069" lon="6.55191">
        <ele>1790</ele>
        <time>2022-07-24T07:42:08Z</time>
      </trkpt>
      <trkpt lat="45.76069" lon="6.55192">
        <ele>1790</ele>
        <time>2022-07-24T07:42:09Z</time>
      </trkpt>
      <trkpt lat="45.7607" lon="6.55193">
        <ele>1790</ele>
        <time>2022-07-24T07:42:10Z</time>
      </trkpt>
      <trkpt lat="45.7607" lon="6.55195">
        <ele>1790</ele>
        <time>2022-07-24T07:42:11Z</time>
      </trkpt>
      <trkpt lat="45.7607" lon="6.55196">
        <ele>1790</ele>
        <time>2022-07-24T07:42:12Z</time>
      </trkpt>
      <trkpt lat="45.76071" lon="6.55198">
        <ele>1790</ele>
        <time>2022-07-24T07:42:13Z</time>
      </trkpt>
      <trkpt lat="45.76072" lon="6.55199">
        <ele>1790</ele>
        <time>2022-07-24T07:42:14Z</time>
      </trkpt>
      <trkpt lat="45.76072" lon="6.552">
        <ele>1790</ele>
        <time>2022-07-24T07:42:15Z</time>
      </trkpt>
      <trkpt lat="45.76073" lon="6.55202">
        <ele>1790</ele>
        <time>2022-07-24T07:42:16Z</time>
      </trkpt>
      <trkpt lat="45.76073" lon="6.55203">
        <ele>1790</ele>
        <time>2022-07-24T07:42:17Z</time>
      </trkpt>
      <trkpt lat="45.76074" lon="6.55204">
        <ele>1790</ele>
        <time>2022-07-24T07:42:18Z</time>
      </trkpt>
      <trkpt lat="45.76074" lon="6.55205">
        <ele>1790</ele>
        <time>2022-07-24T07:42:19Z</time>
      </trkpt>
      <trkpt lat="45.76075" lon="6.55206">
        <ele>1790</ele>
        <time>2022-07-24T07:42:20Z</time>
      </trkpt>
      <trkpt lat="45.76075" lon="6.55207">
        <ele>1791</ele>
        <time>2022-07-24T07:42:21Z</time>
      </trkpt>
      <trkpt lat="45.76075" lon="6.55208">
        <ele>1791</ele>
        <time>2022-07-24T07:42:22Z</time>
      </trkpt>
      <trkpt lat="45.76075" lon="6.55209">
        <ele>1791</ele>
        <time>2022-07-24T07:42:23Z</time>
      </trkpt>
      <trkpt lat="45.76076" lon="6.5521">
        <ele>1791</ele>
        <time>2022-07-24T07:42:24Z</time>
      </trkpt>
      <trkpt lat="45.76076" lon="6.55211">
        <ele>1791</ele>
        <time>2022-07-24T07:42:25Z</time>
      </trkpt>
      <trkpt lat="45.76076" lon="6.55212">
        <ele>1791</ele>
        <time>2022-07-24T07:42:26Z</time>
      </trkpt>
      <trkpt lat="45.76076" lon="6.55213">
        <ele>1791</ele>
        <time>2022-07-24T07:42:27Z</time>
      </trkpt>
      <trkpt lat="45.76077" lon="6.55214">
        <ele>1791</ele>
        <time>2022-07-24T07:42:28Z</time>
      </trkpt>
      <trkpt lat="45.76078" lon="6.55216">
        <ele>1791</ele>
        <time>2022-07-24T07:44:08Z</time>
      </trkpt>
      <trkpt lat="45.76078" lon="6.55217">
        <ele>1791</ele>
        <time>2022-07-24T07:44:09Z</time>
      </trkpt>
      <trkpt lat="45.76079" lon="6.55219">
        <ele>1791</ele>
        <time>2022-07-24T07:44:10Z</time>
      </trkpt>
      <trkpt lat="45.76079" lon="6.5522">
        <ele>1791</ele>
        <time>2022-07-24T07:44:11Z</time>
      </trkpt>
      <trkpt lat="45.76079" lon="6.55221">
        <ele>1791</ele>
        <time>2022-07-24T07:44:12Z</time>
      </trkpt>
      <trkpt lat="45.76078" lon="6.55222">
        <ele>1791</ele>
        <time>2022-07-24T07:44:13Z</time>
      </trkpt>
      <trkpt lat="45.76078" lon="6.55223">
        <ele>1791</ele>
        <time>2022-07-24T07:44:14Z</time>
      </trkpt>
      <trkpt lat="45.76077" lon="6.55225">
        <ele>1791</ele>
        <time>2022-07-24T07:44:15Z</time>
      </trkpt>
      <trkpt lat="45.76076" lon="6.55226">
        <ele>1791</ele>
        <time>2022-07-24T07:44:16Z</time>
      </trkpt>
      <trkpt lat="45.76076" lon="6.55228">
        <ele>1791</ele>
        <time>2022-07-24T07:44:17Z</time>
      </trkpt>
      <trkpt lat="45.76075" lon="6.5523">
        <ele>1791</ele>
        <time>2022-07-24T07:44:18Z</time>
      </trkpt>
      <trkpt lat="45.76075" lon="6.55231">
        <ele>1791</ele>
        <time>2022-07-24T07:44:19Z</time>
      </trkpt>
      <trkpt lat="45.76074" lon="6.55233">
        <ele>1791</ele>
        <time>2022-07-24T07:44:20Z</time>
      </trkpt>
      <trkpt lat="45.76074" lon="6.55235">
        <ele>1791</ele>
        <time>2022-07-24T07:44:21Z</time>
      </trkpt>
      <trkpt lat="45.76073" lon="6.55236">
        <ele>1791</ele>
        <time>2022-07-24T07:44:22Z</time>
      </trkpt>
      <trkpt lat="45.76073" lon="6.55238">
        <ele>1791</ele>
        <time>2022-07-24T07:44:23Z</time>
      </trkpt>
      <trkpt lat="45.76073" lon="6.5524">
        <ele>1791</ele>
        <time>2022-07-24T07:44:24Z</time>
      </trkpt>
      <trkpt lat="45.76073" lon="6.55241">
        <ele>1791</ele>
        <time>2022-07-24T07:44:25Z</time>
      </trkpt>
      <trkpt lat="45.76073" lon="6.55243">
        <ele>1791</ele>
        <time>2022-07-24T07:44:26Z</time>
      </trkpt>
      <trkpt lat="45.76073" lon="6.55245">
        <ele>1791</ele>
        <time>2022-07-24T07:44:27Z</time>
      </trkpt>
      <trkpt lat="45.76073" lon="6.55246">
        <ele>1791</ele>
        <time>2022-07-24T07:44:28Z</time>
      </trkpt>
      <trkpt lat="45.76073" lon="6.55248">
        <ele>1791</ele>
        <time>2022-07-24T07:44:29Z</time>
      </trkpt>
      <trkpt lat="45.76073" lon="6.55249">
        <ele>1791</ele>
        <time>2022-07-24T07:44:30Z</time>
      </trkpt>
      <trkpt lat="45.76073" lon="6.55251">
        <ele>1791</ele>
        <time>2022-07-24T07:44:31Z</time>
      </trkpt>
      <trkpt lat="45.76073" lon="6.55252">
        <ele>1791</ele>
        <time>2022-07-24T07:44:32Z</time>
      </trkpt>
      <trkpt lat="45.76073" lon="6.55254">
        <ele>1791</ele>
        <time>2022-07-24T07:44:33Z</time>
      </trkpt>
      <trkpt lat="45.76073" lon="6.55256">
        <ele>1791</ele>
        <time>2022-07-24T07:44:34Z</time>
      </trkpt>
      <trkpt lat="45.76073" lon="6.55258">
        <ele>1791</ele>
        <time>2022-07-24T07:44:35Z</time>
      </trkpt>
      <trkpt lat="45.76073" lon="6.5526">
        <ele>1791</ele>
        <time>2022-07-24T07:44:36Z</time>
      </trkpt>
      <trkpt lat="45.76074" lon="6.55261">
        <ele>1791</ele>
        <time>2022-07-24T07:44:37Z</time>
      </trkpt>
      <trkpt lat="45.76074" lon="6.55263">
        <ele>1791</ele>
        <time>2022-07-24T07:44:38Z</time>
      </trkpt>
      <trkpt lat="45.76074" lon="6.55265">
        <ele>1791</ele>
        <time>2022-07-24T07:44:39Z</time>
      </trkpt>
      <trkpt lat="45.76074" lon="6.55266">
        <ele>1791</ele>
        <time>2022-07-24T07:44:40Z</time>
      </trkpt>
      <trkpt lat="45.76074" lon="6.55268">
        <ele>1791</ele>
        <time>2022-07-24T07:44:41Z</time>
      </trkpt>
      <trkpt lat="45.76074" lon="6.55269">
        <ele>1791</ele>
        <time>2022-07-24T07:44:42Z</time>
      </trkpt>
      <trkpt lat="45.76074" lon="6.5527">
        <ele>1791</ele>
        <time>2022-07-24T07:44:43Z</time>
      </trkpt>
      <trkpt lat="45.76074" lon="6.55272">
        <ele>1791</ele>
        <time>2022-07-24T07:44:44Z</time>
      </trkpt>
      <trkpt lat="45.76074" lon="6.55274">
        <ele>1791</ele>
        <time>2022-07-24T07:44:45Z</time>
      </trkpt>
      <trkpt lat="45.76074" lon="6.55275">
        <ele>1791</ele>
        <time>2022-07-24T07:44:46Z</time>
      </trkpt>
      <trkpt lat="45.76074" lon="6.55277">
        <ele>1790</ele>
        <time>2022-07-24T07:44:47Z</time>
      </trkpt>
      <trkpt lat="45.76074" lon="6.55278">
        <ele>1790</ele>
        <time>2022-07-24T07:44:48Z</time>
      </trkpt>
      <trkpt lat="45.76074" lon="6.5528">
        <ele>1790</ele>
        <time>2022-07-24T07:44:49Z</time>
      </trkpt>
      <trkpt lat="45.76073" lon="6.55281">
        <ele>1790</ele>
        <time>2022-07-24T07:44:50Z</time>
      </trkpt>
      <trkpt lat="45.76073" lon="6.55282">
        <ele>1790</ele>
        <time>2022-07-24T07:44:51Z</time>
      </trkpt>
      <trkpt lat="45.76072" lon="6.55284">
        <ele>1790</ele>
        <time>2022-07-24T07:44:52Z</time>
      </trkpt>
      <trkpt lat="45.76072" lon="6.55285">
        <ele>1790</ele>
        <time>2022-07-24T07:44:53Z</time>
      </trkpt>
      <trkpt lat="45.76071" lon="6.55286">
        <ele>1790</ele>
        <time>2022-07-24T07:44:54Z</time>
      </trkpt>
      <trkpt lat="45.76071" lon="6.55288">
        <ele>1791</ele>
        <time>2022-07-24T07:45:01Z</time>
      </trkpt>
      <trkpt lat="45.7607" lon="6.55288">
        <ele>1791</ele>
        <time>2022-07-24T07:45:02Z</time>
      </trkpt>
      <trkpt lat="45.7607" lon="6.55289">
        <ele>1791</ele>
        <time>2022-07-24T07:45:03Z</time>
      </trkpt>
      <trkpt lat="45.76069" lon="6.5529">
        <ele>1791</ele>
        <time>2022-07-24T07:45:04Z</time>
      </trkpt>
      <trkpt lat="45.76069" lon="6.5529">
        <ele>1791</ele>
        <time>2022-07-24T07:45:05Z</time>
      </trkpt>
      <trkpt lat="45.76068" lon="6.55291">
        <ele>1791</ele>
        <time>2022-07-24T07:45:06Z</time>
      </trkpt>
      <trkpt lat="45.76068" lon="6.55292">
        <ele>1790</ele>
        <time>2022-07-24T07:45:07Z</time>
      </trkpt>
      <trkpt lat="45.76067" lon="6.55293">
        <ele>1790</ele>
        <time>2022-07-24T07:45:08Z</time>
      </trkpt>
      <trkpt lat="45.76066" lon="6.55294">
        <ele>1790</ele>
        <time>2022-07-24T07:45:09Z</time>
      </trkpt>
      <trkpt lat="45.76065" lon="6.55296">
        <ele>1790</ele>
        <time>2022-07-24T07:45:10Z</time>
      </trkpt>
      <trkpt lat="45.76064" lon="6.55297">
        <ele>1790</ele>
        <time>2022-07-24T07:45:11Z</time>
      </trkpt>
      <trkpt lat="45.76064" lon="6.55298">
        <ele>1790</ele>
        <time>2022-07-24T07:45:12Z</time>
      </trkpt>
      <trkpt lat="45.76063" lon="6.55299">
        <ele>1790</ele>
        <time>2022-07-24T07:45:13Z</time>
      </trkpt>
      <trkpt lat="45.76062" lon="6.55301">
        <ele>1790</ele>
        <time>2022-07-24T07:45:14Z</time>
      </trkpt>
      <trkpt lat="45.76061" lon="6.55302">
        <ele>1790</ele>
        <time>2022-07-24T07:45:15Z</time>
      </trkpt>
      <trkpt lat="45.7606" lon="6.55303">
        <ele>1790</ele>
        <time>2022-07-24T07:45:16Z</time>
      </trkpt>
      <trkpt lat="45.76059" lon="6.55304">
        <ele>1790</ele>
        <time>2022-07-24T07:45:17Z</time>
      </trkpt>
      <trkpt lat="45.76059" lon="6.55306">
        <ele>1790</ele>
        <time>2022-07-24T07:45:18Z</time>
      </trkpt>
      <trkpt lat="45.76058" lon="6.55307">
        <ele>1790</ele>
        <time>2022-07-24T07:45:19Z</time>
      </trkpt>
      <trkpt lat="45.76057" lon="6.55308">
        <ele>1790</ele>
        <time>2022-07-24T07:45:20Z</time>
      </trkpt>
      <trkpt lat="45.76056" lon="6.55309">
        <ele>1790</ele>
        <time>2022-07-24T07:45:21Z</time>
      </trkpt>
      <trkpt lat="45.76056" lon="6.5531">
        <ele>1790</ele>
        <time>2022-07-24T07:45:22Z</time>
      </trkpt>
      <trkpt lat="45.76055" lon="6.55312">
        <ele>1790</ele>
        <time>2022-07-24T07:45:23Z</time>
      </trkpt>
      <trkpt lat="45.76054" lon="6.55313">
        <ele>1790</ele>
        <time>2022-07-24T07:45:24Z</time>
      </trkpt>
      <trkpt lat="45.76053" lon="6.55314">
        <ele>1790</ele>
        <time>2022-07-24T07:45:25Z</time>
      </trkpt>
      <trkpt lat="45.76053" lon="6.55315">
        <ele>1790</ele>
        <time>2022-07-24T07:45:26Z</time>
      </trkpt>
      <trkpt lat="45.76052" lon="6.55317">
        <ele>1790</ele>
        <time>2022-07-24T07:45:27Z</time>
      </trkpt>
      <trkpt lat="45.76051" lon="6.55318">
        <ele>1790</ele>
        <time>2022-07-24T07:45:28Z</time>
      </trkpt>
      <trkpt lat="45.7605" lon="6.55319">
        <ele>1790</ele>
        <time>2022-07-24T07:45:29Z</time>
      </trkpt>
      <trkpt lat="45.7605" lon="6.55321">
        <ele>1790</ele>
        <time>2022-07-24T07:45:30Z</time>
      </trkpt>
      <trkpt lat="45.76049" lon="6.55322">
        <ele>1790</ele>
        <time>2022-07-24T07:45:31Z</time>
      </trkpt>
      <trkpt lat="45.76048" lon="6.55323">
        <ele>1790</ele>
        <time>2022-07-24T07:45:32Z</time>
      </trkpt>
      <trkpt lat="45.76047" lon="6.55325">
        <ele>1790</ele>
        <time>2022-07-24T07:45:33Z</time>
      </trkpt>
      <trkpt lat="45.76047" lon="6.55326">
        <ele>1790</ele>
        <time>2022-07-24T07:45:34Z</time>
      </trkpt>
      <trkpt lat="45.76046" lon="6.55328">
        <ele>1790</ele>
        <time>2022-07-24T07:45:35Z</time>
      </trkpt>
      <trkpt lat="45.76045" lon="6.55329">
        <ele>1790</ele>
        <time>2022-07-24T07:45:36Z</time>
      </trkpt>
      <trkpt lat="45.76044" lon="6.55331">
        <ele>1790</ele>
        <time>2022-07-24T07:45:37Z</time>
      </trkpt>
      <trkpt lat="45.76044" lon="6.55332">
        <ele>1790</ele>
        <time>2022-07-24T07:45:38Z</time>
      </trkpt>
      <trkpt lat="45.76043" lon="6.55334">
        <ele>1790</ele>
        <time>2022-07-24T07:45:39Z</time>
      </trkpt>
      <trkpt lat="45.76043" lon="6.55336">
        <ele>1790</ele>
        <time>2022-07-24T07:45:40Z</time>
      </trkpt>
      <trkpt lat="45.76042" lon="6.55337">
        <ele>1790</ele>
        <time>2022-07-24T07:45:41Z</time>
      </trkpt>
      <trkpt lat="45.76041" lon="6.55339">
        <ele>1790</ele>
        <time>2022-07-24T07:45:42Z</time>
      </trkpt>
      <trkpt lat="45.76041" lon="6.5534">
        <ele>1790</ele>
        <time>2022-07-24T07:45:43Z</time>
      </trkpt>
      <trkpt lat="45.76041" lon="6.55342">
        <ele>1790</ele>
        <time>2022-07-24T07:45:44Z</time>
      </trkpt>
      <trkpt lat="45.7604" lon="6.55343">
        <ele>1790</ele>
        <time>2022-07-24T07:45:45Z</time>
      </trkpt>
      <trkpt lat="45.7604" lon="6.55345">
        <ele>1790</ele>
        <time>2022-07-24T07:45:46Z</time>
      </trkpt>
      <trkpt lat="45.76039" lon="6.55347">
        <ele>1790</ele>
        <time>2022-07-24T07:45:47Z</time>
      </trkpt>
      <trkpt lat="45.76039" lon="6.55348">
        <ele>1790</ele>
        <time>2022-07-24T07:45:48Z</time>
      </trkpt>
      <trkpt lat="45.76039" lon="6.5535">
        <ele>1790</ele>
        <time>2022-07-24T07:45:49Z</time>
      </trkpt>
      <trkpt lat="45.76039" lon="6.55351">
        <ele>1790</ele>
        <time>2022-07-24T07:45:50Z</time>
      </trkpt>
      <trkpt lat="45.76038" lon="6.55353">
        <ele>1790</ele>
        <time>2022-07-24T07:45:51Z</time>
      </trkpt>
      <trkpt lat="45.76038" lon="6.55355">
        <ele>1790</ele>
        <time>2022-07-24T07:45:52Z</time>
      </trkpt>
      <trkpt lat="45.76038" lon="6.55356">
        <ele>1790</ele>
        <time>2022-07-24T07:45:53Z</time>
      </trkpt>
      <trkpt lat="45.76038" lon="6.55358">
        <ele>1790</ele>
        <time>2022-07-24T07:45:54Z</time>
      </trkpt>
      <trkpt lat="45.76038" lon="6.5536">
        <ele>1790</ele>
        <time>2022-07-24T07:45:55Z</time>
      </trkpt>
      <trkpt lat="45.76038" lon="6.55361">
        <ele>1790</ele>
        <time>2022-07-24T07:45:56Z</time>
      </trkpt>
      <trkpt lat="45.76038" lon="6.55363">
        <ele>1790</ele>
        <time>2022-07-24T07:45:57Z</time>
      </trkpt>
      <trkpt lat="45.76038" lon="6.55365">
        <ele>1790</ele>
        <time>2022-07-24T07:45:58Z</time>
      </trkpt>
      <trkpt lat="45.76038" lon="6.55366">
        <ele>1790</ele>
        <time>2022-07-24T07:45:59Z</time>
      </trkpt>
      <trkpt lat="45.76037" lon="6.55368">
        <ele>1790</ele>
        <time>2022-07-24T07:46:00Z</time>
      </trkpt>
      <trkpt lat="45.76037" lon="6.55369">
        <ele>1790</ele>
        <time>2022-07-24T07:46:01Z</time>
      </trkpt>
      <trkpt lat="45.76037" lon="6.55371">
        <ele>1790</ele>
        <time>2022-07-24T07:46:02Z</time>
      </trkpt>
      <trkpt lat="45.76037" lon="6.55373">
        <ele>1790</ele>
        <time>2022-07-24T07:46:03Z</time>
      </trkpt>
      <trkpt lat="45.76037" lon="6.55374">
        <ele>1790</ele>
        <time>2022-07-24T07:46:04Z</time>
      </trkpt>
      <trkpt lat="45.76037" lon="6.55376">
        <ele>1790</ele>
        <time>2022-07-24T07:46:05Z</time>
      </trkpt>
      <trkpt lat="45.76037" lon="6.55378">
        <ele>1790</ele>
        <time>2022-07-24T07:46:06Z</time>
      </trkpt>
      <trkpt lat="45.76037" lon="6.55379">
        <ele>1790</ele>
        <time>2022-07-24T07:46:07Z</time>
      </trkpt>
      <trkpt lat="45.76037" lon="6.55381">
        <ele>1790</ele>
        <time>2022-07-24T07:46:08Z</time>
      </trkpt>
      <trkpt lat="45.76037" lon="6.55383">
        <ele>1790</ele>
        <time>2022-07-24T07:46:09Z</time>
      </trkpt>
      <trkpt lat="45.76037" lon="6.55385">
        <ele>1790</ele>
        <time>2022-07-24T07:46:10Z</time>
      </trkpt>
      <trkpt lat="45.76037" lon="6.55386">
        <ele>1790</ele>
        <time>2022-07-24T07:46:11Z</time>
      </trkpt>
      <trkpt lat="45.76037" lon="6.55388">
        <ele>1790</ele>
        <time>2022-07-24T07:46:12Z</time>
      </trkpt>
      <trkpt lat="45.76038" lon="6.5539">
        <ele>1790</ele>
        <time>2022-07-24T07:46:13Z</time>
      </trkpt>
      <trkpt lat="45.76038" lon="6.55391">
        <ele>1790</ele>
        <time>2022-07-24T07:46:14Z</time>
      </trkpt>
      <trkpt lat="45.76038" lon="6.55393">
        <ele>1790</ele>
        <time>2022-07-24T07:46:15Z</time>
      </trkpt>
      <trkpt lat="45.76038" lon="6.55394">
        <ele>1790</ele>
        <time>2022-07-24T07:46:16Z</time>
      </trkpt>
      <trkpt lat="45.76038" lon="6.55396">
        <ele>1790</ele>
        <time>2022-07-24T07:46:17Z</time>
      </trkpt>
      <trkpt lat="45.76038" lon="6.55398">
        <ele>1790</ele>
        <time>2022-07-24T07:46:18Z</time>
      </trkpt>
      <trkpt lat="45.76038" lon="6.55399">
        <ele>1790</ele>
        <time>2022-07-24T07:46:19Z</time>
      </trkpt>
      <trkpt lat="45.76038" lon="6.55401">
        <ele>1790</ele>
        <time>2022-07-24T07:46:20Z</time>
      </trkpt>
      <trkpt lat="45.76038" lon="6.55402">
        <ele>1790</ele>
        <time>2022-07-24T07:46:21Z</time>
      </trkpt>
      <trkpt lat="45.76039" lon="6.55404">
        <ele>1790</ele>
        <time>2022-07-24T07:46:22Z</time>
      </trkpt>
      <trkpt lat="45.76039" lon="6.55405">
        <ele>1790</ele>
        <time>2022-07-24T07:46:23Z</time>
      </trkpt>
      <trkpt lat="45.76039" lon="6.55407">
        <ele>1790</ele>
        <time>2022-07-24T07:46:24Z</time>
      </trkpt>
      <trkpt lat="45.76039" lon="6.55409">
        <ele>1790</ele>
        <time>2022-07-24T07:46:25Z</time>
      </trkpt>
      <trkpt lat="45.76039" lon="6.5541">
        <ele>1790</ele>
        <time>2022-07-24T07:46:26Z</time>
      </trkpt>
      <trkpt lat="45.7604" lon="6.55412">
        <ele>1790</ele>
        <time>2022-07-24T07:46:27Z</time>
      </trkpt>
      <trkpt lat="45.7604" lon="6.55413">
        <ele>1790</ele>
        <time>2022-07-24T07:46:28Z</time>
      </trkpt>
      <trkpt lat="45.7604" lon="6.55415">
        <ele>1790</ele>
        <time>2022-07-24T07:46:29Z</time>
      </trkpt>
      <trkpt lat="45.7604" lon="6.55417">
        <ele>1790</ele>
        <time>2022-07-24T07:46:30Z</time>
      </trkpt>
      <trkpt lat="45.7604" lon="6.55418">
        <ele>1790</ele>
        <time>2022-07-24T07:46:31Z</time>
      </trkpt>
      <trkpt lat="45.7604" lon="6.5542">
        <ele>1789</ele>
        <time>2022-07-24T07:46:32Z</time>
      </trkpt>
      <trkpt lat="45.7604" lon="6.55422">
        <ele>1789</ele>
        <time>2022-07-24T07:46:33Z</time>
      </trkpt>
      <trkpt lat="45.76041" lon="6.55423">
        <ele>1789</ele>
        <time>2022-07-24T07:46:34Z</time>
      </trkpt>
      <trkpt lat="45.76041" lon="6.55425">
        <ele>1789</ele>
        <time>2022-07-24T07:46:35Z</time>
      </trkpt>
      <trkpt lat="45.76041" lon="6.55427">
        <ele>1789</ele>
        <time>2022-07-24T07:46:36Z</time>
      </trkpt>
      <trkpt lat="45.76041" lon="6.55428">
        <ele>1789</ele>
        <time>2022-07-24T07:46:37Z</time>
      </trkpt>
      <trkpt lat="45.76041" lon="6.5543">
        <ele>1789</ele>
        <time>2022-07-24T07:46:38Z</time>
      </trkpt>
      <trkpt lat="45.76041" lon="6.55432">
        <ele>1789</ele>
        <time>2022-07-24T07:46:39Z</time>
      </trkpt>
      <trkpt lat="45.76041" lon="6.55433">
        <ele>1789</ele>
        <time>2022-07-24T07:46:40Z</time>
      </trkpt>
      <trkpt lat="45.7604" lon="6.55435">
        <ele>1789</ele>
        <time>2022-07-24T07:46:41Z</time>
      </trkpt>
      <trkpt lat="45.7604" lon="6.55437">
        <ele>1789</ele>
        <time>2022-07-24T07:46:42Z</time>
      </trkpt>
      <trkpt lat="45.7604" lon="6.55438">
        <ele>1789</ele>
        <time>2022-07-24T07:46:43Z</time>
      </trkpt>
      <trkpt lat="45.76039" lon="6.5544">
        <ele>1789</ele>
        <time>2022-07-24T07:46:44Z</time>
      </trkpt>
      <trkpt lat="45.76039" lon="6.55442">
        <ele>1789</ele>
        <time>2022-07-24T07:46:45Z</time>
      </trkpt>
      <trkpt lat="45.76038" lon="6.55443">
        <ele>1789</ele>
        <time>2022-07-24T07:46:46Z</time>
      </trkpt>
      <trkpt lat="45.76037" lon="6.55445">
        <ele>1789</ele>
        <time>2022-07-24T07:46:47Z</time>
      </trkpt>
      <trkpt lat="45.76037" lon="6.55446">
        <ele>1789</ele>
        <time>2022-07-24T07:46:48Z</time>
      </trkpt>
      <trkpt lat="45.76036" lon="6.55447">
        <ele>1789</ele>
        <time>2022-07-24T07:46:49Z</time>
      </trkpt>
      <trkpt lat="45.76035" lon="6.55448">
        <ele>1789</ele>
        <time>2022-07-24T07:46:50Z</time>
      </trkpt>
      <trkpt lat="45.76034" lon="6.55449">
        <ele>1789</ele>
        <time>2022-07-24T07:46:51Z</time>
      </trkpt>
      <trkpt lat="45.76033" lon="6.5545">
        <ele>1789</ele>
        <time>2022-07-24T07:46:52Z</time>
      </trkpt>
      <trkpt lat="45.76032" lon="6.55451">
        <ele>1789</ele>
        <time>2022-07-24T07:46:53Z</time>
      </trkpt>
      <trkpt lat="45.76031" lon="6.55452">
        <ele>1789</ele>
        <time>2022-07-24T07:46:54Z</time>
      </trkpt>
      <trkpt lat="45.7603" lon="6.55453">
        <ele>1789</ele>
        <time>2022-07-24T07:46:55Z</time>
      </trkpt>
      <trkpt lat="45.76029" lon="6.55454">
        <ele>1789</ele>
        <time>2022-07-24T07:46:56Z</time>
      </trkpt>
      <trkpt lat="45.76028" lon="6.55455">
        <ele>1788</ele>
        <time>2022-07-24T07:46:57Z</time>
      </trkpt>
      <trkpt lat="45.76026" lon="6.55455">
        <ele>1788</ele>
        <time>2022-07-24T07:46:58Z</time>
      </trkpt>
      <trkpt lat="45.76025" lon="6.55456">
        <ele>1788</ele>
        <time>2022-07-24T07:46:59Z</time>
      </trkpt>
      <trkpt lat="45.76024" lon="6.55457">
        <ele>1788</ele>
        <time>2022-07-24T07:47:00Z</time>
      </trkpt>
      <trkpt lat="45.76023" lon="6.55458">
        <ele>1788</ele>
        <time>2022-07-24T07:47:01Z</time>
      </trkpt>
      <trkpt lat="45.76022" lon="6.55459">
        <ele>1788</ele>
        <time>2022-07-24T07:47:02Z</time>
      </trkpt>
      <trkpt lat="45.76021" lon="6.5546">
        <ele>1788</ele>
        <time>2022-07-24T07:47:03Z</time>
      </trkpt>
      <trkpt lat="45.7602" lon="6.55461">
        <ele>1788</ele>
        <time>2022-07-24T07:47:04Z</time>
      </trkpt>
      <trkpt lat="45.76019" lon="6.55461">
        <ele>1788</ele>
        <time>2022-07-24T07:47:05Z</time>
      </trkpt>
      <trkpt lat="45.76018" lon="6.55462">
        <ele>1788</ele>
        <time>2022-07-24T07:47:06Z</time>
      </trkpt>
      <trkpt lat="45.76017" lon="6.55463">
        <ele>1788</ele>
        <time>2022-07-24T07:47:07Z</time>
      </trkpt>
      <trkpt lat="45.76016" lon="6.55464">
        <ele>1788</ele>
        <time>2022-07-24T07:47:08Z</time>
      </trkpt>
      <trkpt lat="45.76015" lon="6.55465">
        <ele>1788</ele>
        <time>2022-07-24T07:47:09Z</time>
      </trkpt>
      <trkpt lat="45.76013" lon="6.55466">
        <ele>1788</ele>
        <time>2022-07-24T07:47:10Z</time>
      </trkpt>
      <trkpt lat="45.76012" lon="6.55467">
        <ele>1788</ele>
        <time>2022-07-24T07:47:11Z</time>
      </trkpt>
      <trkpt lat="45.76011" lon="6.55468">
        <ele>1788</ele>
        <time>2022-07-24T07:47:12Z</time>
      </trkpt>
      <trkpt lat="45.7601" lon="6.55469">
        <ele>1788</ele>
        <time>2022-07-24T07:47:13Z</time>
      </trkpt>
      <trkpt lat="45.76009" lon="6.5547">
        <ele>1788</ele>
        <time>2022-07-24T07:47:14Z</time>
      </trkpt>
      <trkpt lat="45.76008" lon="6.55471">
        <ele>1788</ele>
        <time>2022-07-24T07:47:15Z</time>
      </trkpt>
      <trkpt lat="45.76007" lon="6.55472">
        <ele>1788</ele>
        <time>2022-07-24T07:47:16Z</time>
      </trkpt>
      <trkpt lat="45.76006" lon="6.55473">
        <ele>1788</ele>
        <time>2022-07-24T07:47:17Z</time>
      </trkpt>
      <trkpt lat="45.76005" lon="6.55474">
        <ele>1788</ele>
        <time>2022-07-24T07:47:18Z</time>
      </trkpt>
      <trkpt lat="45.76004" lon="6.55476">
        <ele>1788</ele>
        <time>2022-07-24T07:47:19Z</time>
      </trkpt>
      <trkpt lat="45.76004" lon="6.55477">
        <ele>1788</ele>
        <time>2022-07-24T07:47:20Z</time>
      </trkpt>
      <trkpt lat="45.76003" lon="6.55479">
        <ele>1788</ele>
        <time>2022-07-24T07:47:21Z</time>
      </trkpt>
      <trkpt lat="45.76002" lon="6.5548">
        <ele>1788</ele>
        <time>2022-07-24T07:47:22Z</time>
      </trkpt>
      <trkpt lat="45.76002" lon="6.55482">
        <ele>1788</ele>
        <time>2022-07-24T07:47:23Z</time>
      </trkpt>
      <trkpt lat="45.76002" lon="6.55484">
        <ele>1788</ele>
        <time>2022-07-24T07:47:24Z</time>
      </trkpt>
      <trkpt lat="45.76001" lon="6.55485">
        <ele>1788</ele>
        <time>2022-07-24T07:47:25Z</time>
      </trkpt>
      <trkpt lat="45.76001" lon="6.55487">
        <ele>1788</ele>
        <time>2022-07-24T07:47:26Z</time>
      </trkpt>
      <trkpt lat="45.76001" lon="6.55489">
        <ele>1788</ele>
        <time>2022-07-24T07:47:27Z</time>
      </trkpt>
      <trkpt lat="45.76002" lon="6.55491">
        <ele>1788</ele>
        <time>2022-07-24T07:47:28Z</time>
      </trkpt>
      <trkpt lat="45.76002" lon="6.55492">
        <ele>1788</ele>
        <time>2022-07-24T07:47:29Z</time>
      </trkpt>
      <trkpt lat="45.76002" lon="6.55494">
        <ele>1788</ele>
        <time>2022-07-24T07:47:30Z</time>
      </trkpt>
      <trkpt lat="45.76002" lon="6.55496">
        <ele>1788</ele>
        <time>2022-07-24T07:47:31Z</time>
      </trkpt>
      <trkpt lat="45.76003" lon="6.55498">
        <ele>1788</ele>
        <time>2022-07-24T07:47:32Z</time>
      </trkpt>
      <trkpt lat="45.76003" lon="6.55499">
        <ele>1788</ele>
        <time>2022-07-24T07:47:33Z</time>
      </trkpt>
      <trkpt lat="45.76003" lon="6.55501">
        <ele>1788</ele>
        <time>2022-07-24T07:47:34Z</time>
      </trkpt>
      <trkpt lat="45.76003" lon="6.55503">
        <ele>1788</ele>
        <time>2022-07-24T07:47:35Z</time>
      </trkpt>
      <trkpt lat="45.76003" lon="6.55505">
        <ele>1789</ele>
        <time>2022-07-24T07:47:36Z</time>
      </trkpt>
      <trkpt lat="45.76003" lon="6.55506">
        <ele>1789</ele>
        <time>2022-07-24T07:47:37Z</time>
      </trkpt>
      <trkpt lat="45.76004" lon="6.55508">
        <ele>1789</ele>
        <time>2022-07-24T07:47:38Z</time>
      </trkpt>
      <trkpt lat="45.76004" lon="6.5551">
        <ele>1789</ele>
        <time>2022-07-24T07:47:39Z</time>
      </trkpt>
      <trkpt lat="45.76004" lon="6.55511">
        <ele>1789</ele>
        <time>2022-07-24T07:47:40Z</time>
      </trkpt>
      <trkpt lat="45.76004" lon="6.55513">
        <ele>1789</ele>
        <time>2022-07-24T07:47:41Z</time>
      </trkpt>
      <trkpt lat="45.76004" lon="6.55514">
        <ele>1788</ele>
        <time>2022-07-24T07:47:42Z</time>
      </trkpt>
      <trkpt lat="45.76004" lon="6.55516">
        <ele>1788</ele>
        <time>2022-07-24T07:47:43Z</time>
      </trkpt>
      <trkpt lat="45.76004" lon="6.55518">
        <ele>1788</ele>
        <time>2022-07-24T07:47:44Z</time>
      </trkpt>
      <trkpt lat="45.76004" lon="6.55519">
        <ele>1788</ele>
        <time>2022-07-24T07:47:45Z</time>
      </trkpt>
      <trkpt lat="45.76004" lon="6.55521">
        <ele>1788</ele>
        <time>2022-07-24T07:47:46Z</time>
      </trkpt>
      <trkpt lat="45.76004" lon="6.55523">
        <ele>1788</ele>
        <time>2022-07-24T07:47:47Z</time>
      </trkpt>
      <trkpt lat="45.76004" lon="6.55525">
        <ele>1788</ele>
        <time>2022-07-24T07:47:48Z</time>
      </trkpt>
      <trkpt lat="45.76003" lon="6.55527">
        <ele>1788</ele>
        <time>2022-07-24T07:47:49Z</time>
      </trkpt>
      <trkpt lat="45.76003" lon="6.55528">
        <ele>1788</ele>
        <time>2022-07-24T07:47:50Z</time>
      </trkpt>
      <trkpt lat="45.76003" lon="6.5553">
        <ele>1788</ele>
        <time>2022-07-24T07:47:51Z</time>
      </trkpt>
      <trkpt lat="45.76003" lon="6.55532">
        <ele>1788</ele>
        <time>2022-07-24T07:47:52Z</time>
      </trkpt>
      <trkpt lat="45.76003" lon="6.55534">
        <ele>1788</ele>
        <time>2022-07-24T07:47:53Z</time>
      </trkpt>
      <trkpt lat="45.76003" lon="6.55535">
        <ele>1788</ele>
        <time>2022-07-24T07:47:54Z</time>
      </trkpt>
      <trkpt lat="45.76003" lon="6.55537">
        <ele>1788</ele>
        <time>2022-07-24T07:47:55Z</time>
      </trkpt>
      <trkpt lat="45.76003" lon="6.55539">
        <ele>1788</ele>
        <time>2022-07-24T07:47:56Z</time>
      </trkpt>
      <trkpt lat="45.76003" lon="6.5554">
        <ele>1788</ele>
        <time>2022-07-24T07:47:57Z</time>
      </trkpt>
      <trkpt lat="45.76003" lon="6.55542">
        <ele>1788</ele>
        <time>2022-07-24T07:47:58Z</time>
      </trkpt>
      <trkpt lat="45.76003" lon="6.55544">
        <ele>1788</ele>
        <time>2022-07-24T07:47:59Z</time>
      </trkpt>
      <trkpt lat="45.76003" lon="6.55545">
        <ele>1788</ele>
        <time>2022-07-24T07:48:00Z</time>
      </trkpt>
      <trkpt lat="45.76003" lon="6.55547">
        <ele>1789</ele>
        <time>2022-07-24T07:48:01Z</time>
      </trkpt>
      <trkpt lat="45.76003" lon="6.55549">
        <ele>1789</ele>
        <time>2022-07-24T07:48:02Z</time>
      </trkpt>
      <trkpt lat="45.76003" lon="6.5555">
        <ele>1789</ele>
        <time>2022-07-24T07:48:03Z</time>
      </trkpt>
      <trkpt lat="45.76003" lon="6.55552">
        <ele>1789</ele>
        <time>2022-07-24T07:48:04Z</time>
      </trkpt>
      <trkpt lat="45.76003" lon="6.55554">
        <ele>1789</ele>
        <time>2022-07-24T07:48:05Z</time>
      </trkpt>
      <trkpt lat="45.76003" lon="6.55555">
        <ele>1789</ele>
        <time>2022-07-24T07:48:06Z</time>
      </trkpt>
      <trkpt lat="45.76003" lon="6.55557">
        <ele>1789</ele>
        <time>2022-07-24T07:48:07Z</time>
      </trkpt>
      <trkpt lat="45.76003" lon="6.55559">
        <ele>1789</ele>
        <time>2022-07-24T07:48:08Z</time>
      </trkpt>
      <trkpt lat="45.76003" lon="6.5556">
        <ele>1789</ele>
        <time>2022-07-24T07:48:09Z</time>
      </trkpt>
      <trkpt lat="45.76003" lon="6.55562">
        <ele>1789</ele>
        <time>2022-07-24T07:48:10Z</time>
      </trkpt>
      <trkpt lat="45.76003" lon="6.55564">
        <ele>1789</ele>
        <time>2022-07-24T07:48:11Z</time>
      </trkpt>
      <trkpt lat="45.76002" lon="6.55566">
        <ele>1789</ele>
        <time>2022-07-24T07:48:12Z</time>
      </trkpt>
      <trkpt lat="45.76002" lon="6.55568">
        <ele>1789</ele>
        <time>2022-07-24T07:48:13Z</time>
      </trkpt>
      <trkpt lat="45.76002" lon="6.55569">
        <ele>1789</ele>
        <time>2022-07-24T07:48:14Z</time>
      </trkpt>
      <trkpt lat="45.76002" lon="6.55571">
        <ele>1789</ele>
        <time>2022-07-24T07:48:15Z</time>
      </trkpt>
      <trkpt lat="45.76002" lon="6.55573">
        <ele>1789</ele>
        <time>2022-07-24T07:48:16Z</time>
      </trkpt>
      <trkpt lat="45.76002" lon="6.55575">
        <ele>1789</ele>
        <time>2022-07-24T07:48:17Z</time>
      </trkpt>
      <trkpt lat="45.76002" lon="6.55577">
        <ele>1789</ele>
        <time>2022-07-24T07:48:18Z</time>
      </trkpt>
      <trkpt lat="45.76002" lon="6.55578">
        <ele>1789</ele>
        <time>2022-07-24T07:48:19Z</time>
      </trkpt>
      <trkpt lat="45.76002" lon="6.5558">
        <ele>1789</ele>
        <time>2022-07-24T07:48:20Z</time>
      </trkpt>
      <trkpt lat="45.76003" lon="6.55582">
        <ele>1789</ele>
        <time>2022-07-24T07:48:21Z</time>
      </trkpt>
      <trkpt lat="45.76003" lon="6.55583">
        <ele>1789</ele>
        <time>2022-07-24T07:48:22Z</time>
      </trkpt>
      <trkpt lat="45.76003" lon="6.55585">
        <ele>1789</ele>
        <time>2022-07-24T07:48:23Z</time>
      </trkpt>
      <trkpt lat="45.76003" lon="6.55587">
        <ele>1789</ele>
        <time>2022-07-24T07:48:24Z</time>
      </trkpt>
      <trkpt lat="45.76004" lon="6.55588">
        <ele>1789</ele>
        <time>2022-07-24T07:48:25Z</time>
      </trkpt>
      <trkpt lat="45.76004" lon="6.5559">
        <ele>1789</ele>
        <time>2022-07-24T07:48:26Z</time>
      </trkpt>
      <trkpt lat="45.76005" lon="6.55592">
        <ele>1789</ele>
        <time>2022-07-24T07:48:27Z</time>
      </trkpt>
      <trkpt lat="45.76005" lon="6.55593">
        <ele>1789</ele>
        <time>2022-07-24T07:48:28Z</time>
      </trkpt>
      <trkpt lat="45.76005" lon="6.55595">
        <ele>1789</ele>
        <time>2022-07-24T07:48:29Z</time>
      </trkpt>
      <trkpt lat="45.76006" lon="6.55596">
        <ele>1789</ele>
        <time>2022-07-24T07:48:30Z</time>
      </trkpt>
      <trkpt lat="45.76006" lon="6.55598">
        <ele>1789</ele>
        <time>2022-07-24T07:48:31Z</time>
      </trkpt>
      <trkpt lat="45.76006" lon="6.55599">
        <ele>1789</ele>
        <time>2022-07-24T07:48:32Z</time>
      </trkpt>
      <trkpt lat="45.76006" lon="6.55601">
        <ele>1789</ele>
        <time>2022-07-24T07:48:33Z</time>
      </trkpt>
      <trkpt lat="45.76006" lon="6.55602">
        <ele>1789</ele>
        <time>2022-07-24T07:48:34Z</time>
      </trkpt>
      <trkpt lat="45.76006" lon="6.55603">
        <ele>1789</ele>
        <time>2022-07-24T07:48:35Z</time>
      </trkpt>
      <trkpt lat="45.76007" lon="6.55604">
        <ele>1789</ele>
        <time>2022-07-24T07:48:36Z</time>
      </trkpt>
      <trkpt lat="45.76007" lon="6.55605">
        <ele>1789</ele>
        <time>2022-07-24T07:48:37Z</time>
      </trkpt>
      <trkpt lat="45.76007" lon="6.55606">
        <ele>1789</ele>
        <time>2022-07-24T07:48:38Z</time>
      </trkpt>
      <trkpt lat="45.76008" lon="6.55607">
        <ele>1789</ele>
        <time>2022-07-24T07:48:39Z</time>
      </trkpt>
      <trkpt lat="45.76008" lon="6.55608">
        <ele>1789</ele>
        <time>2022-07-24T07:48:40Z</time>
      </trkpt>
      <trkpt lat="45.76008" lon="6.5561">
        <ele>1789</ele>
        <time>2022-07-24T07:48:41Z</time>
      </trkpt>
      <trkpt lat="45.76009" lon="6.55612">
        <ele>1789</ele>
        <time>2022-07-24T07:48:42Z</time>
      </trkpt>
      <trkpt lat="45.76009" lon="6.55614">
        <ele>1789</ele>
        <time>2022-07-24T07:48:43Z</time>
      </trkpt>
      <trkpt lat="45.76009" lon="6.55615">
        <ele>1789</ele>
        <time>2022-07-24T07:48:44Z</time>
      </trkpt>
      <trkpt lat="45.76009" lon="6.55617">
        <ele>1789</ele>
        <time>2022-07-24T07:48:45Z</time>
      </trkpt>
      <trkpt lat="45.76009" lon="6.55619">
        <ele>1789</ele>
        <time>2022-07-24T07:48:46Z</time>
      </trkpt>
      <trkpt lat="45.76009" lon="6.55621">
        <ele>1789</ele>
        <time>2022-07-24T07:48:47Z</time>
      </trkpt>
      <trkpt lat="45.76009" lon="6.55623">
        <ele>1789</ele>
        <time>2022-07-24T07:48:48Z</time>
      </trkpt>
      <trkpt lat="45.76009" lon="6.55625">
        <ele>1789</ele>
        <time>2022-07-24T07:48:49Z</time>
      </trkpt>
      <trkpt lat="45.76009" lon="6.55627">
        <ele>1789</ele>
        <time>2022-07-24T07:48:50Z</time>
      </trkpt>
      <trkpt lat="45.76009" lon="6.55629">
        <ele>1789</ele>
        <time>2022-07-24T07:48:51Z</time>
      </trkpt>
      <trkpt lat="45.76009" lon="6.55631">
        <ele>1789</ele>
        <time>2022-07-24T07:48:52Z</time>
      </trkpt>
      <trkpt lat="45.76009" lon="6.55633">
        <ele>1789</ele>
        <time>2022-07-24T07:48:53Z</time>
      </trkpt>
      <trkpt lat="45.76009" lon="6.55634">
        <ele>1789</ele>
        <time>2022-07-24T07:48:54Z</time>
      </trkpt>
      <trkpt lat="45.76009" lon="6.55636">
        <ele>1789</ele>
        <time>2022-07-24T07:48:55Z</time>
      </trkpt>
      <trkpt lat="45.76009" lon="6.55638">
        <ele>1789</ele>
        <time>2022-07-24T07:48:56Z</time>
      </trkpt>
      <trkpt lat="45.76009" lon="6.55639">
        <ele>1789</ele>
        <time>2022-07-24T07:48:57Z</time>
      </trkpt>
      <trkpt lat="45.76009" lon="6.55641">
        <ele>1789</ele>
        <time>2022-07-24T07:48:58Z</time>
      </trkpt>
      <trkpt lat="45.76009" lon="6.55643">
        <ele>1789</ele>
        <time>2022-07-24T07:48:59Z</time>
      </trkpt>
      <trkpt lat="45.76009" lon="6.55645">
        <ele>1789</ele>
        <time>2022-07-24T07:49:00Z</time>
      </trkpt>
      <trkpt lat="45.76009" lon="6.55646">
        <ele>1789</ele>
        <time>2022-07-24T07:49:01Z</time>
      </trkpt>
      <trkpt lat="45.76009" lon="6.55648">
        <ele>1789</ele>
        <time>2022-07-24T07:49:02Z</time>
      </trkpt>
      <trkpt lat="45.7601" lon="6.55649">
        <ele>1789</ele>
        <time>2022-07-24T07:49:03Z</time>
      </trkpt>
      <trkpt lat="45.7601" lon="6.55651">
        <ele>1789</ele>
        <time>2022-07-24T07:49:04Z</time>
      </trkpt>
      <trkpt lat="45.7601" lon="6.55653">
        <ele>1789</ele>
        <time>2022-07-24T07:49:05Z</time>
      </trkpt>
      <trkpt lat="45.7601" lon="6.55654">
        <ele>1789</ele>
        <time>2022-07-24T07:49:06Z</time>
      </trkpt>
      <trkpt lat="45.7601" lon="6.55656">
        <ele>1789</ele>
        <time>2022-07-24T07:49:07Z</time>
      </trkpt>
      <trkpt lat="45.7601" lon="6.55658">
        <ele>1789</ele>
        <time>2022-07-24T07:49:08Z</time>
      </trkpt>
      <trkpt lat="45.7601" lon="6.55659">
        <ele>1789</ele>
        <time>2022-07-24T07:49:09Z</time>
      </trkpt>
      <trkpt lat="45.7601" lon="6.55661">
        <ele>1789</ele>
        <time>2022-07-24T07:49:10Z</time>
      </trkpt>
      <trkpt lat="45.7601" lon="6.55663">
        <ele>1789</ele>
        <time>2022-07-24T07:49:11Z</time>
      </trkpt>
      <trkpt lat="45.7601" lon="6.55664">
        <ele>1789</ele>
        <time>2022-07-24T07:49:12Z</time>
      </trkpt>
      <trkpt lat="45.7601" lon="6.55666">
        <ele>1789</ele>
        <time>2022-07-24T07:49:13Z</time>
      </trkpt>
      <trkpt lat="45.7601" lon="6.55668">
        <ele>1789</ele>
        <time>2022-07-24T07:49:14Z</time>
      </trkpt>
      <trkpt lat="45.76011" lon="6.55669">
        <ele>1789</ele>
        <time>2022-07-24T07:49:15Z</time>
      </trkpt>
      <trkpt lat="45.76011" lon="6.55671">
        <ele>1789</ele>
        <time>2022-07-24T07:49:16Z</time>
      </trkpt>
      <trkpt lat="45.76011" lon="6.55672">
        <ele>1789</ele>
        <time>2022-07-24T07:49:17Z</time>
      </trkpt>
      <trkpt lat="45.76011" lon="6.55674">
        <ele>1789</ele>
        <time>2022-07-24T07:49:18Z</time>
      </trkpt>
      <trkpt lat="45.76011" lon="6.55676">
        <ele>1789</ele>
        <time>2022-07-24T07:49:19Z</time>
      </trkpt>
      <trkpt lat="45.76011" lon="6.55677">
        <ele>1789</ele>
        <time>2022-07-24T07:49:20Z</time>
      </trkpt>
      <trkpt lat="45.76011" lon="6.55679">
        <ele>1789</ele>
        <time>2022-07-24T07:49:21Z</time>
      </trkpt>
      <trkpt lat="45.76011" lon="6.55681">
        <ele>1789</ele>
        <time>2022-07-24T07:49:22Z</time>
      </trkpt>
      <trkpt lat="45.76011" lon="6.55682">
        <ele>1789</ele>
        <time>2022-07-24T07:49:23Z</time>
      </trkpt>
      <trkpt lat="45.7601" lon="6.55684">
        <ele>1789</ele>
        <time>2022-07-24T07:49:24Z</time>
      </trkpt>
      <trkpt lat="45.7601" lon="6.55686">
        <ele>1789</ele>
        <time>2022-07-24T07:49:25Z</time>
      </trkpt>
      <trkpt lat="45.7601" lon="6.55687">
        <ele>1790</ele>
        <time>2022-07-24T07:49:26Z</time>
      </trkpt>
      <trkpt lat="45.7601" lon="6.55689">
        <ele>1790</ele>
        <time>2022-07-24T07:49:27Z</time>
      </trkpt>
      <trkpt lat="45.7601" lon="6.55691">
        <ele>1790</ele>
        <time>2022-07-24T07:49:28Z</time>
      </trkpt>
      <trkpt lat="45.7601" lon="6.55693">
        <ele>1790</ele>
        <time>2022-07-24T07:49:29Z</time>
      </trkpt>
      <trkpt lat="45.7601" lon="6.55694">
        <ele>1790</ele>
        <time>2022-07-24T07:49:30Z</time>
      </trkpt>
      <trkpt lat="45.76009" lon="6.55696">
        <ele>1790</ele>
        <time>2022-07-24T07:49:31Z</time>
      </trkpt>
      <trkpt lat="45.76009" lon="6.55698">
        <ele>1789</ele>
        <time>2022-07-24T07:49:32Z</time>
      </trkpt>
      <trkpt lat="45.76009" lon="6.557">
        <ele>1789</ele>
        <time>2022-07-24T07:49:33Z</time>
      </trkpt>
      <trkpt lat="45.76009" lon="6.55701">
        <ele>1789</ele>
        <time>2022-07-24T07:49:34Z</time>
      </trkpt>
      <trkpt lat="45.76009" lon="6.55703">
        <ele>1789</ele>
        <time>2022-07-24T07:49:35Z</time>
      </trkpt>
      <trkpt lat="45.76008" lon="6.55705">
        <ele>1789</ele>
        <time>2022-07-24T07:49:36Z</time>
      </trkpt>
      <trkpt lat="45.76008" lon="6.55707">
        <ele>1789</ele>
        <time>2022-07-24T07:49:37Z</time>
      </trkpt>
      <trkpt lat="45.76007" lon="6.55708">
        <ele>1789</ele>
        <time>2022-07-24T07:49:38Z</time>
      </trkpt>
      <trkpt lat="45.76006" lon="6.5571">
        <ele>1789</ele>
        <time>2022-07-24T07:49:39Z</time>
      </trkpt>
      <trkpt lat="45.76006" lon="6.55712">
        <ele>1789</ele>
        <time>2022-07-24T07:49:40Z</time>
      </trkpt>
      <trkpt lat="45.76005" lon="6.55713">
        <ele>1789</ele>
        <time>2022-07-24T07:49:41Z</time>
      </trkpt>
      <trkpt lat="45.76004" lon="6.55715">
        <ele>1789</ele>
        <time>2022-07-24T07:49:42Z</time>
      </trkpt>
      <trkpt lat="45.76004" lon="6.55717">
        <ele>1789</ele>
        <time>2022-07-24T07:49:43Z</time>
      </trkpt>
      <trkpt lat="45.76003" lon="6.55718">
        <ele>1789</ele>
        <time>2022-07-24T07:49:44Z</time>
      </trkpt>
      <trkpt lat="45.76002" lon="6.55719">
        <ele>1789</ele>
        <time>2022-07-24T07:49:45Z</time>
      </trkpt>
      <trkpt lat="45.76001" lon="6.55721">
        <ele>1790</ele>
        <time>2022-07-24T07:49:46Z</time>
      </trkpt>
      <trkpt lat="45.76001" lon="6.55722">
        <ele>1789</ele>
        <time>2022-07-24T07:49:47Z</time>
      </trkpt>
      <trkpt lat="45.76" lon="6.55723">
        <ele>1789</ele>
        <time>2022-07-24T07:49:48Z</time>
      </trkpt>
      <trkpt lat="45.75999" lon="6.55724">
        <ele>1789</ele>
        <time>2022-07-24T07:49:49Z</time>
      </trkpt>
      <trkpt lat="45.75998" lon="6.55725">
        <ele>1789</ele>
        <time>2022-07-24T07:49:50Z</time>
      </trkpt>
      <trkpt lat="45.75998" lon="6.55726">
        <ele>1789</ele>
        <time>2022-07-24T07:49:51Z</time>
      </trkpt>
      <trkpt lat="45.75997" lon="6.55727">
        <ele>1789</ele>
        <time>2022-07-24T07:49:52Z</time>
      </trkpt>
      <trkpt lat="45.75996" lon="6.55728">
        <ele>1789</ele>
        <time>2022-07-24T07:49:53Z</time>
      </trkpt>
      <trkpt lat="45.75995" lon="6.55729">
        <ele>1789</ele>
        <time>2022-07-24T07:49:54Z</time>
      </trkpt>
      <trkpt lat="45.75994" lon="6.5573">
        <ele>1789</ele>
        <time>2022-07-24T07:49:55Z</time>
      </trkpt>
      <trkpt lat="45.75993" lon="6.55732">
        <ele>1789</ele>
        <time>2022-07-24T07:49:56Z</time>
      </trkpt>
      <trkpt lat="45.75993" lon="6.55733">
        <ele>1789</ele>
        <time>2022-07-24T07:49:57Z</time>
      </trkpt>
      <trkpt lat="45.75992" lon="6.55734">
        <ele>1789</ele>
        <time>2022-07-24T07:49:58Z</time>
      </trkpt>
      <trkpt lat="45.75991" lon="6.55735">
        <ele>1789</ele>
        <time>2022-07-24T07:49:59Z</time>
      </trkpt>
      <trkpt lat="45.7599" lon="6.55736">
        <ele>1789</ele>
        <time>2022-07-24T07:50:00Z</time>
      </trkpt>
      <trkpt lat="45.75989" lon="6.55737">
        <ele>1789</ele>
        <time>2022-07-24T07:50:01Z</time>
      </trkpt>
      <trkpt lat="45.75988" lon="6.55738">
        <ele>1789</ele>
        <time>2022-07-24T07:50:02Z</time>
      </trkpt>
      <trkpt lat="45.75987" lon="6.55739">
        <ele>1789</ele>
        <time>2022-07-24T07:50:03Z</time>
      </trkpt>
      <trkpt lat="45.75987" lon="6.5574">
        <ele>1789</ele>
        <time>2022-07-24T07:50:04Z</time>
      </trkpt>
      <trkpt lat="45.75986" lon="6.55741">
        <ele>1789</ele>
        <time>2022-07-24T07:50:05Z</time>
      </trkpt>
      <trkpt lat="45.75985" lon="6.55742">
        <ele>1790</ele>
        <time>2022-07-24T07:50:06Z</time>
      </trkpt>
      <trkpt lat="45.75984" lon="6.55743">
        <ele>1790</ele>
        <time>2022-07-24T07:50:07Z</time>
      </trkpt>
      <trkpt lat="45.75983" lon="6.55745">
        <ele>1790</ele>
        <time>2022-07-24T07:50:08Z</time>
      </trkpt>
      <trkpt lat="45.75982" lon="6.55746">
        <ele>1790</ele>
        <time>2022-07-24T07:50:09Z</time>
      </trkpt>
      <trkpt lat="45.75981" lon="6.55747">
        <ele>1790</ele>
        <time>2022-07-24T07:50:10Z</time>
      </trkpt>
      <trkpt lat="45.75981" lon="6.55748">
        <ele>1790</ele>
        <time>2022-07-24T07:50:11Z</time>
      </trkpt>
      <trkpt lat="45.7598" lon="6.55749">
        <ele>1790</ele>
        <time>2022-07-24T07:50:12Z</time>
      </trkpt>
      <trkpt lat="45.75979" lon="6.5575">
        <ele>1790</ele>
        <time>2022-07-24T07:50:13Z</time>
      </trkpt>
      <trkpt lat="45.75978" lon="6.55751">
        <ele>1790</ele>
        <time>2022-07-24T07:50:14Z</time>
      </trkpt>
      <trkpt lat="45.75977" lon="6.55752">
        <ele>1790</ele>
        <time>2022-07-24T07:50:15Z</time>
      </trkpt>
      <trkpt lat="45.75977" lon="6.55753">
        <ele>1790</ele>
        <time>2022-07-24T07:50:16Z</time>
      </trkpt>
      <trkpt lat="45.75976" lon="6.55754">
        <ele>1790</ele>
        <time>2022-07-24T07:50:17Z</time>
      </trkpt>
      <trkpt lat="45.75975" lon="6.55755">
        <ele>1790</ele>
        <time>2022-07-24T07:50:18Z</time>
      </trkpt>
      <trkpt lat="45.75975" lon="6.55756">
        <ele>1790</ele>
        <time>2022-07-24T07:50:19Z</time>
      </trkpt>
      <trkpt lat="45.75974" lon="6.55757">
        <ele>1790</ele>
        <time>2022-07-24T07:50:20Z</time>
      </trkpt>
      <trkpt lat="45.75973" lon="6.55758">
        <ele>1790</ele>
        <time>2022-07-24T07:50:21Z</time>
      </trkpt>
      <trkpt lat="45.75973" lon="6.55759">
        <ele>1790</ele>
        <time>2022-07-24T07:50:22Z</time>
      </trkpt>
      <trkpt lat="45.75972" lon="6.55761">
        <ele>1790</ele>
        <time>2022-07-24T07:50:23Z</time>
      </trkpt>
      <trkpt lat="45.75971" lon="6.55762">
        <ele>1790</ele>
        <time>2022-07-24T07:50:24Z</time>
      </trkpt>
      <trkpt lat="45.7597" lon="6.55763">
        <ele>1790</ele>
        <time>2022-07-24T07:50:25Z</time>
      </trkpt>
      <trkpt lat="45.7597" lon="6.55764">
        <ele>1790</ele>
        <time>2022-07-24T07:50:26Z</time>
      </trkpt>
      <trkpt lat="45.75969" lon="6.55766">
        <ele>1790</ele>
        <time>2022-07-24T07:50:27Z</time>
      </trkpt>
      <trkpt lat="45.75968" lon="6.55767">
        <ele>1790</ele>
        <time>2022-07-24T07:50:28Z</time>
      </trkpt>
      <trkpt lat="45.75967" lon="6.55768">
        <ele>1790</ele>
        <time>2022-07-24T07:50:29Z</time>
      </trkpt>
      <trkpt lat="45.75967" lon="6.55769">
        <ele>1790</ele>
        <time>2022-07-24T07:50:30Z</time>
      </trkpt>
      <trkpt lat="45.75966" lon="6.5577">
        <ele>1790</ele>
        <time>2022-07-24T07:50:31Z</time>
      </trkpt>
      <trkpt lat="45.75965" lon="6.55772">
        <ele>1790</ele>
        <time>2022-07-24T07:50:32Z</time>
      </trkpt>
      <trkpt lat="45.75964" lon="6.55773">
        <ele>1790</ele>
        <time>2022-07-24T07:50:33Z</time>
      </trkpt>
      <trkpt lat="45.75964" lon="6.55774">
        <ele>1790</ele>
        <time>2022-07-24T07:50:34Z</time>
      </trkpt>
      <trkpt lat="45.75963" lon="6.55775">
        <ele>1790</ele>
        <time>2022-07-24T07:50:35Z</time>
      </trkpt>
      <trkpt lat="45.75962" lon="6.55777">
        <ele>1790</ele>
        <time>2022-07-24T07:50:36Z</time>
      </trkpt>
      <trkpt lat="45.75961" lon="6.55778">
        <ele>1790</ele>
        <time>2022-07-24T07:50:37Z</time>
      </trkpt>
      <trkpt lat="45.75961" lon="6.55779">
        <ele>1790</ele>
        <time>2022-07-24T07:50:38Z</time>
      </trkpt>
      <trkpt lat="45.7596" lon="6.55781">
        <ele>1790</ele>
        <time>2022-07-24T07:50:39Z</time>
      </trkpt>
      <trkpt lat="45.75959" lon="6.55782">
        <ele>1790</ele>
        <time>2022-07-24T07:50:40Z</time>
      </trkpt>
      <trkpt lat="45.75958" lon="6.55784">
        <ele>1790</ele>
        <time>2022-07-24T07:50:41Z</time>
      </trkpt>
      <trkpt lat="45.75958" lon="6.55785">
        <ele>1790</ele>
        <time>2022-07-24T07:50:42Z</time>
      </trkpt>
      <trkpt lat="45.75957" lon="6.55787">
        <ele>1790</ele>
        <time>2022-07-24T07:50:43Z</time>
      </trkpt>
      <trkpt lat="45.75956" lon="6.55788">
        <ele>1790</ele>
        <time>2022-07-24T07:50:44Z</time>
      </trkpt>
      <trkpt lat="45.75956" lon="6.5579">
        <ele>1790</ele>
        <time>2022-07-24T07:50:45Z</time>
      </trkpt>
      <trkpt lat="45.75955" lon="6.55791">
        <ele>1790</ele>
        <time>2022-07-24T07:50:46Z</time>
      </trkpt>
      <trkpt lat="45.75954" lon="6.55792">
        <ele>1790</ele>
        <time>2022-07-24T07:50:47Z</time>
      </trkpt>
      <trkpt lat="45.75954" lon="6.55793">
        <ele>1790</ele>
        <time>2022-07-24T07:50:48Z</time>
      </trkpt>
      <trkpt lat="45.75953" lon="6.55795">
        <ele>1790</ele>
        <time>2022-07-24T07:50:49Z</time>
      </trkpt>
      <trkpt lat="45.75952" lon="6.55796">
        <ele>1790</ele>
        <time>2022-07-24T07:50:50Z</time>
      </trkpt>
      <trkpt lat="45.75952" lon="6.55797">
        <ele>1790</ele>
        <time>2022-07-24T07:50:51Z</time>
      </trkpt>
      <trkpt lat="45.75951" lon="6.55798">
        <ele>1790</ele>
        <time>2022-07-24T07:50:52Z</time>
      </trkpt>
      <trkpt lat="45.7595" lon="6.558">
        <ele>1790</ele>
        <time>2022-07-24T07:50:53Z</time>
      </trkpt>
      <trkpt lat="45.75949" lon="6.55801">
        <ele>1790</ele>
        <time>2022-07-24T07:50:54Z</time>
      </trkpt>
      <trkpt lat="45.75949" lon="6.55802">
        <ele>1790</ele>
        <time>2022-07-24T07:50:55Z</time>
      </trkpt>
      <trkpt lat="45.75948" lon="6.55804">
        <ele>1790</ele>
        <time>2022-07-24T07:50:56Z</time>
      </trkpt>
      <trkpt lat="45.75948" lon="6.55805">
        <ele>1790</ele>
        <time>2022-07-24T07:50:57Z</time>
      </trkpt>
      <trkpt lat="45.75947" lon="6.55807">
        <ele>1790</ele>
        <time>2022-07-24T07:50:58Z</time>
      </trkpt>
      <trkpt lat="45.75946" lon="6.55808">
        <ele>1790</ele>
        <time>2022-07-24T07:50:59Z</time>
      </trkpt>
      <trkpt lat="45.75945" lon="6.5581">
        <ele>1790</ele>
        <time>2022-07-24T07:51:00Z</time>
      </trkpt>
      <trkpt lat="45.75945" lon="6.55811">
        <ele>1790</ele>
        <time>2022-07-24T07:51:01Z</time>
      </trkpt>
      <trkpt lat="45.75944" lon="6.55813">
        <ele>1790</ele>
        <time>2022-07-24T07:51:02Z</time>
      </trkpt>
      <trkpt lat="45.75943" lon="6.55814">
        <ele>1790</ele>
        <time>2022-07-24T07:51:03Z</time>
      </trkpt>
      <trkpt lat="45.75943" lon="6.55815">
        <ele>1790</ele>
        <time>2022-07-24T07:51:04Z</time>
      </trkpt>
      <trkpt lat="45.75942" lon="6.55817">
        <ele>1790</ele>
        <time>2022-07-24T07:51:05Z</time>
      </trkpt>
      <trkpt lat="45.75941" lon="6.55818">
        <ele>1790</ele>
        <time>2022-07-24T07:51:06Z</time>
      </trkpt>
      <trkpt lat="45.75941" lon="6.5582">
        <ele>1790</ele>
        <time>2022-07-24T07:51:07Z</time>
      </trkpt>
      <trkpt lat="45.7594" lon="6.55822">
        <ele>1790</ele>
        <time>2022-07-24T07:51:08Z</time>
      </trkpt>
      <trkpt lat="45.75939" lon="6.55823">
        <ele>1790</ele>
        <time>2022-07-24T07:51:09Z</time>
      </trkpt>
      <trkpt lat="45.75938" lon="6.55824">
        <ele>1790</ele>
        <time>2022-07-24T07:51:10Z</time>
      </trkpt>
      <trkpt lat="45.75938" lon="6.55826">
        <ele>1790</ele>
        <time>2022-07-24T07:51:11Z</time>
      </trkpt>
      <trkpt lat="45.75937" lon="6.55827">
        <ele>1789</ele>
        <time>2022-07-24T07:51:12Z</time>
      </trkpt>
      <trkpt lat="45.75936" lon="6.55829">
        <ele>1789</ele>
        <time>2022-07-24T07:51:13Z</time>
      </trkpt>
      <trkpt lat="45.75935" lon="6.5583">
        <ele>1789</ele>
        <time>2022-07-24T07:51:14Z</time>
      </trkpt>
      <trkpt lat="45.75935" lon="6.55832">
        <ele>1789</ele>
        <time>2022-07-24T07:51:15Z</time>
      </trkpt>
      <trkpt lat="45.75934" lon="6.55834">
        <ele>1789</ele>
        <time>2022-07-24T07:51:16Z</time>
      </trkpt>
      <trkpt lat="45.75933" lon="6.55835">
        <ele>1789</ele>
        <time>2022-07-24T07:51:17Z</time>
      </trkpt>
      <trkpt lat="45.75933" lon="6.55837">
        <ele>1789</ele>
        <time>2022-07-24T07:51:18Z</time>
      </trkpt>
      <trkpt lat="45.75932" lon="6.55838">
        <ele>1789</ele>
        <time>2022-07-24T07:51:19Z</time>
      </trkpt>
      <trkpt lat="45.75932" lon="6.5584">
        <ele>1789</ele>
        <time>2022-07-24T07:51:20Z</time>
      </trkpt>
      <trkpt lat="45.75931" lon="6.55841">
        <ele>1789</ele>
        <time>2022-07-24T07:51:21Z</time>
      </trkpt>
      <trkpt lat="45.75931" lon="6.55843">
        <ele>1789</ele>
        <time>2022-07-24T07:51:22Z</time>
      </trkpt>
      <trkpt lat="45.7593" lon="6.55845">
        <ele>1789</ele>
        <time>2022-07-24T07:51:23Z</time>
      </trkpt>
      <trkpt lat="45.75929" lon="6.55846">
        <ele>1789</ele>
        <time>2022-07-24T07:51:24Z</time>
      </trkpt>
      <trkpt lat="45.75929" lon="6.55848">
        <ele>1789</ele>
        <time>2022-07-24T07:51:25Z</time>
      </trkpt>
      <trkpt lat="45.75928" lon="6.55849">
        <ele>1789</ele>
        <time>2022-07-24T07:51:26Z</time>
      </trkpt>
      <trkpt lat="45.75927" lon="6.55851">
        <ele>1789</ele>
        <time>2022-07-24T07:51:27Z</time>
      </trkpt>
      <trkpt lat="45.75927" lon="6.55852">
        <ele>1789</ele>
        <time>2022-07-24T07:51:28Z</time>
      </trkpt>
      <trkpt lat="45.75926" lon="6.55854">
        <ele>1789</ele>
        <time>2022-07-24T07:51:29Z</time>
      </trkpt>
      <trkpt lat="45.75925" lon="6.55855">
        <ele>1789</ele>
        <time>2022-07-24T07:51:30Z</time>
      </trkpt>
      <trkpt lat="45.75925" lon="6.55857">
        <ele>1789</ele>
        <time>2022-07-24T07:51:31Z</time>
      </trkpt>
      <trkpt lat="45.75924" lon="6.55859">
        <ele>1789</ele>
        <time>2022-07-24T07:51:32Z</time>
      </trkpt>
      <trkpt lat="45.75923" lon="6.5586">
        <ele>1789</ele>
        <time>2022-07-24T07:51:33Z</time>
      </trkpt>
      <trkpt lat="45.75923" lon="6.55862">
        <ele>1789</ele>
        <time>2022-07-24T07:51:34Z</time>
      </trkpt>
      <trkpt lat="45.75922" lon="6.55864">
        <ele>1789</ele>
        <time>2022-07-24T07:51:35Z</time>
      </trkpt>
      <trkpt lat="45.75922" lon="6.55865">
        <ele>1789</ele>
        <time>2022-07-24T07:51:36Z</time>
      </trkpt>
      <trkpt lat="45.75922" lon="6.55867">
        <ele>1789</ele>
        <time>2022-07-24T07:51:37Z</time>
      </trkpt>
      <trkpt lat="45.75921" lon="6.55868">
        <ele>1789</ele>
        <time>2022-07-24T07:51:38Z</time>
      </trkpt>
      <trkpt lat="45.75921" lon="6.5587">
        <ele>1789</ele>
        <time>2022-07-24T07:51:39Z</time>
      </trkpt>
      <trkpt lat="45.75921" lon="6.55872">
        <ele>1789</ele>
        <time>2022-07-24T07:51:40Z</time>
      </trkpt>
      <trkpt lat="45.7592" lon="6.55874">
        <ele>1789</ele>
        <time>2022-07-24T07:51:41Z</time>
      </trkpt>
      <trkpt lat="45.7592" lon="6.55875">
        <ele>1788</ele>
        <time>2022-07-24T07:51:42Z</time>
      </trkpt>
      <trkpt lat="45.7592" lon="6.55877">
        <ele>1788</ele>
        <time>2022-07-24T07:51:43Z</time>
      </trkpt>
      <trkpt lat="45.75919" lon="6.55879">
        <ele>1788</ele>
        <time>2022-07-24T07:51:44Z</time>
      </trkpt>
      <trkpt lat="45.75919" lon="6.55881">
        <ele>1788</ele>
        <time>2022-07-24T07:51:45Z</time>
      </trkpt>
      <trkpt lat="45.75919" lon="6.55883">
        <ele>1788</ele>
        <time>2022-07-24T07:51:46Z</time>
      </trkpt>
      <trkpt lat="45.75918" lon="6.55884">
        <ele>1788</ele>
        <time>2022-07-24T07:51:47Z</time>
      </trkpt>
      <trkpt lat="45.75918" lon="6.55886">
        <ele>1788</ele>
        <time>2022-07-24T07:51:48Z</time>
      </trkpt>
      <trkpt lat="45.75917" lon="6.55888">
        <ele>1788</ele>
        <time>2022-07-24T07:51:49Z</time>
      </trkpt>
      <trkpt lat="45.75917" lon="6.5589">
        <ele>1788</ele>
        <time>2022-07-24T07:51:50Z</time>
      </trkpt>
      <trkpt lat="45.75917" lon="6.55891">
        <ele>1788</ele>
        <time>2022-07-24T07:51:51Z</time>
      </trkpt>
      <trkpt lat="45.75916" lon="6.55893">
        <ele>1788</ele>
        <time>2022-07-24T07:51:52Z</time>
      </trkpt>
      <trkpt lat="45.75916" lon="6.55894">
        <ele>1788</ele>
        <time>2022-07-24T07:51:53Z</time>
      </trkpt>
      <trkpt lat="45.75916" lon="6.55896">
        <ele>1788</ele>
        <time>2022-07-24T07:51:54Z</time>
      </trkpt>
      <trkpt lat="45.75915" lon="6.55897">
        <ele>1788</ele>
        <time>2022-07-24T07:51:55Z</time>
      </trkpt>
      <trkpt lat="45.75915" lon="6.55899">
        <ele>1788</ele>
        <time>2022-07-24T07:51:56Z</time>
      </trkpt>
      <trkpt lat="45.75914" lon="6.559">
        <ele>1788</ele>
        <time>2022-07-24T07:51:57Z</time>
      </trkpt>
      <trkpt lat="45.75914" lon="6.55902">
        <ele>1788</ele>
        <time>2022-07-24T07:51:58Z</time>
      </trkpt>
      <trkpt lat="45.75914" lon="6.55904">
        <ele>1788</ele>
        <time>2022-07-24T07:51:59Z</time>
      </trkpt>
      <trkpt lat="45.75913" lon="6.55905">
        <ele>1788</ele>
        <time>2022-07-24T07:52:00Z</time>
      </trkpt>
      <trkpt lat="45.75913" lon="6.55907">
        <ele>1788</ele>
        <time>2022-07-24T07:52:01Z</time>
      </trkpt>
      <trkpt lat="45.75912" lon="6.55909">
        <ele>1788</ele>
        <time>2022-07-24T07:52:02Z</time>
      </trkpt>
      <trkpt lat="45.75912" lon="6.5591">
        <ele>1788</ele>
        <time>2022-07-24T07:52:03Z</time>
      </trkpt>
      <trkpt lat="45.75912" lon="6.55912">
        <ele>1788</ele>
        <time>2022-07-24T07:52:04Z</time>
      </trkpt>
      <trkpt lat="45.75911" lon="6.55914">
        <ele>1788</ele>
        <time>2022-07-24T07:52:05Z</time>
      </trkpt>
      <trkpt lat="45.75911" lon="6.55915">
        <ele>1788</ele>
        <time>2022-07-24T07:52:06Z</time>
      </trkpt>
      <trkpt lat="45.75911" lon="6.55917">
        <ele>1788</ele>
        <time>2022-07-24T07:52:07Z</time>
      </trkpt>
      <trkpt lat="45.7591" lon="6.55919">
        <ele>1788</ele>
        <time>2022-07-24T07:52:08Z</time>
      </trkpt>
      <trkpt lat="45.7591" lon="6.55921">
        <ele>1788</ele>
        <time>2022-07-24T07:52:09Z</time>
      </trkpt>
      <trkpt lat="45.7591" lon="6.55922">
        <ele>1788</ele>
        <time>2022-07-24T07:52:10Z</time>
      </trkpt>
      <trkpt lat="45.75909" lon="6.55924">
        <ele>1788</ele>
        <time>2022-07-24T07:52:11Z</time>
      </trkpt>
      <trkpt lat="45.75909" lon="6.55926">
        <ele>1788</ele>
        <time>2022-07-24T07:52:12Z</time>
      </trkpt>
      <trkpt lat="45.75909" lon="6.55928">
        <ele>1788</ele>
        <time>2022-07-24T07:52:13Z</time>
      </trkpt>
      <trkpt lat="45.75909" lon="6.55929">
        <ele>1788</ele>
        <time>2022-07-24T07:52:14Z</time>
      </trkpt>
      <trkpt lat="45.75909" lon="6.55931">
        <ele>1788</ele>
        <time>2022-07-24T07:52:15Z</time>
      </trkpt>
      <trkpt lat="45.75909" lon="6.55933">
        <ele>1788</ele>
        <time>2022-07-24T07:52:16Z</time>
      </trkpt>
      <trkpt lat="45.75909" lon="6.55934">
        <ele>1787</ele>
        <time>2022-07-24T07:52:17Z</time>
      </trkpt>
      <trkpt lat="45.75909" lon="6.55936">
        <ele>1787</ele>
        <time>2022-07-24T07:52:18Z</time>
      </trkpt>
      <trkpt lat="45.75909" lon="6.55937">
        <ele>1786</ele>
        <time>2022-07-24T07:52:19Z</time>
      </trkpt>
      <trkpt lat="45.75909" lon="6.55939">
        <ele>1786</ele>
        <time>2022-07-24T07:52:20Z</time>
      </trkpt>
      <trkpt lat="45.75909" lon="6.55941">
        <ele>1786</ele>
        <time>2022-07-24T07:52:21Z</time>
      </trkpt>
      <trkpt lat="45.75909" lon="6.55943">
        <ele>1786</ele>
        <time>2022-07-24T07:52:22Z</time>
      </trkpt>
      <trkpt lat="45.75909" lon="6.55944">
        <ele>1786</ele>
        <time>2022-07-24T07:52:23Z</time>
      </trkpt>
      <trkpt lat="45.75909" lon="6.55946">
        <ele>1786</ele>
        <time>2022-07-24T07:52:24Z</time>
      </trkpt>
      <trkpt lat="45.75909" lon="6.55948">
        <ele>1786</ele>
        <time>2022-07-24T07:52:25Z</time>
      </trkpt>
      <trkpt lat="45.75909" lon="6.5595">
        <ele>1786</ele>
        <time>2022-07-24T07:52:26Z</time>
      </trkpt>
      <trkpt lat="45.7591" lon="6.55952">
        <ele>1786</ele>
        <time>2022-07-24T07:52:27Z</time>
      </trkpt>
      <trkpt lat="45.7591" lon="6.55954">
        <ele>1786</ele>
        <time>2022-07-24T07:52:28Z</time>
      </trkpt>
      <trkpt lat="45.7591" lon="6.55955">
        <ele>1786</ele>
        <time>2022-07-24T07:52:29Z</time>
      </trkpt>
      <trkpt lat="45.7591" lon="6.55957">
        <ele>1786</ele>
        <time>2022-07-24T07:52:30Z</time>
      </trkpt>
      <trkpt lat="45.7591" lon="6.55959">
        <ele>1786</ele>
        <time>2022-07-24T07:52:31Z</time>
      </trkpt>
      <trkpt lat="45.7591" lon="6.55961">
        <ele>1786</ele>
        <time>2022-07-24T07:52:32Z</time>
      </trkpt>
      <trkpt lat="45.75911" lon="6.55962">
        <ele>1786</ele>
        <time>2022-07-24T07:52:33Z</time>
      </trkpt>
      <trkpt lat="45.75911" lon="6.55964">
        <ele>1786</ele>
        <time>2022-07-24T07:52:34Z</time>
      </trkpt>
      <trkpt lat="45.75911" lon="6.55966">
        <ele>1786</ele>
        <time>2022-07-24T07:52:35Z</time>
      </trkpt>
      <trkpt lat="45.75911" lon="6.55967">
        <ele>1786</ele>
        <time>2022-07-24T07:52:36Z</time>
      </trkpt>
      <trkpt lat="45.75912" lon="6.55969">
        <ele>1785</ele>
        <time>2022-07-24T07:52:37Z</time>
      </trkpt>
      <trkpt lat="45.75912" lon="6.55971">
        <ele>1785</ele>
        <time>2022-07-24T07:52:38Z</time>
      </trkpt>
      <trkpt lat="45.75912" lon="6.55972">
        <ele>1785</ele>
        <time>2022-07-24T07:52:39Z</time>
      </trkpt>
      <trkpt lat="45.75913" lon="6.55974">
        <ele>1785</ele>
        <time>2022-07-24T07:52:40Z</time>
      </trkpt>
      <trkpt lat="45.75913" lon="6.55975">
        <ele>1785</ele>
        <time>2022-07-24T07:52:41Z</time>
      </trkpt>
      <trkpt lat="45.75914" lon="6.55977">
        <ele>1785</ele>
        <time>2022-07-24T07:52:42Z</time>
      </trkpt>
      <trkpt lat="45.75914" lon="6.55978">
        <ele>1785</ele>
        <time>2022-07-24T07:52:43Z</time>
      </trkpt>
      <trkpt lat="45.75915" lon="6.5598">
        <ele>1785</ele>
        <time>2022-07-24T07:52:44Z</time>
      </trkpt>
      <trkpt lat="45.75915" lon="6.55981">
        <ele>1785</ele>
        <time>2022-07-24T07:52:45Z</time>
      </trkpt>
      <trkpt lat="45.75916" lon="6.55983">
        <ele>1785</ele>
        <time>2022-07-24T07:52:46Z</time>
      </trkpt>
      <trkpt lat="45.75917" lon="6.55984">
        <ele>1784</ele>
        <time>2022-07-24T07:52:47Z</time>
      </trkpt>
      <trkpt lat="45.75917" lon="6.55986">
        <ele>1784</ele>
        <time>2022-07-24T07:52:48Z</time>
      </trkpt>
      <trkpt lat="45.75918" lon="6.55988">
        <ele>1784</ele>
        <time>2022-07-24T07:52:49Z</time>
      </trkpt>
      <trkpt lat="45.75918" lon="6.55989">
        <ele>1784</ele>
        <time>2022-07-24T07:52:50Z</time>
      </trkpt>
      <trkpt lat="45.75919" lon="6.55991">
        <ele>1784</ele>
        <time>2022-07-24T07:52:51Z</time>
      </trkpt>
      <trkpt lat="45.7592" lon="6.55992">
        <ele>1784</ele>
        <time>2022-07-24T07:52:52Z</time>
      </trkpt>
      <trkpt lat="45.7592" lon="6.55994">
        <ele>1784</ele>
        <time>2022-07-24T07:52:53Z</time>
      </trkpt>
      <trkpt lat="45.75921" lon="6.55996">
        <ele>1784</ele>
        <time>2022-07-24T07:52:54Z</time>
      </trkpt>
      <trkpt lat="45.75921" lon="6.55997">
        <ele>1784</ele>
        <time>2022-07-24T07:52:55Z</time>
      </trkpt>
      <trkpt lat="45.75922" lon="6.55999">
        <ele>1784</ele>
        <time>2022-07-24T07:52:56Z</time>
      </trkpt>
      <trkpt lat="45.75922" lon="6.56">
        <ele>1784</ele>
        <time>2022-07-24T07:52:57Z</time>
      </trkpt>
      <trkpt lat="45.75923" lon="6.56002">
        <ele>1784</ele>
        <time>2022-07-24T07:52:58Z</time>
      </trkpt>
      <trkpt lat="45.75924" lon="6.56003">
        <ele>1784</ele>
        <time>2022-07-24T07:52:59Z</time>
      </trkpt>
      <trkpt lat="45.75924" lon="6.56005">
        <ele>1784</ele>
        <time>2022-07-24T07:53:00Z</time>
      </trkpt>
      <trkpt lat="45.75925" lon="6.56007">
        <ele>1784</ele>
        <time>2022-07-24T07:53:01Z</time>
      </trkpt>
      <trkpt lat="45.75925" lon="6.56008">
        <ele>1783</ele>
        <time>2022-07-24T07:53:02Z</time>
      </trkpt>
      <trkpt lat="45.75926" lon="6.5601">
        <ele>1783</ele>
        <time>2022-07-24T07:53:03Z</time>
      </trkpt>
      <trkpt lat="45.75926" lon="6.56012">
        <ele>1783</ele>
        <time>2022-07-24T07:53:04Z</time>
      </trkpt>
      <trkpt lat="45.75927" lon="6.56014">
        <ele>1783</ele>
        <time>2022-07-24T07:53:05Z</time>
      </trkpt>
      <trkpt lat="45.75927" lon="6.56015">
        <ele>1783</ele>
        <time>2022-07-24T07:53:06Z</time>
      </trkpt>
      <trkpt lat="45.75928" lon="6.56017">
        <ele>1783</ele>
        <time>2022-07-24T07:53:07Z</time>
      </trkpt>
      <trkpt lat="45.75928" lon="6.56019">
        <ele>1783</ele>
        <time>2022-07-24T07:53:08Z</time>
      </trkpt>
      <trkpt lat="45.75929" lon="6.5602">
        <ele>1783</ele>
        <time>2022-07-24T07:53:09Z</time>
      </trkpt>
      <trkpt lat="45.75929" lon="6.56022">
        <ele>1783</ele>
        <time>2022-07-24T07:53:10Z</time>
      </trkpt>
      <trkpt lat="45.7593" lon="6.56023">
        <ele>1783</ele>
        <time>2022-07-24T07:53:11Z</time>
      </trkpt>
      <trkpt lat="45.7593" lon="6.56025">
        <ele>1783</ele>
        <time>2022-07-24T07:53:12Z</time>
      </trkpt>
      <trkpt lat="45.75931" lon="6.56026">
        <ele>1783</ele>
        <time>2022-07-24T07:53:13Z</time>
      </trkpt>
      <trkpt lat="45.75931" lon="6.56028">
        <ele>1783</ele>
        <time>2022-07-24T07:53:14Z</time>
      </trkpt>
      <trkpt lat="45.75932" lon="6.56029">
        <ele>1783</ele>
        <time>2022-07-24T07:53:15Z</time>
      </trkpt>
      <trkpt lat="45.75932" lon="6.56031">
        <ele>1783</ele>
        <time>2022-07-24T07:53:16Z</time>
      </trkpt>
      <trkpt lat="45.75933" lon="6.56032">
        <ele>1782</ele>
        <time>2022-07-24T07:53:17Z</time>
      </trkpt>
      <trkpt lat="45.75934" lon="6.56034">
        <ele>1782</ele>
        <time>2022-07-24T07:53:18Z</time>
      </trkpt>
      <trkpt lat="45.75934" lon="6.56035">
        <ele>1782</ele>
        <time>2022-07-24T07:53:19Z</time>
      </trkpt>
      <trkpt lat="45.75935" lon="6.56037">
        <ele>1782</ele>
        <time>2022-07-24T07:53:20Z</time>
      </trkpt>
      <trkpt lat="45.75935" lon="6.56039">
        <ele>1782</ele>
        <time>2022-07-24T07:53:21Z</time>
      </trkpt>
      <trkpt lat="45.75936" lon="6.5604">
        <ele>1782</ele>
        <time>2022-07-24T07:53:22Z</time>
      </trkpt>
      <trkpt lat="45.75936" lon="6.56042">
        <ele>1782</ele>
        <time>2022-07-24T07:53:23Z</time>
      </trkpt>
      <trkpt lat="45.75937" lon="6.56043">
        <ele>1782</ele>
        <time>2022-07-24T07:53:24Z</time>
      </trkpt>
      <trkpt lat="45.75937" lon="6.56045">
        <ele>1782</ele>
        <time>2022-07-24T07:53:25Z</time>
      </trkpt>
      <trkpt lat="45.75938" lon="6.56046">
        <ele>1782</ele>
        <time>2022-07-24T07:53:26Z</time>
      </trkpt>
      <trkpt lat="45.75938" lon="6.56048">
        <ele>1781</ele>
        <time>2022-07-24T07:53:27Z</time>
      </trkpt>
      <trkpt lat="45.75938" lon="6.5605">
        <ele>1781</ele>
        <time>2022-07-24T07:53:28Z</time>
      </trkpt>
      <trkpt lat="45.75939" lon="6.56051">
        <ele>1781</ele>
        <time>2022-07-24T07:53:29Z</time>
      </trkpt>
      <trkpt lat="45.75939" lon="6.56053">
        <ele>1781</ele>
        <time>2022-07-24T07:53:30Z</time>
      </trkpt>
      <trkpt lat="45.7594" lon="6.56055">
        <ele>1781</ele>
        <time>2022-07-24T07:53:31Z</time>
      </trkpt>
      <trkpt lat="45.7594" lon="6.56056">
        <ele>1781</ele>
        <time>2022-07-24T07:53:32Z</time>
      </trkpt>
      <trkpt lat="45.75941" lon="6.56057">
        <ele>1781</ele>
        <time>2022-07-24T07:53:33Z</time>
      </trkpt>
      <trkpt lat="45.75941" lon="6.56058">
        <ele>1781</ele>
        <time>2022-07-24T07:53:34Z</time>
      </trkpt>
      <trkpt lat="45.75942" lon="6.56059">
        <ele>1781</ele>
        <time>2022-07-24T07:53:35Z</time>
      </trkpt>
      <trkpt lat="45.75943" lon="6.56061">
        <ele>1781</ele>
        <time>2022-07-24T07:54:04Z</time>
      </trkpt>
      <trkpt lat="45.75943" lon="6.56062">
        <ele>1781</ele>
        <time>2022-07-24T07:54:05Z</time>
      </trkpt>
      <trkpt lat="45.75944" lon="6.56062">
        <ele>1781</ele>
        <time>2022-07-24T07:54:06Z</time>
      </trkpt>
      <trkpt lat="45.75944" lon="6.56063">
        <ele>1780</ele>
        <time>2022-07-24T07:54:07Z</time>
      </trkpt>
      <trkpt lat="45.75944" lon="6.56064">
        <ele>1780</ele>
        <time>2022-07-24T07:54:08Z</time>
      </trkpt>
      <trkpt lat="45.75944" lon="6.56066">
        <ele>1780</ele>
        <time>2022-07-24T07:54:09Z</time>
      </trkpt>
      <trkpt lat="45.75944" lon="6.56067">
        <ele>1780</ele>
        <time>2022-07-24T07:54:10Z</time>
      </trkpt>
      <trkpt lat="45.75944" lon="6.56069">
        <ele>1780</ele>
        <time>2022-07-24T07:54:11Z</time>
      </trkpt>
      <trkpt lat="45.75945" lon="6.5607">
        <ele>1780</ele>
        <time>2022-07-24T07:54:12Z</time>
      </trkpt>
      <trkpt lat="45.75945" lon="6.56072">
        <ele>1780</ele>
        <time>2022-07-24T07:54:13Z</time>
      </trkpt>
      <trkpt lat="45.75946" lon="6.56074">
        <ele>1780</ele>
        <time>2022-07-24T07:54:14Z</time>
      </trkpt>
      <trkpt lat="45.75946" lon="6.56076">
        <ele>1780</ele>
        <time>2022-07-24T07:54:15Z</time>
      </trkpt>
      <trkpt lat="45.75946" lon="6.56077">
        <ele>1781</ele>
        <time>2022-07-24T07:54:16Z</time>
      </trkpt>
      <trkpt lat="45.75947" lon="6.56079">
        <ele>1780</ele>
        <time>2022-07-24T07:54:17Z</time>
      </trkpt>
      <trkpt lat="45.75947" lon="6.56081">
        <ele>1780</ele>
        <time>2022-07-24T07:54:18Z</time>
      </trkpt>
      <trkpt lat="45.75948" lon="6.56082">
        <ele>1780</ele>
        <time>2022-07-24T07:54:19Z</time>
      </trkpt>
      <trkpt lat="45.75948" lon="6.56084">
        <ele>1780</ele>
        <time>2022-07-24T07:54:20Z</time>
      </trkpt>
      <trkpt lat="45.75948" lon="6.56086">
        <ele>1780</ele>
        <time>2022-07-24T07:54:21Z</time>
      </trkpt>
      <trkpt lat="45.75948" lon="6.56087">
        <ele>1780</ele>
        <time>2022-07-24T07:54:22Z</time>
      </trkpt>
      <trkpt lat="45.75948" lon="6.56089">
        <ele>1780</ele>
        <time>2022-07-24T07:54:23Z</time>
      </trkpt>
      <trkpt lat="45.75949" lon="6.5609">
        <ele>1780</ele>
        <time>2022-07-24T07:54:24Z</time>
      </trkpt>
      <trkpt lat="45.75949" lon="6.56092">
        <ele>1780</ele>
        <time>2022-07-24T07:54:25Z</time>
      </trkpt>
      <trkpt lat="45.75949" lon="6.56094">
        <ele>1781</ele>
        <time>2022-07-24T07:54:26Z</time>
      </trkpt>
      <trkpt lat="45.7595" lon="6.56095">
        <ele>1780</ele>
        <time>2022-07-24T07:54:27Z</time>
      </trkpt>
      <trkpt lat="45.7595" lon="6.56097">
        <ele>1780</ele>
        <time>2022-07-24T07:54:28Z</time>
      </trkpt>
      <trkpt lat="45.75951" lon="6.56098">
        <ele>1780</ele>
        <time>2022-07-24T07:54:29Z</time>
      </trkpt>
      <trkpt lat="45.75951" lon="6.56099">
        <ele>1780</ele>
        <time>2022-07-24T07:54:30Z</time>
      </trkpt>
      <trkpt lat="45.75952" lon="6.56101">
        <ele>1780</ele>
        <time>2022-07-24T07:54:31Z</time>
      </trkpt>
      <trkpt lat="45.75952" lon="6.56102">
        <ele>1780</ele>
        <time>2022-07-24T07:54:32Z</time>
      </trkpt>
      <trkpt lat="45.75953" lon="6.56103">
        <ele>1780</ele>
        <time>2022-07-24T07:54:33Z</time>
      </trkpt>
      <trkpt lat="45.75953" lon="6.56104">
        <ele>1780</ele>
        <time>2022-07-24T07:54:34Z</time>
      </trkpt>
      <trkpt lat="45.75954" lon="6.56105">
        <ele>1780</ele>
        <time>2022-07-24T07:54:35Z</time>
      </trkpt>
      <trkpt lat="45.75954" lon="6.56106">
        <ele>1780</ele>
        <time>2022-07-24T07:54:36Z</time>
      </trkpt>
      <trkpt lat="45.75955" lon="6.56107">
        <ele>1780</ele>
        <time>2022-07-24T07:54:37Z</time>
      </trkpt>
      <trkpt lat="45.75955" lon="6.56108">
        <ele>1780</ele>
        <time>2022-07-24T07:54:38Z</time>
      </trkpt>
      <trkpt lat="45.75956" lon="6.56109">
        <ele>1780</ele>
        <time>2022-07-24T07:54:39Z</time>
      </trkpt>
      <trkpt lat="45.75957" lon="6.5611">
        <ele>1780</ele>
        <time>2022-07-24T07:54:40Z</time>
      </trkpt>
      <trkpt lat="45.75957" lon="6.56111">
        <ele>1780</ele>
        <time>2022-07-24T07:54:41Z</time>
      </trkpt>
      <trkpt lat="45.75958" lon="6.56112">
        <ele>1780</ele>
        <time>2022-07-24T07:54:42Z</time>
      </trkpt>
      <trkpt lat="45.75959" lon="6.56113">
        <ele>1780</ele>
        <time>2022-07-24T07:54:43Z</time>
      </trkpt>
      <trkpt lat="45.75959" lon="6.56114">
        <ele>1780</ele>
        <time>2022-07-24T07:54:44Z</time>
      </trkpt>
      <trkpt lat="45.7596" lon="6.56116">
        <ele>1780</ele>
        <time>2022-07-24T07:54:45Z</time>
      </trkpt>
      <trkpt lat="45.7596" lon="6.56117">
        <ele>1780</ele>
        <time>2022-07-24T07:54:46Z</time>
      </trkpt>
      <trkpt lat="45.75961" lon="6.56118">
        <ele>1780</ele>
        <time>2022-07-24T07:54:47Z</time>
      </trkpt>
      <trkpt lat="45.75962" lon="6.5612">
        <ele>1780</ele>
        <time>2022-07-24T07:54:48Z</time>
      </trkpt>
      <trkpt lat="45.75962" lon="6.56121">
        <ele>1780</ele>
        <time>2022-07-24T07:54:49Z</time>
      </trkpt>
      <trkpt lat="45.75963" lon="6.56122">
        <ele>1780</ele>
        <time>2022-07-24T07:54:50Z</time>
      </trkpt>
      <trkpt lat="45.75963" lon="6.56123">
        <ele>1780</ele>
        <time>2022-07-24T07:54:51Z</time>
      </trkpt>
      <trkpt lat="45.75964" lon="6.56124">
        <ele>1780</ele>
        <time>2022-07-24T07:54:52Z</time>
      </trkpt>
      <trkpt lat="45.75964" lon="6.56125">
        <ele>1780</ele>
        <time>2022-07-24T07:54:53Z</time>
      </trkpt>
      <trkpt lat="45.75964" lon="6.56126">
        <ele>1780</ele>
        <time>2022-07-24T07:54:54Z</time>
      </trkpt>
      <trkpt lat="45.75964" lon="6.56128">
        <ele>1780</ele>
        <time>2022-07-24T07:54:55Z</time>
      </trkpt>
      <trkpt lat="45.75964" lon="6.56129">
        <ele>1781</ele>
        <time>2022-07-24T07:54:56Z</time>
      </trkpt>
      <trkpt lat="45.75965" lon="6.5613">
        <ele>1781</ele>
        <time>2022-07-24T07:54:57Z</time>
      </trkpt>
      <trkpt lat="45.75965" lon="6.56132">
        <ele>1781</ele>
        <time>2022-07-24T07:54:58Z</time>
      </trkpt>
      <trkpt lat="45.75965" lon="6.56133">
        <ele>1781</ele>
        <time>2022-07-24T07:54:59Z</time>
      </trkpt>
      <trkpt lat="45.75965" lon="6.56134">
        <ele>1781</ele>
        <time>2022-07-24T07:55:00Z</time>
      </trkpt>
      <trkpt lat="45.75965" lon="6.56135">
        <ele>1781</ele>
        <time>2022-07-24T07:55:01Z</time>
      </trkpt>
      <trkpt lat="45.75965" lon="6.56136">
        <ele>1781</ele>
        <time>2022-07-24T07:55:02Z</time>
      </trkpt>
      <trkpt lat="45.75965" lon="6.56137">
        <ele>1781</ele>
        <time>2022-07-24T07:55:03Z</time>
      </trkpt>
      <trkpt lat="45.75965" lon="6.56139">
        <ele>1781</ele>
        <time>2022-07-24T07:55:04Z</time>
      </trkpt>
      <trkpt lat="45.75966" lon="6.5614">
        <ele>1781</ele>
        <time>2022-07-24T07:55:05Z</time>
      </trkpt>
      <trkpt lat="45.75966" lon="6.56141">
        <ele>1781</ele>
        <time>2022-07-24T07:55:06Z</time>
      </trkpt>
      <trkpt lat="45.75966" lon="6.56142">
        <ele>1781</ele>
        <time>2022-07-24T07:55:07Z</time>
      </trkpt>
      <trkpt lat="45.75967" lon="6.56143">
        <ele>1781</ele>
        <time>2022-07-24T07:55:08Z</time>
      </trkpt>
      <trkpt lat="45.75967" lon="6.56144">
        <ele>1781</ele>
        <time>2022-07-24T07:55:09Z</time>
      </trkpt>
      <trkpt lat="45.75968" lon="6.56145">
        <ele>1781</ele>
        <time>2022-07-24T07:55:10Z</time>
      </trkpt>
      <trkpt lat="45.75968" lon="6.56146">
        <ele>1781</ele>
        <time>2022-07-24T07:55:11Z</time>
      </trkpt>
      <trkpt lat="45.75968" lon="6.56147">
        <ele>1781</ele>
        <time>2022-07-24T07:55:12Z</time>
      </trkpt>
      <trkpt lat="45.75969" lon="6.56148">
        <ele>1781</ele>
        <time>2022-07-24T07:55:13Z</time>
      </trkpt>
      <trkpt lat="45.75969" lon="6.56149">
        <ele>1781</ele>
        <time>2022-07-24T07:55:14Z</time>
      </trkpt>
      <trkpt lat="45.75969" lon="6.56151">
        <ele>1781</ele>
        <time>2022-07-24T07:55:15Z</time>
      </trkpt>
      <trkpt lat="45.7597" lon="6.56152">
        <ele>1782</ele>
        <time>2022-07-24T07:55:16Z</time>
      </trkpt>
      <trkpt lat="45.7597" lon="6.56153">
        <ele>1782</ele>
        <time>2022-07-24T07:55:17Z</time>
      </trkpt>
      <trkpt lat="45.7597" lon="6.56155">
        <ele>1782</ele>
        <time>2022-07-24T07:55:18Z</time>
      </trkpt>
      <trkpt lat="45.7597" lon="6.56156">
        <ele>1782</ele>
        <time>2022-07-24T07:55:19Z</time>
      </trkpt>
      <trkpt lat="45.7597" lon="6.56158">
        <ele>1782</ele>
        <time>2022-07-24T07:55:20Z</time>
      </trkpt>
      <trkpt lat="45.75969" lon="6.56159">
        <ele>1783</ele>
        <time>2022-07-24T07:55:21Z</time>
      </trkpt>
      <trkpt lat="45.75969" lon="6.56161">
        <ele>1783</ele>
        <time>2022-07-24T07:55:22Z</time>
      </trkpt>
      <trkpt lat="45.75969" lon="6.56162">
        <ele>1783</ele>
        <time>2022-07-24T07:55:23Z</time>
      </trkpt>
      <trkpt lat="45.75969" lon="6.56164">
        <ele>1783</ele>
        <time>2022-07-24T07:55:24Z</time>
      </trkpt>
      <trkpt lat="45.75969" lon="6.56165">
        <ele>1783</ele>
        <time>2022-07-24T07:55:25Z</time>
      </trkpt>
      <trkpt lat="45.75969" lon="6.56167">
        <ele>1783</ele>
        <time>2022-07-24T07:55:26Z</time>
      </trkpt>
      <trkpt lat="45.75969" lon="6.56168">
        <ele>1783</ele>
        <time>2022-07-24T07:55:27Z</time>
      </trkpt>
      <trkpt lat="45.75969" lon="6.5617">
        <ele>1783</ele>
        <time>2022-07-24T07:55:28Z</time>
      </trkpt>
      <trkpt lat="45.75969" lon="6.56171">
        <ele>1783</ele>
        <time>2022-07-24T07:55:29Z</time>
      </trkpt>
      <trkpt lat="45.7597" lon="6.56172">
        <ele>1783</ele>
        <time>2022-07-24T07:55:30Z</time>
      </trkpt>
      <trkpt lat="45.7597" lon="6.56173">
        <ele>1783</ele>
        <time>2022-07-24T07:55:31Z</time>
      </trkpt>
      <trkpt lat="45.7597" lon="6.56175">
        <ele>1783</ele>
        <time>2022-07-24T07:55:32Z</time>
      </trkpt>
      <trkpt lat="45.7597" lon="6.56176">
        <ele>1783</ele>
        <time>2022-07-24T07:55:33Z</time>
      </trkpt>
      <trkpt lat="45.7597" lon="6.56177">
        <ele>1783</ele>
        <time>2022-07-24T07:55:34Z</time>
      </trkpt>
      <trkpt lat="45.7597" lon="6.56178">
        <ele>1783</ele>
        <time>2022-07-24T07:55:35Z</time>
      </trkpt>
      <trkpt lat="45.7597" lon="6.5618">
        <ele>1784</ele>
        <time>2022-07-24T07:55:36Z</time>
      </trkpt>
      <trkpt lat="45.7597" lon="6.56181">
        <ele>1784</ele>
        <time>2022-07-24T07:55:37Z</time>
      </trkpt>
      <trkpt lat="45.75971" lon="6.56182">
        <ele>1784</ele>
        <time>2022-07-24T07:55:38Z</time>
      </trkpt>
      <trkpt lat="45.75971" lon="6.56184">
        <ele>1784</ele>
        <time>2022-07-24T07:55:39Z</time>
      </trkpt>
      <trkpt lat="45.75972" lon="6.56185">
        <ele>1784</ele>
        <time>2022-07-24T07:55:40Z</time>
      </trkpt>
      <trkpt lat="45.75972" lon="6.56186">
        <ele>1784</ele>
        <time>2022-07-24T07:55:41Z</time>
      </trkpt>
      <trkpt lat="45.75973" lon="6.56188">
        <ele>1784</ele>
        <time>2022-07-24T07:55:42Z</time>
      </trkpt>
      <trkpt lat="45.75973" lon="6.56189">
        <ele>1784</ele>
        <time>2022-07-24T07:55:43Z</time>
      </trkpt>
      <trkpt lat="45.75974" lon="6.5619">
        <ele>1784</ele>
        <time>2022-07-24T07:55:44Z</time>
      </trkpt>
      <trkpt lat="45.75974" lon="6.56192">
        <ele>1784</ele>
        <time>2022-07-24T07:55:45Z</time>
      </trkpt>
      <trkpt lat="45.75974" lon="6.56193">
        <ele>1784</ele>
        <time>2022-07-24T07:55:46Z</time>
      </trkpt>
      <trkpt lat="45.75975" lon="6.56194">
        <ele>1784</ele>
        <time>2022-07-24T07:55:47Z</time>
      </trkpt>
      <trkpt lat="45.75975" lon="6.56195">
        <ele>1784</ele>
        <time>2022-07-24T07:55:48Z</time>
      </trkpt>
      <trkpt lat="45.75975" lon="6.56197">
        <ele>1784</ele>
        <time>2022-07-24T07:55:49Z</time>
      </trkpt>
      <trkpt lat="45.75976" lon="6.56198">
        <ele>1784</ele>
        <time>2022-07-24T07:55:50Z</time>
      </trkpt>
      <trkpt lat="45.75976" lon="6.56199">
        <ele>1784</ele>
        <time>2022-07-24T07:55:51Z</time>
      </trkpt>
      <trkpt lat="45.75977" lon="6.562">
        <ele>1784</ele>
        <time>2022-07-24T07:55:52Z</time>
      </trkpt>
      <trkpt lat="45.75977" lon="6.56201">
        <ele>1784</ele>
        <time>2022-07-24T07:55:53Z</time>
      </trkpt>
      <trkpt lat="45.75978" lon="6.56202">
        <ele>1784</ele>
        <time>2022-07-24T07:55:54Z</time>
      </trkpt>
      <trkpt lat="45.75978" lon="6.56203">
        <ele>1784</ele>
        <time>2022-07-24T07:55:55Z</time>
      </trkpt>
      <trkpt lat="45.75979" lon="6.56205">
        <ele>1785</ele>
        <time>2022-07-24T07:55:56Z</time>
      </trkpt>
      <trkpt lat="45.75979" lon="6.56206">
        <ele>1785</ele>
        <time>2022-07-24T07:55:57Z</time>
      </trkpt>
      <trkpt lat="45.7598" lon="6.56207">
        <ele>1785</ele>
        <time>2022-07-24T07:55:58Z</time>
      </trkpt>
      <trkpt lat="45.75981" lon="6.56209">
        <ele>1786</ele>
        <time>2022-07-24T07:56:18Z</time>
      </trkpt>
      <trkpt lat="45.75981" lon="6.5621">
        <ele>1786</ele>
        <time>2022-07-24T07:56:19Z</time>
      </trkpt>
      <trkpt lat="45.75982" lon="6.5621">
        <ele>1786</ele>
        <time>2022-07-24T07:56:20Z</time>
      </trkpt>
      <trkpt lat="45.75982" lon="6.56211">
        <ele>1786</ele>
        <time>2022-07-24T07:56:21Z</time>
      </trkpt>
      <trkpt lat="45.75982" lon="6.56212">
        <ele>1786</ele>
        <time>2022-07-24T07:56:22Z</time>
      </trkpt>
      <trkpt lat="45.75983" lon="6.56213">
        <ele>1786</ele>
        <time>2022-07-24T07:56:23Z</time>
      </trkpt>
      <trkpt lat="45.75983" lon="6.56214">
        <ele>1786</ele>
        <time>2022-07-24T07:56:24Z</time>
      </trkpt>
      <trkpt lat="45.75983" lon="6.56215">
        <ele>1786</ele>
        <time>2022-07-24T07:56:25Z</time>
      </trkpt>
      <trkpt lat="45.75983" lon="6.56216">
        <ele>1786</ele>
        <time>2022-07-24T07:56:26Z</time>
      </trkpt>
      <trkpt lat="45.75983" lon="6.56218">
        <ele>1786</ele>
        <time>2022-07-24T07:56:27Z</time>
      </trkpt>
      <trkpt lat="45.75983" lon="6.56219">
        <ele>1786</ele>
        <time>2022-07-24T07:56:28Z</time>
      </trkpt>
      <trkpt lat="45.75983" lon="6.56221">
        <ele>1786</ele>
        <time>2022-07-24T07:56:29Z</time>
      </trkpt>
      <trkpt lat="45.75983" lon="6.56222">
        <ele>1786</ele>
        <time>2022-07-24T07:56:30Z</time>
      </trkpt>
      <trkpt lat="45.75983" lon="6.56224">
        <ele>1786</ele>
        <time>2022-07-24T07:56:31Z</time>
      </trkpt>
      <trkpt lat="45.75983" lon="6.56225">
        <ele>1786</ele>
        <time>2022-07-24T07:56:32Z</time>
      </trkpt>
      <trkpt lat="45.75983" lon="6.56227">
        <ele>1786</ele>
        <time>2022-07-24T07:56:33Z</time>
      </trkpt>
      <trkpt lat="45.75983" lon="6.56228">
        <ele>1786</ele>
        <time>2022-07-24T07:56:34Z</time>
      </trkpt>
      <trkpt lat="45.75983" lon="6.5623">
        <ele>1786</ele>
        <time>2022-07-24T07:56:35Z</time>
      </trkpt>
      <trkpt lat="45.75984" lon="6.56231">
        <ele>1786</ele>
        <time>2022-07-24T07:56:36Z</time>
      </trkpt>
      <trkpt lat="45.75984" lon="6.56233">
        <ele>1786</ele>
        <time>2022-07-24T07:56:37Z</time>
      </trkpt>
      <trkpt lat="45.75984" lon="6.56234">
        <ele>1786</ele>
        <time>2022-07-24T07:56:38Z</time>
      </trkpt>
      <trkpt lat="45.75984" lon="6.56235">
        <ele>1786</ele>
        <time>2022-07-24T07:56:39Z</time>
      </trkpt>
      <trkpt lat="45.75985" lon="6.56237">
        <ele>1786</ele>
        <time>2022-07-24T07:56:40Z</time>
      </trkpt>
      <trkpt lat="45.75985" lon="6.56238">
        <ele>1786</ele>
        <time>2022-07-24T07:56:41Z</time>
      </trkpt>
      <trkpt lat="45.75985" lon="6.56239">
        <ele>1786</ele>
        <time>2022-07-24T07:56:42Z</time>
      </trkpt>
      <trkpt lat="45.75985" lon="6.5624">
        <ele>1786</ele>
        <time>2022-07-24T07:56:43Z</time>
      </trkpt>
      <trkpt lat="45.75985" lon="6.56241">
        <ele>1786</ele>
        <time>2022-07-24T07:56:44Z</time>
      </trkpt>
      <trkpt lat="45.75985" lon="6.56242">
        <ele>1786</ele>
        <time>2022-07-24T07:56:45Z</time>
      </trkpt>
      <trkpt lat="45.75986" lon="6.56244">
        <ele>1786</ele>
        <time>2022-07-24T07:56:46Z</time>
      </trkpt>
      <trkpt lat="45.75986" lon="6.56245">
        <ele>1786</ele>
        <time>2022-07-24T07:56:47Z</time>
      </trkpt>
      <trkpt lat="45.75987" lon="6.56246">
        <ele>1786</ele>
        <time>2022-07-24T07:56:48Z</time>
      </trkpt>
      <trkpt lat="45.75987" lon="6.56248">
        <ele>1786</ele>
        <time>2022-07-24T07:56:49Z</time>
      </trkpt>
      <trkpt lat="45.75987" lon="6.56249">
        <ele>1786</ele>
        <time>2022-07-24T07:56:50Z</time>
      </trkpt>
      <trkpt lat="45.75988" lon="6.5625">
        <ele>1786</ele>
        <time>2022-07-24T07:56:51Z</time>
      </trkpt>
      <trkpt lat="45.75988" lon="6.56251">
        <ele>1786</ele>
        <time>2022-07-24T07:56:52Z</time>
      </trkpt>
      <trkpt lat="45.75989" lon="6.56253">
        <ele>1786</ele>
        <time>2022-07-24T07:56:53Z</time>
      </trkpt>
      <trkpt lat="45.7599" lon="6.56254">
        <ele>1787</ele>
        <time>2022-07-24T07:56:54Z</time>
      </trkpt>
      <trkpt lat="45.75991" lon="6.56255">
        <ele>1787</ele>
        <time>2022-07-24T07:56:55Z</time>
      </trkpt>
      <trkpt lat="45.75991" lon="6.56256">
        <ele>1788</ele>
        <time>2022-07-24T07:56:56Z</time>
      </trkpt>
      <trkpt lat="45.75992" lon="6.56256">
        <ele>1788</ele>
        <time>2022-07-24T07:56:57Z</time>
      </trkpt>
      <trkpt lat="45.75993" lon="6.56257">
        <ele>1788</ele>
        <time>2022-07-24T07:56:58Z</time>
      </trkpt>
      <trkpt lat="45.75994" lon="6.56258">
        <ele>1788</ele>
        <time>2022-07-24T07:56:59Z</time>
      </trkpt>
      <trkpt lat="45.75995" lon="6.56259">
        <ele>1788</ele>
        <time>2022-07-24T07:57:00Z</time>
      </trkpt>
      <trkpt lat="45.75995" lon="6.56259">
        <ele>1788</ele>
        <time>2022-07-24T07:57:01Z</time>
      </trkpt>
      <trkpt lat="45.75996" lon="6.5626">
        <ele>1788</ele>
        <time>2022-07-24T07:57:02Z</time>
      </trkpt>
      <trkpt lat="45.75997" lon="6.56261">
        <ele>1788</ele>
        <time>2022-07-24T07:57:03Z</time>
      </trkpt>
      <trkpt lat="45.75998" lon="6.56262">
        <ele>1788</ele>
        <time>2022-07-24T07:57:04Z</time>
      </trkpt>
      <trkpt lat="45.75999" lon="6.56264">
        <ele>1789</ele>
        <time>2022-07-24T07:57:12Z</time>
      </trkpt>
      <trkpt lat="45.76" lon="6.56265">
        <ele>1789</ele>
        <time>2022-07-24T07:57:13Z</time>
      </trkpt>
      <trkpt lat="45.76" lon="6.56266">
        <ele>1789</ele>
        <time>2022-07-24T07:57:14Z</time>
      </trkpt>
      <trkpt lat="45.76001" lon="6.56267">
        <ele>1789</ele>
        <time>2022-07-24T07:57:15Z</time>
      </trkpt>
      <trkpt lat="45.76001" lon="6.56268">
        <ele>1789</ele>
        <time>2022-07-24T07:57:16Z</time>
      </trkpt>
      <trkpt lat="45.76002" lon="6.56269">
        <ele>1789</ele>
        <time>2022-07-24T07:57:17Z</time>
      </trkpt>
      <trkpt lat="45.76002" lon="6.5627">
        <ele>1789</ele>
        <time>2022-07-24T07:57:18Z</time>
      </trkpt>
      <trkpt lat="45.76003" lon="6.56272">
        <ele>1789</ele>
        <time>2022-07-24T07:57:19Z</time>
      </trkpt>
      <trkpt lat="45.76003" lon="6.56273">
        <ele>1789</ele>
        <time>2022-07-24T07:57:20Z</time>
      </trkpt>
      <trkpt lat="45.76004" lon="6.56274">
        <ele>1789</ele>
        <time>2022-07-24T07:57:21Z</time>
      </trkpt>
      <trkpt lat="45.76005" lon="6.56276">
        <ele>1789</ele>
        <time>2022-07-24T07:57:22Z</time>
      </trkpt>
      <trkpt lat="45.76005" lon="6.56277">
        <ele>1789</ele>
        <time>2022-07-24T07:57:23Z</time>
      </trkpt>
      <trkpt lat="45.76006" lon="6.56278">
        <ele>1789</ele>
        <time>2022-07-24T07:57:24Z</time>
      </trkpt>
      <trkpt lat="45.76006" lon="6.56279">
        <ele>1789</ele>
        <time>2022-07-24T07:57:25Z</time>
      </trkpt>
      <trkpt lat="45.76007" lon="6.56281">
        <ele>1790</ele>
        <time>2022-07-24T07:57:26Z</time>
      </trkpt>
      <trkpt lat="45.76007" lon="6.56282">
        <ele>1790</ele>
        <time>2022-07-24T07:57:27Z</time>
      </trkpt>
      <trkpt lat="45.76008" lon="6.56283">
        <ele>1790</ele>
        <time>2022-07-24T07:57:28Z</time>
      </trkpt>
      <trkpt lat="45.76008" lon="6.56283">
        <ele>1790</ele>
        <time>2022-07-24T07:57:29Z</time>
      </trkpt>
      <trkpt lat="45.76009" lon="6.56284">
        <ele>1790</ele>
        <time>2022-07-24T07:57:30Z</time>
      </trkpt>
      <trkpt lat="45.76009" lon="6.56285">
        <ele>1790</ele>
        <time>2022-07-24T07:57:31Z</time>
      </trkpt>
      <trkpt lat="45.7601" lon="6.56286">
        <ele>1790</ele>
        <time>2022-07-24T07:57:32Z</time>
      </trkpt>
      <trkpt lat="45.7601" lon="6.56287">
        <ele>1790</ele>
        <time>2022-07-24T07:57:33Z</time>
      </trkpt>
      <trkpt lat="45.76011" lon="6.56288">
        <ele>1790</ele>
        <time>2022-07-24T07:57:34Z</time>
      </trkpt>
      <trkpt lat="45.76012" lon="6.56289">
        <ele>1790</ele>
        <time>2022-07-24T07:57:35Z</time>
      </trkpt>
      <trkpt lat="45.76012" lon="6.5629">
        <ele>1790</ele>
        <time>2022-07-24T07:57:36Z</time>
      </trkpt>
      <trkpt lat="45.76013" lon="6.56291">
        <ele>1790</ele>
        <time>2022-07-24T07:57:37Z</time>
      </trkpt>
      <trkpt lat="45.76013" lon="6.56292">
        <ele>1790</ele>
        <time>2022-07-24T07:57:38Z</time>
      </trkpt>
      <trkpt lat="45.76014" lon="6.56293">
        <ele>1790</ele>
        <time>2022-07-24T07:57:39Z</time>
      </trkpt>
      <trkpt lat="45.76014" lon="6.56293">
        <ele>1790</ele>
        <time>2022-07-24T07:57:40Z</time>
      </trkpt>
      <trkpt lat="45.76015" lon="6.56294">
        <ele>1791</ele>
        <time>2022-07-24T07:57:41Z</time>
      </trkpt>
      <trkpt lat="45.76015" lon="6.56295">
        <ele>1791</ele>
        <time>2022-07-24T07:57:42Z</time>
      </trkpt>
      <trkpt lat="45.76016" lon="6.56296">
        <ele>1791</ele>
        <time>2022-07-24T07:57:43Z</time>
      </trkpt>
      <trkpt lat="45.76016" lon="6.56297">
        <ele>1791</ele>
        <time>2022-07-24T07:57:44Z</time>
      </trkpt>
      <trkpt lat="45.76017" lon="6.56297">
        <ele>1791</ele>
        <time>2022-07-24T07:57:45Z</time>
      </trkpt>
      <trkpt lat="45.76018" lon="6.56298">
        <ele>1791</ele>
        <time>2022-07-24T07:57:46Z</time>
      </trkpt>
      <trkpt lat="45.76019" lon="6.56299">
        <ele>1791</ele>
        <time>2022-07-24T07:57:47Z</time>
      </trkpt>
      <trkpt lat="45.76019" lon="6.563">
        <ele>1791</ele>
        <time>2022-07-24T07:57:48Z</time>
      </trkpt>
      <trkpt lat="45.7602" lon="6.56301">
        <ele>1791</ele>
        <time>2022-07-24T07:57:49Z</time>
      </trkpt>
      <trkpt lat="45.76021" lon="6.56302">
        <ele>1791</ele>
        <time>2022-07-24T07:57:50Z</time>
      </trkpt>
      <trkpt lat="45.76022" lon="6.56302">
        <ele>1792</ele>
        <time>2022-07-24T07:57:51Z</time>
      </trkpt>
      <trkpt lat="45.76023" lon="6.56303">
        <ele>1792</ele>
        <time>2022-07-24T07:57:52Z</time>
      </trkpt>
      <trkpt lat="45.76024" lon="6.56304">
        <ele>1792</ele>
        <time>2022-07-24T07:57:53Z</time>
      </trkpt>
      <trkpt lat="45.76025" lon="6.56304">
        <ele>1792</ele>
        <time>2022-07-24T07:57:54Z</time>
      </trkpt>
      <trkpt lat="45.76026" lon="6.56305">
        <ele>1792</ele>
        <time>2022-07-24T07:57:55Z</time>
      </trkpt>
      <trkpt lat="45.76026" lon="6.56305">
        <ele>1792</ele>
        <time>2022-07-24T07:57:56Z</time>
      </trkpt>
      <trkpt lat="45.76027" lon="6.56306">
        <ele>1792</ele>
        <time>2022-07-24T07:57:57Z</time>
      </trkpt>
      <trkpt lat="45.76028" lon="6.56306">
        <ele>1792</ele>
        <time>2022-07-24T07:57:58Z</time>
      </trkpt>
      <trkpt lat="45.76028" lon="6.56307">
        <ele>1792</ele>
        <time>2022-07-24T07:57:59Z</time>
      </trkpt>
      <trkpt lat="45.76029" lon="6.56308">
        <ele>1792</ele>
        <time>2022-07-24T07:58:00Z</time>
      </trkpt>
      <trkpt lat="45.76029" lon="6.56309">
        <ele>1793</ele>
        <time>2022-07-24T07:58:01Z</time>
      </trkpt>
      <trkpt lat="45.7603" lon="6.5631">
        <ele>1793</ele>
        <time>2022-07-24T07:58:02Z</time>
      </trkpt>
      <trkpt lat="45.7603" lon="6.5631">
        <ele>1793</ele>
        <time>2022-07-24T07:58:03Z</time>
      </trkpt>
      <trkpt lat="45.7603" lon="6.5631">
        <ele>1793</ele>
        <time>2022-07-24T07:58:04Z</time>
      </trkpt>
      <trkpt lat="45.76031" lon="6.56311">
        <ele>1793</ele>
        <time>2022-07-24T07:58:05Z</time>
      </trkpt>
      <trkpt lat="45.76031" lon="6.56312">
        <ele>1793</ele>
        <time>2022-07-24T07:58:06Z</time>
      </trkpt>
      <trkpt lat="45.76031" lon="6.56312">
        <ele>1793</ele>
        <time>2022-07-24T07:58:07Z</time>
      </trkpt>
      <trkpt lat="45.76032" lon="6.56313">
        <ele>1793</ele>
        <time>2022-07-24T07:58:08Z</time>
      </trkpt>
      <trkpt lat="45.76032" lon="6.56314">
        <ele>1793</ele>
        <time>2022-07-24T07:58:09Z</time>
      </trkpt>
      <trkpt lat="45.76032" lon="6.56314">
        <ele>1793</ele>
        <time>2022-07-24T07:58:10Z</time>
      </trkpt>
      <trkpt lat="45.76032" lon="6.56315">
        <ele>1794</ele>
        <time>2022-07-24T07:58:11Z</time>
      </trkpt>
      <trkpt lat="45.76033" lon="6.56316">
        <ele>1794</ele>
        <time>2022-07-24T07:58:12Z</time>
      </trkpt>
      <trkpt lat="45.76033" lon="6.56317">
        <ele>1794</ele>
        <time>2022-07-24T07:58:13Z</time>
      </trkpt>
      <trkpt lat="45.76033" lon="6.56318">
        <ele>1794</ele>
        <time>2022-07-24T07:58:14Z</time>
      </trkpt>
      <trkpt lat="45.76033" lon="6.56319">
        <ele>1794</ele>
        <time>2022-07-24T07:58:15Z</time>
      </trkpt>
      <trkpt lat="45.76032" lon="6.5632">
        <ele>1794</ele>
        <time>2022-07-24T07:58:16Z</time>
      </trkpt>
      <trkpt lat="45.76032" lon="6.56322">
        <ele>1794</ele>
        <time>2022-07-24T07:58:17Z</time>
      </trkpt>
      <trkpt lat="45.76032" lon="6.56323">
        <ele>1794</ele>
        <time>2022-07-24T07:58:18Z</time>
      </trkpt>
      <trkpt lat="45.76033" lon="6.56324">
        <ele>1794</ele>
        <time>2022-07-24T07:58:19Z</time>
      </trkpt>
      <trkpt lat="45.76033" lon="6.56325">
        <ele>1794</ele>
        <time>2022-07-24T07:58:20Z</time>
      </trkpt>
      <trkpt lat="45.76033" lon="6.56326">
        <ele>1795</ele>
        <time>2022-07-24T07:58:21Z</time>
      </trkpt>
      <trkpt lat="45.76034" lon="6.56326">
        <ele>1795</ele>
        <time>2022-07-24T07:58:22Z</time>
      </trkpt>
      <trkpt lat="45.76034" lon="6.56327">
        <ele>1795</ele>
        <time>2022-07-24T07:58:23Z</time>
      </trkpt>
      <trkpt lat="45.76035" lon="6.56328">
        <ele>1795</ele>
        <time>2022-07-24T07:58:24Z</time>
      </trkpt>
      <trkpt lat="45.76035" lon="6.56329">
        <ele>1795</ele>
        <time>2022-07-24T07:58:25Z</time>
      </trkpt>
      <trkpt lat="45.76036" lon="6.5633">
        <ele>1796</ele>
        <time>2022-07-24T07:58:26Z</time>
      </trkpt>
      <trkpt lat="45.76037" lon="6.56331">
        <ele>1796</ele>
        <time>2022-07-24T07:58:27Z</time>
      </trkpt>
      <trkpt lat="45.76037" lon="6.56332">
        <ele>1796</ele>
        <time>2022-07-24T07:58:28Z</time>
      </trkpt>
      <trkpt lat="45.76037" lon="6.56333">
        <ele>1796</ele>
        <time>2022-07-24T07:58:29Z</time>
      </trkpt>
      <trkpt lat="45.76038" lon="6.56334">
        <ele>1796</ele>
        <time>2022-07-24T07:58:30Z</time>
      </trkpt>
      <trkpt lat="45.76038" lon="6.56335">
        <ele>1796</ele>
        <time>2022-07-24T07:58:31Z</time>
      </trkpt>
      <trkpt lat="45.76039" lon="6.56336">
        <ele>1796</ele>
        <time>2022-07-24T07:58:32Z</time>
      </trkpt>
      <trkpt lat="45.76039" lon="6.56337">
        <ele>1796</ele>
        <time>2022-07-24T07:58:33Z</time>
      </trkpt>
      <trkpt lat="45.76039" lon="6.56338">
        <ele>1796</ele>
        <time>2022-07-24T07:58:34Z</time>
      </trkpt>
      <trkpt lat="45.7604" lon="6.56339">
        <ele>1796</ele>
        <time>2022-07-24T07:58:35Z</time>
      </trkpt>
      <trkpt lat="45.7604" lon="6.5634">
        <ele>1797</ele>
        <time>2022-07-24T07:58:36Z</time>
      </trkpt>
      <trkpt lat="45.76041" lon="6.56341">
        <ele>1797</ele>
        <time>2022-07-24T07:58:37Z</time>
      </trkpt>
      <trkpt lat="45.76041" lon="6.56342">
        <ele>1797</ele>
        <time>2022-07-24T07:58:38Z</time>
      </trkpt>
      <trkpt lat="45.76042" lon="6.56343">
        <ele>1797</ele>
        <time>2022-07-24T07:58:39Z</time>
      </trkpt>
      <trkpt lat="45.76042" lon="6.56344">
        <ele>1797</ele>
        <time>2022-07-24T07:58:40Z</time>
      </trkpt>
      <trkpt lat="45.76043" lon="6.56344">
        <ele>1798</ele>
        <time>2022-07-24T07:58:41Z</time>
      </trkpt>
      <trkpt lat="45.76043" lon="6.56345">
        <ele>1798</ele>
        <time>2022-07-24T07:58:42Z</time>
      </trkpt>
      <trkpt lat="45.76044" lon="6.56345">
        <ele>1798</ele>
        <time>2022-07-24T07:58:43Z</time>
      </trkpt>
      <trkpt lat="45.76044" lon="6.56346">
        <ele>1798</ele>
        <time>2022-07-24T07:58:44Z</time>
      </trkpt>
      <trkpt lat="45.76045" lon="6.56347">
        <ele>1798</ele>
        <time>2022-07-24T07:58:45Z</time>
      </trkpt>
      <trkpt lat="45.76046" lon="6.56347">
        <ele>1798</ele>
        <time>2022-07-24T07:58:46Z</time>
      </trkpt>
      <trkpt lat="45.76046" lon="6.56348">
        <ele>1798</ele>
        <time>2022-07-24T07:58:47Z</time>
      </trkpt>
      <trkpt lat="45.76047" lon="6.56348">
        <ele>1798</ele>
        <time>2022-07-24T07:58:48Z</time>
      </trkpt>
      <trkpt lat="45.76048" lon="6.56349">
        <ele>1798</ele>
        <time>2022-07-24T07:58:49Z</time>
      </trkpt>
      <trkpt lat="45.76048" lon="6.5635">
        <ele>1798</ele>
        <time>2022-07-24T07:58:50Z</time>
      </trkpt>
      <trkpt lat="45.76049" lon="6.56351">
        <ele>1799</ele>
        <time>2022-07-24T07:58:51Z</time>
      </trkpt>
      <trkpt lat="45.7605" lon="6.56352">
        <ele>1799</ele>
        <time>2022-07-24T07:58:52Z</time>
      </trkpt>
      <trkpt lat="45.76051" lon="6.56352">
        <ele>1799</ele>
        <time>2022-07-24T07:58:53Z</time>
      </trkpt>
      <trkpt lat="45.76051" lon="6.56353">
        <ele>1799</ele>
        <time>2022-07-24T07:58:54Z</time>
      </trkpt>
      <trkpt lat="45.76052" lon="6.56354">
        <ele>1799</ele>
        <time>2022-07-24T07:58:55Z</time>
      </trkpt>
      <trkpt lat="45.76053" lon="6.56355">
        <ele>1799</ele>
        <time>2022-07-24T07:58:56Z</time>
      </trkpt>
      <trkpt lat="45.76053" lon="6.56356">
        <ele>1799</ele>
        <time>2022-07-24T07:58:57Z</time>
      </trkpt>
      <trkpt lat="45.76054" lon="6.56357">
        <ele>1799</ele>
        <time>2022-07-24T07:58:58Z</time>
      </trkpt>
      <trkpt lat="45.76054" lon="6.56358">
        <ele>1799</ele>
        <time>2022-07-24T07:58:59Z</time>
      </trkpt>
      <trkpt lat="45.76055" lon="6.5636">
        <ele>1799</ele>
        <time>2022-07-24T07:59:00Z</time>
      </trkpt>
      <trkpt lat="45.76055" lon="6.56361">
        <ele>1800</ele>
        <time>2022-07-24T07:59:01Z</time>
      </trkpt>
      <trkpt lat="45.76055" lon="6.56362">
        <ele>1800</ele>
        <time>2022-07-24T07:59:02Z</time>
      </trkpt>
      <trkpt lat="45.76056" lon="6.56364">
        <ele>1800</ele>
        <time>2022-07-24T07:59:03Z</time>
      </trkpt>
      <trkpt lat="45.76056" lon="6.56365">
        <ele>1800</ele>
        <time>2022-07-24T07:59:04Z</time>
      </trkpt>
      <trkpt lat="45.76057" lon="6.56366">
        <ele>1800</ele>
        <time>2022-07-24T07:59:05Z</time>
      </trkpt>
      <trkpt lat="45.76057" lon="6.56367">
        <ele>1800</ele>
        <time>2022-07-24T07:59:06Z</time>
      </trkpt>
      <trkpt lat="45.76058" lon="6.56369">
        <ele>1800</ele>
        <time>2022-07-24T07:59:07Z</time>
      </trkpt>
      <trkpt lat="45.76058" lon="6.5637">
        <ele>1800</ele>
        <time>2022-07-24T07:59:08Z</time>
      </trkpt>
      <trkpt lat="45.76059" lon="6.56371">
        <ele>1800</ele>
        <time>2022-07-24T07:59:09Z</time>
      </trkpt>
      <trkpt lat="45.7606" lon="6.56373">
        <ele>1800</ele>
        <time>2022-07-24T07:59:17Z</time>
      </trkpt>
      <trkpt lat="45.7606" lon="6.56374">
        <ele>1800</ele>
        <time>2022-07-24T07:59:18Z</time>
      </trkpt>
      <trkpt lat="45.76061" lon="6.56375">
        <ele>1800</ele>
        <time>2022-07-24T07:59:19Z</time>
      </trkpt>
      <trkpt lat="45.76061" lon="6.56375">
        <ele>1800</ele>
        <time>2022-07-24T07:59:20Z</time>
      </trkpt>
      <trkpt lat="45.76062" lon="6.56376">
        <ele>1800</ele>
        <time>2022-07-24T07:59:21Z</time>
      </trkpt>
      <trkpt lat="45.76062" lon="6.56377">
        <ele>1800</ele>
        <time>2022-07-24T07:59:22Z</time>
      </trkpt>
      <trkpt lat="45.76063" lon="6.56378">
        <ele>1800</ele>
        <time>2022-07-24T07:59:23Z</time>
      </trkpt>
      <trkpt lat="45.76064" lon="6.56379">
        <ele>1800</ele>
        <time>2022-07-24T07:59:24Z</time>
      </trkpt>
      <trkpt lat="45.76064" lon="6.5638">
        <ele>1800</ele>
        <time>2022-07-24T07:59:25Z</time>
      </trkpt>
      <trkpt lat="45.76065" lon="6.56381">
        <ele>1801</ele>
        <time>2022-07-24T07:59:26Z</time>
      </trkpt>
      <trkpt lat="45.76066" lon="6.56382">
        <ele>1801</ele>
        <time>2022-07-24T07:59:27Z</time>
      </trkpt>
      <trkpt lat="45.76067" lon="6.56383">
        <ele>1801</ele>
        <time>2022-07-24T07:59:28Z</time>
      </trkpt>
      <trkpt lat="45.76067" lon="6.56384">
        <ele>1801</ele>
        <time>2022-07-24T07:59:29Z</time>
      </trkpt>
      <trkpt lat="45.76068" lon="6.56385">
        <ele>1801</ele>
        <time>2022-07-24T07:59:30Z</time>
      </trkpt>
      <trkpt lat="45.76069" lon="6.56386">
        <ele>1801</ele>
        <time>2022-07-24T07:59:31Z</time>
      </trkpt>
      <trkpt lat="45.7607" lon="6.56387">
        <ele>1801</ele>
        <time>2022-07-24T07:59:32Z</time>
      </trkpt>
      <trkpt lat="45.76071" lon="6.56388">
        <ele>1801</ele>
        <time>2022-07-24T07:59:33Z</time>
      </trkpt>
      <trkpt lat="45.76072" lon="6.56389">
        <ele>1801</ele>
        <time>2022-07-24T07:59:34Z</time>
      </trkpt>
      <trkpt lat="45.76073" lon="6.5639">
        <ele>1801</ele>
        <time>2022-07-24T07:59:35Z</time>
      </trkpt>
      <trkpt lat="45.76074" lon="6.56391">
        <ele>1801</ele>
        <time>2022-07-24T07:59:36Z</time>
      </trkpt>
      <trkpt lat="45.76075" lon="6.56393">
        <ele>1801</ele>
        <time>2022-07-24T07:59:37Z</time>
      </trkpt>
      <trkpt lat="45.76076" lon="6.56394">
        <ele>1801</ele>
        <time>2022-07-24T07:59:38Z</time>
      </trkpt>
      <trkpt lat="45.76077" lon="6.56395">
        <ele>1801</ele>
        <time>2022-07-24T07:59:39Z</time>
      </trkpt>
      <trkpt lat="45.76078" lon="6.56396">
        <ele>1801</ele>
        <time>2022-07-24T07:59:40Z</time>
      </trkpt>
      <trkpt lat="45.76078" lon="6.56398">
        <ele>1801</ele>
        <time>2022-07-24T07:59:41Z</time>
      </trkpt>
      <trkpt lat="45.76079" lon="6.56399">
        <ele>1801</ele>
        <time>2022-07-24T07:59:42Z</time>
      </trkpt>
      <trkpt lat="45.7608" lon="6.564">
        <ele>1801</ele>
        <time>2022-07-24T07:59:43Z</time>
      </trkpt>
      <trkpt lat="45.76081" lon="6.56402">
        <ele>1801</ele>
        <time>2022-07-24T07:59:44Z</time>
      </trkpt>
      <trkpt lat="45.76081" lon="6.56403">
        <ele>1801</ele>
        <time>2022-07-24T07:59:45Z</time>
      </trkpt>
      <trkpt lat="45.76082" lon="6.56404">
        <ele>1801</ele>
        <time>2022-07-24T07:59:46Z</time>
      </trkpt>
      <trkpt lat="45.76083" lon="6.56406">
        <ele>1801</ele>
        <time>2022-07-24T07:59:47Z</time>
      </trkpt>
      <trkpt lat="45.76083" lon="6.56407">
        <ele>1801</ele>
        <time>2022-07-24T07:59:48Z</time>
      </trkpt>
      <trkpt lat="45.76084" lon="6.56408">
        <ele>1801</ele>
        <time>2022-07-24T07:59:49Z</time>
      </trkpt>
      <trkpt lat="45.76084" lon="6.56409">
        <ele>1801</ele>
        <time>2022-07-24T07:59:50Z</time>
      </trkpt>
      <trkpt lat="45.76085" lon="6.5641">
        <ele>1802</ele>
        <time>2022-07-24T07:59:51Z</time>
      </trkpt>
      <trkpt lat="45.76086" lon="6.56411">
        <ele>1802</ele>
        <time>2022-07-24T07:59:52Z</time>
      </trkpt>
      <trkpt lat="45.76086" lon="6.56411">
        <ele>1802</ele>
        <time>2022-07-24T07:59:53Z</time>
      </trkpt>
      <trkpt lat="45.76087" lon="6.56412">
        <ele>1802</ele>
        <time>2022-07-24T07:59:54Z</time>
      </trkpt>
      <trkpt lat="45.76088" lon="6.56413">
        <ele>1802</ele>
        <time>2022-07-24T07:59:55Z</time>
      </trkpt>
      <trkpt lat="45.76088" lon="6.56413">
        <ele>1802</ele>
        <time>2022-07-24T07:59:56Z</time>
      </trkpt>
      <trkpt lat="45.76088" lon="6.56414">
        <ele>1802</ele>
        <time>2022-07-24T07:59:57Z</time>
      </trkpt>
      <trkpt lat="45.76089" lon="6.56414">
        <ele>1802</ele>
        <time>2022-07-24T07:59:58Z</time>
      </trkpt>
      <trkpt lat="45.7609" lon="6.56415">
        <ele>1802</ele>
        <time>2022-07-24T07:59:59Z</time>
      </trkpt>
      <trkpt lat="45.76091" lon="6.56415">
        <ele>1802</ele>
        <time>2022-07-24T08:00:00Z</time>
      </trkpt>
      <trkpt lat="45.76092" lon="6.56415">
        <ele>1802</ele>
        <time>2022-07-24T08:00:01Z</time>
      </trkpt>
      <trkpt lat="45.76093" lon="6.56416">
        <ele>1802</ele>
        <time>2022-07-24T08:00:02Z</time>
      </trkpt>
      <trkpt lat="45.76093" lon="6.56416">
        <ele>1802</ele>
        <time>2022-07-24T08:00:03Z</time>
      </trkpt>
      <trkpt lat="45.76094" lon="6.56417">
        <ele>1802</ele>
        <time>2022-07-24T08:00:04Z</time>
      </trkpt>
      <trkpt lat="45.76094" lon="6.56417">
        <ele>1802</ele>
        <time>2022-07-24T08:00:05Z</time>
      </trkpt>
      <trkpt lat="45.76095" lon="6.56418">
        <ele>1803</ele>
        <time>2022-07-24T08:00:06Z</time>
      </trkpt>
      <trkpt lat="45.76096" lon="6.56418">
        <ele>1803</ele>
        <time>2022-07-24T08:00:07Z</time>
      </trkpt>
      <trkpt lat="45.76096" lon="6.56419">
        <ele>1803</ele>
        <time>2022-07-24T08:00:08Z</time>
      </trkpt>
      <trkpt lat="45.76097" lon="6.56419">
        <ele>1803</ele>
        <time>2022-07-24T08:00:09Z</time>
      </trkpt>
      <trkpt lat="45.76097" lon="6.5642">
        <ele>1803</ele>
        <time>2022-07-24T08:00:10Z</time>
      </trkpt>
      <trkpt lat="45.76098" lon="6.5642">
        <ele>1804</ele>
        <time>2022-07-24T08:00:11Z</time>
      </trkpt>
      <trkpt lat="45.76099" lon="6.5642">
        <ele>1804</ele>
        <time>2022-07-24T08:00:12Z</time>
      </trkpt>
      <trkpt lat="45.76099" lon="6.5642">
        <ele>1804</ele>
        <time>2022-07-24T08:00:13Z</time>
      </trkpt>
      <trkpt lat="45.761" lon="6.56421">
        <ele>1804</ele>
        <time>2022-07-24T08:00:14Z</time>
      </trkpt>
      <trkpt lat="45.76101" lon="6.56421">
        <ele>1804</ele>
        <time>2022-07-24T08:00:15Z</time>
      </trkpt>
      <trkpt lat="45.76102" lon="6.56421">
        <ele>1805</ele>
        <time>2022-07-24T08:00:16Z</time>
      </trkpt>
      <trkpt lat="45.76103" lon="6.56421">
        <ele>1805</ele>
        <time>2022-07-24T08:00:17Z</time>
      </trkpt>
      <trkpt lat="45.76104" lon="6.56421">
        <ele>1805</ele>
        <time>2022-07-24T08:00:18Z</time>
      </trkpt>
      <trkpt lat="45.76104" lon="6.56421">
        <ele>1805</ele>
        <time>2022-07-24T08:00:19Z</time>
      </trkpt>
      <trkpt lat="45.76105" lon="6.56421">
        <ele>1805</ele>
        <time>2022-07-24T08:00:20Z</time>
      </trkpt>
      <trkpt lat="45.76106" lon="6.56421">
        <ele>1805</ele>
        <time>2022-07-24T08:00:21Z</time>
      </trkpt>
      <trkpt lat="45.76107" lon="6.56421">
        <ele>1805</ele>
        <time>2022-07-24T08:00:22Z</time>
      </trkpt>
      <trkpt lat="45.76108" lon="6.56421">
        <ele>1805</ele>
        <time>2022-07-24T08:00:23Z</time>
      </trkpt>
      <trkpt lat="45.76109" lon="6.56422">
        <ele>1805</ele>
        <time>2022-07-24T08:00:24Z</time>
      </trkpt>
      <trkpt lat="45.7611" lon="6.56422">
        <ele>1805</ele>
        <time>2022-07-24T08:00:25Z</time>
      </trkpt>
      <trkpt lat="45.76111" lon="6.56422">
        <ele>1806</ele>
        <time>2022-07-24T08:00:26Z</time>
      </trkpt>
      <trkpt lat="45.76112" lon="6.56422">
        <ele>1806</ele>
        <time>2022-07-24T08:00:27Z</time>
      </trkpt>
      <trkpt lat="45.76113" lon="6.56422">
        <ele>1806</ele>
        <time>2022-07-24T08:00:28Z</time>
      </trkpt>
      <trkpt lat="45.76113" lon="6.56423">
        <ele>1806</ele>
        <time>2022-07-24T08:00:29Z</time>
      </trkpt>
      <trkpt lat="45.76114" lon="6.56423">
        <ele>1806</ele>
        <time>2022-07-24T08:00:30Z</time>
      </trkpt>
      <trkpt lat="45.76115" lon="6.56423">
        <ele>1807</ele>
        <time>2022-07-24T08:00:31Z</time>
      </trkpt>
      <trkpt lat="45.76116" lon="6.56423">
        <ele>1807</ele>
        <time>2022-07-24T08:00:32Z</time>
      </trkpt>
      <trkpt lat="45.76116" lon="6.56423">
        <ele>1807</ele>
        <time>2022-07-24T08:00:33Z</time>
      </trkpt>
      <trkpt lat="45.76117" lon="6.56424">
        <ele>1807</ele>
        <time>2022-07-24T08:00:34Z</time>
      </trkpt>
      <trkpt lat="45.76118" lon="6.56424">
        <ele>1807</ele>
        <time>2022-07-24T08:00:35Z</time>
      </trkpt>
      <trkpt lat="45.76118" lon="6.56424">
        <ele>1807</ele>
        <time>2022-07-24T08:00:36Z</time>
      </trkpt>
      <trkpt lat="45.76119" lon="6.56425">
        <ele>1807</ele>
        <time>2022-07-24T08:00:37Z</time>
      </trkpt>
      <trkpt lat="45.7612" lon="6.56425">
        <ele>1807</ele>
        <time>2022-07-24T08:00:38Z</time>
      </trkpt>
      <trkpt lat="45.7612" lon="6.56426">
        <ele>1807</ele>
        <time>2022-07-24T08:00:39Z</time>
      </trkpt>
      <trkpt lat="45.76121" lon="6.56426">
        <ele>1807</ele>
        <time>2022-07-24T08:00:40Z</time>
      </trkpt>
      <trkpt lat="45.76121" lon="6.56426">
        <ele>1808</ele>
        <time>2022-07-24T08:00:41Z</time>
      </trkpt>
      <trkpt lat="45.76122" lon="6.56427">
        <ele>1808</ele>
        <time>2022-07-24T08:00:42Z</time>
      </trkpt>
      <trkpt lat="45.76123" lon="6.56427">
        <ele>1808</ele>
        <time>2022-07-24T08:00:43Z</time>
      </trkpt>
      <trkpt lat="45.76124" lon="6.56427">
        <ele>1808</ele>
        <time>2022-07-24T08:00:44Z</time>
      </trkpt>
      <trkpt lat="45.76124" lon="6.56428">
        <ele>1808</ele>
        <time>2022-07-24T08:00:45Z</time>
      </trkpt>
      <trkpt lat="45.76125" lon="6.56428">
        <ele>1809</ele>
        <time>2022-07-24T08:00:46Z</time>
      </trkpt>
      <trkpt lat="45.76126" lon="6.56429">
        <ele>1809</ele>
        <time>2022-07-24T08:00:47Z</time>
      </trkpt>
      <trkpt lat="45.76126" lon="6.56429">
        <ele>1809</ele>
        <time>2022-07-24T08:00:48Z</time>
      </trkpt>
      <trkpt lat="45.76127" lon="6.5643">
        <ele>1809</ele>
        <time>2022-07-24T08:00:49Z</time>
      </trkpt>
      <trkpt lat="45.76128" lon="6.5643">
        <ele>1809</ele>
        <time>2022-07-24T08:00:50Z</time>
      </trkpt>
      <trkpt lat="45.76128" lon="6.56431">
        <ele>1810</ele>
        <time>2022-07-24T08:00:51Z</time>
      </trkpt>
      <trkpt lat="45.76129" lon="6.56431">
        <ele>1810</ele>
        <time>2022-07-24T08:00:52Z</time>
      </trkpt>
      <trkpt lat="45.7613" lon="6.56432">
        <ele>1810</ele>
        <time>2022-07-24T08:00:53Z</time>
      </trkpt>
      <trkpt lat="45.7613" lon="6.56432">
        <ele>1810</ele>
        <time>2022-07-24T08:00:54Z</time>
      </trkpt>
      <trkpt lat="45.76131" lon="6.56433">
        <ele>1810</ele>
        <time>2022-07-24T08:00:55Z</time>
      </trkpt>
      <trkpt lat="45.76132" lon="6.56433">
        <ele>1810</ele>
        <time>2022-07-24T08:00:56Z</time>
      </trkpt>
      <trkpt lat="45.76132" lon="6.56433">
        <ele>1810</ele>
        <time>2022-07-24T08:00:57Z</time>
      </trkpt>
      <trkpt lat="45.76133" lon="6.56434">
        <ele>1810</ele>
        <time>2022-07-24T08:00:58Z</time>
      </trkpt>
      <trkpt lat="45.76134" lon="6.56434">
        <ele>1810</ele>
        <time>2022-07-24T08:00:59Z</time>
      </trkpt>
      <trkpt lat="45.76135" lon="6.56434">
        <ele>1810</ele>
        <time>2022-07-24T08:01:00Z</time>
      </trkpt>
      <trkpt lat="45.76136" lon="6.56435">
        <ele>1811</ele>
        <time>2022-07-24T08:01:01Z</time>
      </trkpt>
      <trkpt lat="45.76137" lon="6.56435">
        <ele>1811</ele>
        <time>2022-07-24T08:01:02Z</time>
      </trkpt>
      <trkpt lat="45.76138" lon="6.56436">
        <ele>1811</ele>
        <time>2022-07-24T08:01:03Z</time>
      </trkpt>
      <trkpt lat="45.76139" lon="6.56436">
        <ele>1811</ele>
        <time>2022-07-24T08:01:04Z</time>
      </trkpt>
      <trkpt lat="45.7614" lon="6.56437">
        <ele>1811</ele>
        <time>2022-07-24T08:01:05Z</time>
      </trkpt>
      <trkpt lat="45.7614" lon="6.56438">
        <ele>1812</ele>
        <time>2022-07-24T08:01:06Z</time>
      </trkpt>
      <trkpt lat="45.76141" lon="6.56438">
        <ele>1812</ele>
        <time>2022-07-24T08:01:07Z</time>
      </trkpt>
      <trkpt lat="45.76142" lon="6.56439">
        <ele>1812</ele>
        <time>2022-07-24T08:01:08Z</time>
      </trkpt>
      <trkpt lat="45.76142" lon="6.5644">
        <ele>1812</ele>
        <time>2022-07-24T08:01:09Z</time>
      </trkpt>
      <trkpt lat="45.76143" lon="6.5644">
        <ele>1812</ele>
        <time>2022-07-24T08:01:10Z</time>
      </trkpt>
      <trkpt lat="45.76144" lon="6.56441">
        <ele>1813</ele>
        <time>2022-07-24T08:01:11Z</time>
      </trkpt>
      <trkpt lat="45.76144" lon="6.56441">
        <ele>1813</ele>
        <time>2022-07-24T08:01:12Z</time>
      </trkpt>
      <trkpt lat="45.76145" lon="6.56441">
        <ele>1813</ele>
        <time>2022-07-24T08:01:13Z</time>
      </trkpt>
      <trkpt lat="45.76147" lon="6.56441">
        <ele>1815</ele>
        <time>2022-07-24T08:01:23Z</time>
      </trkpt>
      <trkpt lat="45.76148" lon="6.5644">
        <ele>1815</ele>
        <time>2022-07-24T08:01:24Z</time>
      </trkpt>
      <trkpt lat="45.76149" lon="6.56439">
        <ele>1815</ele>
        <time>2022-07-24T08:01:25Z</time>
      </trkpt>
      <trkpt lat="45.7615" lon="6.56439">
        <ele>1815</ele>
        <time>2022-07-24T08:01:26Z</time>
      </trkpt>
      <trkpt lat="45.76151" lon="6.56438">
        <ele>1815</ele>
        <time>2022-07-24T08:01:27Z</time>
      </trkpt>
      <trkpt lat="45.76151" lon="6.56437">
        <ele>1815</ele>
        <time>2022-07-24T08:01:28Z</time>
      </trkpt>
      <trkpt lat="45.76152" lon="6.56437">
        <ele>1815</ele>
        <time>2022-07-24T08:01:29Z</time>
      </trkpt>
      <trkpt lat="45.76153" lon="6.56437">
        <ele>1815</ele>
        <time>2022-07-24T08:01:30Z</time>
      </trkpt>
      <trkpt lat="45.76154" lon="6.56436">
        <ele>1816</ele>
        <time>2022-07-24T08:01:31Z</time>
      </trkpt>
      <trkpt lat="45.76155" lon="6.56436">
        <ele>1816</ele>
        <time>2022-07-24T08:01:32Z</time>
      </trkpt>
      <trkpt lat="45.76156" lon="6.56436">
        <ele>1816</ele>
        <time>2022-07-24T08:01:33Z</time>
      </trkpt>
      <trkpt lat="45.76157" lon="6.56437">
        <ele>1816</ele>
        <time>2022-07-24T08:01:34Z</time>
      </trkpt>
      <trkpt lat="45.76158" lon="6.56437">
        <ele>1816</ele>
        <time>2022-07-24T08:01:35Z</time>
      </trkpt>
      <trkpt lat="45.76158" lon="6.56438">
        <ele>1817</ele>
        <time>2022-07-24T08:01:36Z</time>
      </trkpt>
      <trkpt lat="45.76159" lon="6.56439">
        <ele>1817</ele>
        <time>2022-07-24T08:01:37Z</time>
      </trkpt>
      <trkpt lat="45.76159" lon="6.56441">
        <ele>1817</ele>
        <time>2022-07-24T08:01:38Z</time>
      </trkpt>
      <trkpt lat="45.76159" lon="6.56442">
        <ele>1817</ele>
        <time>2022-07-24T08:01:39Z</time>
      </trkpt>
      <trkpt lat="45.7616" lon="6.56443">
        <ele>1817</ele>
        <time>2022-07-24T08:01:40Z</time>
      </trkpt>
      <trkpt lat="45.7616" lon="6.56445">
        <ele>1818</ele>
        <time>2022-07-24T08:01:41Z</time>
      </trkpt>
      <trkpt lat="45.76161" lon="6.56446">
        <ele>1818</ele>
        <time>2022-07-24T08:01:42Z</time>
      </trkpt>
      <trkpt lat="45.76161" lon="6.56447">
        <ele>1818</ele>
        <time>2022-07-24T08:01:43Z</time>
      </trkpt>
      <trkpt lat="45.76162" lon="6.56448">
        <ele>1818</ele>
        <time>2022-07-24T08:01:44Z</time>
      </trkpt>
      <trkpt lat="45.76162" lon="6.56449">
        <ele>1818</ele>
        <time>2022-07-24T08:01:45Z</time>
      </trkpt>
      <trkpt lat="45.76163" lon="6.5645">
        <ele>1818</ele>
        <time>2022-07-24T08:01:46Z</time>
      </trkpt>
      <trkpt lat="45.76163" lon="6.5645">
        <ele>1818</ele>
        <time>2022-07-24T08:01:47Z</time>
      </trkpt>
      <trkpt lat="45.76164" lon="6.56451">
        <ele>1818</ele>
        <time>2022-07-24T08:01:48Z</time>
      </trkpt>
      <trkpt lat="45.76164" lon="6.56452">
        <ele>1819</ele>
        <time>2022-07-24T08:01:49Z</time>
      </trkpt>
      <trkpt lat="45.76165" lon="6.56452">
        <ele>1819</ele>
        <time>2022-07-24T08:01:50Z</time>
      </trkpt>
      <trkpt lat="45.76166" lon="6.56453">
        <ele>1820</ele>
        <time>2022-07-24T08:01:51Z</time>
      </trkpt>
      <trkpt lat="45.76166" lon="6.56453">
        <ele>1820</ele>
        <time>2022-07-24T08:01:52Z</time>
      </trkpt>
      <trkpt lat="45.76167" lon="6.56453">
        <ele>1820</ele>
        <time>2022-07-24T08:01:53Z</time>
      </trkpt>
      <trkpt lat="45.76167" lon="6.56454">
        <ele>1820</ele>
        <time>2022-07-24T08:01:54Z</time>
      </trkpt>
      <trkpt lat="45.76168" lon="6.56454">
        <ele>1820</ele>
        <time>2022-07-24T08:01:55Z</time>
      </trkpt>
      <trkpt lat="45.76168" lon="6.56454">
        <ele>1821</ele>
        <time>2022-07-24T08:01:56Z</time>
      </trkpt>
      <trkpt lat="45.76169" lon="6.56454">
        <ele>1821</ele>
        <time>2022-07-24T08:01:57Z</time>
      </trkpt>
      <trkpt lat="45.7617" lon="6.56454">
        <ele>1821</ele>
        <time>2022-07-24T08:01:58Z</time>
      </trkpt>
      <trkpt lat="45.7617" lon="6.56454">
        <ele>1821</ele>
        <time>2022-07-24T08:01:59Z</time>
      </trkpt>
      <trkpt lat="45.76172" lon="6.56455">
        <ele>1824</ele>
        <time>2022-07-24T08:02:30Z</time>
      </trkpt>
      <trkpt lat="45.76173" lon="6.56455">
        <ele>1824</ele>
        <time>2022-07-24T08:02:31Z</time>
      </trkpt>
      <trkpt lat="45.76174" lon="6.56455">
        <ele>1824</ele>
        <time>2022-07-24T08:02:32Z</time>
      </trkpt>
      <trkpt lat="45.76174" lon="6.56455">
        <ele>1824</ele>
        <time>2022-07-24T08:02:33Z</time>
      </trkpt>
      <trkpt lat="45.76175" lon="6.56455">
        <ele>1824</ele>
        <time>2022-07-24T08:02:34Z</time>
      </trkpt>
      <trkpt lat="45.76176" lon="6.56455">
        <ele>1824</ele>
        <time>2022-07-24T08:02:35Z</time>
      </trkpt>
      <trkpt lat="45.76176" lon="6.56454">
        <ele>1825</ele>
        <time>2022-07-24T08:02:36Z</time>
      </trkpt>
      <trkpt lat="45.76177" lon="6.56453">
        <ele>1825</ele>
        <time>2022-07-24T08:02:37Z</time>
      </trkpt>
      <trkpt lat="45.76178" lon="6.56453">
        <ele>1825</ele>
        <time>2022-07-24T08:02:38Z</time>
      </trkpt>
      <trkpt lat="45.76181" lon="6.56452">
        <ele>1826</ele>
        <time>2022-07-24T08:04:35Z</time>
      </trkpt>
      <trkpt lat="45.76182" lon="6.56452">
        <ele>1826</ele>
        <time>2022-07-24T08:04:36Z</time>
      </trkpt>
      <trkpt lat="45.76183" lon="6.56452">
        <ele>1826</ele>
        <time>2022-07-24T08:04:37Z</time>
      </trkpt>
      <trkpt lat="45.76184" lon="6.56453">
        <ele>1826</ele>
        <time>2022-07-24T08:04:38Z</time>
      </trkpt>
      <trkpt lat="45.76185" lon="6.56453">
        <ele>1826</ele>
        <time>2022-07-24T08:04:39Z</time>
      </trkpt>
      <trkpt lat="45.76186" lon="6.56454">
        <ele>1826</ele>
        <time>2022-07-24T08:04:40Z</time>
      </trkpt>
      <trkpt lat="45.76186" lon="6.56455">
        <ele>1827</ele>
        <time>2022-07-24T08:04:41Z</time>
      </trkpt>
      <trkpt lat="45.76187" lon="6.56456">
        <ele>1827</ele>
        <time>2022-07-24T08:04:42Z</time>
      </trkpt>
      <trkpt lat="45.76187" lon="6.56457">
        <ele>1827</ele>
        <time>2022-07-24T08:04:43Z</time>
      </trkpt>
      <trkpt lat="45.76188" lon="6.56458">
        <ele>1827</ele>
        <time>2022-07-24T08:04:44Z</time>
      </trkpt>
      <trkpt lat="45.76188" lon="6.56459">
        <ele>1827</ele>
        <time>2022-07-24T08:04:45Z</time>
      </trkpt>
      <trkpt lat="45.76189" lon="6.5646">
        <ele>1827</ele>
        <time>2022-07-24T08:04:46Z</time>
      </trkpt>
      <trkpt lat="45.76189" lon="6.5646">
        <ele>1827</ele>
        <time>2022-07-24T08:04:47Z</time>
      </trkpt>
      <trkpt lat="45.7619" lon="6.56461">
        <ele>1827</ele>
        <time>2022-07-24T08:04:48Z</time>
      </trkpt>
      <trkpt lat="45.7619" lon="6.56462">
        <ele>1827</ele>
        <time>2022-07-24T08:04:49Z</time>
      </trkpt>
      <trkpt lat="45.76191" lon="6.56463">
        <ele>1827</ele>
        <time>2022-07-24T08:04:50Z</time>
      </trkpt>
      <trkpt lat="45.76191" lon="6.56464">
        <ele>1827</ele>
        <time>2022-07-24T08:04:51Z</time>
      </trkpt>
      <trkpt lat="45.76192" lon="6.56465">
        <ele>1827</ele>
        <time>2022-07-24T08:04:52Z</time>
      </trkpt>
      <trkpt lat="45.76192" lon="6.56465">
        <ele>1827</ele>
        <time>2022-07-24T08:04:53Z</time>
      </trkpt>
      <trkpt lat="45.76193" lon="6.56466">
        <ele>1827</ele>
        <time>2022-07-24T08:04:54Z</time>
      </trkpt>
      <trkpt lat="45.76194" lon="6.56467">
        <ele>1827</ele>
        <time>2022-07-24T08:04:55Z</time>
      </trkpt>
      <trkpt lat="45.76194" lon="6.56467">
        <ele>1827</ele>
        <time>2022-07-24T08:04:56Z</time>
      </trkpt>
      <trkpt lat="45.76195" lon="6.56468">
        <ele>1827</ele>
        <time>2022-07-24T08:04:57Z</time>
      </trkpt>
      <trkpt lat="45.76195" lon="6.56469">
        <ele>1827</ele>
        <time>2022-07-24T08:04:58Z</time>
      </trkpt>
      <trkpt lat="45.76196" lon="6.5647">
        <ele>1827</ele>
        <time>2022-07-24T08:04:59Z</time>
      </trkpt>
      <trkpt lat="45.76196" lon="6.56471">
        <ele>1827</ele>
        <time>2022-07-24T08:05:00Z</time>
      </trkpt>
      <trkpt lat="45.76197" lon="6.56472">
        <ele>1828</ele>
        <time>2022-07-24T08:05:01Z</time>
      </trkpt>
      <trkpt lat="45.76197" lon="6.56473">
        <ele>1828</ele>
        <time>2022-07-24T08:05:02Z</time>
      </trkpt>
      <trkpt lat="45.76197" lon="6.56474">
        <ele>1828</ele>
        <time>2022-07-24T08:05:03Z</time>
      </trkpt>
      <trkpt lat="45.76198" lon="6.56475">
        <ele>1828</ele>
        <time>2022-07-24T08:05:04Z</time>
      </trkpt>
      <trkpt lat="45.76198" lon="6.56476">
        <ele>1828</ele>
        <time>2022-07-24T08:05:05Z</time>
      </trkpt>
      <trkpt lat="45.76199" lon="6.56477">
        <ele>1828</ele>
        <time>2022-07-24T08:05:06Z</time>
      </trkpt>
      <trkpt lat="45.76199" lon="6.56478">
        <ele>1828</ele>
        <time>2022-07-24T08:05:07Z</time>
      </trkpt>
      <trkpt lat="45.762" lon="6.56479">
        <ele>1828</ele>
        <time>2022-07-24T08:05:08Z</time>
      </trkpt>
      <trkpt lat="45.762" lon="6.5648">
        <ele>1828</ele>
        <time>2022-07-24T08:05:09Z</time>
      </trkpt>
      <trkpt lat="45.76201" lon="6.56481">
        <ele>1828</ele>
        <time>2022-07-24T08:05:10Z</time>
      </trkpt>
      <trkpt lat="45.76201" lon="6.56482">
        <ele>1828</ele>
        <time>2022-07-24T08:05:11Z</time>
      </trkpt>
      <trkpt lat="45.76202" lon="6.56482">
        <ele>1828</ele>
        <time>2022-07-24T08:05:12Z</time>
      </trkpt>
      <trkpt lat="45.76202" lon="6.56482">
        <ele>1828</ele>
        <time>2022-07-24T08:05:13Z</time>
      </trkpt>
      <trkpt lat="45.76202" lon="6.56482">
        <ele>1828</ele>
        <time>2022-07-24T08:05:14Z</time>
      </trkpt>
      <trkpt lat="45.76202" lon="6.56483">
        <ele>1828</ele>
        <time>2022-07-24T08:05:15Z</time>
      </trkpt>
      <trkpt lat="45.76203" lon="6.56483">
        <ele>1828</ele>
        <time>2022-07-24T08:05:16Z</time>
      </trkpt>
      <trkpt lat="45.76203" lon="6.56484">
        <ele>1827</ele>
        <time>2022-07-24T08:05:17Z</time>
      </trkpt>
      <trkpt lat="45.76203" lon="6.56484">
        <ele>1827</ele>
        <time>2022-07-24T08:05:35Z</time>
      </trkpt>
      <trkpt lat="45.76203" lon="6.56484">
        <ele>1828</ele>
        <time>2022-07-24T08:05:36Z</time>
      </trkpt>
      <trkpt lat="45.76204" lon="6.56485">
        <ele>1827</ele>
        <time>2022-07-24T08:05:37Z</time>
      </trkpt>
      <trkpt lat="45.76204" lon="6.56485">
        <ele>1827</ele>
        <time>2022-07-24T08:05:38Z</time>
      </trkpt>
      <trkpt lat="45.76204" lon="6.56486">
        <ele>1827</ele>
        <time>2022-07-24T08:05:39Z</time>
      </trkpt>
      <trkpt lat="45.76205" lon="6.56487">
        <ele>1827</ele>
        <time>2022-07-24T08:05:40Z</time>
      </trkpt>
      <trkpt lat="45.76206" lon="6.56488">
        <ele>1827</ele>
        <time>2022-07-24T08:05:41Z</time>
      </trkpt>
      <trkpt lat="45.76206" lon="6.5649">
        <ele>1827</ele>
        <time>2022-07-24T08:05:42Z</time>
      </trkpt>
      <trkpt lat="45.76207" lon="6.56491">
        <ele>1827</ele>
        <time>2022-07-24T08:05:43Z</time>
      </trkpt>
      <trkpt lat="45.76207" lon="6.56492">
        <ele>1827</ele>
        <time>2022-07-24T08:05:44Z</time>
      </trkpt>
      <trkpt lat="45.76208" lon="6.56494">
        <ele>1827</ele>
        <time>2022-07-24T08:05:45Z</time>
      </trkpt>
      <trkpt lat="45.76209" lon="6.56495">
        <ele>1828</ele>
        <time>2022-07-24T08:05:46Z</time>
      </trkpt>
      <trkpt lat="45.76209" lon="6.56496">
        <ele>1827</ele>
        <time>2022-07-24T08:05:47Z</time>
      </trkpt>
      <trkpt lat="45.7621" lon="6.56497">
        <ele>1827</ele>
        <time>2022-07-24T08:05:48Z</time>
      </trkpt>
      <trkpt lat="45.76211" lon="6.56498">
        <ele>1827</ele>
        <time>2022-07-24T08:05:49Z</time>
      </trkpt>
      <trkpt lat="45.76212" lon="6.56499">
        <ele>1827</ele>
        <time>2022-07-24T08:05:50Z</time>
      </trkpt>
      <trkpt lat="45.76212" lon="6.565">
        <ele>1827</ele>
        <time>2022-07-24T08:05:51Z</time>
      </trkpt>
      <trkpt lat="45.76213" lon="6.565">
        <ele>1827</ele>
        <time>2022-07-24T08:05:52Z</time>
      </trkpt>
      <trkpt lat="45.76214" lon="6.56501">
        <ele>1827</ele>
        <time>2022-07-24T08:05:53Z</time>
      </trkpt>
      <trkpt lat="45.76215" lon="6.56502">
        <ele>1827</ele>
        <time>2022-07-24T08:05:54Z</time>
      </trkpt>
      <trkpt lat="45.76215" lon="6.56503">
        <ele>1827</ele>
        <time>2022-07-24T08:05:55Z</time>
      </trkpt>
      <trkpt lat="45.76216" lon="6.56504">
        <ele>1827</ele>
        <time>2022-07-24T08:05:56Z</time>
      </trkpt>
      <trkpt lat="45.76217" lon="6.56505">
        <ele>1826</ele>
        <time>2022-07-24T08:05:57Z</time>
      </trkpt>
      <trkpt lat="45.76218" lon="6.56506">
        <ele>1826</ele>
        <time>2022-07-24T08:05:58Z</time>
      </trkpt>
      <trkpt lat="45.76219" lon="6.56507">
        <ele>1826</ele>
        <time>2022-07-24T08:05:59Z</time>
      </trkpt>
      <trkpt lat="45.7622" lon="6.56508">
        <ele>1826</ele>
        <time>2022-07-24T08:06:00Z</time>
      </trkpt>
      <trkpt lat="45.76221" lon="6.56509">
        <ele>1826</ele>
        <time>2022-07-24T08:06:01Z</time>
      </trkpt>
      <trkpt lat="45.76222" lon="6.5651">
        <ele>1826</ele>
        <time>2022-07-24T08:06:02Z</time>
      </trkpt>
      <trkpt lat="45.76223" lon="6.56511">
        <ele>1826</ele>
        <time>2022-07-24T08:06:03Z</time>
      </trkpt>
      <trkpt lat="45.76223" lon="6.56512">
        <ele>1826</ele>
        <time>2022-07-24T08:06:04Z</time>
      </trkpt>
      <trkpt lat="45.76224" lon="6.56512">
        <ele>1826</ele>
        <time>2022-07-24T08:06:05Z</time>
      </trkpt>
      <trkpt lat="45.76225" lon="6.56513">
        <ele>1826</ele>
        <time>2022-07-24T08:06:06Z</time>
      </trkpt>
      <trkpt lat="45.76226" lon="6.56514">
        <ele>1825</ele>
        <time>2022-07-24T08:06:07Z</time>
      </trkpt>
      <trkpt lat="45.76227" lon="6.56515">
        <ele>1825</ele>
        <time>2022-07-24T08:06:08Z</time>
      </trkpt>
      <trkpt lat="45.76228" lon="6.56516">
        <ele>1825</ele>
        <time>2022-07-24T08:06:09Z</time>
      </trkpt>
      <trkpt lat="45.76229" lon="6.56517">
        <ele>1825</ele>
        <time>2022-07-24T08:06:10Z</time>
      </trkpt>
      <trkpt lat="45.76229" lon="6.56518">
        <ele>1825</ele>
        <time>2022-07-24T08:06:11Z</time>
      </trkpt>
      <trkpt lat="45.7623" lon="6.5652">
        <ele>1824</ele>
        <time>2022-07-24T08:06:12Z</time>
      </trkpt>
      <trkpt lat="45.7623" lon="6.56521">
        <ele>1824</ele>
        <time>2022-07-24T08:06:13Z</time>
      </trkpt>
      <trkpt lat="45.76231" lon="6.56523">
        <ele>1824</ele>
        <time>2022-07-24T08:06:14Z</time>
      </trkpt>
      <trkpt lat="45.76231" lon="6.56524">
        <ele>1824</ele>
        <time>2022-07-24T08:06:15Z</time>
      </trkpt>
      <trkpt lat="45.76231" lon="6.56526">
        <ele>1824</ele>
        <time>2022-07-24T08:06:16Z</time>
      </trkpt>
      <trkpt lat="45.76232" lon="6.56527">
        <ele>1824</ele>
        <time>2022-07-24T08:06:17Z</time>
      </trkpt>
      <trkpt lat="45.76232" lon="6.56529">
        <ele>1824</ele>
        <time>2022-07-24T08:06:18Z</time>
      </trkpt>
      <trkpt lat="45.76232" lon="6.5653">
        <ele>1824</ele>
        <time>2022-07-24T08:06:19Z</time>
      </trkpt>
      <trkpt lat="45.76233" lon="6.56532">
        <ele>1824</ele>
        <time>2022-07-24T08:06:20Z</time>
      </trkpt>
      <trkpt lat="45.76233" lon="6.56534">
        <ele>1824</ele>
        <time>2022-07-24T08:06:21Z</time>
      </trkpt>
      <trkpt lat="45.76234" lon="6.56535">
        <ele>1823</ele>
        <time>2022-07-24T08:06:22Z</time>
      </trkpt>
      <trkpt lat="45.76235" lon="6.56536">
        <ele>1823</ele>
        <time>2022-07-24T08:06:23Z</time>
      </trkpt>
      <trkpt lat="45.76236" lon="6.56537">
        <ele>1823</ele>
        <time>2022-07-24T08:06:24Z</time>
      </trkpt>
      <trkpt lat="45.76237" lon="6.56538">
        <ele>1823</ele>
        <time>2022-07-24T08:06:25Z</time>
      </trkpt>
      <trkpt lat="45.76238" lon="6.56539">
        <ele>1823</ele>
        <time>2022-07-24T08:06:26Z</time>
      </trkpt>
      <trkpt lat="45.76239" lon="6.5654">
        <ele>1822</ele>
        <time>2022-07-24T08:06:27Z</time>
      </trkpt>
      <trkpt lat="45.76239" lon="6.56541">
        <ele>1822</ele>
        <time>2022-07-24T08:06:28Z</time>
      </trkpt>
      <trkpt lat="45.7624" lon="6.56542">
        <ele>1822</ele>
        <time>2022-07-24T08:06:29Z</time>
      </trkpt>
      <trkpt lat="45.7624" lon="6.56543">
        <ele>1822</ele>
        <time>2022-07-24T08:06:30Z</time>
      </trkpt>
      <trkpt lat="45.76241" lon="6.56544">
        <ele>1822</ele>
        <time>2022-07-24T08:06:31Z</time>
      </trkpt>
      <trkpt lat="45.76241" lon="6.56545">
        <ele>1821</ele>
        <time>2022-07-24T08:06:32Z</time>
      </trkpt>
      <trkpt lat="45.76241" lon="6.56546">
        <ele>1821</ele>
        <time>2022-07-24T08:06:33Z</time>
      </trkpt>
      <trkpt lat="45.76241" lon="6.56548">
        <ele>1821</ele>
        <time>2022-07-24T08:06:34Z</time>
      </trkpt>
      <trkpt lat="45.76241" lon="6.56549">
        <ele>1821</ele>
        <time>2022-07-24T08:06:35Z</time>
      </trkpt>
      <trkpt lat="45.76242" lon="6.56551">
        <ele>1821</ele>
        <time>2022-07-24T08:06:36Z</time>
      </trkpt>
      <trkpt lat="45.76242" lon="6.56552">
        <ele>1820</ele>
        <time>2022-07-24T08:06:37Z</time>
      </trkpt>
      <trkpt lat="45.76242" lon="6.56554">
        <ele>1820</ele>
        <time>2022-07-24T08:06:38Z</time>
      </trkpt>
      <trkpt lat="45.76243" lon="6.56555">
        <ele>1820</ele>
        <time>2022-07-24T08:06:39Z</time>
      </trkpt>
      <trkpt lat="45.76243" lon="6.56556">
        <ele>1820</ele>
        <time>2022-07-24T08:06:40Z</time>
      </trkpt>
      <trkpt lat="45.76244" lon="6.56558">
        <ele>1820</ele>
        <time>2022-07-24T08:06:41Z</time>
      </trkpt>
      <trkpt lat="45.76244" lon="6.56559">
        <ele>1819</ele>
        <time>2022-07-24T08:06:42Z</time>
      </trkpt>
      <trkpt lat="45.76245" lon="6.5656">
        <ele>1819</ele>
        <time>2022-07-24T08:06:43Z</time>
      </trkpt>
      <trkpt lat="45.76245" lon="6.56561">
        <ele>1818</ele>
        <time>2022-07-24T08:06:44Z</time>
      </trkpt>
      <trkpt lat="45.76246" lon="6.56562">
        <ele>1818</ele>
        <time>2022-07-24T08:06:45Z</time>
      </trkpt>
      <trkpt lat="45.76247" lon="6.56562">
        <ele>1818</ele>
        <time>2022-07-24T08:06:46Z</time>
      </trkpt>
      <trkpt lat="45.76247" lon="6.56563">
        <ele>1817</ele>
        <time>2022-07-24T08:06:47Z</time>
      </trkpt>
      <trkpt lat="45.76248" lon="6.56564">
        <ele>1817</ele>
        <time>2022-07-24T08:06:48Z</time>
      </trkpt>
      <trkpt lat="45.76249" lon="6.56565">
        <ele>1817</ele>
        <time>2022-07-24T08:06:49Z</time>
      </trkpt>
      <trkpt lat="45.76249" lon="6.56566">
        <ele>1817</ele>
        <time>2022-07-24T08:06:50Z</time>
      </trkpt>
      <trkpt lat="45.7625" lon="6.56567">
        <ele>1817</ele>
        <time>2022-07-24T08:06:51Z</time>
      </trkpt>
      <trkpt lat="45.7625" lon="6.56568">
        <ele>1816</ele>
        <time>2022-07-24T08:06:52Z</time>
      </trkpt>
      <trkpt lat="45.76251" lon="6.56569">
        <ele>1816</ele>
        <time>2022-07-24T08:06:53Z</time>
      </trkpt>
      <trkpt lat="45.76251" lon="6.5657">
        <ele>1816</ele>
        <time>2022-07-24T08:06:54Z</time>
      </trkpt>
      <trkpt lat="45.76251" lon="6.56571">
        <ele>1816</ele>
        <time>2022-07-24T08:06:55Z</time>
      </trkpt>
      <trkpt lat="45.76252" lon="6.56572">
        <ele>1816</ele>
        <time>2022-07-24T08:06:56Z</time>
      </trkpt>
      <trkpt lat="45.76252" lon="6.56573">
        <ele>1815</ele>
        <time>2022-07-24T08:06:57Z</time>
      </trkpt>
      <trkpt lat="45.76252" lon="6.56574">
        <ele>1815</ele>
        <time>2022-07-24T08:06:58Z</time>
      </trkpt>
      <trkpt lat="45.76252" lon="6.56575">
        <ele>1815</ele>
        <time>2022-07-24T08:06:59Z</time>
      </trkpt>
      <trkpt lat="45.76253" lon="6.56577">
        <ele>1815</ele>
        <time>2022-07-24T08:07:00Z</time>
      </trkpt>
      <trkpt lat="45.76253" lon="6.56578">
        <ele>1815</ele>
        <time>2022-07-24T08:07:01Z</time>
      </trkpt>
      <trkpt lat="45.76253" lon="6.56579">
        <ele>1814</ele>
        <time>2022-07-24T08:07:02Z</time>
      </trkpt>
      <trkpt lat="45.76253" lon="6.5658">
        <ele>1814</ele>
        <time>2022-07-24T08:07:03Z</time>
      </trkpt>
      <trkpt lat="45.76254" lon="6.56581">
        <ele>1814</ele>
        <time>2022-07-24T08:07:04Z</time>
      </trkpt>
      <trkpt lat="45.76254" lon="6.56582">
        <ele>1814</ele>
        <time>2022-07-24T08:07:05Z</time>
      </trkpt>
      <trkpt lat="45.76255" lon="6.56584">
        <ele>1814</ele>
        <time>2022-07-24T08:07:06Z</time>
      </trkpt>
      <trkpt lat="45.76255" lon="6.56585">
        <ele>1813</ele>
        <time>2022-07-24T08:07:07Z</time>
      </trkpt>
      <trkpt lat="45.76256" lon="6.56586">
        <ele>1813</ele>
        <time>2022-07-24T08:07:08Z</time>
      </trkpt>
      <trkpt lat="45.76256" lon="6.56587">
        <ele>1813</ele>
        <time>2022-07-24T08:07:09Z</time>
      </trkpt>
      <trkpt lat="45.76257" lon="6.56589">
        <ele>1813</ele>
        <time>2022-07-24T08:07:10Z</time>
      </trkpt>
      <trkpt lat="45.76257" lon="6.5659">
        <ele>1813</ele>
        <time>2022-07-24T08:07:11Z</time>
      </trkpt>
      <trkpt lat="45.76258" lon="6.56592">
        <ele>1812</ele>
        <time>2022-07-24T08:07:12Z</time>
      </trkpt>
      <trkpt lat="45.76258" lon="6.56594">
        <ele>1812</ele>
        <time>2022-07-24T08:07:13Z</time>
      </trkpt>
      <trkpt lat="45.76258" lon="6.56595">
        <ele>1811</ele>
        <time>2022-07-24T08:07:14Z</time>
      </trkpt>
      <trkpt lat="45.76259" lon="6.56597">
        <ele>1811</ele>
        <time>2022-07-24T08:07:15Z</time>
      </trkpt>
      <trkpt lat="45.76259" lon="6.56599">
        <ele>1811</ele>
        <time>2022-07-24T08:07:16Z</time>
      </trkpt>
      <trkpt lat="45.76259" lon="6.56601">
        <ele>1810</ele>
        <time>2022-07-24T08:07:17Z</time>
      </trkpt>
      <trkpt lat="45.7626" lon="6.56602">
        <ele>1810</ele>
        <time>2022-07-24T08:07:18Z</time>
      </trkpt>
      <trkpt lat="45.7626" lon="6.56604">
        <ele>1810</ele>
        <time>2022-07-24T08:07:19Z</time>
      </trkpt>
      <trkpt lat="45.76261" lon="6.56605">
        <ele>1810</ele>
        <time>2022-07-24T08:07:20Z</time>
      </trkpt>
      <trkpt lat="45.76262" lon="6.56606">
        <ele>1810</ele>
        <time>2022-07-24T08:07:21Z</time>
      </trkpt>
      <trkpt lat="45.76262" lon="6.56608">
        <ele>1810</ele>
        <time>2022-07-24T08:07:22Z</time>
      </trkpt>
      <trkpt lat="45.76263" lon="6.56609">
        <ele>1810</ele>
        <time>2022-07-24T08:07:23Z</time>
      </trkpt>
      <trkpt lat="45.76264" lon="6.5661">
        <ele>1810</ele>
        <time>2022-07-24T08:07:24Z</time>
      </trkpt>
      <trkpt lat="45.76265" lon="6.56612">
        <ele>1810</ele>
        <time>2022-07-24T08:07:25Z</time>
      </trkpt>
      <trkpt lat="45.76265" lon="6.56613">
        <ele>1810</ele>
        <time>2022-07-24T08:07:26Z</time>
      </trkpt>
      <trkpt lat="45.76266" lon="6.56614">
        <ele>1809</ele>
        <time>2022-07-24T08:07:27Z</time>
      </trkpt>
      <trkpt lat="45.76266" lon="6.56615">
        <ele>1809</ele>
        <time>2022-07-24T08:07:28Z</time>
      </trkpt>
      <trkpt lat="45.76267" lon="6.56617">
        <ele>1809</ele>
        <time>2022-07-24T08:07:29Z</time>
      </trkpt>
      <trkpt lat="45.76268" lon="6.56618">
        <ele>1809</ele>
        <time>2022-07-24T08:07:30Z</time>
      </trkpt>
      <trkpt lat="45.76268" lon="6.56619">
        <ele>1809</ele>
        <time>2022-07-24T08:07:31Z</time>
      </trkpt>
      <trkpt lat="45.76269" lon="6.56621">
        <ele>1809</ele>
        <time>2022-07-24T08:07:32Z</time>
      </trkpt>
      <trkpt lat="45.76269" lon="6.56622">
        <ele>1809</ele>
        <time>2022-07-24T08:07:33Z</time>
      </trkpt>
      <trkpt lat="45.7627" lon="6.56623">
        <ele>1809</ele>
        <time>2022-07-24T08:07:34Z</time>
      </trkpt>
      <trkpt lat="45.76271" lon="6.56624">
        <ele>1809</ele>
        <time>2022-07-24T08:07:35Z</time>
      </trkpt>
      <trkpt lat="45.76271" lon="6.56625">
        <ele>1809</ele>
        <time>2022-07-24T08:07:36Z</time>
      </trkpt>
      <trkpt lat="45.76272" lon="6.56627">
        <ele>1809</ele>
        <time>2022-07-24T08:07:37Z</time>
      </trkpt>
      <trkpt lat="45.76272" lon="6.56628">
        <ele>1809</ele>
        <time>2022-07-24T08:07:38Z</time>
      </trkpt>
      <trkpt lat="45.76273" lon="6.5663">
        <ele>1809</ele>
        <time>2022-07-24T08:07:39Z</time>
      </trkpt>
      <trkpt lat="45.76274" lon="6.56631">
        <ele>1809</ele>
        <time>2022-07-24T08:07:40Z</time>
      </trkpt>
      <trkpt lat="45.76274" lon="6.56633">
        <ele>1809</ele>
        <time>2022-07-24T08:07:41Z</time>
      </trkpt>
      <trkpt lat="45.76275" lon="6.56634">
        <ele>1808</ele>
        <time>2022-07-24T08:07:42Z</time>
      </trkpt>
      <trkpt lat="45.76276" lon="6.56635">
        <ele>1808</ele>
        <time>2022-07-24T08:07:43Z</time>
      </trkpt>
      <trkpt lat="45.76276" lon="6.56636">
        <ele>1808</ele>
        <time>2022-07-24T08:07:44Z</time>
      </trkpt>
      <trkpt lat="45.76277" lon="6.56637">
        <ele>1808</ele>
        <time>2022-07-24T08:07:45Z</time>
      </trkpt>
      <trkpt lat="45.76278" lon="6.56637">
        <ele>1808</ele>
        <time>2022-07-24T08:07:46Z</time>
      </trkpt>
      <trkpt lat="45.76279" lon="6.56638">
        <ele>1808</ele>
        <time>2022-07-24T08:07:47Z</time>
      </trkpt>
      <trkpt lat="45.76281" lon="6.56638">
        <ele>1808</ele>
        <time>2022-07-24T08:07:48Z</time>
      </trkpt>
      <trkpt lat="45.76282" lon="6.56638">
        <ele>1808</ele>
        <time>2022-07-24T08:07:49Z</time>
      </trkpt>
      <trkpt lat="45.76283" lon="6.56638">
        <ele>1808</ele>
        <time>2022-07-24T08:07:50Z</time>
      </trkpt>
      <trkpt lat="45.76284" lon="6.56638">
        <ele>1808</ele>
        <time>2022-07-24T08:07:51Z</time>
      </trkpt>
      <trkpt lat="45.76285" lon="6.56639">
        <ele>1808</ele>
        <time>2022-07-24T08:07:52Z</time>
      </trkpt>
      <trkpt lat="45.76286" lon="6.56639">
        <ele>1808</ele>
        <time>2022-07-24T08:07:53Z</time>
      </trkpt>
      <trkpt lat="45.76287" lon="6.5664">
        <ele>1808</ele>
        <time>2022-07-24T08:07:54Z</time>
      </trkpt>
      <trkpt lat="45.76288" lon="6.56641">
        <ele>1808</ele>
        <time>2022-07-24T08:07:55Z</time>
      </trkpt>
      <trkpt lat="45.76289" lon="6.56642">
        <ele>1808</ele>
        <time>2022-07-24T08:07:56Z</time>
      </trkpt>
      <trkpt lat="45.7629" lon="6.56643">
        <ele>1808</ele>
        <time>2022-07-24T08:07:57Z</time>
      </trkpt>
      <trkpt lat="45.76291" lon="6.56644">
        <ele>1808</ele>
        <time>2022-07-24T08:07:58Z</time>
      </trkpt>
      <trkpt lat="45.76292" lon="6.56646">
        <ele>1808</ele>
        <time>2022-07-24T08:07:59Z</time>
      </trkpt>
      <trkpt lat="45.76293" lon="6.56647">
        <ele>1808</ele>
        <time>2022-07-24T08:08:00Z</time>
      </trkpt>
      <trkpt lat="45.76294" lon="6.56649">
        <ele>1808</ele>
        <time>2022-07-24T08:08:01Z</time>
      </trkpt>
      <trkpt lat="45.76295" lon="6.5665">
        <ele>1807</ele>
        <time>2022-07-24T08:08:02Z</time>
      </trkpt>
      <trkpt lat="45.76296" lon="6.56651">
        <ele>1807</ele>
        <time>2022-07-24T08:08:03Z</time>
      </trkpt>
      <trkpt lat="45.76297" lon="6.56653">
        <ele>1807</ele>
        <time>2022-07-24T08:08:04Z</time>
      </trkpt>
      <trkpt lat="45.76298" lon="6.56654">
        <ele>1807</ele>
        <time>2022-07-24T08:08:05Z</time>
      </trkpt>
      <trkpt lat="45.76299" lon="6.56656">
        <ele>1807</ele>
        <time>2022-07-24T08:08:06Z</time>
      </trkpt>
      <trkpt lat="45.76299" lon="6.56657">
        <ele>1807</ele>
        <time>2022-07-24T08:08:07Z</time>
      </trkpt>
      <trkpt lat="45.763" lon="6.56659">
        <ele>1807</ele>
        <time>2022-07-24T08:08:08Z</time>
      </trkpt>
      <trkpt lat="45.76301" lon="6.5666">
        <ele>1807</ele>
        <time>2022-07-24T08:08:09Z</time>
      </trkpt>
      <trkpt lat="45.76302" lon="6.56661">
        <ele>1807</ele>
        <time>2022-07-24T08:08:10Z</time>
      </trkpt>
      <trkpt lat="45.76303" lon="6.56663">
        <ele>1807</ele>
        <time>2022-07-24T08:08:11Z</time>
      </trkpt>
      <trkpt lat="45.76304" lon="6.56664">
        <ele>1807</ele>
        <time>2022-07-24T08:08:12Z</time>
      </trkpt>
      <trkpt lat="45.76304" lon="6.56665">
        <ele>1807</ele>
        <time>2022-07-24T08:08:13Z</time>
      </trkpt>
      <trkpt lat="45.76305" lon="6.56667">
        <ele>1807</ele>
        <time>2022-07-24T08:08:14Z</time>
      </trkpt>
      <trkpt lat="45.76306" lon="6.56668">
        <ele>1807</ele>
        <time>2022-07-24T08:08:15Z</time>
      </trkpt>
      <trkpt lat="45.76307" lon="6.5667">
        <ele>1807</ele>
        <time>2022-07-24T08:08:16Z</time>
      </trkpt>
      <trkpt lat="45.76308" lon="6.56671">
        <ele>1807</ele>
        <time>2022-07-24T08:08:17Z</time>
      </trkpt>
      <trkpt lat="45.76308" lon="6.56672">
        <ele>1807</ele>
        <time>2022-07-24T08:08:18Z</time>
      </trkpt>
      <trkpt lat="45.76309" lon="6.56674">
        <ele>1807</ele>
        <time>2022-07-24T08:08:19Z</time>
      </trkpt>
      <trkpt lat="45.7631" lon="6.56675">
        <ele>1807</ele>
        <time>2022-07-24T08:08:20Z</time>
      </trkpt>
      <trkpt lat="45.76311" lon="6.56676">
        <ele>1807</ele>
        <time>2022-07-24T08:08:21Z</time>
      </trkpt>
      <trkpt lat="45.76311" lon="6.56677">
        <ele>1807</ele>
        <time>2022-07-24T08:08:22Z</time>
      </trkpt>
      <trkpt lat="45.76312" lon="6.56679">
        <ele>1807</ele>
        <time>2022-07-24T08:08:23Z</time>
      </trkpt>
      <trkpt lat="45.76313" lon="6.5668">
        <ele>1807</ele>
        <time>2022-07-24T08:08:24Z</time>
      </trkpt>
      <trkpt lat="45.76314" lon="6.56681">
        <ele>1807</ele>
        <time>2022-07-24T08:08:25Z</time>
      </trkpt>
      <trkpt lat="45.76314" lon="6.56682">
        <ele>1807</ele>
        <time>2022-07-24T08:08:26Z</time>
      </trkpt>
      <trkpt lat="45.76315" lon="6.56683">
        <ele>1807</ele>
        <time>2022-07-24T08:08:27Z</time>
      </trkpt>
      <trkpt lat="45.76316" lon="6.56684">
        <ele>1807</ele>
        <time>2022-07-24T08:08:28Z</time>
      </trkpt>
      <trkpt lat="45.76316" lon="6.56685">
        <ele>1807</ele>
        <time>2022-07-24T08:08:29Z</time>
      </trkpt>
      <trkpt lat="45.76317" lon="6.56687">
        <ele>1807</ele>
        <time>2022-07-24T08:08:30Z</time>
      </trkpt>
      <trkpt lat="45.76318" lon="6.56688">
        <ele>1807</ele>
        <time>2022-07-24T08:08:31Z</time>
      </trkpt>
      <trkpt lat="45.76319" lon="6.56689">
        <ele>1807</ele>
        <time>2022-07-24T08:08:32Z</time>
      </trkpt>
      <trkpt lat="45.7632" lon="6.5669">
        <ele>1807</ele>
        <time>2022-07-24T08:08:33Z</time>
      </trkpt>
      <trkpt lat="45.76321" lon="6.56692">
        <ele>1807</ele>
        <time>2022-07-24T08:08:34Z</time>
      </trkpt>
      <trkpt lat="45.76322" lon="6.56693">
        <ele>1807</ele>
        <time>2022-07-24T08:08:35Z</time>
      </trkpt>
      <trkpt lat="45.76322" lon="6.56694">
        <ele>1807</ele>
        <time>2022-07-24T08:08:36Z</time>
      </trkpt>
      <trkpt lat="45.76323" lon="6.56696">
        <ele>1807</ele>
        <time>2022-07-24T08:08:37Z</time>
      </trkpt>
      <trkpt lat="45.76324" lon="6.56697">
        <ele>1807</ele>
        <time>2022-07-24T08:08:38Z</time>
      </trkpt>
      <trkpt lat="45.76325" lon="6.56699">
        <ele>1807</ele>
        <time>2022-07-24T08:08:39Z</time>
      </trkpt>
      <trkpt lat="45.76325" lon="6.567">
        <ele>1807</ele>
        <time>2022-07-24T08:08:40Z</time>
      </trkpt>
      <trkpt lat="45.76326" lon="6.56702">
        <ele>1807</ele>
        <time>2022-07-24T08:08:41Z</time>
      </trkpt>
      <trkpt lat="45.76327" lon="6.56703">
        <ele>1807</ele>
        <time>2022-07-24T08:08:42Z</time>
      </trkpt>
      <trkpt lat="45.76327" lon="6.56705">
        <ele>1807</ele>
        <time>2022-07-24T08:08:43Z</time>
      </trkpt>
      <trkpt lat="45.76328" lon="6.56706">
        <ele>1807</ele>
        <time>2022-07-24T08:08:44Z</time>
      </trkpt>
      <trkpt lat="45.76329" lon="6.56708">
        <ele>1807</ele>
        <time>2022-07-24T08:08:45Z</time>
      </trkpt>
      <trkpt lat="45.76329" lon="6.56709">
        <ele>1807</ele>
        <time>2022-07-24T08:08:46Z</time>
      </trkpt>
      <trkpt lat="45.7633" lon="6.5671">
        <ele>1807</ele>
        <time>2022-07-24T08:08:47Z</time>
      </trkpt>
      <trkpt lat="45.76331" lon="6.56712">
        <ele>1807</ele>
        <time>2022-07-24T08:08:48Z</time>
      </trkpt>
      <trkpt lat="45.76331" lon="6.56713">
        <ele>1807</ele>
        <time>2022-07-24T08:08:49Z</time>
      </trkpt>
      <trkpt lat="45.76332" lon="6.56714">
        <ele>1807</ele>
        <time>2022-07-24T08:08:50Z</time>
      </trkpt>
      <trkpt lat="45.76332" lon="6.56715">
        <ele>1807</ele>
        <time>2022-07-24T08:08:51Z</time>
      </trkpt>
      <trkpt lat="45.76333" lon="6.56716">
        <ele>1807</ele>
        <time>2022-07-24T08:08:52Z</time>
      </trkpt>
      <trkpt lat="45.76333" lon="6.56718">
        <ele>1807</ele>
        <time>2022-07-24T08:08:53Z</time>
      </trkpt>
      <trkpt lat="45.76333" lon="6.56719">
        <ele>1807</ele>
        <time>2022-07-24T08:08:54Z</time>
      </trkpt>
      <trkpt lat="45.76334" lon="6.5672">
        <ele>1807</ele>
        <time>2022-07-24T08:08:55Z</time>
      </trkpt>
      <trkpt lat="45.76334" lon="6.56721">
        <ele>1808</ele>
        <time>2022-07-24T08:08:56Z</time>
      </trkpt>
      <trkpt lat="45.76335" lon="6.56722">
        <ele>1808</ele>
        <time>2022-07-24T08:08:57Z</time>
      </trkpt>
      <trkpt lat="45.76335" lon="6.56723">
        <ele>1808</ele>
        <time>2022-07-24T08:08:58Z</time>
      </trkpt>
      <trkpt lat="45.76336" lon="6.56724">
        <ele>1808</ele>
        <time>2022-07-24T08:08:59Z</time>
      </trkpt>
      <trkpt lat="45.76337" lon="6.56725">
        <ele>1808</ele>
        <time>2022-07-24T08:09:00Z</time>
      </trkpt>
      <trkpt lat="45.76337" lon="6.56726">
        <ele>1808</ele>
        <time>2022-07-24T08:09:01Z</time>
      </trkpt>
      <trkpt lat="45.76338" lon="6.56727">
        <ele>1808</ele>
        <time>2022-07-24T08:09:02Z</time>
      </trkpt>
      <trkpt lat="45.76339" lon="6.56728">
        <ele>1808</ele>
        <time>2022-07-24T08:09:03Z</time>
      </trkpt>
      <trkpt lat="45.7634" lon="6.56728">
        <ele>1808</ele>
        <time>2022-07-24T08:09:04Z</time>
      </trkpt>
      <trkpt lat="45.7634" lon="6.56729">
        <ele>1808</ele>
        <time>2022-07-24T08:09:05Z</time>
      </trkpt>
      <trkpt lat="45.76341" lon="6.5673">
        <ele>1808</ele>
        <time>2022-07-24T08:09:06Z</time>
      </trkpt>
      <trkpt lat="45.76342" lon="6.56731">
        <ele>1808</ele>
        <time>2022-07-24T08:09:07Z</time>
      </trkpt>
      <trkpt lat="45.76343" lon="6.56732">
        <ele>1808</ele>
        <time>2022-07-24T08:09:08Z</time>
      </trkpt>
      <trkpt lat="45.76343" lon="6.56733">
        <ele>1808</ele>
        <time>2022-07-24T08:09:09Z</time>
      </trkpt>
      <trkpt lat="45.76344" lon="6.56734">
        <ele>1808</ele>
        <time>2022-07-24T08:09:10Z</time>
      </trkpt>
      <trkpt lat="45.76345" lon="6.56735">
        <ele>1808</ele>
        <time>2022-07-24T08:09:11Z</time>
      </trkpt>
      <trkpt lat="45.76346" lon="6.56736">
        <ele>1808</ele>
        <time>2022-07-24T08:09:12Z</time>
      </trkpt>
      <trkpt lat="45.76346" lon="6.56738">
        <ele>1808</ele>
        <time>2022-07-24T08:09:13Z</time>
      </trkpt>
      <trkpt lat="45.76347" lon="6.56739">
        <ele>1808</ele>
        <time>2022-07-24T08:09:14Z</time>
      </trkpt>
      <trkpt lat="45.76347" lon="6.5674">
        <ele>1808</ele>
        <time>2022-07-24T08:09:15Z</time>
      </trkpt>
      <trkpt lat="45.76348" lon="6.56741">
        <ele>1808</ele>
        <time>2022-07-24T08:09:16Z</time>
      </trkpt>
      <trkpt lat="45.76348" lon="6.56742">
        <ele>1808</ele>
        <time>2022-07-24T08:09:17Z</time>
      </trkpt>
      <trkpt lat="45.76349" lon="6.56743">
        <ele>1808</ele>
        <time>2022-07-24T08:09:18Z</time>
      </trkpt>
      <trkpt lat="45.76349" lon="6.56745">
        <ele>1808</ele>
        <time>2022-07-24T08:09:19Z</time>
      </trkpt>
      <trkpt lat="45.7635" lon="6.56746">
        <ele>1808</ele>
        <time>2022-07-24T08:09:20Z</time>
      </trkpt>
      <trkpt lat="45.76351" lon="6.56747">
        <ele>1808</ele>
        <time>2022-07-24T08:09:21Z</time>
      </trkpt>
      <trkpt lat="45.76351" lon="6.56749">
        <ele>1808</ele>
        <time>2022-07-24T08:09:22Z</time>
      </trkpt>
      <trkpt lat="45.76352" lon="6.5675">
        <ele>1808</ele>
        <time>2022-07-24T08:09:23Z</time>
      </trkpt>
      <trkpt lat="45.76353" lon="6.56751">
        <ele>1808</ele>
        <time>2022-07-24T08:09:24Z</time>
      </trkpt>
      <trkpt lat="45.76354" lon="6.56753">
        <ele>1808</ele>
        <time>2022-07-24T08:09:25Z</time>
      </trkpt>
      <trkpt lat="45.76354" lon="6.56754">
        <ele>1808</ele>
        <time>2022-07-24T08:09:26Z</time>
      </trkpt>
      <trkpt lat="45.76355" lon="6.56756">
        <ele>1807</ele>
        <time>2022-07-24T08:09:27Z</time>
      </trkpt>
      <trkpt lat="45.76356" lon="6.56757">
        <ele>1807</ele>
        <time>2022-07-24T08:09:28Z</time>
      </trkpt>
      <trkpt lat="45.76356" lon="6.56759">
        <ele>1807</ele>
        <time>2022-07-24T08:09:29Z</time>
      </trkpt>
      <trkpt lat="45.76357" lon="6.5676">
        <ele>1807</ele>
        <time>2022-07-24T08:09:30Z</time>
      </trkpt>
      <trkpt lat="45.76358" lon="6.56761">
        <ele>1807</ele>
        <time>2022-07-24T08:09:31Z</time>
      </trkpt>
      <trkpt lat="45.76358" lon="6.56763">
        <ele>1806</ele>
        <time>2022-07-24T08:09:32Z</time>
      </trkpt>
      <trkpt lat="45.76358" lon="6.56764">
        <ele>1806</ele>
        <time>2022-07-24T08:09:33Z</time>
      </trkpt>
      <trkpt lat="45.76359" lon="6.56765">
        <ele>1806</ele>
        <time>2022-07-24T08:09:34Z</time>
      </trkpt>
      <trkpt lat="45.7636" lon="6.56766">
        <ele>1806</ele>
        <time>2022-07-24T08:09:35Z</time>
      </trkpt>
      <trkpt lat="45.7636" lon="6.56767">
        <ele>1806</ele>
        <time>2022-07-24T08:09:36Z</time>
      </trkpt>
      <trkpt lat="45.76361" lon="6.56768">
        <ele>1805</ele>
        <time>2022-07-24T08:09:37Z</time>
      </trkpt>
      <trkpt lat="45.76361" lon="6.56769">
        <ele>1805</ele>
        <time>2022-07-24T08:09:38Z</time>
      </trkpt>
      <trkpt lat="45.76362" lon="6.56771">
        <ele>1805</ele>
        <time>2022-07-24T08:09:39Z</time>
      </trkpt>
      <trkpt lat="45.76362" lon="6.56771">
        <ele>1805</ele>
        <time>2022-07-24T08:09:40Z</time>
      </trkpt>
      <trkpt lat="45.76363" lon="6.56772">
        <ele>1805</ele>
        <time>2022-07-24T08:09:41Z</time>
      </trkpt>
      <trkpt lat="45.76363" lon="6.56773">
        <ele>1805</ele>
        <time>2022-07-24T08:09:42Z</time>
      </trkpt>
      <trkpt lat="45.76363" lon="6.56774">
        <ele>1805</ele>
        <time>2022-07-24T08:09:43Z</time>
      </trkpt>
      <trkpt lat="45.76364" lon="6.56776">
        <ele>1805</ele>
        <time>2022-07-24T08:09:44Z</time>
      </trkpt>
      <trkpt lat="45.76364" lon="6.56777">
        <ele>1805</ele>
        <time>2022-07-24T08:09:45Z</time>
      </trkpt>
      <trkpt lat="45.76365" lon="6.56778">
        <ele>1805</ele>
        <time>2022-07-24T08:09:46Z</time>
      </trkpt>
      <trkpt lat="45.76365" lon="6.5678">
        <ele>1804</ele>
        <time>2022-07-24T08:09:47Z</time>
      </trkpt>
      <trkpt lat="45.76366" lon="6.56782">
        <ele>1804</ele>
        <time>2022-07-24T08:09:48Z</time>
      </trkpt>
      <trkpt lat="45.76366" lon="6.56784">
        <ele>1804</ele>
        <time>2022-07-24T08:09:49Z</time>
      </trkpt>
      <trkpt lat="45.76366" lon="6.56787">
        <ele>1804</ele>
        <time>2022-07-24T08:09:50Z</time>
      </trkpt>
      <trkpt lat="45.76366" lon="6.56789">
        <ele>1804</ele>
        <time>2022-07-24T08:09:51Z</time>
      </trkpt>
      <trkpt lat="45.76366" lon="6.56791">
        <ele>1803</ele>
        <time>2022-07-24T08:09:52Z</time>
      </trkpt>
      <trkpt lat="45.76367" lon="6.56793">
        <ele>1803</ele>
        <time>2022-07-24T08:09:53Z</time>
      </trkpt>
      <trkpt lat="45.76367" lon="6.56796">
        <ele>1803</ele>
        <time>2022-07-24T08:09:54Z</time>
      </trkpt>
      <trkpt lat="45.76367" lon="6.56798">
        <ele>1803</ele>
        <time>2022-07-24T08:09:55Z</time>
      </trkpt>
      <trkpt lat="45.76367" lon="6.568">
        <ele>1803</ele>
        <time>2022-07-24T08:09:56Z</time>
      </trkpt>
      <trkpt lat="45.76367" lon="6.56802">
        <ele>1802</ele>
        <time>2022-07-24T08:09:57Z</time>
      </trkpt>
      <trkpt lat="45.76367" lon="6.56803">
        <ele>1802</ele>
        <time>2022-07-24T08:09:58Z</time>
      </trkpt>
      <trkpt lat="45.76367" lon="6.56805">
        <ele>1802</ele>
        <time>2022-07-24T08:09:59Z</time>
      </trkpt>
      <trkpt lat="45.76367" lon="6.56806">
        <ele>1802</ele>
        <time>2022-07-24T08:10:00Z</time>
      </trkpt>
      <trkpt lat="45.76367" lon="6.56808">
        <ele>1802</ele>
        <time>2022-07-24T08:10:01Z</time>
      </trkpt>
      <trkpt lat="45.76367" lon="6.56809">
        <ele>1802</ele>
        <time>2022-07-24T08:10:02Z</time>
      </trkpt>
      <trkpt lat="45.76367" lon="6.56811">
        <ele>1802</ele>
        <time>2022-07-24T08:10:03Z</time>
      </trkpt>
      <trkpt lat="45.76367" lon="6.56812">
        <ele>1802</ele>
        <time>2022-07-24T08:10:04Z</time>
      </trkpt>
      <trkpt lat="45.76368" lon="6.56814">
        <ele>1802</ele>
        <time>2022-07-24T08:10:05Z</time>
      </trkpt>
      <trkpt lat="45.76368" lon="6.56815">
        <ele>1802</ele>
        <time>2022-07-24T08:10:06Z</time>
      </trkpt>
      <trkpt lat="45.76368" lon="6.56816">
        <ele>1802</ele>
        <time>2022-07-24T08:10:07Z</time>
      </trkpt>
      <trkpt lat="45.76368" lon="6.56818">
        <ele>1802</ele>
        <time>2022-07-24T08:10:08Z</time>
      </trkpt>
      <trkpt lat="45.76368" lon="6.5682">
        <ele>1802</ele>
        <time>2022-07-24T08:10:09Z</time>
      </trkpt>
      <trkpt lat="45.76368" lon="6.56821">
        <ele>1802</ele>
        <time>2022-07-24T08:10:10Z</time>
      </trkpt>
      <trkpt lat="45.76369" lon="6.56823">
        <ele>1802</ele>
        <time>2022-07-24T08:10:11Z</time>
      </trkpt>
      <trkpt lat="45.76369" lon="6.56824">
        <ele>1802</ele>
        <time>2022-07-24T08:10:12Z</time>
      </trkpt>
      <trkpt lat="45.76369" lon="6.56826">
        <ele>1802</ele>
        <time>2022-07-24T08:10:13Z</time>
      </trkpt>
      <trkpt lat="45.76369" lon="6.56827">
        <ele>1802</ele>
        <time>2022-07-24T08:10:14Z</time>
      </trkpt>
      <trkpt lat="45.7637" lon="6.56828">
        <ele>1802</ele>
        <time>2022-07-24T08:10:15Z</time>
      </trkpt>
      <trkpt lat="45.7637" lon="6.5683">
        <ele>1802</ele>
        <time>2022-07-24T08:10:16Z</time>
      </trkpt>
      <trkpt lat="45.7637" lon="6.56831">
        <ele>1801</ele>
        <time>2022-07-24T08:10:17Z</time>
      </trkpt>
      <trkpt lat="45.76371" lon="6.56832">
        <ele>1801</ele>
        <time>2022-07-24T08:10:18Z</time>
      </trkpt>
      <trkpt lat="45.76371" lon="6.56833">
        <ele>1801</ele>
        <time>2022-07-24T08:10:19Z</time>
      </trkpt>
      <trkpt lat="45.76372" lon="6.56834">
        <ele>1801</ele>
        <time>2022-07-24T08:10:20Z</time>
      </trkpt>
      <trkpt lat="45.76372" lon="6.56835">
        <ele>1801</ele>
        <time>2022-07-24T08:10:21Z</time>
      </trkpt>
      <trkpt lat="45.76373" lon="6.56835">
        <ele>1801</ele>
        <time>2022-07-24T08:10:22Z</time>
      </trkpt>
      <trkpt lat="45.76373" lon="6.56836">
        <ele>1801</ele>
        <time>2022-07-24T08:10:23Z</time>
      </trkpt>
      <trkpt lat="45.76374" lon="6.56836">
        <ele>1801</ele>
        <time>2022-07-24T08:10:24Z</time>
      </trkpt>
      <trkpt lat="45.76374" lon="6.56837">
        <ele>1801</ele>
        <time>2022-07-24T08:10:25Z</time>
      </trkpt>
      <trkpt lat="45.76375" lon="6.56838">
        <ele>1801</ele>
        <time>2022-07-24T08:10:26Z</time>
      </trkpt>
      <trkpt lat="45.76375" lon="6.56839">
        <ele>1801</ele>
        <time>2022-07-24T08:10:27Z</time>
      </trkpt>
      <trkpt lat="45.76375" lon="6.5684">
        <ele>1801</ele>
        <time>2022-07-24T08:10:28Z</time>
      </trkpt>
      <trkpt lat="45.76376" lon="6.56841">
        <ele>1801</ele>
        <time>2022-07-24T08:10:29Z</time>
      </trkpt>
      <trkpt lat="45.76376" lon="6.56842">
        <ele>1801</ele>
        <time>2022-07-24T08:10:30Z</time>
      </trkpt>
      <trkpt lat="45.76377" lon="6.56843">
        <ele>1801</ele>
        <time>2022-07-24T08:10:31Z</time>
      </trkpt>
      <trkpt lat="45.76377" lon="6.56843">
        <ele>1800</ele>
        <time>2022-07-24T08:10:32Z</time>
      </trkpt>
      <trkpt lat="45.76378" lon="6.56844">
        <ele>1800</ele>
        <time>2022-07-24T08:10:33Z</time>
      </trkpt>
      <trkpt lat="45.76379" lon="6.56845">
        <ele>1800</ele>
        <time>2022-07-24T08:10:34Z</time>
      </trkpt>
      <trkpt lat="45.76379" lon="6.56846">
        <ele>1800</ele>
        <time>2022-07-24T08:10:35Z</time>
      </trkpt>
      <trkpt lat="45.7638" lon="6.56847">
        <ele>1800</ele>
        <time>2022-07-24T08:10:36Z</time>
      </trkpt>
      <trkpt lat="45.76381" lon="6.56848">
        <ele>1800</ele>
        <time>2022-07-24T08:10:37Z</time>
      </trkpt>
      <trkpt lat="45.76381" lon="6.56849">
        <ele>1800</ele>
        <time>2022-07-24T08:10:38Z</time>
      </trkpt>
      <trkpt lat="45.76382" lon="6.5685">
        <ele>1800</ele>
        <time>2022-07-24T08:10:39Z</time>
      </trkpt>
      <trkpt lat="45.76382" lon="6.56852">
        <ele>1800</ele>
        <time>2022-07-24T08:10:40Z</time>
      </trkpt>
      <trkpt lat="45.76382" lon="6.56853">
        <ele>1800</ele>
        <time>2022-07-24T08:10:41Z</time>
      </trkpt>
      <trkpt lat="45.76383" lon="6.56855">
        <ele>1799</ele>
        <time>2022-07-24T08:10:42Z</time>
      </trkpt>
      <trkpt lat="45.76383" lon="6.56856">
        <ele>1799</ele>
        <time>2022-07-24T08:10:43Z</time>
      </trkpt>
      <trkpt lat="45.76384" lon="6.56857">
        <ele>1799</ele>
        <time>2022-07-24T08:10:44Z</time>
      </trkpt>
      <trkpt lat="45.76385" lon="6.56858">
        <ele>1799</ele>
        <time>2022-07-24T08:10:45Z</time>
      </trkpt>
      <trkpt lat="45.76386" lon="6.56859">
        <ele>1799</ele>
        <time>2022-07-24T08:10:46Z</time>
      </trkpt>
      <trkpt lat="45.76387" lon="6.5686">
        <ele>1799</ele>
        <time>2022-07-24T08:10:47Z</time>
      </trkpt>
      <trkpt lat="45.76388" lon="6.56861">
        <ele>1799</ele>
        <time>2022-07-24T08:10:48Z</time>
      </trkpt>
      <trkpt lat="45.76389" lon="6.56862">
        <ele>1799</ele>
        <time>2022-07-24T08:10:49Z</time>
      </trkpt>
      <trkpt lat="45.7639" lon="6.56863">
        <ele>1799</ele>
        <time>2022-07-24T08:10:50Z</time>
      </trkpt>
      <trkpt lat="45.76391" lon="6.56864">
        <ele>1799</ele>
        <time>2022-07-24T08:10:51Z</time>
      </trkpt>
      <trkpt lat="45.76392" lon="6.56864">
        <ele>1798</ele>
        <time>2022-07-24T08:10:52Z</time>
      </trkpt>
      <trkpt lat="45.76393" lon="6.56865">
        <ele>1798</ele>
        <time>2022-07-24T08:10:53Z</time>
      </trkpt>
      <trkpt lat="45.76394" lon="6.56866">
        <ele>1798</ele>
        <time>2022-07-24T08:10:54Z</time>
      </trkpt>
      <trkpt lat="45.76395" lon="6.56867">
        <ele>1798</ele>
        <time>2022-07-24T08:10:55Z</time>
      </trkpt>
      <trkpt lat="45.76396" lon="6.56868">
        <ele>1798</ele>
        <time>2022-07-24T08:10:56Z</time>
      </trkpt>
      <trkpt lat="45.76397" lon="6.56869">
        <ele>1797</ele>
        <time>2022-07-24T08:10:57Z</time>
      </trkpt>
      <trkpt lat="45.76397" lon="6.5687">
        <ele>1797</ele>
        <time>2022-07-24T08:10:58Z</time>
      </trkpt>
      <trkpt lat="45.76398" lon="6.56871">
        <ele>1797</ele>
        <time>2022-07-24T08:10:59Z</time>
      </trkpt>
      <trkpt lat="45.76399" lon="6.56872">
        <ele>1797</ele>
        <time>2022-07-24T08:11:00Z</time>
      </trkpt>
      <trkpt lat="45.76399" lon="6.56873">
        <ele>1797</ele>
        <time>2022-07-24T08:11:01Z</time>
      </trkpt>
      <trkpt lat="45.764" lon="6.56874">
        <ele>1797</ele>
        <time>2022-07-24T08:11:02Z</time>
      </trkpt>
      <trkpt lat="45.764" lon="6.56875">
        <ele>1797</ele>
        <time>2022-07-24T08:11:03Z</time>
      </trkpt>
      <trkpt lat="45.76401" lon="6.56876">
        <ele>1797</ele>
        <time>2022-07-24T08:11:04Z</time>
      </trkpt>
      <trkpt lat="45.76401" lon="6.56877">
        <ele>1797</ele>
        <time>2022-07-24T08:11:05Z</time>
      </trkpt>
      <trkpt lat="45.76402" lon="6.56879">
        <ele>1797</ele>
        <time>2022-07-24T08:11:06Z</time>
      </trkpt>
      <trkpt lat="45.76402" lon="6.5688">
        <ele>1796</ele>
        <time>2022-07-24T08:11:07Z</time>
      </trkpt>
      <trkpt lat="45.76403" lon="6.56881">
        <ele>1796</ele>
        <time>2022-07-24T08:11:08Z</time>
      </trkpt>
      <trkpt lat="45.76404" lon="6.56882">
        <ele>1796</ele>
        <time>2022-07-24T08:11:09Z</time>
      </trkpt>
      <trkpt lat="45.76404" lon="6.56883">
        <ele>1796</ele>
        <time>2022-07-24T08:11:10Z</time>
      </trkpt>
      <trkpt lat="45.76405" lon="6.56884">
        <ele>1796</ele>
        <time>2022-07-24T08:11:11Z</time>
      </trkpt>
      <trkpt lat="45.76405" lon="6.56885">
        <ele>1795</ele>
        <time>2022-07-24T08:11:12Z</time>
      </trkpt>
      <trkpt lat="45.76406" lon="6.56886">
        <ele>1795</ele>
        <time>2022-07-24T08:11:13Z</time>
      </trkpt>
      <trkpt lat="45.76406" lon="6.56887">
        <ele>1795</ele>
        <time>2022-07-24T08:11:14Z</time>
      </trkpt>
      <trkpt lat="45.76407" lon="6.56888">
        <ele>1795</ele>
        <time>2022-07-24T08:11:15Z</time>
      </trkpt>
      <trkpt lat="45.76407" lon="6.56889">
        <ele>1795</ele>
        <time>2022-07-24T08:11:16Z</time>
      </trkpt>
      <trkpt lat="45.76408" lon="6.5689">
        <ele>1794</ele>
        <time>2022-07-24T08:11:17Z</time>
      </trkpt>
      <trkpt lat="45.76409" lon="6.56891">
        <ele>1794</ele>
        <time>2022-07-24T08:11:18Z</time>
      </trkpt>
      <trkpt lat="45.76409" lon="6.56891">
        <ele>1794</ele>
        <time>2022-07-24T08:11:19Z</time>
      </trkpt>
      <trkpt lat="45.7641" lon="6.56892">
        <ele>1794</ele>
        <time>2022-07-24T08:11:20Z</time>
      </trkpt>
      <trkpt lat="45.76411" lon="6.56893">
        <ele>1794</ele>
        <time>2022-07-24T08:11:21Z</time>
      </trkpt>
      <trkpt lat="45.76411" lon="6.56893">
        <ele>1794</ele>
        <time>2022-07-24T08:11:22Z</time>
      </trkpt>
      <trkpt lat="45.76412" lon="6.56894">
        <ele>1794</ele>
        <time>2022-07-24T08:11:23Z</time>
      </trkpt>
      <trkpt lat="45.76413" lon="6.56895">
        <ele>1794</ele>
        <time>2022-07-24T08:11:24Z</time>
      </trkpt>
      <trkpt lat="45.76414" lon="6.56896">
        <ele>1794</ele>
        <time>2022-07-24T08:11:25Z</time>
      </trkpt>
      <trkpt lat="45.76414" lon="6.56897">
        <ele>1794</ele>
        <time>2022-07-24T08:11:26Z</time>
      </trkpt>
      <trkpt lat="45.76415" lon="6.56898">
        <ele>1794</ele>
        <time>2022-07-24T08:11:27Z</time>
      </trkpt>
      <trkpt lat="45.76416" lon="6.56898">
        <ele>1794</ele>
        <time>2022-07-24T08:11:28Z</time>
      </trkpt>
      <trkpt lat="45.76417" lon="6.56899">
        <ele>1794</ele>
        <time>2022-07-24T08:11:29Z</time>
      </trkpt>
      <trkpt lat="45.76418" lon="6.569">
        <ele>1794</ele>
        <time>2022-07-24T08:11:30Z</time>
      </trkpt>
      <trkpt lat="45.76419" lon="6.56901">
        <ele>1794</ele>
        <time>2022-07-24T08:11:31Z</time>
      </trkpt>
      <trkpt lat="45.7642" lon="6.56902">
        <ele>1793</ele>
        <time>2022-07-24T08:11:32Z</time>
      </trkpt>
      <trkpt lat="45.76421" lon="6.56902">
        <ele>1793</ele>
        <time>2022-07-24T08:11:33Z</time>
      </trkpt>
      <trkpt lat="45.76421" lon="6.56903">
        <ele>1793</ele>
        <time>2022-07-24T08:11:34Z</time>
      </trkpt>
      <trkpt lat="45.76422" lon="6.56903">
        <ele>1793</ele>
        <time>2022-07-24T08:11:35Z</time>
      </trkpt>
      <trkpt lat="45.76423" lon="6.56904">
        <ele>1793</ele>
        <time>2022-07-24T08:11:36Z</time>
      </trkpt>
      <trkpt lat="45.76423" lon="6.56904">
        <ele>1793</ele>
        <time>2022-07-24T08:11:37Z</time>
      </trkpt>
      <trkpt lat="45.76424" lon="6.56905">
        <ele>1793</ele>
        <time>2022-07-24T08:11:53Z</time>
      </trkpt>
      <trkpt lat="45.76425" lon="6.56906">
        <ele>1793</ele>
        <time>2022-07-24T08:11:54Z</time>
      </trkpt>
      <trkpt lat="45.76425" lon="6.56906">
        <ele>1793</ele>
        <time>2022-07-24T08:11:55Z</time>
      </trkpt>
      <trkpt lat="45.76426" lon="6.56907">
        <ele>1793</ele>
        <time>2022-07-24T08:11:56Z</time>
      </trkpt>
      <trkpt lat="45.76426" lon="6.56907">
        <ele>1793</ele>
        <time>2022-07-24T08:11:57Z</time>
      </trkpt>
      <trkpt lat="45.76426" lon="6.56907">
        <ele>1793</ele>
        <time>2022-07-24T08:11:58Z</time>
      </trkpt>
      <trkpt lat="45.76427" lon="6.56908">
        <ele>1793</ele>
        <time>2022-07-24T08:11:59Z</time>
      </trkpt>
      <trkpt lat="45.76427" lon="6.56908">
        <ele>1793</ele>
        <time>2022-07-24T08:12:00Z</time>
      </trkpt>
      <trkpt lat="45.76428" lon="6.56909">
        <ele>1793</ele>
        <time>2022-07-24T08:12:01Z</time>
      </trkpt>
      <trkpt lat="45.76429" lon="6.56909">
        <ele>1792</ele>
        <time>2022-07-24T08:12:02Z</time>
      </trkpt>
      <trkpt lat="45.76429" lon="6.5691">
        <ele>1792</ele>
        <time>2022-07-24T08:12:03Z</time>
      </trkpt>
      <trkpt lat="45.7643" lon="6.5691">
        <ele>1792</ele>
        <time>2022-07-24T08:12:04Z</time>
      </trkpt>
      <trkpt lat="45.76431" lon="6.56911">
        <ele>1792</ele>
        <time>2022-07-24T08:12:05Z</time>
      </trkpt>
      <trkpt lat="45.76431" lon="6.56911">
        <ele>1792</ele>
        <time>2022-07-24T08:12:06Z</time>
      </trkpt>
      <trkpt lat="45.76432" lon="6.56912">
        <ele>1792</ele>
        <time>2022-07-24T08:12:07Z</time>
      </trkpt>
      <trkpt lat="45.76433" lon="6.56913">
        <ele>1792</ele>
        <time>2022-07-24T08:12:08Z</time>
      </trkpt>
      <trkpt lat="45.76434" lon="6.56913">
        <ele>1792</ele>
        <time>2022-07-24T08:12:09Z</time>
      </trkpt>
      <trkpt lat="45.76435" lon="6.56914">
        <ele>1792</ele>
        <time>2022-07-24T08:12:10Z</time>
      </trkpt>
      <trkpt lat="45.76436" lon="6.56915">
        <ele>1792</ele>
        <time>2022-07-24T08:12:11Z</time>
      </trkpt>
      <trkpt lat="45.76437" lon="6.56916">
        <ele>1792</ele>
        <time>2022-07-24T08:12:12Z</time>
      </trkpt>
      <trkpt lat="45.76438" lon="6.56917">
        <ele>1792</ele>
        <time>2022-07-24T08:12:13Z</time>
      </trkpt>
      <trkpt lat="45.76439" lon="6.56918">
        <ele>1792</ele>
        <time>2022-07-24T08:12:14Z</time>
      </trkpt>
      <trkpt lat="45.7644" lon="6.56919">
        <ele>1792</ele>
        <time>2022-07-24T08:12:15Z</time>
      </trkpt>
      <trkpt lat="45.76441" lon="6.5692">
        <ele>1792</ele>
        <time>2022-07-24T08:12:16Z</time>
      </trkpt>
      <trkpt lat="45.76443" lon="6.56921">
        <ele>1792</ele>
        <time>2022-07-24T08:12:17Z</time>
      </trkpt>
      <trkpt lat="45.76444" lon="6.56922">
        <ele>1792</ele>
        <time>2022-07-24T08:12:18Z</time>
      </trkpt>
      <trkpt lat="45.76445" lon="6.56924">
        <ele>1792</ele>
        <time>2022-07-24T08:12:19Z</time>
      </trkpt>
      <trkpt lat="45.76446" lon="6.56925">
        <ele>1792</ele>
        <time>2022-07-24T08:12:20Z</time>
      </trkpt>
      <trkpt lat="45.76447" lon="6.56926">
        <ele>1792</ele>
        <time>2022-07-24T08:12:21Z</time>
      </trkpt>
      <trkpt lat="45.76447" lon="6.56928">
        <ele>1792</ele>
        <time>2022-07-24T08:12:22Z</time>
      </trkpt>
      <trkpt lat="45.76448" lon="6.56929">
        <ele>1792</ele>
        <time>2022-07-24T08:12:23Z</time>
      </trkpt>
      <trkpt lat="45.76448" lon="6.5693">
        <ele>1792</ele>
        <time>2022-07-24T08:12:24Z</time>
      </trkpt>
      <trkpt lat="45.76449" lon="6.5693">
        <ele>1792</ele>
        <time>2022-07-24T08:12:25Z</time>
      </trkpt>
      <trkpt lat="45.7645" lon="6.56931">
        <ele>1792</ele>
        <time>2022-07-24T08:12:26Z</time>
      </trkpt>
      <trkpt lat="45.7645" lon="6.56932">
        <ele>1792</ele>
        <time>2022-07-24T08:12:27Z</time>
      </trkpt>
      <trkpt lat="45.76451" lon="6.56932">
        <ele>1792</ele>
        <time>2022-07-24T08:12:28Z</time>
      </trkpt>
      <trkpt lat="45.76452" lon="6.56933">
        <ele>1792</ele>
        <time>2022-07-24T08:12:29Z</time>
      </trkpt>
      <trkpt lat="45.76453" lon="6.56934">
        <ele>1792</ele>
        <time>2022-07-24T08:12:30Z</time>
      </trkpt>
      <trkpt lat="45.76454" lon="6.56934">
        <ele>1792</ele>
        <time>2022-07-24T08:12:31Z</time>
      </trkpt>
      <trkpt lat="45.76454" lon="6.56935">
        <ele>1792</ele>
        <time>2022-07-24T08:12:32Z</time>
      </trkpt>
      <trkpt lat="45.76455" lon="6.56935">
        <ele>1792</ele>
        <time>2022-07-24T08:12:33Z</time>
      </trkpt>
      <trkpt lat="45.76456" lon="6.56936">
        <ele>1792</ele>
        <time>2022-07-24T08:12:34Z</time>
      </trkpt>
      <trkpt lat="45.76457" lon="6.56936">
        <ele>1792</ele>
        <time>2022-07-24T08:12:35Z</time>
      </trkpt>
      <trkpt lat="45.76457" lon="6.56936">
        <ele>1793</ele>
        <time>2022-07-24T08:12:36Z</time>
      </trkpt>
      <trkpt lat="45.76458" lon="6.56937">
        <ele>1793</ele>
        <time>2022-07-24T08:12:37Z</time>
      </trkpt>
      <trkpt lat="45.76458" lon="6.56938">
        <ele>1793</ele>
        <time>2022-07-24T08:12:38Z</time>
      </trkpt>
      <trkpt lat="45.76459" lon="6.56939">
        <ele>1793</ele>
        <time>2022-07-24T08:12:39Z</time>
      </trkpt>
      <trkpt lat="45.7646" lon="6.56939">
        <ele>1793</ele>
        <time>2022-07-24T08:12:40Z</time>
      </trkpt>
      <trkpt lat="45.7646" lon="6.5694">
        <ele>1793</ele>
        <time>2022-07-24T08:12:41Z</time>
      </trkpt>
      <trkpt lat="45.76461" lon="6.56941">
        <ele>1792</ele>
        <time>2022-07-24T08:12:42Z</time>
      </trkpt>
      <trkpt lat="45.76462" lon="6.56942">
        <ele>1792</ele>
        <time>2022-07-24T08:12:43Z</time>
      </trkpt>
      <trkpt lat="45.76463" lon="6.56943">
        <ele>1792</ele>
        <time>2022-07-24T08:12:44Z</time>
      </trkpt>
      <trkpt lat="45.76464" lon="6.56944">
        <ele>1792</ele>
        <time>2022-07-24T08:12:45Z</time>
      </trkpt>
      <trkpt lat="45.76465" lon="6.56944">
        <ele>1792</ele>
        <time>2022-07-24T08:12:46Z</time>
      </trkpt>
      <trkpt lat="45.76466" lon="6.56945">
        <ele>1792</ele>
        <time>2022-07-24T08:12:47Z</time>
      </trkpt>
      <trkpt lat="45.76467" lon="6.56946">
        <ele>1792</ele>
        <time>2022-07-24T08:12:48Z</time>
      </trkpt>
      <trkpt lat="45.76468" lon="6.56947">
        <ele>1792</ele>
        <time>2022-07-24T08:12:49Z</time>
      </trkpt>
      <trkpt lat="45.76469" lon="6.56948">
        <ele>1792</ele>
        <time>2022-07-24T08:12:50Z</time>
      </trkpt>
      <trkpt lat="45.7647" lon="6.56949">
        <ele>1792</ele>
        <time>2022-07-24T08:12:51Z</time>
      </trkpt>
      <trkpt lat="45.76471" lon="6.5695">
        <ele>1791</ele>
        <time>2022-07-24T08:12:52Z</time>
      </trkpt>
      <trkpt lat="45.76471" lon="6.56951">
        <ele>1791</ele>
        <time>2022-07-24T08:12:53Z</time>
      </trkpt>
      <trkpt lat="45.76472" lon="6.56952">
        <ele>1791</ele>
        <time>2022-07-24T08:12:54Z</time>
      </trkpt>
      <trkpt lat="45.76473" lon="6.56953">
        <ele>1791</ele>
        <time>2022-07-24T08:12:55Z</time>
      </trkpt>
      <trkpt lat="45.76474" lon="6.56954">
        <ele>1791</ele>
        <time>2022-07-24T08:12:56Z</time>
      </trkpt>
      <trkpt lat="45.76474" lon="6.56955">
        <ele>1791</ele>
        <time>2022-07-24T08:12:57Z</time>
      </trkpt>
      <trkpt lat="45.76475" lon="6.56956">
        <ele>1791</ele>
        <time>2022-07-24T08:12:58Z</time>
      </trkpt>
      <trkpt lat="45.76476" lon="6.56956">
        <ele>1791</ele>
        <time>2022-07-24T08:12:59Z</time>
      </trkpt>
      <trkpt lat="45.76477" lon="6.56957">
        <ele>1791</ele>
        <time>2022-07-24T08:13:00Z</time>
      </trkpt>
      <trkpt lat="45.76478" lon="6.56958">
        <ele>1791</ele>
        <time>2022-07-24T08:13:01Z</time>
      </trkpt>
      <trkpt lat="45.76479" lon="6.56959">
        <ele>1790</ele>
        <time>2022-07-24T08:13:02Z</time>
      </trkpt>
      <trkpt lat="45.7648" lon="6.5696">
        <ele>1790</ele>
        <time>2022-07-24T08:13:03Z</time>
      </trkpt>
      <trkpt lat="45.76481" lon="6.56961">
        <ele>1790</ele>
        <time>2022-07-24T08:13:04Z</time>
      </trkpt>
      <trkpt lat="45.76481" lon="6.56962">
        <ele>1790</ele>
        <time>2022-07-24T08:13:05Z</time>
      </trkpt>
      <trkpt lat="45.76482" lon="6.56962">
        <ele>1790</ele>
        <time>2022-07-24T08:13:06Z</time>
      </trkpt>
      <trkpt lat="45.76483" lon="6.56963">
        <ele>1790</ele>
        <time>2022-07-24T08:13:07Z</time>
      </trkpt>
      <trkpt lat="45.76484" lon="6.56964">
        <ele>1790</ele>
        <time>2022-07-24T08:13:08Z</time>
      </trkpt>
      <trkpt lat="45.76485" lon="6.56965">
        <ele>1790</ele>
        <time>2022-07-24T08:13:09Z</time>
      </trkpt>
      <trkpt lat="45.76486" lon="6.56965">
        <ele>1790</ele>
        <time>2022-07-24T08:13:10Z</time>
      </trkpt>
      <trkpt lat="45.76487" lon="6.56966">
        <ele>1790</ele>
        <time>2022-07-24T08:13:11Z</time>
      </trkpt>
      <trkpt lat="45.76487" lon="6.56966">
        <ele>1790</ele>
        <time>2022-07-24T08:13:12Z</time>
      </trkpt>
      <trkpt lat="45.76488" lon="6.56967">
        <ele>1790</ele>
        <time>2022-07-24T08:13:13Z</time>
      </trkpt>
      <trkpt lat="45.76488" lon="6.56967">
        <ele>1790</ele>
        <time>2022-07-24T08:13:14Z</time>
      </trkpt>
      <trkpt lat="45.76489" lon="6.56968">
        <ele>1790</ele>
        <time>2022-07-24T08:13:15Z</time>
      </trkpt>
      <trkpt lat="45.7649" lon="6.56969">
        <ele>1790</ele>
        <time>2022-07-24T08:13:16Z</time>
      </trkpt>
      <trkpt lat="45.7649" lon="6.56971">
        <ele>1790</ele>
        <time>2022-07-24T08:13:17Z</time>
      </trkpt>
      <trkpt lat="45.76491" lon="6.56972">
        <ele>1790</ele>
        <time>2022-07-24T08:13:18Z</time>
      </trkpt>
      <trkpt lat="45.76492" lon="6.56973">
        <ele>1790</ele>
        <time>2022-07-24T08:13:19Z</time>
      </trkpt>
      <trkpt lat="45.76493" lon="6.56975">
        <ele>1790</ele>
        <time>2022-07-24T08:13:20Z</time>
      </trkpt>
      <trkpt lat="45.76493" lon="6.56976">
        <ele>1790</ele>
        <time>2022-07-24T08:13:21Z</time>
      </trkpt>
      <trkpt lat="45.76494" lon="6.56977">
        <ele>1789</ele>
        <time>2022-07-24T08:13:22Z</time>
      </trkpt>
      <trkpt lat="45.76495" lon="6.56979">
        <ele>1789</ele>
        <time>2022-07-24T08:13:23Z</time>
      </trkpt>
      <trkpt lat="45.76496" lon="6.5698">
        <ele>1789</ele>
        <time>2022-07-24T08:13:24Z</time>
      </trkpt>
      <trkpt lat="45.76497" lon="6.56981">
        <ele>1789</ele>
        <time>2022-07-24T08:13:25Z</time>
      </trkpt>
      <trkpt lat="45.76498" lon="6.56982">
        <ele>1789</ele>
        <time>2022-07-24T08:13:26Z</time>
      </trkpt>
      <trkpt lat="45.76499" lon="6.56982">
        <ele>1789</ele>
        <time>2022-07-24T08:13:27Z</time>
      </trkpt>
      <trkpt lat="45.765" lon="6.56983">
        <ele>1789</ele>
        <time>2022-07-24T08:13:28Z</time>
      </trkpt>
      <trkpt lat="45.76501" lon="6.56984">
        <ele>1789</ele>
        <time>2022-07-24T08:13:29Z</time>
      </trkpt>
      <trkpt lat="45.76502" lon="6.56985">
        <ele>1789</ele>
        <time>2022-07-24T08:13:30Z</time>
      </trkpt>
      <trkpt lat="45.76503" lon="6.56986">
        <ele>1789</ele>
        <time>2022-07-24T08:13:31Z</time>
      </trkpt>
      <trkpt lat="45.76504" lon="6.56986">
        <ele>1789</ele>
        <time>2022-07-24T08:13:32Z</time>
      </trkpt>
      <trkpt lat="45.76504" lon="6.56987">
        <ele>1789</ele>
        <time>2022-07-24T08:13:33Z</time>
      </trkpt>
      <trkpt lat="45.76505" lon="6.56988">
        <ele>1789</ele>
        <time>2022-07-24T08:13:34Z</time>
      </trkpt>
      <trkpt lat="45.76506" lon="6.56989">
        <ele>1789</ele>
        <time>2022-07-24T08:13:35Z</time>
      </trkpt>
      <trkpt lat="45.76507" lon="6.5699">
        <ele>1790</ele>
        <time>2022-07-24T08:13:36Z</time>
      </trkpt>
      <trkpt lat="45.76508" lon="6.5699">
        <ele>1790</ele>
        <time>2022-07-24T08:13:37Z</time>
      </trkpt>
      <trkpt lat="45.76509" lon="6.56991">
        <ele>1790</ele>
        <time>2022-07-24T08:13:38Z</time>
      </trkpt>
      <trkpt lat="45.76509" lon="6.56992">
        <ele>1790</ele>
        <time>2022-07-24T08:13:39Z</time>
      </trkpt>
      <trkpt lat="45.7651" lon="6.56993">
        <ele>1790</ele>
        <time>2022-07-24T08:13:40Z</time>
      </trkpt>
      <trkpt lat="45.76511" lon="6.56994">
        <ele>1790</ele>
        <time>2022-07-24T08:13:41Z</time>
      </trkpt>
      <trkpt lat="45.76512" lon="6.56995">
        <ele>1790</ele>
        <time>2022-07-24T08:13:42Z</time>
      </trkpt>
      <trkpt lat="45.76513" lon="6.56996">
        <ele>1790</ele>
        <time>2022-07-24T08:13:43Z</time>
      </trkpt>
      <trkpt lat="45.76514" lon="6.56997">
        <ele>1790</ele>
        <time>2022-07-24T08:13:44Z</time>
      </trkpt>
      <trkpt lat="45.76515" lon="6.56998">
        <ele>1790</ele>
        <time>2022-07-24T08:13:45Z</time>
      </trkpt>
      <trkpt lat="45.76516" lon="6.56999">
        <ele>1790</ele>
        <time>2022-07-24T08:13:46Z</time>
      </trkpt>
      <trkpt lat="45.76516" lon="6.57">
        <ele>1790</ele>
        <time>2022-07-24T08:13:47Z</time>
      </trkpt>
      <trkpt lat="45.76517" lon="6.57001">
        <ele>1790</ele>
        <time>2022-07-24T08:13:48Z</time>
      </trkpt>
      <trkpt lat="45.76518" lon="6.57002">
        <ele>1790</ele>
        <time>2022-07-24T08:13:49Z</time>
      </trkpt>
      <trkpt lat="45.76519" lon="6.57003">
        <ele>1790</ele>
        <time>2022-07-24T08:13:50Z</time>
      </trkpt>
      <trkpt lat="45.7652" lon="6.57004">
        <ele>1790</ele>
        <time>2022-07-24T08:13:51Z</time>
      </trkpt>
      <trkpt lat="45.76521" lon="6.57005">
        <ele>1790</ele>
        <time>2022-07-24T08:13:52Z</time>
      </trkpt>
      <trkpt lat="45.76522" lon="6.57006">
        <ele>1790</ele>
        <time>2022-07-24T08:13:53Z</time>
      </trkpt>
      <trkpt lat="45.76523" lon="6.57006">
        <ele>1790</ele>
        <time>2022-07-24T08:13:54Z</time>
      </trkpt>
      <trkpt lat="45.76524" lon="6.57007">
        <ele>1790</ele>
        <time>2022-07-24T08:13:55Z</time>
      </trkpt>
      <trkpt lat="45.76524" lon="6.57008">
        <ele>1790</ele>
        <time>2022-07-24T08:13:56Z</time>
      </trkpt>
      <trkpt lat="45.76525" lon="6.57009">
        <ele>1790</ele>
        <time>2022-07-24T08:13:57Z</time>
      </trkpt>
      <trkpt lat="45.76526" lon="6.5701">
        <ele>1790</ele>
        <time>2022-07-24T08:13:58Z</time>
      </trkpt>
      <trkpt lat="45.76527" lon="6.57011">
        <ele>1790</ele>
        <time>2022-07-24T08:13:59Z</time>
      </trkpt>
      <trkpt lat="45.76528" lon="6.57011">
        <ele>1790</ele>
        <time>2022-07-24T08:14:00Z</time>
      </trkpt>
      <trkpt lat="45.76529" lon="6.57012">
        <ele>1790</ele>
        <time>2022-07-24T08:14:01Z</time>
      </trkpt>
      <trkpt lat="45.7653" lon="6.57014">
        <ele>1790</ele>
        <time>2022-07-24T08:14:02Z</time>
      </trkpt>
      <trkpt lat="45.7653" lon="6.57015">
        <ele>1790</ele>
        <time>2022-07-24T08:14:03Z</time>
      </trkpt>
      <trkpt lat="45.76531" lon="6.57016">
        <ele>1790</ele>
        <time>2022-07-24T08:14:04Z</time>
      </trkpt>
      <trkpt lat="45.76532" lon="6.57017">
        <ele>1790</ele>
        <time>2022-07-24T08:14:05Z</time>
      </trkpt>
      <trkpt lat="45.76533" lon="6.57018">
        <ele>1790</ele>
        <time>2022-07-24T08:14:06Z</time>
      </trkpt>
      <trkpt lat="45.76534" lon="6.57019">
        <ele>1790</ele>
        <time>2022-07-24T08:14:07Z</time>
      </trkpt>
      <trkpt lat="45.76535" lon="6.5702">
        <ele>1790</ele>
        <time>2022-07-24T08:14:08Z</time>
      </trkpt>
      <trkpt lat="45.76535" lon="6.57021">
        <ele>1790</ele>
        <time>2022-07-24T08:14:09Z</time>
      </trkpt>
      <trkpt lat="45.76536" lon="6.57023">
        <ele>1790</ele>
        <time>2022-07-24T08:14:10Z</time>
      </trkpt>
      <trkpt lat="45.76537" lon="6.57024">
        <ele>1790</ele>
        <time>2022-07-24T08:14:11Z</time>
      </trkpt>
      <trkpt lat="45.76538" lon="6.57025">
        <ele>1790</ele>
        <time>2022-07-24T08:14:12Z</time>
      </trkpt>
      <trkpt lat="45.76539" lon="6.57026">
        <ele>1790</ele>
        <time>2022-07-24T08:14:13Z</time>
      </trkpt>
      <trkpt lat="45.7654" lon="6.57027">
        <ele>1790</ele>
        <time>2022-07-24T08:14:14Z</time>
      </trkpt>
      <trkpt lat="45.7654" lon="6.57028">
        <ele>1790</ele>
        <time>2022-07-24T08:14:15Z</time>
      </trkpt>
      <trkpt lat="45.76541" lon="6.57029">
        <ele>1790</ele>
        <time>2022-07-24T08:14:16Z</time>
      </trkpt>
      <trkpt lat="45.76542" lon="6.5703">
        <ele>1790</ele>
        <time>2022-07-24T08:14:17Z</time>
      </trkpt>
      <trkpt lat="45.76543" lon="6.57031">
        <ele>1790</ele>
        <time>2022-07-24T08:14:18Z</time>
      </trkpt>
      <trkpt lat="45.76544" lon="6.57033">
        <ele>1790</ele>
        <time>2022-07-24T08:14:19Z</time>
      </trkpt>
      <trkpt lat="45.76544" lon="6.57034">
        <ele>1790</ele>
        <time>2022-07-24T08:14:20Z</time>
      </trkpt>
      <trkpt lat="45.76545" lon="6.57035">
        <ele>1790</ele>
        <time>2022-07-24T08:14:21Z</time>
      </trkpt>
      <trkpt lat="45.76545" lon="6.57036">
        <ele>1790</ele>
        <time>2022-07-24T08:14:22Z</time>
      </trkpt>
      <trkpt lat="45.76546" lon="6.57038">
        <ele>1790</ele>
        <time>2022-07-24T08:14:23Z</time>
      </trkpt>
      <trkpt lat="45.76547" lon="6.57039">
        <ele>1790</ele>
        <time>2022-07-24T08:14:24Z</time>
      </trkpt>
      <trkpt lat="45.76547" lon="6.5704">
        <ele>1790</ele>
        <time>2022-07-24T08:14:25Z</time>
      </trkpt>
      <trkpt lat="45.76548" lon="6.57042">
        <ele>1790</ele>
        <time>2022-07-24T08:14:26Z</time>
      </trkpt>
      <trkpt lat="45.76549" lon="6.57043">
        <ele>1790</ele>
        <time>2022-07-24T08:14:27Z</time>
      </trkpt>
      <trkpt lat="45.76549" lon="6.57044">
        <ele>1790</ele>
        <time>2022-07-24T08:14:28Z</time>
      </trkpt>
      <trkpt lat="45.7655" lon="6.57046">
        <ele>1790</ele>
        <time>2022-07-24T08:14:29Z</time>
      </trkpt>
      <trkpt lat="45.7655" lon="6.57047">
        <ele>1790</ele>
        <time>2022-07-24T08:14:30Z</time>
      </trkpt>
      <trkpt lat="45.76551" lon="6.57048">
        <ele>1791</ele>
        <time>2022-07-24T08:14:31Z</time>
      </trkpt>
      <trkpt lat="45.76552" lon="6.5705">
        <ele>1791</ele>
        <time>2022-07-24T08:14:32Z</time>
      </trkpt>
      <trkpt lat="45.76553" lon="6.57051">
        <ele>1791</ele>
        <time>2022-07-24T08:14:33Z</time>
      </trkpt>
      <trkpt lat="45.76553" lon="6.57052">
        <ele>1791</ele>
        <time>2022-07-24T08:14:34Z</time>
      </trkpt>
      <trkpt lat="45.76554" lon="6.57054">
        <ele>1791</ele>
        <time>2022-07-24T08:14:35Z</time>
      </trkpt>
      <trkpt lat="45.76555" lon="6.57055">
        <ele>1791</ele>
        <time>2022-07-24T08:14:36Z</time>
      </trkpt>
      <trkpt lat="45.76555" lon="6.57057">
        <ele>1791</ele>
        <time>2022-07-24T08:14:37Z</time>
      </trkpt>
      <trkpt lat="45.76556" lon="6.57058">
        <ele>1791</ele>
        <time>2022-07-24T08:14:38Z</time>
      </trkpt>
      <trkpt lat="45.76556" lon="6.57059">
        <ele>1791</ele>
        <time>2022-07-24T08:14:39Z</time>
      </trkpt>
      <trkpt lat="45.76557" lon="6.5706">
        <ele>1791</ele>
        <time>2022-07-24T08:14:40Z</time>
      </trkpt>
      <trkpt lat="45.76557" lon="6.57061">
        <ele>1791</ele>
        <time>2022-07-24T08:14:41Z</time>
      </trkpt>
      <trkpt lat="45.76558" lon="6.57062">
        <ele>1791</ele>
        <time>2022-07-24T08:14:42Z</time>
      </trkpt>
      <trkpt lat="45.76558" lon="6.57063">
        <ele>1791</ele>
        <time>2022-07-24T08:14:43Z</time>
      </trkpt>
      <trkpt lat="45.76559" lon="6.57064">
        <ele>1791</ele>
        <time>2022-07-24T08:14:44Z</time>
      </trkpt>
      <trkpt lat="45.76559" lon="6.57066">
        <ele>1791</ele>
        <time>2022-07-24T08:14:45Z</time>
      </trkpt>
      <trkpt lat="45.7656" lon="6.57067">
        <ele>1791</ele>
        <time>2022-07-24T08:14:46Z</time>
      </trkpt>
      <trkpt lat="45.7656" lon="6.57068">
        <ele>1791</ele>
        <time>2022-07-24T08:14:47Z</time>
      </trkpt>
      <trkpt lat="45.7656" lon="6.5707">
        <ele>1791</ele>
        <time>2022-07-24T08:14:48Z</time>
      </trkpt>
      <trkpt lat="45.76561" lon="6.57071">
        <ele>1791</ele>
        <time>2022-07-24T08:14:49Z</time>
      </trkpt>
      <trkpt lat="45.76561" lon="6.57073">
        <ele>1791</ele>
        <time>2022-07-24T08:14:50Z</time>
      </trkpt>
      <trkpt lat="45.76561" lon="6.57074">
        <ele>1792</ele>
        <time>2022-07-24T08:14:51Z</time>
      </trkpt>
      <trkpt lat="45.76562" lon="6.57075">
        <ele>1792</ele>
        <time>2022-07-24T08:14:52Z</time>
      </trkpt>
      <trkpt lat="45.76562" lon="6.57076">
        <ele>1792</ele>
        <time>2022-07-24T08:14:53Z</time>
      </trkpt>
      <trkpt lat="45.76563" lon="6.57077">
        <ele>1792</ele>
        <time>2022-07-24T08:14:54Z</time>
      </trkpt>
      <trkpt lat="45.76563" lon="6.57078">
        <ele>1792</ele>
        <time>2022-07-24T08:14:55Z</time>
      </trkpt>
      <trkpt lat="45.76564" lon="6.57079">
        <ele>1792</ele>
        <time>2022-07-24T08:14:56Z</time>
      </trkpt>
      <trkpt lat="45.76564" lon="6.57081">
        <ele>1792</ele>
        <time>2022-07-24T08:14:57Z</time>
      </trkpt>
      <trkpt lat="45.76565" lon="6.57082">
        <ele>1792</ele>
        <time>2022-07-24T08:14:58Z</time>
      </trkpt>
      <trkpt lat="45.76565" lon="6.57083">
        <ele>1792</ele>
        <time>2022-07-24T08:14:59Z</time>
      </trkpt>
      <trkpt lat="45.76566" lon="6.57084">
        <ele>1792</ele>
        <time>2022-07-24T08:15:00Z</time>
      </trkpt>
      <trkpt lat="45.76566" lon="6.57085">
        <ele>1792</ele>
        <time>2022-07-24T08:15:01Z</time>
      </trkpt>
      <trkpt lat="45.76566" lon="6.57086">
        <ele>1792</ele>
        <time>2022-07-24T08:15:02Z</time>
      </trkpt>
      <trkpt lat="45.76567" lon="6.57087">
        <ele>1792</ele>
        <time>2022-07-24T08:15:03Z</time>
      </trkpt>
      <trkpt lat="45.76567" lon="6.57088">
        <ele>1792</ele>
        <time>2022-07-24T08:15:04Z</time>
      </trkpt>
      <trkpt lat="45.76567" lon="6.57089">
        <ele>1792</ele>
        <time>2022-07-24T08:15:05Z</time>
      </trkpt>
      <trkpt lat="45.76567" lon="6.5709">
        <ele>1792</ele>
        <time>2022-07-24T08:15:06Z</time>
      </trkpt>
      <trkpt lat="45.76568" lon="6.57091">
        <ele>1792</ele>
        <time>2022-07-24T08:15:07Z</time>
      </trkpt>
      <trkpt lat="45.76568" lon="6.57092">
        <ele>1792</ele>
        <time>2022-07-24T08:15:08Z</time>
      </trkpt>
      <trkpt lat="45.76569" lon="6.57094">
        <ele>1792</ele>
        <time>2022-07-24T08:15:09Z</time>
      </trkpt>
      <trkpt lat="45.76569" lon="6.57095">
        <ele>1792</ele>
        <time>2022-07-24T08:15:10Z</time>
      </trkpt>
      <trkpt lat="45.7657" lon="6.57096">
        <ele>1793</ele>
        <time>2022-07-24T08:15:11Z</time>
      </trkpt>
      <trkpt lat="45.7657" lon="6.57097">
        <ele>1793</ele>
        <time>2022-07-24T08:15:12Z</time>
      </trkpt>
      <trkpt lat="45.76571" lon="6.57099">
        <ele>1793</ele>
        <time>2022-07-24T08:15:13Z</time>
      </trkpt>
      <trkpt lat="45.76571" lon="6.571">
        <ele>1793</ele>
        <time>2022-07-24T08:15:14Z</time>
      </trkpt>
      <trkpt lat="45.76572" lon="6.57101">
        <ele>1793</ele>
        <time>2022-07-24T08:15:15Z</time>
      </trkpt>
      <trkpt lat="45.76572" lon="6.57102">
        <ele>1793</ele>
        <time>2022-07-24T08:15:16Z</time>
      </trkpt>
      <trkpt lat="45.76573" lon="6.57103">
        <ele>1793</ele>
        <time>2022-07-24T08:15:17Z</time>
      </trkpt>
      <trkpt lat="45.76573" lon="6.57104">
        <ele>1793</ele>
        <time>2022-07-24T08:15:18Z</time>
      </trkpt>
      <trkpt lat="45.76574" lon="6.57105">
        <ele>1793</ele>
        <time>2022-07-24T08:15:19Z</time>
      </trkpt>
      <trkpt lat="45.76574" lon="6.57106">
        <ele>1793</ele>
        <time>2022-07-24T08:15:20Z</time>
      </trkpt>
      <trkpt lat="45.76575" lon="6.57107">
        <ele>1794</ele>
        <time>2022-07-24T08:15:21Z</time>
      </trkpt>
      <trkpt lat="45.76576" lon="6.57108">
        <ele>1794</ele>
        <time>2022-07-24T08:15:22Z</time>
      </trkpt>
      <trkpt lat="45.76576" lon="6.5711">
        <ele>1794</ele>
        <time>2022-07-24T08:15:23Z</time>
      </trkpt>
      <trkpt lat="45.76577" lon="6.57111">
        <ele>1794</ele>
        <time>2022-07-24T08:15:24Z</time>
      </trkpt>
      <trkpt lat="45.76578" lon="6.57112">
        <ele>1794</ele>
        <time>2022-07-24T08:15:25Z</time>
      </trkpt>
      <trkpt lat="45.76578" lon="6.57113">
        <ele>1794</ele>
        <time>2022-07-24T08:15:26Z</time>
      </trkpt>
      <trkpt lat="45.76579" lon="6.57114">
        <ele>1794</ele>
        <time>2022-07-24T08:15:27Z</time>
      </trkpt>
      <trkpt lat="45.7658" lon="6.57115">
        <ele>1794</ele>
        <time>2022-07-24T08:15:28Z</time>
      </trkpt>
      <trkpt lat="45.7658" lon="6.57116">
        <ele>1794</ele>
        <time>2022-07-24T08:15:29Z</time>
      </trkpt>
      <trkpt lat="45.76581" lon="6.57117">
        <ele>1794</ele>
        <time>2022-07-24T08:15:30Z</time>
      </trkpt>
      <trkpt lat="45.76581" lon="6.57118">
        <ele>1795</ele>
        <time>2022-07-24T08:15:31Z</time>
      </trkpt>
      <trkpt lat="45.76582" lon="6.5712">
        <ele>1795</ele>
        <time>2022-07-24T08:15:32Z</time>
      </trkpt>
      <trkpt lat="45.76583" lon="6.57121">
        <ele>1795</ele>
        <time>2022-07-24T08:15:33Z</time>
      </trkpt>
      <trkpt lat="45.76583" lon="6.57122">
        <ele>1795</ele>
        <time>2022-07-24T08:15:34Z</time>
      </trkpt>
      <trkpt lat="45.76584" lon="6.57123">
        <ele>1795</ele>
        <time>2022-07-24T08:15:35Z</time>
      </trkpt>
      <trkpt lat="45.76585" lon="6.57124">
        <ele>1795</ele>
        <time>2022-07-24T08:15:36Z</time>
      </trkpt>
      <trkpt lat="45.76585" lon="6.57125">
        <ele>1795</ele>
        <time>2022-07-24T08:15:37Z</time>
      </trkpt>
      <trkpt lat="45.76586" lon="6.57126">
        <ele>1795</ele>
        <time>2022-07-24T08:15:38Z</time>
      </trkpt>
      <trkpt lat="45.76587" lon="6.57127">
        <ele>1795</ele>
        <time>2022-07-24T08:15:39Z</time>
      </trkpt>
      <trkpt lat="45.76588" lon="6.57128">
        <ele>1795</ele>
        <time>2022-07-24T08:15:40Z</time>
      </trkpt>
      <trkpt lat="45.76588" lon="6.57129">
        <ele>1796</ele>
        <time>2022-07-24T08:15:41Z</time>
      </trkpt>
      <trkpt lat="45.76589" lon="6.5713">
        <ele>1796</ele>
        <time>2022-07-24T08:15:42Z</time>
      </trkpt>
      <trkpt lat="45.7659" lon="6.57131">
        <ele>1796</ele>
        <time>2022-07-24T08:15:43Z</time>
      </trkpt>
      <trkpt lat="45.7659" lon="6.57132">
        <ele>1796</ele>
        <time>2022-07-24T08:15:44Z</time>
      </trkpt>
      <trkpt lat="45.76591" lon="6.57133">
        <ele>1796</ele>
        <time>2022-07-24T08:15:45Z</time>
      </trkpt>
      <trkpt lat="45.76591" lon="6.57134">
        <ele>1796</ele>
        <time>2022-07-24T08:15:46Z</time>
      </trkpt>
      <trkpt lat="45.76592" lon="6.57134">
        <ele>1796</ele>
        <time>2022-07-24T08:15:47Z</time>
      </trkpt>
      <trkpt lat="45.76593" lon="6.57135">
        <ele>1796</ele>
        <time>2022-07-24T08:15:48Z</time>
      </trkpt>
      <trkpt lat="45.76594" lon="6.57135">
        <ele>1796</ele>
        <time>2022-07-24T08:15:49Z</time>
      </trkpt>
      <trkpt lat="45.76594" lon="6.57136">
        <ele>1796</ele>
        <time>2022-07-24T08:15:50Z</time>
      </trkpt>
      <trkpt lat="45.76595" lon="6.57137">
        <ele>1796</ele>
        <time>2022-07-24T08:15:51Z</time>
      </trkpt>
      <trkpt lat="45.76596" lon="6.57137">
        <ele>1796</ele>
        <time>2022-07-24T08:15:52Z</time>
      </trkpt>
      <trkpt lat="45.76596" lon="6.57138">
        <ele>1796</ele>
        <time>2022-07-24T08:15:53Z</time>
      </trkpt>
      <trkpt lat="45.76597" lon="6.57139">
        <ele>1796</ele>
        <time>2022-07-24T08:15:54Z</time>
      </trkpt>
      <trkpt lat="45.76598" lon="6.5714">
        <ele>1796</ele>
        <time>2022-07-24T08:15:55Z</time>
      </trkpt>
      <trkpt lat="45.76598" lon="6.57141">
        <ele>1797</ele>
        <time>2022-07-24T08:15:56Z</time>
      </trkpt>
      <trkpt lat="45.76599" lon="6.57142">
        <ele>1797</ele>
        <time>2022-07-24T08:15:57Z</time>
      </trkpt>
      <trkpt lat="45.766" lon="6.57143">
        <ele>1797</ele>
        <time>2022-07-24T08:15:58Z</time>
      </trkpt>
      <trkpt lat="45.766" lon="6.57144">
        <ele>1797</ele>
        <time>2022-07-24T08:15:59Z</time>
      </trkpt>
      <trkpt lat="45.76601" lon="6.57144">
        <ele>1797</ele>
        <time>2022-07-24T08:16:00Z</time>
      </trkpt>
      <trkpt lat="45.76602" lon="6.57146">
        <ele>1797</ele>
        <time>2022-07-24T08:16:01Z</time>
      </trkpt>
      <trkpt lat="45.76603" lon="6.57147">
        <ele>1797</ele>
        <time>2022-07-24T08:16:02Z</time>
      </trkpt>
      <trkpt lat="45.76603" lon="6.57148">
        <ele>1797</ele>
        <time>2022-07-24T08:16:03Z</time>
      </trkpt>
      <trkpt lat="45.76604" lon="6.57149">
        <ele>1797</ele>
        <time>2022-07-24T08:16:04Z</time>
      </trkpt>
      <trkpt lat="45.76604" lon="6.5715">
        <ele>1797</ele>
        <time>2022-07-24T08:16:05Z</time>
      </trkpt>
      <trkpt lat="45.76605" lon="6.57151">
        <ele>1797</ele>
        <time>2022-07-24T08:16:06Z</time>
      </trkpt>
      <trkpt lat="45.76605" lon="6.57152">
        <ele>1797</ele>
        <time>2022-07-24T08:16:07Z</time>
      </trkpt>
      <trkpt lat="45.76606" lon="6.57153">
        <ele>1797</ele>
        <time>2022-07-24T08:16:08Z</time>
      </trkpt>
      <trkpt lat="45.76606" lon="6.57154">
        <ele>1797</ele>
        <time>2022-07-24T08:16:09Z</time>
      </trkpt>
      <trkpt lat="45.76607" lon="6.57156">
        <ele>1797</ele>
        <time>2022-07-24T08:16:10Z</time>
      </trkpt>
      <trkpt lat="45.76607" lon="6.57157">
        <ele>1797</ele>
        <time>2022-07-24T08:16:11Z</time>
      </trkpt>
      <trkpt lat="45.76608" lon="6.57158">
        <ele>1797</ele>
        <time>2022-07-24T08:16:12Z</time>
      </trkpt>
      <trkpt lat="45.76608" lon="6.57159">
        <ele>1797</ele>
        <time>2022-07-24T08:16:13Z</time>
      </trkpt>
      <trkpt lat="45.76609" lon="6.5716">
        <ele>1797</ele>
        <time>2022-07-24T08:16:14Z</time>
      </trkpt>
      <trkpt lat="45.76609" lon="6.57161">
        <ele>1797</ele>
        <time>2022-07-24T08:16:15Z</time>
      </trkpt>
      <trkpt lat="45.76609" lon="6.57162">
        <ele>1798</ele>
        <time>2022-07-24T08:16:16Z</time>
      </trkpt>
      <trkpt lat="45.7661" lon="6.57163">
        <ele>1798</ele>
        <time>2022-07-24T08:16:17Z</time>
      </trkpt>
      <trkpt lat="45.7661" lon="6.57164">
        <ele>1798</ele>
        <time>2022-07-24T08:16:18Z</time>
      </trkpt>
      <trkpt lat="45.76611" lon="6.57165">
        <ele>1798</ele>
        <time>2022-07-24T08:16:19Z</time>
      </trkpt>
      <trkpt lat="45.76611" lon="6.57167">
        <ele>1798</ele>
        <time>2022-07-24T08:16:20Z</time>
      </trkpt>
      <trkpt lat="45.76611" lon="6.57168">
        <ele>1798</ele>
        <time>2022-07-24T08:16:21Z</time>
      </trkpt>
      <trkpt lat="45.76612" lon="6.57169">
        <ele>1798</ele>
        <time>2022-07-24T08:16:22Z</time>
      </trkpt>
      <trkpt lat="45.76612" lon="6.5717">
        <ele>1798</ele>
        <time>2022-07-24T08:16:23Z</time>
      </trkpt>
      <trkpt lat="45.76613" lon="6.57171">
        <ele>1798</ele>
        <time>2022-07-24T08:16:24Z</time>
      </trkpt>
      <trkpt lat="45.76613" lon="6.57172">
        <ele>1798</ele>
        <time>2022-07-24T08:16:25Z</time>
      </trkpt>
      <trkpt lat="45.76613" lon="6.57173">
        <ele>1799</ele>
        <time>2022-07-24T08:16:26Z</time>
      </trkpt>
      <trkpt lat="45.76614" lon="6.57174">
        <ele>1799</ele>
        <time>2022-07-24T08:16:27Z</time>
      </trkpt>
      <trkpt lat="45.76614" lon="6.57176">
        <ele>1799</ele>
        <time>2022-07-24T08:16:28Z</time>
      </trkpt>
      <trkpt lat="45.76614" lon="6.57177">
        <ele>1799</ele>
        <time>2022-07-24T08:16:29Z</time>
      </trkpt>
      <trkpt lat="45.76615" lon="6.57178">
        <ele>1799</ele>
        <time>2022-07-24T08:16:30Z</time>
      </trkpt>
      <trkpt lat="45.76615" lon="6.57179">
        <ele>1799</ele>
        <time>2022-07-24T08:16:31Z</time>
      </trkpt>
      <trkpt lat="45.76615" lon="6.5718">
        <ele>1799</ele>
        <time>2022-07-24T08:16:32Z</time>
      </trkpt>
      <trkpt lat="45.76615" lon="6.57182">
        <ele>1799</ele>
        <time>2022-07-24T08:16:33Z</time>
      </trkpt>
      <trkpt lat="45.76616" lon="6.57183">
        <ele>1799</ele>
        <time>2022-07-24T08:16:34Z</time>
      </trkpt>
      <trkpt lat="45.76616" lon="6.57184">
        <ele>1799</ele>
        <time>2022-07-24T08:16:35Z</time>
      </trkpt>
      <trkpt lat="45.76616" lon="6.57185">
        <ele>1800</ele>
        <time>2022-07-24T08:16:36Z</time>
      </trkpt>
      <trkpt lat="45.76616" lon="6.57187">
        <ele>1800</ele>
        <time>2022-07-24T08:16:37Z</time>
      </trkpt>
      <trkpt lat="45.76617" lon="6.57188">
        <ele>1800</ele>
        <time>2022-07-24T08:16:38Z</time>
      </trkpt>
      <trkpt lat="45.76617" lon="6.57189">
        <ele>1800</ele>
        <time>2022-07-24T08:16:39Z</time>
      </trkpt>
      <trkpt lat="45.76617" lon="6.5719">
        <ele>1800</ele>
        <time>2022-07-24T08:16:40Z</time>
      </trkpt>
      <trkpt lat="45.76617" lon="6.57192">
        <ele>1800</ele>
        <time>2022-07-24T08:16:41Z</time>
      </trkpt>
      <trkpt lat="45.76617" lon="6.57193">
        <ele>1800</ele>
        <time>2022-07-24T08:16:42Z</time>
      </trkpt>
      <trkpt lat="45.76618" lon="6.57194">
        <ele>1800</ele>
        <time>2022-07-24T08:16:43Z</time>
      </trkpt>
      <trkpt lat="45.76618" lon="6.57195">
        <ele>1800</ele>
        <time>2022-07-24T08:16:44Z</time>
      </trkpt>
      <trkpt lat="45.76618" lon="6.57196">
        <ele>1800</ele>
        <time>2022-07-24T08:16:45Z</time>
      </trkpt>
      <trkpt lat="45.76619" lon="6.57198">
        <ele>1801</ele>
        <time>2022-07-24T08:16:46Z</time>
      </trkpt>
      <trkpt lat="45.76619" lon="6.57199">
        <ele>1801</ele>
        <time>2022-07-24T08:16:47Z</time>
      </trkpt>
      <trkpt lat="45.7662" lon="6.572">
        <ele>1801</ele>
        <time>2022-07-24T08:16:48Z</time>
      </trkpt>
      <trkpt lat="45.7662" lon="6.57201">
        <ele>1801</ele>
        <time>2022-07-24T08:16:49Z</time>
      </trkpt>
      <trkpt lat="45.7662" lon="6.57202">
        <ele>1801</ele>
        <time>2022-07-24T08:16:50Z</time>
      </trkpt>
      <trkpt lat="45.76621" lon="6.57204">
        <ele>1801</ele>
        <time>2022-07-24T08:16:51Z</time>
      </trkpt>
      <trkpt lat="45.76621" lon="6.57205">
        <ele>1801</ele>
        <time>2022-07-24T08:16:52Z</time>
      </trkpt>
      <trkpt lat="45.76622" lon="6.57206">
        <ele>1801</ele>
        <time>2022-07-24T08:16:53Z</time>
      </trkpt>
      <trkpt lat="45.76622" lon="6.57208">
        <ele>1801</ele>
        <time>2022-07-24T08:16:54Z</time>
      </trkpt>
      <trkpt lat="45.76622" lon="6.57209">
        <ele>1801</ele>
        <time>2022-07-24T08:16:55Z</time>
      </trkpt>
      <trkpt lat="45.76623" lon="6.5721">
        <ele>1801</ele>
        <time>2022-07-24T08:16:56Z</time>
      </trkpt>
      <trkpt lat="45.76623" lon="6.57212">
        <ele>1801</ele>
        <time>2022-07-24T08:16:57Z</time>
      </trkpt>
      <trkpt lat="45.76623" lon="6.57213">
        <ele>1801</ele>
        <time>2022-07-24T08:16:58Z</time>
      </trkpt>
      <trkpt lat="45.76623" lon="6.57214">
        <ele>1801</ele>
        <time>2022-07-24T08:16:59Z</time>
      </trkpt>
      <trkpt lat="45.76623" lon="6.57216">
        <ele>1801</ele>
        <time>2022-07-24T08:17:00Z</time>
      </trkpt>
      <trkpt lat="45.76624" lon="6.57217">
        <ele>1802</ele>
        <time>2022-07-24T08:17:01Z</time>
      </trkpt>
      <trkpt lat="45.76624" lon="6.57218">
        <ele>1802</ele>
        <time>2022-07-24T08:17:02Z</time>
      </trkpt>
      <trkpt lat="45.76624" lon="6.57219">
        <ele>1802</ele>
        <time>2022-07-24T08:17:03Z</time>
      </trkpt>
      <trkpt lat="45.76625" lon="6.5722">
        <ele>1802</ele>
        <time>2022-07-24T08:17:04Z</time>
      </trkpt>
      <trkpt lat="45.76625" lon="6.57221">
        <ele>1802</ele>
        <time>2022-07-24T08:17:05Z</time>
      </trkpt>
      <trkpt lat="45.76626" lon="6.57222">
        <ele>1802</ele>
        <time>2022-07-24T08:17:06Z</time>
      </trkpt>
      <trkpt lat="45.76626" lon="6.57223">
        <ele>1802</ele>
        <time>2022-07-24T08:17:07Z</time>
      </trkpt>
      <trkpt lat="45.76626" lon="6.57224">
        <ele>1802</ele>
        <time>2022-07-24T08:17:08Z</time>
      </trkpt>
      <trkpt lat="45.76627" lon="6.57225">
        <ele>1802</ele>
        <time>2022-07-24T08:17:09Z</time>
      </trkpt>
      <trkpt lat="45.76627" lon="6.57226">
        <ele>1802</ele>
        <time>2022-07-24T08:17:10Z</time>
      </trkpt>
      <trkpt lat="45.76628" lon="6.57227">
        <ele>1803</ele>
        <time>2022-07-24T08:17:11Z</time>
      </trkpt>
      <trkpt lat="45.76628" lon="6.57228">
        <ele>1803</ele>
        <time>2022-07-24T08:17:12Z</time>
      </trkpt>
      <trkpt lat="45.76628" lon="6.5723">
        <ele>1803</ele>
        <time>2022-07-24T08:17:13Z</time>
      </trkpt>
      <trkpt lat="45.76629" lon="6.57231">
        <ele>1803</ele>
        <time>2022-07-24T08:17:14Z</time>
      </trkpt>
      <trkpt lat="45.76629" lon="6.57232">
        <ele>1803</ele>
        <time>2022-07-24T08:17:15Z</time>
      </trkpt>
      <trkpt lat="45.76629" lon="6.57233">
        <ele>1803</ele>
        <time>2022-07-24T08:17:16Z</time>
      </trkpt>
      <trkpt lat="45.76629" lon="6.57234">
        <ele>1803</ele>
        <time>2022-07-24T08:17:17Z</time>
      </trkpt>
      <trkpt lat="45.76629" lon="6.57235">
        <ele>1803</ele>
        <time>2022-07-24T08:17:18Z</time>
      </trkpt>
      <trkpt lat="45.76629" lon="6.57237">
        <ele>1803</ele>
        <time>2022-07-24T08:17:19Z</time>
      </trkpt>
      <trkpt lat="45.76629" lon="6.57238">
        <ele>1803</ele>
        <time>2022-07-24T08:17:20Z</time>
      </trkpt>
      <trkpt lat="45.76629" lon="6.57239">
        <ele>1803</ele>
        <time>2022-07-24T08:17:21Z</time>
      </trkpt>
      <trkpt lat="45.76629" lon="6.57241">
        <ele>1803</ele>
        <time>2022-07-24T08:17:22Z</time>
      </trkpt>
      <trkpt lat="45.7663" lon="6.57242">
        <ele>1803</ele>
        <time>2022-07-24T08:17:23Z</time>
      </trkpt>
      <trkpt lat="45.7663" lon="6.57243">
        <ele>1803</ele>
        <time>2022-07-24T08:17:24Z</time>
      </trkpt>
      <trkpt lat="45.7663" lon="6.57244">
        <ele>1803</ele>
        <time>2022-07-24T08:17:25Z</time>
      </trkpt>
      <trkpt lat="45.7663" lon="6.57246">
        <ele>1804</ele>
        <time>2022-07-24T08:17:26Z</time>
      </trkpt>
      <trkpt lat="45.76631" lon="6.57247">
        <ele>1804</ele>
        <time>2022-07-24T08:17:27Z</time>
      </trkpt>
      <trkpt lat="45.76631" lon="6.57248">
        <ele>1804</ele>
        <time>2022-07-24T08:17:28Z</time>
      </trkpt>
      <trkpt lat="45.76631" lon="6.5725">
        <ele>1804</ele>
        <time>2022-07-24T08:17:29Z</time>
      </trkpt>
      <trkpt lat="45.76631" lon="6.57251">
        <ele>1804</ele>
        <time>2022-07-24T08:17:30Z</time>
      </trkpt>
      <trkpt lat="45.76632" lon="6.57252">
        <ele>1804</ele>
        <time>2022-07-24T08:17:31Z</time>
      </trkpt>
      <trkpt lat="45.76632" lon="6.57253">
        <ele>1804</ele>
        <time>2022-07-24T08:17:32Z</time>
      </trkpt>
      <trkpt lat="45.76632" lon="6.57255">
        <ele>1804</ele>
        <time>2022-07-24T08:17:33Z</time>
      </trkpt>
      <trkpt lat="45.76632" lon="6.57256">
        <ele>1804</ele>
        <time>2022-07-24T08:17:34Z</time>
      </trkpt>
      <trkpt lat="45.76633" lon="6.57257">
        <ele>1804</ele>
        <time>2022-07-24T08:17:35Z</time>
      </trkpt>
      <trkpt lat="45.76633" lon="6.57259">
        <ele>1805</ele>
        <time>2022-07-24T08:17:36Z</time>
      </trkpt>
      <trkpt lat="45.76633" lon="6.5726">
        <ele>1805</ele>
        <time>2022-07-24T08:17:37Z</time>
      </trkpt>
      <trkpt lat="45.76633" lon="6.57261">
        <ele>1805</ele>
        <time>2022-07-24T08:17:38Z</time>
      </trkpt>
      <trkpt lat="45.76634" lon="6.57262">
        <ele>1805</ele>
        <time>2022-07-24T08:17:39Z</time>
      </trkpt>
      <trkpt lat="45.76634" lon="6.57264">
        <ele>1805</ele>
        <time>2022-07-24T08:17:40Z</time>
      </trkpt>
      <trkpt lat="45.76634" lon="6.57265">
        <ele>1805</ele>
        <time>2022-07-24T08:17:41Z</time>
      </trkpt>
      <trkpt lat="45.76634" lon="6.57266">
        <ele>1805</ele>
        <time>2022-07-24T08:17:42Z</time>
      </trkpt>
      <trkpt lat="45.76634" lon="6.57268">
        <ele>1805</ele>
        <time>2022-07-24T08:17:43Z</time>
      </trkpt>
      <trkpt lat="45.76634" lon="6.57269">
        <ele>1805</ele>
        <time>2022-07-24T08:17:44Z</time>
      </trkpt>
      <trkpt lat="45.76634" lon="6.5727">
        <ele>1805</ele>
        <time>2022-07-24T08:17:45Z</time>
      </trkpt>
      <trkpt lat="45.76634" lon="6.57272">
        <ele>1805</ele>
        <time>2022-07-24T08:17:46Z</time>
      </trkpt>
      <trkpt lat="45.76634" lon="6.57273">
        <ele>1805</ele>
        <time>2022-07-24T08:17:47Z</time>
      </trkpt>
      <trkpt lat="45.76634" lon="6.57274">
        <ele>1805</ele>
        <time>2022-07-24T08:17:48Z</time>
      </trkpt>
      <trkpt lat="45.76634" lon="6.57276">
        <ele>1805</ele>
        <time>2022-07-24T08:17:49Z</time>
      </trkpt>
      <trkpt lat="45.76633" lon="6.57277">
        <ele>1805</ele>
        <time>2022-07-24T08:17:50Z</time>
      </trkpt>
      <trkpt lat="45.76633" lon="6.57278">
        <ele>1805</ele>
        <time>2022-07-24T08:17:51Z</time>
      </trkpt>
      <trkpt lat="45.76633" lon="6.5728">
        <ele>1805</ele>
        <time>2022-07-24T08:17:52Z</time>
      </trkpt>
      <trkpt lat="45.76633" lon="6.57281">
        <ele>1805</ele>
        <time>2022-07-24T08:17:53Z</time>
      </trkpt>
      <trkpt lat="45.76633" lon="6.57283">
        <ele>1805</ele>
        <time>2022-07-24T08:17:54Z</time>
      </trkpt>
      <trkpt lat="45.76633" lon="6.57284">
        <ele>1805</ele>
        <time>2022-07-24T08:17:55Z</time>
      </trkpt>
      <trkpt lat="45.76633" lon="6.57286">
        <ele>1806</ele>
        <time>2022-07-24T08:17:56Z</time>
      </trkpt>
      <trkpt lat="45.76633" lon="6.57287">
        <ele>1806</ele>
        <time>2022-07-24T08:17:57Z</time>
      </trkpt>
      <trkpt lat="45.76633" lon="6.57289">
        <ele>1806</ele>
        <time>2022-07-24T08:17:58Z</time>
      </trkpt>
      <trkpt lat="45.76633" lon="6.5729">
        <ele>1806</ele>
        <time>2022-07-24T08:17:59Z</time>
      </trkpt>
      <trkpt lat="45.76633" lon="6.57292">
        <ele>1806</ele>
        <time>2022-07-24T08:18:00Z</time>
      </trkpt>
      <trkpt lat="45.76633" lon="6.57293">
        <ele>1806</ele>
        <time>2022-07-24T08:18:01Z</time>
      </trkpt>
      <trkpt lat="45.76633" lon="6.57295">
        <ele>1806</ele>
        <time>2022-07-24T08:18:02Z</time>
      </trkpt>
      <trkpt lat="45.76633" lon="6.57296">
        <ele>1806</ele>
        <time>2022-07-24T08:18:03Z</time>
      </trkpt>
      <trkpt lat="45.76633" lon="6.57298">
        <ele>1806</ele>
        <time>2022-07-24T08:18:04Z</time>
      </trkpt>
      <trkpt lat="45.76633" lon="6.57299">
        <ele>1806</ele>
        <time>2022-07-24T08:18:05Z</time>
      </trkpt>
      <trkpt lat="45.76633" lon="6.57301">
        <ele>1807</ele>
        <time>2022-07-24T08:18:06Z</time>
      </trkpt>
      <trkpt lat="45.76634" lon="6.57302">
        <ele>1807</ele>
        <time>2022-07-24T08:18:07Z</time>
      </trkpt>
      <trkpt lat="45.76634" lon="6.57303">
        <ele>1807</ele>
        <time>2022-07-24T08:18:08Z</time>
      </trkpt>
      <trkpt lat="45.76634" lon="6.57304">
        <ele>1807</ele>
        <time>2022-07-24T08:18:09Z</time>
      </trkpt>
      <trkpt lat="45.76634" lon="6.57306">
        <ele>1807</ele>
        <time>2022-07-24T08:18:10Z</time>
      </trkpt>
      <trkpt lat="45.76634" lon="6.57307">
        <ele>1807</ele>
        <time>2022-07-24T08:18:11Z</time>
      </trkpt>
      <trkpt lat="45.76635" lon="6.57309">
        <ele>1807</ele>
        <time>2022-07-24T08:18:12Z</time>
      </trkpt>
      <trkpt lat="45.76635" lon="6.5731">
        <ele>1807</ele>
        <time>2022-07-24T08:18:13Z</time>
      </trkpt>
      <trkpt lat="45.76635" lon="6.57312">
        <ele>1807</ele>
        <time>2022-07-24T08:18:14Z</time>
      </trkpt>
      <trkpt lat="45.76635" lon="6.57313">
        <ele>1807</ele>
        <time>2022-07-24T08:18:15Z</time>
      </trkpt>
      <trkpt lat="45.76635" lon="6.57314">
        <ele>1808</ele>
        <time>2022-07-24T08:18:16Z</time>
      </trkpt>
      <trkpt lat="45.76636" lon="6.57316">
        <ele>1808</ele>
        <time>2022-07-24T08:18:17Z</time>
      </trkpt>
      <trkpt lat="45.76636" lon="6.57317">
        <ele>1808</ele>
        <time>2022-07-24T08:18:18Z</time>
      </trkpt>
      <trkpt lat="45.76636" lon="6.57318">
        <ele>1808</ele>
        <time>2022-07-24T08:18:19Z</time>
      </trkpt>
      <trkpt lat="45.76636" lon="6.5732">
        <ele>1808</ele>
        <time>2022-07-24T08:18:20Z</time>
      </trkpt>
      <trkpt lat="45.76637" lon="6.57321">
        <ele>1808</ele>
        <time>2022-07-24T08:18:21Z</time>
      </trkpt>
      <trkpt lat="45.76637" lon="6.57322">
        <ele>1808</ele>
        <time>2022-07-24T08:18:22Z</time>
      </trkpt>
      <trkpt lat="45.76637" lon="6.57324">
        <ele>1808</ele>
        <time>2022-07-24T08:18:23Z</time>
      </trkpt>
      <trkpt lat="45.76637" lon="6.57325">
        <ele>1808</ele>
        <time>2022-07-24T08:18:24Z</time>
      </trkpt>
      <trkpt lat="45.76638" lon="6.57326">
        <ele>1808</ele>
        <time>2022-07-24T08:18:25Z</time>
      </trkpt>
      <trkpt lat="45.76638" lon="6.57328">
        <ele>1809</ele>
        <time>2022-07-24T08:18:26Z</time>
      </trkpt>
      <trkpt lat="45.76637" lon="6.57329">
        <ele>1809</ele>
        <time>2022-07-24T08:18:27Z</time>
      </trkpt>
      <trkpt lat="45.76637" lon="6.57331">
        <ele>1809</ele>
        <time>2022-07-24T08:18:28Z</time>
      </trkpt>
      <trkpt lat="45.76637" lon="6.57332">
        <ele>1809</ele>
        <time>2022-07-24T08:18:29Z</time>
      </trkpt>
      <trkpt lat="45.76636" lon="6.57333">
        <ele>1809</ele>
        <time>2022-07-24T08:18:30Z</time>
      </trkpt>
      <trkpt lat="45.76636" lon="6.57335">
        <ele>1809</ele>
        <time>2022-07-24T08:18:31Z</time>
      </trkpt>
      <trkpt lat="45.76636" lon="6.57337">
        <ele>1809</ele>
        <time>2022-07-24T08:18:32Z</time>
      </trkpt>
      <trkpt lat="45.76635" lon="6.57338">
        <ele>1809</ele>
        <time>2022-07-24T08:18:33Z</time>
      </trkpt>
      <trkpt lat="45.76635" lon="6.5734">
        <ele>1809</ele>
        <time>2022-07-24T08:18:34Z</time>
      </trkpt>
      <trkpt lat="45.76635" lon="6.57341">
        <ele>1809</ele>
        <time>2022-07-24T08:18:35Z</time>
      </trkpt>
      <trkpt lat="45.76634" lon="6.57342">
        <ele>1809</ele>
        <time>2022-07-24T08:18:36Z</time>
      </trkpt>
      <trkpt lat="45.76634" lon="6.57344">
        <ele>1809</ele>
        <time>2022-07-24T08:18:45Z</time>
      </trkpt>
      <trkpt lat="45.76634" lon="6.57344">
        <ele>1810</ele>
        <time>2022-07-24T08:18:46Z</time>
      </trkpt>
      <trkpt lat="45.76634" lon="6.57345">
        <ele>1810</ele>
        <time>2022-07-24T08:18:47Z</time>
      </trkpt>
      <trkpt lat="45.76634" lon="6.57346">
        <ele>1810</ele>
        <time>2022-07-24T08:18:48Z</time>
      </trkpt>
      <trkpt lat="45.76633" lon="6.57347">
        <ele>1810</ele>
        <time>2022-07-24T08:18:49Z</time>
      </trkpt>
      <trkpt lat="45.76633" lon="6.57348">
        <ele>1810</ele>
        <time>2022-07-24T08:18:50Z</time>
      </trkpt>
      <trkpt lat="45.76632" lon="6.57349">
        <ele>1810</ele>
        <time>2022-07-24T08:18:51Z</time>
      </trkpt>
      <trkpt lat="45.76632" lon="6.5735">
        <ele>1810</ele>
        <time>2022-07-24T08:18:52Z</time>
      </trkpt>
      <trkpt lat="45.76631" lon="6.57351">
        <ele>1810</ele>
        <time>2022-07-24T08:18:53Z</time>
      </trkpt>
      <trkpt lat="45.7663" lon="6.57352">
        <ele>1810</ele>
        <time>2022-07-24T08:18:54Z</time>
      </trkpt>
      <trkpt lat="45.7663" lon="6.57353">
        <ele>1810</ele>
        <time>2022-07-24T08:18:55Z</time>
      </trkpt>
      <trkpt lat="45.76629" lon="6.57354">
        <ele>1810</ele>
        <time>2022-07-24T08:18:56Z</time>
      </trkpt>
      <trkpt lat="45.76629" lon="6.57355">
        <ele>1810</ele>
        <time>2022-07-24T08:18:57Z</time>
      </trkpt>
      <trkpt lat="45.76629" lon="6.57356">
        <ele>1810</ele>
        <time>2022-07-24T08:18:58Z</time>
      </trkpt>
      <trkpt lat="45.76628" lon="6.57357">
        <ele>1810</ele>
        <time>2022-07-24T08:18:59Z</time>
      </trkpt>
      <trkpt lat="45.76628" lon="6.57359">
        <ele>1810</ele>
        <time>2022-07-24T08:19:00Z</time>
      </trkpt>
      <trkpt lat="45.76627" lon="6.5736">
        <ele>1810</ele>
        <time>2022-07-24T08:19:01Z</time>
      </trkpt>
      <trkpt lat="45.76627" lon="6.57361">
        <ele>1810</ele>
        <time>2022-07-24T08:19:02Z</time>
      </trkpt>
      <trkpt lat="45.76626" lon="6.57362">
        <ele>1810</ele>
        <time>2022-07-24T08:19:03Z</time>
      </trkpt>
      <trkpt lat="45.76626" lon="6.57364">
        <ele>1810</ele>
        <time>2022-07-24T08:19:04Z</time>
      </trkpt>
      <trkpt lat="45.76626" lon="6.57365">
        <ele>1810</ele>
        <time>2022-07-24T08:19:05Z</time>
      </trkpt>
      <trkpt lat="45.76625" lon="6.57366">
        <ele>1811</ele>
        <time>2022-07-24T08:19:06Z</time>
      </trkpt>
      <trkpt lat="45.76625" lon="6.57368">
        <ele>1811</ele>
        <time>2022-07-24T08:19:07Z</time>
      </trkpt>
      <trkpt lat="45.76624" lon="6.57369">
        <ele>1811</ele>
        <time>2022-07-24T08:19:08Z</time>
      </trkpt>
      <trkpt lat="45.76624" lon="6.5737">
        <ele>1811</ele>
        <time>2022-07-24T08:19:09Z</time>
      </trkpt>
      <trkpt lat="45.76624" lon="6.57372">
        <ele>1811</ele>
        <time>2022-07-24T08:19:10Z</time>
      </trkpt>
      <trkpt lat="45.76624" lon="6.57373">
        <ele>1811</ele>
        <time>2022-07-24T08:19:11Z</time>
      </trkpt>
      <trkpt lat="45.76623" lon="6.57374">
        <ele>1811</ele>
        <time>2022-07-24T08:19:12Z</time>
      </trkpt>
      <trkpt lat="45.76623" lon="6.57375">
        <ele>1811</ele>
        <time>2022-07-24T08:19:13Z</time>
      </trkpt>
      <trkpt lat="45.76623" lon="6.57379">
        <ele>1813</ele>
        <time>2022-07-24T08:19:58Z</time>
      </trkpt>
      <trkpt lat="45.76623" lon="6.57381">
        <ele>1813</ele>
        <time>2022-07-24T08:19:59Z</time>
      </trkpt>
      <trkpt lat="45.76623" lon="6.57382">
        <ele>1813</ele>
        <time>2022-07-24T08:20:00Z</time>
      </trkpt>
      <trkpt lat="45.76623" lon="6.57383">
        <ele>1813</ele>
        <time>2022-07-24T08:20:01Z</time>
      </trkpt>
      <trkpt lat="45.76623" lon="6.57385">
        <ele>1813</ele>
        <time>2022-07-24T08:20:02Z</time>
      </trkpt>
      <trkpt lat="45.76623" lon="6.57386">
        <ele>1813</ele>
        <time>2022-07-24T08:20:03Z</time>
      </trkpt>
      <trkpt lat="45.76623" lon="6.57387">
        <ele>1813</ele>
        <time>2022-07-24T08:20:04Z</time>
      </trkpt>
      <trkpt lat="45.76623" lon="6.57388">
        <ele>1813</ele>
        <time>2022-07-24T08:20:05Z</time>
      </trkpt>
      <trkpt lat="45.76623" lon="6.5739">
        <ele>1813</ele>
        <time>2022-07-24T08:20:06Z</time>
      </trkpt>
      <trkpt lat="45.76623" lon="6.57391">
        <ele>1813</ele>
        <time>2022-07-24T08:20:07Z</time>
      </trkpt>
      <trkpt lat="45.76623" lon="6.57393">
        <ele>1813</ele>
        <time>2022-07-24T08:20:08Z</time>
      </trkpt>
      <trkpt lat="45.76623" lon="6.57394">
        <ele>1813</ele>
        <time>2022-07-24T08:20:09Z</time>
      </trkpt>
      <trkpt lat="45.76623" lon="6.57395">
        <ele>1813</ele>
        <time>2022-07-24T08:20:10Z</time>
      </trkpt>
      <trkpt lat="45.76623" lon="6.57396">
        <ele>1813</ele>
        <time>2022-07-24T08:20:11Z</time>
      </trkpt>
      <trkpt lat="45.76622" lon="6.57398">
        <ele>1813</ele>
        <time>2022-07-24T08:20:12Z</time>
      </trkpt>
      <trkpt lat="45.76622" lon="6.57399">
        <ele>1813</ele>
        <time>2022-07-24T08:20:13Z</time>
      </trkpt>
      <trkpt lat="45.76622" lon="6.574">
        <ele>1813</ele>
        <time>2022-07-24T08:20:14Z</time>
      </trkpt>
      <trkpt lat="45.76622" lon="6.57401">
        <ele>1813</ele>
        <time>2022-07-24T08:20:15Z</time>
      </trkpt>
      <trkpt lat="45.76622" lon="6.57402">
        <ele>1814</ele>
        <time>2022-07-24T08:20:16Z</time>
      </trkpt>
      <trkpt lat="45.76622" lon="6.57403">
        <ele>1814</ele>
        <time>2022-07-24T08:20:17Z</time>
      </trkpt>
      <trkpt lat="45.76621" lon="6.57404">
        <ele>1814</ele>
        <time>2022-07-24T08:20:18Z</time>
      </trkpt>
      <trkpt lat="45.76621" lon="6.57405">
        <ele>1814</ele>
        <time>2022-07-24T08:20:19Z</time>
      </trkpt>
      <trkpt lat="45.76621" lon="6.57406">
        <ele>1814</ele>
        <time>2022-07-24T08:20:20Z</time>
      </trkpt>
      <trkpt lat="45.76621" lon="6.57408">
        <ele>1814</ele>
        <time>2022-07-24T08:20:21Z</time>
      </trkpt>
      <trkpt lat="45.76621" lon="6.57409">
        <ele>1814</ele>
        <time>2022-07-24T08:20:22Z</time>
      </trkpt>
      <trkpt lat="45.76621" lon="6.5741">
        <ele>1814</ele>
        <time>2022-07-24T08:20:23Z</time>
      </trkpt>
      <trkpt lat="45.76621" lon="6.57411">
        <ele>1814</ele>
        <time>2022-07-24T08:20:24Z</time>
      </trkpt>
      <trkpt lat="45.76621" lon="6.57413">
        <ele>1814</ele>
        <time>2022-07-24T08:20:25Z</time>
      </trkpt>
      <trkpt lat="45.76621" lon="6.57414">
        <ele>1815</ele>
        <time>2022-07-24T08:20:26Z</time>
      </trkpt>
      <trkpt lat="45.76621" lon="6.57415">
        <ele>1815</ele>
        <time>2022-07-24T08:20:27Z</time>
      </trkpt>
      <trkpt lat="45.76621" lon="6.57416">
        <ele>1815</ele>
        <time>2022-07-24T08:20:28Z</time>
      </trkpt>
      <trkpt lat="45.76621" lon="6.57417">
        <ele>1815</ele>
        <time>2022-07-24T08:20:29Z</time>
      </trkpt>
      <trkpt lat="45.76621" lon="6.57419">
        <ele>1815</ele>
        <time>2022-07-24T08:20:30Z</time>
      </trkpt>
      <trkpt lat="45.76621" lon="6.5742">
        <ele>1815</ele>
        <time>2022-07-24T08:20:31Z</time>
      </trkpt>
      <trkpt lat="45.76621" lon="6.57421">
        <ele>1815</ele>
        <time>2022-07-24T08:20:32Z</time>
      </trkpt>
      <trkpt lat="45.76621" lon="6.57422">
        <ele>1815</ele>
        <time>2022-07-24T08:20:33Z</time>
      </trkpt>
      <trkpt lat="45.76622" lon="6.57424">
        <ele>1815</ele>
        <time>2022-07-24T08:20:34Z</time>
      </trkpt>
      <trkpt lat="45.76622" lon="6.57425">
        <ele>1815</ele>
        <time>2022-07-24T08:20:35Z</time>
      </trkpt>
      <trkpt lat="45.76622" lon="6.57426">
        <ele>1815</ele>
        <time>2022-07-24T08:20:36Z</time>
      </trkpt>
      <trkpt lat="45.76622" lon="6.57428">
        <ele>1815</ele>
        <time>2022-07-24T08:20:37Z</time>
      </trkpt>
      <trkpt lat="45.76622" lon="6.57429">
        <ele>1815</ele>
        <time>2022-07-24T08:20:38Z</time>
      </trkpt>
      <trkpt lat="45.76622" lon="6.5743">
        <ele>1815</ele>
        <time>2022-07-24T08:20:39Z</time>
      </trkpt>
      <trkpt lat="45.76622" lon="6.57431">
        <ele>1815</ele>
        <time>2022-07-24T08:20:40Z</time>
      </trkpt>
      <trkpt lat="45.76622" lon="6.57433">
        <ele>1816</ele>
        <time>2022-07-24T08:20:41Z</time>
      </trkpt>
      <trkpt lat="45.76622" lon="6.57434">
        <ele>1816</ele>
        <time>2022-07-24T08:20:42Z</time>
      </trkpt>
      <trkpt lat="45.76622" lon="6.57435">
        <ele>1816</ele>
        <time>2022-07-24T08:20:43Z</time>
      </trkpt>
      <trkpt lat="45.76622" lon="6.57436">
        <ele>1816</ele>
        <time>2022-07-24T08:20:44Z</time>
      </trkpt>
      <trkpt lat="45.76621" lon="6.57438">
        <ele>1816</ele>
        <time>2022-07-24T08:20:45Z</time>
      </trkpt>
      <trkpt lat="45.76621" lon="6.57439">
        <ele>1816</ele>
        <time>2022-07-24T08:20:46Z</time>
      </trkpt>
      <trkpt lat="45.76621" lon="6.5744">
        <ele>1816</ele>
        <time>2022-07-24T08:20:47Z</time>
      </trkpt>
      <trkpt lat="45.76621" lon="6.57441">
        <ele>1816</ele>
        <time>2022-07-24T08:20:48Z</time>
      </trkpt>
      <trkpt lat="45.76621" lon="6.57442">
        <ele>1816</ele>
        <time>2022-07-24T08:20:49Z</time>
      </trkpt>
      <trkpt lat="45.76621" lon="6.57444">
        <ele>1816</ele>
        <time>2022-07-24T08:20:50Z</time>
      </trkpt>
      <trkpt lat="45.76621" lon="6.57445">
        <ele>1817</ele>
        <time>2022-07-24T08:20:51Z</time>
      </trkpt>
      <trkpt lat="45.76621" lon="6.57446">
        <ele>1817</ele>
        <time>2022-07-24T08:20:52Z</time>
      </trkpt>
      <trkpt lat="45.7662" lon="6.57448">
        <ele>1817</ele>
        <time>2022-07-24T08:20:53Z</time>
      </trkpt>
      <trkpt lat="45.7662" lon="6.57449">
        <ele>1817</ele>
        <time>2022-07-24T08:20:54Z</time>
      </trkpt>
      <trkpt lat="45.7662" lon="6.57451">
        <ele>1817</ele>
        <time>2022-07-24T08:20:55Z</time>
      </trkpt>
      <trkpt lat="45.7662" lon="6.57453">
        <ele>1817</ele>
        <time>2022-07-24T08:20:56Z</time>
      </trkpt>
      <trkpt lat="45.7662" lon="6.57454">
        <ele>1817</ele>
        <time>2022-07-24T08:20:57Z</time>
      </trkpt>
      <trkpt lat="45.7662" lon="6.57456">
        <ele>1817</ele>
        <time>2022-07-24T08:20:58Z</time>
      </trkpt>
      <trkpt lat="45.76619" lon="6.57457">
        <ele>1817</ele>
        <time>2022-07-24T08:20:59Z</time>
      </trkpt>
      <trkpt lat="45.76619" lon="6.57459">
        <ele>1817</ele>
        <time>2022-07-24T08:21:00Z</time>
      </trkpt>
      <trkpt lat="45.76619" lon="6.5746">
        <ele>1817</ele>
        <time>2022-07-24T08:21:01Z</time>
      </trkpt>
      <trkpt lat="45.76619" lon="6.57462">
        <ele>1817</ele>
        <time>2022-07-24T08:21:02Z</time>
      </trkpt>
      <trkpt lat="45.76619" lon="6.57463">
        <ele>1817</ele>
        <time>2022-07-24T08:21:03Z</time>
      </trkpt>
      <trkpt lat="45.76618" lon="6.57464">
        <ele>1817</ele>
        <time>2022-07-24T08:21:04Z</time>
      </trkpt>
      <trkpt lat="45.76618" lon="6.57466">
        <ele>1817</ele>
        <time>2022-07-24T08:21:05Z</time>
      </trkpt>
      <trkpt lat="45.76618" lon="6.57467">
        <ele>1818</ele>
        <time>2022-07-24T08:21:06Z</time>
      </trkpt>
      <trkpt lat="45.76619" lon="6.57468">
        <ele>1818</ele>
        <time>2022-07-24T08:21:07Z</time>
      </trkpt>
      <trkpt lat="45.76619" lon="6.5747">
        <ele>1818</ele>
        <time>2022-07-24T08:21:08Z</time>
      </trkpt>
      <trkpt lat="45.76619" lon="6.57471">
        <ele>1818</ele>
        <time>2022-07-24T08:21:09Z</time>
      </trkpt>
      <trkpt lat="45.76619" lon="6.57472">
        <ele>1818</ele>
        <time>2022-07-24T08:21:10Z</time>
      </trkpt>
      <trkpt lat="45.76619" lon="6.57473">
        <ele>1818</ele>
        <time>2022-07-24T08:21:11Z</time>
      </trkpt>
      <trkpt lat="45.76619" lon="6.57474">
        <ele>1818</ele>
        <time>2022-07-24T08:21:12Z</time>
      </trkpt>
      <trkpt lat="45.76619" lon="6.57476">
        <ele>1818</ele>
        <time>2022-07-24T08:21:13Z</time>
      </trkpt>
      <trkpt lat="45.76619" lon="6.57477">
        <ele>1819</ele>
        <time>2022-07-24T08:21:14Z</time>
      </trkpt>
      <trkpt lat="45.76619" lon="6.57478">
        <ele>1819</ele>
        <time>2022-07-24T08:21:15Z</time>
      </trkpt>
      <trkpt lat="45.76619" lon="6.5748">
        <ele>1820</ele>
        <time>2022-07-24T08:21:16Z</time>
      </trkpt>
      <trkpt lat="45.7662" lon="6.57481">
        <ele>1820</ele>
        <time>2022-07-24T08:21:17Z</time>
      </trkpt>
      <trkpt lat="45.7662" lon="6.57482">
        <ele>1820</ele>
        <time>2022-07-24T08:21:18Z</time>
      </trkpt>
      <trkpt lat="45.7662" lon="6.57484">
        <ele>1820</ele>
        <time>2022-07-24T08:21:19Z</time>
      </trkpt>
      <trkpt lat="45.76621" lon="6.57485">
        <ele>1820</ele>
        <time>2022-07-24T08:21:20Z</time>
      </trkpt>
      <trkpt lat="45.76621" lon="6.57486">
        <ele>1820</ele>
        <time>2022-07-24T08:21:21Z</time>
      </trkpt>
      <trkpt lat="45.76621" lon="6.57488">
        <ele>1820</ele>
        <time>2022-07-24T08:21:22Z</time>
      </trkpt>
      <trkpt lat="45.76622" lon="6.57489">
        <ele>1820</ele>
        <time>2022-07-24T08:21:23Z</time>
      </trkpt>
      <trkpt lat="45.76622" lon="6.5749">
        <ele>1820</ele>
        <time>2022-07-24T08:21:24Z</time>
      </trkpt>
      <trkpt lat="45.76622" lon="6.57492">
        <ele>1820</ele>
        <time>2022-07-24T08:21:25Z</time>
      </trkpt>
      <trkpt lat="45.76622" lon="6.57493">
        <ele>1821</ele>
        <time>2022-07-24T08:21:26Z</time>
      </trkpt>
      <trkpt lat="45.76622" lon="6.57494">
        <ele>1821</ele>
        <time>2022-07-24T08:21:27Z</time>
      </trkpt>
      <trkpt lat="45.76623" lon="6.57496">
        <ele>1821</ele>
        <time>2022-07-24T08:21:28Z</time>
      </trkpt>
      <trkpt lat="45.76623" lon="6.57497">
        <ele>1821</ele>
        <time>2022-07-24T08:21:29Z</time>
      </trkpt>
      <trkpt lat="45.76623" lon="6.57498">
        <ele>1821</ele>
        <time>2022-07-24T08:21:30Z</time>
      </trkpt>
      <trkpt lat="45.76623" lon="6.575">
        <ele>1822</ele>
        <time>2022-07-24T08:21:31Z</time>
      </trkpt>
      <trkpt lat="45.76623" lon="6.57501">
        <ele>1822</ele>
        <time>2022-07-24T08:21:32Z</time>
      </trkpt>
      <trkpt lat="45.76623" lon="6.57502">
        <ele>1822</ele>
        <time>2022-07-24T08:21:33Z</time>
      </trkpt>
      <trkpt lat="45.76623" lon="6.57504">
        <ele>1822</ele>
        <time>2022-07-24T08:21:34Z</time>
      </trkpt>
      <trkpt lat="45.76624" lon="6.57505">
        <ele>1822</ele>
        <time>2022-07-24T08:21:35Z</time>
      </trkpt>
      <trkpt lat="45.76624" lon="6.57507">
        <ele>1822</ele>
        <time>2022-07-24T08:21:36Z</time>
      </trkpt>
      <trkpt lat="45.76624" lon="6.57508">
        <ele>1822</ele>
        <time>2022-07-24T08:21:37Z</time>
      </trkpt>
      <trkpt lat="45.76624" lon="6.57509">
        <ele>1822</ele>
        <time>2022-07-24T08:21:38Z</time>
      </trkpt>
      <trkpt lat="45.76625" lon="6.5751">
        <ele>1822</ele>
        <time>2022-07-24T08:21:39Z</time>
      </trkpt>
      <trkpt lat="45.76625" lon="6.57512">
        <ele>1822</ele>
        <time>2022-07-24T08:21:40Z</time>
      </trkpt>
      <trkpt lat="45.76625" lon="6.57513">
        <ele>1822</ele>
        <time>2022-07-24T08:21:41Z</time>
      </trkpt>
      <trkpt lat="45.76625" lon="6.57514">
        <ele>1822</ele>
        <time>2022-07-24T08:21:42Z</time>
      </trkpt>
      <trkpt lat="45.76626" lon="6.57515">
        <ele>1822</ele>
        <time>2022-07-24T08:21:43Z</time>
      </trkpt>
      <trkpt lat="45.76626" lon="6.57516">
        <ele>1822</ele>
        <time>2022-07-24T08:21:44Z</time>
      </trkpt>
      <trkpt lat="45.76626" lon="6.57517">
        <ele>1822</ele>
        <time>2022-07-24T08:21:45Z</time>
      </trkpt>
      <trkpt lat="45.76626" lon="6.57518">
        <ele>1823</ele>
        <time>2022-07-24T08:21:46Z</time>
      </trkpt>
      <trkpt lat="45.76627" lon="6.5752">
        <ele>1823</ele>
        <time>2022-07-24T08:21:47Z</time>
      </trkpt>
      <trkpt lat="45.76627" lon="6.57521">
        <ele>1823</ele>
        <time>2022-07-24T08:21:48Z</time>
      </trkpt>
      <trkpt lat="45.76627" lon="6.57522">
        <ele>1823</ele>
        <time>2022-07-24T08:21:49Z</time>
      </trkpt>
      <trkpt lat="45.76627" lon="6.57523">
        <ele>1823</ele>
        <time>2022-07-24T08:21:50Z</time>
      </trkpt>
      <trkpt lat="45.76628" lon="6.57524">
        <ele>1823</ele>
        <time>2022-07-24T08:21:51Z</time>
      </trkpt>
      <trkpt lat="45.76628" lon="6.57526">
        <ele>1823</ele>
        <time>2022-07-24T08:21:52Z</time>
      </trkpt>
      <trkpt lat="45.76628" lon="6.57527">
        <ele>1823</ele>
        <time>2022-07-24T08:21:53Z</time>
      </trkpt>
      <trkpt lat="45.76629" lon="6.57528">
        <ele>1823</ele>
        <time>2022-07-24T08:21:54Z</time>
      </trkpt>
      <trkpt lat="45.76629" lon="6.57529">
        <ele>1823</ele>
        <time>2022-07-24T08:21:55Z</time>
      </trkpt>
      <trkpt lat="45.76629" lon="6.5753">
        <ele>1824</ele>
        <time>2022-07-24T08:21:56Z</time>
      </trkpt>
      <trkpt lat="45.76629" lon="6.57531">
        <ele>1824</ele>
        <time>2022-07-24T08:21:57Z</time>
      </trkpt>
      <trkpt lat="45.7663" lon="6.57533">
        <ele>1824</ele>
        <time>2022-07-24T08:21:58Z</time>
      </trkpt>
      <trkpt lat="45.7663" lon="6.57534">
        <ele>1824</ele>
        <time>2022-07-24T08:21:59Z</time>
      </trkpt>
      <trkpt lat="45.7663" lon="6.57535">
        <ele>1824</ele>
        <time>2022-07-24T08:22:00Z</time>
      </trkpt>
      <trkpt lat="45.76631" lon="6.57537">
        <ele>1824</ele>
        <time>2022-07-24T08:22:01Z</time>
      </trkpt>
      <trkpt lat="45.76631" lon="6.57538">
        <ele>1824</ele>
        <time>2022-07-24T08:22:02Z</time>
      </trkpt>
      <trkpt lat="45.76631" lon="6.57539">
        <ele>1824</ele>
        <time>2022-07-24T08:22:03Z</time>
      </trkpt>
      <trkpt lat="45.76631" lon="6.57541">
        <ele>1824</ele>
        <time>2022-07-24T08:22:04Z</time>
      </trkpt>
      <trkpt lat="45.76632" lon="6.57542">
        <ele>1824</ele>
        <time>2022-07-24T08:22:05Z</time>
      </trkpt>
      <trkpt lat="45.76632" lon="6.57543">
        <ele>1825</ele>
        <time>2022-07-24T08:22:06Z</time>
      </trkpt>
      <trkpt lat="45.76632" lon="6.57544">
        <ele>1825</ele>
        <time>2022-07-24T08:22:07Z</time>
      </trkpt>
      <trkpt lat="45.76632" lon="6.57545">
        <ele>1825</ele>
        <time>2022-07-24T08:22:08Z</time>
      </trkpt>
      <trkpt lat="45.76632" lon="6.57546">
        <ele>1825</ele>
        <time>2022-07-24T08:22:09Z</time>
      </trkpt>
      <trkpt lat="45.76633" lon="6.57547">
        <ele>1825</ele>
        <time>2022-07-24T08:22:10Z</time>
      </trkpt>
      <trkpt lat="45.76633" lon="6.57548">
        <ele>1825</ele>
        <time>2022-07-24T08:22:11Z</time>
      </trkpt>
      <trkpt lat="45.76633" lon="6.57549">
        <ele>1825</ele>
        <time>2022-07-24T08:22:12Z</time>
      </trkpt>
      <trkpt lat="45.76634" lon="6.5755">
        <ele>1825</ele>
        <time>2022-07-24T08:22:13Z</time>
      </trkpt>
      <trkpt lat="45.76634" lon="6.57552">
        <ele>1825</ele>
        <time>2022-07-24T08:22:14Z</time>
      </trkpt>
      <trkpt lat="45.76634" lon="6.57553">
        <ele>1825</ele>
        <time>2022-07-24T08:22:15Z</time>
      </trkpt>
      <trkpt lat="45.76635" lon="6.57554">
        <ele>1826</ele>
        <time>2022-07-24T08:22:16Z</time>
      </trkpt>
      <trkpt lat="45.76635" lon="6.57555">
        <ele>1826</ele>
        <time>2022-07-24T08:22:17Z</time>
      </trkpt>
      <trkpt lat="45.76635" lon="6.57556">
        <ele>1826</ele>
        <time>2022-07-24T08:22:18Z</time>
      </trkpt>
      <trkpt lat="45.76636" lon="6.57557">
        <ele>1826</ele>
        <time>2022-07-24T08:22:19Z</time>
      </trkpt>
      <trkpt lat="45.76636" lon="6.57558">
        <ele>1826</ele>
        <time>2022-07-24T08:22:20Z</time>
      </trkpt>
      <trkpt lat="45.76637" lon="6.57559">
        <ele>1826</ele>
        <time>2022-07-24T08:22:21Z</time>
      </trkpt>
      <trkpt lat="45.76637" lon="6.57561">
        <ele>1826</ele>
        <time>2022-07-24T08:22:22Z</time>
      </trkpt>
      <trkpt lat="45.76638" lon="6.57563">
        <ele>1827</ele>
        <time>2022-07-24T08:22:36Z</time>
      </trkpt>
      <trkpt lat="45.76638" lon="6.57564">
        <ele>1827</ele>
        <time>2022-07-24T08:22:37Z</time>
      </trkpt>
      <trkpt lat="45.76639" lon="6.57565">
        <ele>1827</ele>
        <time>2022-07-24T08:22:38Z</time>
      </trkpt>
      <trkpt lat="45.76639" lon="6.57566">
        <ele>1827</ele>
        <time>2022-07-24T08:22:39Z</time>
      </trkpt>
      <trkpt lat="45.7664" lon="6.57567">
        <ele>1827</ele>
        <time>2022-07-24T08:22:40Z</time>
      </trkpt>
      <trkpt lat="45.7664" lon="6.57568">
        <ele>1827</ele>
        <time>2022-07-24T08:22:41Z</time>
      </trkpt>
      <trkpt lat="45.76641" lon="6.57569">
        <ele>1827</ele>
        <time>2022-07-24T08:22:42Z</time>
      </trkpt>
      <trkpt lat="45.76641" lon="6.5757">
        <ele>1827</ele>
        <time>2022-07-24T08:22:43Z</time>
      </trkpt>
      <trkpt lat="45.76642" lon="6.57571">
        <ele>1827</ele>
        <time>2022-07-24T08:22:44Z</time>
      </trkpt>
      <trkpt lat="45.76643" lon="6.57573">
        <ele>1827</ele>
        <time>2022-07-24T08:22:45Z</time>
      </trkpt>
      <trkpt lat="45.76644" lon="6.57574">
        <ele>1828</ele>
        <time>2022-07-24T08:22:46Z</time>
      </trkpt>
      <trkpt lat="45.76644" lon="6.57575">
        <ele>1828</ele>
        <time>2022-07-24T08:22:47Z</time>
      </trkpt>
      <trkpt lat="45.76645" lon="6.57576">
        <ele>1828</ele>
        <time>2022-07-24T08:22:48Z</time>
      </trkpt>
      <trkpt lat="45.76646" lon="6.57577">
        <ele>1828</ele>
        <time>2022-07-24T08:22:49Z</time>
      </trkpt>
      <trkpt lat="45.76646" lon="6.57579">
        <ele>1828</ele>
        <time>2022-07-24T08:22:50Z</time>
      </trkpt>
      <trkpt lat="45.76647" lon="6.5758">
        <ele>1828</ele>
        <time>2022-07-24T08:22:51Z</time>
      </trkpt>
      <trkpt lat="45.76648" lon="6.57581">
        <ele>1828</ele>
        <time>2022-07-24T08:22:52Z</time>
      </trkpt>
      <trkpt lat="45.76648" lon="6.57582">
        <ele>1828</ele>
        <time>2022-07-24T08:22:53Z</time>
      </trkpt>
      <trkpt lat="45.76649" lon="6.57583">
        <ele>1828</ele>
        <time>2022-07-24T08:22:54Z</time>
      </trkpt>
      <trkpt lat="45.7665" lon="6.57584">
        <ele>1828</ele>
        <time>2022-07-24T08:22:55Z</time>
      </trkpt>
      <trkpt lat="45.76651" lon="6.57585">
        <ele>1828</ele>
        <time>2022-07-24T08:22:56Z</time>
      </trkpt>
      <trkpt lat="45.76652" lon="6.57586">
        <ele>1828</ele>
        <time>2022-07-24T08:22:57Z</time>
      </trkpt>
      <trkpt lat="45.76653" lon="6.57587">
        <ele>1828</ele>
        <time>2022-07-24T08:22:58Z</time>
      </trkpt>
      <trkpt lat="45.76653" lon="6.57588">
        <ele>1828</ele>
        <time>2022-07-24T08:22:59Z</time>
      </trkpt>
      <trkpt lat="45.76654" lon="6.57589">
        <ele>1828</ele>
        <time>2022-07-24T08:23:00Z</time>
      </trkpt>
      <trkpt lat="45.76655" lon="6.5759">
        <ele>1829</ele>
        <time>2022-07-24T08:23:01Z</time>
      </trkpt>
      <trkpt lat="45.76656" lon="6.57591">
        <ele>1829</ele>
        <time>2022-07-24T08:23:02Z</time>
      </trkpt>
      <trkpt lat="45.76657" lon="6.57591">
        <ele>1829</ele>
        <time>2022-07-24T08:23:03Z</time>
      </trkpt>
      <trkpt lat="45.76657" lon="6.57592">
        <ele>1829</ele>
        <time>2022-07-24T08:23:04Z</time>
      </trkpt>
      <trkpt lat="45.76658" lon="6.57593">
        <ele>1829</ele>
        <time>2022-07-24T08:23:05Z</time>
      </trkpt>
      <trkpt lat="45.76659" lon="6.57594">
        <ele>1829</ele>
        <time>2022-07-24T08:23:06Z</time>
      </trkpt>
      <trkpt lat="45.7666" lon="6.57595">
        <ele>1829</ele>
        <time>2022-07-24T08:23:07Z</time>
      </trkpt>
      <trkpt lat="45.76661" lon="6.57596">
        <ele>1829</ele>
        <time>2022-07-24T08:23:08Z</time>
      </trkpt>
      <trkpt lat="45.76661" lon="6.57596">
        <ele>1829</ele>
        <time>2022-07-24T08:23:09Z</time>
      </trkpt>
      <trkpt lat="45.76662" lon="6.57597">
        <ele>1829</ele>
        <time>2022-07-24T08:23:10Z</time>
      </trkpt>
      <trkpt lat="45.76663" lon="6.57598">
        <ele>1830</ele>
        <time>2022-07-24T08:23:11Z</time>
      </trkpt>
      <trkpt lat="45.76663" lon="6.57599">
        <ele>1830</ele>
        <time>2022-07-24T08:23:12Z</time>
      </trkpt>
      <trkpt lat="45.76664" lon="6.57599">
        <ele>1830</ele>
        <time>2022-07-24T08:23:13Z</time>
      </trkpt>
      <trkpt lat="45.76665" lon="6.576">
        <ele>1830</ele>
        <time>2022-07-24T08:23:14Z</time>
      </trkpt>
      <trkpt lat="45.76665" lon="6.57601">
        <ele>1830</ele>
        <time>2022-07-24T08:23:15Z</time>
      </trkpt>
      <trkpt lat="45.76666" lon="6.57602">
        <ele>1830</ele>
        <time>2022-07-24T08:23:16Z</time>
      </trkpt>
      <trkpt lat="45.76666" lon="6.57603">
        <ele>1830</ele>
        <time>2022-07-24T08:23:17Z</time>
      </trkpt>
      <trkpt lat="45.76667" lon="6.57603">
        <ele>1830</ele>
        <time>2022-07-24T08:23:18Z</time>
      </trkpt>
      <trkpt lat="45.76667" lon="6.57604">
        <ele>1830</ele>
        <time>2022-07-24T08:23:19Z</time>
      </trkpt>
      <trkpt lat="45.76668" lon="6.57605">
        <ele>1830</ele>
        <time>2022-07-24T08:23:20Z</time>
      </trkpt>
      <trkpt lat="45.76669" lon="6.57606">
        <ele>1830</ele>
        <time>2022-07-24T08:23:21Z</time>
      </trkpt>
      <trkpt lat="45.76669" lon="6.57607">
        <ele>1830</ele>
        <time>2022-07-24T08:23:22Z</time>
      </trkpt>
      <trkpt lat="45.7667" lon="6.57607">
        <ele>1830</ele>
        <time>2022-07-24T08:23:23Z</time>
      </trkpt>
      <trkpt lat="45.7667" lon="6.57608">
        <ele>1830</ele>
        <time>2022-07-24T08:23:24Z</time>
      </trkpt>
      <trkpt lat="45.76671" lon="6.57609">
        <ele>1830</ele>
        <time>2022-07-24T08:23:25Z</time>
      </trkpt>
      <trkpt lat="45.76672" lon="6.5761">
        <ele>1831</ele>
        <time>2022-07-24T08:23:26Z</time>
      </trkpt>
      <trkpt lat="45.76672" lon="6.5761">
        <ele>1831</ele>
        <time>2022-07-24T08:23:27Z</time>
      </trkpt>
      <trkpt lat="45.76673" lon="6.57611">
        <ele>1831</ele>
        <time>2022-07-24T08:23:28Z</time>
      </trkpt>
      <trkpt lat="45.76673" lon="6.57612">
        <ele>1831</ele>
        <time>2022-07-24T08:23:29Z</time>
      </trkpt>
      <trkpt lat="45.76674" lon="6.57613">
        <ele>1831</ele>
        <time>2022-07-24T08:23:30Z</time>
      </trkpt>
      <trkpt lat="45.76674" lon="6.57614">
        <ele>1831</ele>
        <time>2022-07-24T08:23:31Z</time>
      </trkpt>
      <trkpt lat="45.76675" lon="6.57614">
        <ele>1831</ele>
        <time>2022-07-24T08:23:32Z</time>
      </trkpt>
      <trkpt lat="45.76676" lon="6.57615">
        <ele>1831</ele>
        <time>2022-07-24T08:23:33Z</time>
      </trkpt>
      <trkpt lat="45.76676" lon="6.57616">
        <ele>1831</ele>
        <time>2022-07-24T08:23:34Z</time>
      </trkpt>
      <trkpt lat="45.76677" lon="6.57617">
        <ele>1831</ele>
        <time>2022-07-24T08:23:35Z</time>
      </trkpt>
      <trkpt lat="45.76678" lon="6.57618">
        <ele>1832</ele>
        <time>2022-07-24T08:23:36Z</time>
      </trkpt>
      <trkpt lat="45.76678" lon="6.57618">
        <ele>1832</ele>
        <time>2022-07-24T08:23:37Z</time>
      </trkpt>
      <trkpt lat="45.76679" lon="6.57619">
        <ele>1832</ele>
        <time>2022-07-24T08:23:38Z</time>
      </trkpt>
      <trkpt lat="45.76679" lon="6.5762">
        <ele>1832</ele>
        <time>2022-07-24T08:23:39Z</time>
      </trkpt>
      <trkpt lat="45.7668" lon="6.57621">
        <ele>1832</ele>
        <time>2022-07-24T08:23:40Z</time>
      </trkpt>
      <trkpt lat="45.76681" lon="6.57622">
        <ele>1832</ele>
        <time>2022-07-24T08:23:41Z</time>
      </trkpt>
      <trkpt lat="45.76681" lon="6.57623">
        <ele>1832</ele>
        <time>2022-07-24T08:23:42Z</time>
      </trkpt>
      <trkpt lat="45.76682" lon="6.57624">
        <ele>1832</ele>
        <time>2022-07-24T08:23:43Z</time>
      </trkpt>
      <trkpt lat="45.76683" lon="6.57625">
        <ele>1832</ele>
        <time>2022-07-24T08:23:44Z</time>
      </trkpt>
      <trkpt lat="45.76684" lon="6.57626">
        <ele>1832</ele>
        <time>2022-07-24T08:23:45Z</time>
      </trkpt>
      <trkpt lat="45.76685" lon="6.57627">
        <ele>1833</ele>
        <time>2022-07-24T08:23:46Z</time>
      </trkpt>
      <trkpt lat="45.76685" lon="6.57628">
        <ele>1833</ele>
        <time>2022-07-24T08:23:47Z</time>
      </trkpt>
      <trkpt lat="45.76686" lon="6.57629">
        <ele>1833</ele>
        <time>2022-07-24T08:23:48Z</time>
      </trkpt>
      <trkpt lat="45.76687" lon="6.5763">
        <ele>1833</ele>
        <time>2022-07-24T08:23:49Z</time>
      </trkpt>
      <trkpt lat="45.76688" lon="6.57631">
        <ele>1833</ele>
        <time>2022-07-24T08:23:50Z</time>
      </trkpt>
      <trkpt lat="45.76689" lon="6.57631">
        <ele>1833</ele>
        <time>2022-07-24T08:23:51Z</time>
      </trkpt>
      <trkpt lat="45.76689" lon="6.57632">
        <ele>1833</ele>
        <time>2022-07-24T08:23:52Z</time>
      </trkpt>
      <trkpt lat="45.7669" lon="6.57633">
        <ele>1833</ele>
        <time>2022-07-24T08:23:53Z</time>
      </trkpt>
      <trkpt lat="45.76691" lon="6.57634">
        <ele>1833</ele>
        <time>2022-07-24T08:23:54Z</time>
      </trkpt>
      <trkpt lat="45.76692" lon="6.57635">
        <ele>1833</ele>
        <time>2022-07-24T08:23:55Z</time>
      </trkpt>
      <trkpt lat="45.76692" lon="6.57635">
        <ele>1833</ele>
        <time>2022-07-24T08:23:56Z</time>
      </trkpt>
      <trkpt lat="45.76693" lon="6.57636">
        <ele>1833</ele>
        <time>2022-07-24T08:23:57Z</time>
      </trkpt>
      <trkpt lat="45.76694" lon="6.57637">
        <ele>1833</ele>
        <time>2022-07-24T08:23:58Z</time>
      </trkpt>
      <trkpt lat="45.76695" lon="6.57637">
        <ele>1833</ele>
        <time>2022-07-24T08:23:59Z</time>
      </trkpt>
      <trkpt lat="45.76695" lon="6.57638">
        <ele>1833</ele>
        <time>2022-07-24T08:24:00Z</time>
      </trkpt>
      <trkpt lat="45.76696" lon="6.57639">
        <ele>1834</ele>
        <time>2022-07-24T08:24:01Z</time>
      </trkpt>
      <trkpt lat="45.76697" lon="6.57639">
        <ele>1834</ele>
        <time>2022-07-24T08:24:02Z</time>
      </trkpt>
      <trkpt lat="45.76697" lon="6.5764">
        <ele>1834</ele>
        <time>2022-07-24T08:24:03Z</time>
      </trkpt>
      <trkpt lat="45.76698" lon="6.57641">
        <ele>1834</ele>
        <time>2022-07-24T08:24:04Z</time>
      </trkpt>
      <trkpt lat="45.76699" lon="6.57642">
        <ele>1834</ele>
        <time>2022-07-24T08:24:05Z</time>
      </trkpt>
      <trkpt lat="45.767" lon="6.57643">
        <ele>1834</ele>
        <time>2022-07-24T08:24:06Z</time>
      </trkpt>
      <trkpt lat="45.767" lon="6.57644">
        <ele>1834</ele>
        <time>2022-07-24T08:24:07Z</time>
      </trkpt>
      <trkpt lat="45.76701" lon="6.57645">
        <ele>1834</ele>
        <time>2022-07-24T08:24:08Z</time>
      </trkpt>
      <trkpt lat="45.76701" lon="6.57645">
        <ele>1834</ele>
        <time>2022-07-24T08:24:09Z</time>
      </trkpt>
      <trkpt lat="45.76702" lon="6.57646">
        <ele>1834</ele>
        <time>2022-07-24T08:24:10Z</time>
      </trkpt>
      <trkpt lat="45.76703" lon="6.57647">
        <ele>1835</ele>
        <time>2022-07-24T08:24:11Z</time>
      </trkpt>
      <trkpt lat="45.76703" lon="6.57648">
        <ele>1835</ele>
        <time>2022-07-24T08:24:12Z</time>
      </trkpt>
      <trkpt lat="45.76704" lon="6.57648">
        <ele>1835</ele>
        <time>2022-07-24T08:24:13Z</time>
      </trkpt>
      <trkpt lat="45.76705" lon="6.57649">
        <ele>1835</ele>
        <time>2022-07-24T08:24:14Z</time>
      </trkpt>
      <trkpt lat="45.76705" lon="6.5765">
        <ele>1835</ele>
        <time>2022-07-24T08:24:15Z</time>
      </trkpt>
      <trkpt lat="45.76706" lon="6.5765">
        <ele>1835</ele>
        <time>2022-07-24T08:24:16Z</time>
      </trkpt>
      <trkpt lat="45.76706" lon="6.57651">
        <ele>1835</ele>
        <time>2022-07-24T08:24:17Z</time>
      </trkpt>
      <trkpt lat="45.76707" lon="6.57652">
        <ele>1835</ele>
        <time>2022-07-24T08:24:18Z</time>
      </trkpt>
      <trkpt lat="45.76708" lon="6.57653">
        <ele>1835</ele>
        <time>2022-07-24T08:24:19Z</time>
      </trkpt>
      <trkpt lat="45.76708" lon="6.57653">
        <ele>1835</ele>
        <time>2022-07-24T08:24:20Z</time>
      </trkpt>
      <trkpt lat="45.76709" lon="6.57654">
        <ele>1836</ele>
        <time>2022-07-24T08:24:21Z</time>
      </trkpt>
      <trkpt lat="45.7671" lon="6.57655">
        <ele>1836</ele>
        <time>2022-07-24T08:24:22Z</time>
      </trkpt>
      <trkpt lat="45.7671" lon="6.57656">
        <ele>1836</ele>
        <time>2022-07-24T08:24:23Z</time>
      </trkpt>
      <trkpt lat="45.76711" lon="6.57657">
        <ele>1836</ele>
        <time>2022-07-24T08:24:24Z</time>
      </trkpt>
      <trkpt lat="45.76712" lon="6.57657">
        <ele>1836</ele>
        <time>2022-07-24T08:24:25Z</time>
      </trkpt>
      <trkpt lat="45.76712" lon="6.57658">
        <ele>1836</ele>
        <time>2022-07-24T08:24:26Z</time>
      </trkpt>
      <trkpt lat="45.76713" lon="6.57659">
        <ele>1836</ele>
        <time>2022-07-24T08:24:27Z</time>
      </trkpt>
      <trkpt lat="45.76714" lon="6.5766">
        <ele>1836</ele>
        <time>2022-07-24T08:24:28Z</time>
      </trkpt>
      <trkpt lat="45.76714" lon="6.57661">
        <ele>1836</ele>
        <time>2022-07-24T08:24:29Z</time>
      </trkpt>
      <trkpt lat="45.76715" lon="6.57661">
        <ele>1836</ele>
        <time>2022-07-24T08:24:30Z</time>
      </trkpt>
      <trkpt lat="45.76716" lon="6.57662">
        <ele>1836</ele>
        <time>2022-07-24T08:24:31Z</time>
      </trkpt>
      <trkpt lat="45.76717" lon="6.57663">
        <ele>1836</ele>
        <time>2022-07-24T08:24:32Z</time>
      </trkpt>
      <trkpt lat="45.76717" lon="6.57664">
        <ele>1836</ele>
        <time>2022-07-24T08:24:33Z</time>
      </trkpt>
      <trkpt lat="45.76718" lon="6.57664">
        <ele>1836</ele>
        <time>2022-07-24T08:24:34Z</time>
      </trkpt>
      <trkpt lat="45.76719" lon="6.57665">
        <ele>1836</ele>
        <time>2022-07-24T08:24:35Z</time>
      </trkpt>
      <trkpt lat="45.76719" lon="6.57666">
        <ele>1837</ele>
        <time>2022-07-24T08:24:36Z</time>
      </trkpt>
      <trkpt lat="45.7672" lon="6.57667">
        <ele>1837</ele>
        <time>2022-07-24T08:24:37Z</time>
      </trkpt>
      <trkpt lat="45.76721" lon="6.57668">
        <ele>1837</ele>
        <time>2022-07-24T08:24:38Z</time>
      </trkpt>
      <trkpt lat="45.76722" lon="6.57668">
        <ele>1837</ele>
        <time>2022-07-24T08:24:39Z</time>
      </trkpt>
      <trkpt lat="45.76722" lon="6.57669">
        <ele>1837</ele>
        <time>2022-07-24T08:24:40Z</time>
      </trkpt>
      <trkpt lat="45.76723" lon="6.5767">
        <ele>1837</ele>
        <time>2022-07-24T08:24:41Z</time>
      </trkpt>
      <trkpt lat="45.76724" lon="6.57671">
        <ele>1837</ele>
        <time>2022-07-24T08:24:42Z</time>
      </trkpt>
      <trkpt lat="45.76725" lon="6.57671">
        <ele>1837</ele>
        <time>2022-07-24T08:24:43Z</time>
      </trkpt>
      <trkpt lat="45.76726" lon="6.57672">
        <ele>1837</ele>
        <time>2022-07-24T08:24:44Z</time>
      </trkpt>
      <trkpt lat="45.76726" lon="6.57673">
        <ele>1837</ele>
        <time>2022-07-24T08:24:45Z</time>
      </trkpt>
      <trkpt lat="45.76727" lon="6.57673">
        <ele>1838</ele>
        <time>2022-07-24T08:24:46Z</time>
      </trkpt>
      <trkpt lat="45.76728" lon="6.57674">
        <ele>1838</ele>
        <time>2022-07-24T08:24:47Z</time>
      </trkpt>
      <trkpt lat="45.76729" lon="6.57675">
        <ele>1838</ele>
        <time>2022-07-24T08:24:48Z</time>
      </trkpt>
      <trkpt lat="45.76729" lon="6.57675">
        <ele>1838</ele>
        <time>2022-07-24T08:24:49Z</time>
      </trkpt>
      <trkpt lat="45.7673" lon="6.57676">
        <ele>1838</ele>
        <time>2022-07-24T08:24:50Z</time>
      </trkpt>
      <trkpt lat="45.76731" lon="6.57677">
        <ele>1838</ele>
        <time>2022-07-24T08:24:51Z</time>
      </trkpt>
      <trkpt lat="45.76731" lon="6.57677">
        <ele>1838</ele>
        <time>2022-07-24T08:24:52Z</time>
      </trkpt>
      <trkpt lat="45.76732" lon="6.57678">
        <ele>1838</ele>
        <time>2022-07-24T08:24:53Z</time>
      </trkpt>
      <trkpt lat="45.76732" lon="6.57678">
        <ele>1838</ele>
        <time>2022-07-24T08:24:54Z</time>
      </trkpt>
      <trkpt lat="45.76733" lon="6.57679">
        <ele>1838</ele>
        <time>2022-07-24T08:24:55Z</time>
      </trkpt>
      <trkpt lat="45.76734" lon="6.57679">
        <ele>1839</ele>
        <time>2022-07-24T08:24:56Z</time>
      </trkpt>
      <trkpt lat="45.76734" lon="6.5768">
        <ele>1839</ele>
        <time>2022-07-24T08:24:57Z</time>
      </trkpt>
      <trkpt lat="45.76735" lon="6.5768">
        <ele>1839</ele>
        <time>2022-07-24T08:24:58Z</time>
      </trkpt>
      <trkpt lat="45.76736" lon="6.57681">
        <ele>1840</ele>
        <time>2022-07-24T08:25:17Z</time>
      </trkpt>
      <trkpt lat="45.76737" lon="6.57682">
        <ele>1840</ele>
        <time>2022-07-24T08:25:18Z</time>
      </trkpt>
      <trkpt lat="45.76737" lon="6.57682">
        <ele>1840</ele>
        <time>2022-07-24T08:25:19Z</time>
      </trkpt>
      <trkpt lat="45.76737" lon="6.57683">
        <ele>1840</ele>
        <time>2022-07-24T08:25:20Z</time>
      </trkpt>
      <trkpt lat="45.76738" lon="6.57683">
        <ele>1840</ele>
        <time>2022-07-24T08:25:21Z</time>
      </trkpt>
      <trkpt lat="45.76739" lon="6.57684">
        <ele>1840</ele>
        <time>2022-07-24T08:25:22Z</time>
      </trkpt>
      <trkpt lat="45.76739" lon="6.57685">
        <ele>1840</ele>
        <time>2022-07-24T08:25:23Z</time>
      </trkpt>
      <trkpt lat="45.7674" lon="6.57686">
        <ele>1840</ele>
        <time>2022-07-24T08:25:24Z</time>
      </trkpt>
      <trkpt lat="45.76741" lon="6.57686">
        <ele>1840</ele>
        <time>2022-07-24T08:25:25Z</time>
      </trkpt>
      <trkpt lat="45.76742" lon="6.57687">
        <ele>1840</ele>
        <time>2022-07-24T08:25:26Z</time>
      </trkpt>
      <trkpt lat="45.76743" lon="6.57688">
        <ele>1840</ele>
        <time>2022-07-24T08:25:27Z</time>
      </trkpt>
      <trkpt lat="45.76743" lon="6.57688">
        <ele>1840</ele>
        <time>2022-07-24T08:25:28Z</time>
      </trkpt>
      <trkpt lat="45.76744" lon="6.57689">
        <ele>1840</ele>
        <time>2022-07-24T08:25:29Z</time>
      </trkpt>
      <trkpt lat="45.76744" lon="6.57689">
        <ele>1840</ele>
        <time>2022-07-24T08:25:30Z</time>
      </trkpt>
      <trkpt lat="45.76745" lon="6.57689">
        <ele>1840</ele>
        <time>2022-07-24T08:25:31Z</time>
      </trkpt>
      <trkpt lat="45.76745" lon="6.5769">
        <ele>1840</ele>
        <time>2022-07-24T08:25:32Z</time>
      </trkpt>
      <trkpt lat="45.76745" lon="6.5769">
        <ele>1840</ele>
        <time>2022-07-24T08:25:33Z</time>
      </trkpt>
      <trkpt lat="45.76746" lon="6.5769">
        <ele>1840</ele>
        <time>2022-07-24T08:25:34Z</time>
      </trkpt>
      <trkpt lat="45.76746" lon="6.57691">
        <ele>1840</ele>
        <time>2022-07-24T08:25:35Z</time>
      </trkpt>
      <trkpt lat="45.76747" lon="6.57691">
        <ele>1840</ele>
        <time>2022-07-24T08:25:36Z</time>
      </trkpt>
      <trkpt lat="45.76748" lon="6.57692">
        <ele>1840</ele>
        <time>2022-07-24T08:25:37Z</time>
      </trkpt>
      <trkpt lat="45.76749" lon="6.57692">
        <ele>1840</ele>
        <time>2022-07-24T08:25:38Z</time>
      </trkpt>
      <trkpt lat="45.7675" lon="6.57693">
        <ele>1840</ele>
        <time>2022-07-24T08:25:39Z</time>
      </trkpt>
      <trkpt lat="45.76751" lon="6.57693">
        <ele>1840</ele>
        <time>2022-07-24T08:25:40Z</time>
      </trkpt>
      <trkpt lat="45.76751" lon="6.57694">
        <ele>1841</ele>
        <time>2022-07-24T08:25:41Z</time>
      </trkpt>
      <trkpt lat="45.76752" lon="6.57695">
        <ele>1841</ele>
        <time>2022-07-24T08:25:42Z</time>
      </trkpt>
      <trkpt lat="45.76753" lon="6.57696">
        <ele>1841</ele>
        <time>2022-07-24T08:25:43Z</time>
      </trkpt>
      <trkpt lat="45.76754" lon="6.57697">
        <ele>1841</ele>
        <time>2022-07-24T08:25:44Z</time>
      </trkpt>
      <trkpt lat="45.76755" lon="6.57697">
        <ele>1841</ele>
        <time>2022-07-24T08:25:45Z</time>
      </trkpt>
      <trkpt lat="45.76756" lon="6.57698">
        <ele>1841</ele>
        <time>2022-07-24T08:25:46Z</time>
      </trkpt>
      <trkpt lat="45.76757" lon="6.57699">
        <ele>1841</ele>
        <time>2022-07-24T08:25:47Z</time>
      </trkpt>
      <trkpt lat="45.76757" lon="6.57699">
        <ele>1841</ele>
        <time>2022-07-24T08:25:48Z</time>
      </trkpt>
      <trkpt lat="45.76758" lon="6.577">
        <ele>1841</ele>
        <time>2022-07-24T08:25:49Z</time>
      </trkpt>
      <trkpt lat="45.76759" lon="6.57701">
        <ele>1841</ele>
        <time>2022-07-24T08:25:50Z</time>
      </trkpt>
      <trkpt lat="45.7676" lon="6.57702">
        <ele>1842</ele>
        <time>2022-07-24T08:25:51Z</time>
      </trkpt>
      <trkpt lat="45.76761" lon="6.57702">
        <ele>1842</ele>
        <time>2022-07-24T08:25:52Z</time>
      </trkpt>
      <trkpt lat="45.76762" lon="6.57703">
        <ele>1842</ele>
        <time>2022-07-24T08:25:53Z</time>
      </trkpt>
      <trkpt lat="45.76763" lon="6.57704">
        <ele>1842</ele>
        <time>2022-07-24T08:25:54Z</time>
      </trkpt>
      <trkpt lat="45.76763" lon="6.57704">
        <ele>1842</ele>
        <time>2022-07-24T08:25:55Z</time>
      </trkpt>
      <trkpt lat="45.76764" lon="6.57705">
        <ele>1842</ele>
        <time>2022-07-24T08:25:56Z</time>
      </trkpt>
      <trkpt lat="45.76765" lon="6.57706">
        <ele>1842</ele>
        <time>2022-07-24T08:25:57Z</time>
      </trkpt>
      <trkpt lat="45.76766" lon="6.57706">
        <ele>1842</ele>
        <time>2022-07-24T08:25:58Z</time>
      </trkpt>
      <trkpt lat="45.76767" lon="6.57707">
        <ele>1842</ele>
        <time>2022-07-24T08:25:59Z</time>
      </trkpt>
      <trkpt lat="45.76768" lon="6.57708">
        <ele>1842</ele>
        <time>2022-07-24T08:26:00Z</time>
      </trkpt>
      <trkpt lat="45.76769" lon="6.57709">
        <ele>1842</ele>
        <time>2022-07-24T08:26:01Z</time>
      </trkpt>
      <trkpt lat="45.7677" lon="6.57709">
        <ele>1842</ele>
        <time>2022-07-24T08:26:02Z</time>
      </trkpt>
      <trkpt lat="45.76771" lon="6.5771">
        <ele>1842</ele>
        <time>2022-07-24T08:26:03Z</time>
      </trkpt>
      <trkpt lat="45.76771" lon="6.57711">
        <ele>1842</ele>
        <time>2022-07-24T08:26:04Z</time>
      </trkpt>
      <trkpt lat="45.76772" lon="6.57711">
        <ele>1842</ele>
        <time>2022-07-24T08:26:05Z</time>
      </trkpt>
      <trkpt lat="45.76773" lon="6.57712">
        <ele>1842</ele>
        <time>2022-07-24T08:26:06Z</time>
      </trkpt>
      <trkpt lat="45.76774" lon="6.57713">
        <ele>1842</ele>
        <time>2022-07-24T08:26:07Z</time>
      </trkpt>
      <trkpt lat="45.76775" lon="6.57714">
        <ele>1842</ele>
        <time>2022-07-24T08:26:08Z</time>
      </trkpt>
      <trkpt lat="45.76776" lon="6.57714">
        <ele>1842</ele>
        <time>2022-07-24T08:26:09Z</time>
      </trkpt>
      <trkpt lat="45.76777" lon="6.57715">
        <ele>1842</ele>
        <time>2022-07-24T08:26:10Z</time>
      </trkpt>
      <trkpt lat="45.76778" lon="6.57716">
        <ele>1843</ele>
        <time>2022-07-24T08:26:11Z</time>
      </trkpt>
      <trkpt lat="45.76778" lon="6.57716">
        <ele>1843</ele>
        <time>2022-07-24T08:26:12Z</time>
      </trkpt>
      <trkpt lat="45.76779" lon="6.57717">
        <ele>1843</ele>
        <time>2022-07-24T08:26:13Z</time>
      </trkpt>
      <trkpt lat="45.7678" lon="6.57718">
        <ele>1843</ele>
        <time>2022-07-24T08:26:14Z</time>
      </trkpt>
      <trkpt lat="45.76781" lon="6.57718">
        <ele>1843</ele>
        <time>2022-07-24T08:26:15Z</time>
      </trkpt>
      <trkpt lat="45.76782" lon="6.57719">
        <ele>1843</ele>
        <time>2022-07-24T08:26:16Z</time>
      </trkpt>
      <trkpt lat="45.76782" lon="6.5772">
        <ele>1843</ele>
        <time>2022-07-24T08:26:17Z</time>
      </trkpt>
      <trkpt lat="45.76783" lon="6.57721">
        <ele>1843</ele>
        <time>2022-07-24T08:26:18Z</time>
      </trkpt>
      <trkpt lat="45.76784" lon="6.57722">
        <ele>1843</ele>
        <time>2022-07-24T08:26:19Z</time>
      </trkpt>
      <trkpt lat="45.76785" lon="6.57723">
        <ele>1843</ele>
        <time>2022-07-24T08:26:20Z</time>
      </trkpt>
      <trkpt lat="45.76785" lon="6.57723">
        <ele>1843</ele>
        <time>2022-07-24T08:26:21Z</time>
      </trkpt>
      <trkpt lat="45.76786" lon="6.57724">
        <ele>1843</ele>
        <time>2022-07-24T08:26:22Z</time>
      </trkpt>
      <trkpt lat="45.76787" lon="6.57725">
        <ele>1843</ele>
        <time>2022-07-24T08:26:23Z</time>
      </trkpt>
      <trkpt lat="45.76787" lon="6.57726">
        <ele>1843</ele>
        <time>2022-07-24T08:26:24Z</time>
      </trkpt>
      <trkpt lat="45.76788" lon="6.57727">
        <ele>1843</ele>
        <time>2022-07-24T08:26:25Z</time>
      </trkpt>
      <trkpt lat="45.76789" lon="6.57728">
        <ele>1844</ele>
        <time>2022-07-24T08:26:26Z</time>
      </trkpt>
      <trkpt lat="45.76789" lon="6.57729">
        <ele>1844</ele>
        <time>2022-07-24T08:26:27Z</time>
      </trkpt>
      <trkpt lat="45.7679" lon="6.5773">
        <ele>1844</ele>
        <time>2022-07-24T08:26:28Z</time>
      </trkpt>
      <trkpt lat="45.76791" lon="6.57731">
        <ele>1844</ele>
        <time>2022-07-24T08:26:29Z</time>
      </trkpt>
      <trkpt lat="45.76791" lon="6.57732">
        <ele>1844</ele>
        <time>2022-07-24T08:26:30Z</time>
      </trkpt>
      <trkpt lat="45.76792" lon="6.57733">
        <ele>1845</ele>
        <time>2022-07-24T08:26:31Z</time>
      </trkpt>
      <trkpt lat="45.76793" lon="6.57734">
        <ele>1845</ele>
        <time>2022-07-24T08:26:32Z</time>
      </trkpt>
      <trkpt lat="45.76793" lon="6.57735">
        <ele>1845</ele>
        <time>2022-07-24T08:26:33Z</time>
      </trkpt>
      <trkpt lat="45.76794" lon="6.57736">
        <ele>1845</ele>
        <time>2022-07-24T08:26:34Z</time>
      </trkpt>
      <trkpt lat="45.76794" lon="6.57738">
        <ele>1845</ele>
        <time>2022-07-24T08:26:35Z</time>
      </trkpt>
      <trkpt lat="45.76795" lon="6.57739">
        <ele>1845</ele>
        <time>2022-07-24T08:26:36Z</time>
      </trkpt>
      <trkpt lat="45.76795" lon="6.5774">
        <ele>1845</ele>
        <time>2022-07-24T08:26:37Z</time>
      </trkpt>
      <trkpt lat="45.76795" lon="6.57741">
        <ele>1845</ele>
        <time>2022-07-24T08:26:38Z</time>
      </trkpt>
      <trkpt lat="45.76796" lon="6.57743">
        <ele>1845</ele>
        <time>2022-07-24T08:26:39Z</time>
      </trkpt>
      <trkpt lat="45.76796" lon="6.57744">
        <ele>1845</ele>
        <time>2022-07-24T08:26:40Z</time>
      </trkpt>
      <trkpt lat="45.76797" lon="6.57745">
        <ele>1846</ele>
        <time>2022-07-24T08:26:41Z</time>
      </trkpt>
      <trkpt lat="45.76798" lon="6.57747">
        <ele>1846</ele>
        <time>2022-07-24T08:26:42Z</time>
      </trkpt>
      <trkpt lat="45.76798" lon="6.57748">
        <ele>1846</ele>
        <time>2022-07-24T08:26:43Z</time>
      </trkpt>
      <trkpt lat="45.76799" lon="6.57749">
        <ele>1846</ele>
        <time>2022-07-24T08:26:44Z</time>
      </trkpt>
      <trkpt lat="45.76799" lon="6.57751">
        <ele>1846</ele>
        <time>2022-07-24T08:26:45Z</time>
      </trkpt>
      <trkpt lat="45.768" lon="6.57752">
        <ele>1846</ele>
        <time>2022-07-24T08:26:46Z</time>
      </trkpt>
      <trkpt lat="45.768" lon="6.57753">
        <ele>1846</ele>
        <time>2022-07-24T08:26:47Z</time>
      </trkpt>
      <trkpt lat="45.768" lon="6.57754">
        <ele>1846</ele>
        <time>2022-07-24T08:26:48Z</time>
      </trkpt>
      <trkpt lat="45.768" lon="6.57756">
        <ele>1846</ele>
        <time>2022-07-24T08:26:49Z</time>
      </trkpt>
      <trkpt lat="45.76801" lon="6.57757">
        <ele>1846</ele>
        <time>2022-07-24T08:26:50Z</time>
      </trkpt>
      <trkpt lat="45.76801" lon="6.57758">
        <ele>1847</ele>
        <time>2022-07-24T08:26:51Z</time>
      </trkpt>
      <trkpt lat="45.76801" lon="6.57759">
        <ele>1847</ele>
        <time>2022-07-24T08:26:52Z</time>
      </trkpt>
      <trkpt lat="45.76801" lon="6.57761">
        <ele>1847</ele>
        <time>2022-07-24T08:26:53Z</time>
      </trkpt>
      <trkpt lat="45.76802" lon="6.57762">
        <ele>1847</ele>
        <time>2022-07-24T08:26:54Z</time>
      </trkpt>
      <trkpt lat="45.76802" lon="6.57763">
        <ele>1847</ele>
        <time>2022-07-24T08:26:55Z</time>
      </trkpt>
      <trkpt lat="45.76802" lon="6.57764">
        <ele>1847</ele>
        <time>2022-07-24T08:26:56Z</time>
      </trkpt>
      <trkpt lat="45.76803" lon="6.57765">
        <ele>1847</ele>
        <time>2022-07-24T08:26:57Z</time>
      </trkpt>
      <trkpt lat="45.76803" lon="6.57766">
        <ele>1847</ele>
        <time>2022-07-24T08:26:58Z</time>
      </trkpt>
      <trkpt lat="45.76803" lon="6.57767">
        <ele>1847</ele>
        <time>2022-07-24T08:26:59Z</time>
      </trkpt>
      <trkpt lat="45.76803" lon="6.57768">
        <ele>1847</ele>
        <time>2022-07-24T08:27:00Z</time>
      </trkpt>
      <trkpt lat="45.76804" lon="6.5777">
        <ele>1847</ele>
        <time>2022-07-24T08:27:01Z</time>
      </trkpt>
      <trkpt lat="45.76804" lon="6.57771">
        <ele>1847</ele>
        <time>2022-07-24T08:27:02Z</time>
      </trkpt>
      <trkpt lat="45.76804" lon="6.57772">
        <ele>1847</ele>
        <time>2022-07-24T08:27:03Z</time>
      </trkpt>
      <trkpt lat="45.76804" lon="6.57773">
        <ele>1847</ele>
        <time>2022-07-24T08:27:04Z</time>
      </trkpt>
      <trkpt lat="45.76805" lon="6.57775">
        <ele>1847</ele>
        <time>2022-07-24T08:27:05Z</time>
      </trkpt>
      <trkpt lat="45.76805" lon="6.57776">
        <ele>1848</ele>
        <time>2022-07-24T08:27:06Z</time>
      </trkpt>
      <trkpt lat="45.76805" lon="6.57777">
        <ele>1848</ele>
        <time>2022-07-24T08:27:07Z</time>
      </trkpt>
      <trkpt lat="45.76806" lon="6.57779">
        <ele>1848</ele>
        <time>2022-07-24T08:27:08Z</time>
      </trkpt>
      <trkpt lat="45.76806" lon="6.5778">
        <ele>1848</ele>
        <time>2022-07-24T08:27:09Z</time>
      </trkpt>
      <trkpt lat="45.76806" lon="6.57781">
        <ele>1848</ele>
        <time>2022-07-24T08:27:10Z</time>
      </trkpt>
      <trkpt lat="45.76807" lon="6.57783">
        <ele>1848</ele>
        <time>2022-07-24T08:27:11Z</time>
      </trkpt>
      <trkpt lat="45.76807" lon="6.57784">
        <ele>1848</ele>
        <time>2022-07-24T08:27:12Z</time>
      </trkpt>
      <trkpt lat="45.76807" lon="6.57785">
        <ele>1848</ele>
        <time>2022-07-24T08:27:13Z</time>
      </trkpt>
      <trkpt lat="45.76808" lon="6.57786">
        <ele>1848</ele>
        <time>2022-07-24T08:27:14Z</time>
      </trkpt>
      <trkpt lat="45.76808" lon="6.57787">
        <ele>1848</ele>
        <time>2022-07-24T08:27:15Z</time>
      </trkpt>
      <trkpt lat="45.76808" lon="6.57788">
        <ele>1849</ele>
        <time>2022-07-24T08:27:16Z</time>
      </trkpt>
      <trkpt lat="45.76809" lon="6.57789">
        <ele>1849</ele>
        <time>2022-07-24T08:27:17Z</time>
      </trkpt>
      <trkpt lat="45.76809" lon="6.5779">
        <ele>1849</ele>
        <time>2022-07-24T08:27:18Z</time>
      </trkpt>
      <trkpt lat="45.7681" lon="6.57791">
        <ele>1849</ele>
        <time>2022-07-24T08:27:19Z</time>
      </trkpt>
      <trkpt lat="45.7681" lon="6.57792">
        <ele>1849</ele>
        <time>2022-07-24T08:27:20Z</time>
      </trkpt>
      <trkpt lat="45.7681" lon="6.57793">
        <ele>1849</ele>
        <time>2022-07-24T08:27:21Z</time>
      </trkpt>
      <trkpt lat="45.76811" lon="6.57794">
        <ele>1849</ele>
        <time>2022-07-24T08:27:22Z</time>
      </trkpt>
      <trkpt lat="45.76811" lon="6.57795">
        <ele>1849</ele>
        <time>2022-07-24T08:27:23Z</time>
      </trkpt>
      <trkpt lat="45.76812" lon="6.57796">
        <ele>1850</ele>
        <time>2022-07-24T08:27:24Z</time>
      </trkpt>
      <trkpt lat="45.76812" lon="6.57797">
        <ele>1850</ele>
        <time>2022-07-24T08:27:25Z</time>
      </trkpt>
      <trkpt lat="45.76813" lon="6.57798">
        <ele>1851</ele>
        <time>2022-07-24T08:27:26Z</time>
      </trkpt>
      <trkpt lat="45.76813" lon="6.578">
        <ele>1851</ele>
        <time>2022-07-24T08:27:27Z</time>
      </trkpt>
      <trkpt lat="45.76814" lon="6.57801">
        <ele>1851</ele>
        <time>2022-07-24T08:27:28Z</time>
      </trkpt>
      <trkpt lat="45.76814" lon="6.57802">
        <ele>1851</ele>
        <time>2022-07-24T08:27:29Z</time>
      </trkpt>
      <trkpt lat="45.76814" lon="6.57803">
        <ele>1851</ele>
        <time>2022-07-24T08:27:30Z</time>
      </trkpt>
      <trkpt lat="45.76815" lon="6.57804">
        <ele>1851</ele>
        <time>2022-07-24T08:27:31Z</time>
      </trkpt>
      <trkpt lat="45.76815" lon="6.57805">
        <ele>1851</ele>
        <time>2022-07-24T08:27:32Z</time>
      </trkpt>
      <trkpt lat="45.76816" lon="6.57806">
        <ele>1851</ele>
        <time>2022-07-24T08:27:33Z</time>
      </trkpt>
      <trkpt lat="45.76816" lon="6.57807">
        <ele>1851</ele>
        <time>2022-07-24T08:27:34Z</time>
      </trkpt>
      <trkpt lat="45.76817" lon="6.57808">
        <ele>1851</ele>
        <time>2022-07-24T08:27:35Z</time>
      </trkpt>
      <trkpt lat="45.76818" lon="6.57808">
        <ele>1852</ele>
        <time>2022-07-24T08:27:36Z</time>
      </trkpt>
      <trkpt lat="45.76819" lon="6.5781">
        <ele>1852</ele>
        <time>2022-07-24T08:27:44Z</time>
      </trkpt>
      <trkpt lat="45.76819" lon="6.57811">
        <ele>1852</ele>
        <time>2022-07-24T08:27:45Z</time>
      </trkpt>
      <trkpt lat="45.76819" lon="6.57811">
        <ele>1853</ele>
        <time>2022-07-24T08:27:46Z</time>
      </trkpt>
      <trkpt lat="45.7682" lon="6.57812">
        <ele>1853</ele>
        <time>2022-07-24T08:27:47Z</time>
      </trkpt>
      <trkpt lat="45.7682" lon="6.57812">
        <ele>1853</ele>
        <time>2022-07-24T08:27:48Z</time>
      </trkpt>
      <trkpt lat="45.76821" lon="6.57813">
        <ele>1853</ele>
        <time>2022-07-24T08:27:49Z</time>
      </trkpt>
      <trkpt lat="45.76821" lon="6.57814">
        <ele>1853</ele>
        <time>2022-07-24T08:27:50Z</time>
      </trkpt>
      <trkpt lat="45.76822" lon="6.57815">
        <ele>1853</ele>
        <time>2022-07-24T08:27:51Z</time>
      </trkpt>
      <trkpt lat="45.76823" lon="6.57816">
        <ele>1853</ele>
        <time>2022-07-24T08:27:52Z</time>
      </trkpt>
      <trkpt lat="45.76824" lon="6.57817">
        <ele>1853</ele>
        <time>2022-07-24T08:27:53Z</time>
      </trkpt>
      <trkpt lat="45.76824" lon="6.57818">
        <ele>1853</ele>
        <time>2022-07-24T08:27:54Z</time>
      </trkpt>
      <trkpt lat="45.76825" lon="6.57819">
        <ele>1853</ele>
        <time>2022-07-24T08:27:55Z</time>
      </trkpt>
      <trkpt lat="45.76826" lon="6.5782">
        <ele>1854</ele>
        <time>2022-07-24T08:27:56Z</time>
      </trkpt>
      <trkpt lat="45.76826" lon="6.57821">
        <ele>1854</ele>
        <time>2022-07-24T08:27:57Z</time>
      </trkpt>
      <trkpt lat="45.76827" lon="6.57822">
        <ele>1854</ele>
        <time>2022-07-24T08:27:58Z</time>
      </trkpt>
      <trkpt lat="45.76828" lon="6.57823">
        <ele>1854</ele>
        <time>2022-07-24T08:27:59Z</time>
      </trkpt>
      <trkpt lat="45.76829" lon="6.57824">
        <ele>1854</ele>
        <time>2022-07-24T08:28:00Z</time>
      </trkpt>
      <trkpt lat="45.76829" lon="6.57825">
        <ele>1854</ele>
        <time>2022-07-24T08:28:01Z</time>
      </trkpt>
      <trkpt lat="45.7683" lon="6.57826">
        <ele>1854</ele>
        <time>2022-07-24T08:28:02Z</time>
      </trkpt>
      <trkpt lat="45.7683" lon="6.57827">
        <ele>1854</ele>
        <time>2022-07-24T08:28:03Z</time>
      </trkpt>
      <trkpt lat="45.76831" lon="6.57828">
        <ele>1854</ele>
        <time>2022-07-24T08:28:04Z</time>
      </trkpt>
      <trkpt lat="45.76832" lon="6.57829">
        <ele>1854</ele>
        <time>2022-07-24T08:28:05Z</time>
      </trkpt>
      <trkpt lat="45.76832" lon="6.5783">
        <ele>1854</ele>
        <time>2022-07-24T08:28:06Z</time>
      </trkpt>
      <trkpt lat="45.76833" lon="6.57831">
        <ele>1854</ele>
        <time>2022-07-24T08:28:07Z</time>
      </trkpt>
      <trkpt lat="45.76833" lon="6.57832">
        <ele>1854</ele>
        <time>2022-07-24T08:28:08Z</time>
      </trkpt>
      <trkpt lat="45.76834" lon="6.57834">
        <ele>1854</ele>
        <time>2022-07-24T08:28:09Z</time>
      </trkpt>
      <trkpt lat="45.76834" lon="6.57835">
        <ele>1854</ele>
        <time>2022-07-24T08:28:10Z</time>
      </trkpt>
      <trkpt lat="45.76835" lon="6.57836">
        <ele>1855</ele>
        <time>2022-07-24T08:28:11Z</time>
      </trkpt>
      <trkpt lat="45.76835" lon="6.57837">
        <ele>1855</ele>
        <time>2022-07-24T08:28:12Z</time>
      </trkpt>
      <trkpt lat="45.76836" lon="6.57838">
        <ele>1855</ele>
        <time>2022-07-24T08:28:13Z</time>
      </trkpt>
      <trkpt lat="45.76836" lon="6.57839">
        <ele>1855</ele>
        <time>2022-07-24T08:28:14Z</time>
      </trkpt>
      <trkpt lat="45.76837" lon="6.5784">
        <ele>1855</ele>
        <time>2022-07-24T08:28:15Z</time>
      </trkpt>
      <trkpt lat="45.76837" lon="6.57841">
        <ele>1855</ele>
        <time>2022-07-24T08:28:16Z</time>
      </trkpt>
      <trkpt lat="45.76838" lon="6.57843">
        <ele>1855</ele>
        <time>2022-07-24T08:28:17Z</time>
      </trkpt>
      <trkpt lat="45.76838" lon="6.57844">
        <ele>1855</ele>
        <time>2022-07-24T08:28:18Z</time>
      </trkpt>
      <trkpt lat="45.76839" lon="6.57845">
        <ele>1855</ele>
        <time>2022-07-24T08:28:19Z</time>
      </trkpt>
      <trkpt lat="45.76839" lon="6.57846">
        <ele>1855</ele>
        <time>2022-07-24T08:28:20Z</time>
      </trkpt>
      <trkpt lat="45.7684" lon="6.57848">
        <ele>1855</ele>
        <time>2022-07-24T08:28:21Z</time>
      </trkpt>
      <trkpt lat="45.7684" lon="6.57849">
        <ele>1855</ele>
        <time>2022-07-24T08:28:22Z</time>
      </trkpt>
      <trkpt lat="45.76841" lon="6.5785">
        <ele>1855</ele>
        <time>2022-07-24T08:28:23Z</time>
      </trkpt>
      <trkpt lat="45.76841" lon="6.57851">
        <ele>1855</ele>
        <time>2022-07-24T08:28:24Z</time>
      </trkpt>
      <trkpt lat="45.76842" lon="6.57852">
        <ele>1855</ele>
        <time>2022-07-24T08:28:25Z</time>
      </trkpt>
      <trkpt lat="45.76842" lon="6.57853">
        <ele>1856</ele>
        <time>2022-07-24T08:28:26Z</time>
      </trkpt>
      <trkpt lat="45.76843" lon="6.57855">
        <ele>1856</ele>
        <time>2022-07-24T08:28:27Z</time>
      </trkpt>
      <trkpt lat="45.76843" lon="6.57856">
        <ele>1856</ele>
        <time>2022-07-24T08:28:28Z</time>
      </trkpt>
      <trkpt lat="45.76844" lon="6.57857">
        <ele>1856</ele>
        <time>2022-07-24T08:28:29Z</time>
      </trkpt>
      <trkpt lat="45.76844" lon="6.57858">
        <ele>1856</ele>
        <time>2022-07-24T08:28:30Z</time>
      </trkpt>
      <trkpt lat="45.76845" lon="6.57859">
        <ele>1856</ele>
        <time>2022-07-24T08:28:31Z</time>
      </trkpt>
      <trkpt lat="45.76845" lon="6.57861">
        <ele>1856</ele>
        <time>2022-07-24T08:28:32Z</time>
      </trkpt>
      <trkpt lat="45.76845" lon="6.57862">
        <ele>1856</ele>
        <time>2022-07-24T08:28:33Z</time>
      </trkpt>
      <trkpt lat="45.76846" lon="6.57863">
        <ele>1856</ele>
        <time>2022-07-24T08:28:34Z</time>
      </trkpt>
      <trkpt lat="45.76846" lon="6.57865">
        <ele>1856</ele>
        <time>2022-07-24T08:28:35Z</time>
      </trkpt>
      <trkpt lat="45.76846" lon="6.57866">
        <ele>1857</ele>
        <time>2022-07-24T08:28:36Z</time>
      </trkpt>
      <trkpt lat="45.76847" lon="6.57867">
        <ele>1857</ele>
        <time>2022-07-24T08:28:37Z</time>
      </trkpt>
      <trkpt lat="45.76847" lon="6.57868">
        <ele>1857</ele>
        <time>2022-07-24T08:28:38Z</time>
      </trkpt>
      <trkpt lat="45.76847" lon="6.5787">
        <ele>1857</ele>
        <time>2022-07-24T08:28:39Z</time>
      </trkpt>
      <trkpt lat="45.76848" lon="6.57871">
        <ele>1857</ele>
        <time>2022-07-24T08:28:40Z</time>
      </trkpt>
      <trkpt lat="45.76848" lon="6.57872">
        <ele>1857</ele>
        <time>2022-07-24T08:28:41Z</time>
      </trkpt>
      <trkpt lat="45.76848" lon="6.57874">
        <ele>1857</ele>
        <time>2022-07-24T08:28:42Z</time>
      </trkpt>
      <trkpt lat="45.76849" lon="6.57875">
        <ele>1857</ele>
        <time>2022-07-24T08:28:43Z</time>
      </trkpt>
      <trkpt lat="45.76849" lon="6.57876">
        <ele>1857</ele>
        <time>2022-07-24T08:28:44Z</time>
      </trkpt>
      <trkpt lat="45.76849" lon="6.57877">
        <ele>1857</ele>
        <time>2022-07-24T08:28:45Z</time>
      </trkpt>
      <trkpt lat="45.7685" lon="6.57879">
        <ele>1858</ele>
        <time>2022-07-24T08:28:46Z</time>
      </trkpt>
      <trkpt lat="45.7685" lon="6.5788">
        <ele>1858</ele>
        <time>2022-07-24T08:28:47Z</time>
      </trkpt>
      <trkpt lat="45.76851" lon="6.57881">
        <ele>1858</ele>
        <time>2022-07-24T08:28:48Z</time>
      </trkpt>
      <trkpt lat="45.76851" lon="6.57882">
        <ele>1858</ele>
        <time>2022-07-24T08:28:49Z</time>
      </trkpt>
      <trkpt lat="45.76851" lon="6.57883">
        <ele>1858</ele>
        <time>2022-07-24T08:28:50Z</time>
      </trkpt>
      <trkpt lat="45.76851" lon="6.57885">
        <ele>1858</ele>
        <time>2022-07-24T08:28:51Z</time>
      </trkpt>
      <trkpt lat="45.76852" lon="6.57886">
        <ele>1858</ele>
        <time>2022-07-24T08:28:52Z</time>
      </trkpt>
      <trkpt lat="45.76852" lon="6.57887">
        <ele>1858</ele>
        <time>2022-07-24T08:28:53Z</time>
      </trkpt>
      <trkpt lat="45.76852" lon="6.57888">
        <ele>1858</ele>
        <time>2022-07-24T08:28:54Z</time>
      </trkpt>
      <trkpt lat="45.76852" lon="6.5789">
        <ele>1858</ele>
        <time>2022-07-24T08:28:55Z</time>
      </trkpt>
      <trkpt lat="45.76852" lon="6.57891">
        <ele>1858</ele>
        <time>2022-07-24T08:28:56Z</time>
      </trkpt>
      <trkpt lat="45.76853" lon="6.57892">
        <ele>1858</ele>
        <time>2022-07-24T08:28:57Z</time>
      </trkpt>
      <trkpt lat="45.76853" lon="6.57893">
        <ele>1858</ele>
        <time>2022-07-24T08:28:58Z</time>
      </trkpt>
      <trkpt lat="45.76853" lon="6.57895">
        <ele>1858</ele>
        <time>2022-07-24T08:28:59Z</time>
      </trkpt>
      <trkpt lat="45.76853" lon="6.57896">
        <ele>1858</ele>
        <time>2022-07-24T08:29:00Z</time>
      </trkpt>
      <trkpt lat="45.76854" lon="6.57897">
        <ele>1859</ele>
        <time>2022-07-24T08:29:01Z</time>
      </trkpt>
      <trkpt lat="45.76854" lon="6.57898">
        <ele>1859</ele>
        <time>2022-07-24T08:29:02Z</time>
      </trkpt>
      <trkpt lat="45.76854" lon="6.579">
        <ele>1859</ele>
        <time>2022-07-24T08:29:03Z</time>
      </trkpt>
      <trkpt lat="45.76854" lon="6.57901">
        <ele>1859</ele>
        <time>2022-07-24T08:29:04Z</time>
      </trkpt>
      <trkpt lat="45.76855" lon="6.57902">
        <ele>1859</ele>
        <time>2022-07-24T08:29:05Z</time>
      </trkpt>
      <trkpt lat="45.76855" lon="6.57903">
        <ele>1859</ele>
        <time>2022-07-24T08:29:06Z</time>
      </trkpt>
      <trkpt lat="45.76855" lon="6.57905">
        <ele>1859</ele>
        <time>2022-07-24T08:29:07Z</time>
      </trkpt>
      <trkpt lat="45.76855" lon="6.57906">
        <ele>1859</ele>
        <time>2022-07-24T08:29:08Z</time>
      </trkpt>
      <trkpt lat="45.76855" lon="6.57907">
        <ele>1859</ele>
        <time>2022-07-24T08:29:09Z</time>
      </trkpt>
      <trkpt lat="45.76855" lon="6.57908">
        <ele>1859</ele>
        <time>2022-07-24T08:29:10Z</time>
      </trkpt>
      <trkpt lat="45.76856" lon="6.5791">
        <ele>1860</ele>
        <time>2022-07-24T08:29:11Z</time>
      </trkpt>
      <trkpt lat="45.76856" lon="6.57911">
        <ele>1860</ele>
        <time>2022-07-24T08:29:12Z</time>
      </trkpt>
      <trkpt lat="45.76855" lon="6.57912">
        <ele>1860</ele>
        <time>2022-07-24T08:29:13Z</time>
      </trkpt>
      <trkpt lat="45.76855" lon="6.57914">
        <ele>1860</ele>
        <time>2022-07-24T08:29:14Z</time>
      </trkpt>
      <trkpt lat="45.76855" lon="6.57915">
        <ele>1860</ele>
        <time>2022-07-24T08:29:15Z</time>
      </trkpt>
      <trkpt lat="45.76855" lon="6.57916">
        <ele>1860</ele>
        <time>2022-07-24T08:29:16Z</time>
      </trkpt>
      <trkpt lat="45.76855" lon="6.57917">
        <ele>1860</ele>
        <time>2022-07-24T08:29:17Z</time>
      </trkpt>
      <trkpt lat="45.76855" lon="6.57918">
        <ele>1860</ele>
        <time>2022-07-24T08:29:18Z</time>
      </trkpt>
      <trkpt lat="45.76855" lon="6.57919">
        <ele>1860</ele>
        <time>2022-07-24T08:29:19Z</time>
      </trkpt>
      <trkpt lat="45.76855" lon="6.57921">
        <ele>1860</ele>
        <time>2022-07-24T08:29:20Z</time>
      </trkpt>
      <trkpt lat="45.76856" lon="6.57922">
        <ele>1860</ele>
        <time>2022-07-24T08:29:21Z</time>
      </trkpt>
      <trkpt lat="45.76856" lon="6.57923">
        <ele>1860</ele>
        <time>2022-07-24T08:29:22Z</time>
      </trkpt>
      <trkpt lat="45.76856" lon="6.57925">
        <ele>1860</ele>
        <time>2022-07-24T08:29:23Z</time>
      </trkpt>
      <trkpt lat="45.76856" lon="6.57926">
        <ele>1860</ele>
        <time>2022-07-24T08:29:24Z</time>
      </trkpt>
      <trkpt lat="45.76856" lon="6.57927">
        <ele>1860</ele>
        <time>2022-07-24T08:29:25Z</time>
      </trkpt>
      <trkpt lat="45.76856" lon="6.57928">
        <ele>1861</ele>
        <time>2022-07-24T08:29:26Z</time>
      </trkpt>
      <trkpt lat="45.76856" lon="6.57929">
        <ele>1861</ele>
        <time>2022-07-24T08:29:27Z</time>
      </trkpt>
      <trkpt lat="45.76856" lon="6.57931">
        <ele>1861</ele>
        <time>2022-07-24T08:29:28Z</time>
      </trkpt>
      <trkpt lat="45.76856" lon="6.57932">
        <ele>1861</ele>
        <time>2022-07-24T08:29:29Z</time>
      </trkpt>
      <trkpt lat="45.76856" lon="6.57933">
        <ele>1861</ele>
        <time>2022-07-24T08:29:30Z</time>
      </trkpt>
      <trkpt lat="45.76856" lon="6.57934">
        <ele>1861</ele>
        <time>2022-07-24T08:29:31Z</time>
      </trkpt>
      <trkpt lat="45.76856" lon="6.57936">
        <ele>1861</ele>
        <time>2022-07-24T08:29:32Z</time>
      </trkpt>
      <trkpt lat="45.76856" lon="6.57937">
        <ele>1861</ele>
        <time>2022-07-24T08:29:33Z</time>
      </trkpt>
      <trkpt lat="45.76856" lon="6.57938">
        <ele>1861</ele>
        <time>2022-07-24T08:29:34Z</time>
      </trkpt>
      <trkpt lat="45.76856" lon="6.57939">
        <ele>1861</ele>
        <time>2022-07-24T08:29:35Z</time>
      </trkpt>
      <trkpt lat="45.76856" lon="6.57941">
        <ele>1862</ele>
        <time>2022-07-24T08:29:36Z</time>
      </trkpt>
      <trkpt lat="45.76856" lon="6.57942">
        <ele>1862</ele>
        <time>2022-07-24T08:29:37Z</time>
      </trkpt>
      <trkpt lat="45.76856" lon="6.57943">
        <ele>1862</ele>
        <time>2022-07-24T08:29:38Z</time>
      </trkpt>
      <trkpt lat="45.76856" lon="6.57944">
        <ele>1862</ele>
        <time>2022-07-24T08:29:39Z</time>
      </trkpt>
      <trkpt lat="45.76856" lon="6.57945">
        <ele>1862</ele>
        <time>2022-07-24T08:29:40Z</time>
      </trkpt>
      <trkpt lat="45.76856" lon="6.57946">
        <ele>1862</ele>
        <time>2022-07-24T08:29:41Z</time>
      </trkpt>
      <trkpt lat="45.76856" lon="6.57948">
        <ele>1862</ele>
        <time>2022-07-24T08:29:42Z</time>
      </trkpt>
      <trkpt lat="45.76856" lon="6.57949">
        <ele>1862</ele>
        <time>2022-07-24T08:29:43Z</time>
      </trkpt>
      <trkpt lat="45.76856" lon="6.5795">
        <ele>1862</ele>
        <time>2022-07-24T08:29:44Z</time>
      </trkpt>
      <trkpt lat="45.76856" lon="6.57952">
        <ele>1862</ele>
        <time>2022-07-24T08:29:45Z</time>
      </trkpt>
      <trkpt lat="45.76856" lon="6.57953">
        <ele>1863</ele>
        <time>2022-07-24T08:29:46Z</time>
      </trkpt>
      <trkpt lat="45.76856" lon="6.57954">
        <ele>1863</ele>
        <time>2022-07-24T08:29:47Z</time>
      </trkpt>
      <trkpt lat="45.76857" lon="6.57956">
        <ele>1863</ele>
        <time>2022-07-24T08:29:48Z</time>
      </trkpt>
      <trkpt lat="45.76857" lon="6.57957">
        <ele>1863</ele>
        <time>2022-07-24T08:29:49Z</time>
      </trkpt>
      <trkpt lat="45.76857" lon="6.57958">
        <ele>1863</ele>
        <time>2022-07-24T08:29:50Z</time>
      </trkpt>
      <trkpt lat="45.76857" lon="6.5796">
        <ele>1863</ele>
        <time>2022-07-24T08:29:51Z</time>
      </trkpt>
      <trkpt lat="45.76857" lon="6.57961">
        <ele>1863</ele>
        <time>2022-07-24T08:29:52Z</time>
      </trkpt>
      <trkpt lat="45.76858" lon="6.57962">
        <ele>1863</ele>
        <time>2022-07-24T08:29:53Z</time>
      </trkpt>
      <trkpt lat="45.76858" lon="6.57963">
        <ele>1863</ele>
        <time>2022-07-24T08:29:54Z</time>
      </trkpt>
      <trkpt lat="45.76858" lon="6.57964">
        <ele>1863</ele>
        <time>2022-07-24T08:29:55Z</time>
      </trkpt>
      <trkpt lat="45.76858" lon="6.57966">
        <ele>1864</ele>
        <time>2022-07-24T08:29:56Z</time>
      </trkpt>
      <trkpt lat="45.76858" lon="6.57967">
        <ele>1864</ele>
        <time>2022-07-24T08:29:57Z</time>
      </trkpt>
      <trkpt lat="45.76858" lon="6.57968">
        <ele>1864</ele>
        <time>2022-07-24T08:29:58Z</time>
      </trkpt>
      <trkpt lat="45.76858" lon="6.57969">
        <ele>1864</ele>
        <time>2022-07-24T08:29:59Z</time>
      </trkpt>
      <trkpt lat="45.76858" lon="6.57971">
        <ele>1864</ele>
        <time>2022-07-24T08:30:00Z</time>
      </trkpt>
      <trkpt lat="45.76859" lon="6.57972">
        <ele>1864</ele>
        <time>2022-07-24T08:30:01Z</time>
      </trkpt>
      <trkpt lat="45.76859" lon="6.57973">
        <ele>1864</ele>
        <time>2022-07-24T08:30:02Z</time>
      </trkpt>
      <trkpt lat="45.76859" lon="6.57974">
        <ele>1864</ele>
        <time>2022-07-24T08:30:03Z</time>
      </trkpt>
      <trkpt lat="45.76859" lon="6.57976">
        <ele>1864</ele>
        <time>2022-07-24T08:30:04Z</time>
      </trkpt>
      <trkpt lat="45.76858" lon="6.57977">
        <ele>1864</ele>
        <time>2022-07-24T08:30:05Z</time>
      </trkpt>
      <trkpt lat="45.76858" lon="6.57978">
        <ele>1865</ele>
        <time>2022-07-24T08:30:06Z</time>
      </trkpt>
      <trkpt lat="45.76858" lon="6.5798">
        <ele>1865</ele>
        <time>2022-07-24T08:30:07Z</time>
      </trkpt>
      <trkpt lat="45.76858" lon="6.57981">
        <ele>1865</ele>
        <time>2022-07-24T08:30:08Z</time>
      </trkpt>
      <trkpt lat="45.76858" lon="6.57982">
        <ele>1865</ele>
        <time>2022-07-24T08:30:09Z</time>
      </trkpt>
      <trkpt lat="45.76858" lon="6.57983">
        <ele>1865</ele>
        <time>2022-07-24T08:30:10Z</time>
      </trkpt>
      <trkpt lat="45.76858" lon="6.57985">
        <ele>1866</ele>
        <time>2022-07-24T08:30:11Z</time>
      </trkpt>
      <trkpt lat="45.76858" lon="6.57986">
        <ele>1866</ele>
        <time>2022-07-24T08:30:12Z</time>
      </trkpt>
      <trkpt lat="45.76858" lon="6.57987">
        <ele>1866</ele>
        <time>2022-07-24T08:30:13Z</time>
      </trkpt>
      <trkpt lat="45.76858" lon="6.57988">
        <ele>1866</ele>
        <time>2022-07-24T08:30:14Z</time>
      </trkpt>
      <trkpt lat="45.76858" lon="6.5799">
        <ele>1866</ele>
        <time>2022-07-24T08:30:15Z</time>
      </trkpt>
      <trkpt lat="45.76858" lon="6.57991">
        <ele>1866</ele>
        <time>2022-07-24T08:30:16Z</time>
      </trkpt>
      <trkpt lat="45.76858" lon="6.57992">
        <ele>1866</ele>
        <time>2022-07-24T08:30:17Z</time>
      </trkpt>
      <trkpt lat="45.76858" lon="6.57993">
        <ele>1866</ele>
        <time>2022-07-24T08:30:18Z</time>
      </trkpt>
      <trkpt lat="45.76859" lon="6.57994">
        <ele>1866</ele>
        <time>2022-07-24T08:30:19Z</time>
      </trkpt>
      <trkpt lat="45.76859" lon="6.57996">
        <ele>1866</ele>
        <time>2022-07-24T08:30:20Z</time>
      </trkpt>
      <trkpt lat="45.76859" lon="6.57997">
        <ele>1867</ele>
        <time>2022-07-24T08:30:21Z</time>
      </trkpt>
      <trkpt lat="45.76859" lon="6.57998">
        <ele>1867</ele>
        <time>2022-07-24T08:30:22Z</time>
      </trkpt>
      <trkpt lat="45.76859" lon="6.57999">
        <ele>1867</ele>
        <time>2022-07-24T08:30:23Z</time>
      </trkpt>
      <trkpt lat="45.76859" lon="6.58001">
        <ele>1867</ele>
        <time>2022-07-24T08:30:24Z</time>
      </trkpt>
      <trkpt lat="45.76859" lon="6.58002">
        <ele>1867</ele>
        <time>2022-07-24T08:30:25Z</time>
      </trkpt>
      <trkpt lat="45.76859" lon="6.58003">
        <ele>1867</ele>
        <time>2022-07-24T08:30:26Z</time>
      </trkpt>
      <trkpt lat="45.76859" lon="6.58004">
        <ele>1867</ele>
        <time>2022-07-24T08:30:27Z</time>
      </trkpt>
      <trkpt lat="45.76859" lon="6.58006">
        <ele>1867</ele>
        <time>2022-07-24T08:30:28Z</time>
      </trkpt>
      <trkpt lat="45.76859" lon="6.58007">
        <ele>1867</ele>
        <time>2022-07-24T08:30:29Z</time>
      </trkpt>
      <trkpt lat="45.76859" lon="6.58008">
        <ele>1867</ele>
        <time>2022-07-24T08:30:30Z</time>
      </trkpt>
      <trkpt lat="45.76859" lon="6.58009">
        <ele>1868</ele>
        <time>2022-07-24T08:30:31Z</time>
      </trkpt>
      <trkpt lat="45.76859" lon="6.5801">
        <ele>1868</ele>
        <time>2022-07-24T08:30:32Z</time>
      </trkpt>
      <trkpt lat="45.76859" lon="6.58011">
        <ele>1868</ele>
        <time>2022-07-24T08:30:33Z</time>
      </trkpt>
      <trkpt lat="45.76859" lon="6.58012">
        <ele>1868</ele>
        <time>2022-07-24T08:30:34Z</time>
      </trkpt>
      <trkpt lat="45.76859" lon="6.58013">
        <ele>1868</ele>
        <time>2022-07-24T08:30:35Z</time>
      </trkpt>
      <trkpt lat="45.76859" lon="6.58014">
        <ele>1868</ele>
        <time>2022-07-24T08:30:36Z</time>
      </trkpt>
      <trkpt lat="45.76859" lon="6.58015">
        <ele>1868</ele>
        <time>2022-07-24T08:30:37Z</time>
      </trkpt>
      <trkpt lat="45.7686" lon="6.58016">
        <ele>1868</ele>
        <time>2022-07-24T08:30:38Z</time>
      </trkpt>
      <trkpt lat="45.76859" lon="6.58017">
        <ele>1868</ele>
        <time>2022-07-24T08:30:39Z</time>
      </trkpt>
      <trkpt lat="45.76859" lon="6.58019">
        <ele>1868</ele>
        <time>2022-07-24T08:30:40Z</time>
      </trkpt>
      <trkpt lat="45.76859" lon="6.5802">
        <ele>1868</ele>
        <time>2022-07-24T08:30:41Z</time>
      </trkpt>
      <trkpt lat="45.76859" lon="6.58021">
        <ele>1868</ele>
        <time>2022-07-24T08:30:42Z</time>
      </trkpt>
      <trkpt lat="45.76859" lon="6.58022">
        <ele>1868</ele>
        <time>2022-07-24T08:30:43Z</time>
      </trkpt>
      <trkpt lat="45.76859" lon="6.58024">
        <ele>1868</ele>
        <time>2022-07-24T08:30:44Z</time>
      </trkpt>
      <trkpt lat="45.76859" lon="6.58024">
        <ele>1868</ele>
        <time>2022-07-24T08:30:45Z</time>
      </trkpt>
      <trkpt lat="45.76859" lon="6.58025">
        <ele>1869</ele>
        <time>2022-07-24T08:30:46Z</time>
      </trkpt>
      <trkpt lat="45.76859" lon="6.58026">
        <ele>1869</ele>
        <time>2022-07-24T08:30:47Z</time>
      </trkpt>
      <trkpt lat="45.76859" lon="6.58027">
        <ele>1869</ele>
        <time>2022-07-24T08:30:48Z</time>
      </trkpt>
      <trkpt lat="45.76859" lon="6.58028">
        <ele>1869</ele>
        <time>2022-07-24T08:30:49Z</time>
      </trkpt>
      <trkpt lat="45.76858" lon="6.58029">
        <ele>1869</ele>
        <time>2022-07-24T08:30:50Z</time>
      </trkpt>
      <trkpt lat="45.76858" lon="6.5803">
        <ele>1869</ele>
        <time>2022-07-24T08:30:51Z</time>
      </trkpt>
      <trkpt lat="45.76858" lon="6.58031">
        <ele>1869</ele>
        <time>2022-07-24T08:30:52Z</time>
      </trkpt>
      <trkpt lat="45.76858" lon="6.58032">
        <ele>1869</ele>
        <time>2022-07-24T08:30:53Z</time>
      </trkpt>
      <trkpt lat="45.76858" lon="6.58033">
        <ele>1869</ele>
        <time>2022-07-24T08:30:54Z</time>
      </trkpt>
      <trkpt lat="45.76858" lon="6.58035">
        <ele>1869</ele>
        <time>2022-07-24T08:30:55Z</time>
      </trkpt>
      <trkpt lat="45.76858" lon="6.58036">
        <ele>1870</ele>
        <time>2022-07-24T08:30:56Z</time>
      </trkpt>
      <trkpt lat="45.76858" lon="6.58037">
        <ele>1870</ele>
        <time>2022-07-24T08:30:57Z</time>
      </trkpt>
      <trkpt lat="45.76858" lon="6.58039">
        <ele>1870</ele>
        <time>2022-07-24T08:30:58Z</time>
      </trkpt>
      <trkpt lat="45.76858" lon="6.5804">
        <ele>1870</ele>
        <time>2022-07-24T08:30:59Z</time>
      </trkpt>
      <trkpt lat="45.76858" lon="6.58042">
        <ele>1870</ele>
        <time>2022-07-24T08:31:00Z</time>
      </trkpt>
      <trkpt lat="45.76858" lon="6.58043">
        <ele>1870</ele>
        <time>2022-07-24T08:31:01Z</time>
      </trkpt>
      <trkpt lat="45.76858" lon="6.58044">
        <ele>1870</ele>
        <time>2022-07-24T08:31:02Z</time>
      </trkpt>
      <trkpt lat="45.76858" lon="6.58046">
        <ele>1870</ele>
        <time>2022-07-24T08:31:03Z</time>
      </trkpt>
      <trkpt lat="45.76858" lon="6.58047">
        <ele>1870</ele>
        <time>2022-07-24T08:31:04Z</time>
      </trkpt>
      <trkpt lat="45.76859" lon="6.58049">
        <ele>1870</ele>
        <time>2022-07-24T08:31:05Z</time>
      </trkpt>
      <trkpt lat="45.76859" lon="6.5805">
        <ele>1871</ele>
        <time>2022-07-24T08:31:06Z</time>
      </trkpt>
      <trkpt lat="45.76859" lon="6.58052">
        <ele>1871</ele>
        <time>2022-07-24T08:31:07Z</time>
      </trkpt>
      <trkpt lat="45.76859" lon="6.58053">
        <ele>1871</ele>
        <time>2022-07-24T08:31:08Z</time>
      </trkpt>
      <trkpt lat="45.76859" lon="6.58054">
        <ele>1871</ele>
        <time>2022-07-24T08:31:09Z</time>
      </trkpt>
      <trkpt lat="45.76859" lon="6.58056">
        <ele>1871</ele>
        <time>2022-07-24T08:31:10Z</time>
      </trkpt>
      <trkpt lat="45.76859" lon="6.58057">
        <ele>1872</ele>
        <time>2022-07-24T08:31:11Z</time>
      </trkpt>
      <trkpt lat="45.76859" lon="6.58058">
        <ele>1872</ele>
        <time>2022-07-24T08:31:12Z</time>
      </trkpt>
      <trkpt lat="45.76859" lon="6.58059">
        <ele>1872</ele>
        <time>2022-07-24T08:31:13Z</time>
      </trkpt>
      <trkpt lat="45.76859" lon="6.58061">
        <ele>1872</ele>
        <time>2022-07-24T08:31:14Z</time>
      </trkpt>
      <trkpt lat="45.76859" lon="6.58062">
        <ele>1872</ele>
        <time>2022-07-24T08:31:15Z</time>
      </trkpt>
      <trkpt lat="45.76859" lon="6.58063">
        <ele>1872</ele>
        <time>2022-07-24T08:31:16Z</time>
      </trkpt>
      <trkpt lat="45.76858" lon="6.58065">
        <ele>1872</ele>
        <time>2022-07-24T08:31:17Z</time>
      </trkpt>
      <trkpt lat="45.76858" lon="6.58066">
        <ele>1872</ele>
        <time>2022-07-24T08:31:18Z</time>
      </trkpt>
      <trkpt lat="45.76858" lon="6.58067">
        <ele>1872</ele>
        <time>2022-07-24T08:31:19Z</time>
      </trkpt>
      <trkpt lat="45.76858" lon="6.58068">
        <ele>1872</ele>
        <time>2022-07-24T08:31:20Z</time>
      </trkpt>
      <trkpt lat="45.76858" lon="6.5807">
        <ele>1873</ele>
        <time>2022-07-24T08:31:21Z</time>
      </trkpt>
      <trkpt lat="45.76858" lon="6.58071">
        <ele>1873</ele>
        <time>2022-07-24T08:31:22Z</time>
      </trkpt>
      <trkpt lat="45.76858" lon="6.58072">
        <ele>1873</ele>
        <time>2022-07-24T08:31:23Z</time>
      </trkpt>
      <trkpt lat="45.76858" lon="6.58074">
        <ele>1873</ele>
        <time>2022-07-24T08:31:24Z</time>
      </trkpt>
      <trkpt lat="45.76858" lon="6.58075">
        <ele>1873</ele>
        <time>2022-07-24T08:31:25Z</time>
      </trkpt>
      <trkpt lat="45.76858" lon="6.58076">
        <ele>1873</ele>
        <time>2022-07-24T08:31:26Z</time>
      </trkpt>
      <trkpt lat="45.76858" lon="6.58078">
        <ele>1873</ele>
        <time>2022-07-24T08:31:27Z</time>
      </trkpt>
      <trkpt lat="45.76858" lon="6.58079">
        <ele>1873</ele>
        <time>2022-07-24T08:31:28Z</time>
      </trkpt>
      <trkpt lat="45.76858" lon="6.5808">
        <ele>1873</ele>
        <time>2022-07-24T08:31:29Z</time>
      </trkpt>
      <trkpt lat="45.76858" lon="6.58082">
        <ele>1873</ele>
        <time>2022-07-24T08:31:30Z</time>
      </trkpt>
      <trkpt lat="45.76858" lon="6.58083">
        <ele>1873</ele>
        <time>2022-07-24T08:31:31Z</time>
      </trkpt>
      <trkpt lat="45.76857" lon="6.58085">
        <ele>1873</ele>
        <time>2022-07-24T08:31:32Z</time>
      </trkpt>
      <trkpt lat="45.76857" lon="6.58086">
        <ele>1873</ele>
        <time>2022-07-24T08:31:33Z</time>
      </trkpt>
      <trkpt lat="45.76858" lon="6.58087">
        <ele>1873</ele>
        <time>2022-07-24T08:31:34Z</time>
      </trkpt>
      <trkpt lat="45.76858" lon="6.58089">
        <ele>1873</ele>
        <time>2022-07-24T08:31:35Z</time>
      </trkpt>
      <trkpt lat="45.76858" lon="6.5809">
        <ele>1873</ele>
        <time>2022-07-24T08:31:36Z</time>
      </trkpt>
      <trkpt lat="45.76858" lon="6.58091">
        <ele>1873</ele>
        <time>2022-07-24T08:31:37Z</time>
      </trkpt>
      <trkpt lat="45.76858" lon="6.58092">
        <ele>1873</ele>
        <time>2022-07-24T08:31:38Z</time>
      </trkpt>
      <trkpt lat="45.76858" lon="6.58094">
        <ele>1873</ele>
        <time>2022-07-24T08:31:39Z</time>
      </trkpt>
      <trkpt lat="45.76858" lon="6.58095">
        <ele>1873</ele>
        <time>2022-07-24T08:31:40Z</time>
      </trkpt>
      <trkpt lat="45.76858" lon="6.58096">
        <ele>1874</ele>
        <time>2022-07-24T08:31:41Z</time>
      </trkpt>
      <trkpt lat="45.76858" lon="6.58098">
        <ele>1874</ele>
        <time>2022-07-24T08:31:42Z</time>
      </trkpt>
      <trkpt lat="45.76858" lon="6.58099">
        <ele>1874</ele>
        <time>2022-07-24T08:31:43Z</time>
      </trkpt>
      <trkpt lat="45.76858" lon="6.581">
        <ele>1874</ele>
        <time>2022-07-24T08:31:44Z</time>
      </trkpt>
      <trkpt lat="45.76858" lon="6.58102">
        <ele>1874</ele>
        <time>2022-07-24T08:31:45Z</time>
      </trkpt>
      <trkpt lat="45.76858" lon="6.58103">
        <ele>1874</ele>
        <time>2022-07-24T08:31:46Z</time>
      </trkpt>
      <trkpt lat="45.76858" lon="6.58105">
        <ele>1874</ele>
        <time>2022-07-24T08:31:47Z</time>
      </trkpt>
      <trkpt lat="45.76858" lon="6.58106">
        <ele>1874</ele>
        <time>2022-07-24T08:31:48Z</time>
      </trkpt>
      <trkpt lat="45.76859" lon="6.58107">
        <ele>1874</ele>
        <time>2022-07-24T08:31:49Z</time>
      </trkpt>
      <trkpt lat="45.76859" lon="6.58109">
        <ele>1874</ele>
        <time>2022-07-24T08:31:50Z</time>
      </trkpt>
      <trkpt lat="45.76859" lon="6.5811">
        <ele>1875</ele>
        <time>2022-07-24T08:31:51Z</time>
      </trkpt>
      <trkpt lat="45.76859" lon="6.58111">
        <ele>1875</ele>
        <time>2022-07-24T08:31:52Z</time>
      </trkpt>
      <trkpt lat="45.76859" lon="6.58112">
        <ele>1875</ele>
        <time>2022-07-24T08:31:53Z</time>
      </trkpt>
      <trkpt lat="45.7686" lon="6.58113">
        <ele>1875</ele>
        <time>2022-07-24T08:31:54Z</time>
      </trkpt>
      <trkpt lat="45.7686" lon="6.58115">
        <ele>1875</ele>
        <time>2022-07-24T08:31:55Z</time>
      </trkpt>
      <trkpt lat="45.7686" lon="6.58116">
        <ele>1875</ele>
        <time>2022-07-24T08:31:56Z</time>
      </trkpt>
      <trkpt lat="45.7686" lon="6.58117">
        <ele>1875</ele>
        <time>2022-07-24T08:31:57Z</time>
      </trkpt>
      <trkpt lat="45.7686" lon="6.58118">
        <ele>1875</ele>
        <time>2022-07-24T08:31:58Z</time>
      </trkpt>
      <trkpt lat="45.7686" lon="6.5812">
        <ele>1875</ele>
        <time>2022-07-24T08:31:59Z</time>
      </trkpt>
      <trkpt lat="45.7686" lon="6.58121">
        <ele>1875</ele>
        <time>2022-07-24T08:32:00Z</time>
      </trkpt>
      <trkpt lat="45.76861" lon="6.58122">
        <ele>1875</ele>
        <time>2022-07-24T08:32:01Z</time>
      </trkpt>
      <trkpt lat="45.76861" lon="6.58124">
        <ele>1875</ele>
        <time>2022-07-24T08:32:02Z</time>
      </trkpt>
      <trkpt lat="45.76861" lon="6.58125">
        <ele>1875</ele>
        <time>2022-07-24T08:32:03Z</time>
      </trkpt>
      <trkpt lat="45.76861" lon="6.58126">
        <ele>1875</ele>
        <time>2022-07-24T08:32:04Z</time>
      </trkpt>
      <trkpt lat="45.76862" lon="6.58127">
        <ele>1875</ele>
        <time>2022-07-24T08:32:05Z</time>
      </trkpt>
      <trkpt lat="45.76862" lon="6.58129">
        <ele>1876</ele>
        <time>2022-07-24T08:32:06Z</time>
      </trkpt>
      <trkpt lat="45.76862" lon="6.5813">
        <ele>1876</ele>
        <time>2022-07-24T08:32:07Z</time>
      </trkpt>
      <trkpt lat="45.76862" lon="6.58131">
        <ele>1876</ele>
        <time>2022-07-24T08:32:08Z</time>
      </trkpt>
      <trkpt lat="45.76862" lon="6.58133">
        <ele>1876</ele>
        <time>2022-07-24T08:32:09Z</time>
      </trkpt>
      <trkpt lat="45.76863" lon="6.58134">
        <ele>1876</ele>
        <time>2022-07-24T08:32:10Z</time>
      </trkpt>
      <trkpt lat="45.76863" lon="6.58135">
        <ele>1876</ele>
        <time>2022-07-24T08:32:11Z</time>
      </trkpt>
      <trkpt lat="45.76863" lon="6.58136">
        <ele>1876</ele>
        <time>2022-07-24T08:32:12Z</time>
      </trkpt>
      <trkpt lat="45.76864" lon="6.58138">
        <ele>1876</ele>
        <time>2022-07-24T08:32:13Z</time>
      </trkpt>
      <trkpt lat="45.76864" lon="6.58139">
        <ele>1876</ele>
        <time>2022-07-24T08:32:14Z</time>
      </trkpt>
      <trkpt lat="45.76864" lon="6.5814">
        <ele>1876</ele>
        <time>2022-07-24T08:32:15Z</time>
      </trkpt>
      <trkpt lat="45.76864" lon="6.58141">
        <ele>1877</ele>
        <time>2022-07-24T08:32:16Z</time>
      </trkpt>
      <trkpt lat="45.76865" lon="6.58142">
        <ele>1877</ele>
        <time>2022-07-24T08:32:17Z</time>
      </trkpt>
      <trkpt lat="45.76865" lon="6.58143">
        <ele>1877</ele>
        <time>2022-07-24T08:32:18Z</time>
      </trkpt>
      <trkpt lat="45.76865" lon="6.58144">
        <ele>1877</ele>
        <time>2022-07-24T08:32:19Z</time>
      </trkpt>
      <trkpt lat="45.76865" lon="6.58146">
        <ele>1877</ele>
        <time>2022-07-24T08:32:20Z</time>
      </trkpt>
      <trkpt lat="45.76865" lon="6.58147">
        <ele>1877</ele>
        <time>2022-07-24T08:32:21Z</time>
      </trkpt>
      <trkpt lat="45.76865" lon="6.58148">
        <ele>1877</ele>
        <time>2022-07-24T08:32:22Z</time>
      </trkpt>
      <trkpt lat="45.76866" lon="6.58149">
        <ele>1877</ele>
        <time>2022-07-24T08:32:23Z</time>
      </trkpt>
      <trkpt lat="45.76866" lon="6.58151">
        <ele>1877</ele>
        <time>2022-07-24T08:32:24Z</time>
      </trkpt>
      <trkpt lat="45.76866" lon="6.58152">
        <ele>1877</ele>
        <time>2022-07-24T08:32:25Z</time>
      </trkpt>
      <trkpt lat="45.76866" lon="6.58153">
        <ele>1877</ele>
        <time>2022-07-24T08:32:26Z</time>
      </trkpt>
      <trkpt lat="45.76866" lon="6.58154">
        <ele>1877</ele>
        <time>2022-07-24T08:32:27Z</time>
      </trkpt>
      <trkpt lat="45.76867" lon="6.58155">
        <ele>1877</ele>
        <time>2022-07-24T08:32:28Z</time>
      </trkpt>
      <trkpt lat="45.76867" lon="6.58157">
        <ele>1877</ele>
        <time>2022-07-24T08:32:29Z</time>
      </trkpt>
      <trkpt lat="45.76867" lon="6.58158">
        <ele>1877</ele>
        <time>2022-07-24T08:32:30Z</time>
      </trkpt>
      <trkpt lat="45.76867" lon="6.58159">
        <ele>1878</ele>
        <time>2022-07-24T08:32:31Z</time>
      </trkpt>
      <trkpt lat="45.76867" lon="6.5816">
        <ele>1878</ele>
        <time>2022-07-24T08:32:32Z</time>
      </trkpt>
      <trkpt lat="45.76867" lon="6.58161">
        <ele>1878</ele>
        <time>2022-07-24T08:32:33Z</time>
      </trkpt>
      <trkpt lat="45.76868" lon="6.58163">
        <ele>1878</ele>
        <time>2022-07-24T08:32:34Z</time>
      </trkpt>
      <trkpt lat="45.76868" lon="6.58164">
        <ele>1878</ele>
        <time>2022-07-24T08:32:35Z</time>
      </trkpt>
      <trkpt lat="45.76868" lon="6.58165">
        <ele>1878</ele>
        <time>2022-07-24T08:32:36Z</time>
      </trkpt>
      <trkpt lat="45.76868" lon="6.58166">
        <ele>1878</ele>
        <time>2022-07-24T08:32:37Z</time>
      </trkpt>
      <trkpt lat="45.76869" lon="6.58167">
        <ele>1878</ele>
        <time>2022-07-24T08:32:38Z</time>
      </trkpt>
      <trkpt lat="45.76869" lon="6.58169">
        <ele>1879</ele>
        <time>2022-07-24T08:33:11Z</time>
      </trkpt>
      <trkpt lat="45.76869" lon="6.5817">
        <ele>1879</ele>
        <time>2022-07-24T08:33:12Z</time>
      </trkpt>
      <trkpt lat="45.76869" lon="6.58171">
        <ele>1879</ele>
        <time>2022-07-24T08:33:13Z</time>
      </trkpt>
      <trkpt lat="45.76869" lon="6.58172">
        <ele>1879</ele>
        <time>2022-07-24T08:33:14Z</time>
      </trkpt>
      <trkpt lat="45.76869" lon="6.58173">
        <ele>1879</ele>
        <time>2022-07-24T08:33:15Z</time>
      </trkpt>
      <trkpt lat="45.76869" lon="6.58174">
        <ele>1879</ele>
        <time>2022-07-24T08:33:16Z</time>
      </trkpt>
      <trkpt lat="45.76869" lon="6.58176">
        <ele>1879</ele>
        <time>2022-07-24T08:33:17Z</time>
      </trkpt>
      <trkpt lat="45.7687" lon="6.58178">
        <ele>1879</ele>
        <time>2022-07-24T08:33:18Z</time>
      </trkpt>
      <trkpt lat="45.7687" lon="6.58179">
        <ele>1879</ele>
        <time>2022-07-24T08:33:19Z</time>
      </trkpt>
      <trkpt lat="45.7687" lon="6.58181">
        <ele>1879</ele>
        <time>2022-07-24T08:33:20Z</time>
      </trkpt>
      <trkpt lat="45.7687" lon="6.58182">
        <ele>1880</ele>
        <time>2022-07-24T08:33:21Z</time>
      </trkpt>
      <trkpt lat="45.7687" lon="6.58184">
        <ele>1880</ele>
        <time>2022-07-24T08:33:22Z</time>
      </trkpt>
      <trkpt lat="45.7687" lon="6.58186">
        <ele>1880</ele>
        <time>2022-07-24T08:33:23Z</time>
      </trkpt>
      <trkpt lat="45.7687" lon="6.58187">
        <ele>1880</ele>
        <time>2022-07-24T08:33:24Z</time>
      </trkpt>
      <trkpt lat="45.7687" lon="6.58188">
        <ele>1880</ele>
        <time>2022-07-24T08:33:25Z</time>
      </trkpt>
      <trkpt lat="45.7687" lon="6.5819">
        <ele>1881</ele>
        <time>2022-07-24T08:33:26Z</time>
      </trkpt>
      <trkpt lat="45.7687" lon="6.58191">
        <ele>1881</ele>
        <time>2022-07-24T08:33:27Z</time>
      </trkpt>
      <trkpt lat="45.7687" lon="6.58192">
        <ele>1881</ele>
        <time>2022-07-24T08:33:28Z</time>
      </trkpt>
      <trkpt lat="45.76871" lon="6.58194">
        <ele>1881</ele>
        <time>2022-07-24T08:33:29Z</time>
      </trkpt>
      <trkpt lat="45.76871" lon="6.58195">
        <ele>1881</ele>
        <time>2022-07-24T08:33:30Z</time>
      </trkpt>
      <trkpt lat="45.76871" lon="6.58196">
        <ele>1881</ele>
        <time>2022-07-24T08:33:31Z</time>
      </trkpt>
      <trkpt lat="45.76871" lon="6.58198">
        <ele>1881</ele>
        <time>2022-07-24T08:33:32Z</time>
      </trkpt>
      <trkpt lat="45.76871" lon="6.58199">
        <ele>1881</ele>
        <time>2022-07-24T08:33:33Z</time>
      </trkpt>
      <trkpt lat="45.76871" lon="6.58201">
        <ele>1881</ele>
        <time>2022-07-24T08:33:34Z</time>
      </trkpt>
      <trkpt lat="45.76871" lon="6.58202">
        <ele>1881</ele>
        <time>2022-07-24T08:33:35Z</time>
      </trkpt>
      <trkpt lat="45.76871" lon="6.58204">
        <ele>1881</ele>
        <time>2022-07-24T08:33:36Z</time>
      </trkpt>
      <trkpt lat="45.76871" lon="6.58205">
        <ele>1881</ele>
        <time>2022-07-24T08:33:37Z</time>
      </trkpt>
      <trkpt lat="45.76871" lon="6.58207">
        <ele>1881</ele>
        <time>2022-07-24T08:33:38Z</time>
      </trkpt>
      <trkpt lat="45.76872" lon="6.58209">
        <ele>1882</ele>
        <time>2022-07-24T08:33:39Z</time>
      </trkpt>
      <trkpt lat="45.76872" lon="6.5821">
        <ele>1882</ele>
        <time>2022-07-24T08:33:40Z</time>
      </trkpt>
      <trkpt lat="45.76872" lon="6.58212">
        <ele>1883</ele>
        <time>2022-07-24T08:33:41Z</time>
      </trkpt>
      <trkpt lat="45.76872" lon="6.58213">
        <ele>1883</ele>
        <time>2022-07-24T08:33:42Z</time>
      </trkpt>
      <trkpt lat="45.76872" lon="6.58214">
        <ele>1883</ele>
        <time>2022-07-24T08:33:43Z</time>
      </trkpt>
      <trkpt lat="45.76873" lon="6.58216">
        <ele>1883</ele>
        <time>2022-07-24T08:33:44Z</time>
      </trkpt>
      <trkpt lat="45.76873" lon="6.58217">
        <ele>1883</ele>
        <time>2022-07-24T08:33:45Z</time>
      </trkpt>
      <trkpt lat="45.76873" lon="6.58219">
        <ele>1883</ele>
        <time>2022-07-24T08:33:46Z</time>
      </trkpt>
      <trkpt lat="45.76873" lon="6.5822">
        <ele>1883</ele>
        <time>2022-07-24T08:33:47Z</time>
      </trkpt>
      <trkpt lat="45.76873" lon="6.58222">
        <ele>1883</ele>
        <time>2022-07-24T08:33:48Z</time>
      </trkpt>
      <trkpt lat="45.76873" lon="6.58223">
        <ele>1883</ele>
        <time>2022-07-24T08:33:49Z</time>
      </trkpt>
      <trkpt lat="45.76873" lon="6.58224">
        <ele>1883</ele>
        <time>2022-07-24T08:33:50Z</time>
      </trkpt>
      <trkpt lat="45.76873" lon="6.58226">
        <ele>1884</ele>
        <time>2022-07-24T08:33:51Z</time>
      </trkpt>
      <trkpt lat="45.76873" lon="6.58227">
        <ele>1884</ele>
        <time>2022-07-24T08:33:52Z</time>
      </trkpt>
      <trkpt lat="45.76873" lon="6.58229">
        <ele>1884</ele>
        <time>2022-07-24T08:33:53Z</time>
      </trkpt>
      <trkpt lat="45.76874" lon="6.5823">
        <ele>1884</ele>
        <time>2022-07-24T08:33:54Z</time>
      </trkpt>
      <trkpt lat="45.76874" lon="6.58232">
        <ele>1884</ele>
        <time>2022-07-24T08:33:55Z</time>
      </trkpt>
      <trkpt lat="45.76874" lon="6.58233">
        <ele>1884</ele>
        <time>2022-07-24T08:33:56Z</time>
      </trkpt>
      <trkpt lat="45.76874" lon="6.58235">
        <ele>1884</ele>
        <time>2022-07-24T08:33:57Z</time>
      </trkpt>
      <trkpt lat="45.76874" lon="6.58236">
        <ele>1884</ele>
        <time>2022-07-24T08:33:58Z</time>
      </trkpt>
      <trkpt lat="45.76874" lon="6.58237">
        <ele>1884</ele>
        <time>2022-07-24T08:33:59Z</time>
      </trkpt>
      <trkpt lat="45.76874" lon="6.58238">
        <ele>1884</ele>
        <time>2022-07-24T08:34:00Z</time>
      </trkpt>
      <trkpt lat="45.76875" lon="6.58239">
        <ele>1885</ele>
        <time>2022-07-24T08:34:01Z</time>
      </trkpt>
      <trkpt lat="45.76875" lon="6.5824">
        <ele>1885</ele>
        <time>2022-07-24T08:34:02Z</time>
      </trkpt>
      <trkpt lat="45.76875" lon="6.58241">
        <ele>1885</ele>
        <time>2022-07-24T08:34:03Z</time>
      </trkpt>
      <trkpt lat="45.76875" lon="6.58243">
        <ele>1885</ele>
        <time>2022-07-24T08:34:04Z</time>
      </trkpt>
      <trkpt lat="45.76875" lon="6.58244">
        <ele>1885</ele>
        <time>2022-07-24T08:34:05Z</time>
      </trkpt>
      <trkpt lat="45.76875" lon="6.58245">
        <ele>1885</ele>
        <time>2022-07-24T08:34:06Z</time>
      </trkpt>
      <trkpt lat="45.76875" lon="6.58247">
        <ele>1885</ele>
        <time>2022-07-24T08:34:13Z</time>
      </trkpt>
      <trkpt lat="45.76875" lon="6.58248">
        <ele>1885</ele>
        <time>2022-07-24T08:34:14Z</time>
      </trkpt>
      <trkpt lat="45.76875" lon="6.58249">
        <ele>1885</ele>
        <time>2022-07-24T08:34:15Z</time>
      </trkpt>
      <trkpt lat="45.76875" lon="6.5825">
        <ele>1886</ele>
        <time>2022-07-24T08:34:16Z</time>
      </trkpt>
      <trkpt lat="45.76875" lon="6.58251">
        <ele>1886</ele>
        <time>2022-07-24T08:34:17Z</time>
      </trkpt>
      <trkpt lat="45.76875" lon="6.58251">
        <ele>1886</ele>
        <time>2022-07-24T08:34:18Z</time>
      </trkpt>
      <trkpt lat="45.76875" lon="6.58252">
        <ele>1886</ele>
        <time>2022-07-24T08:34:19Z</time>
      </trkpt>
      <trkpt lat="45.76876" lon="6.58254">
        <ele>1886</ele>
        <time>2022-07-24T08:34:20Z</time>
      </trkpt>
      <trkpt lat="45.76876" lon="6.58255">
        <ele>1886</ele>
        <time>2022-07-24T08:34:21Z</time>
      </trkpt>
      <trkpt lat="45.76876" lon="6.58256">
        <ele>1886</ele>
        <time>2022-07-24T08:34:22Z</time>
      </trkpt>
      <trkpt lat="45.76876" lon="6.58258">
        <ele>1886</ele>
        <time>2022-07-24T08:34:23Z</time>
      </trkpt>
      <trkpt lat="45.76876" lon="6.58259">
        <ele>1886</ele>
        <time>2022-07-24T08:34:24Z</time>
      </trkpt>
      <trkpt lat="45.76876" lon="6.58261">
        <ele>1886</ele>
        <time>2022-07-24T08:34:25Z</time>
      </trkpt>
      <trkpt lat="45.76876" lon="6.58262">
        <ele>1886</ele>
        <time>2022-07-24T08:34:26Z</time>
      </trkpt>
      <trkpt lat="45.76876" lon="6.58264">
        <ele>1886</ele>
        <time>2022-07-24T08:34:27Z</time>
      </trkpt>
      <trkpt lat="45.76876" lon="6.58266">
        <ele>1886</ele>
        <time>2022-07-24T08:34:28Z</time>
      </trkpt>
      <trkpt lat="45.76876" lon="6.58267">
        <ele>1886</ele>
        <time>2022-07-24T08:34:29Z</time>
      </trkpt>
      <trkpt lat="45.76876" lon="6.58269">
        <ele>1886</ele>
        <time>2022-07-24T08:34:30Z</time>
      </trkpt>
      <trkpt lat="45.76876" lon="6.5827">
        <ele>1887</ele>
        <time>2022-07-24T08:34:31Z</time>
      </trkpt>
      <trkpt lat="45.76876" lon="6.58272">
        <ele>1887</ele>
        <time>2022-07-24T08:34:32Z</time>
      </trkpt>
      <trkpt lat="45.76876" lon="6.58274">
        <ele>1887</ele>
        <time>2022-07-24T08:34:33Z</time>
      </trkpt>
      <trkpt lat="45.76877" lon="6.58275">
        <ele>1887</ele>
        <time>2022-07-24T08:34:34Z</time>
      </trkpt>
      <trkpt lat="45.76877" lon="6.58277">
        <ele>1887</ele>
        <time>2022-07-24T08:34:35Z</time>
      </trkpt>
      <trkpt lat="45.76877" lon="6.58279">
        <ele>1887</ele>
        <time>2022-07-24T08:34:36Z</time>
      </trkpt>
      <trkpt lat="45.76878" lon="6.5828">
        <ele>1887</ele>
        <time>2022-07-24T08:34:37Z</time>
      </trkpt>
      <trkpt lat="45.76878" lon="6.58281">
        <ele>1887</ele>
        <time>2022-07-24T08:34:38Z</time>
      </trkpt>
      <trkpt lat="45.76878" lon="6.58283">
        <ele>1887</ele>
        <time>2022-07-24T08:34:39Z</time>
      </trkpt>
      <trkpt lat="45.76878" lon="6.58284">
        <ele>1887</ele>
        <time>2022-07-24T08:34:40Z</time>
      </trkpt>
      <trkpt lat="45.76879" lon="6.58286">
        <ele>1888</ele>
        <time>2022-07-24T08:34:41Z</time>
      </trkpt>
      <trkpt lat="45.76879" lon="6.58287">
        <ele>1888</ele>
        <time>2022-07-24T08:34:42Z</time>
      </trkpt>
      <trkpt lat="45.76879" lon="6.58288">
        <ele>1888</ele>
        <time>2022-07-24T08:34:43Z</time>
      </trkpt>
      <trkpt lat="45.76879" lon="6.5829">
        <ele>1888</ele>
        <time>2022-07-24T08:34:44Z</time>
      </trkpt>
      <trkpt lat="45.7688" lon="6.58291">
        <ele>1888</ele>
        <time>2022-07-24T08:34:45Z</time>
      </trkpt>
      <trkpt lat="45.7688" lon="6.58293">
        <ele>1888</ele>
        <time>2022-07-24T08:34:46Z</time>
      </trkpt>
      <trkpt lat="45.7688" lon="6.58294">
        <ele>1888</ele>
        <time>2022-07-24T08:34:47Z</time>
      </trkpt>
      <trkpt lat="45.76881" lon="6.58296">
        <ele>1888</ele>
        <time>2022-07-24T08:34:48Z</time>
      </trkpt>
      <trkpt lat="45.76881" lon="6.58297">
        <ele>1888</ele>
        <time>2022-07-24T08:34:49Z</time>
      </trkpt>
      <trkpt lat="45.76882" lon="6.58299">
        <ele>1888</ele>
        <time>2022-07-24T08:34:50Z</time>
      </trkpt>
      <trkpt lat="45.76882" lon="6.583">
        <ele>1888</ele>
        <time>2022-07-24T08:34:51Z</time>
      </trkpt>
      <trkpt lat="45.76883" lon="6.58302">
        <ele>1888</ele>
        <time>2022-07-24T08:34:52Z</time>
      </trkpt>
      <trkpt lat="45.76883" lon="6.58303">
        <ele>1888</ele>
        <time>2022-07-24T08:34:53Z</time>
      </trkpt>
      <trkpt lat="45.76884" lon="6.58305">
        <ele>1888</ele>
        <time>2022-07-24T08:34:54Z</time>
      </trkpt>
      <trkpt lat="45.76884" lon="6.58306">
        <ele>1888</ele>
        <time>2022-07-24T08:34:55Z</time>
      </trkpt>
      <trkpt lat="45.76884" lon="6.58308">
        <ele>1889</ele>
        <time>2022-07-24T08:34:56Z</time>
      </trkpt>
      <trkpt lat="45.76885" lon="6.58309">
        <ele>1889</ele>
        <time>2022-07-24T08:34:57Z</time>
      </trkpt>
      <trkpt lat="45.76885" lon="6.58311">
        <ele>1889</ele>
        <time>2022-07-24T08:34:58Z</time>
      </trkpt>
      <trkpt lat="45.76886" lon="6.58312">
        <ele>1889</ele>
        <time>2022-07-24T08:34:59Z</time>
      </trkpt>
      <trkpt lat="45.76886" lon="6.58313">
        <ele>1889</ele>
        <time>2022-07-24T08:35:00Z</time>
      </trkpt>
      <trkpt lat="45.76886" lon="6.58315">
        <ele>1889</ele>
        <time>2022-07-24T08:35:01Z</time>
      </trkpt>
      <trkpt lat="45.76887" lon="6.58316">
        <ele>1889</ele>
        <time>2022-07-24T08:35:02Z</time>
      </trkpt>
      <trkpt lat="45.76887" lon="6.58318">
        <ele>1889</ele>
        <time>2022-07-24T08:35:03Z</time>
      </trkpt>
      <trkpt lat="45.76887" lon="6.58319">
        <ele>1889</ele>
        <time>2022-07-24T08:35:04Z</time>
      </trkpt>
      <trkpt lat="45.76888" lon="6.5832">
        <ele>1889</ele>
        <time>2022-07-24T08:35:05Z</time>
      </trkpt>
      <trkpt lat="45.76888" lon="6.58321">
        <ele>1889</ele>
        <time>2022-07-24T08:35:06Z</time>
      </trkpt>
      <trkpt lat="45.76888" lon="6.58323">
        <ele>1889</ele>
        <time>2022-07-24T08:35:07Z</time>
      </trkpt>
      <trkpt lat="45.76889" lon="6.58324">
        <ele>1889</ele>
        <time>2022-07-24T08:35:08Z</time>
      </trkpt>
      <trkpt lat="45.76889" lon="6.58325">
        <ele>1889</ele>
        <time>2022-07-24T08:35:09Z</time>
      </trkpt>
      <trkpt lat="45.7689" lon="6.58327">
        <ele>1889</ele>
        <time>2022-07-24T08:35:10Z</time>
      </trkpt>
      <trkpt lat="45.7689" lon="6.58328">
        <ele>1890</ele>
        <time>2022-07-24T08:35:11Z</time>
      </trkpt>
      <trkpt lat="45.7689" lon="6.58329">
        <ele>1890</ele>
        <time>2022-07-24T08:35:12Z</time>
      </trkpt>
      <trkpt lat="45.76891" lon="6.58331">
        <ele>1890</ele>
        <time>2022-07-24T08:35:13Z</time>
      </trkpt>
      <trkpt lat="45.76891" lon="6.58332">
        <ele>1890</ele>
        <time>2022-07-24T08:35:14Z</time>
      </trkpt>
      <trkpt lat="45.76892" lon="6.58333">
        <ele>1890</ele>
        <time>2022-07-24T08:35:15Z</time>
      </trkpt>
      <trkpt lat="45.76892" lon="6.58335">
        <ele>1890</ele>
        <time>2022-07-24T08:35:16Z</time>
      </trkpt>
      <trkpt lat="45.76892" lon="6.58336">
        <ele>1890</ele>
        <time>2022-07-24T08:35:17Z</time>
      </trkpt>
      <trkpt lat="45.76893" lon="6.58338">
        <ele>1890</ele>
        <time>2022-07-24T08:35:18Z</time>
      </trkpt>
      <trkpt lat="45.76893" lon="6.58339">
        <ele>1890</ele>
        <time>2022-07-24T08:35:19Z</time>
      </trkpt>
      <trkpt lat="45.76893" lon="6.5834">
        <ele>1890</ele>
        <time>2022-07-24T08:35:20Z</time>
      </trkpt>
      <trkpt lat="45.76894" lon="6.58341">
        <ele>1891</ele>
        <time>2022-07-24T08:35:21Z</time>
      </trkpt>
      <trkpt lat="45.76894" lon="6.58343">
        <ele>1891</ele>
        <time>2022-07-24T08:35:22Z</time>
      </trkpt>
      <trkpt lat="45.76894" lon="6.58344">
        <ele>1891</ele>
        <time>2022-07-24T08:35:23Z</time>
      </trkpt>
      <trkpt lat="45.76895" lon="6.58345">
        <ele>1891</ele>
        <time>2022-07-24T08:35:24Z</time>
      </trkpt>
      <trkpt lat="45.76895" lon="6.58346">
        <ele>1891</ele>
        <time>2022-07-24T08:35:25Z</time>
      </trkpt>
      <trkpt lat="45.76896" lon="6.58348">
        <ele>1891</ele>
        <time>2022-07-24T08:35:26Z</time>
      </trkpt>
      <trkpt lat="45.76896" lon="6.58349">
        <ele>1891</ele>
        <time>2022-07-24T08:35:27Z</time>
      </trkpt>
      <trkpt lat="45.76897" lon="6.5835">
        <ele>1891</ele>
        <time>2022-07-24T08:35:28Z</time>
      </trkpt>
      <trkpt lat="45.76897" lon="6.58351">
        <ele>1891</ele>
        <time>2022-07-24T08:35:29Z</time>
      </trkpt>
      <trkpt lat="45.76898" lon="6.58353">
        <ele>1891</ele>
        <time>2022-07-24T08:35:30Z</time>
      </trkpt>
      <trkpt lat="45.76898" lon="6.58354">
        <ele>1891</ele>
        <time>2022-07-24T08:35:31Z</time>
      </trkpt>
      <trkpt lat="45.76898" lon="6.58355">
        <ele>1891</ele>
        <time>2022-07-24T08:35:32Z</time>
      </trkpt>
      <trkpt lat="45.76899" lon="6.58356">
        <ele>1891</ele>
        <time>2022-07-24T08:35:33Z</time>
      </trkpt>
      <trkpt lat="45.76899" lon="6.58358">
        <ele>1891</ele>
        <time>2022-07-24T08:35:34Z</time>
      </trkpt>
      <trkpt lat="45.769" lon="6.58359">
        <ele>1891</ele>
        <time>2022-07-24T08:35:35Z</time>
      </trkpt>
      <trkpt lat="45.769" lon="6.5836">
        <ele>1892</ele>
        <time>2022-07-24T08:35:41Z</time>
      </trkpt>
      <trkpt lat="45.769" lon="6.58361">
        <ele>1892</ele>
        <time>2022-07-24T08:35:42Z</time>
      </trkpt>
      <trkpt lat="45.769" lon="6.58361">
        <ele>1892</ele>
        <time>2022-07-24T08:35:43Z</time>
      </trkpt>
      <trkpt lat="45.76901" lon="6.58362">
        <ele>1892</ele>
        <time>2022-07-24T08:35:44Z</time>
      </trkpt>
      <trkpt lat="45.76901" lon="6.58363">
        <ele>1892</ele>
        <time>2022-07-24T08:35:45Z</time>
      </trkpt>
      <trkpt lat="45.76901" lon="6.58364">
        <ele>1893</ele>
        <time>2022-07-24T08:35:46Z</time>
      </trkpt>
      <trkpt lat="45.76902" lon="6.58365">
        <ele>1893</ele>
        <time>2022-07-24T08:35:47Z</time>
      </trkpt>
      <trkpt lat="45.76902" lon="6.58366">
        <ele>1893</ele>
        <time>2022-07-24T08:35:48Z</time>
      </trkpt>
      <trkpt lat="45.76903" lon="6.58367">
        <ele>1893</ele>
        <time>2022-07-24T08:35:49Z</time>
      </trkpt>
      <trkpt lat="45.76903" lon="6.58369">
        <ele>1893</ele>
        <time>2022-07-24T08:35:50Z</time>
      </trkpt>
      <trkpt lat="45.76904" lon="6.5837">
        <ele>1893</ele>
        <time>2022-07-24T08:35:51Z</time>
      </trkpt>
      <trkpt lat="45.76905" lon="6.58371">
        <ele>1893</ele>
        <time>2022-07-24T08:35:52Z</time>
      </trkpt>
      <trkpt lat="45.76905" lon="6.58372">
        <ele>1893</ele>
        <time>2022-07-24T08:35:53Z</time>
      </trkpt>
      <trkpt lat="45.76906" lon="6.58374">
        <ele>1893</ele>
        <time>2022-07-24T08:35:54Z</time>
      </trkpt>
      <trkpt lat="45.76906" lon="6.58375">
        <ele>1893</ele>
        <time>2022-07-24T08:35:55Z</time>
      </trkpt>
      <trkpt lat="45.76907" lon="6.58376">
        <ele>1893</ele>
        <time>2022-07-24T08:35:56Z</time>
      </trkpt>
      <trkpt lat="45.76908" lon="6.58377">
        <ele>1893</ele>
        <time>2022-07-24T08:35:57Z</time>
      </trkpt>
      <trkpt lat="45.76908" lon="6.58378">
        <ele>1893</ele>
        <time>2022-07-24T08:35:58Z</time>
      </trkpt>
      <trkpt lat="45.76909" lon="6.58379">
        <ele>1893</ele>
        <time>2022-07-24T08:35:59Z</time>
      </trkpt>
      <trkpt lat="45.76909" lon="6.58381">
        <ele>1893</ele>
        <time>2022-07-24T08:36:00Z</time>
      </trkpt>
      <trkpt lat="45.7691" lon="6.58382">
        <ele>1894</ele>
        <time>2022-07-24T08:36:01Z</time>
      </trkpt>
      <trkpt lat="45.7691" lon="6.58383">
        <ele>1894</ele>
        <time>2022-07-24T08:36:02Z</time>
      </trkpt>
      <trkpt lat="45.76911" lon="6.58384">
        <ele>1894</ele>
        <time>2022-07-24T08:36:03Z</time>
      </trkpt>
      <trkpt lat="45.76911" lon="6.58386">
        <ele>1894</ele>
        <time>2022-07-24T08:36:04Z</time>
      </trkpt>
      <trkpt lat="45.76912" lon="6.58387">
        <ele>1894</ele>
        <time>2022-07-24T08:36:05Z</time>
      </trkpt>
      <trkpt lat="45.76912" lon="6.58388">
        <ele>1894</ele>
        <time>2022-07-24T08:36:06Z</time>
      </trkpt>
      <trkpt lat="45.76913" lon="6.58389">
        <ele>1894</ele>
        <time>2022-07-24T08:36:07Z</time>
      </trkpt>
      <trkpt lat="45.76913" lon="6.58391">
        <ele>1894</ele>
        <time>2022-07-24T08:36:08Z</time>
      </trkpt>
      <trkpt lat="45.76914" lon="6.58392">
        <ele>1894</ele>
        <time>2022-07-24T08:36:09Z</time>
      </trkpt>
      <trkpt lat="45.76914" lon="6.58393">
        <ele>1894</ele>
        <time>2022-07-24T08:36:10Z</time>
      </trkpt>
      <trkpt lat="45.76915" lon="6.58394">
        <ele>1895</ele>
        <time>2022-07-24T08:36:11Z</time>
      </trkpt>
      <trkpt lat="45.76915" lon="6.58395">
        <ele>1895</ele>
        <time>2022-07-24T08:36:12Z</time>
      </trkpt>
      <trkpt lat="45.76916" lon="6.58396">
        <ele>1895</ele>
        <time>2022-07-24T08:36:13Z</time>
      </trkpt>
      <trkpt lat="45.76917" lon="6.58398">
        <ele>1895</ele>
        <time>2022-07-24T08:36:14Z</time>
      </trkpt>
      <trkpt lat="45.76917" lon="6.58399">
        <ele>1895</ele>
        <time>2022-07-24T08:36:15Z</time>
      </trkpt>
      <trkpt lat="45.76918" lon="6.584">
        <ele>1895</ele>
        <time>2022-07-24T08:36:16Z</time>
      </trkpt>
      <trkpt lat="45.76918" lon="6.58401">
        <ele>1895</ele>
        <time>2022-07-24T08:36:17Z</time>
      </trkpt>
      <trkpt lat="45.76919" lon="6.58402">
        <ele>1895</ele>
        <time>2022-07-24T08:36:18Z</time>
      </trkpt>
      <trkpt lat="45.76919" lon="6.58403">
        <ele>1895</ele>
        <time>2022-07-24T08:36:19Z</time>
      </trkpt>
      <trkpt lat="45.7692" lon="6.58405">
        <ele>1895</ele>
        <time>2022-07-24T08:36:20Z</time>
      </trkpt>
      <trkpt lat="45.7692" lon="6.58406">
        <ele>1896</ele>
        <time>2022-07-24T08:36:21Z</time>
      </trkpt>
      <trkpt lat="45.76921" lon="6.58407">
        <ele>1896</ele>
        <time>2022-07-24T08:36:22Z</time>
      </trkpt>
      <trkpt lat="45.76921" lon="6.58408">
        <ele>1896</ele>
        <time>2022-07-24T08:36:23Z</time>
      </trkpt>
      <trkpt lat="45.76922" lon="6.58409">
        <ele>1896</ele>
        <time>2022-07-24T08:36:24Z</time>
      </trkpt>
      <trkpt lat="45.76922" lon="6.58411">
        <ele>1896</ele>
        <time>2022-07-24T08:36:25Z</time>
      </trkpt>
      <trkpt lat="45.76923" lon="6.58412">
        <ele>1896</ele>
        <time>2022-07-24T08:36:26Z</time>
      </trkpt>
      <trkpt lat="45.76923" lon="6.58413">
        <ele>1896</ele>
        <time>2022-07-24T08:36:27Z</time>
      </trkpt>
      <trkpt lat="45.76924" lon="6.58414">
        <ele>1896</ele>
        <time>2022-07-24T08:36:28Z</time>
      </trkpt>
      <trkpt lat="45.76924" lon="6.58416">
        <ele>1896</ele>
        <time>2022-07-24T08:36:29Z</time>
      </trkpt>
      <trkpt lat="45.76925" lon="6.58417">
        <ele>1896</ele>
        <time>2022-07-24T08:36:30Z</time>
      </trkpt>
      <trkpt lat="45.76926" lon="6.58418">
        <ele>1897</ele>
        <time>2022-07-24T08:36:31Z</time>
      </trkpt>
      <trkpt lat="45.76926" lon="6.58419">
        <ele>1897</ele>
        <time>2022-07-24T08:36:32Z</time>
      </trkpt>
      <trkpt lat="45.76927" lon="6.5842">
        <ele>1897</ele>
        <time>2022-07-24T08:36:33Z</time>
      </trkpt>
      <trkpt lat="45.76927" lon="6.58422">
        <ele>1897</ele>
        <time>2022-07-24T08:36:34Z</time>
      </trkpt>
      <trkpt lat="45.76928" lon="6.58423">
        <ele>1897</ele>
        <time>2022-07-24T08:36:35Z</time>
      </trkpt>
      <trkpt lat="45.76928" lon="6.58424">
        <ele>1897</ele>
        <time>2022-07-24T08:36:36Z</time>
      </trkpt>
      <trkpt lat="45.76929" lon="6.58425">
        <ele>1897</ele>
        <time>2022-07-24T08:36:37Z</time>
      </trkpt>
      <trkpt lat="45.76929" lon="6.58426">
        <ele>1897</ele>
        <time>2022-07-24T08:36:38Z</time>
      </trkpt>
      <trkpt lat="45.7693" lon="6.58427">
        <ele>1897</ele>
        <time>2022-07-24T08:36:39Z</time>
      </trkpt>
      <trkpt lat="45.7693" lon="6.58428">
        <ele>1897</ele>
        <time>2022-07-24T08:36:40Z</time>
      </trkpt>
      <trkpt lat="45.76931" lon="6.58429">
        <ele>1898</ele>
        <time>2022-07-24T08:36:41Z</time>
      </trkpt>
      <trkpt lat="45.76931" lon="6.5843">
        <ele>1898</ele>
        <time>2022-07-24T08:36:42Z</time>
      </trkpt>
      <trkpt lat="45.76932" lon="6.58432">
        <ele>1898</ele>
        <time>2022-07-24T08:36:43Z</time>
      </trkpt>
      <trkpt lat="45.76932" lon="6.58433">
        <ele>1898</ele>
        <time>2022-07-24T08:36:44Z</time>
      </trkpt>
      <trkpt lat="45.76933" lon="6.58434">
        <ele>1898</ele>
        <time>2022-07-24T08:36:45Z</time>
      </trkpt>
      <trkpt lat="45.76933" lon="6.58435">
        <ele>1899</ele>
        <time>2022-07-24T08:36:46Z</time>
      </trkpt>
      <trkpt lat="45.76934" lon="6.58437">
        <ele>1899</ele>
        <time>2022-07-24T08:36:47Z</time>
      </trkpt>
      <trkpt lat="45.76934" lon="6.58438">
        <ele>1899</ele>
        <time>2022-07-24T08:36:48Z</time>
      </trkpt>
      <trkpt lat="45.76935" lon="6.58439">
        <ele>1899</ele>
        <time>2022-07-24T08:36:49Z</time>
      </trkpt>
      <trkpt lat="45.76935" lon="6.5844">
        <ele>1899</ele>
        <time>2022-07-24T08:36:50Z</time>
      </trkpt>
      <trkpt lat="45.76936" lon="6.58441">
        <ele>1899</ele>
        <time>2022-07-24T08:36:51Z</time>
      </trkpt>
      <trkpt lat="45.76936" lon="6.58443">
        <ele>1899</ele>
        <time>2022-07-24T08:36:52Z</time>
      </trkpt>
      <trkpt lat="45.76937" lon="6.58444">
        <ele>1899</ele>
        <time>2022-07-24T08:36:53Z</time>
      </trkpt>
      <trkpt lat="45.76938" lon="6.58445">
        <ele>1899</ele>
        <time>2022-07-24T08:36:54Z</time>
      </trkpt>
      <trkpt lat="45.76938" lon="6.58446">
        <ele>1899</ele>
        <time>2022-07-24T08:36:55Z</time>
      </trkpt>
      <trkpt lat="45.76939" lon="6.58447">
        <ele>1899</ele>
        <time>2022-07-24T08:36:56Z</time>
      </trkpt>
      <trkpt lat="45.76939" lon="6.58448">
        <ele>1899</ele>
        <time>2022-07-24T08:36:57Z</time>
      </trkpt>
      <trkpt lat="45.7694" lon="6.58449">
        <ele>1899</ele>
        <time>2022-07-24T08:36:58Z</time>
      </trkpt>
      <trkpt lat="45.7694" lon="6.5845">
        <ele>1899</ele>
        <time>2022-07-24T08:36:59Z</time>
      </trkpt>
      <trkpt lat="45.76941" lon="6.5845">
        <ele>1900</ele>
        <time>2022-07-24T08:37:36Z</time>
      </trkpt>
      <trkpt lat="45.76941" lon="6.58451">
        <ele>1900</ele>
        <time>2022-07-24T08:37:37Z</time>
      </trkpt>
      <trkpt lat="45.76942" lon="6.58451">
        <ele>1900</ele>
        <time>2022-07-24T08:37:38Z</time>
      </trkpt>
      <trkpt lat="45.76942" lon="6.58451">
        <ele>1900</ele>
        <time>2022-07-24T08:37:39Z</time>
      </trkpt>
      <trkpt lat="45.76943" lon="6.58451">
        <ele>1900</ele>
        <time>2022-07-24T08:37:40Z</time>
      </trkpt>
      <trkpt lat="45.76943" lon="6.58452">
        <ele>1900</ele>
        <time>2022-07-24T08:37:41Z</time>
      </trkpt>
      <trkpt lat="45.76944" lon="6.58452">
        <ele>1900</ele>
        <time>2022-07-24T08:37:42Z</time>
      </trkpt>
      <trkpt lat="45.76944" lon="6.58453">
        <ele>1900</ele>
        <time>2022-07-24T08:37:43Z</time>
      </trkpt>
      <trkpt lat="45.76944" lon="6.58453">
        <ele>1900</ele>
        <time>2022-07-24T08:37:44Z</time>
      </trkpt>
      <trkpt lat="45.76945" lon="6.58454">
        <ele>1900</ele>
        <time>2022-07-24T08:37:45Z</time>
      </trkpt>
      <trkpt lat="45.76945" lon="6.58455">
        <ele>1900</ele>
        <time>2022-07-24T08:37:46Z</time>
      </trkpt>
      <trkpt lat="45.76945" lon="6.58456">
        <ele>1900</ele>
        <time>2022-07-24T08:37:47Z</time>
      </trkpt>
      <trkpt lat="45.76945" lon="6.58457">
        <ele>1900</ele>
        <time>2022-07-24T08:37:48Z</time>
      </trkpt>
      <trkpt lat="45.76946" lon="6.58459">
        <ele>1900</ele>
        <time>2022-07-24T08:37:49Z</time>
      </trkpt>
      <trkpt lat="45.76946" lon="6.5846">
        <ele>1900</ele>
        <time>2022-07-24T08:37:50Z</time>
      </trkpt>
      <trkpt lat="45.76947" lon="6.58461">
        <ele>1900</ele>
        <time>2022-07-24T08:37:51Z</time>
      </trkpt>
      <trkpt lat="45.76947" lon="6.58462">
        <ele>1900</ele>
        <time>2022-07-24T08:37:52Z</time>
      </trkpt>
      <trkpt lat="45.76947" lon="6.58464">
        <ele>1900</ele>
        <time>2022-07-24T08:37:53Z</time>
      </trkpt>
      <trkpt lat="45.76948" lon="6.58465">
        <ele>1900</ele>
        <time>2022-07-24T08:37:54Z</time>
      </trkpt>
      <trkpt lat="45.76948" lon="6.58466">
        <ele>1900</ele>
        <time>2022-07-24T08:37:55Z</time>
      </trkpt>
      <trkpt lat="45.76948" lon="6.58467">
        <ele>1900</ele>
        <time>2022-07-24T08:37:56Z</time>
      </trkpt>
      <trkpt lat="45.76949" lon="6.58469">
        <ele>1900</ele>
        <time>2022-07-24T08:37:57Z</time>
      </trkpt>
      <trkpt lat="45.76949" lon="6.5847">
        <ele>1900</ele>
        <time>2022-07-24T08:37:58Z</time>
      </trkpt>
      <trkpt lat="45.7695" lon="6.58471">
        <ele>1900</ele>
        <time>2022-07-24T08:37:59Z</time>
      </trkpt>
      <trkpt lat="45.7695" lon="6.58472">
        <ele>1900</ele>
        <time>2022-07-24T08:38:00Z</time>
      </trkpt>
      <trkpt lat="45.76951" lon="6.58473">
        <ele>1901</ele>
        <time>2022-07-24T08:38:01Z</time>
      </trkpt>
      <trkpt lat="45.76951" lon="6.58474">
        <ele>1901</ele>
        <time>2022-07-24T08:38:02Z</time>
      </trkpt>
      <trkpt lat="45.76952" lon="6.58475">
        <ele>1901</ele>
        <time>2022-07-24T08:38:03Z</time>
      </trkpt>
      <trkpt lat="45.76952" lon="6.58477">
        <ele>1901</ele>
        <time>2022-07-24T08:38:04Z</time>
      </trkpt>
      <trkpt lat="45.76952" lon="6.58478">
        <ele>1901</ele>
        <time>2022-07-24T08:38:05Z</time>
      </trkpt>
      <trkpt lat="45.76953" lon="6.58479">
        <ele>1902</ele>
        <time>2022-07-24T08:38:06Z</time>
      </trkpt>
      <trkpt lat="45.76953" lon="6.5848">
        <ele>1902</ele>
        <time>2022-07-24T08:38:07Z</time>
      </trkpt>
      <trkpt lat="45.76954" lon="6.58482">
        <ele>1902</ele>
        <time>2022-07-24T08:38:08Z</time>
      </trkpt>
      <trkpt lat="45.76954" lon="6.58483">
        <ele>1902</ele>
        <time>2022-07-24T08:38:09Z</time>
      </trkpt>
      <trkpt lat="45.76955" lon="6.58484">
        <ele>1902</ele>
        <time>2022-07-24T08:38:10Z</time>
      </trkpt>
      <trkpt lat="45.76955" lon="6.58485">
        <ele>1902</ele>
        <time>2022-07-24T08:38:11Z</time>
      </trkpt>
      <trkpt lat="45.76956" lon="6.58486">
        <ele>1902</ele>
        <time>2022-07-24T08:38:12Z</time>
      </trkpt>
      <trkpt lat="45.76956" lon="6.58487">
        <ele>1902</ele>
        <time>2022-07-24T08:38:13Z</time>
      </trkpt>
      <trkpt lat="45.76957" lon="6.58488">
        <ele>1902</ele>
        <time>2022-07-24T08:38:14Z</time>
      </trkpt>
      <trkpt lat="45.76957" lon="6.58489">
        <ele>1902</ele>
        <time>2022-07-24T08:38:15Z</time>
      </trkpt>
      <trkpt lat="45.76958" lon="6.58491">
        <ele>1902</ele>
        <time>2022-07-24T08:38:16Z</time>
      </trkpt>
      <trkpt lat="45.76958" lon="6.58492">
        <ele>1902</ele>
        <time>2022-07-24T08:38:17Z</time>
      </trkpt>
      <trkpt lat="45.76959" lon="6.58493">
        <ele>1902</ele>
        <time>2022-07-24T08:38:18Z</time>
      </trkpt>
      <trkpt lat="45.76959" lon="6.58495">
        <ele>1902</ele>
        <time>2022-07-24T08:38:19Z</time>
      </trkpt>
      <trkpt lat="45.7696" lon="6.58496">
        <ele>1902</ele>
        <time>2022-07-24T08:38:20Z</time>
      </trkpt>
      <trkpt lat="45.7696" lon="6.58497">
        <ele>1903</ele>
        <time>2022-07-24T08:38:21Z</time>
      </trkpt>
      <trkpt lat="45.76961" lon="6.58498">
        <ele>1903</ele>
        <time>2022-07-24T08:38:22Z</time>
      </trkpt>
      <trkpt lat="45.76961" lon="6.585">
        <ele>1903</ele>
        <time>2022-07-24T08:38:23Z</time>
      </trkpt>
      <trkpt lat="45.76962" lon="6.58501">
        <ele>1903</ele>
        <time>2022-07-24T08:38:24Z</time>
      </trkpt>
      <trkpt lat="45.76962" lon="6.58502">
        <ele>1903</ele>
        <time>2022-07-24T08:38:25Z</time>
      </trkpt>
      <trkpt lat="45.76963" lon="6.58503">
        <ele>1903</ele>
        <time>2022-07-24T08:38:26Z</time>
      </trkpt>
      <trkpt lat="45.76963" lon="6.58504">
        <ele>1903</ele>
        <time>2022-07-24T08:38:27Z</time>
      </trkpt>
      <trkpt lat="45.76964" lon="6.58506">
        <ele>1903</ele>
        <time>2022-07-24T08:38:28Z</time>
      </trkpt>
      <trkpt lat="45.76964" lon="6.58507">
        <ele>1903</ele>
        <time>2022-07-24T08:38:29Z</time>
      </trkpt>
      <trkpt lat="45.76965" lon="6.58508">
        <ele>1903</ele>
        <time>2022-07-24T08:38:30Z</time>
      </trkpt>
      <trkpt lat="45.76966" lon="6.58509">
        <ele>1903</ele>
        <time>2022-07-24T08:38:31Z</time>
      </trkpt>
      <trkpt lat="45.76966" lon="6.58511">
        <ele>1903</ele>
        <time>2022-07-24T08:38:32Z</time>
      </trkpt>
      <trkpt lat="45.76967" lon="6.58512">
        <ele>1903</ele>
        <time>2022-07-24T08:38:33Z</time>
      </trkpt>
      <trkpt lat="45.76967" lon="6.58513">
        <ele>1903</ele>
        <time>2022-07-24T08:38:34Z</time>
      </trkpt>
      <trkpt lat="45.76968" lon="6.58514">
        <ele>1903</ele>
        <time>2022-07-24T08:38:35Z</time>
      </trkpt>
      <trkpt lat="45.76968" lon="6.58516">
        <ele>1904</ele>
        <time>2022-07-24T08:38:36Z</time>
      </trkpt>
      <trkpt lat="45.76969" lon="6.58517">
        <ele>1904</ele>
        <time>2022-07-24T08:38:37Z</time>
      </trkpt>
      <trkpt lat="45.76969" lon="6.58518">
        <ele>1904</ele>
        <time>2022-07-24T08:38:38Z</time>
      </trkpt>
      <trkpt lat="45.76969" lon="6.58519">
        <ele>1904</ele>
        <time>2022-07-24T08:38:39Z</time>
      </trkpt>
      <trkpt lat="45.7697" lon="6.5852">
        <ele>1904</ele>
        <time>2022-07-24T08:38:40Z</time>
      </trkpt>
      <trkpt lat="45.7697" lon="6.58521">
        <ele>1904</ele>
        <time>2022-07-24T08:38:41Z</time>
      </trkpt>
      <trkpt lat="45.76971" lon="6.58523">
        <ele>1904</ele>
        <time>2022-07-24T08:38:42Z</time>
      </trkpt>
      <trkpt lat="45.76971" lon="6.58524">
        <ele>1904</ele>
        <time>2022-07-24T08:38:43Z</time>
      </trkpt>
      <trkpt lat="45.76971" lon="6.58525">
        <ele>1904</ele>
        <time>2022-07-24T08:38:44Z</time>
      </trkpt>
      <trkpt lat="45.76972" lon="6.58526">
        <ele>1904</ele>
        <time>2022-07-24T08:38:45Z</time>
      </trkpt>
      <trkpt lat="45.76972" lon="6.58527">
        <ele>1904</ele>
        <time>2022-07-24T08:38:46Z</time>
      </trkpt>
      <trkpt lat="45.76973" lon="6.58528">
        <ele>1904</ele>
        <time>2022-07-24T08:38:47Z</time>
      </trkpt>
      <trkpt lat="45.76973" lon="6.58529">
        <ele>1904</ele>
        <time>2022-07-24T08:38:48Z</time>
      </trkpt>
      <trkpt lat="45.76974" lon="6.5853">
        <ele>1904</ele>
        <time>2022-07-24T08:38:49Z</time>
      </trkpt>
      <trkpt lat="45.76974" lon="6.58531">
        <ele>1904</ele>
        <time>2022-07-24T08:38:50Z</time>
      </trkpt>
      <trkpt lat="45.76975" lon="6.58532">
        <ele>1905</ele>
        <time>2022-07-24T08:38:51Z</time>
      </trkpt>
      <trkpt lat="45.76976" lon="6.58533">
        <ele>1905</ele>
        <time>2022-07-24T08:38:52Z</time>
      </trkpt>
      <trkpt lat="45.76976" lon="6.58534">
        <ele>1905</ele>
        <time>2022-07-24T08:38:53Z</time>
      </trkpt>
      <trkpt lat="45.76977" lon="6.58535">
        <ele>1905</ele>
        <time>2022-07-24T08:38:54Z</time>
      </trkpt>
      <trkpt lat="45.76977" lon="6.58536">
        <ele>1905</ele>
        <time>2022-07-24T08:38:55Z</time>
      </trkpt>
      <trkpt lat="45.76978" lon="6.58537">
        <ele>1905</ele>
        <time>2022-07-24T08:38:56Z</time>
      </trkpt>
      <trkpt lat="45.76978" lon="6.58539">
        <ele>1905</ele>
        <time>2022-07-24T08:38:57Z</time>
      </trkpt>
      <trkpt lat="45.76979" lon="6.5854">
        <ele>1905</ele>
        <time>2022-07-24T08:38:58Z</time>
      </trkpt>
      <trkpt lat="45.76979" lon="6.58541">
        <ele>1905</ele>
        <time>2022-07-24T08:38:59Z</time>
      </trkpt>
      <trkpt lat="45.7698" lon="6.58542">
        <ele>1905</ele>
        <time>2022-07-24T08:39:00Z</time>
      </trkpt>
      <trkpt lat="45.7698" lon="6.58543">
        <ele>1905</ele>
        <time>2022-07-24T08:39:01Z</time>
      </trkpt>
      <trkpt lat="45.76981" lon="6.58544">
        <ele>1905</ele>
        <time>2022-07-24T08:39:02Z</time>
      </trkpt>
      <trkpt lat="45.76981" lon="6.58545">
        <ele>1905</ele>
        <time>2022-07-24T08:39:03Z</time>
      </trkpt>
      <trkpt lat="45.76981" lon="6.58546">
        <ele>1905</ele>
        <time>2022-07-24T08:39:04Z</time>
      </trkpt>
      <trkpt lat="45.76982" lon="6.58547">
        <ele>1905</ele>
        <time>2022-07-24T08:39:05Z</time>
      </trkpt>
      <trkpt lat="45.76982" lon="6.58548">
        <ele>1906</ele>
        <time>2022-07-24T08:39:06Z</time>
      </trkpt>
      <trkpt lat="45.76983" lon="6.58549">
        <ele>1906</ele>
        <time>2022-07-24T08:39:07Z</time>
      </trkpt>
      <trkpt lat="45.76984" lon="6.5855">
        <ele>1906</ele>
        <time>2022-07-24T08:39:08Z</time>
      </trkpt>
      <trkpt lat="45.76984" lon="6.58551">
        <ele>1906</ele>
        <time>2022-07-24T08:39:09Z</time>
      </trkpt>
      <trkpt lat="45.76985" lon="6.58552">
        <ele>1906</ele>
        <time>2022-07-24T08:39:10Z</time>
      </trkpt>
      <trkpt lat="45.76985" lon="6.58553">
        <ele>1906</ele>
        <time>2022-07-24T08:39:11Z</time>
      </trkpt>
      <trkpt lat="45.76986" lon="6.58554">
        <ele>1906</ele>
        <time>2022-07-24T08:39:12Z</time>
      </trkpt>
      <trkpt lat="45.76986" lon="6.58555">
        <ele>1906</ele>
        <time>2022-07-24T08:39:13Z</time>
      </trkpt>
      <trkpt lat="45.76987" lon="6.58556">
        <ele>1906</ele>
        <time>2022-07-24T08:39:14Z</time>
      </trkpt>
      <trkpt lat="45.76987" lon="6.58558">
        <ele>1906</ele>
        <time>2022-07-24T08:39:15Z</time>
      </trkpt>
      <trkpt lat="45.76988" lon="6.58559">
        <ele>1907</ele>
        <time>2022-07-24T08:39:16Z</time>
      </trkpt>
      <trkpt lat="45.76989" lon="6.58561">
        <ele>1907</ele>
        <time>2022-07-24T08:39:22Z</time>
      </trkpt>
      <trkpt lat="45.76989" lon="6.58563">
        <ele>1907</ele>
        <time>2022-07-24T08:39:23Z</time>
      </trkpt>
      <trkpt lat="45.76989" lon="6.58564">
        <ele>1907</ele>
        <time>2022-07-24T08:39:24Z</time>
      </trkpt>
      <trkpt lat="45.7699" lon="6.58565">
        <ele>1907</ele>
        <time>2022-07-24T08:39:25Z</time>
      </trkpt>
      <trkpt lat="45.7699" lon="6.58566">
        <ele>1907</ele>
        <time>2022-07-24T08:39:26Z</time>
      </trkpt>
      <trkpt lat="45.7699" lon="6.58567">
        <ele>1907</ele>
        <time>2022-07-24T08:39:27Z</time>
      </trkpt>
      <trkpt lat="45.76991" lon="6.58568">
        <ele>1907</ele>
        <time>2022-07-24T08:39:28Z</time>
      </trkpt>
      <trkpt lat="45.76992" lon="6.58569">
        <ele>1907</ele>
        <time>2022-07-24T08:39:29Z</time>
      </trkpt>
      <trkpt lat="45.76992" lon="6.5857">
        <ele>1907</ele>
        <time>2022-07-24T08:39:30Z</time>
      </trkpt>
      <trkpt lat="45.76993" lon="6.58571">
        <ele>1908</ele>
        <time>2022-07-24T08:39:31Z</time>
      </trkpt>
      <trkpt lat="45.76994" lon="6.58572">
        <ele>1908</ele>
        <time>2022-07-24T08:39:32Z</time>
      </trkpt>
      <trkpt lat="45.76994" lon="6.58573">
        <ele>1908</ele>
        <time>2022-07-24T08:39:33Z</time>
      </trkpt>
      <trkpt lat="45.76995" lon="6.58574">
        <ele>1908</ele>
        <time>2022-07-24T08:39:34Z</time>
      </trkpt>
      <trkpt lat="45.76996" lon="6.58576">
        <ele>1908</ele>
        <time>2022-07-24T08:39:35Z</time>
      </trkpt>
      <trkpt lat="45.76997" lon="6.58577">
        <ele>1908</ele>
        <time>2022-07-24T08:39:36Z</time>
      </trkpt>
      <trkpt lat="45.76997" lon="6.58578">
        <ele>1908</ele>
        <time>2022-07-24T08:39:37Z</time>
      </trkpt>
      <trkpt lat="45.76998" lon="6.58579">
        <ele>1908</ele>
        <time>2022-07-24T08:39:38Z</time>
      </trkpt>
      <trkpt lat="45.76999" lon="6.5858">
        <ele>1908</ele>
        <time>2022-07-24T08:39:39Z</time>
      </trkpt>
      <trkpt lat="45.76999" lon="6.58581">
        <ele>1908</ele>
        <time>2022-07-24T08:39:40Z</time>
      </trkpt>
      <trkpt lat="45.77" lon="6.58583">
        <ele>1908</ele>
        <time>2022-07-24T08:39:41Z</time>
      </trkpt>
      <trkpt lat="45.77001" lon="6.58584">
        <ele>1908</ele>
        <time>2022-07-24T08:39:42Z</time>
      </trkpt>
      <trkpt lat="45.77001" lon="6.58585">
        <ele>1908</ele>
        <time>2022-07-24T08:39:43Z</time>
      </trkpt>
      <trkpt lat="45.77002" lon="6.58586">
        <ele>1908</ele>
        <time>2022-07-24T08:39:44Z</time>
      </trkpt>
      <trkpt lat="45.77003" lon="6.58587">
        <ele>1908</ele>
        <time>2022-07-24T08:39:45Z</time>
      </trkpt>
      <trkpt lat="45.77003" lon="6.58588">
        <ele>1909</ele>
        <time>2022-07-24T08:39:46Z</time>
      </trkpt>
      <trkpt lat="45.77004" lon="6.5859">
        <ele>1909</ele>
        <time>2022-07-24T08:39:47Z</time>
      </trkpt>
      <trkpt lat="45.77004" lon="6.58591">
        <ele>1909</ele>
        <time>2022-07-24T08:39:48Z</time>
      </trkpt>
      <trkpt lat="45.77005" lon="6.58592">
        <ele>1909</ele>
        <time>2022-07-24T08:39:49Z</time>
      </trkpt>
      <trkpt lat="45.77006" lon="6.58593">
        <ele>1909</ele>
        <time>2022-07-24T08:39:50Z</time>
      </trkpt>
      <trkpt lat="45.77006" lon="6.58594">
        <ele>1909</ele>
        <time>2022-07-24T08:39:51Z</time>
      </trkpt>
      <trkpt lat="45.77007" lon="6.58595">
        <ele>1909</ele>
        <time>2022-07-24T08:39:52Z</time>
      </trkpt>
      <trkpt lat="45.77008" lon="6.58596">
        <ele>1909</ele>
        <time>2022-07-24T08:39:53Z</time>
      </trkpt>
      <trkpt lat="45.77008" lon="6.58597">
        <ele>1909</ele>
        <time>2022-07-24T08:39:54Z</time>
      </trkpt>
      <trkpt lat="45.77009" lon="6.58597">
        <ele>1909</ele>
        <time>2022-07-24T08:39:55Z</time>
      </trkpt>
      <trkpt lat="45.7701" lon="6.58598">
        <ele>1910</ele>
        <time>2022-07-24T08:39:56Z</time>
      </trkpt>
      <trkpt lat="45.7701" lon="6.58599">
        <ele>1910</ele>
        <time>2022-07-24T08:39:57Z</time>
      </trkpt>
      <trkpt lat="45.77011" lon="6.586">
        <ele>1910</ele>
        <time>2022-07-24T08:39:58Z</time>
      </trkpt>
      <trkpt lat="45.77011" lon="6.586">
        <ele>1910</ele>
        <time>2022-07-24T08:39:59Z</time>
      </trkpt>
      <trkpt lat="45.77011" lon="6.586">
        <ele>1910</ele>
        <time>2022-07-24T08:40:00Z</time>
      </trkpt>
      <trkpt lat="45.77011" lon="6.58601">
        <ele>1911</ele>
        <time>2022-07-24T08:40:01Z</time>
      </trkpt>
      <trkpt lat="45.77012" lon="6.58602">
        <ele>1911</ele>
        <time>2022-07-24T08:40:02Z</time>
      </trkpt>
      <trkpt lat="45.77012" lon="6.58602">
        <ele>1911</ele>
        <time>2022-07-24T08:40:03Z</time>
      </trkpt>
      <trkpt lat="45.77012" lon="6.58603">
        <ele>1911</ele>
        <time>2022-07-24T08:40:04Z</time>
      </trkpt>
      <trkpt lat="45.77013" lon="6.58604">
        <ele>1911</ele>
        <time>2022-07-24T08:40:05Z</time>
      </trkpt>
      <trkpt lat="45.77013" lon="6.58605">
        <ele>1911</ele>
        <time>2022-07-24T08:40:06Z</time>
      </trkpt>
      <trkpt lat="45.77014" lon="6.58606">
        <ele>1911</ele>
        <time>2022-07-24T08:40:07Z</time>
      </trkpt>
      <trkpt lat="45.77014" lon="6.58607">
        <ele>1911</ele>
        <time>2022-07-24T08:40:08Z</time>
      </trkpt>
      <trkpt lat="45.77015" lon="6.58608">
        <ele>1911</ele>
        <time>2022-07-24T08:40:09Z</time>
      </trkpt>
      <trkpt lat="45.77015" lon="6.58609">
        <ele>1911</ele>
        <time>2022-07-24T08:40:10Z</time>
      </trkpt>
      <trkpt lat="45.77016" lon="6.5861">
        <ele>1911</ele>
        <time>2022-07-24T08:40:11Z</time>
      </trkpt>
      <trkpt lat="45.77017" lon="6.58611">
        <ele>1911</ele>
        <time>2022-07-24T08:40:12Z</time>
      </trkpt>
      <trkpt lat="45.77017" lon="6.58611">
        <ele>1911</ele>
        <time>2022-07-24T08:40:13Z</time>
      </trkpt>
      <trkpt lat="45.77018" lon="6.58612">
        <ele>1911</ele>
        <time>2022-07-24T08:40:14Z</time>
      </trkpt>
      <trkpt lat="45.77018" lon="6.58613">
        <ele>1911</ele>
        <time>2022-07-24T08:40:15Z</time>
      </trkpt>
      <trkpt lat="45.77019" lon="6.58614">
        <ele>1912</ele>
        <time>2022-07-24T08:40:16Z</time>
      </trkpt>
      <trkpt lat="45.77019" lon="6.58615">
        <ele>1912</ele>
        <time>2022-07-24T08:40:17Z</time>
      </trkpt>
      <trkpt lat="45.7702" lon="6.58616">
        <ele>1912</ele>
        <time>2022-07-24T08:40:18Z</time>
      </trkpt>
      <trkpt lat="45.7702" lon="6.58617">
        <ele>1912</ele>
        <time>2022-07-24T08:40:19Z</time>
      </trkpt>
      <trkpt lat="45.77021" lon="6.58618">
        <ele>1912</ele>
        <time>2022-07-24T08:40:20Z</time>
      </trkpt>
      <trkpt lat="45.77022" lon="6.58619">
        <ele>1912</ele>
        <time>2022-07-24T08:40:21Z</time>
      </trkpt>
      <trkpt lat="45.77022" lon="6.5862">
        <ele>1912</ele>
        <time>2022-07-24T08:40:22Z</time>
      </trkpt>
      <trkpt lat="45.77023" lon="6.58621">
        <ele>1912</ele>
        <time>2022-07-24T08:40:23Z</time>
      </trkpt>
      <trkpt lat="45.77023" lon="6.58621">
        <ele>1913</ele>
        <time>2022-07-24T08:40:24Z</time>
      </trkpt>
      <trkpt lat="45.77024" lon="6.58622">
        <ele>1913</ele>
        <time>2022-07-24T08:40:25Z</time>
      </trkpt>
      <trkpt lat="45.77024" lon="6.58623">
        <ele>1914</ele>
        <time>2022-07-24T08:40:26Z</time>
      </trkpt>
      <trkpt lat="45.77025" lon="6.58624">
        <ele>1914</ele>
        <time>2022-07-24T08:40:27Z</time>
      </trkpt>
      <trkpt lat="45.77025" lon="6.58625">
        <ele>1914</ele>
        <time>2022-07-24T08:40:28Z</time>
      </trkpt>
      <trkpt lat="45.77026" lon="6.58625">
        <ele>1914</ele>
        <time>2022-07-24T08:40:29Z</time>
      </trkpt>
      <trkpt lat="45.77026" lon="6.58627">
        <ele>1914</ele>
        <time>2022-07-24T08:40:30Z</time>
      </trkpt>
      <trkpt lat="45.77027" lon="6.58628">
        <ele>1914</ele>
        <time>2022-07-24T08:40:31Z</time>
      </trkpt>
      <trkpt lat="45.77027" lon="6.58629">
        <ele>1914</ele>
        <time>2022-07-24T08:40:32Z</time>
      </trkpt>
      <trkpt lat="45.77028" lon="6.5863">
        <ele>1914</ele>
        <time>2022-07-24T08:40:33Z</time>
      </trkpt>
      <trkpt lat="45.77028" lon="6.58631">
        <ele>1914</ele>
        <time>2022-07-24T08:40:34Z</time>
      </trkpt>
      <trkpt lat="45.77029" lon="6.58632">
        <ele>1914</ele>
        <time>2022-07-24T08:40:35Z</time>
      </trkpt>
      <trkpt lat="45.77029" lon="6.58633">
        <ele>1915</ele>
        <time>2022-07-24T08:40:36Z</time>
      </trkpt>
      <trkpt lat="45.7703" lon="6.58634">
        <ele>1915</ele>
        <time>2022-07-24T08:40:37Z</time>
      </trkpt>
      <trkpt lat="45.7703" lon="6.58635">
        <ele>1915</ele>
        <time>2022-07-24T08:40:38Z</time>
      </trkpt>
      <trkpt lat="45.7703" lon="6.58636">
        <ele>1915</ele>
        <time>2022-07-24T08:40:39Z</time>
      </trkpt>
      <trkpt lat="45.77031" lon="6.58637">
        <ele>1915</ele>
        <time>2022-07-24T08:40:40Z</time>
      </trkpt>
      <trkpt lat="45.77031" lon="6.58638">
        <ele>1915</ele>
        <time>2022-07-24T08:40:41Z</time>
      </trkpt>
      <trkpt lat="45.77032" lon="6.58639">
        <ele>1915</ele>
        <time>2022-07-24T08:40:42Z</time>
      </trkpt>
      <trkpt lat="45.77032" lon="6.58641">
        <ele>1915</ele>
        <time>2022-07-24T08:40:43Z</time>
      </trkpt>
      <trkpt lat="45.77033" lon="6.58642">
        <ele>1915</ele>
        <time>2022-07-24T08:40:44Z</time>
      </trkpt>
      <trkpt lat="45.77033" lon="6.58643">
        <ele>1915</ele>
        <time>2022-07-24T08:40:45Z</time>
      </trkpt>
      <trkpt lat="45.77033" lon="6.58645">
        <ele>1915</ele>
        <time>2022-07-24T08:40:46Z</time>
      </trkpt>
      <trkpt lat="45.77033" lon="6.58646">
        <ele>1915</ele>
        <time>2022-07-24T08:40:47Z</time>
      </trkpt>
      <trkpt lat="45.77033" lon="6.58649">
        <ele>1916</ele>
        <time>2022-07-24T08:42:59Z</time>
      </trkpt>
      <trkpt lat="45.77032" lon="6.58649">
        <ele>1916</ele>
        <time>2022-07-24T08:43:00Z</time>
      </trkpt>
      <trkpt lat="45.77032" lon="6.5865">
        <ele>1916</ele>
        <time>2022-07-24T08:43:01Z</time>
      </trkpt>
      <trkpt lat="45.77033" lon="6.5865">
        <ele>1916</ele>
        <time>2022-07-24T08:43:02Z</time>
      </trkpt>
      <trkpt lat="45.77033" lon="6.5865">
        <ele>1916</ele>
        <time>2022-07-24T08:43:03Z</time>
      </trkpt>
      <trkpt lat="45.77034" lon="6.5865">
        <ele>1916</ele>
        <time>2022-07-24T08:43:04Z</time>
      </trkpt>
      <trkpt lat="45.77035" lon="6.5865">
        <ele>1916</ele>
        <time>2022-07-24T08:43:05Z</time>
      </trkpt>
      <trkpt lat="45.77036" lon="6.58651">
        <ele>1916</ele>
        <time>2022-07-24T08:43:06Z</time>
      </trkpt>
      <trkpt lat="45.77037" lon="6.58652">
        <ele>1916</ele>
        <time>2022-07-24T08:43:07Z</time>
      </trkpt>
      <trkpt lat="45.77038" lon="6.58654">
        <ele>1916</ele>
        <time>2022-07-24T08:43:14Z</time>
      </trkpt>
      <trkpt lat="45.77039" lon="6.58656">
        <ele>1916</ele>
        <time>2022-07-24T08:43:15Z</time>
      </trkpt>
      <trkpt lat="45.77039" lon="6.58657">
        <ele>1916</ele>
        <time>2022-07-24T08:43:16Z</time>
      </trkpt>
      <trkpt lat="45.7704" lon="6.58658">
        <ele>1916</ele>
        <time>2022-07-24T08:43:17Z</time>
      </trkpt>
      <trkpt lat="45.7704" lon="6.58659">
        <ele>1916</ele>
        <time>2022-07-24T08:43:18Z</time>
      </trkpt>
      <trkpt lat="45.77041" lon="6.58661">
        <ele>1916</ele>
        <time>2022-07-24T08:43:19Z</time>
      </trkpt>
      <trkpt lat="45.77041" lon="6.58662">
        <ele>1916</ele>
        <time>2022-07-24T08:43:20Z</time>
      </trkpt>
      <trkpt lat="45.77042" lon="6.58664">
        <ele>1917</ele>
        <time>2022-07-24T08:43:21Z</time>
      </trkpt>
      <trkpt lat="45.77043" lon="6.58665">
        <ele>1917</ele>
        <time>2022-07-24T08:43:22Z</time>
      </trkpt>
      <trkpt lat="45.77044" lon="6.58667">
        <ele>1917</ele>
        <time>2022-07-24T08:43:23Z</time>
      </trkpt>
      <trkpt lat="45.77045" lon="6.58668">
        <ele>1917</ele>
        <time>2022-07-24T08:43:24Z</time>
      </trkpt>
      <trkpt lat="45.77046" lon="6.5867">
        <ele>1917</ele>
        <time>2022-07-24T08:43:25Z</time>
      </trkpt>
      <trkpt lat="45.77046" lon="6.58671">
        <ele>1918</ele>
        <time>2022-07-24T08:43:26Z</time>
      </trkpt>
      <trkpt lat="45.77047" lon="6.58673">
        <ele>1918</ele>
        <time>2022-07-24T08:43:27Z</time>
      </trkpt>
      <trkpt lat="45.77047" lon="6.58674">
        <ele>1918</ele>
        <time>2022-07-24T08:43:28Z</time>
      </trkpt>
      <trkpt lat="45.77048" lon="6.58676">
        <ele>1918</ele>
        <time>2022-07-24T08:43:29Z</time>
      </trkpt>
      <trkpt lat="45.77048" lon="6.58677">
        <ele>1918</ele>
        <time>2022-07-24T08:43:30Z</time>
      </trkpt>
      <trkpt lat="45.77049" lon="6.58679">
        <ele>1918</ele>
        <time>2022-07-24T08:43:31Z</time>
      </trkpt>
      <trkpt lat="45.7705" lon="6.5868">
        <ele>1918</ele>
        <time>2022-07-24T08:43:32Z</time>
      </trkpt>
      <trkpt lat="45.7705" lon="6.58682">
        <ele>1918</ele>
        <time>2022-07-24T08:43:33Z</time>
      </trkpt>
      <trkpt lat="45.77051" lon="6.58684">
        <ele>1918</ele>
        <time>2022-07-24T08:43:34Z</time>
      </trkpt>
      <trkpt lat="45.77051" lon="6.58685">
        <ele>1918</ele>
        <time>2022-07-24T08:43:35Z</time>
      </trkpt>
      <trkpt lat="45.77052" lon="6.58687">
        <ele>1919</ele>
        <time>2022-07-24T08:43:36Z</time>
      </trkpt>
      <trkpt lat="45.77052" lon="6.58689">
        <ele>1919</ele>
        <time>2022-07-24T08:43:37Z</time>
      </trkpt>
      <trkpt lat="45.77053" lon="6.58691">
        <ele>1919</ele>
        <time>2022-07-24T08:43:38Z</time>
      </trkpt>
      <trkpt lat="45.77054" lon="6.58692">
        <ele>1919</ele>
        <time>2022-07-24T08:43:39Z</time>
      </trkpt>
      <trkpt lat="45.77054" lon="6.58694">
        <ele>1919</ele>
        <time>2022-07-24T08:43:40Z</time>
      </trkpt>
      <trkpt lat="45.77055" lon="6.58696">
        <ele>1920</ele>
        <time>2022-07-24T08:43:41Z</time>
      </trkpt>
      <trkpt lat="45.77056" lon="6.58698">
        <ele>1920</ele>
        <time>2022-07-24T08:43:42Z</time>
      </trkpt>
      <trkpt lat="45.77056" lon="6.587">
        <ele>1920</ele>
        <time>2022-07-24T08:43:43Z</time>
      </trkpt>
      <trkpt lat="45.77057" lon="6.58702">
        <ele>1920</ele>
        <time>2022-07-24T08:43:44Z</time>
      </trkpt>
      <trkpt lat="45.77057" lon="6.58703">
        <ele>1920</ele>
        <time>2022-07-24T08:43:45Z</time>
      </trkpt>
      <trkpt lat="45.77057" lon="6.58704">
        <ele>1920</ele>
        <time>2022-07-24T08:43:46Z</time>
      </trkpt>
      <trkpt lat="45.77057" lon="6.58704">
        <ele>1920</ele>
        <time>2022-07-24T08:43:47Z</time>
      </trkpt>
      <trkpt lat="45.77058" lon="6.58706">
        <ele>1920</ele>
        <time>2022-07-24T08:43:48Z</time>
      </trkpt>
      <trkpt lat="45.77058" lon="6.58707">
        <ele>1920</ele>
        <time>2022-07-24T08:43:49Z</time>
      </trkpt>
      <trkpt lat="45.77058" lon="6.58708">
        <ele>1920</ele>
        <time>2022-07-24T08:43:50Z</time>
      </trkpt>
      <trkpt lat="45.77058" lon="6.58709">
        <ele>1921</ele>
        <time>2022-07-24T08:43:51Z</time>
      </trkpt>
      <trkpt lat="45.77059" lon="6.5871">
        <ele>1921</ele>
        <time>2022-07-24T08:43:52Z</time>
      </trkpt>
      <trkpt lat="45.77059" lon="6.58711">
        <ele>1921</ele>
        <time>2022-07-24T08:43:53Z</time>
      </trkpt>
      <trkpt lat="45.77059" lon="6.58712">
        <ele>1921</ele>
        <time>2022-07-24T08:43:54Z</time>
      </trkpt>
      <trkpt lat="45.7706" lon="6.58713">
        <ele>1921</ele>
        <time>2022-07-24T08:43:55Z</time>
      </trkpt>
      <trkpt lat="45.7706" lon="6.58715">
        <ele>1922</ele>
        <time>2022-07-24T08:43:56Z</time>
      </trkpt>
      <trkpt lat="45.7706" lon="6.58716">
        <ele>1922</ele>
        <time>2022-07-24T08:43:57Z</time>
      </trkpt>
      <trkpt lat="45.77061" lon="6.58717">
        <ele>1922</ele>
        <time>2022-07-24T08:43:58Z</time>
      </trkpt>
      <trkpt lat="45.77061" lon="6.58718">
        <ele>1922</ele>
        <time>2022-07-24T08:43:59Z</time>
      </trkpt>
      <trkpt lat="45.77061" lon="6.58719">
        <ele>1922</ele>
        <time>2022-07-24T08:44:00Z</time>
      </trkpt>
      <trkpt lat="45.77062" lon="6.5872">
        <ele>1922</ele>
        <time>2022-07-24T08:44:01Z</time>
      </trkpt>
      <trkpt lat="45.77062" lon="6.58721">
        <ele>1922</ele>
        <time>2022-07-24T08:44:02Z</time>
      </trkpt>
      <trkpt lat="45.77062" lon="6.58722">
        <ele>1922</ele>
        <time>2022-07-24T08:44:03Z</time>
      </trkpt>
      <trkpt lat="45.77063" lon="6.58723">
        <ele>1922</ele>
        <time>2022-07-24T08:44:04Z</time>
      </trkpt>
      <trkpt lat="45.77063" lon="6.58725">
        <ele>1922</ele>
        <time>2022-07-24T08:44:05Z</time>
      </trkpt>
      <trkpt lat="45.77064" lon="6.58726">
        <ele>1922</ele>
        <time>2022-07-24T08:44:06Z</time>
      </trkpt>
      <trkpt lat="45.77065" lon="6.58727">
        <ele>1922</ele>
        <time>2022-07-24T08:44:07Z</time>
      </trkpt>
      <trkpt lat="45.77065" lon="6.58728">
        <ele>1922</ele>
        <time>2022-07-24T08:44:08Z</time>
      </trkpt>
      <trkpt lat="45.77065" lon="6.58729">
        <ele>1922</ele>
        <time>2022-07-24T08:44:09Z</time>
      </trkpt>
      <trkpt lat="45.77066" lon="6.5873">
        <ele>1922</ele>
        <time>2022-07-24T08:44:10Z</time>
      </trkpt>
      <trkpt lat="45.77066" lon="6.58731">
        <ele>1923</ele>
        <time>2022-07-24T08:44:11Z</time>
      </trkpt>
      <trkpt lat="45.77066" lon="6.58732">
        <ele>1923</ele>
        <time>2022-07-24T08:44:12Z</time>
      </trkpt>
      <trkpt lat="45.77066" lon="6.58733">
        <ele>1923</ele>
        <time>2022-07-24T08:44:13Z</time>
      </trkpt>
      <trkpt lat="45.77067" lon="6.58734">
        <ele>1923</ele>
        <time>2022-07-24T08:44:14Z</time>
      </trkpt>
      <trkpt lat="45.77067" lon="6.58736">
        <ele>1923</ele>
        <time>2022-07-24T08:44:15Z</time>
      </trkpt>
      <trkpt lat="45.77067" lon="6.58737">
        <ele>1923</ele>
        <time>2022-07-24T08:44:16Z</time>
      </trkpt>
      <trkpt lat="45.77067" lon="6.58738">
        <ele>1923</ele>
        <time>2022-07-24T08:44:17Z</time>
      </trkpt>
      <trkpt lat="45.77067" lon="6.58739">
        <ele>1923</ele>
        <time>2022-07-24T08:44:25Z</time>
      </trkpt>
      <trkpt lat="45.77067" lon="6.58739">
        <ele>1924</ele>
        <time>2022-07-24T08:44:26Z</time>
      </trkpt>
      <trkpt lat="45.77067" lon="6.5874">
        <ele>1924</ele>
        <time>2022-07-24T08:44:27Z</time>
      </trkpt>
      <trkpt lat="45.77068" lon="6.58741">
        <ele>1924</ele>
        <time>2022-07-24T08:44:28Z</time>
      </trkpt>
      <trkpt lat="45.77068" lon="6.58742">
        <ele>1924</ele>
        <time>2022-07-24T08:44:29Z</time>
      </trkpt>
      <trkpt lat="45.77068" lon="6.58743">
        <ele>1924</ele>
        <time>2022-07-24T08:44:30Z</time>
      </trkpt>
      <trkpt lat="45.77068" lon="6.58744">
        <ele>1924</ele>
        <time>2022-07-24T08:44:31Z</time>
      </trkpt>
      <trkpt lat="45.77069" lon="6.58746">
        <ele>1924</ele>
        <time>2022-07-24T08:44:32Z</time>
      </trkpt>
      <trkpt lat="45.77069" lon="6.58747">
        <ele>1924</ele>
        <time>2022-07-24T08:44:33Z</time>
      </trkpt>
      <trkpt lat="45.7707" lon="6.58749">
        <ele>1924</ele>
        <time>2022-07-24T08:44:34Z</time>
      </trkpt>
      <trkpt lat="45.7707" lon="6.5875">
        <ele>1924</ele>
        <time>2022-07-24T08:44:35Z</time>
      </trkpt>
      <trkpt lat="45.7707" lon="6.58751">
        <ele>1924</ele>
        <time>2022-07-24T08:44:36Z</time>
      </trkpt>
      <trkpt lat="45.77071" lon="6.58753">
        <ele>1924</ele>
        <time>2022-07-24T08:44:37Z</time>
      </trkpt>
      <trkpt lat="45.77071" lon="6.58754">
        <ele>1924</ele>
        <time>2022-07-24T08:44:38Z</time>
      </trkpt>
      <trkpt lat="45.77072" lon="6.58755">
        <ele>1924</ele>
        <time>2022-07-24T08:44:39Z</time>
      </trkpt>
      <trkpt lat="45.77072" lon="6.58756">
        <ele>1924</ele>
        <time>2022-07-24T08:44:40Z</time>
      </trkpt>
      <trkpt lat="45.77072" lon="6.58758">
        <ele>1925</ele>
        <time>2022-07-24T08:44:41Z</time>
      </trkpt>
      <trkpt lat="45.77073" lon="6.58759">
        <ele>1925</ele>
        <time>2022-07-24T08:44:42Z</time>
      </trkpt>
      <trkpt lat="45.77073" lon="6.5876">
        <ele>1925</ele>
        <time>2022-07-24T08:44:43Z</time>
      </trkpt>
      <trkpt lat="45.77073" lon="6.58761">
        <ele>1925</ele>
        <time>2022-07-24T08:44:44Z</time>
      </trkpt>
      <trkpt lat="45.77073" lon="6.58762">
        <ele>1925</ele>
        <time>2022-07-24T08:44:45Z</time>
      </trkpt>
      <trkpt lat="45.77074" lon="6.58763">
        <ele>1925</ele>
        <time>2022-07-24T08:44:46Z</time>
      </trkpt>
      <trkpt lat="45.77074" lon="6.58764">
        <ele>1925</ele>
        <time>2022-07-24T08:44:47Z</time>
      </trkpt>
      <trkpt lat="45.77074" lon="6.58765">
        <ele>1925</ele>
        <time>2022-07-24T08:44:48Z</time>
      </trkpt>
      <trkpt lat="45.77074" lon="6.58766">
        <ele>1925</ele>
        <time>2022-07-24T08:44:49Z</time>
      </trkpt>
      <trkpt lat="45.77075" lon="6.58767">
        <ele>1925</ele>
        <time>2022-07-24T08:44:50Z</time>
      </trkpt>
      <trkpt lat="45.77075" lon="6.58767">
        <ele>1926</ele>
        <time>2022-07-24T08:44:51Z</time>
      </trkpt>
      <trkpt lat="45.77075" lon="6.58768">
        <ele>1926</ele>
        <time>2022-07-24T08:44:52Z</time>
      </trkpt>
      <trkpt lat="45.77075" lon="6.58768">
        <ele>1926</ele>
        <time>2022-07-24T08:44:53Z</time>
      </trkpt>
      <trkpt lat="45.77075" lon="6.58768">
        <ele>1926</ele>
        <time>2022-07-24T08:44:54Z</time>
      </trkpt>
      <trkpt lat="45.77075" lon="6.58769">
        <ele>1926</ele>
        <time>2022-07-24T08:44:55Z</time>
      </trkpt>
      <trkpt lat="45.77075" lon="6.5877">
        <ele>1926</ele>
        <time>2022-07-24T08:44:56Z</time>
      </trkpt>
      <trkpt lat="45.77075" lon="6.58771">
        <ele>1926</ele>
        <time>2022-07-24T08:44:57Z</time>
      </trkpt>
      <trkpt lat="45.77075" lon="6.58772">
        <ele>1926</ele>
        <time>2022-07-24T08:44:58Z</time>
      </trkpt>
      <trkpt lat="45.77076" lon="6.58773">
        <ele>1926</ele>
        <time>2022-07-24T08:44:59Z</time>
      </trkpt>
      <trkpt lat="45.77076" lon="6.58774">
        <ele>1926</ele>
        <time>2022-07-24T08:45:00Z</time>
      </trkpt>
      <trkpt lat="45.77077" lon="6.58775">
        <ele>1926</ele>
        <time>2022-07-24T08:45:01Z</time>
      </trkpt>
      <trkpt lat="45.77078" lon="6.58776">
        <ele>1926</ele>
        <time>2022-07-24T08:45:02Z</time>
      </trkpt>
      <trkpt lat="45.77078" lon="6.58777">
        <ele>1926</ele>
        <time>2022-07-24T08:45:03Z</time>
      </trkpt>
      <trkpt lat="45.77079" lon="6.58778">
        <ele>1926</ele>
        <time>2022-07-24T08:45:04Z</time>
      </trkpt>
      <trkpt lat="45.77079" lon="6.58779">
        <ele>1926</ele>
        <time>2022-07-24T08:45:05Z</time>
      </trkpt>
      <trkpt lat="45.7708" lon="6.5878">
        <ele>1927</ele>
        <time>2022-07-24T08:45:06Z</time>
      </trkpt>
      <trkpt lat="45.7708" lon="6.58781">
        <ele>1927</ele>
        <time>2022-07-24T08:45:07Z</time>
      </trkpt>
      <trkpt lat="45.77081" lon="6.58782">
        <ele>1927</ele>
        <time>2022-07-24T08:45:08Z</time>
      </trkpt>
      <trkpt lat="45.77082" lon="6.58784">
        <ele>1927</ele>
        <time>2022-07-24T08:45:09Z</time>
      </trkpt>
      <trkpt lat="45.77082" lon="6.58785">
        <ele>1927</ele>
        <time>2022-07-24T08:45:10Z</time>
      </trkpt>
      <trkpt lat="45.77083" lon="6.58786">
        <ele>1927</ele>
        <time>2022-07-24T08:45:11Z</time>
      </trkpt>
      <trkpt lat="45.77083" lon="6.58787">
        <ele>1927</ele>
        <time>2022-07-24T08:45:12Z</time>
      </trkpt>
      <trkpt lat="45.77084" lon="6.58788">
        <ele>1927</ele>
        <time>2022-07-24T08:45:13Z</time>
      </trkpt>
      <trkpt lat="45.77084" lon="6.5879">
        <ele>1927</ele>
        <time>2022-07-24T08:45:14Z</time>
      </trkpt>
      <trkpt lat="45.77084" lon="6.58791">
        <ele>1927</ele>
        <time>2022-07-24T08:45:15Z</time>
      </trkpt>
      <trkpt lat="45.77085" lon="6.58792">
        <ele>1927</ele>
        <time>2022-07-24T08:45:16Z</time>
      </trkpt>
      <trkpt lat="45.77085" lon="6.58794">
        <ele>1927</ele>
        <time>2022-07-24T08:45:17Z</time>
      </trkpt>
      <trkpt lat="45.77086" lon="6.58795">
        <ele>1927</ele>
        <time>2022-07-24T08:45:18Z</time>
      </trkpt>
      <trkpt lat="45.77086" lon="6.58796">
        <ele>1927</ele>
        <time>2022-07-24T08:45:19Z</time>
      </trkpt>
      <trkpt lat="45.77087" lon="6.58797">
        <ele>1927</ele>
        <time>2022-07-24T08:45:20Z</time>
      </trkpt>
      <trkpt lat="45.77087" lon="6.58799">
        <ele>1928</ele>
        <time>2022-07-24T08:45:21Z</time>
      </trkpt>
      <trkpt lat="45.77088" lon="6.588">
        <ele>1928</ele>
        <time>2022-07-24T08:45:22Z</time>
      </trkpt>
      <trkpt lat="45.77088" lon="6.58801">
        <ele>1928</ele>
        <time>2022-07-24T08:45:23Z</time>
      </trkpt>
      <trkpt lat="45.77089" lon="6.58802">
        <ele>1928</ele>
        <time>2022-07-24T08:45:24Z</time>
      </trkpt>
      <trkpt lat="45.77089" lon="6.58803">
        <ele>1928</ele>
        <time>2022-07-24T08:45:25Z</time>
      </trkpt>
      <trkpt lat="45.7709" lon="6.58804">
        <ele>1928</ele>
        <time>2022-07-24T08:45:26Z</time>
      </trkpt>
      <trkpt lat="45.7709" lon="6.58806">
        <ele>1928</ele>
        <time>2022-07-24T08:45:27Z</time>
      </trkpt>
      <trkpt lat="45.77091" lon="6.58807">
        <ele>1928</ele>
        <time>2022-07-24T08:45:28Z</time>
      </trkpt>
      <trkpt lat="45.77091" lon="6.58808">
        <ele>1928</ele>
        <time>2022-07-24T08:45:29Z</time>
      </trkpt>
      <trkpt lat="45.77092" lon="6.58809">
        <ele>1928</ele>
        <time>2022-07-24T08:45:30Z</time>
      </trkpt>
      <trkpt lat="45.77092" lon="6.5881">
        <ele>1929</ele>
        <time>2022-07-24T08:45:31Z</time>
      </trkpt>
      <trkpt lat="45.77093" lon="6.58811">
        <ele>1929</ele>
        <time>2022-07-24T08:45:32Z</time>
      </trkpt>
      <trkpt lat="45.77093" lon="6.58812">
        <ele>1929</ele>
        <time>2022-07-24T08:45:33Z</time>
      </trkpt>
      <trkpt lat="45.77094" lon="6.58814">
        <ele>1929</ele>
        <time>2022-07-24T08:45:34Z</time>
      </trkpt>
      <trkpt lat="45.77094" lon="6.58815">
        <ele>1929</ele>
        <time>2022-07-24T08:45:35Z</time>
      </trkpt>
      <trkpt lat="45.77095" lon="6.58816">
        <ele>1929</ele>
        <time>2022-07-24T08:45:36Z</time>
      </trkpt>
      <trkpt lat="45.77095" lon="6.58817">
        <ele>1929</ele>
        <time>2022-07-24T08:45:37Z</time>
      </trkpt>
      <trkpt lat="45.77095" lon="6.58819">
        <ele>1929</ele>
        <time>2022-07-24T08:45:38Z</time>
      </trkpt>
      <trkpt lat="45.77096" lon="6.5882">
        <ele>1929</ele>
        <time>2022-07-24T08:45:39Z</time>
      </trkpt>
      <trkpt lat="45.77097" lon="6.58821">
        <ele>1929</ele>
        <time>2022-07-24T08:45:40Z</time>
      </trkpt>
      <trkpt lat="45.77097" lon="6.58822">
        <ele>1930</ele>
        <time>2022-07-24T08:45:41Z</time>
      </trkpt>
      <trkpt lat="45.77098" lon="6.58823">
        <ele>1930</ele>
        <time>2022-07-24T08:45:42Z</time>
      </trkpt>
      <trkpt lat="45.77098" lon="6.58825">
        <ele>1930</ele>
        <time>2022-07-24T08:45:43Z</time>
      </trkpt>
      <trkpt lat="45.77099" lon="6.58826">
        <ele>1930</ele>
        <time>2022-07-24T08:45:44Z</time>
      </trkpt>
      <trkpt lat="45.77099" lon="6.58827">
        <ele>1930</ele>
        <time>2022-07-24T08:45:45Z</time>
      </trkpt>
      <trkpt lat="45.771" lon="6.58828">
        <ele>1930</ele>
        <time>2022-07-24T08:45:46Z</time>
      </trkpt>
      <trkpt lat="45.771" lon="6.58829">
        <ele>1930</ele>
        <time>2022-07-24T08:45:47Z</time>
      </trkpt>
      <trkpt lat="45.77101" lon="6.5883">
        <ele>1930</ele>
        <time>2022-07-24T08:45:48Z</time>
      </trkpt>
      <trkpt lat="45.77101" lon="6.58831">
        <ele>1930</ele>
        <time>2022-07-24T08:45:49Z</time>
      </trkpt>
      <trkpt lat="45.77102" lon="6.58832">
        <ele>1930</ele>
        <time>2022-07-24T08:45:50Z</time>
      </trkpt>
      <trkpt lat="45.77103" lon="6.58833">
        <ele>1931</ele>
        <time>2022-07-24T08:45:51Z</time>
      </trkpt>
      <trkpt lat="45.77103" lon="6.58834">
        <ele>1931</ele>
        <time>2022-07-24T08:45:52Z</time>
      </trkpt>
      <trkpt lat="45.77104" lon="6.58835">
        <ele>1931</ele>
        <time>2022-07-24T08:45:53Z</time>
      </trkpt>
      <trkpt lat="45.77104" lon="6.58836">
        <ele>1931</ele>
        <time>2022-07-24T08:45:54Z</time>
      </trkpt>
      <trkpt lat="45.77105" lon="6.58837">
        <ele>1931</ele>
        <time>2022-07-24T08:45:55Z</time>
      </trkpt>
      <trkpt lat="45.77106" lon="6.58838">
        <ele>1931</ele>
        <time>2022-07-24T08:45:56Z</time>
      </trkpt>
      <trkpt lat="45.77106" lon="6.58839">
        <ele>1931</ele>
        <time>2022-07-24T08:45:57Z</time>
      </trkpt>
      <trkpt lat="45.77107" lon="6.58841">
        <ele>1931</ele>
        <time>2022-07-24T08:45:58Z</time>
      </trkpt>
      <trkpt lat="45.77108" lon="6.58842">
        <ele>1931</ele>
        <time>2022-07-24T08:45:59Z</time>
      </trkpt>
      <trkpt lat="45.77108" lon="6.58843">
        <ele>1931</ele>
        <time>2022-07-24T08:46:00Z</time>
      </trkpt>
      <trkpt lat="45.77109" lon="6.58844">
        <ele>1931</ele>
        <time>2022-07-24T08:46:01Z</time>
      </trkpt>
      <trkpt lat="45.7711" lon="6.58846">
        <ele>1931</ele>
        <time>2022-07-24T08:46:02Z</time>
      </trkpt>
      <trkpt lat="45.7711" lon="6.58847">
        <ele>1931</ele>
        <time>2022-07-24T08:46:03Z</time>
      </trkpt>
      <trkpt lat="45.77111" lon="6.58848">
        <ele>1931</ele>
        <time>2022-07-24T08:46:04Z</time>
      </trkpt>
      <trkpt lat="45.77111" lon="6.5885">
        <ele>1931</ele>
        <time>2022-07-24T08:46:05Z</time>
      </trkpt>
      <trkpt lat="45.77112" lon="6.58851">
        <ele>1932</ele>
        <time>2022-07-24T08:46:06Z</time>
      </trkpt>
      <trkpt lat="45.77113" lon="6.58852">
        <ele>1932</ele>
        <time>2022-07-24T08:46:07Z</time>
      </trkpt>
      <trkpt lat="45.77113" lon="6.58854">
        <ele>1932</ele>
        <time>2022-07-24T08:46:08Z</time>
      </trkpt>
      <trkpt lat="45.77114" lon="6.58855">
        <ele>1932</ele>
        <time>2022-07-24T08:46:09Z</time>
      </trkpt>
      <trkpt lat="45.77115" lon="6.58856">
        <ele>1932</ele>
        <time>2022-07-24T08:46:10Z</time>
      </trkpt>
      <trkpt lat="45.77115" lon="6.58857">
        <ele>1932</ele>
        <time>2022-07-24T08:46:11Z</time>
      </trkpt>
      <trkpt lat="45.77116" lon="6.58858">
        <ele>1932</ele>
        <time>2022-07-24T08:46:12Z</time>
      </trkpt>
      <trkpt lat="45.77117" lon="6.58859">
        <ele>1932</ele>
        <time>2022-07-24T08:46:13Z</time>
      </trkpt>
      <trkpt lat="45.77117" lon="6.5886">
        <ele>1932</ele>
        <time>2022-07-24T08:46:14Z</time>
      </trkpt>
      <trkpt lat="45.77118" lon="6.58862">
        <ele>1932</ele>
        <time>2022-07-24T08:46:15Z</time>
      </trkpt>
      <trkpt lat="45.77119" lon="6.58863">
        <ele>1933</ele>
        <time>2022-07-24T08:46:16Z</time>
      </trkpt>
      <trkpt lat="45.77119" lon="6.58864">
        <ele>1933</ele>
        <time>2022-07-24T08:46:17Z</time>
      </trkpt>
      <trkpt lat="45.7712" lon="6.58865">
        <ele>1933</ele>
        <time>2022-07-24T08:46:18Z</time>
      </trkpt>
      <trkpt lat="45.77121" lon="6.58866">
        <ele>1933</ele>
        <time>2022-07-24T08:46:19Z</time>
      </trkpt>
      <trkpt lat="45.77121" lon="6.58867">
        <ele>1933</ele>
        <time>2022-07-24T08:46:20Z</time>
      </trkpt>
      <trkpt lat="45.77122" lon="6.58868">
        <ele>1934</ele>
        <time>2022-07-24T08:46:21Z</time>
      </trkpt>
      <trkpt lat="45.77123" lon="6.5887">
        <ele>1934</ele>
        <time>2022-07-24T08:46:22Z</time>
      </trkpt>
      <trkpt lat="45.77123" lon="6.58871">
        <ele>1934</ele>
        <time>2022-07-24T08:46:23Z</time>
      </trkpt>
      <trkpt lat="45.77124" lon="6.58872">
        <ele>1934</ele>
        <time>2022-07-24T08:46:24Z</time>
      </trkpt>
      <trkpt lat="45.77124" lon="6.58872">
        <ele>1934</ele>
        <time>2022-07-24T08:46:25Z</time>
      </trkpt>
      <trkpt lat="45.77125" lon="6.58873">
        <ele>1934</ele>
        <time>2022-07-24T08:46:26Z</time>
      </trkpt>
      <trkpt lat="45.77125" lon="6.58874">
        <ele>1934</ele>
        <time>2022-07-24T08:46:27Z</time>
      </trkpt>
      <trkpt lat="45.77125" lon="6.58874">
        <ele>1934</ele>
        <time>2022-07-24T08:46:28Z</time>
      </trkpt>
      <trkpt lat="45.77126" lon="6.58875">
        <ele>1934</ele>
        <time>2022-07-24T08:46:29Z</time>
      </trkpt>
      <trkpt lat="45.77126" lon="6.58876">
        <ele>1934</ele>
        <time>2022-07-24T08:46:30Z</time>
      </trkpt>
      <trkpt lat="45.77127" lon="6.58877">
        <ele>1934</ele>
        <time>2022-07-24T08:46:31Z</time>
      </trkpt>
      <trkpt lat="45.77127" lon="6.58878">
        <ele>1934</ele>
        <time>2022-07-24T08:46:32Z</time>
      </trkpt>
      <trkpt lat="45.77128" lon="6.58879">
        <ele>1934</ele>
        <time>2022-07-24T08:46:33Z</time>
      </trkpt>
      <trkpt lat="45.77129" lon="6.5888">
        <ele>1934</ele>
        <time>2022-07-24T08:46:34Z</time>
      </trkpt>
      <trkpt lat="45.77129" lon="6.58882">
        <ele>1934</ele>
        <time>2022-07-24T08:46:35Z</time>
      </trkpt>
      <trkpt lat="45.7713" lon="6.58883">
        <ele>1934</ele>
        <time>2022-07-24T08:46:36Z</time>
      </trkpt>
      <trkpt lat="45.77131" lon="6.58884">
        <ele>1934</ele>
        <time>2022-07-24T08:46:37Z</time>
      </trkpt>
      <trkpt lat="45.77132" lon="6.58885">
        <ele>1934</ele>
        <time>2022-07-24T08:46:38Z</time>
      </trkpt>
      <trkpt lat="45.77133" lon="6.58885">
        <ele>1934</ele>
        <time>2022-07-24T08:46:39Z</time>
      </trkpt>
      <trkpt lat="45.77133" lon="6.58886">
        <ele>1934</ele>
        <time>2022-07-24T08:46:40Z</time>
      </trkpt>
      <trkpt lat="45.77134" lon="6.58887">
        <ele>1935</ele>
        <time>2022-07-24T08:46:41Z</time>
      </trkpt>
      <trkpt lat="45.77135" lon="6.58888">
        <ele>1935</ele>
        <time>2022-07-24T08:46:42Z</time>
      </trkpt>
      <trkpt lat="45.77135" lon="6.58888">
        <ele>1935</ele>
        <time>2022-07-24T08:46:43Z</time>
      </trkpt>
      <trkpt lat="45.77136" lon="6.58889">
        <ele>1935</ele>
        <time>2022-07-24T08:46:44Z</time>
      </trkpt>
      <trkpt lat="45.77137" lon="6.5889">
        <ele>1935</ele>
        <time>2022-07-24T08:46:45Z</time>
      </trkpt>
      <trkpt lat="45.77138" lon="6.58891">
        <ele>1935</ele>
        <time>2022-07-24T08:46:46Z</time>
      </trkpt>
      <trkpt lat="45.77138" lon="6.58892">
        <ele>1935</ele>
        <time>2022-07-24T08:46:47Z</time>
      </trkpt>
      <trkpt lat="45.77139" lon="6.58892">
        <ele>1935</ele>
        <time>2022-07-24T08:46:48Z</time>
      </trkpt>
      <trkpt lat="45.7714" lon="6.58893">
        <ele>1935</ele>
        <time>2022-07-24T08:46:49Z</time>
      </trkpt>
      <trkpt lat="45.77141" lon="6.58894">
        <ele>1935</ele>
        <time>2022-07-24T08:46:50Z</time>
      </trkpt>
      <trkpt lat="45.77142" lon="6.58895">
        <ele>1936</ele>
        <time>2022-07-24T08:46:51Z</time>
      </trkpt>
      <trkpt lat="45.77143" lon="6.58896">
        <ele>1936</ele>
        <time>2022-07-24T08:46:52Z</time>
      </trkpt>
      <trkpt lat="45.77143" lon="6.58897">
        <ele>1936</ele>
        <time>2022-07-24T08:46:53Z</time>
      </trkpt>
      <trkpt lat="45.77144" lon="6.58898">
        <ele>1936</ele>
        <time>2022-07-24T08:46:54Z</time>
      </trkpt>
      <trkpt lat="45.77145" lon="6.58899">
        <ele>1936</ele>
        <time>2022-07-24T08:46:55Z</time>
      </trkpt>
      <trkpt lat="45.77146" lon="6.58899">
        <ele>1936</ele>
        <time>2022-07-24T08:46:56Z</time>
      </trkpt>
      <trkpt lat="45.77147" lon="6.589">
        <ele>1936</ele>
        <time>2022-07-24T08:46:57Z</time>
      </trkpt>
      <trkpt lat="45.77148" lon="6.58901">
        <ele>1936</ele>
        <time>2022-07-24T08:46:58Z</time>
      </trkpt>
      <trkpt lat="45.77149" lon="6.58902">
        <ele>1936</ele>
        <time>2022-07-24T08:46:59Z</time>
      </trkpt>
      <trkpt lat="45.77149" lon="6.58903">
        <ele>1936</ele>
        <time>2022-07-24T08:47:00Z</time>
      </trkpt>
      <trkpt lat="45.7715" lon="6.58903">
        <ele>1936</ele>
        <time>2022-07-24T08:47:01Z</time>
      </trkpt>
      <trkpt lat="45.77151" lon="6.58904">
        <ele>1936</ele>
        <time>2022-07-24T08:47:02Z</time>
      </trkpt>
      <trkpt lat="45.77152" lon="6.58905">
        <ele>1936</ele>
        <time>2022-07-24T08:47:03Z</time>
      </trkpt>
      <trkpt lat="45.77153" lon="6.58905">
        <ele>1936</ele>
        <time>2022-07-24T08:47:04Z</time>
      </trkpt>
      <trkpt lat="45.77154" lon="6.58906">
        <ele>1936</ele>
        <time>2022-07-24T08:47:05Z</time>
      </trkpt>
      <trkpt lat="45.77155" lon="6.58907">
        <ele>1937</ele>
        <time>2022-07-24T08:47:06Z</time>
      </trkpt>
      <trkpt lat="45.77156" lon="6.58907">
        <ele>1937</ele>
        <time>2022-07-24T08:47:07Z</time>
      </trkpt>
      <trkpt lat="45.77157" lon="6.58908">
        <ele>1937</ele>
        <time>2022-07-24T08:47:08Z</time>
      </trkpt>
      <trkpt lat="45.77158" lon="6.58909">
        <ele>1937</ele>
        <time>2022-07-24T08:47:09Z</time>
      </trkpt>
      <trkpt lat="45.77158" lon="6.58909">
        <ele>1937</ele>
        <time>2022-07-24T08:47:10Z</time>
      </trkpt>
      <trkpt lat="45.77159" lon="6.5891">
        <ele>1937</ele>
        <time>2022-07-24T08:47:11Z</time>
      </trkpt>
      <trkpt lat="45.7716" lon="6.58911">
        <ele>1937</ele>
        <time>2022-07-24T08:47:12Z</time>
      </trkpt>
      <trkpt lat="45.77161" lon="6.58912">
        <ele>1937</ele>
        <time>2022-07-24T08:47:13Z</time>
      </trkpt>
      <trkpt lat="45.77162" lon="6.58912">
        <ele>1937</ele>
        <time>2022-07-24T08:47:14Z</time>
      </trkpt>
      <trkpt lat="45.77163" lon="6.58913">
        <ele>1937</ele>
        <time>2022-07-24T08:47:15Z</time>
      </trkpt>
      <trkpt lat="45.77164" lon="6.58914">
        <ele>1937</ele>
        <time>2022-07-24T08:47:16Z</time>
      </trkpt>
      <trkpt lat="45.77165" lon="6.58914">
        <ele>1937</ele>
        <time>2022-07-24T08:47:17Z</time>
      </trkpt>
      <trkpt lat="45.77166" lon="6.58915">
        <ele>1937</ele>
        <time>2022-07-24T08:47:18Z</time>
      </trkpt>
      <trkpt lat="45.77167" lon="6.58916">
        <ele>1937</ele>
        <time>2022-07-24T08:47:19Z</time>
      </trkpt>
      <trkpt lat="45.77168" lon="6.58917">
        <ele>1937</ele>
        <time>2022-07-24T08:47:20Z</time>
      </trkpt>
      <trkpt lat="45.77169" lon="6.58918">
        <ele>1938</ele>
        <time>2022-07-24T08:47:21Z</time>
      </trkpt>
      <trkpt lat="45.7717" lon="6.58919">
        <ele>1938</ele>
        <time>2022-07-24T08:47:22Z</time>
      </trkpt>
      <trkpt lat="45.7717" lon="6.5892">
        <ele>1938</ele>
        <time>2022-07-24T08:47:23Z</time>
      </trkpt>
      <trkpt lat="45.77171" lon="6.58921">
        <ele>1938</ele>
        <time>2022-07-24T08:47:24Z</time>
      </trkpt>
      <trkpt lat="45.77172" lon="6.58922">
        <ele>1938</ele>
        <time>2022-07-24T08:47:25Z</time>
      </trkpt>
      <trkpt lat="45.77173" lon="6.58923">
        <ele>1938</ele>
        <time>2022-07-24T08:47:26Z</time>
      </trkpt>
      <trkpt lat="45.77173" lon="6.58924">
        <ele>1938</ele>
        <time>2022-07-24T08:47:27Z</time>
      </trkpt>
      <trkpt lat="45.77174" lon="6.58925">
        <ele>1938</ele>
        <time>2022-07-24T08:47:28Z</time>
      </trkpt>
      <trkpt lat="45.77175" lon="6.58926">
        <ele>1938</ele>
        <time>2022-07-24T08:47:29Z</time>
      </trkpt>
      <trkpt lat="45.77176" lon="6.58927">
        <ele>1938</ele>
        <time>2022-07-24T08:47:30Z</time>
      </trkpt>
      <trkpt lat="45.77176" lon="6.58929">
        <ele>1938</ele>
        <time>2022-07-24T08:47:31Z</time>
      </trkpt>
      <trkpt lat="45.77177" lon="6.5893">
        <ele>1938</ele>
        <time>2022-07-24T08:47:32Z</time>
      </trkpt>
      <trkpt lat="45.77177" lon="6.58931">
        <ele>1938</ele>
        <time>2022-07-24T08:47:33Z</time>
      </trkpt>
      <trkpt lat="45.77178" lon="6.58932">
        <ele>1938</ele>
        <time>2022-07-24T08:47:34Z</time>
      </trkpt>
      <trkpt lat="45.77178" lon="6.58933">
        <ele>1938</ele>
        <time>2022-07-24T08:47:35Z</time>
      </trkpt>
      <trkpt lat="45.77179" lon="6.58934">
        <ele>1939</ele>
        <time>2022-07-24T08:47:36Z</time>
      </trkpt>
      <trkpt lat="45.7718" lon="6.58935">
        <ele>1939</ele>
        <time>2022-07-24T08:47:37Z</time>
      </trkpt>
      <trkpt lat="45.7718" lon="6.58936">
        <ele>1939</ele>
        <time>2022-07-24T08:47:38Z</time>
      </trkpt>
      <trkpt lat="45.77181" lon="6.58938">
        <ele>1939</ele>
        <time>2022-07-24T08:47:39Z</time>
      </trkpt>
      <trkpt lat="45.77182" lon="6.58939">
        <ele>1939</ele>
        <time>2022-07-24T08:47:40Z</time>
      </trkpt>
      <trkpt lat="45.77182" lon="6.5894">
        <ele>1939</ele>
        <time>2022-07-24T08:47:41Z</time>
      </trkpt>
      <trkpt lat="45.77183" lon="6.58941">
        <ele>1939</ele>
        <time>2022-07-24T08:47:42Z</time>
      </trkpt>
      <trkpt lat="45.77184" lon="6.58943">
        <ele>1939</ele>
        <time>2022-07-24T08:47:43Z</time>
      </trkpt>
      <trkpt lat="45.77184" lon="6.58944">
        <ele>1939</ele>
        <time>2022-07-24T08:47:44Z</time>
      </trkpt>
      <trkpt lat="45.77185" lon="6.58945">
        <ele>1939</ele>
        <time>2022-07-24T08:47:45Z</time>
      </trkpt>
      <trkpt lat="45.77186" lon="6.58946">
        <ele>1939</ele>
        <time>2022-07-24T08:47:46Z</time>
      </trkpt>
      <trkpt lat="45.77187" lon="6.58947">
        <ele>1939</ele>
        <time>2022-07-24T08:47:47Z</time>
      </trkpt>
      <trkpt lat="45.77188" lon="6.58948">
        <ele>1939</ele>
        <time>2022-07-24T08:47:48Z</time>
      </trkpt>
      <trkpt lat="45.77188" lon="6.5895">
        <ele>1939</ele>
        <time>2022-07-24T08:47:49Z</time>
      </trkpt>
      <trkpt lat="45.77189" lon="6.58951">
        <ele>1939</ele>
        <time>2022-07-24T08:47:50Z</time>
      </trkpt>
      <trkpt lat="45.7719" lon="6.58952">
        <ele>1939</ele>
        <time>2022-07-24T08:47:51Z</time>
      </trkpt>
      <trkpt lat="45.7719" lon="6.58953">
        <ele>1939</ele>
        <time>2022-07-24T08:47:52Z</time>
      </trkpt>
      <trkpt lat="45.77191" lon="6.58954">
        <ele>1939</ele>
        <time>2022-07-24T08:47:53Z</time>
      </trkpt>
      <trkpt lat="45.77192" lon="6.58956">
        <ele>1939</ele>
        <time>2022-07-24T08:47:54Z</time>
      </trkpt>
      <trkpt lat="45.77192" lon="6.58957">
        <ele>1939</ele>
        <time>2022-07-24T08:47:55Z</time>
      </trkpt>
      <trkpt lat="45.77193" lon="6.58958">
        <ele>1940</ele>
        <time>2022-07-24T08:47:56Z</time>
      </trkpt>
      <trkpt lat="45.77194" lon="6.58959">
        <ele>1940</ele>
        <time>2022-07-24T08:47:57Z</time>
      </trkpt>
      <trkpt lat="45.77195" lon="6.5896">
        <ele>1940</ele>
        <time>2022-07-24T08:47:58Z</time>
      </trkpt>
      <trkpt lat="45.77195" lon="6.58961">
        <ele>1940</ele>
        <time>2022-07-24T08:47:59Z</time>
      </trkpt>
      <trkpt lat="45.77196" lon="6.58963">
        <ele>1940</ele>
        <time>2022-07-24T08:48:00Z</time>
      </trkpt>
      <trkpt lat="45.77197" lon="6.58964">
        <ele>1940</ele>
        <time>2022-07-24T08:48:01Z</time>
      </trkpt>
      <trkpt lat="45.77198" lon="6.58965">
        <ele>1940</ele>
        <time>2022-07-24T08:48:02Z</time>
      </trkpt>
      <trkpt lat="45.77199" lon="6.58966">
        <ele>1940</ele>
        <time>2022-07-24T08:48:03Z</time>
      </trkpt>
      <trkpt lat="45.77199" lon="6.58968">
        <ele>1940</ele>
        <time>2022-07-24T08:48:04Z</time>
      </trkpt>
      <trkpt lat="45.772" lon="6.58969">
        <ele>1940</ele>
        <time>2022-07-24T08:48:05Z</time>
      </trkpt>
      <trkpt lat="45.77201" lon="6.5897">
        <ele>1940</ele>
        <time>2022-07-24T08:48:06Z</time>
      </trkpt>
      <trkpt lat="45.77202" lon="6.58971">
        <ele>1940</ele>
        <time>2022-07-24T08:48:07Z</time>
      </trkpt>
      <trkpt lat="45.77203" lon="6.58972">
        <ele>1940</ele>
        <time>2022-07-24T08:48:08Z</time>
      </trkpt>
      <trkpt lat="45.77203" lon="6.58973">
        <ele>1940</ele>
        <time>2022-07-24T08:48:09Z</time>
      </trkpt>
      <trkpt lat="45.77204" lon="6.58974">
        <ele>1940</ele>
        <time>2022-07-24T08:48:10Z</time>
      </trkpt>
      <trkpt lat="45.77205" lon="6.58975">
        <ele>1940</ele>
        <time>2022-07-24T08:48:11Z</time>
      </trkpt>
      <trkpt lat="45.77206" lon="6.58976">
        <ele>1940</ele>
        <time>2022-07-24T08:48:12Z</time>
      </trkpt>
      <trkpt lat="45.77207" lon="6.58978">
        <ele>1940</ele>
        <time>2022-07-24T08:48:13Z</time>
      </trkpt>
      <trkpt lat="45.77208" lon="6.58979">
        <ele>1940</ele>
        <time>2022-07-24T08:48:14Z</time>
      </trkpt>
      <trkpt lat="45.77209" lon="6.5898">
        <ele>1940</ele>
        <time>2022-07-24T08:48:15Z</time>
      </trkpt>
      <trkpt lat="45.7721" lon="6.58981">
        <ele>1940</ele>
        <time>2022-07-24T08:48:16Z</time>
      </trkpt>
      <trkpt lat="45.7721" lon="6.58983">
        <ele>1940</ele>
        <time>2022-07-24T08:48:17Z</time>
      </trkpt>
      <trkpt lat="45.77211" lon="6.58984">
        <ele>1940</ele>
        <time>2022-07-24T08:48:18Z</time>
      </trkpt>
      <trkpt lat="45.77212" lon="6.58985">
        <ele>1940</ele>
        <time>2022-07-24T08:48:19Z</time>
      </trkpt>
      <trkpt lat="45.77213" lon="6.58986">
        <ele>1940</ele>
        <time>2022-07-24T08:48:20Z</time>
      </trkpt>
      <trkpt lat="45.77213" lon="6.58987">
        <ele>1941</ele>
        <time>2022-07-24T08:48:21Z</time>
      </trkpt>
      <trkpt lat="45.77214" lon="6.58988">
        <ele>1941</ele>
        <time>2022-07-24T08:48:22Z</time>
      </trkpt>
      <trkpt lat="45.77215" lon="6.58989">
        <ele>1941</ele>
        <time>2022-07-24T08:48:23Z</time>
      </trkpt>
      <trkpt lat="45.77215" lon="6.58991">
        <ele>1941</ele>
        <time>2022-07-24T08:48:24Z</time>
      </trkpt>
      <trkpt lat="45.77216" lon="6.58992">
        <ele>1941</ele>
        <time>2022-07-24T08:48:25Z</time>
      </trkpt>
      <trkpt lat="45.77217" lon="6.58993">
        <ele>1941</ele>
        <time>2022-07-24T08:48:26Z</time>
      </trkpt>
      <trkpt lat="45.77217" lon="6.58994">
        <ele>1941</ele>
        <time>2022-07-24T08:48:27Z</time>
      </trkpt>
      <trkpt lat="45.77218" lon="6.58995">
        <ele>1941</ele>
        <time>2022-07-24T08:48:28Z</time>
      </trkpt>
      <trkpt lat="45.77218" lon="6.58997">
        <ele>1941</ele>
        <time>2022-07-24T08:48:29Z</time>
      </trkpt>
      <trkpt lat="45.77219" lon="6.58998">
        <ele>1941</ele>
        <time>2022-07-24T08:48:30Z</time>
      </trkpt>
      <trkpt lat="45.7722" lon="6.58999">
        <ele>1941</ele>
        <time>2022-07-24T08:48:31Z</time>
      </trkpt>
      <trkpt lat="45.7722" lon="6.59001">
        <ele>1941</ele>
        <time>2022-07-24T08:48:32Z</time>
      </trkpt>
      <trkpt lat="45.77221" lon="6.59002">
        <ele>1941</ele>
        <time>2022-07-24T08:48:33Z</time>
      </trkpt>
      <trkpt lat="45.77222" lon="6.59003">
        <ele>1941</ele>
        <time>2022-07-24T08:48:34Z</time>
      </trkpt>
      <trkpt lat="45.77223" lon="6.59004">
        <ele>1941</ele>
        <time>2022-07-24T08:48:35Z</time>
      </trkpt>
      <trkpt lat="45.77223" lon="6.59006">
        <ele>1941</ele>
        <time>2022-07-24T08:48:36Z</time>
      </trkpt>
      <trkpt lat="45.77224" lon="6.59007">
        <ele>1941</ele>
        <time>2022-07-24T08:48:37Z</time>
      </trkpt>
      <trkpt lat="45.77225" lon="6.59008">
        <ele>1941</ele>
        <time>2022-07-24T08:48:38Z</time>
      </trkpt>
      <trkpt lat="45.77225" lon="6.59009">
        <ele>1941</ele>
        <time>2022-07-24T08:48:39Z</time>
      </trkpt>
      <trkpt lat="45.77226" lon="6.59011">
        <ele>1941</ele>
        <time>2022-07-24T08:48:40Z</time>
      </trkpt>
      <trkpt lat="45.77227" lon="6.59012">
        <ele>1941</ele>
        <time>2022-07-24T08:48:41Z</time>
      </trkpt>
      <trkpt lat="45.77227" lon="6.59013">
        <ele>1941</ele>
        <time>2022-07-24T08:48:42Z</time>
      </trkpt>
      <trkpt lat="45.77228" lon="6.59015">
        <ele>1941</ele>
        <time>2022-07-24T08:48:43Z</time>
      </trkpt>
      <trkpt lat="45.77228" lon="6.59016">
        <ele>1941</ele>
        <time>2022-07-24T08:48:44Z</time>
      </trkpt>
      <trkpt lat="45.77229" lon="6.59017">
        <ele>1941</ele>
        <time>2022-07-24T08:48:45Z</time>
      </trkpt>
      <trkpt lat="45.77229" lon="6.59018">
        <ele>1942</ele>
        <time>2022-07-24T08:48:46Z</time>
      </trkpt>
      <trkpt lat="45.7723" lon="6.5902">
        <ele>1942</ele>
        <time>2022-07-24T08:48:47Z</time>
      </trkpt>
      <trkpt lat="45.77231" lon="6.59021">
        <ele>1942</ele>
        <time>2022-07-24T08:48:48Z</time>
      </trkpt>
      <trkpt lat="45.77231" lon="6.59022">
        <ele>1942</ele>
        <time>2022-07-24T08:48:49Z</time>
      </trkpt>
      <trkpt lat="45.77232" lon="6.59024">
        <ele>1942</ele>
        <time>2022-07-24T08:48:50Z</time>
      </trkpt>
      <trkpt lat="45.77233" lon="6.59025">
        <ele>1942</ele>
        <time>2022-07-24T08:48:51Z</time>
      </trkpt>
      <trkpt lat="45.77233" lon="6.59026">
        <ele>1942</ele>
        <time>2022-07-24T08:48:52Z</time>
      </trkpt>
      <trkpt lat="45.77234" lon="6.59027">
        <ele>1942</ele>
        <time>2022-07-24T08:48:53Z</time>
      </trkpt>
      <trkpt lat="45.77235" lon="6.59028">
        <ele>1942</ele>
        <time>2022-07-24T08:48:54Z</time>
      </trkpt>
      <trkpt lat="45.77235" lon="6.5903">
        <ele>1942</ele>
        <time>2022-07-24T08:48:55Z</time>
      </trkpt>
      <trkpt lat="45.77236" lon="6.59031">
        <ele>1942</ele>
        <time>2022-07-24T08:48:56Z</time>
      </trkpt>
      <trkpt lat="45.77237" lon="6.59032">
        <ele>1942</ele>
        <time>2022-07-24T08:48:57Z</time>
      </trkpt>
      <trkpt lat="45.77237" lon="6.59033">
        <ele>1942</ele>
        <time>2022-07-24T08:48:58Z</time>
      </trkpt>
      <trkpt lat="45.77238" lon="6.59035">
        <ele>1942</ele>
        <time>2022-07-24T08:48:59Z</time>
      </trkpt>
      <trkpt lat="45.77238" lon="6.59036">
        <ele>1942</ele>
        <time>2022-07-24T08:49:00Z</time>
      </trkpt>
      <trkpt lat="45.77239" lon="6.59037">
        <ele>1942</ele>
        <time>2022-07-24T08:49:01Z</time>
      </trkpt>
      <trkpt lat="45.7724" lon="6.59039">
        <ele>1942</ele>
        <time>2022-07-24T08:49:02Z</time>
      </trkpt>
      <trkpt lat="45.7724" lon="6.5904">
        <ele>1942</ele>
        <time>2022-07-24T08:49:03Z</time>
      </trkpt>
      <trkpt lat="45.77241" lon="6.59041">
        <ele>1942</ele>
        <time>2022-07-24T08:49:04Z</time>
      </trkpt>
      <trkpt lat="45.77241" lon="6.59043">
        <ele>1942</ele>
        <time>2022-07-24T08:49:05Z</time>
      </trkpt>
      <trkpt lat="45.77242" lon="6.59044">
        <ele>1942</ele>
        <time>2022-07-24T08:49:06Z</time>
      </trkpt>
      <trkpt lat="45.77243" lon="6.59045">
        <ele>1942</ele>
        <time>2022-07-24T08:49:07Z</time>
      </trkpt>
      <trkpt lat="45.77243" lon="6.59047">
        <ele>1942</ele>
        <time>2022-07-24T08:49:08Z</time>
      </trkpt>
      <trkpt lat="45.77244" lon="6.59048">
        <ele>1942</ele>
        <time>2022-07-24T08:49:09Z</time>
      </trkpt>
      <trkpt lat="45.77245" lon="6.5905">
        <ele>1942</ele>
        <time>2022-07-24T08:49:10Z</time>
      </trkpt>
      <trkpt lat="45.77245" lon="6.59051">
        <ele>1943</ele>
        <time>2022-07-24T08:49:11Z</time>
      </trkpt>
      <trkpt lat="45.77246" lon="6.59053">
        <ele>1943</ele>
        <time>2022-07-24T08:49:12Z</time>
      </trkpt>
      <trkpt lat="45.77247" lon="6.59054">
        <ele>1943</ele>
        <time>2022-07-24T08:49:13Z</time>
      </trkpt>
      <trkpt lat="45.77248" lon="6.59055">
        <ele>1943</ele>
        <time>2022-07-24T08:49:14Z</time>
      </trkpt>
      <trkpt lat="45.77248" lon="6.59057">
        <ele>1943</ele>
        <time>2022-07-24T08:49:15Z</time>
      </trkpt>
      <trkpt lat="45.77249" lon="6.59058">
        <ele>1943</ele>
        <time>2022-07-24T08:49:16Z</time>
      </trkpt>
      <trkpt lat="45.7725" lon="6.59059">
        <ele>1943</ele>
        <time>2022-07-24T08:49:17Z</time>
      </trkpt>
      <trkpt lat="45.77251" lon="6.59061">
        <ele>1943</ele>
        <time>2022-07-24T08:49:18Z</time>
      </trkpt>
      <trkpt lat="45.77252" lon="6.59062">
        <ele>1943</ele>
        <time>2022-07-24T08:49:19Z</time>
      </trkpt>
      <trkpt lat="45.77252" lon="6.59063">
        <ele>1943</ele>
        <time>2022-07-24T08:49:20Z</time>
      </trkpt>
      <trkpt lat="45.77253" lon="6.59065">
        <ele>1943</ele>
        <time>2022-07-24T08:49:21Z</time>
      </trkpt>
      <trkpt lat="45.77254" lon="6.59066">
        <ele>1943</ele>
        <time>2022-07-24T08:49:22Z</time>
      </trkpt>
      <trkpt lat="45.77254" lon="6.59067">
        <ele>1943</ele>
        <time>2022-07-24T08:49:23Z</time>
      </trkpt>
      <trkpt lat="45.77255" lon="6.59068">
        <ele>1943</ele>
        <time>2022-07-24T08:49:24Z</time>
      </trkpt>
      <trkpt lat="45.77256" lon="6.5907">
        <ele>1943</ele>
        <time>2022-07-24T08:49:25Z</time>
      </trkpt>
      <trkpt lat="45.77256" lon="6.59071">
        <ele>1943</ele>
        <time>2022-07-24T08:49:26Z</time>
      </trkpt>
      <trkpt lat="45.77257" lon="6.59072">
        <ele>1943</ele>
        <time>2022-07-24T08:49:27Z</time>
      </trkpt>
      <trkpt lat="45.77258" lon="6.59073">
        <ele>1943</ele>
        <time>2022-07-24T08:49:28Z</time>
      </trkpt>
      <trkpt lat="45.77258" lon="6.59075">
        <ele>1944</ele>
        <time>2022-07-24T08:49:29Z</time>
      </trkpt>
      <trkpt lat="45.77259" lon="6.59076">
        <ele>1944</ele>
        <time>2022-07-24T08:49:30Z</time>
      </trkpt>
      <trkpt lat="45.7726" lon="6.59077">
        <ele>1945</ele>
        <time>2022-07-24T08:49:31Z</time>
      </trkpt>
      <trkpt lat="45.7726" lon="6.59079">
        <ele>1945</ele>
        <time>2022-07-24T08:49:32Z</time>
      </trkpt>
      <trkpt lat="45.77261" lon="6.5908">
        <ele>1945</ele>
        <time>2022-07-24T08:49:33Z</time>
      </trkpt>
      <trkpt lat="45.77262" lon="6.59081">
        <ele>1945</ele>
        <time>2022-07-24T08:49:34Z</time>
      </trkpt>
      <trkpt lat="45.77263" lon="6.59082">
        <ele>1945</ele>
        <time>2022-07-24T08:49:35Z</time>
      </trkpt>
      <trkpt lat="45.77264" lon="6.59083">
        <ele>1945</ele>
        <time>2022-07-24T08:49:36Z</time>
      </trkpt>
      <trkpt lat="45.77264" lon="6.59085">
        <ele>1945</ele>
        <time>2022-07-24T08:49:37Z</time>
      </trkpt>
      <trkpt lat="45.77265" lon="6.59086">
        <ele>1945</ele>
        <time>2022-07-24T08:49:38Z</time>
      </trkpt>
      <trkpt lat="45.77266" lon="6.59087">
        <ele>1945</ele>
        <time>2022-07-24T08:49:39Z</time>
      </trkpt>
      <trkpt lat="45.77266" lon="6.59088">
        <ele>1945</ele>
        <time>2022-07-24T08:49:40Z</time>
      </trkpt>
      <trkpt lat="45.77267" lon="6.59089">
        <ele>1945</ele>
        <time>2022-07-24T08:49:41Z</time>
      </trkpt>
      <trkpt lat="45.77268" lon="6.5909">
        <ele>1945</ele>
        <time>2022-07-24T08:49:42Z</time>
      </trkpt>
      <trkpt lat="45.77269" lon="6.59091">
        <ele>1945</ele>
        <time>2022-07-24T08:49:43Z</time>
      </trkpt>
      <trkpt lat="45.7727" lon="6.59092">
        <ele>1945</ele>
        <time>2022-07-24T08:49:44Z</time>
      </trkpt>
      <trkpt lat="45.77271" lon="6.59094">
        <ele>1945</ele>
        <time>2022-07-24T08:49:45Z</time>
      </trkpt>
      <trkpt lat="45.77271" lon="6.59095">
        <ele>1945</ele>
        <time>2022-07-24T08:49:46Z</time>
      </trkpt>
      <trkpt lat="45.77272" lon="6.59096">
        <ele>1945</ele>
        <time>2022-07-24T08:49:47Z</time>
      </trkpt>
      <trkpt lat="45.77273" lon="6.59097">
        <ele>1945</ele>
        <time>2022-07-24T08:49:48Z</time>
      </trkpt>
      <trkpt lat="45.77274" lon="6.59099">
        <ele>1945</ele>
        <time>2022-07-24T08:49:49Z</time>
      </trkpt>
      <trkpt lat="45.77275" lon="6.591">
        <ele>1945</ele>
        <time>2022-07-24T08:49:50Z</time>
      </trkpt>
      <trkpt lat="45.77275" lon="6.59101">
        <ele>1945</ele>
        <time>2022-07-24T08:49:51Z</time>
      </trkpt>
      <trkpt lat="45.77276" lon="6.59103">
        <ele>1945</ele>
        <time>2022-07-24T08:49:52Z</time>
      </trkpt>
      <trkpt lat="45.77277" lon="6.59104">
        <ele>1945</ele>
        <time>2022-07-24T08:49:53Z</time>
      </trkpt>
      <trkpt lat="45.77278" lon="6.59105">
        <ele>1945</ele>
        <time>2022-07-24T08:49:54Z</time>
      </trkpt>
      <trkpt lat="45.77279" lon="6.59106">
        <ele>1945</ele>
        <time>2022-07-24T08:49:55Z</time>
      </trkpt>
      <trkpt lat="45.7728" lon="6.59108">
        <ele>1945</ele>
        <time>2022-07-24T08:49:56Z</time>
      </trkpt>
      <trkpt lat="45.7728" lon="6.59109">
        <ele>1945</ele>
        <time>2022-07-24T08:49:57Z</time>
      </trkpt>
      <trkpt lat="45.77281" lon="6.5911">
        <ele>1945</ele>
        <time>2022-07-24T08:49:58Z</time>
      </trkpt>
      <trkpt lat="45.77282" lon="6.59111">
        <ele>1945</ele>
        <time>2022-07-24T08:49:59Z</time>
      </trkpt>
      <trkpt lat="45.77283" lon="6.59113">
        <ele>1945</ele>
        <time>2022-07-24T08:50:00Z</time>
      </trkpt>
      <trkpt lat="45.77283" lon="6.59114">
        <ele>1945</ele>
        <time>2022-07-24T08:50:01Z</time>
      </trkpt>
      <trkpt lat="45.77284" lon="6.59115">
        <ele>1945</ele>
        <time>2022-07-24T08:50:02Z</time>
      </trkpt>
      <trkpt lat="45.77285" lon="6.59116">
        <ele>1945</ele>
        <time>2022-07-24T08:50:03Z</time>
      </trkpt>
      <trkpt lat="45.77286" lon="6.59117">
        <ele>1945</ele>
        <time>2022-07-24T08:50:04Z</time>
      </trkpt>
      <trkpt lat="45.77286" lon="6.59119">
        <ele>1945</ele>
        <time>2022-07-24T08:50:05Z</time>
      </trkpt>
      <trkpt lat="45.77287" lon="6.5912">
        <ele>1945</ele>
        <time>2022-07-24T08:50:06Z</time>
      </trkpt>
      <trkpt lat="45.77288" lon="6.59121">
        <ele>1945</ele>
        <time>2022-07-24T08:50:07Z</time>
      </trkpt>
      <trkpt lat="45.77289" lon="6.59122">
        <ele>1945</ele>
        <time>2022-07-24T08:50:08Z</time>
      </trkpt>
      <trkpt lat="45.7729" lon="6.59123">
        <ele>1945</ele>
        <time>2022-07-24T08:50:09Z</time>
      </trkpt>
      <trkpt lat="45.7729" lon="6.59124">
        <ele>1945</ele>
        <time>2022-07-24T08:50:10Z</time>
      </trkpt>
      <trkpt lat="45.77291" lon="6.59125">
        <ele>1945</ele>
        <time>2022-07-24T08:50:11Z</time>
      </trkpt>
      <trkpt lat="45.77291" lon="6.59126">
        <ele>1945</ele>
        <time>2022-07-24T08:50:12Z</time>
      </trkpt>
      <trkpt lat="45.77292" lon="6.59127">
        <ele>1945</ele>
        <time>2022-07-24T08:50:13Z</time>
      </trkpt>
      <trkpt lat="45.77292" lon="6.59128">
        <ele>1945</ele>
        <time>2022-07-24T08:50:14Z</time>
      </trkpt>
      <trkpt lat="45.77293" lon="6.59129">
        <ele>1945</ele>
        <time>2022-07-24T08:50:15Z</time>
      </trkpt>
      <trkpt lat="45.77294" lon="6.5913">
        <ele>1945</ele>
        <time>2022-07-24T08:50:16Z</time>
      </trkpt>
      <trkpt lat="45.77295" lon="6.59131">
        <ele>1945</ele>
        <time>2022-07-24T08:50:17Z</time>
      </trkpt>
      <trkpt lat="45.77296" lon="6.59132">
        <ele>1945</ele>
        <time>2022-07-24T08:50:18Z</time>
      </trkpt>
      <trkpt lat="45.77296" lon="6.59133">
        <ele>1945</ele>
        <time>2022-07-24T08:50:19Z</time>
      </trkpt>
      <trkpt lat="45.77297" lon="6.59134">
        <ele>1945</ele>
        <time>2022-07-24T08:50:20Z</time>
      </trkpt>
      <trkpt lat="45.77298" lon="6.59135">
        <ele>1945</ele>
        <time>2022-07-24T08:50:21Z</time>
      </trkpt>
      <trkpt lat="45.77299" lon="6.59136">
        <ele>1945</ele>
        <time>2022-07-24T08:50:22Z</time>
      </trkpt>
      <trkpt lat="45.773" lon="6.59137">
        <ele>1945</ele>
        <time>2022-07-24T08:50:23Z</time>
      </trkpt>
      <trkpt lat="45.77302" lon="6.59138">
        <ele>1945</ele>
        <time>2022-07-24T08:50:24Z</time>
      </trkpt>
      <trkpt lat="45.77303" lon="6.59139">
        <ele>1945</ele>
        <time>2022-07-24T08:50:25Z</time>
      </trkpt>
      <trkpt lat="45.77304" lon="6.5914">
        <ele>1945</ele>
        <time>2022-07-24T08:50:26Z</time>
      </trkpt>
      <trkpt lat="45.77305" lon="6.59141">
        <ele>1945</ele>
        <time>2022-07-24T08:50:27Z</time>
      </trkpt>
      <trkpt lat="45.77306" lon="6.59142">
        <ele>1945</ele>
        <time>2022-07-24T08:50:28Z</time>
      </trkpt>
      <trkpt lat="45.77307" lon="6.59142">
        <ele>1945</ele>
        <time>2022-07-24T08:50:29Z</time>
      </trkpt>
      <trkpt lat="45.77308" lon="6.59143">
        <ele>1945</ele>
        <time>2022-07-24T08:50:30Z</time>
      </trkpt>
      <trkpt lat="45.77309" lon="6.59144">
        <ele>1945</ele>
        <time>2022-07-24T08:50:31Z</time>
      </trkpt>
      <trkpt lat="45.7731" lon="6.59144">
        <ele>1945</ele>
        <time>2022-07-24T08:50:32Z</time>
      </trkpt>
      <trkpt lat="45.77311" lon="6.59145">
        <ele>1945</ele>
        <time>2022-07-24T08:50:33Z</time>
      </trkpt>
      <trkpt lat="45.77312" lon="6.59146">
        <ele>1945</ele>
        <time>2022-07-24T08:50:34Z</time>
      </trkpt>
      <trkpt lat="45.77313" lon="6.59146">
        <ele>1945</ele>
        <time>2022-07-24T08:50:35Z</time>
      </trkpt>
      <trkpt lat="45.77314" lon="6.59147">
        <ele>1945</ele>
        <time>2022-07-24T08:50:36Z</time>
      </trkpt>
      <trkpt lat="45.77315" lon="6.59148">
        <ele>1945</ele>
        <time>2022-07-24T08:50:37Z</time>
      </trkpt>
      <trkpt lat="45.77316" lon="6.59149">
        <ele>1945</ele>
        <time>2022-07-24T08:50:38Z</time>
      </trkpt>
      <trkpt lat="45.77317" lon="6.59149">
        <ele>1945</ele>
        <time>2022-07-24T08:50:39Z</time>
      </trkpt>
      <trkpt lat="45.77319" lon="6.5915">
        <ele>1945</ele>
        <time>2022-07-24T08:50:40Z</time>
      </trkpt>
      <trkpt lat="45.7732" lon="6.5915">
        <ele>1945</ele>
        <time>2022-07-24T08:50:41Z</time>
      </trkpt>
      <trkpt lat="45.77321" lon="6.59151">
        <ele>1945</ele>
        <time>2022-07-24T08:50:42Z</time>
      </trkpt>
      <trkpt lat="45.77322" lon="6.59152">
        <ele>1945</ele>
        <time>2022-07-24T08:50:43Z</time>
      </trkpt>
      <trkpt lat="45.77323" lon="6.59152">
        <ele>1945</ele>
        <time>2022-07-24T08:50:44Z</time>
      </trkpt>
      <trkpt lat="45.77324" lon="6.59153">
        <ele>1945</ele>
        <time>2022-07-24T08:50:45Z</time>
      </trkpt>
      <trkpt lat="45.77325" lon="6.59154">
        <ele>1945</ele>
        <time>2022-07-24T08:50:46Z</time>
      </trkpt>
      <trkpt lat="45.77327" lon="6.59154">
        <ele>1945</ele>
        <time>2022-07-24T08:50:47Z</time>
      </trkpt>
      <trkpt lat="45.77328" lon="6.59155">
        <ele>1945</ele>
        <time>2022-07-24T08:50:48Z</time>
      </trkpt>
      <trkpt lat="45.77329" lon="6.59155">
        <ele>1945</ele>
        <time>2022-07-24T08:50:49Z</time>
      </trkpt>
      <trkpt lat="45.7733" lon="6.59156">
        <ele>1945</ele>
        <time>2022-07-24T08:50:50Z</time>
      </trkpt>
      <trkpt lat="45.77331" lon="6.59156">
        <ele>1945</ele>
        <time>2022-07-24T08:50:51Z</time>
      </trkpt>
      <trkpt lat="45.77332" lon="6.59157">
        <ele>1945</ele>
        <time>2022-07-24T08:50:52Z</time>
      </trkpt>
      <trkpt lat="45.77333" lon="6.59157">
        <ele>1945</ele>
        <time>2022-07-24T08:50:53Z</time>
      </trkpt>
      <trkpt lat="45.77334" lon="6.59158">
        <ele>1945</ele>
        <time>2022-07-24T08:50:54Z</time>
      </trkpt>
      <trkpt lat="45.77335" lon="6.59158">
        <ele>1945</ele>
        <time>2022-07-24T08:50:55Z</time>
      </trkpt>
      <trkpt lat="45.77335" lon="6.59159">
        <ele>1945</ele>
        <time>2022-07-24T08:50:56Z</time>
      </trkpt>
      <trkpt lat="45.77336" lon="6.5916">
        <ele>1945</ele>
        <time>2022-07-24T08:50:57Z</time>
      </trkpt>
      <trkpt lat="45.77337" lon="6.5916">
        <ele>1945</ele>
        <time>2022-07-24T08:50:58Z</time>
      </trkpt>
      <trkpt lat="45.77338" lon="6.59161">
        <ele>1945</ele>
        <time>2022-07-24T08:50:59Z</time>
      </trkpt>
      <trkpt lat="45.77339" lon="6.59162">
        <ele>1945</ele>
        <time>2022-07-24T08:51:00Z</time>
      </trkpt>
      <trkpt lat="45.7734" lon="6.59162">
        <ele>1946</ele>
        <time>2022-07-24T08:51:01Z</time>
      </trkpt>
      <trkpt lat="45.77341" lon="6.59163">
        <ele>1946</ele>
        <time>2022-07-24T08:51:02Z</time>
      </trkpt>
      <trkpt lat="45.77342" lon="6.59164">
        <ele>1946</ele>
        <time>2022-07-24T08:51:03Z</time>
      </trkpt>
      <trkpt lat="45.77343" lon="6.59164">
        <ele>1946</ele>
        <time>2022-07-24T08:51:04Z</time>
      </trkpt>
      <trkpt lat="45.77344" lon="6.59165">
        <ele>1946</ele>
        <time>2022-07-24T08:51:05Z</time>
      </trkpt>
      <trkpt lat="45.77345" lon="6.59166">
        <ele>1946</ele>
        <time>2022-07-24T08:51:06Z</time>
      </trkpt>
      <trkpt lat="45.77346" lon="6.59167">
        <ele>1946</ele>
        <time>2022-07-24T08:51:07Z</time>
      </trkpt>
      <trkpt lat="45.77348" lon="6.59168">
        <ele>1946</ele>
        <time>2022-07-24T08:51:08Z</time>
      </trkpt>
      <trkpt lat="45.77349" lon="6.59168">
        <ele>1946</ele>
        <time>2022-07-24T08:51:09Z</time>
      </trkpt>
      <trkpt lat="45.7735" lon="6.59169">
        <ele>1946</ele>
        <time>2022-07-24T08:51:10Z</time>
      </trkpt>
      <trkpt lat="45.77351" lon="6.5917">
        <ele>1946</ele>
        <time>2022-07-24T08:51:11Z</time>
      </trkpt>
      <trkpt lat="45.77351" lon="6.59172">
        <ele>1946</ele>
        <time>2022-07-24T08:51:12Z</time>
      </trkpt>
      <trkpt lat="45.77352" lon="6.59173">
        <ele>1946</ele>
        <time>2022-07-24T08:51:13Z</time>
      </trkpt>
      <trkpt lat="45.77353" lon="6.59174">
        <ele>1946</ele>
        <time>2022-07-24T08:51:14Z</time>
      </trkpt>
      <trkpt lat="45.77354" lon="6.59175">
        <ele>1946</ele>
        <time>2022-07-24T08:51:15Z</time>
      </trkpt>
      <trkpt lat="45.77355" lon="6.59176">
        <ele>1946</ele>
        <time>2022-07-24T08:51:16Z</time>
      </trkpt>
      <trkpt lat="45.77356" lon="6.59177">
        <ele>1946</ele>
        <time>2022-07-24T08:51:17Z</time>
      </trkpt>
      <trkpt lat="45.77357" lon="6.59178">
        <ele>1946</ele>
        <time>2022-07-24T08:51:18Z</time>
      </trkpt>
      <trkpt lat="45.77357" lon="6.5918">
        <ele>1946</ele>
        <time>2022-07-24T08:51:19Z</time>
      </trkpt>
      <trkpt lat="45.77358" lon="6.59181">
        <ele>1946</ele>
        <time>2022-07-24T08:51:20Z</time>
      </trkpt>
      <trkpt lat="45.77359" lon="6.59182">
        <ele>1946</ele>
        <time>2022-07-24T08:51:21Z</time>
      </trkpt>
      <trkpt lat="45.77359" lon="6.59183">
        <ele>1946</ele>
        <time>2022-07-24T08:51:22Z</time>
      </trkpt>
      <trkpt lat="45.7736" lon="6.59185">
        <ele>1946</ele>
        <time>2022-07-24T08:51:23Z</time>
      </trkpt>
      <trkpt lat="45.77361" lon="6.59186">
        <ele>1946</ele>
        <time>2022-07-24T08:51:24Z</time>
      </trkpt>
      <trkpt lat="45.77362" lon="6.59187">
        <ele>1946</ele>
        <time>2022-07-24T08:51:25Z</time>
      </trkpt>
      <trkpt lat="45.77363" lon="6.59188">
        <ele>1946</ele>
        <time>2022-07-24T08:51:26Z</time>
      </trkpt>
      <trkpt lat="45.77363" lon="6.5919">
        <ele>1946</ele>
        <time>2022-07-24T08:51:27Z</time>
      </trkpt>
      <trkpt lat="45.77364" lon="6.59191">
        <ele>1946</ele>
        <time>2022-07-24T08:51:28Z</time>
      </trkpt>
      <trkpt lat="45.77365" lon="6.59192">
        <ele>1946</ele>
        <time>2022-07-24T08:51:29Z</time>
      </trkpt>
      <trkpt lat="45.77366" lon="6.59193">
        <ele>1946</ele>
        <time>2022-07-24T08:51:30Z</time>
      </trkpt>
      <trkpt lat="45.77367" lon="6.59194">
        <ele>1946</ele>
        <time>2022-07-24T08:51:31Z</time>
      </trkpt>
      <trkpt lat="45.77368" lon="6.59195">
        <ele>1946</ele>
        <time>2022-07-24T08:51:32Z</time>
      </trkpt>
      <trkpt lat="45.77368" lon="6.59196">
        <ele>1946</ele>
        <time>2022-07-24T08:51:33Z</time>
      </trkpt>
      <trkpt lat="45.77369" lon="6.59196">
        <ele>1946</ele>
        <time>2022-07-24T08:51:34Z</time>
      </trkpt>
      <trkpt lat="45.7737" lon="6.59197">
        <ele>1946</ele>
        <time>2022-07-24T08:51:35Z</time>
      </trkpt>
      <trkpt lat="45.77371" lon="6.59198">
        <ele>1946</ele>
        <time>2022-07-24T08:51:36Z</time>
      </trkpt>
      <trkpt lat="45.77372" lon="6.59199">
        <ele>1946</ele>
        <time>2022-07-24T08:51:37Z</time>
      </trkpt>
      <trkpt lat="45.77373" lon="6.592">
        <ele>1946</ele>
        <time>2022-07-24T08:51:38Z</time>
      </trkpt>
      <trkpt lat="45.77374" lon="6.59201">
        <ele>1946</ele>
        <time>2022-07-24T08:51:39Z</time>
      </trkpt>
      <trkpt lat="45.77375" lon="6.59202">
        <ele>1946</ele>
        <time>2022-07-24T08:51:40Z</time>
      </trkpt>
      <trkpt lat="45.77376" lon="6.59203">
        <ele>1946</ele>
        <time>2022-07-24T08:51:41Z</time>
      </trkpt>
      <trkpt lat="45.77377" lon="6.59204">
        <ele>1946</ele>
        <time>2022-07-24T08:51:42Z</time>
      </trkpt>
      <trkpt lat="45.77378" lon="6.59205">
        <ele>1946</ele>
        <time>2022-07-24T08:51:43Z</time>
      </trkpt>
      <trkpt lat="45.77379" lon="6.59205">
        <ele>1946</ele>
        <time>2022-07-24T08:51:44Z</time>
      </trkpt>
      <trkpt lat="45.7738" lon="6.59206">
        <ele>1946</ele>
        <time>2022-07-24T08:51:45Z</time>
      </trkpt>
      <trkpt lat="45.77381" lon="6.59207">
        <ele>1946</ele>
        <time>2022-07-24T08:51:46Z</time>
      </trkpt>
      <trkpt lat="45.77382" lon="6.59208">
        <ele>1946</ele>
        <time>2022-07-24T08:51:47Z</time>
      </trkpt>
      <trkpt lat="45.77383" lon="6.59208">
        <ele>1946</ele>
        <time>2022-07-24T08:51:48Z</time>
      </trkpt>
      <trkpt lat="45.77384" lon="6.59209">
        <ele>1946</ele>
        <time>2022-07-24T08:51:49Z</time>
      </trkpt>
      <trkpt lat="45.77385" lon="6.59209">
        <ele>1946</ele>
        <time>2022-07-24T08:51:50Z</time>
      </trkpt>
      <trkpt lat="45.77386" lon="6.5921">
        <ele>1946</ele>
        <time>2022-07-24T08:51:51Z</time>
      </trkpt>
      <trkpt lat="45.77387" lon="6.5921">
        <ele>1946</ele>
        <time>2022-07-24T08:51:52Z</time>
      </trkpt>
      <trkpt lat="45.77388" lon="6.59211">
        <ele>1946</ele>
        <time>2022-07-24T08:51:53Z</time>
      </trkpt>
      <trkpt lat="45.77389" lon="6.59211">
        <ele>1946</ele>
        <time>2022-07-24T08:51:54Z</time>
      </trkpt>
      <trkpt lat="45.7739" lon="6.59212">
        <ele>1946</ele>
        <time>2022-07-24T08:52:10Z</time>
      </trkpt>
      <trkpt lat="45.77391" lon="6.59213">
        <ele>1946</ele>
        <time>2022-07-24T08:52:11Z</time>
      </trkpt>
      <trkpt lat="45.77391" lon="6.59213">
        <ele>1946</ele>
        <time>2022-07-24T08:52:12Z</time>
      </trkpt>
      <trkpt lat="45.77392" lon="6.59213">
        <ele>1946</ele>
        <time>2022-07-24T08:52:13Z</time>
      </trkpt>
      <trkpt lat="45.77392" lon="6.59213">
        <ele>1946</ele>
        <time>2022-07-24T08:52:14Z</time>
      </trkpt>
      <trkpt lat="45.77393" lon="6.59213">
        <ele>1946</ele>
        <time>2022-07-24T08:52:15Z</time>
      </trkpt>
      <trkpt lat="45.77394" lon="6.59212">
        <ele>1946</ele>
        <time>2022-07-24T08:52:16Z</time>
      </trkpt>
      <trkpt lat="45.77395" lon="6.59212">
        <ele>1946</ele>
        <time>2022-07-24T08:52:17Z</time>
      </trkpt>
      <trkpt lat="45.77396" lon="6.59212">
        <ele>1946</ele>
        <time>2022-07-24T08:52:18Z</time>
      </trkpt>
      <trkpt lat="45.77397" lon="6.59212">
        <ele>1946</ele>
        <time>2022-07-24T08:52:19Z</time>
      </trkpt>
      <trkpt lat="45.77398" lon="6.59211">
        <ele>1946</ele>
        <time>2022-07-24T08:52:20Z</time>
      </trkpt>
      <trkpt lat="45.77399" lon="6.59211">
        <ele>1946</ele>
        <time>2022-07-24T08:52:21Z</time>
      </trkpt>
      <trkpt lat="45.774" lon="6.59211">
        <ele>1946</ele>
        <time>2022-07-24T08:52:22Z</time>
      </trkpt>
      <trkpt lat="45.77401" lon="6.59211">
        <ele>1946</ele>
        <time>2022-07-24T08:52:23Z</time>
      </trkpt>
      <trkpt lat="45.77402" lon="6.59211">
        <ele>1946</ele>
        <time>2022-07-24T08:52:24Z</time>
      </trkpt>
      <trkpt lat="45.77403" lon="6.59211">
        <ele>1946</ele>
        <time>2022-07-24T08:52:25Z</time>
      </trkpt>
      <trkpt lat="45.77404" lon="6.59211">
        <ele>1946</ele>
        <time>2022-07-24T08:52:26Z</time>
      </trkpt>
      <trkpt lat="45.77406" lon="6.59211">
        <ele>1946</ele>
        <time>2022-07-24T08:52:27Z</time>
      </trkpt>
      <trkpt lat="45.77407" lon="6.59211">
        <ele>1946</ele>
        <time>2022-07-24T08:52:28Z</time>
      </trkpt>
      <trkpt lat="45.77408" lon="6.59211">
        <ele>1946</ele>
        <time>2022-07-24T08:52:29Z</time>
      </trkpt>
      <trkpt lat="45.77409" lon="6.59211">
        <ele>1946</ele>
        <time>2022-07-24T08:52:30Z</time>
      </trkpt>
      <trkpt lat="45.7741" lon="6.59211">
        <ele>1946</ele>
        <time>2022-07-24T08:52:31Z</time>
      </trkpt>
      <trkpt lat="45.77411" lon="6.59211">
        <ele>1946</ele>
        <time>2022-07-24T08:52:32Z</time>
      </trkpt>
      <trkpt lat="45.77412" lon="6.59211">
        <ele>1946</ele>
        <time>2022-07-24T08:52:33Z</time>
      </trkpt>
      <trkpt lat="45.77413" lon="6.5921">
        <ele>1946</ele>
        <time>2022-07-24T08:52:34Z</time>
      </trkpt>
      <trkpt lat="45.77414" lon="6.5921">
        <ele>1946</ele>
        <time>2022-07-24T08:52:35Z</time>
      </trkpt>
      <trkpt lat="45.77415" lon="6.5921">
        <ele>1946</ele>
        <time>2022-07-24T08:52:36Z</time>
      </trkpt>
      <trkpt lat="45.77416" lon="6.5921">
        <ele>1946</ele>
        <time>2022-07-24T08:52:37Z</time>
      </trkpt>
      <trkpt lat="45.77417" lon="6.59209">
        <ele>1946</ele>
        <time>2022-07-24T08:52:38Z</time>
      </trkpt>
      <trkpt lat="45.77418" lon="6.59209">
        <ele>1946</ele>
        <time>2022-07-24T08:52:39Z</time>
      </trkpt>
      <trkpt lat="45.77419" lon="6.59209">
        <ele>1946</ele>
        <time>2022-07-24T08:52:40Z</time>
      </trkpt>
      <trkpt lat="45.7742" lon="6.59208">
        <ele>1946</ele>
        <time>2022-07-24T08:52:41Z</time>
      </trkpt>
      <trkpt lat="45.77422" lon="6.59208">
        <ele>1946</ele>
        <time>2022-07-24T08:52:42Z</time>
      </trkpt>
      <trkpt lat="45.77423" lon="6.59208">
        <ele>1946</ele>
        <time>2022-07-24T08:52:43Z</time>
      </trkpt>
      <trkpt lat="45.77424" lon="6.59208">
        <ele>1946</ele>
        <time>2022-07-24T08:52:44Z</time>
      </trkpt>
      <trkpt lat="45.77425" lon="6.59207">
        <ele>1946</ele>
        <time>2022-07-24T08:52:45Z</time>
      </trkpt>
      <trkpt lat="45.77426" lon="6.59207">
        <ele>1947</ele>
        <time>2022-07-24T08:52:46Z</time>
      </trkpt>
      <trkpt lat="45.77427" lon="6.59207">
        <ele>1946</ele>
        <time>2022-07-24T08:52:47Z</time>
      </trkpt>
      <trkpt lat="45.77428" lon="6.59206">
        <ele>1946</ele>
        <time>2022-07-24T08:52:48Z</time>
      </trkpt>
      <trkpt lat="45.77429" lon="6.59206">
        <ele>1946</ele>
        <time>2022-07-24T08:52:49Z</time>
      </trkpt>
      <trkpt lat="45.7743" lon="6.59205">
        <ele>1946</ele>
        <time>2022-07-24T08:52:50Z</time>
      </trkpt>
      <trkpt lat="45.77432" lon="6.59205">
        <ele>1946</ele>
        <time>2022-07-24T08:52:51Z</time>
      </trkpt>
      <trkpt lat="45.77433" lon="6.59205">
        <ele>1946</ele>
        <time>2022-07-24T08:52:52Z</time>
      </trkpt>
      <trkpt lat="45.77434" lon="6.59204">
        <ele>1946</ele>
        <time>2022-07-24T08:52:53Z</time>
      </trkpt>
      <trkpt lat="45.77435" lon="6.59204">
        <ele>1946</ele>
        <time>2022-07-24T08:52:54Z</time>
      </trkpt>
      <trkpt lat="45.77436" lon="6.59204">
        <ele>1946</ele>
        <time>2022-07-24T08:52:55Z</time>
      </trkpt>
      <trkpt lat="45.77437" lon="6.59204">
        <ele>1946</ele>
        <time>2022-07-24T08:52:56Z</time>
      </trkpt>
      <trkpt lat="45.77439" lon="6.59203">
        <ele>1946</ele>
        <time>2022-07-24T08:52:57Z</time>
      </trkpt>
      <trkpt lat="45.7744" lon="6.59203">
        <ele>1946</ele>
        <time>2022-07-24T08:52:58Z</time>
      </trkpt>
      <trkpt lat="45.77441" lon="6.59203">
        <ele>1946</ele>
        <time>2022-07-24T08:52:59Z</time>
      </trkpt>
      <trkpt lat="45.77442" lon="6.59203">
        <ele>1946</ele>
        <time>2022-07-24T08:53:00Z</time>
      </trkpt>
      <trkpt lat="45.77443" lon="6.59202">
        <ele>1946</ele>
        <time>2022-07-24T08:53:01Z</time>
      </trkpt>
      <trkpt lat="45.77444" lon="6.59202">
        <ele>1946</ele>
        <time>2022-07-24T08:53:02Z</time>
      </trkpt>
      <trkpt lat="45.77445" lon="6.59202">
        <ele>1946</ele>
        <time>2022-07-24T08:53:03Z</time>
      </trkpt>
      <trkpt lat="45.77446" lon="6.59201">
        <ele>1946</ele>
        <time>2022-07-24T08:53:04Z</time>
      </trkpt>
      <trkpt lat="45.77448" lon="6.59201">
        <ele>1946</ele>
        <time>2022-07-24T08:53:05Z</time>
      </trkpt>
      <trkpt lat="45.77449" lon="6.59201">
        <ele>1947</ele>
        <time>2022-07-24T08:53:06Z</time>
      </trkpt>
      <trkpt lat="45.7745" lon="6.592">
        <ele>1947</ele>
        <time>2022-07-24T08:53:07Z</time>
      </trkpt>
      <trkpt lat="45.77451" lon="6.592">
        <ele>1947</ele>
        <time>2022-07-24T08:53:08Z</time>
      </trkpt>
      <trkpt lat="45.77452" lon="6.592">
        <ele>1947</ele>
        <time>2022-07-24T08:53:09Z</time>
      </trkpt>
      <trkpt lat="45.77453" lon="6.59199">
        <ele>1947</ele>
        <time>2022-07-24T08:53:10Z</time>
      </trkpt>
      <trkpt lat="45.77454" lon="6.59199">
        <ele>1947</ele>
        <time>2022-07-24T08:53:11Z</time>
      </trkpt>
      <trkpt lat="45.77455" lon="6.59199">
        <ele>1947</ele>
        <time>2022-07-24T08:53:12Z</time>
      </trkpt>
      <trkpt lat="45.77456" lon="6.59199">
        <ele>1947</ele>
        <time>2022-07-24T08:53:13Z</time>
      </trkpt>
      <trkpt lat="45.77457" lon="6.59198">
        <ele>1947</ele>
        <time>2022-07-24T08:53:14Z</time>
      </trkpt>
      <trkpt lat="45.77458" lon="6.59198">
        <ele>1947</ele>
        <time>2022-07-24T08:53:15Z</time>
      </trkpt>
      <trkpt lat="45.77459" lon="6.59198">
        <ele>1947</ele>
        <time>2022-07-24T08:53:16Z</time>
      </trkpt>
      <trkpt lat="45.7746" lon="6.59198">
        <ele>1947</ele>
        <time>2022-07-24T08:53:17Z</time>
      </trkpt>
      <trkpt lat="45.77461" lon="6.59198">
        <ele>1947</ele>
        <time>2022-07-24T08:53:18Z</time>
      </trkpt>
      <trkpt lat="45.77462" lon="6.59197">
        <ele>1947</ele>
        <time>2022-07-24T08:53:19Z</time>
      </trkpt>
      <trkpt lat="45.77463" lon="6.59197">
        <ele>1947</ele>
        <time>2022-07-24T08:53:20Z</time>
      </trkpt>
      <trkpt lat="45.77464" lon="6.59197">
        <ele>1947</ele>
        <time>2022-07-24T08:53:21Z</time>
      </trkpt>
      <trkpt lat="45.77465" lon="6.59197">
        <ele>1947</ele>
        <time>2022-07-24T08:53:22Z</time>
      </trkpt>
      <trkpt lat="45.77466" lon="6.59196">
        <ele>1947</ele>
        <time>2022-07-24T08:53:23Z</time>
      </trkpt>
      <trkpt lat="45.77467" lon="6.59196">
        <ele>1947</ele>
        <time>2022-07-24T08:53:24Z</time>
      </trkpt>
      <trkpt lat="45.77468" lon="6.59196">
        <ele>1947</ele>
        <time>2022-07-24T08:53:25Z</time>
      </trkpt>
      <trkpt lat="45.77469" lon="6.59196">
        <ele>1947</ele>
        <time>2022-07-24T08:53:26Z</time>
      </trkpt>
      <trkpt lat="45.7747" lon="6.59196">
        <ele>1947</ele>
        <time>2022-07-24T08:53:27Z</time>
      </trkpt>
      <trkpt lat="45.77472" lon="6.59195">
        <ele>1947</ele>
        <time>2022-07-24T08:53:28Z</time>
      </trkpt>
      <trkpt lat="45.77473" lon="6.59195">
        <ele>1947</ele>
        <time>2022-07-24T08:53:29Z</time>
      </trkpt>
      <trkpt lat="45.77474" lon="6.59195">
        <ele>1947</ele>
        <time>2022-07-24T08:53:30Z</time>
      </trkpt>
      <trkpt lat="45.77475" lon="6.59195">
        <ele>1947</ele>
        <time>2022-07-24T08:53:31Z</time>
      </trkpt>
      <trkpt lat="45.77476" lon="6.59196">
        <ele>1947</ele>
        <time>2022-07-24T08:53:32Z</time>
      </trkpt>
      <trkpt lat="45.77477" lon="6.59196">
        <ele>1947</ele>
        <time>2022-07-24T08:53:33Z</time>
      </trkpt>
      <trkpt lat="45.77479" lon="6.59196">
        <ele>1947</ele>
        <time>2022-07-24T08:53:34Z</time>
      </trkpt>
      <trkpt lat="45.7748" lon="6.59196">
        <ele>1947</ele>
        <time>2022-07-24T08:53:35Z</time>
      </trkpt>
      <trkpt lat="45.77481" lon="6.59196">
        <ele>1947</ele>
        <time>2022-07-24T08:53:36Z</time>
      </trkpt>
      <trkpt lat="45.77482" lon="6.59196">
        <ele>1947</ele>
        <time>2022-07-24T08:53:37Z</time>
      </trkpt>
      <trkpt lat="45.77483" lon="6.59197">
        <ele>1947</ele>
        <time>2022-07-24T08:53:38Z</time>
      </trkpt>
      <trkpt lat="45.77484" lon="6.59197">
        <ele>1947</ele>
        <time>2022-07-24T08:53:39Z</time>
      </trkpt>
      <trkpt lat="45.77486" lon="6.59197">
        <ele>1947</ele>
        <time>2022-07-24T08:53:40Z</time>
      </trkpt>
      <trkpt lat="45.77487" lon="6.59197">
        <ele>1947</ele>
        <time>2022-07-24T08:53:41Z</time>
      </trkpt>
      <trkpt lat="45.77488" lon="6.59198">
        <ele>1947</ele>
        <time>2022-07-24T08:53:42Z</time>
      </trkpt>
      <trkpt lat="45.77489" lon="6.59198">
        <ele>1947</ele>
        <time>2022-07-24T08:53:43Z</time>
      </trkpt>
      <trkpt lat="45.7749" lon="6.59198">
        <ele>1947</ele>
        <time>2022-07-24T08:53:44Z</time>
      </trkpt>
      <trkpt lat="45.77491" lon="6.59198">
        <ele>1947</ele>
        <time>2022-07-24T08:53:45Z</time>
      </trkpt>
      <trkpt lat="45.77492" lon="6.59199">
        <ele>1947</ele>
        <time>2022-07-24T08:53:46Z</time>
      </trkpt>
      <trkpt lat="45.77494" lon="6.59199">
        <ele>1947</ele>
        <time>2022-07-24T08:53:47Z</time>
      </trkpt>
      <trkpt lat="45.77495" lon="6.59199">
        <ele>1947</ele>
        <time>2022-07-24T08:53:48Z</time>
      </trkpt>
      <trkpt lat="45.77496" lon="6.592">
        <ele>1947</ele>
        <time>2022-07-24T08:53:49Z</time>
      </trkpt>
      <trkpt lat="45.77497" lon="6.592">
        <ele>1947</ele>
        <time>2022-07-24T08:53:50Z</time>
      </trkpt>
      <trkpt lat="45.77498" lon="6.59201">
        <ele>1947</ele>
        <time>2022-07-24T08:53:51Z</time>
      </trkpt>
      <trkpt lat="45.77499" lon="6.59202">
        <ele>1947</ele>
        <time>2022-07-24T08:53:52Z</time>
      </trkpt>
      <trkpt lat="45.77501" lon="6.59202">
        <ele>1947</ele>
        <time>2022-07-24T08:53:53Z</time>
      </trkpt>
      <trkpt lat="45.77502" lon="6.59203">
        <ele>1947</ele>
        <time>2022-07-24T08:53:54Z</time>
      </trkpt>
      <trkpt lat="45.77503" lon="6.59204">
        <ele>1947</ele>
        <time>2022-07-24T08:53:55Z</time>
      </trkpt>
      <trkpt lat="45.77504" lon="6.59205">
        <ele>1947</ele>
        <time>2022-07-24T08:53:56Z</time>
      </trkpt>
      <trkpt lat="45.77505" lon="6.59206">
        <ele>1947</ele>
        <time>2022-07-24T08:53:57Z</time>
      </trkpt>
      <trkpt lat="45.77506" lon="6.59206">
        <ele>1947</ele>
        <time>2022-07-24T08:53:58Z</time>
      </trkpt>
      <trkpt lat="45.77506" lon="6.59207">
        <ele>1947</ele>
        <time>2022-07-24T08:53:59Z</time>
      </trkpt>
      <trkpt lat="45.77507" lon="6.59208">
        <ele>1947</ele>
        <time>2022-07-24T08:54:00Z</time>
      </trkpt>
      <trkpt lat="45.77508" lon="6.59209">
        <ele>1948</ele>
        <time>2022-07-24T08:54:01Z</time>
      </trkpt>
      <trkpt lat="45.77509" lon="6.5921">
        <ele>1948</ele>
        <time>2022-07-24T08:54:02Z</time>
      </trkpt>
      <trkpt lat="45.7751" lon="6.59211">
        <ele>1948</ele>
        <time>2022-07-24T08:54:03Z</time>
      </trkpt>
      <trkpt lat="45.77511" lon="6.59212">
        <ele>1948</ele>
        <time>2022-07-24T08:54:04Z</time>
      </trkpt>
      <trkpt lat="45.77512" lon="6.59213">
        <ele>1948</ele>
        <time>2022-07-24T08:54:05Z</time>
      </trkpt>
      <trkpt lat="45.77513" lon="6.59214">
        <ele>1948</ele>
        <time>2022-07-24T08:54:06Z</time>
      </trkpt>
      <trkpt lat="45.77513" lon="6.59215">
        <ele>1948</ele>
        <time>2022-07-24T08:54:07Z</time>
      </trkpt>
      <trkpt lat="45.77514" lon="6.59216">
        <ele>1948</ele>
        <time>2022-07-24T08:54:08Z</time>
      </trkpt>
      <trkpt lat="45.77515" lon="6.59217">
        <ele>1948</ele>
        <time>2022-07-24T08:54:09Z</time>
      </trkpt>
      <trkpt lat="45.77516" lon="6.59218">
        <ele>1948</ele>
        <time>2022-07-24T08:54:10Z</time>
      </trkpt>
      <trkpt lat="45.77517" lon="6.59219">
        <ele>1948</ele>
        <time>2022-07-24T08:54:11Z</time>
      </trkpt>
      <trkpt lat="45.77518" lon="6.5922">
        <ele>1948</ele>
        <time>2022-07-24T08:54:12Z</time>
      </trkpt>
      <trkpt lat="45.77518" lon="6.59221">
        <ele>1948</ele>
        <time>2022-07-24T08:54:13Z</time>
      </trkpt>
      <trkpt lat="45.77519" lon="6.59223">
        <ele>1948</ele>
        <time>2022-07-24T08:54:14Z</time>
      </trkpt>
      <trkpt lat="45.7752" lon="6.59224">
        <ele>1948</ele>
        <time>2022-07-24T08:54:15Z</time>
      </trkpt>
      <trkpt lat="45.77521" lon="6.59225">
        <ele>1948</ele>
        <time>2022-07-24T08:54:16Z</time>
      </trkpt>
      <trkpt lat="45.77521" lon="6.59226">
        <ele>1948</ele>
        <time>2022-07-24T08:54:17Z</time>
      </trkpt>
      <trkpt lat="45.77522" lon="6.59227">
        <ele>1948</ele>
        <time>2022-07-24T08:54:18Z</time>
      </trkpt>
      <trkpt lat="45.77523" lon="6.59228">
        <ele>1948</ele>
        <time>2022-07-24T08:54:19Z</time>
      </trkpt>
      <trkpt lat="45.77524" lon="6.59229">
        <ele>1948</ele>
        <time>2022-07-24T08:54:20Z</time>
      </trkpt>
      <trkpt lat="45.77525" lon="6.5923">
        <ele>1948</ele>
        <time>2022-07-24T08:54:21Z</time>
      </trkpt>
      <trkpt lat="45.77525" lon="6.59231">
        <ele>1948</ele>
        <time>2022-07-24T08:54:22Z</time>
      </trkpt>
      <trkpt lat="45.77526" lon="6.59232">
        <ele>1948</ele>
        <time>2022-07-24T08:54:23Z</time>
      </trkpt>
      <trkpt lat="45.77527" lon="6.59233">
        <ele>1948</ele>
        <time>2022-07-24T08:54:24Z</time>
      </trkpt>
      <trkpt lat="45.77528" lon="6.59234">
        <ele>1948</ele>
        <time>2022-07-24T08:54:25Z</time>
      </trkpt>
      <trkpt lat="45.77529" lon="6.59235">
        <ele>1948</ele>
        <time>2022-07-24T08:54:26Z</time>
      </trkpt>
      <trkpt lat="45.7753" lon="6.59236">
        <ele>1948</ele>
        <time>2022-07-24T08:54:27Z</time>
      </trkpt>
      <trkpt lat="45.77531" lon="6.59236">
        <ele>1948</ele>
        <time>2022-07-24T08:54:28Z</time>
      </trkpt>
      <trkpt lat="45.77532" lon="6.59237">
        <ele>1948</ele>
        <time>2022-07-24T08:54:29Z</time>
      </trkpt>
      <trkpt lat="45.77533" lon="6.59238">
        <ele>1948</ele>
        <time>2022-07-24T08:54:30Z</time>
      </trkpt>
      <trkpt lat="45.77534" lon="6.59239">
        <ele>1948</ele>
        <time>2022-07-24T08:54:31Z</time>
      </trkpt>
      <trkpt lat="45.77535" lon="6.5924">
        <ele>1948</ele>
        <time>2022-07-24T08:54:32Z</time>
      </trkpt>
      <trkpt lat="45.77536" lon="6.59241">
        <ele>1948</ele>
        <time>2022-07-24T08:54:33Z</time>
      </trkpt>
      <trkpt lat="45.77537" lon="6.59241">
        <ele>1948</ele>
        <time>2022-07-24T08:54:34Z</time>
      </trkpt>
      <trkpt lat="45.77537" lon="6.59242">
        <ele>1948</ele>
        <time>2022-07-24T08:54:35Z</time>
      </trkpt>
      <trkpt lat="45.77538" lon="6.59243">
        <ele>1948</ele>
        <time>2022-07-24T08:54:36Z</time>
      </trkpt>
      <trkpt lat="45.77539" lon="6.59243">
        <ele>1948</ele>
        <time>2022-07-24T08:54:37Z</time>
      </trkpt>
      <trkpt lat="45.7754" lon="6.59244">
        <ele>1948</ele>
        <time>2022-07-24T08:54:38Z</time>
      </trkpt>
      <trkpt lat="45.77541" lon="6.59245">
        <ele>1948</ele>
        <time>2022-07-24T08:54:39Z</time>
      </trkpt>
      <trkpt lat="45.77542" lon="6.59245">
        <ele>1948</ele>
        <time>2022-07-24T08:54:40Z</time>
      </trkpt>
      <trkpt lat="45.77543" lon="6.59246">
        <ele>1948</ele>
        <time>2022-07-24T08:54:41Z</time>
      </trkpt>
      <trkpt lat="45.77544" lon="6.59247">
        <ele>1948</ele>
        <time>2022-07-24T08:54:42Z</time>
      </trkpt>
      <trkpt lat="45.77545" lon="6.59247">
        <ele>1948</ele>
        <time>2022-07-24T08:54:43Z</time>
      </trkpt>
      <trkpt lat="45.77546" lon="6.59248">
        <ele>1948</ele>
        <time>2022-07-24T08:54:44Z</time>
      </trkpt>
      <trkpt lat="45.77547" lon="6.59249">
        <ele>1948</ele>
        <time>2022-07-24T08:54:45Z</time>
      </trkpt>
      <trkpt lat="45.77548" lon="6.59249">
        <ele>1948</ele>
        <time>2022-07-24T08:54:46Z</time>
      </trkpt>
      <trkpt lat="45.77549" lon="6.5925">
        <ele>1948</ele>
        <time>2022-07-24T08:54:47Z</time>
      </trkpt>
      <trkpt lat="45.7755" lon="6.59251">
        <ele>1948</ele>
        <time>2022-07-24T08:54:48Z</time>
      </trkpt>
      <trkpt lat="45.77551" lon="6.59251">
        <ele>1948</ele>
        <time>2022-07-24T08:54:49Z</time>
      </trkpt>
      <trkpt lat="45.77552" lon="6.59252">
        <ele>1948</ele>
        <time>2022-07-24T08:54:50Z</time>
      </trkpt>
      <trkpt lat="45.77553" lon="6.59253">
        <ele>1949</ele>
        <time>2022-07-24T08:54:51Z</time>
      </trkpt>
      <trkpt lat="45.77554" lon="6.59253">
        <ele>1949</ele>
        <time>2022-07-24T08:54:52Z</time>
      </trkpt>
      <trkpt lat="45.77555" lon="6.59254">
        <ele>1949</ele>
        <time>2022-07-24T08:54:53Z</time>
      </trkpt>
      <trkpt lat="45.77556" lon="6.59255">
        <ele>1949</ele>
        <time>2022-07-24T08:54:54Z</time>
      </trkpt>
      <trkpt lat="45.77557" lon="6.59255">
        <ele>1949</ele>
        <time>2022-07-24T08:54:55Z</time>
      </trkpt>
      <trkpt lat="45.77558" lon="6.59256">
        <ele>1949</ele>
        <time>2022-07-24T08:54:56Z</time>
      </trkpt>
      <trkpt lat="45.77559" lon="6.59257">
        <ele>1949</ele>
        <time>2022-07-24T08:54:57Z</time>
      </trkpt>
      <trkpt lat="45.7756" lon="6.59258">
        <ele>1949</ele>
        <time>2022-07-24T08:54:58Z</time>
      </trkpt>
      <trkpt lat="45.7756" lon="6.59258">
        <ele>1949</ele>
        <time>2022-07-24T08:54:59Z</time>
      </trkpt>
      <trkpt lat="45.77561" lon="6.59259">
        <ele>1949</ele>
        <time>2022-07-24T08:55:00Z</time>
      </trkpt>
      <trkpt lat="45.77562" lon="6.5926">
        <ele>1949</ele>
        <time>2022-07-24T08:55:01Z</time>
      </trkpt>
      <trkpt lat="45.77563" lon="6.5926">
        <ele>1949</ele>
        <time>2022-07-24T08:55:02Z</time>
      </trkpt>
      <trkpt lat="45.77564" lon="6.59261">
        <ele>1949</ele>
        <time>2022-07-24T08:55:03Z</time>
      </trkpt>
      <trkpt lat="45.77565" lon="6.59262">
        <ele>1949</ele>
        <time>2022-07-24T08:55:04Z</time>
      </trkpt>
      <trkpt lat="45.77566" lon="6.59262">
        <ele>1949</ele>
        <time>2022-07-24T08:55:05Z</time>
      </trkpt>
      <trkpt lat="45.77567" lon="6.59263">
        <ele>1949</ele>
        <time>2022-07-24T08:55:06Z</time>
      </trkpt>
      <trkpt lat="45.77568" lon="6.59263">
        <ele>1949</ele>
        <time>2022-07-24T08:55:07Z</time>
      </trkpt>
      <trkpt lat="45.7757" lon="6.59264">
        <ele>1949</ele>
        <time>2022-07-24T08:55:08Z</time>
      </trkpt>
      <trkpt lat="45.77571" lon="6.59265">
        <ele>1949</ele>
        <time>2022-07-24T08:55:09Z</time>
      </trkpt>
      <trkpt lat="45.77572" lon="6.59265">
        <ele>1949</ele>
        <time>2022-07-24T08:55:10Z</time>
      </trkpt>
      <trkpt lat="45.77572" lon="6.59266">
        <ele>1950</ele>
        <time>2022-07-24T08:55:11Z</time>
      </trkpt>
      <trkpt lat="45.77573" lon="6.59266">
        <ele>1950</ele>
        <time>2022-07-24T08:55:12Z</time>
      </trkpt>
      <trkpt lat="45.77574" lon="6.59267">
        <ele>1950</ele>
        <time>2022-07-24T08:55:13Z</time>
      </trkpt>
      <trkpt lat="45.77575" lon="6.59267">
        <ele>1950</ele>
        <time>2022-07-24T08:55:14Z</time>
      </trkpt>
      <trkpt lat="45.77576" lon="6.59268">
        <ele>1950</ele>
        <time>2022-07-24T08:55:15Z</time>
      </trkpt>
      <trkpt lat="45.77577" lon="6.59268">
        <ele>1950</ele>
        <time>2022-07-24T08:55:16Z</time>
      </trkpt>
      <trkpt lat="45.77578" lon="6.59269">
        <ele>1950</ele>
        <time>2022-07-24T08:55:17Z</time>
      </trkpt>
      <trkpt lat="45.77579" lon="6.59269">
        <ele>1950</ele>
        <time>2022-07-24T08:55:18Z</time>
      </trkpt>
      <trkpt lat="45.7758" lon="6.5927">
        <ele>1950</ele>
        <time>2022-07-24T08:55:19Z</time>
      </trkpt>
      <trkpt lat="45.77581" lon="6.59271">
        <ele>1950</ele>
        <time>2022-07-24T08:55:20Z</time>
      </trkpt>
      <trkpt lat="45.77582" lon="6.59271">
        <ele>1950</ele>
        <time>2022-07-24T08:55:21Z</time>
      </trkpt>
      <trkpt lat="45.77582" lon="6.59272">
        <ele>1950</ele>
        <time>2022-07-24T08:55:22Z</time>
      </trkpt>
      <trkpt lat="45.77583" lon="6.59273">
        <ele>1950</ele>
        <time>2022-07-24T08:55:23Z</time>
      </trkpt>
      <trkpt lat="45.77584" lon="6.59274">
        <ele>1950</ele>
        <time>2022-07-24T08:55:24Z</time>
      </trkpt>
      <trkpt lat="45.77585" lon="6.59274">
        <ele>1950</ele>
        <time>2022-07-24T08:55:25Z</time>
      </trkpt>
      <trkpt lat="45.77586" lon="6.59275">
        <ele>1951</ele>
        <time>2022-07-24T08:55:26Z</time>
      </trkpt>
      <trkpt lat="45.77586" lon="6.59276">
        <ele>1951</ele>
        <time>2022-07-24T08:55:27Z</time>
      </trkpt>
      <trkpt lat="45.77587" lon="6.59276">
        <ele>1951</ele>
        <time>2022-07-24T08:55:28Z</time>
      </trkpt>
      <trkpt lat="45.77588" lon="6.59277">
        <ele>1951</ele>
        <time>2022-07-24T08:55:29Z</time>
      </trkpt>
      <trkpt lat="45.77589" lon="6.59278">
        <ele>1951</ele>
        <time>2022-07-24T08:55:30Z</time>
      </trkpt>
      <trkpt lat="45.7759" lon="6.59278">
        <ele>1952</ele>
        <time>2022-07-24T08:55:31Z</time>
      </trkpt>
      <trkpt lat="45.7759" lon="6.59279">
        <ele>1952</ele>
        <time>2022-07-24T08:55:32Z</time>
      </trkpt>
      <trkpt lat="45.77591" lon="6.59279">
        <ele>1952</ele>
        <time>2022-07-24T08:55:33Z</time>
      </trkpt>
      <trkpt lat="45.77592" lon="6.5928">
        <ele>1952</ele>
        <time>2022-07-24T08:55:34Z</time>
      </trkpt>
      <trkpt lat="45.77593" lon="6.59281">
        <ele>1952</ele>
        <time>2022-07-24T08:55:35Z</time>
      </trkpt>
      <trkpt lat="45.77594" lon="6.59281">
        <ele>1952</ele>
        <time>2022-07-24T08:55:36Z</time>
      </trkpt>
      <trkpt lat="45.77595" lon="6.59282">
        <ele>1952</ele>
        <time>2022-07-24T08:55:37Z</time>
      </trkpt>
      <trkpt lat="45.77596" lon="6.59282">
        <ele>1952</ele>
        <time>2022-07-24T08:55:38Z</time>
      </trkpt>
      <trkpt lat="45.77597" lon="6.59283">
        <ele>1952</ele>
        <time>2022-07-24T08:55:39Z</time>
      </trkpt>
      <trkpt lat="45.77598" lon="6.59283">
        <ele>1952</ele>
        <time>2022-07-24T08:55:40Z</time>
      </trkpt>
      <trkpt lat="45.77599" lon="6.59284">
        <ele>1952</ele>
        <time>2022-07-24T08:55:41Z</time>
      </trkpt>
      <trkpt lat="45.776" lon="6.59284">
        <ele>1952</ele>
        <time>2022-07-24T08:55:42Z</time>
      </trkpt>
      <trkpt lat="45.77601" lon="6.59285">
        <ele>1952</ele>
        <time>2022-07-24T08:55:43Z</time>
      </trkpt>
      <trkpt lat="45.77602" lon="6.59285">
        <ele>1952</ele>
        <time>2022-07-24T08:55:44Z</time>
      </trkpt>
      <trkpt lat="45.77603" lon="6.59286">
        <ele>1952</ele>
        <time>2022-07-24T08:55:45Z</time>
      </trkpt>
      <trkpt lat="45.77604" lon="6.59286">
        <ele>1953</ele>
        <time>2022-07-24T08:55:46Z</time>
      </trkpt>
      <trkpt lat="45.77605" lon="6.59287">
        <ele>1953</ele>
        <time>2022-07-24T08:55:47Z</time>
      </trkpt>
      <trkpt lat="45.77606" lon="6.59287">
        <ele>1953</ele>
        <time>2022-07-24T08:55:48Z</time>
      </trkpt>
      <trkpt lat="45.77607" lon="6.59287">
        <ele>1953</ele>
        <time>2022-07-24T08:55:49Z</time>
      </trkpt>
      <trkpt lat="45.77608" lon="6.59288">
        <ele>1953</ele>
        <time>2022-07-24T08:55:50Z</time>
      </trkpt>
      <trkpt lat="45.77609" lon="6.59288">
        <ele>1953</ele>
        <time>2022-07-24T08:55:51Z</time>
      </trkpt>
      <trkpt lat="45.7761" lon="6.59288">
        <ele>1953</ele>
        <time>2022-07-24T08:55:52Z</time>
      </trkpt>
      <trkpt lat="45.77611" lon="6.59288">
        <ele>1953</ele>
        <time>2022-07-24T08:55:53Z</time>
      </trkpt>
      <trkpt lat="45.77612" lon="6.59289">
        <ele>1953</ele>
        <time>2022-07-24T08:55:54Z</time>
      </trkpt>
      <trkpt lat="45.77613" lon="6.59289">
        <ele>1953</ele>
        <time>2022-07-24T08:55:55Z</time>
      </trkpt>
      <trkpt lat="45.77614" lon="6.59289">
        <ele>1953</ele>
        <time>2022-07-24T08:55:56Z</time>
      </trkpt>
      <trkpt lat="45.77615" lon="6.59289">
        <ele>1953</ele>
        <time>2022-07-24T08:55:57Z</time>
      </trkpt>
      <trkpt lat="45.77616" lon="6.5929">
        <ele>1953</ele>
        <time>2022-07-24T08:55:58Z</time>
      </trkpt>
      <trkpt lat="45.77617" lon="6.5929">
        <ele>1953</ele>
        <time>2022-07-24T08:55:59Z</time>
      </trkpt>
      <trkpt lat="45.77618" lon="6.5929">
        <ele>1953</ele>
        <time>2022-07-24T08:56:00Z</time>
      </trkpt>
      <trkpt lat="45.77619" lon="6.5929">
        <ele>1954</ele>
        <time>2022-07-24T08:56:01Z</time>
      </trkpt>
      <trkpt lat="45.7762" lon="6.5929">
        <ele>1954</ele>
        <time>2022-07-24T08:56:02Z</time>
      </trkpt>
      <trkpt lat="45.77621" lon="6.5929">
        <ele>1954</ele>
        <time>2022-07-24T08:56:03Z</time>
      </trkpt>
      <trkpt lat="45.77622" lon="6.59291">
        <ele>1954</ele>
        <time>2022-07-24T08:56:04Z</time>
      </trkpt>
      <trkpt lat="45.77623" lon="6.59291">
        <ele>1954</ele>
        <time>2022-07-24T08:56:05Z</time>
      </trkpt>
      <trkpt lat="45.77624" lon="6.59291">
        <ele>1954</ele>
        <time>2022-07-24T08:56:06Z</time>
      </trkpt>
      <trkpt lat="45.77626" lon="6.59291">
        <ele>1954</ele>
        <time>2022-07-24T08:56:07Z</time>
      </trkpt>
      <trkpt lat="45.77627" lon="6.59291">
        <ele>1954</ele>
        <time>2022-07-24T08:56:08Z</time>
      </trkpt>
      <trkpt lat="45.77628" lon="6.59291">
        <ele>1954</ele>
        <time>2022-07-24T08:56:09Z</time>
      </trkpt>
      <trkpt lat="45.77629" lon="6.59291">
        <ele>1954</ele>
        <time>2022-07-24T08:56:10Z</time>
      </trkpt>
      <trkpt lat="45.7763" lon="6.59291">
        <ele>1955</ele>
        <time>2022-07-24T08:56:11Z</time>
      </trkpt>
      <trkpt lat="45.77631" lon="6.59291">
        <ele>1955</ele>
        <time>2022-07-24T08:56:12Z</time>
      </trkpt>
      <trkpt lat="45.77632" lon="6.59291">
        <ele>1955</ele>
        <time>2022-07-24T08:56:13Z</time>
      </trkpt>
      <trkpt lat="45.77633" lon="6.59292">
        <ele>1955</ele>
        <time>2022-07-24T08:56:14Z</time>
      </trkpt>
      <trkpt lat="45.77634" lon="6.59292">
        <ele>1955</ele>
        <time>2022-07-24T08:56:15Z</time>
      </trkpt>
      <trkpt lat="45.77635" lon="6.59292">
        <ele>1956</ele>
        <time>2022-07-24T08:56:16Z</time>
      </trkpt>
      <trkpt lat="45.77636" lon="6.59293">
        <ele>1956</ele>
        <time>2022-07-24T08:56:17Z</time>
      </trkpt>
      <trkpt lat="45.77637" lon="6.59293">
        <ele>1956</ele>
        <time>2022-07-24T08:56:18Z</time>
      </trkpt>
      <trkpt lat="45.77638" lon="6.59293">
        <ele>1956</ele>
        <time>2022-07-24T08:56:19Z</time>
      </trkpt>
      <trkpt lat="45.77639" lon="6.59294">
        <ele>1956</ele>
        <time>2022-07-24T08:56:20Z</time>
      </trkpt>
      <trkpt lat="45.7764" lon="6.59295">
        <ele>1956</ele>
        <time>2022-07-24T08:56:21Z</time>
      </trkpt>
      <trkpt lat="45.77641" lon="6.59295">
        <ele>1956</ele>
        <time>2022-07-24T08:56:22Z</time>
      </trkpt>
      <trkpt lat="45.77642" lon="6.59296">
        <ele>1956</ele>
        <time>2022-07-24T08:56:23Z</time>
      </trkpt>
      <trkpt lat="45.77643" lon="6.59296">
        <ele>1956</ele>
        <time>2022-07-24T08:56:24Z</time>
      </trkpt>
      <trkpt lat="45.77644" lon="6.59297">
        <ele>1956</ele>
        <time>2022-07-24T08:56:30Z</time>
      </trkpt>
      <trkpt lat="45.77645" lon="6.59297">
        <ele>1957</ele>
        <time>2022-07-24T08:56:31Z</time>
      </trkpt>
      <trkpt lat="45.77645" lon="6.59296">
        <ele>1957</ele>
        <time>2022-07-24T08:56:32Z</time>
      </trkpt>
      <trkpt lat="45.77646" lon="6.59296">
        <ele>1957</ele>
        <time>2022-07-24T08:56:33Z</time>
      </trkpt>
      <trkpt lat="45.77646" lon="6.59295">
        <ele>1957</ele>
        <time>2022-07-24T08:56:34Z</time>
      </trkpt>
      <trkpt lat="45.77647" lon="6.59293">
        <ele>1957</ele>
        <time>2022-07-24T08:56:43Z</time>
      </trkpt>
      <trkpt lat="45.77647" lon="6.59293">
        <ele>1957</ele>
        <time>2022-07-24T08:56:44Z</time>
      </trkpt>
      <trkpt lat="45.77647" lon="6.59293">
        <ele>1957</ele>
        <time>2022-07-24T08:56:45Z</time>
      </trkpt>
      <trkpt lat="45.77647" lon="6.59294">
        <ele>1957</ele>
        <time>2022-07-24T08:56:46Z</time>
      </trkpt>
      <trkpt lat="45.77648" lon="6.59295">
        <ele>1957</ele>
        <time>2022-07-24T08:56:47Z</time>
      </trkpt>
      <trkpt lat="45.77648" lon="6.59296">
        <ele>1957</ele>
        <time>2022-07-24T08:56:48Z</time>
      </trkpt>
      <trkpt lat="45.77648" lon="6.59298">
        <ele>1957</ele>
        <time>2022-07-24T08:56:49Z</time>
      </trkpt>
      <trkpt lat="45.77648" lon="6.59299">
        <ele>1957</ele>
        <time>2022-07-24T08:56:50Z</time>
      </trkpt>
      <trkpt lat="45.77648" lon="6.593">
        <ele>1957</ele>
        <time>2022-07-24T08:56:51Z</time>
      </trkpt>
      <trkpt lat="45.77648" lon="6.59302">
        <ele>1957</ele>
        <time>2022-07-24T08:56:52Z</time>
      </trkpt>
      <trkpt lat="45.77648" lon="6.59304">
        <ele>1957</ele>
        <time>2022-07-24T08:56:53Z</time>
      </trkpt>
      <trkpt lat="45.77648" lon="6.59305">
        <ele>1957</ele>
        <time>2022-07-24T08:56:54Z</time>
      </trkpt>
      <trkpt lat="45.77648" lon="6.59307">
        <ele>1957</ele>
        <time>2022-07-24T08:56:55Z</time>
      </trkpt>
      <trkpt lat="45.77649" lon="6.59309">
        <ele>1957</ele>
        <time>2022-07-24T08:56:56Z</time>
      </trkpt>
      <trkpt lat="45.77649" lon="6.59311">
        <ele>1957</ele>
        <time>2022-07-24T08:56:57Z</time>
      </trkpt>
      <trkpt lat="45.77649" lon="6.59312">
        <ele>1957</ele>
        <time>2022-07-24T08:56:58Z</time>
      </trkpt>
      <trkpt lat="45.7765" lon="6.59314">
        <ele>1957</ele>
        <time>2022-07-24T08:56:59Z</time>
      </trkpt>
      <trkpt lat="45.7765" lon="6.59315">
        <ele>1957</ele>
        <time>2022-07-24T08:57:00Z</time>
      </trkpt>
      <trkpt lat="45.77651" lon="6.59317">
        <ele>1957</ele>
        <time>2022-07-24T08:57:01Z</time>
      </trkpt>
      <trkpt lat="45.77651" lon="6.59318">
        <ele>1957</ele>
        <time>2022-07-24T08:57:02Z</time>
      </trkpt>
      <trkpt lat="45.77652" lon="6.59319">
        <ele>1957</ele>
        <time>2022-07-24T08:57:03Z</time>
      </trkpt>
      <trkpt lat="45.77652" lon="6.59321">
        <ele>1957</ele>
        <time>2022-07-24T08:57:04Z</time>
      </trkpt>
      <trkpt lat="45.77653" lon="6.59322">
        <ele>1957</ele>
        <time>2022-07-24T08:57:05Z</time>
      </trkpt>
      <trkpt lat="45.77654" lon="6.59323">
        <ele>1957</ele>
        <time>2022-07-24T08:57:06Z</time>
      </trkpt>
      <trkpt lat="45.77654" lon="6.59325">
        <ele>1957</ele>
        <time>2022-07-24T08:57:07Z</time>
      </trkpt>
      <trkpt lat="45.77655" lon="6.59327">
        <ele>1957</ele>
        <time>2022-07-24T08:58:15Z</time>
      </trkpt>
      <trkpt lat="45.77655" lon="6.59328">
        <ele>1957</ele>
        <time>2022-07-24T08:58:16Z</time>
      </trkpt>
      <trkpt lat="45.77655" lon="6.59329">
        <ele>1957</ele>
        <time>2022-07-24T08:58:17Z</time>
      </trkpt>
      <trkpt lat="45.77655" lon="6.5933">
        <ele>1957</ele>
        <time>2022-07-24T08:58:18Z</time>
      </trkpt>
      <trkpt lat="45.77655" lon="6.59331">
        <ele>1957</ele>
        <time>2022-07-24T08:58:19Z</time>
      </trkpt>
      <trkpt lat="45.77655" lon="6.59333">
        <ele>1957</ele>
        <time>2022-07-24T08:58:29Z</time>
      </trkpt>
      <trkpt lat="45.77655" lon="6.59333">
        <ele>1957</ele>
        <time>2022-07-24T08:58:30Z</time>
      </trkpt>
      <trkpt lat="45.77655" lon="6.59334">
        <ele>1957</ele>
        <time>2022-07-24T08:58:31Z</time>
      </trkpt>
      <trkpt lat="45.77655" lon="6.59333">
        <ele>1957</ele>
        <time>2022-07-24T08:58:32Z</time>
      </trkpt>
      <trkpt lat="45.77655" lon="6.59332">
        <ele>1957</ele>
        <time>2022-07-24T08:58:33Z</time>
      </trkpt>
      <trkpt lat="45.77655" lon="6.59331">
        <ele>1958</ele>
        <time>2022-07-24T08:59:16Z</time>
      </trkpt>
      <trkpt lat="45.77655" lon="6.59331">
        <ele>1958</ele>
        <time>2022-07-24T08:59:17Z</time>
      </trkpt>
      <trkpt lat="45.77655" lon="6.5933">
        <ele>1958</ele>
        <time>2022-07-24T08:59:18Z</time>
      </trkpt>
      <trkpt lat="45.77655" lon="6.59331">
        <ele>1958</ele>
        <time>2022-07-24T08:59:24Z</time>
      </trkpt>
      <trkpt lat="45.77655" lon="6.59331">
        <ele>1958</ele>
        <time>2022-07-24T08:59:25Z</time>
      </trkpt>
      <trkpt lat="45.77655" lon="6.59332">
        <ele>1958</ele>
        <time>2022-07-24T08:59:26Z</time>
      </trkpt>
      <trkpt lat="45.77656" lon="6.59332">
        <ele>1958</ele>
        <time>2022-07-24T08:59:27Z</time>
      </trkpt>
      <trkpt lat="45.77656" lon="6.59333">
        <ele>1958</ele>
        <time>2022-07-24T08:59:28Z</time>
      </trkpt>
      <trkpt lat="45.77656" lon="6.59333">
        <ele>1958</ele>
        <time>2022-07-24T08:59:29Z</time>
      </trkpt>
      <trkpt lat="45.77656" lon="6.59334">
        <ele>1957</ele>
        <time>2022-07-24T08:59:50Z</time>
      </trkpt>
      <trkpt lat="45.77657" lon="6.59334">
        <ele>1957</ele>
        <time>2022-07-24T08:59:51Z</time>
      </trkpt>
      <trkpt lat="45.77657" lon="6.59335">
        <ele>1957</ele>
        <time>2022-07-24T08:59:52Z</time>
      </trkpt>
      <trkpt lat="45.77658" lon="6.59335">
        <ele>1957</ele>
        <time>2022-07-24T08:59:53Z</time>
      </trkpt>
      <trkpt lat="45.77658" lon="6.59336">
        <ele>1957</ele>
        <time>2022-07-24T08:59:54Z</time>
      </trkpt>
      <trkpt lat="45.77659" lon="6.59337">
        <ele>1957</ele>
        <time>2022-07-24T08:59:55Z</time>
      </trkpt>
      <trkpt lat="45.7766" lon="6.59337">
        <ele>1957</ele>
        <time>2022-07-24T08:59:56Z</time>
      </trkpt>
      <trkpt lat="45.77661" lon="6.59338">
        <ele>1957</ele>
        <time>2022-07-24T08:59:57Z</time>
      </trkpt>
      <trkpt lat="45.77663" lon="6.59339">
        <ele>1957</ele>
        <time>2022-07-24T08:59:58Z</time>
      </trkpt>
      <trkpt lat="45.77663" lon="6.59341">
        <ele>1957</ele>
        <time>2022-07-24T08:59:59Z</time>
      </trkpt>
      <trkpt lat="45.77664" lon="6.59342">
        <ele>1957</ele>
        <time>2022-07-24T09:00:00Z</time>
      </trkpt>
      <trkpt lat="45.77665" lon="6.59343">
        <ele>1957</ele>
        <time>2022-07-24T09:00:01Z</time>
      </trkpt>
      <trkpt lat="45.77666" lon="6.59345">
        <ele>1957</ele>
        <time>2022-07-24T09:00:02Z</time>
      </trkpt>
      <trkpt lat="45.77667" lon="6.59346">
        <ele>1957</ele>
        <time>2022-07-24T09:00:03Z</time>
      </trkpt>
      <trkpt lat="45.77668" lon="6.59347">
        <ele>1957</ele>
        <time>2022-07-24T09:00:04Z</time>
      </trkpt>
      <trkpt lat="45.77668" lon="6.59349">
        <ele>1957</ele>
        <time>2022-07-24T09:00:05Z</time>
      </trkpt>
      <trkpt lat="45.77669" lon="6.5935">
        <ele>1957</ele>
        <time>2022-07-24T09:00:06Z</time>
      </trkpt>
      <trkpt lat="45.7767" lon="6.59351">
        <ele>1957</ele>
        <time>2022-07-24T09:00:07Z</time>
      </trkpt>
      <trkpt lat="45.7767" lon="6.59352">
        <ele>1957</ele>
        <time>2022-07-24T09:00:08Z</time>
      </trkpt>
      <trkpt lat="45.77671" lon="6.59354">
        <ele>1957</ele>
        <time>2022-07-24T09:00:09Z</time>
      </trkpt>
      <trkpt lat="45.77671" lon="6.59355">
        <ele>1957</ele>
        <time>2022-07-24T09:00:10Z</time>
      </trkpt>
      <trkpt lat="45.77672" lon="6.59357">
        <ele>1957</ele>
        <time>2022-07-24T09:00:11Z</time>
      </trkpt>
      <trkpt lat="45.77672" lon="6.59358">
        <ele>1957</ele>
        <time>2022-07-24T09:00:12Z</time>
      </trkpt>
      <trkpt lat="45.77673" lon="6.5936">
        <ele>1957</ele>
        <time>2022-07-24T09:00:13Z</time>
      </trkpt>
      <trkpt lat="45.77673" lon="6.59361">
        <ele>1957</ele>
        <time>2022-07-24T09:00:14Z</time>
      </trkpt>
      <trkpt lat="45.77674" lon="6.59363">
        <ele>1957</ele>
        <time>2022-07-24T09:00:15Z</time>
      </trkpt>
      <trkpt lat="45.77675" lon="6.59364">
        <ele>1957</ele>
        <time>2022-07-24T09:00:16Z</time>
      </trkpt>
      <trkpt lat="45.77675" lon="6.59366">
        <ele>1957</ele>
        <time>2022-07-24T09:00:17Z</time>
      </trkpt>
      <trkpt lat="45.77676" lon="6.59367">
        <ele>1957</ele>
        <time>2022-07-24T09:00:18Z</time>
      </trkpt>
      <trkpt lat="45.77676" lon="6.59368">
        <ele>1957</ele>
        <time>2022-07-24T09:00:19Z</time>
      </trkpt>
      <trkpt lat="45.77677" lon="6.5937">
        <ele>1957</ele>
        <time>2022-07-24T09:00:20Z</time>
      </trkpt>
      <trkpt lat="45.77678" lon="6.59371">
        <ele>1957</ele>
        <time>2022-07-24T09:00:21Z</time>
      </trkpt>
      <trkpt lat="45.77678" lon="6.59372">
        <ele>1957</ele>
        <time>2022-07-24T09:00:22Z</time>
      </trkpt>
      <trkpt lat="45.77679" lon="6.59374">
        <ele>1957</ele>
        <time>2022-07-24T09:00:23Z</time>
      </trkpt>
      <trkpt lat="45.77679" lon="6.59375">
        <ele>1957</ele>
        <time>2022-07-24T09:00:24Z</time>
      </trkpt>
      <trkpt lat="45.7768" lon="6.59376">
        <ele>1957</ele>
        <time>2022-07-24T09:00:25Z</time>
      </trkpt>
      <trkpt lat="45.7768" lon="6.59378">
        <ele>1957</ele>
        <time>2022-07-24T09:00:26Z</time>
      </trkpt>
      <trkpt lat="45.77681" lon="6.59379">
        <ele>1957</ele>
        <time>2022-07-24T09:00:27Z</time>
      </trkpt>
      <trkpt lat="45.77682" lon="6.59381">
        <ele>1957</ele>
        <time>2022-07-24T09:00:28Z</time>
      </trkpt>
      <trkpt lat="45.77682" lon="6.59382">
        <ele>1957</ele>
        <time>2022-07-24T09:00:29Z</time>
      </trkpt>
      <trkpt lat="45.77683" lon="6.59384">
        <ele>1957</ele>
        <time>2022-07-24T09:00:30Z</time>
      </trkpt>
      <trkpt lat="45.77684" lon="6.59385">
        <ele>1957</ele>
        <time>2022-07-24T09:00:31Z</time>
      </trkpt>
      <trkpt lat="45.77684" lon="6.59386">
        <ele>1956</ele>
        <time>2022-07-24T09:00:32Z</time>
      </trkpt>
      <trkpt lat="45.77685" lon="6.59387">
        <ele>1956</ele>
        <time>2022-07-24T09:00:33Z</time>
      </trkpt>
      <trkpt lat="45.77686" lon="6.59388">
        <ele>1956</ele>
        <time>2022-07-24T09:00:34Z</time>
      </trkpt>
      <trkpt lat="45.77687" lon="6.5939">
        <ele>1956</ele>
        <time>2022-07-24T09:00:35Z</time>
      </trkpt>
      <trkpt lat="45.77687" lon="6.59391">
        <ele>1956</ele>
        <time>2022-07-24T09:00:36Z</time>
      </trkpt>
      <trkpt lat="45.77688" lon="6.59392">
        <ele>1956</ele>
        <time>2022-07-24T09:00:37Z</time>
      </trkpt>
      <trkpt lat="45.77689" lon="6.59393">
        <ele>1956</ele>
        <time>2022-07-24T09:00:38Z</time>
      </trkpt>
      <trkpt lat="45.7769" lon="6.59395">
        <ele>1956</ele>
        <time>2022-07-24T09:00:39Z</time>
      </trkpt>
      <trkpt lat="45.77691" lon="6.59396">
        <ele>1956</ele>
        <time>2022-07-24T09:00:40Z</time>
      </trkpt>
      <trkpt lat="45.77691" lon="6.59397">
        <ele>1956</ele>
        <time>2022-07-24T09:00:41Z</time>
      </trkpt>
      <trkpt lat="45.77692" lon="6.59398">
        <ele>1956</ele>
        <time>2022-07-24T09:00:42Z</time>
      </trkpt>
      <trkpt lat="45.77693" lon="6.59399">
        <ele>1956</ele>
        <time>2022-07-24T09:00:43Z</time>
      </trkpt>
      <trkpt lat="45.77694" lon="6.59401">
        <ele>1956</ele>
        <time>2022-07-24T09:00:44Z</time>
      </trkpt>
      <trkpt lat="45.77695" lon="6.59402">
        <ele>1956</ele>
        <time>2022-07-24T09:00:45Z</time>
      </trkpt>
      <trkpt lat="45.77696" lon="6.59403">
        <ele>1956</ele>
        <time>2022-07-24T09:00:46Z</time>
      </trkpt>
      <trkpt lat="45.77697" lon="6.59404">
        <ele>1956</ele>
        <time>2022-07-24T09:00:47Z</time>
      </trkpt>
      <trkpt lat="45.77698" lon="6.59405">
        <ele>1956</ele>
        <time>2022-07-24T09:00:48Z</time>
      </trkpt>
      <trkpt lat="45.77698" lon="6.59406">
        <ele>1956</ele>
        <time>2022-07-24T09:00:49Z</time>
      </trkpt>
      <trkpt lat="45.77699" lon="6.59407">
        <ele>1956</ele>
        <time>2022-07-24T09:00:50Z</time>
      </trkpt>
      <trkpt lat="45.777" lon="6.59408">
        <ele>1956</ele>
        <time>2022-07-24T09:00:51Z</time>
      </trkpt>
      <trkpt lat="45.77701" lon="6.59408">
        <ele>1956</ele>
        <time>2022-07-24T09:00:52Z</time>
      </trkpt>
      <trkpt lat="45.77701" lon="6.59408">
        <ele>1956</ele>
        <time>2022-07-24T09:00:53Z</time>
      </trkpt>
      <trkpt lat="45.77702" lon="6.59409">
        <ele>1956</ele>
        <time>2022-07-24T09:00:54Z</time>
      </trkpt>
      <trkpt lat="45.77703" lon="6.59409">
        <ele>1956</ele>
        <time>2022-07-24T09:00:55Z</time>
      </trkpt>
      <trkpt lat="45.77704" lon="6.59409">
        <ele>1956</ele>
        <time>2022-07-24T09:00:56Z</time>
      </trkpt>
      <trkpt lat="45.77705" lon="6.59409">
        <ele>1956</ele>
        <time>2022-07-24T09:00:57Z</time>
      </trkpt>
      <trkpt lat="45.77706" lon="6.59409">
        <ele>1956</ele>
        <time>2022-07-24T09:00:58Z</time>
      </trkpt>
      <trkpt lat="45.77707" lon="6.5941">
        <ele>1956</ele>
        <time>2022-07-24T09:00:59Z</time>
      </trkpt>
      <trkpt lat="45.77708" lon="6.5941">
        <ele>1956</ele>
        <time>2022-07-24T09:01:00Z</time>
      </trkpt>
      <trkpt lat="45.77708" lon="6.59411">
        <ele>1956</ele>
        <time>2022-07-24T09:01:01Z</time>
      </trkpt>
      <trkpt lat="45.77709" lon="6.59412">
        <ele>1955</ele>
        <time>2022-07-24T09:01:02Z</time>
      </trkpt>
      <trkpt lat="45.7771" lon="6.59413">
        <ele>1955</ele>
        <time>2022-07-24T09:01:03Z</time>
      </trkpt>
      <trkpt lat="45.7771" lon="6.59414">
        <ele>1955</ele>
        <time>2022-07-24T09:01:04Z</time>
      </trkpt>
      <trkpt lat="45.77711" lon="6.59415">
        <ele>1955</ele>
        <time>2022-07-24T09:01:05Z</time>
      </trkpt>
      <trkpt lat="45.77711" lon="6.59416">
        <ele>1955</ele>
        <time>2022-07-24T09:01:06Z</time>
      </trkpt>
      <trkpt lat="45.77712" lon="6.59416">
        <ele>1955</ele>
        <time>2022-07-24T09:01:07Z</time>
      </trkpt>
      <trkpt lat="45.77712" lon="6.59417">
        <ele>1955</ele>
        <time>2022-07-24T09:01:08Z</time>
      </trkpt>
      <trkpt lat="45.77713" lon="6.59418">
        <ele>1955</ele>
        <time>2022-07-24T09:01:09Z</time>
      </trkpt>
      <trkpt lat="45.77714" lon="6.59419">
        <ele>1955</ele>
        <time>2022-07-24T09:01:10Z</time>
      </trkpt>
      <trkpt lat="45.77715" lon="6.5942">
        <ele>1955</ele>
        <time>2022-07-24T09:01:18Z</time>
      </trkpt>
      <trkpt lat="45.77715" lon="6.5942">
        <ele>1955</ele>
        <time>2022-07-24T09:01:19Z</time>
      </trkpt>
      <trkpt lat="45.77716" lon="6.59421">
        <ele>1955</ele>
        <time>2022-07-24T09:01:20Z</time>
      </trkpt>
      <trkpt lat="45.77716" lon="6.59421">
        <ele>1955</ele>
        <time>2022-07-24T09:01:21Z</time>
      </trkpt>
      <trkpt lat="45.77717" lon="6.59421">
        <ele>1955</ele>
        <time>2022-07-24T09:01:22Z</time>
      </trkpt>
      <trkpt lat="45.77718" lon="6.59422">
        <ele>1955</ele>
        <time>2022-07-24T09:01:23Z</time>
      </trkpt>
      <trkpt lat="45.77718" lon="6.59423">
        <ele>1955</ele>
        <time>2022-07-24T09:01:24Z</time>
      </trkpt>
      <trkpt lat="45.77719" lon="6.59423">
        <ele>1955</ele>
        <time>2022-07-24T09:01:25Z</time>
      </trkpt>
      <trkpt lat="45.7772" lon="6.59424">
        <ele>1955</ele>
        <time>2022-07-24T09:01:26Z</time>
      </trkpt>
      <trkpt lat="45.77721" lon="6.59425">
        <ele>1955</ele>
        <time>2022-07-24T09:01:27Z</time>
      </trkpt>
      <trkpt lat="45.77722" lon="6.59426">
        <ele>1955</ele>
        <time>2022-07-24T09:01:28Z</time>
      </trkpt>
      <trkpt lat="45.77723" lon="6.59426">
        <ele>1955</ele>
        <time>2022-07-24T09:01:29Z</time>
      </trkpt>
      <trkpt lat="45.77724" lon="6.59427">
        <ele>1955</ele>
        <time>2022-07-24T09:01:30Z</time>
      </trkpt>
      <trkpt lat="45.77725" lon="6.59427">
        <ele>1955</ele>
        <time>2022-07-24T09:01:31Z</time>
      </trkpt>
      <trkpt lat="45.77726" lon="6.59428">
        <ele>1955</ele>
        <time>2022-07-24T09:01:32Z</time>
      </trkpt>
      <trkpt lat="45.77727" lon="6.59429">
        <ele>1955</ele>
        <time>2022-07-24T09:01:33Z</time>
      </trkpt>
      <trkpt lat="45.77728" lon="6.59429">
        <ele>1955</ele>
        <time>2022-07-24T09:01:34Z</time>
      </trkpt>
      <trkpt lat="45.77729" lon="6.5943">
        <ele>1955</ele>
        <time>2022-07-24T09:01:35Z</time>
      </trkpt>
      <trkpt lat="45.7773" lon="6.5943">
        <ele>1955</ele>
        <time>2022-07-24T09:01:36Z</time>
      </trkpt>
      <trkpt lat="45.77731" lon="6.59431">
        <ele>1955</ele>
        <time>2022-07-24T09:01:37Z</time>
      </trkpt>
      <trkpt lat="45.77732" lon="6.59431">
        <ele>1955</ele>
        <time>2022-07-24T09:01:38Z</time>
      </trkpt>
      <trkpt lat="45.77733" lon="6.59432">
        <ele>1955</ele>
        <time>2022-07-24T09:01:39Z</time>
      </trkpt>
      <trkpt lat="45.77734" lon="6.59432">
        <ele>1955</ele>
        <time>2022-07-24T09:01:40Z</time>
      </trkpt>
      <trkpt lat="45.77735" lon="6.59433">
        <ele>1955</ele>
        <time>2022-07-24T09:01:41Z</time>
      </trkpt>
      <trkpt lat="45.77736" lon="6.59433">
        <ele>1955</ele>
        <time>2022-07-24T09:01:42Z</time>
      </trkpt>
      <trkpt lat="45.77737" lon="6.59434">
        <ele>1955</ele>
        <time>2022-07-24T09:01:43Z</time>
      </trkpt>
      <trkpt lat="45.77738" lon="6.59434">
        <ele>1955</ele>
        <time>2022-07-24T09:01:44Z</time>
      </trkpt>
      <trkpt lat="45.77739" lon="6.59435">
        <ele>1955</ele>
        <time>2022-07-24T09:01:45Z</time>
      </trkpt>
      <trkpt lat="45.7774" lon="6.59436">
        <ele>1955</ele>
        <time>2022-07-24T09:01:46Z</time>
      </trkpt>
      <trkpt lat="45.77741" lon="6.59436">
        <ele>1955</ele>
        <time>2022-07-24T09:01:47Z</time>
      </trkpt>
      <trkpt lat="45.77742" lon="6.59437">
        <ele>1955</ele>
        <time>2022-07-24T09:01:48Z</time>
      </trkpt>
      <trkpt lat="45.77743" lon="6.59437">
        <ele>1955</ele>
        <time>2022-07-24T09:01:49Z</time>
      </trkpt>
      <trkpt lat="45.77744" lon="6.59438">
        <ele>1955</ele>
        <time>2022-07-24T09:01:50Z</time>
      </trkpt>
      <trkpt lat="45.77746" lon="6.59439">
        <ele>1955</ele>
        <time>2022-07-24T09:01:51Z</time>
      </trkpt>
      <trkpt lat="45.77747" lon="6.5944">
        <ele>1955</ele>
        <time>2022-07-24T09:01:52Z</time>
      </trkpt>
      <trkpt lat="45.77748" lon="6.59441">
        <ele>1955</ele>
        <time>2022-07-24T09:01:53Z</time>
      </trkpt>
      <trkpt lat="45.77749" lon="6.59442">
        <ele>1955</ele>
        <time>2022-07-24T09:01:54Z</time>
      </trkpt>
      <trkpt lat="45.7775" lon="6.59443">
        <ele>1955</ele>
        <time>2022-07-24T09:01:55Z</time>
      </trkpt>
      <trkpt lat="45.77751" lon="6.59444">
        <ele>1955</ele>
        <time>2022-07-24T09:01:56Z</time>
      </trkpt>
      <trkpt lat="45.77752" lon="6.59445">
        <ele>1954</ele>
        <time>2022-07-24T09:01:57Z</time>
      </trkpt>
      <trkpt lat="45.77753" lon="6.59446">
        <ele>1954</ele>
        <time>2022-07-24T09:01:58Z</time>
      </trkpt>
      <trkpt lat="45.77754" lon="6.59447">
        <ele>1954</ele>
        <time>2022-07-24T09:01:59Z</time>
      </trkpt>
      <trkpt lat="45.77755" lon="6.59448">
        <ele>1954</ele>
        <time>2022-07-24T09:02:00Z</time>
      </trkpt>
      <trkpt lat="45.77756" lon="6.59449">
        <ele>1954</ele>
        <time>2022-07-24T09:02:01Z</time>
      </trkpt>
      <trkpt lat="45.77756" lon="6.59449">
        <ele>1954</ele>
        <time>2022-07-24T09:02:02Z</time>
      </trkpt>
      <trkpt lat="45.77757" lon="6.5945">
        <ele>1954</ele>
        <time>2022-07-24T09:02:03Z</time>
      </trkpt>
      <trkpt lat="45.77758" lon="6.59451">
        <ele>1954</ele>
        <time>2022-07-24T09:02:04Z</time>
      </trkpt>
      <trkpt lat="45.77759" lon="6.59451">
        <ele>1954</ele>
        <time>2022-07-24T09:02:05Z</time>
      </trkpt>
      <trkpt lat="45.7776" lon="6.59452">
        <ele>1954</ele>
        <time>2022-07-24T09:02:06Z</time>
      </trkpt>
      <trkpt lat="45.77761" lon="6.59453">
        <ele>1954</ele>
        <time>2022-07-24T09:02:07Z</time>
      </trkpt>
      <trkpt lat="45.77762" lon="6.59454">
        <ele>1954</ele>
        <time>2022-07-24T09:02:08Z</time>
      </trkpt>
      <trkpt lat="45.77763" lon="6.59455">
        <ele>1954</ele>
        <time>2022-07-24T09:02:09Z</time>
      </trkpt>
      <trkpt lat="45.77764" lon="6.59456">
        <ele>1954</ele>
        <time>2022-07-24T09:02:10Z</time>
      </trkpt>
      <trkpt lat="45.77765" lon="6.59456">
        <ele>1954</ele>
        <time>2022-07-24T09:02:11Z</time>
      </trkpt>
      <trkpt lat="45.77766" lon="6.59457">
        <ele>1954</ele>
        <time>2022-07-24T09:02:12Z</time>
      </trkpt>
      <trkpt lat="45.77767" lon="6.59457">
        <ele>1954</ele>
        <time>2022-07-24T09:02:13Z</time>
      </trkpt>
      <trkpt lat="45.77769" lon="6.59458">
        <ele>1954</ele>
        <time>2022-07-24T09:02:14Z</time>
      </trkpt>
      <trkpt lat="45.7777" lon="6.59458">
        <ele>1954</ele>
        <time>2022-07-24T09:02:15Z</time>
      </trkpt>
      <trkpt lat="45.77771" lon="6.59459">
        <ele>1954</ele>
        <time>2022-07-24T09:02:16Z</time>
      </trkpt>
      <trkpt lat="45.77772" lon="6.59459">
        <ele>1954</ele>
        <time>2022-07-24T09:02:17Z</time>
      </trkpt>
      <trkpt lat="45.77773" lon="6.5946">
        <ele>1954</ele>
        <time>2022-07-24T09:02:18Z</time>
      </trkpt>
      <trkpt lat="45.77774" lon="6.5946">
        <ele>1954</ele>
        <time>2022-07-24T09:02:19Z</time>
      </trkpt>
      <trkpt lat="45.77775" lon="6.59461">
        <ele>1954</ele>
        <time>2022-07-24T09:02:20Z</time>
      </trkpt>
      <trkpt lat="45.77777" lon="6.59461">
        <ele>1954</ele>
        <time>2022-07-24T09:02:21Z</time>
      </trkpt>
      <trkpt lat="45.77778" lon="6.59461">
        <ele>1953</ele>
        <time>2022-07-24T09:02:22Z</time>
      </trkpt>
      <trkpt lat="45.77779" lon="6.59462">
        <ele>1953</ele>
        <time>2022-07-24T09:02:23Z</time>
      </trkpt>
      <trkpt lat="45.7778" lon="6.59462">
        <ele>1953</ele>
        <time>2022-07-24T09:02:24Z</time>
      </trkpt>
      <trkpt lat="45.77781" lon="6.59462">
        <ele>1953</ele>
        <time>2022-07-24T09:02:25Z</time>
      </trkpt>
      <trkpt lat="45.77782" lon="6.59462">
        <ele>1953</ele>
        <time>2022-07-24T09:02:26Z</time>
      </trkpt>
      <trkpt lat="45.77783" lon="6.59463">
        <ele>1953</ele>
        <time>2022-07-24T09:02:27Z</time>
      </trkpt>
      <trkpt lat="45.77785" lon="6.59463">
        <ele>1953</ele>
        <time>2022-07-24T09:02:28Z</time>
      </trkpt>
      <trkpt lat="45.77786" lon="6.59463">
        <ele>1953</ele>
        <time>2022-07-24T09:02:29Z</time>
      </trkpt>
      <trkpt lat="45.77787" lon="6.59464">
        <ele>1953</ele>
        <time>2022-07-24T09:02:30Z</time>
      </trkpt>
      <trkpt lat="45.77788" lon="6.59464">
        <ele>1953</ele>
        <time>2022-07-24T09:02:31Z</time>
      </trkpt>
      <trkpt lat="45.77789" lon="6.59464">
        <ele>1953</ele>
        <time>2022-07-24T09:02:32Z</time>
      </trkpt>
      <trkpt lat="45.77791" lon="6.59465">
        <ele>1953</ele>
        <time>2022-07-24T09:02:33Z</time>
      </trkpt>
      <trkpt lat="45.77792" lon="6.59465">
        <ele>1953</ele>
        <time>2022-07-24T09:02:34Z</time>
      </trkpt>
      <trkpt lat="45.77793" lon="6.59465">
        <ele>1953</ele>
        <time>2022-07-24T09:02:35Z</time>
      </trkpt>
      <trkpt lat="45.77794" lon="6.59466">
        <ele>1953</ele>
        <time>2022-07-24T09:02:36Z</time>
      </trkpt>
      <trkpt lat="45.77795" lon="6.59466">
        <ele>1952</ele>
        <time>2022-07-24T09:02:37Z</time>
      </trkpt>
      <trkpt lat="45.77796" lon="6.59466">
        <ele>1952</ele>
        <time>2022-07-24T09:02:38Z</time>
      </trkpt>
      <trkpt lat="45.77798" lon="6.59467">
        <ele>1952</ele>
        <time>2022-07-24T09:02:39Z</time>
      </trkpt>
      <trkpt lat="45.77799" lon="6.59467">
        <ele>1952</ele>
        <time>2022-07-24T09:02:40Z</time>
      </trkpt>
      <trkpt lat="45.778" lon="6.59468">
        <ele>1952</ele>
        <time>2022-07-24T09:02:41Z</time>
      </trkpt>
      <trkpt lat="45.77801" lon="6.59468">
        <ele>1952</ele>
        <time>2022-07-24T09:02:42Z</time>
      </trkpt>
      <trkpt lat="45.77802" lon="6.59469">
        <ele>1952</ele>
        <time>2022-07-24T09:02:43Z</time>
      </trkpt>
      <trkpt lat="45.77804" lon="6.59469">
        <ele>1952</ele>
        <time>2022-07-24T09:02:44Z</time>
      </trkpt>
      <trkpt lat="45.77805" lon="6.5947">
        <ele>1952</ele>
        <time>2022-07-24T09:02:45Z</time>
      </trkpt>
      <trkpt lat="45.77806" lon="6.5947">
        <ele>1952</ele>
        <time>2022-07-24T09:02:46Z</time>
      </trkpt>
      <trkpt lat="45.77807" lon="6.59471">
        <ele>1952</ele>
        <time>2022-07-24T09:02:47Z</time>
      </trkpt>
      <trkpt lat="45.77808" lon="6.59472">
        <ele>1952</ele>
        <time>2022-07-24T09:02:48Z</time>
      </trkpt>
      <trkpt lat="45.77809" lon="6.59473">
        <ele>1952</ele>
        <time>2022-07-24T09:02:49Z</time>
      </trkpt>
      <trkpt lat="45.7781" lon="6.59474">
        <ele>1952</ele>
        <time>2022-07-24T09:02:50Z</time>
      </trkpt>
      <trkpt lat="45.77812" lon="6.59475">
        <ele>1952</ele>
        <time>2022-07-24T09:02:51Z</time>
      </trkpt>
      <trkpt lat="45.77813" lon="6.59475">
        <ele>1952</ele>
        <time>2022-07-24T09:02:52Z</time>
      </trkpt>
      <trkpt lat="45.77814" lon="6.59476">
        <ele>1952</ele>
        <time>2022-07-24T09:02:53Z</time>
      </trkpt>
      <trkpt lat="45.77815" lon="6.59477">
        <ele>1952</ele>
        <time>2022-07-24T09:02:54Z</time>
      </trkpt>
      <trkpt lat="45.77816" lon="6.59478">
        <ele>1952</ele>
        <time>2022-07-24T09:02:55Z</time>
      </trkpt>
      <trkpt lat="45.77817" lon="6.59479">
        <ele>1952</ele>
        <time>2022-07-24T09:02:56Z</time>
      </trkpt>
      <trkpt lat="45.77817" lon="6.5948">
        <ele>1952</ele>
        <time>2022-07-24T09:02:57Z</time>
      </trkpt>
      <trkpt lat="45.77818" lon="6.5948">
        <ele>1952</ele>
        <time>2022-07-24T09:02:58Z</time>
      </trkpt>
      <trkpt lat="45.77818" lon="6.59481">
        <ele>1952</ele>
        <time>2022-07-24T09:02:59Z</time>
      </trkpt>
      <trkpt lat="45.77819" lon="6.59482">
        <ele>1952</ele>
        <time>2022-07-24T09:03:00Z</time>
      </trkpt>
      <trkpt lat="45.77819" lon="6.59483">
        <ele>1952</ele>
        <time>2022-07-24T09:03:01Z</time>
      </trkpt>
      <trkpt lat="45.7782" lon="6.59484">
        <ele>1952</ele>
        <time>2022-07-24T09:03:02Z</time>
      </trkpt>
      <trkpt lat="45.77821" lon="6.59485">
        <ele>1952</ele>
        <time>2022-07-24T09:03:03Z</time>
      </trkpt>
      <trkpt lat="45.77822" lon="6.59486">
        <ele>1952</ele>
        <time>2022-07-24T09:03:04Z</time>
      </trkpt>
      <trkpt lat="45.77823" lon="6.59487">
        <ele>1952</ele>
        <time>2022-07-24T09:03:05Z</time>
      </trkpt>
      <trkpt lat="45.77824" lon="6.59488">
        <ele>1952</ele>
        <time>2022-07-24T09:03:06Z</time>
      </trkpt>
      <trkpt lat="45.77825" lon="6.59489">
        <ele>1952</ele>
        <time>2022-07-24T09:03:07Z</time>
      </trkpt>
      <trkpt lat="45.77826" lon="6.5949">
        <ele>1952</ele>
        <time>2022-07-24T09:03:08Z</time>
      </trkpt>
      <trkpt lat="45.77826" lon="6.59492">
        <ele>1952</ele>
        <time>2022-07-24T09:03:09Z</time>
      </trkpt>
      <trkpt lat="45.77827" lon="6.59493">
        <ele>1952</ele>
        <time>2022-07-24T09:03:10Z</time>
      </trkpt>
      <trkpt lat="45.77828" lon="6.59494">
        <ele>1952</ele>
        <time>2022-07-24T09:03:11Z</time>
      </trkpt>
      <trkpt lat="45.77829" lon="6.59495">
        <ele>1952</ele>
        <time>2022-07-24T09:03:12Z</time>
      </trkpt>
      <trkpt lat="45.7783" lon="6.59496">
        <ele>1951</ele>
        <time>2022-07-24T09:03:23Z</time>
      </trkpt>
      <trkpt lat="45.7783" lon="6.59496">
        <ele>1951</ele>
        <time>2022-07-24T09:03:24Z</time>
      </trkpt>
      <trkpt lat="45.7783" lon="6.59496">
        <ele>1951</ele>
        <time>2022-07-24T09:03:25Z</time>
      </trkpt>
      <trkpt lat="45.7783" lon="6.59496">
        <ele>1952</ele>
        <time>2022-07-24T09:03:26Z</time>
      </trkpt>
      <trkpt lat="45.7783" lon="6.59497">
        <ele>1952</ele>
        <time>2022-07-24T09:03:27Z</time>
      </trkpt>
      <trkpt lat="45.7783" lon="6.59498">
        <ele>1952</ele>
        <time>2022-07-24T09:03:28Z</time>
      </trkpt>
      <trkpt lat="45.7783" lon="6.59499">
        <ele>1952</ele>
        <time>2022-07-24T09:03:29Z</time>
      </trkpt>
      <trkpt lat="45.77831" lon="6.59499">
        <ele>1952</ele>
        <time>2022-07-24T09:03:30Z</time>
      </trkpt>
      <trkpt lat="45.77831" lon="6.595">
        <ele>1952</ele>
        <time>2022-07-24T09:03:31Z</time>
      </trkpt>
      <trkpt lat="45.77831" lon="6.59501">
        <ele>1952</ele>
        <time>2022-07-24T09:03:55Z</time>
      </trkpt>
      <trkpt lat="45.77831" lon="6.59502">
        <ele>1952</ele>
        <time>2022-07-24T09:03:56Z</time>
      </trkpt>
      <trkpt lat="45.77832" lon="6.59502">
        <ele>1952</ele>
        <time>2022-07-24T09:03:57Z</time>
      </trkpt>
      <trkpt lat="45.77832" lon="6.59503">
        <ele>1952</ele>
        <time>2022-07-24T09:03:58Z</time>
      </trkpt>
      <trkpt lat="45.77833" lon="6.59504">
        <ele>1952</ele>
        <time>2022-07-24T09:03:59Z</time>
      </trkpt>
      <trkpt lat="45.77834" lon="6.59505">
        <ele>1952</ele>
        <time>2022-07-24T09:04:00Z</time>
      </trkpt>
      <trkpt lat="45.77835" lon="6.59506">
        <ele>1952</ele>
        <time>2022-07-24T09:04:01Z</time>
      </trkpt>
      <trkpt lat="45.77836" lon="6.59507">
        <ele>1952</ele>
        <time>2022-07-24T09:04:02Z</time>
      </trkpt>
      <trkpt lat="45.77837" lon="6.59508">
        <ele>1952</ele>
        <time>2022-07-24T09:04:03Z</time>
      </trkpt>
      <trkpt lat="45.77837" lon="6.59509">
        <ele>1952</ele>
        <time>2022-07-24T09:04:04Z</time>
      </trkpt>
      <trkpt lat="45.77838" lon="6.5951">
        <ele>1952</ele>
        <time>2022-07-24T09:04:05Z</time>
      </trkpt>
      <trkpt lat="45.77839" lon="6.59511">
        <ele>1952</ele>
        <time>2022-07-24T09:04:06Z</time>
      </trkpt>
      <trkpt lat="45.7784" lon="6.59512">
        <ele>1952</ele>
        <time>2022-07-24T09:04:07Z</time>
      </trkpt>
      <trkpt lat="45.77841" lon="6.59513">
        <ele>1952</ele>
        <time>2022-07-24T09:04:08Z</time>
      </trkpt>
      <trkpt lat="45.77842" lon="6.59514">
        <ele>1952</ele>
        <time>2022-07-24T09:04:09Z</time>
      </trkpt>
      <trkpt lat="45.77843" lon="6.59515">
        <ele>1952</ele>
        <time>2022-07-24T09:04:10Z</time>
      </trkpt>
      <trkpt lat="45.77844" lon="6.59516">
        <ele>1952</ele>
        <time>2022-07-24T09:04:11Z</time>
      </trkpt>
      <trkpt lat="45.77844" lon="6.59517">
        <ele>1952</ele>
        <time>2022-07-24T09:04:12Z</time>
      </trkpt>
      <trkpt lat="45.77845" lon="6.59519">
        <ele>1952</ele>
        <time>2022-07-24T09:04:13Z</time>
      </trkpt>
      <trkpt lat="45.77846" lon="6.5952">
        <ele>1952</ele>
        <time>2022-07-24T09:04:14Z</time>
      </trkpt>
      <trkpt lat="45.77847" lon="6.59521">
        <ele>1952</ele>
        <time>2022-07-24T09:04:15Z</time>
      </trkpt>
      <trkpt lat="45.77848" lon="6.59522">
        <ele>1952</ele>
        <time>2022-07-24T09:04:16Z</time>
      </trkpt>
      <trkpt lat="45.77849" lon="6.59523">
        <ele>1952</ele>
        <time>2022-07-24T09:04:17Z</time>
      </trkpt>
      <trkpt lat="45.7785" lon="6.59524">
        <ele>1952</ele>
        <time>2022-07-24T09:04:18Z</time>
      </trkpt>
      <trkpt lat="45.77851" lon="6.59525">
        <ele>1952</ele>
        <time>2022-07-24T09:04:19Z</time>
      </trkpt>
      <trkpt lat="45.77852" lon="6.59526">
        <ele>1952</ele>
        <time>2022-07-24T09:04:20Z</time>
      </trkpt>
      <trkpt lat="45.77853" lon="6.59527">
        <ele>1952</ele>
        <time>2022-07-24T09:04:21Z</time>
      </trkpt>
      <trkpt lat="45.77854" lon="6.59528">
        <ele>1951</ele>
        <time>2022-07-24T09:04:22Z</time>
      </trkpt>
      <trkpt lat="45.77855" lon="6.59529">
        <ele>1951</ele>
        <time>2022-07-24T09:04:23Z</time>
      </trkpt>
      <trkpt lat="45.77856" lon="6.5953">
        <ele>1951</ele>
        <time>2022-07-24T09:04:24Z</time>
      </trkpt>
      <trkpt lat="45.77857" lon="6.59531">
        <ele>1951</ele>
        <time>2022-07-24T09:04:25Z</time>
      </trkpt>
      <trkpt lat="45.77858" lon="6.59532">
        <ele>1951</ele>
        <time>2022-07-24T09:04:26Z</time>
      </trkpt>
      <trkpt lat="45.77859" lon="6.59533">
        <ele>1951</ele>
        <time>2022-07-24T09:04:27Z</time>
      </trkpt>
      <trkpt lat="45.7786" lon="6.59534">
        <ele>1951</ele>
        <time>2022-07-24T09:04:28Z</time>
      </trkpt>
      <trkpt lat="45.77861" lon="6.59535">
        <ele>1951</ele>
        <time>2022-07-24T09:04:29Z</time>
      </trkpt>
      <trkpt lat="45.77862" lon="6.59536">
        <ele>1951</ele>
        <time>2022-07-24T09:04:30Z</time>
      </trkpt>
      <trkpt lat="45.77863" lon="6.59537">
        <ele>1951</ele>
        <time>2022-07-24T09:04:31Z</time>
      </trkpt>
      <trkpt lat="45.77863" lon="6.59538">
        <ele>1951</ele>
        <time>2022-07-24T09:04:32Z</time>
      </trkpt>
      <trkpt lat="45.77864" lon="6.59539">
        <ele>1951</ele>
        <time>2022-07-24T09:04:33Z</time>
      </trkpt>
      <trkpt lat="45.77865" lon="6.59539">
        <ele>1951</ele>
        <time>2022-07-24T09:04:34Z</time>
      </trkpt>
      <trkpt lat="45.77866" lon="6.5954">
        <ele>1951</ele>
        <time>2022-07-24T09:04:35Z</time>
      </trkpt>
      <trkpt lat="45.77867" lon="6.59541">
        <ele>1951</ele>
        <time>2022-07-24T09:04:36Z</time>
      </trkpt>
      <trkpt lat="45.77868" lon="6.59542">
        <ele>1950</ele>
        <time>2022-07-24T09:04:37Z</time>
      </trkpt>
      <trkpt lat="45.77869" lon="6.59543">
        <ele>1950</ele>
        <time>2022-07-24T09:04:38Z</time>
      </trkpt>
      <trkpt lat="45.7787" lon="6.59544">
        <ele>1950</ele>
        <time>2022-07-24T09:04:39Z</time>
      </trkpt>
      <trkpt lat="45.77871" lon="6.59545">
        <ele>1950</ele>
        <time>2022-07-24T09:04:40Z</time>
      </trkpt>
      <trkpt lat="45.77872" lon="6.59546">
        <ele>1950</ele>
        <time>2022-07-24T09:04:41Z</time>
      </trkpt>
      <trkpt lat="45.77873" lon="6.59547">
        <ele>1950</ele>
        <time>2022-07-24T09:04:42Z</time>
      </trkpt>
      <trkpt lat="45.77874" lon="6.59548">
        <ele>1950</ele>
        <time>2022-07-24T09:04:43Z</time>
      </trkpt>
      <trkpt lat="45.77874" lon="6.59548">
        <ele>1950</ele>
        <time>2022-07-24T09:04:50Z</time>
      </trkpt>
      <trkpt lat="45.77875" lon="6.59549">
        <ele>1950</ele>
        <time>2022-07-24T09:04:51Z</time>
      </trkpt>
      <trkpt lat="45.77875" lon="6.59549">
        <ele>1950</ele>
        <time>2022-07-24T09:04:52Z</time>
      </trkpt>
      <trkpt lat="45.77875" lon="6.59549">
        <ele>1950</ele>
        <time>2022-07-24T09:04:53Z</time>
      </trkpt>
      <trkpt lat="45.77876" lon="6.59549">
        <ele>1950</ele>
        <time>2022-07-24T09:04:54Z</time>
      </trkpt>
      <trkpt lat="45.77876" lon="6.59549">
        <ele>1949</ele>
        <time>2022-07-24T09:05:13Z</time>
      </trkpt>
      <trkpt lat="45.77876" lon="6.59549">
        <ele>1949</ele>
        <time>2022-07-24T09:05:14Z</time>
      </trkpt>
      <trkpt lat="45.77877" lon="6.59549">
        <ele>1949</ele>
        <time>2022-07-24T09:05:15Z</time>
      </trkpt>
      <trkpt lat="45.77877" lon="6.59551">
        <ele>1949</ele>
        <time>2022-07-24T09:05:16Z</time>
      </trkpt>
      <trkpt lat="45.77877" lon="6.59552">
        <ele>1949</ele>
        <time>2022-07-24T09:05:17Z</time>
      </trkpt>
      <trkpt lat="45.77877" lon="6.59554">
        <ele>1949</ele>
        <time>2022-07-24T09:05:18Z</time>
      </trkpt>
      <trkpt lat="45.77877" lon="6.59557">
        <ele>1949</ele>
        <time>2022-07-24T09:05:19Z</time>
      </trkpt>
      <trkpt lat="45.77878" lon="6.59559">
        <ele>1949</ele>
        <time>2022-07-24T09:05:20Z</time>
      </trkpt>
      <trkpt lat="45.77878" lon="6.59561">
        <ele>1949</ele>
        <time>2022-07-24T09:05:21Z</time>
      </trkpt>
      <trkpt lat="45.77879" lon="6.59563">
        <ele>1949</ele>
        <time>2022-07-24T09:05:22Z</time>
      </trkpt>
      <trkpt lat="45.7788" lon="6.59564">
        <ele>1949</ele>
        <time>2022-07-24T09:05:23Z</time>
      </trkpt>
      <trkpt lat="45.7788" lon="6.59566">
        <ele>1949</ele>
        <time>2022-07-24T09:05:24Z</time>
      </trkpt>
      <trkpt lat="45.77881" lon="6.59567">
        <ele>1949</ele>
        <time>2022-07-24T09:05:25Z</time>
      </trkpt>
      <trkpt lat="45.77881" lon="6.59568">
        <ele>1949</ele>
        <time>2022-07-24T09:05:26Z</time>
      </trkpt>
      <trkpt lat="45.77882" lon="6.59569">
        <ele>1949</ele>
        <time>2022-07-24T09:05:27Z</time>
      </trkpt>
      <trkpt lat="45.77882" lon="6.5957">
        <ele>1949</ele>
        <time>2022-07-24T09:05:28Z</time>
      </trkpt>
      <trkpt lat="45.77883" lon="6.59572">
        <ele>1949</ele>
        <time>2022-07-24T09:05:29Z</time>
      </trkpt>
      <trkpt lat="45.77883" lon="6.59573">
        <ele>1949</ele>
        <time>2022-07-24T09:05:30Z</time>
      </trkpt>
      <trkpt lat="45.77884" lon="6.59574">
        <ele>1949</ele>
        <time>2022-07-24T09:05:31Z</time>
      </trkpt>
      <trkpt lat="45.77884" lon="6.59575">
        <ele>1948</ele>
        <time>2022-07-24T09:05:32Z</time>
      </trkpt>
      <trkpt lat="45.77885" lon="6.59577">
        <ele>1948</ele>
        <time>2022-07-24T09:05:33Z</time>
      </trkpt>
      <trkpt lat="45.77886" lon="6.59578">
        <ele>1948</ele>
        <time>2022-07-24T09:05:34Z</time>
      </trkpt>
      <trkpt lat="45.77886" lon="6.5958">
        <ele>1948</ele>
        <time>2022-07-24T09:05:35Z</time>
      </trkpt>
      <trkpt lat="45.77887" lon="6.59581">
        <ele>1948</ele>
        <time>2022-07-24T09:05:36Z</time>
      </trkpt>
      <trkpt lat="45.77888" lon="6.59583">
        <ele>1948</ele>
        <time>2022-07-24T09:05:37Z</time>
      </trkpt>
      <trkpt lat="45.77888" lon="6.59585">
        <ele>1948</ele>
        <time>2022-07-24T09:05:38Z</time>
      </trkpt>
      <trkpt lat="45.77889" lon="6.59586">
        <ele>1948</ele>
        <time>2022-07-24T09:05:39Z</time>
      </trkpt>
      <trkpt lat="45.7789" lon="6.59588">
        <ele>1948</ele>
        <time>2022-07-24T09:05:40Z</time>
      </trkpt>
      <trkpt lat="45.7789" lon="6.5959">
        <ele>1948</ele>
        <time>2022-07-24T09:05:41Z</time>
      </trkpt>
      <trkpt lat="45.77891" lon="6.59592">
        <ele>1947</ele>
        <time>2022-07-24T09:05:42Z</time>
      </trkpt>
      <trkpt lat="45.77892" lon="6.59593">
        <ele>1947</ele>
        <time>2022-07-24T09:05:43Z</time>
      </trkpt>
      <trkpt lat="45.77893" lon="6.59595">
        <ele>1947</ele>
        <time>2022-07-24T09:05:44Z</time>
      </trkpt>
      <trkpt lat="45.77894" lon="6.59597">
        <ele>1947</ele>
        <time>2022-07-24T09:05:45Z</time>
      </trkpt>
      <trkpt lat="45.77895" lon="6.59599">
        <ele>1947</ele>
        <time>2022-07-24T09:05:46Z</time>
      </trkpt>
      <trkpt lat="45.77895" lon="6.59601">
        <ele>1946</ele>
        <time>2022-07-24T09:05:47Z</time>
      </trkpt>
      <trkpt lat="45.77896" lon="6.59602">
        <ele>1946</ele>
        <time>2022-07-24T09:05:48Z</time>
      </trkpt>
      <trkpt lat="45.77897" lon="6.59604">
        <ele>1946</ele>
        <time>2022-07-24T09:05:49Z</time>
      </trkpt>
      <trkpt lat="45.77898" lon="6.59606">
        <ele>1946</ele>
        <time>2022-07-24T09:05:50Z</time>
      </trkpt>
      <trkpt lat="45.77898" lon="6.59607">
        <ele>1946</ele>
        <time>2022-07-24T09:05:51Z</time>
      </trkpt>
      <trkpt lat="45.77899" lon="6.59609">
        <ele>1946</ele>
        <time>2022-07-24T09:05:52Z</time>
      </trkpt>
      <trkpt lat="45.77899" lon="6.5961">
        <ele>1946</ele>
        <time>2022-07-24T09:05:53Z</time>
      </trkpt>
      <trkpt lat="45.779" lon="6.59612">
        <ele>1946</ele>
        <time>2022-07-24T09:05:54Z</time>
      </trkpt>
      <trkpt lat="45.779" lon="6.59613">
        <ele>1946</ele>
        <time>2022-07-24T09:05:55Z</time>
      </trkpt>
      <trkpt lat="45.77901" lon="6.59614">
        <ele>1946</ele>
        <time>2022-07-24T09:05:56Z</time>
      </trkpt>
      <trkpt lat="45.77901" lon="6.59616">
        <ele>1945</ele>
        <time>2022-07-24T09:05:57Z</time>
      </trkpt>
      <trkpt lat="45.77902" lon="6.59617">
        <ele>1945</ele>
        <time>2022-07-24T09:05:58Z</time>
      </trkpt>
      <trkpt lat="45.77902" lon="6.59618">
        <ele>1945</ele>
        <time>2022-07-24T09:05:59Z</time>
      </trkpt>
      <trkpt lat="45.77903" lon="6.5962">
        <ele>1945</ele>
        <time>2022-07-24T09:06:00Z</time>
      </trkpt>
      <trkpt lat="45.77903" lon="6.59621">
        <ele>1945</ele>
        <time>2022-07-24T09:06:01Z</time>
      </trkpt>
      <trkpt lat="45.77904" lon="6.59623">
        <ele>1944</ele>
        <time>2022-07-24T09:06:02Z</time>
      </trkpt>
      <trkpt lat="45.77905" lon="6.59624">
        <ele>1944</ele>
        <time>2022-07-24T09:06:03Z</time>
      </trkpt>
      <trkpt lat="45.77906" lon="6.59625">
        <ele>1943</ele>
        <time>2022-07-24T09:06:04Z</time>
      </trkpt>
      <trkpt lat="45.77906" lon="6.59627">
        <ele>1943</ele>
        <time>2022-07-24T09:06:05Z</time>
      </trkpt>
      <trkpt lat="45.77907" lon="6.59628">
        <ele>1943</ele>
        <time>2022-07-24T09:06:06Z</time>
      </trkpt>
      <trkpt lat="45.77908" lon="6.59629">
        <ele>1943</ele>
        <time>2022-07-24T09:06:07Z</time>
      </trkpt>
      <trkpt lat="45.77908" lon="6.5963">
        <ele>1943</ele>
        <time>2022-07-24T09:06:08Z</time>
      </trkpt>
      <trkpt lat="45.77909" lon="6.59631">
        <ele>1943</ele>
        <time>2022-07-24T09:06:09Z</time>
      </trkpt>
      <trkpt lat="45.7791" lon="6.59633">
        <ele>1943</ele>
        <time>2022-07-24T09:06:10Z</time>
      </trkpt>
      <trkpt lat="45.77911" lon="6.59634">
        <ele>1943</ele>
        <time>2022-07-24T09:06:11Z</time>
      </trkpt>
      <trkpt lat="45.77912" lon="6.59635">
        <ele>1942</ele>
        <time>2022-07-24T09:06:12Z</time>
      </trkpt>
      <trkpt lat="45.77913" lon="6.59636">
        <ele>1942</ele>
        <time>2022-07-24T09:06:13Z</time>
      </trkpt>
      <trkpt lat="45.77914" lon="6.59637">
        <ele>1942</ele>
        <time>2022-07-24T09:06:14Z</time>
      </trkpt>
      <trkpt lat="45.77915" lon="6.59638">
        <ele>1942</ele>
        <time>2022-07-24T09:06:15Z</time>
      </trkpt>
      <trkpt lat="45.77916" lon="6.59639">
        <ele>1942</ele>
        <time>2022-07-24T09:06:16Z</time>
      </trkpt>
      <trkpt lat="45.77916" lon="6.5964">
        <ele>1942</ele>
        <time>2022-07-24T09:06:17Z</time>
      </trkpt>
      <trkpt lat="45.77918" lon="6.59641">
        <ele>1942</ele>
        <time>2022-07-24T09:06:18Z</time>
      </trkpt>
      <trkpt lat="45.77919" lon="6.59642">
        <ele>1942</ele>
        <time>2022-07-24T09:06:19Z</time>
      </trkpt>
      <trkpt lat="45.7792" lon="6.59643">
        <ele>1942</ele>
        <time>2022-07-24T09:06:20Z</time>
      </trkpt>
      <trkpt lat="45.77921" lon="6.59644">
        <ele>1942</ele>
        <time>2022-07-24T09:06:21Z</time>
      </trkpt>
      <trkpt lat="45.77923" lon="6.59645">
        <ele>1941</ele>
        <time>2022-07-24T09:06:22Z</time>
      </trkpt>
      <trkpt lat="45.77924" lon="6.59647">
        <ele>1941</ele>
        <time>2022-07-24T09:06:23Z</time>
      </trkpt>
      <trkpt lat="45.77925" lon="6.59648">
        <ele>1941</ele>
        <time>2022-07-24T09:06:24Z</time>
      </trkpt>
      <trkpt lat="45.77927" lon="6.5965">
        <ele>1941</ele>
        <time>2022-07-24T09:06:25Z</time>
      </trkpt>
      <trkpt lat="45.77928" lon="6.59651">
        <ele>1941</ele>
        <time>2022-07-24T09:06:26Z</time>
      </trkpt>
      <trkpt lat="45.77929" lon="6.59652">
        <ele>1940</ele>
        <time>2022-07-24T09:06:27Z</time>
      </trkpt>
      <trkpt lat="45.7793" lon="6.59654">
        <ele>1940</ele>
        <time>2022-07-24T09:06:28Z</time>
      </trkpt>
      <trkpt lat="45.77931" lon="6.59655">
        <ele>1940</ele>
        <time>2022-07-24T09:06:29Z</time>
      </trkpt>
      <trkpt lat="45.77932" lon="6.59656">
        <ele>1940</ele>
        <time>2022-07-24T09:06:30Z</time>
      </trkpt>
      <trkpt lat="45.77933" lon="6.59657">
        <ele>1940</ele>
        <time>2022-07-24T09:06:31Z</time>
      </trkpt>
      <trkpt lat="45.77934" lon="6.59659">
        <ele>1940</ele>
        <time>2022-07-24T09:06:32Z</time>
      </trkpt>
      <trkpt lat="45.77935" lon="6.5966">
        <ele>1940</ele>
        <time>2022-07-24T09:06:33Z</time>
      </trkpt>
      <trkpt lat="45.77936" lon="6.59661">
        <ele>1940</ele>
        <time>2022-07-24T09:06:34Z</time>
      </trkpt>
      <trkpt lat="45.77937" lon="6.59662">
        <ele>1940</ele>
        <time>2022-07-24T09:06:35Z</time>
      </trkpt>
      <trkpt lat="45.77938" lon="6.59663">
        <ele>1940</ele>
        <time>2022-07-24T09:06:36Z</time>
      </trkpt>
      <trkpt lat="45.77939" lon="6.59664">
        <ele>1939</ele>
        <time>2022-07-24T09:06:37Z</time>
      </trkpt>
      <trkpt lat="45.7794" lon="6.59665">
        <ele>1939</ele>
        <time>2022-07-24T09:06:38Z</time>
      </trkpt>
      <trkpt lat="45.77941" lon="6.59667">
        <ele>1939</ele>
        <time>2022-07-24T09:06:39Z</time>
      </trkpt>
      <trkpt lat="45.77942" lon="6.59668">
        <ele>1939</ele>
        <time>2022-07-24T09:06:40Z</time>
      </trkpt>
      <trkpt lat="45.77944" lon="6.59669">
        <ele>1939</ele>
        <time>2022-07-24T09:06:41Z</time>
      </trkpt>
      <trkpt lat="45.77945" lon="6.5967">
        <ele>1939</ele>
        <time>2022-07-24T09:06:42Z</time>
      </trkpt>
      <trkpt lat="45.77946" lon="6.59671">
        <ele>1939</ele>
        <time>2022-07-24T09:06:43Z</time>
      </trkpt>
      <trkpt lat="45.77947" lon="6.59672">
        <ele>1939</ele>
        <time>2022-07-24T09:06:44Z</time>
      </trkpt>
      <trkpt lat="45.77948" lon="6.59673">
        <ele>1939</ele>
        <time>2022-07-24T09:06:45Z</time>
      </trkpt>
      <trkpt lat="45.7795" lon="6.59674">
        <ele>1939</ele>
        <time>2022-07-24T09:06:46Z</time>
      </trkpt>
      <trkpt lat="45.77951" lon="6.59674">
        <ele>1938</ele>
        <time>2022-07-24T09:06:47Z</time>
      </trkpt>
      <trkpt lat="45.77952" lon="6.59675">
        <ele>1938</ele>
        <time>2022-07-24T09:06:48Z</time>
      </trkpt>
      <trkpt lat="45.77953" lon="6.59676">
        <ele>1938</ele>
        <time>2022-07-24T09:06:49Z</time>
      </trkpt>
      <trkpt lat="45.77954" lon="6.59676">
        <ele>1938</ele>
        <time>2022-07-24T09:06:50Z</time>
      </trkpt>
      <trkpt lat="45.77955" lon="6.59677">
        <ele>1938</ele>
        <time>2022-07-24T09:06:51Z</time>
      </trkpt>
      <trkpt lat="45.77956" lon="6.59677">
        <ele>1938</ele>
        <time>2022-07-24T09:06:52Z</time>
      </trkpt>
      <trkpt lat="45.77957" lon="6.59677">
        <ele>1938</ele>
        <time>2022-07-24T09:06:53Z</time>
      </trkpt>
      <trkpt lat="45.77958" lon="6.59677">
        <ele>1938</ele>
        <time>2022-07-24T09:06:54Z</time>
      </trkpt>
      <trkpt lat="45.7796" lon="6.59678">
        <ele>1938</ele>
        <time>2022-07-24T09:06:55Z</time>
      </trkpt>
      <trkpt lat="45.77961" lon="6.59678">
        <ele>1938</ele>
        <time>2022-07-24T09:06:56Z</time>
      </trkpt>
      <trkpt lat="45.77962" lon="6.59678">
        <ele>1937</ele>
        <time>2022-07-24T09:06:57Z</time>
      </trkpt>
      <trkpt lat="45.77963" lon="6.59678">
        <ele>1937</ele>
        <time>2022-07-24T09:06:58Z</time>
      </trkpt>
      <trkpt lat="45.77964" lon="6.59679">
        <ele>1937</ele>
        <time>2022-07-24T09:06:59Z</time>
      </trkpt>
      <trkpt lat="45.77966" lon="6.59679">
        <ele>1937</ele>
        <time>2022-07-24T09:07:00Z</time>
      </trkpt>
      <trkpt lat="45.77967" lon="6.59679">
        <ele>1937</ele>
        <time>2022-07-24T09:07:01Z</time>
      </trkpt>
      <trkpt lat="45.77968" lon="6.5968">
        <ele>1936</ele>
        <time>2022-07-24T09:07:02Z</time>
      </trkpt>
      <trkpt lat="45.77969" lon="6.5968">
        <ele>1936</ele>
        <time>2022-07-24T09:07:03Z</time>
      </trkpt>
      <trkpt lat="45.7797" lon="6.5968">
        <ele>1936</ele>
        <time>2022-07-24T09:07:04Z</time>
      </trkpt>
      <trkpt lat="45.77971" lon="6.59681">
        <ele>1936</ele>
        <time>2022-07-24T09:07:05Z</time>
      </trkpt>
      <trkpt lat="45.77972" lon="6.59681">
        <ele>1936</ele>
        <time>2022-07-24T09:07:06Z</time>
      </trkpt>
      <trkpt lat="45.77973" lon="6.59681">
        <ele>1936</ele>
        <time>2022-07-24T09:07:07Z</time>
      </trkpt>
      <trkpt lat="45.77974" lon="6.59681">
        <ele>1936</ele>
        <time>2022-07-24T09:07:08Z</time>
      </trkpt>
      <trkpt lat="45.77975" lon="6.59682">
        <ele>1936</ele>
        <time>2022-07-24T09:07:09Z</time>
      </trkpt>
      <trkpt lat="45.77977" lon="6.59682">
        <ele>1936</ele>
        <time>2022-07-24T09:07:10Z</time>
      </trkpt>
      <trkpt lat="45.77978" lon="6.59682">
        <ele>1936</ele>
        <time>2022-07-24T09:07:11Z</time>
      </trkpt>
      <trkpt lat="45.77979" lon="6.59682">
        <ele>1935</ele>
        <time>2022-07-24T09:07:12Z</time>
      </trkpt>
      <trkpt lat="45.77981" lon="6.59683">
        <ele>1935</ele>
        <time>2022-07-24T09:07:13Z</time>
      </trkpt>
      <trkpt lat="45.77982" lon="6.59683">
        <ele>1935</ele>
        <time>2022-07-24T09:07:14Z</time>
      </trkpt>
      <trkpt lat="45.77983" lon="6.59683">
        <ele>1935</ele>
        <time>2022-07-24T09:07:15Z</time>
      </trkpt>
      <trkpt lat="45.77984" lon="6.59682">
        <ele>1935</ele>
        <time>2022-07-24T09:07:16Z</time>
      </trkpt>
      <trkpt lat="45.77985" lon="6.59682">
        <ele>1934</ele>
        <time>2022-07-24T09:07:17Z</time>
      </trkpt>
      <trkpt lat="45.77987" lon="6.59681">
        <ele>1934</ele>
        <time>2022-07-24T09:07:18Z</time>
      </trkpt>
      <trkpt lat="45.77988" lon="6.59681">
        <ele>1934</ele>
        <time>2022-07-24T09:07:19Z</time>
      </trkpt>
      <trkpt lat="45.77989" lon="6.5968">
        <ele>1934</ele>
        <time>2022-07-24T09:07:20Z</time>
      </trkpt>
      <trkpt lat="45.7799" lon="6.59679">
        <ele>1934</ele>
        <time>2022-07-24T09:07:21Z</time>
      </trkpt>
      <trkpt lat="45.77991" lon="6.59678">
        <ele>1934</ele>
        <time>2022-07-24T09:07:22Z</time>
      </trkpt>
      <trkpt lat="45.77992" lon="6.59677">
        <ele>1934</ele>
        <time>2022-07-24T09:07:23Z</time>
      </trkpt>
      <trkpt lat="45.77993" lon="6.59676">
        <ele>1934</ele>
        <time>2022-07-24T09:07:24Z</time>
      </trkpt>
      <trkpt lat="45.77994" lon="6.59675">
        <ele>1934</ele>
        <time>2022-07-24T09:07:25Z</time>
      </trkpt>
      <trkpt lat="45.77995" lon="6.59674">
        <ele>1934</ele>
        <time>2022-07-24T09:07:26Z</time>
      </trkpt>
      <trkpt lat="45.77996" lon="6.59674">
        <ele>1933</ele>
        <time>2022-07-24T09:07:27Z</time>
      </trkpt>
      <trkpt lat="45.77997" lon="6.59673">
        <ele>1933</ele>
        <time>2022-07-24T09:07:28Z</time>
      </trkpt>
      <trkpt lat="45.77998" lon="6.59672">
        <ele>1933</ele>
        <time>2022-07-24T09:07:29Z</time>
      </trkpt>
      <trkpt lat="45.77999" lon="6.59671">
        <ele>1933</ele>
        <time>2022-07-24T09:07:30Z</time>
      </trkpt>
      <trkpt lat="45.78" lon="6.5967">
        <ele>1933</ele>
        <time>2022-07-24T09:07:31Z</time>
      </trkpt>
      <trkpt lat="45.78001" lon="6.59669">
        <ele>1933</ele>
        <time>2022-07-24T09:07:32Z</time>
      </trkpt>
      <trkpt lat="45.78002" lon="6.59668">
        <ele>1933</ele>
        <time>2022-07-24T09:07:33Z</time>
      </trkpt>
      <trkpt lat="45.78003" lon="6.59667">
        <ele>1933</ele>
        <time>2022-07-24T09:07:34Z</time>
      </trkpt>
      <trkpt lat="45.78004" lon="6.59666">
        <ele>1933</ele>
        <time>2022-07-24T09:07:35Z</time>
      </trkpt>
      <trkpt lat="45.78005" lon="6.59666">
        <ele>1933</ele>
        <time>2022-07-24T09:07:36Z</time>
      </trkpt>
      <trkpt lat="45.78006" lon="6.59665">
        <ele>1932</ele>
        <time>2022-07-24T09:07:37Z</time>
      </trkpt>
      <trkpt lat="45.78007" lon="6.59664">
        <ele>1932</ele>
        <time>2022-07-24T09:07:38Z</time>
      </trkpt>
      <trkpt lat="45.78008" lon="6.59663">
        <ele>1932</ele>
        <time>2022-07-24T09:07:39Z</time>
      </trkpt>
      <trkpt lat="45.78009" lon="6.59663">
        <ele>1932</ele>
        <time>2022-07-24T09:07:40Z</time>
      </trkpt>
      <trkpt lat="45.7801" lon="6.59662">
        <ele>1932</ele>
        <time>2022-07-24T09:07:41Z</time>
      </trkpt>
      <trkpt lat="45.78011" lon="6.59661">
        <ele>1932</ele>
        <time>2022-07-24T09:07:42Z</time>
      </trkpt>
      <trkpt lat="45.78012" lon="6.59661">
        <ele>1932</ele>
        <time>2022-07-24T09:07:43Z</time>
      </trkpt>
      <trkpt lat="45.78013" lon="6.5966">
        <ele>1932</ele>
        <time>2022-07-24T09:07:44Z</time>
      </trkpt>
      <trkpt lat="45.78014" lon="6.5966">
        <ele>1932</ele>
        <time>2022-07-24T09:07:45Z</time>
      </trkpt>
      <trkpt lat="45.78015" lon="6.5966">
        <ele>1932</ele>
        <time>2022-07-24T09:07:46Z</time>
      </trkpt>
      <trkpt lat="45.78016" lon="6.59659">
        <ele>1931</ele>
        <time>2022-07-24T09:07:47Z</time>
      </trkpt>
      <trkpt lat="45.78017" lon="6.59659">
        <ele>1931</ele>
        <time>2022-07-24T09:07:48Z</time>
      </trkpt>
      <trkpt lat="45.78018" lon="6.59659">
        <ele>1931</ele>
        <time>2022-07-24T09:07:49Z</time>
      </trkpt>
      <trkpt lat="45.7802" lon="6.59659">
        <ele>1931</ele>
        <time>2022-07-24T09:07:50Z</time>
      </trkpt>
      <trkpt lat="45.78021" lon="6.59659">
        <ele>1931</ele>
        <time>2022-07-24T09:07:51Z</time>
      </trkpt>
      <trkpt lat="45.78022" lon="6.59659">
        <ele>1931</ele>
        <time>2022-07-24T09:07:52Z</time>
      </trkpt>
      <trkpt lat="45.78023" lon="6.59659">
        <ele>1931</ele>
        <time>2022-07-24T09:07:53Z</time>
      </trkpt>
      <trkpt lat="45.78024" lon="6.59659">
        <ele>1931</ele>
        <time>2022-07-24T09:07:54Z</time>
      </trkpt>
      <trkpt lat="45.78026" lon="6.59659">
        <ele>1931</ele>
        <time>2022-07-24T09:07:55Z</time>
      </trkpt>
      <trkpt lat="45.78027" lon="6.59659">
        <ele>1931</ele>
        <time>2022-07-24T09:07:56Z</time>
      </trkpt>
      <trkpt lat="45.78028" lon="6.59659">
        <ele>1930</ele>
        <time>2022-07-24T09:07:57Z</time>
      </trkpt>
      <trkpt lat="45.78029" lon="6.5966">
        <ele>1930</ele>
        <time>2022-07-24T09:07:58Z</time>
      </trkpt>
      <trkpt lat="45.7803" lon="6.59661">
        <ele>1930</ele>
        <time>2022-07-24T09:07:59Z</time>
      </trkpt>
      <trkpt lat="45.78031" lon="6.59661">
        <ele>1930</ele>
        <time>2022-07-24T09:08:00Z</time>
      </trkpt>
      <trkpt lat="45.78032" lon="6.59662">
        <ele>1930</ele>
        <time>2022-07-24T09:08:01Z</time>
      </trkpt>
      <trkpt lat="45.78034" lon="6.59663">
        <ele>1930</ele>
        <time>2022-07-24T09:08:02Z</time>
      </trkpt>
      <trkpt lat="45.78035" lon="6.59664">
        <ele>1930</ele>
        <time>2022-07-24T09:08:03Z</time>
      </trkpt>
      <trkpt lat="45.78036" lon="6.59664">
        <ele>1930</ele>
        <time>2022-07-24T09:08:04Z</time>
      </trkpt>
      <trkpt lat="45.78037" lon="6.59665">
        <ele>1930</ele>
        <time>2022-07-24T09:08:05Z</time>
      </trkpt>
      <trkpt lat="45.78038" lon="6.59666">
        <ele>1930</ele>
        <time>2022-07-24T09:08:06Z</time>
      </trkpt>
      <trkpt lat="45.78039" lon="6.59666">
        <ele>1929</ele>
        <time>2022-07-24T09:08:07Z</time>
      </trkpt>
      <trkpt lat="45.78041" lon="6.59667">
        <ele>1929</ele>
        <time>2022-07-24T09:08:08Z</time>
      </trkpt>
      <trkpt lat="45.78042" lon="6.59668">
        <ele>1929</ele>
        <time>2022-07-24T09:08:09Z</time>
      </trkpt>
      <trkpt lat="45.78043" lon="6.59668">
        <ele>1929</ele>
        <time>2022-07-24T09:08:10Z</time>
      </trkpt>
      <trkpt lat="45.78044" lon="6.59669">
        <ele>1929</ele>
        <time>2022-07-24T09:08:11Z</time>
      </trkpt>
      <trkpt lat="45.78045" lon="6.5967">
        <ele>1929</ele>
        <time>2022-07-24T09:08:12Z</time>
      </trkpt>
      <trkpt lat="45.78046" lon="6.5967">
        <ele>1929</ele>
        <time>2022-07-24T09:08:13Z</time>
      </trkpt>
      <trkpt lat="45.78047" lon="6.59671">
        <ele>1929</ele>
        <time>2022-07-24T09:08:14Z</time>
      </trkpt>
      <trkpt lat="45.78048" lon="6.59672">
        <ele>1929</ele>
        <time>2022-07-24T09:08:15Z</time>
      </trkpt>
      <trkpt lat="45.78049" lon="6.59673">
        <ele>1929</ele>
        <time>2022-07-24T09:08:16Z</time>
      </trkpt>
      <trkpt lat="45.78051" lon="6.59674">
        <ele>1928</ele>
        <time>2022-07-24T09:08:17Z</time>
      </trkpt>
      <trkpt lat="45.78052" lon="6.59674">
        <ele>1928</ele>
        <time>2022-07-24T09:08:18Z</time>
      </trkpt>
      <trkpt lat="45.78053" lon="6.59675">
        <ele>1928</ele>
        <time>2022-07-24T09:08:19Z</time>
      </trkpt>
      <trkpt lat="45.78054" lon="6.59676">
        <ele>1928</ele>
        <time>2022-07-24T09:08:20Z</time>
      </trkpt>
      <trkpt lat="45.78055" lon="6.59676">
        <ele>1928</ele>
        <time>2022-07-24T09:08:21Z</time>
      </trkpt>
      <trkpt lat="45.78056" lon="6.59677">
        <ele>1927</ele>
        <time>2022-07-24T09:08:22Z</time>
      </trkpt>
      <trkpt lat="45.78057" lon="6.59677">
        <ele>1927</ele>
        <time>2022-07-24T09:08:23Z</time>
      </trkpt>
      <trkpt lat="45.78058" lon="6.59677">
        <ele>1927</ele>
        <time>2022-07-24T09:08:24Z</time>
      </trkpt>
      <trkpt lat="45.78059" lon="6.59677">
        <ele>1927</ele>
        <time>2022-07-24T09:08:25Z</time>
      </trkpt>
      <trkpt lat="45.78061" lon="6.59677">
        <ele>1927</ele>
        <time>2022-07-24T09:08:26Z</time>
      </trkpt>
      <trkpt lat="45.78062" lon="6.59677">
        <ele>1926</ele>
        <time>2022-07-24T09:08:27Z</time>
      </trkpt>
      <trkpt lat="45.78063" lon="6.59677">
        <ele>1926</ele>
        <time>2022-07-24T09:08:28Z</time>
      </trkpt>
      <trkpt lat="45.78064" lon="6.59677">
        <ele>1926</ele>
        <time>2022-07-24T09:08:29Z</time>
      </trkpt>
      <trkpt lat="45.78065" lon="6.59676">
        <ele>1926</ele>
        <time>2022-07-24T09:08:30Z</time>
      </trkpt>
      <trkpt lat="45.78067" lon="6.59676">
        <ele>1926</ele>
        <time>2022-07-24T09:08:31Z</time>
      </trkpt>
      <trkpt lat="45.78068" lon="6.59675">
        <ele>1926</ele>
        <time>2022-07-24T09:08:32Z</time>
      </trkpt>
      <trkpt lat="45.78069" lon="6.59675">
        <ele>1926</ele>
        <time>2022-07-24T09:08:33Z</time>
      </trkpt>
      <trkpt lat="45.7807" lon="6.59674">
        <ele>1926</ele>
        <time>2022-07-24T09:08:34Z</time>
      </trkpt>
      <trkpt lat="45.78071" lon="6.59674">
        <ele>1926</ele>
        <time>2022-07-24T09:08:35Z</time>
      </trkpt>
      <trkpt lat="45.78072" lon="6.59673">
        <ele>1926</ele>
        <time>2022-07-24T09:08:36Z</time>
      </trkpt>
      <trkpt lat="45.78073" lon="6.59672">
        <ele>1925</ele>
        <time>2022-07-24T09:08:37Z</time>
      </trkpt>
      <trkpt lat="45.78074" lon="6.59672">
        <ele>1925</ele>
        <time>2022-07-24T09:08:38Z</time>
      </trkpt>
      <trkpt lat="45.78075" lon="6.59671">
        <ele>1925</ele>
        <time>2022-07-24T09:08:39Z</time>
      </trkpt>
      <trkpt lat="45.78076" lon="6.59671">
        <ele>1925</ele>
        <time>2022-07-24T09:08:40Z</time>
      </trkpt>
      <trkpt lat="45.78077" lon="6.5967">
        <ele>1925</ele>
        <time>2022-07-24T09:08:41Z</time>
      </trkpt>
      <trkpt lat="45.78079" lon="6.5967">
        <ele>1925</ele>
        <time>2022-07-24T09:08:42Z</time>
      </trkpt>
      <trkpt lat="45.7808" lon="6.5967">
        <ele>1925</ele>
        <time>2022-07-24T09:08:43Z</time>
      </trkpt>
      <trkpt lat="45.78081" lon="6.5967">
        <ele>1925</ele>
        <time>2022-07-24T09:08:44Z</time>
      </trkpt>
      <trkpt lat="45.78082" lon="6.5967">
        <ele>1925</ele>
        <time>2022-07-24T09:08:45Z</time>
      </trkpt>
      <trkpt lat="45.78083" lon="6.5967">
        <ele>1925</ele>
        <time>2022-07-24T09:08:46Z</time>
      </trkpt>
      <trkpt lat="45.78085" lon="6.5967">
        <ele>1924</ele>
        <time>2022-07-24T09:08:47Z</time>
      </trkpt>
      <trkpt lat="45.78086" lon="6.59669">
        <ele>1924</ele>
        <time>2022-07-24T09:08:48Z</time>
      </trkpt>
      <trkpt lat="45.78087" lon="6.59669">
        <ele>1924</ele>
        <time>2022-07-24T09:08:49Z</time>
      </trkpt>
      <trkpt lat="45.78088" lon="6.59669">
        <ele>1924</ele>
        <time>2022-07-24T09:08:50Z</time>
      </trkpt>
      <trkpt lat="45.78089" lon="6.59669">
        <ele>1924</ele>
        <time>2022-07-24T09:08:51Z</time>
      </trkpt>
      <trkpt lat="45.7809" lon="6.5967">
        <ele>1924</ele>
        <time>2022-07-24T09:08:52Z</time>
      </trkpt>
      <trkpt lat="45.78091" lon="6.5967">
        <ele>1924</ele>
        <time>2022-07-24T09:08:53Z</time>
      </trkpt>
      <trkpt lat="45.78092" lon="6.5967">
        <ele>1924</ele>
        <time>2022-07-24T09:08:54Z</time>
      </trkpt>
      <trkpt lat="45.78094" lon="6.5967">
        <ele>1924</ele>
        <time>2022-07-24T09:08:55Z</time>
      </trkpt>
      <trkpt lat="45.78095" lon="6.59671">
        <ele>1924</ele>
        <time>2022-07-24T09:08:56Z</time>
      </trkpt>
      <trkpt lat="45.78096" lon="6.59671">
        <ele>1923</ele>
        <time>2022-07-24T09:08:57Z</time>
      </trkpt>
      <trkpt lat="45.78097" lon="6.59672">
        <ele>1923</ele>
        <time>2022-07-24T09:08:58Z</time>
      </trkpt>
      <trkpt lat="45.78098" lon="6.59672">
        <ele>1923</ele>
        <time>2022-07-24T09:08:59Z</time>
      </trkpt>
      <trkpt lat="45.781" lon="6.59673">
        <ele>1923</ele>
        <time>2022-07-24T09:09:00Z</time>
      </trkpt>
      <trkpt lat="45.78101" lon="6.59673">
        <ele>1923</ele>
        <time>2022-07-24T09:09:01Z</time>
      </trkpt>
      <trkpt lat="45.78102" lon="6.59674">
        <ele>1922</ele>
        <time>2022-07-24T09:09:02Z</time>
      </trkpt>
      <trkpt lat="45.78103" lon="6.59675">
        <ele>1922</ele>
        <time>2022-07-24T09:09:03Z</time>
      </trkpt>
      <trkpt lat="45.78104" lon="6.59675">
        <ele>1922</ele>
        <time>2022-07-24T09:09:04Z</time>
      </trkpt>
      <trkpt lat="45.78106" lon="6.59676">
        <ele>1922</ele>
        <time>2022-07-24T09:09:05Z</time>
      </trkpt>
      <trkpt lat="45.78107" lon="6.59677">
        <ele>1922</ele>
        <time>2022-07-24T09:09:06Z</time>
      </trkpt>
      <trkpt lat="45.78108" lon="6.59678">
        <ele>1922</ele>
        <time>2022-07-24T09:09:07Z</time>
      </trkpt>
      <trkpt lat="45.78109" lon="6.59679">
        <ele>1922</ele>
        <time>2022-07-24T09:09:08Z</time>
      </trkpt>
      <trkpt lat="45.7811" lon="6.5968">
        <ele>1922</ele>
        <time>2022-07-24T09:09:09Z</time>
      </trkpt>
      <trkpt lat="45.78111" lon="6.59681">
        <ele>1922</ele>
        <time>2022-07-24T09:09:10Z</time>
      </trkpt>
      <trkpt lat="45.78112" lon="6.59682">
        <ele>1922</ele>
        <time>2022-07-24T09:09:11Z</time>
      </trkpt>
      <trkpt lat="45.78113" lon="6.59682">
        <ele>1921</ele>
        <time>2022-07-24T09:09:12Z</time>
      </trkpt>
      <trkpt lat="45.78114" lon="6.59683">
        <ele>1921</ele>
        <time>2022-07-24T09:09:13Z</time>
      </trkpt>
      <trkpt lat="45.78115" lon="6.59684">
        <ele>1921</ele>
        <time>2022-07-24T09:09:14Z</time>
      </trkpt>
      <trkpt lat="45.78116" lon="6.59684">
        <ele>1921</ele>
        <time>2022-07-24T09:09:15Z</time>
      </trkpt>
      <trkpt lat="45.78117" lon="6.59685">
        <ele>1921</ele>
        <time>2022-07-24T09:09:16Z</time>
      </trkpt>
      <trkpt lat="45.78118" lon="6.59685">
        <ele>1921</ele>
        <time>2022-07-24T09:09:17Z</time>
      </trkpt>
      <trkpt lat="45.7812" lon="6.59686">
        <ele>1921</ele>
        <time>2022-07-24T09:09:18Z</time>
      </trkpt>
      <trkpt lat="45.78121" lon="6.59687">
        <ele>1921</ele>
        <time>2022-07-24T09:09:19Z</time>
      </trkpt>
      <trkpt lat="45.78122" lon="6.59687">
        <ele>1921</ele>
        <time>2022-07-24T09:09:20Z</time>
      </trkpt>
      <trkpt lat="45.78123" lon="6.59688">
        <ele>1921</ele>
        <time>2022-07-24T09:09:21Z</time>
      </trkpt>
      <trkpt lat="45.78124" lon="6.59689">
        <ele>1920</ele>
        <time>2022-07-24T09:09:22Z</time>
      </trkpt>
      <trkpt lat="45.78125" lon="6.5969">
        <ele>1920</ele>
        <time>2022-07-24T09:09:23Z</time>
      </trkpt>
      <trkpt lat="45.78127" lon="6.59691">
        <ele>1920</ele>
        <time>2022-07-24T09:09:24Z</time>
      </trkpt>
      <trkpt lat="45.78128" lon="6.59692">
        <ele>1920</ele>
        <time>2022-07-24T09:09:25Z</time>
      </trkpt>
      <trkpt lat="45.78129" lon="6.59693">
        <ele>1920</ele>
        <time>2022-07-24T09:09:26Z</time>
      </trkpt>
      <trkpt lat="45.7813" lon="6.59693">
        <ele>1920</ele>
        <time>2022-07-24T09:09:27Z</time>
      </trkpt>
      <trkpt lat="45.78131" lon="6.59694">
        <ele>1920</ele>
        <time>2022-07-24T09:09:28Z</time>
      </trkpt>
      <trkpt lat="45.78132" lon="6.59695">
        <ele>1920</ele>
        <time>2022-07-24T09:09:29Z</time>
      </trkpt>
      <trkpt lat="45.78132" lon="6.59697">
        <ele>1920</ele>
        <time>2022-07-24T09:09:30Z</time>
      </trkpt>
      <trkpt lat="45.78133" lon="6.59698">
        <ele>1920</ele>
        <time>2022-07-24T09:09:31Z</time>
      </trkpt>
      <trkpt lat="45.78134" lon="6.59699">
        <ele>1919</ele>
        <time>2022-07-24T09:09:32Z</time>
      </trkpt>
      <trkpt lat="45.78135" lon="6.597">
        <ele>1919</ele>
        <time>2022-07-24T09:09:33Z</time>
      </trkpt>
      <trkpt lat="45.78136" lon="6.59702">
        <ele>1919</ele>
        <time>2022-07-24T09:09:34Z</time>
      </trkpt>
      <trkpt lat="45.78137" lon="6.59703">
        <ele>1919</ele>
        <time>2022-07-24T09:09:35Z</time>
      </trkpt>
      <trkpt lat="45.78138" lon="6.59704">
        <ele>1919</ele>
        <time>2022-07-24T09:09:36Z</time>
      </trkpt>
      <trkpt lat="45.78138" lon="6.59706">
        <ele>1918</ele>
        <time>2022-07-24T09:09:37Z</time>
      </trkpt>
      <trkpt lat="45.78139" lon="6.59707">
        <ele>1918</ele>
        <time>2022-07-24T09:09:38Z</time>
      </trkpt>
      <trkpt lat="45.7814" lon="6.59708">
        <ele>1918</ele>
        <time>2022-07-24T09:09:39Z</time>
      </trkpt>
      <trkpt lat="45.78141" lon="6.5971">
        <ele>1918</ele>
        <time>2022-07-24T09:09:40Z</time>
      </trkpt>
      <trkpt lat="45.78141" lon="6.59711">
        <ele>1918</ele>
        <time>2022-07-24T09:09:41Z</time>
      </trkpt>
      <trkpt lat="45.78142" lon="6.59713">
        <ele>1917</ele>
        <time>2022-07-24T09:09:42Z</time>
      </trkpt>
      <trkpt lat="45.78143" lon="6.59714">
        <ele>1917</ele>
        <time>2022-07-24T09:09:43Z</time>
      </trkpt>
      <trkpt lat="45.78143" lon="6.59716">
        <ele>1917</ele>
        <time>2022-07-24T09:09:44Z</time>
      </trkpt>
      <trkpt lat="45.78144" lon="6.59717">
        <ele>1917</ele>
        <time>2022-07-24T09:09:45Z</time>
      </trkpt>
      <trkpt lat="45.78145" lon="6.59718">
        <ele>1917</ele>
        <time>2022-07-24T09:09:46Z</time>
      </trkpt>
      <trkpt lat="45.78146" lon="6.5972">
        <ele>1917</ele>
        <time>2022-07-24T09:09:47Z</time>
      </trkpt>
      <trkpt lat="45.78146" lon="6.59721">
        <ele>1917</ele>
        <time>2022-07-24T09:09:48Z</time>
      </trkpt>
      <trkpt lat="45.78147" lon="6.59723">
        <ele>1917</ele>
        <time>2022-07-24T09:09:49Z</time>
      </trkpt>
      <trkpt lat="45.78148" lon="6.59724">
        <ele>1917</ele>
        <time>2022-07-24T09:09:50Z</time>
      </trkpt>
      <trkpt lat="45.78149" lon="6.59725">
        <ele>1917</ele>
        <time>2022-07-24T09:09:51Z</time>
      </trkpt>
      <trkpt lat="45.7815" lon="6.59727">
        <ele>1916</ele>
        <time>2022-07-24T09:09:52Z</time>
      </trkpt>
      <trkpt lat="45.78151" lon="6.59728">
        <ele>1916</ele>
        <time>2022-07-24T09:09:53Z</time>
      </trkpt>
      <trkpt lat="45.78152" lon="6.59729">
        <ele>1916</ele>
        <time>2022-07-24T09:09:54Z</time>
      </trkpt>
      <trkpt lat="45.78153" lon="6.5973">
        <ele>1916</ele>
        <time>2022-07-24T09:09:55Z</time>
      </trkpt>
      <trkpt lat="45.78154" lon="6.59731">
        <ele>1916</ele>
        <time>2022-07-24T09:09:56Z</time>
      </trkpt>
      <trkpt lat="45.78154" lon="6.59733">
        <ele>1915</ele>
        <time>2022-07-24T09:09:57Z</time>
      </trkpt>
      <trkpt lat="45.78155" lon="6.59734">
        <ele>1915</ele>
        <time>2022-07-24T09:09:58Z</time>
      </trkpt>
      <trkpt lat="45.78156" lon="6.59735">
        <ele>1915</ele>
        <time>2022-07-24T09:09:59Z</time>
      </trkpt>
      <trkpt lat="45.78157" lon="6.59736">
        <ele>1915</ele>
        <time>2022-07-24T09:10:00Z</time>
      </trkpt>
      <trkpt lat="45.78158" lon="6.59737">
        <ele>1915</ele>
        <time>2022-07-24T09:10:01Z</time>
      </trkpt>
      <trkpt lat="45.78159" lon="6.59739">
        <ele>1915</ele>
        <time>2022-07-24T09:10:02Z</time>
      </trkpt>
      <trkpt lat="45.7816" lon="6.5974">
        <ele>1915</ele>
        <time>2022-07-24T09:10:03Z</time>
      </trkpt>
      <trkpt lat="45.78161" lon="6.59741">
        <ele>1915</ele>
        <time>2022-07-24T09:10:04Z</time>
      </trkpt>
      <trkpt lat="45.78161" lon="6.59742">
        <ele>1915</ele>
        <time>2022-07-24T09:10:05Z</time>
      </trkpt>
      <trkpt lat="45.78162" lon="6.59743">
        <ele>1915</ele>
        <time>2022-07-24T09:10:06Z</time>
      </trkpt>
      <trkpt lat="45.78163" lon="6.59744">
        <ele>1914</ele>
        <time>2022-07-24T09:10:07Z</time>
      </trkpt>
      <trkpt lat="45.78164" lon="6.59746">
        <ele>1914</ele>
        <time>2022-07-24T09:10:08Z</time>
      </trkpt>
      <trkpt lat="45.78165" lon="6.59747">
        <ele>1914</ele>
        <time>2022-07-24T09:10:09Z</time>
      </trkpt>
      <trkpt lat="45.78166" lon="6.59748">
        <ele>1914</ele>
        <time>2022-07-24T09:10:10Z</time>
      </trkpt>
      <trkpt lat="45.78167" lon="6.59749">
        <ele>1914</ele>
        <time>2022-07-24T09:10:11Z</time>
      </trkpt>
      <trkpt lat="45.78168" lon="6.59751">
        <ele>1913</ele>
        <time>2022-07-24T09:10:12Z</time>
      </trkpt>
      <trkpt lat="45.78169" lon="6.59752">
        <ele>1913</ele>
        <time>2022-07-24T09:10:13Z</time>
      </trkpt>
      <trkpt lat="45.7817" lon="6.59753">
        <ele>1912</ele>
        <time>2022-07-24T09:10:14Z</time>
      </trkpt>
      <trkpt lat="45.78171" lon="6.59755">
        <ele>1912</ele>
        <time>2022-07-24T09:10:15Z</time>
      </trkpt>
      <trkpt lat="45.78172" lon="6.59756">
        <ele>1912</ele>
        <time>2022-07-24T09:10:16Z</time>
      </trkpt>
      <trkpt lat="45.78173" lon="6.59757">
        <ele>1911</ele>
        <time>2022-07-24T09:10:17Z</time>
      </trkpt>
      <trkpt lat="45.78174" lon="6.59758">
        <ele>1911</ele>
        <time>2022-07-24T09:10:18Z</time>
      </trkpt>
      <trkpt lat="45.78175" lon="6.59759">
        <ele>1911</ele>
        <time>2022-07-24T09:10:19Z</time>
      </trkpt>
      <trkpt lat="45.78176" lon="6.59761">
        <ele>1911</ele>
        <time>2022-07-24T09:10:20Z</time>
      </trkpt>
      <trkpt lat="45.78177" lon="6.59762">
        <ele>1911</ele>
        <time>2022-07-24T09:10:21Z</time>
      </trkpt>
      <trkpt lat="45.78178" lon="6.59763">
        <ele>1911</ele>
        <time>2022-07-24T09:10:22Z</time>
      </trkpt>
      <trkpt lat="45.78179" lon="6.59764">
        <ele>1911</ele>
        <time>2022-07-24T09:10:23Z</time>
      </trkpt>
      <trkpt lat="45.7818" lon="6.59765">
        <ele>1911</ele>
        <time>2022-07-24T09:10:24Z</time>
      </trkpt>
      <trkpt lat="45.78181" lon="6.59766">
        <ele>1911</ele>
        <time>2022-07-24T09:10:25Z</time>
      </trkpt>
      <trkpt lat="45.78182" lon="6.59767">
        <ele>1911</ele>
        <time>2022-07-24T09:10:26Z</time>
      </trkpt>
      <trkpt lat="45.78183" lon="6.59768">
        <ele>1910</ele>
        <time>2022-07-24T09:10:27Z</time>
      </trkpt>
      <trkpt lat="45.78183" lon="6.59769">
        <ele>1910</ele>
        <time>2022-07-24T09:10:28Z</time>
      </trkpt>
      <trkpt lat="45.78184" lon="6.59771">
        <ele>1910</ele>
        <time>2022-07-24T09:10:29Z</time>
      </trkpt>
      <trkpt lat="45.78185" lon="6.59772">
        <ele>1910</ele>
        <time>2022-07-24T09:10:30Z</time>
      </trkpt>
      <trkpt lat="45.78186" lon="6.59773">
        <ele>1910</ele>
        <time>2022-07-24T09:10:31Z</time>
      </trkpt>
      <trkpt lat="45.78187" lon="6.59775">
        <ele>1909</ele>
        <time>2022-07-24T09:10:32Z</time>
      </trkpt>
      <trkpt lat="45.78187" lon="6.59776">
        <ele>1909</ele>
        <time>2022-07-24T09:10:33Z</time>
      </trkpt>
      <trkpt lat="45.78188" lon="6.59777">
        <ele>1909</ele>
        <time>2022-07-24T09:10:34Z</time>
      </trkpt>
      <trkpt lat="45.78189" lon="6.59778">
        <ele>1909</ele>
        <time>2022-07-24T09:10:35Z</time>
      </trkpt>
      <trkpt lat="45.7819" lon="6.5978">
        <ele>1909</ele>
        <time>2022-07-24T09:10:36Z</time>
      </trkpt>
      <trkpt lat="45.78191" lon="6.59781">
        <ele>1908</ele>
        <time>2022-07-24T09:10:37Z</time>
      </trkpt>
      <trkpt lat="45.78192" lon="6.59782">
        <ele>1908</ele>
        <time>2022-07-24T09:10:38Z</time>
      </trkpt>
      <trkpt lat="45.78193" lon="6.59783">
        <ele>1908</ele>
        <time>2022-07-24T09:10:39Z</time>
      </trkpt>
      <trkpt lat="45.78194" lon="6.59784">
        <ele>1908</ele>
        <time>2022-07-24T09:10:40Z</time>
      </trkpt>
      <trkpt lat="45.78195" lon="6.59786">
        <ele>1908</ele>
        <time>2022-07-24T09:10:41Z</time>
      </trkpt>
      <trkpt lat="45.78196" lon="6.59787">
        <ele>1908</ele>
        <time>2022-07-24T09:10:42Z</time>
      </trkpt>
      <trkpt lat="45.78197" lon="6.59788">
        <ele>1908</ele>
        <time>2022-07-24T09:10:43Z</time>
      </trkpt>
      <trkpt lat="45.78198" lon="6.59789">
        <ele>1908</ele>
        <time>2022-07-24T09:10:44Z</time>
      </trkpt>
      <trkpt lat="45.78199" lon="6.5979">
        <ele>1908</ele>
        <time>2022-07-24T09:10:45Z</time>
      </trkpt>
      <trkpt lat="45.782" lon="6.59791">
        <ele>1908</ele>
        <time>2022-07-24T09:10:46Z</time>
      </trkpt>
      <trkpt lat="45.78201" lon="6.59792">
        <ele>1907</ele>
        <time>2022-07-24T09:10:47Z</time>
      </trkpt>
      <trkpt lat="45.78201" lon="6.59794">
        <ele>1907</ele>
        <time>2022-07-24T09:10:48Z</time>
      </trkpt>
      <trkpt lat="45.78202" lon="6.59795">
        <ele>1907</ele>
        <time>2022-07-24T09:10:49Z</time>
      </trkpt>
      <trkpt lat="45.78203" lon="6.59796">
        <ele>1907</ele>
        <time>2022-07-24T09:10:50Z</time>
      </trkpt>
      <trkpt lat="45.78203" lon="6.59797">
        <ele>1907</ele>
        <time>2022-07-24T09:10:51Z</time>
      </trkpt>
      <trkpt lat="45.78204" lon="6.59799">
        <ele>1907</ele>
        <time>2022-07-24T09:10:52Z</time>
      </trkpt>
      <trkpt lat="45.78205" lon="6.598">
        <ele>1907</ele>
        <time>2022-07-24T09:10:53Z</time>
      </trkpt>
      <trkpt lat="45.78206" lon="6.59801">
        <ele>1907</ele>
        <time>2022-07-24T09:10:54Z</time>
      </trkpt>
      <trkpt lat="45.78206" lon="6.59803">
        <ele>1907</ele>
        <time>2022-07-24T09:10:55Z</time>
      </trkpt>
      <trkpt lat="45.78207" lon="6.59804">
        <ele>1907</ele>
        <time>2022-07-24T09:10:56Z</time>
      </trkpt>
      <trkpt lat="45.78208" lon="6.59805">
        <ele>1907</ele>
        <time>2022-07-24T09:10:57Z</time>
      </trkpt>
      <trkpt lat="45.78209" lon="6.59807">
        <ele>1907</ele>
        <time>2022-07-24T09:10:58Z</time>
      </trkpt>
      <trkpt lat="45.7821" lon="6.59808">
        <ele>1907</ele>
        <time>2022-07-24T09:10:59Z</time>
      </trkpt>
      <trkpt lat="45.7821" lon="6.59809">
        <ele>1907</ele>
        <time>2022-07-24T09:11:00Z</time>
      </trkpt>
      <trkpt lat="45.78211" lon="6.59811">
        <ele>1907</ele>
        <time>2022-07-24T09:11:01Z</time>
      </trkpt>
      <trkpt lat="45.78212" lon="6.59812">
        <ele>1907</ele>
        <time>2022-07-24T09:11:02Z</time>
      </trkpt>
      <trkpt lat="45.78213" lon="6.59813">
        <ele>1907</ele>
        <time>2022-07-24T09:11:03Z</time>
      </trkpt>
      <trkpt lat="45.78214" lon="6.59814">
        <ele>1907</ele>
        <time>2022-07-24T09:11:04Z</time>
      </trkpt>
      <trkpt lat="45.78215" lon="6.59816">
        <ele>1907</ele>
        <time>2022-07-24T09:11:05Z</time>
      </trkpt>
      <trkpt lat="45.78216" lon="6.59817">
        <ele>1907</ele>
        <time>2022-07-24T09:11:06Z</time>
      </trkpt>
      <trkpt lat="45.78217" lon="6.59818">
        <ele>1907</ele>
        <time>2022-07-24T09:11:07Z</time>
      </trkpt>
      <trkpt lat="45.78218" lon="6.59819">
        <ele>1907</ele>
        <time>2022-07-24T09:11:08Z</time>
      </trkpt>
      <trkpt lat="45.78219" lon="6.59821">
        <ele>1907</ele>
        <time>2022-07-24T09:11:09Z</time>
      </trkpt>
      <trkpt lat="45.7822" lon="6.59822">
        <ele>1907</ele>
        <time>2022-07-24T09:11:10Z</time>
      </trkpt>
      <trkpt lat="45.7822" lon="6.59823">
        <ele>1907</ele>
        <time>2022-07-24T09:11:11Z</time>
      </trkpt>
      <trkpt lat="45.78221" lon="6.59824">
        <ele>1907</ele>
        <time>2022-07-24T09:11:12Z</time>
      </trkpt>
      <trkpt lat="45.78222" lon="6.59825">
        <ele>1907</ele>
        <time>2022-07-24T09:11:13Z</time>
      </trkpt>
      <trkpt lat="45.78223" lon="6.59826">
        <ele>1907</ele>
        <time>2022-07-24T09:11:14Z</time>
      </trkpt>
      <trkpt lat="45.78224" lon="6.59827">
        <ele>1907</ele>
        <time>2022-07-24T09:11:15Z</time>
      </trkpt>
      <trkpt lat="45.78225" lon="6.59828">
        <ele>1907</ele>
        <time>2022-07-24T09:11:16Z</time>
      </trkpt>
      <trkpt lat="45.78226" lon="6.59829">
        <ele>1907</ele>
        <time>2022-07-24T09:11:17Z</time>
      </trkpt>
      <trkpt lat="45.78227" lon="6.5983">
        <ele>1907</ele>
        <time>2022-07-24T09:11:18Z</time>
      </trkpt>
      <trkpt lat="45.78227" lon="6.59831">
        <ele>1907</ele>
        <time>2022-07-24T09:11:19Z</time>
      </trkpt>
      <trkpt lat="45.78228" lon="6.59832">
        <ele>1907</ele>
        <time>2022-07-24T09:11:20Z</time>
      </trkpt>
      <trkpt lat="45.78229" lon="6.59833">
        <ele>1907</ele>
        <time>2022-07-24T09:11:21Z</time>
      </trkpt>
      <trkpt lat="45.7823" lon="6.59834">
        <ele>1906</ele>
        <time>2022-07-24T09:11:22Z</time>
      </trkpt>
      <trkpt lat="45.78231" lon="6.59834">
        <ele>1906</ele>
        <time>2022-07-24T09:11:23Z</time>
      </trkpt>
      <trkpt lat="45.78233" lon="6.59835">
        <ele>1906</ele>
        <time>2022-07-24T09:11:24Z</time>
      </trkpt>
      <trkpt lat="45.78234" lon="6.59836">
        <ele>1906</ele>
        <time>2022-07-24T09:11:25Z</time>
      </trkpt>
      <trkpt lat="45.78235" lon="6.59837">
        <ele>1906</ele>
        <time>2022-07-24T09:11:26Z</time>
      </trkpt>
      <trkpt lat="45.78236" lon="6.59838">
        <ele>1906</ele>
        <time>2022-07-24T09:11:27Z</time>
      </trkpt>
      <trkpt lat="45.78237" lon="6.59838">
        <ele>1906</ele>
        <time>2022-07-24T09:11:28Z</time>
      </trkpt>
      <trkpt lat="45.78238" lon="6.59839">
        <ele>1906</ele>
        <time>2022-07-24T09:11:29Z</time>
      </trkpt>
      <trkpt lat="45.78239" lon="6.5984">
        <ele>1906</ele>
        <time>2022-07-24T09:11:30Z</time>
      </trkpt>
      <trkpt lat="45.7824" lon="6.59841">
        <ele>1906</ele>
        <time>2022-07-24T09:11:31Z</time>
      </trkpt>
      <trkpt lat="45.78241" lon="6.59841">
        <ele>1906</ele>
        <time>2022-07-24T09:11:32Z</time>
      </trkpt>
      <trkpt lat="45.78242" lon="6.59842">
        <ele>1906</ele>
        <time>2022-07-24T09:11:33Z</time>
      </trkpt>
      <trkpt lat="45.78243" lon="6.59843">
        <ele>1906</ele>
        <time>2022-07-24T09:11:34Z</time>
      </trkpt>
      <trkpt lat="45.78244" lon="6.59844">
        <ele>1906</ele>
        <time>2022-07-24T09:11:35Z</time>
      </trkpt>
      <trkpt lat="45.78245" lon="6.59845">
        <ele>1906</ele>
        <time>2022-07-24T09:11:36Z</time>
      </trkpt>
      <trkpt lat="45.78246" lon="6.59845">
        <ele>1906</ele>
        <time>2022-07-24T09:11:37Z</time>
      </trkpt>
      <trkpt lat="45.78247" lon="6.59846">
        <ele>1906</ele>
        <time>2022-07-24T09:11:38Z</time>
      </trkpt>
      <trkpt lat="45.78248" lon="6.59847">
        <ele>1906</ele>
        <time>2022-07-24T09:11:39Z</time>
      </trkpt>
      <trkpt lat="45.78249" lon="6.59847">
        <ele>1906</ele>
        <time>2022-07-24T09:11:40Z</time>
      </trkpt>
      <trkpt lat="45.78251" lon="6.59848">
        <ele>1906</ele>
        <time>2022-07-24T09:11:41Z</time>
      </trkpt>
      <trkpt lat="45.78252" lon="6.59849">
        <ele>1905</ele>
        <time>2022-07-24T09:11:42Z</time>
      </trkpt>
      <trkpt lat="45.78253" lon="6.59849">
        <ele>1905</ele>
        <time>2022-07-24T09:11:43Z</time>
      </trkpt>
      <trkpt lat="45.78254" lon="6.5985">
        <ele>1905</ele>
        <time>2022-07-24T09:11:44Z</time>
      </trkpt>
      <trkpt lat="45.78255" lon="6.59851">
        <ele>1905</ele>
        <time>2022-07-24T09:11:45Z</time>
      </trkpt>
      <trkpt lat="45.78256" lon="6.59851">
        <ele>1905</ele>
        <time>2022-07-24T09:11:46Z</time>
      </trkpt>
      <trkpt lat="45.78257" lon="6.59852">
        <ele>1905</ele>
        <time>2022-07-24T09:11:47Z</time>
      </trkpt>
      <trkpt lat="45.78258" lon="6.59852">
        <ele>1905</ele>
        <time>2022-07-24T09:11:48Z</time>
      </trkpt>
      <trkpt lat="45.78259" lon="6.59853">
        <ele>1905</ele>
        <time>2022-07-24T09:11:49Z</time>
      </trkpt>
      <trkpt lat="45.7826" lon="6.59853">
        <ele>1905</ele>
        <time>2022-07-24T09:11:50Z</time>
      </trkpt>
      <trkpt lat="45.78262" lon="6.59854">
        <ele>1905</ele>
        <time>2022-07-24T09:11:51Z</time>
      </trkpt>
      <trkpt lat="45.78263" lon="6.59854">
        <ele>1905</ele>
        <time>2022-07-24T09:11:52Z</time>
      </trkpt>
      <trkpt lat="45.78264" lon="6.59855">
        <ele>1905</ele>
        <time>2022-07-24T09:11:53Z</time>
      </trkpt>
      <trkpt lat="45.78265" lon="6.59855">
        <ele>1905</ele>
        <time>2022-07-24T09:11:54Z</time>
      </trkpt>
      <trkpt lat="45.78266" lon="6.59856">
        <ele>1905</ele>
        <time>2022-07-24T09:11:55Z</time>
      </trkpt>
      <trkpt lat="45.78267" lon="6.59856">
        <ele>1905</ele>
        <time>2022-07-24T09:11:56Z</time>
      </trkpt>
      <trkpt lat="45.78268" lon="6.59857">
        <ele>1905</ele>
        <time>2022-07-24T09:11:57Z</time>
      </trkpt>
      <trkpt lat="45.7827" lon="6.59857">
        <ele>1905</ele>
        <time>2022-07-24T09:11:58Z</time>
      </trkpt>
      <trkpt lat="45.78271" lon="6.59858">
        <ele>1905</ele>
        <time>2022-07-24T09:11:59Z</time>
      </trkpt>
      <trkpt lat="45.78272" lon="6.59858">
        <ele>1905</ele>
        <time>2022-07-24T09:12:00Z</time>
      </trkpt>
      <trkpt lat="45.78273" lon="6.59858">
        <ele>1905</ele>
        <time>2022-07-24T09:12:01Z</time>
      </trkpt>
      <trkpt lat="45.78274" lon="6.59859">
        <ele>1905</ele>
        <time>2022-07-24T09:12:02Z</time>
      </trkpt>
      <trkpt lat="45.78275" lon="6.59859">
        <ele>1905</ele>
        <time>2022-07-24T09:12:03Z</time>
      </trkpt>
      <trkpt lat="45.78276" lon="6.59859">
        <ele>1905</ele>
        <time>2022-07-24T09:12:04Z</time>
      </trkpt>
      <trkpt lat="45.78277" lon="6.5986">
        <ele>1905</ele>
        <time>2022-07-24T09:12:05Z</time>
      </trkpt>
      <trkpt lat="45.78278" lon="6.5986">
        <ele>1905</ele>
        <time>2022-07-24T09:12:06Z</time>
      </trkpt>
      <trkpt lat="45.78279" lon="6.5986">
        <ele>1905</ele>
        <time>2022-07-24T09:12:07Z</time>
      </trkpt>
      <trkpt lat="45.7828" lon="6.59861">
        <ele>1905</ele>
        <time>2022-07-24T09:12:08Z</time>
      </trkpt>
      <trkpt lat="45.78281" lon="6.59862">
        <ele>1905</ele>
        <time>2022-07-24T09:12:09Z</time>
      </trkpt>
      <trkpt lat="45.78283" lon="6.59863">
        <ele>1905</ele>
        <time>2022-07-24T09:12:10Z</time>
      </trkpt>
      <trkpt lat="45.78284" lon="6.59863">
        <ele>1905</ele>
        <time>2022-07-24T09:12:11Z</time>
      </trkpt>
      <trkpt lat="45.78285" lon="6.59864">
        <ele>1905</ele>
        <time>2022-07-24T09:12:12Z</time>
      </trkpt>
      <trkpt lat="45.78286" lon="6.59865">
        <ele>1905</ele>
        <time>2022-07-24T09:12:13Z</time>
      </trkpt>
      <trkpt lat="45.78287" lon="6.59865">
        <ele>1905</ele>
        <time>2022-07-24T09:12:14Z</time>
      </trkpt>
      <trkpt lat="45.78288" lon="6.59866">
        <ele>1905</ele>
        <time>2022-07-24T09:12:15Z</time>
      </trkpt>
      <trkpt lat="45.7829" lon="6.59866">
        <ele>1905</ele>
        <time>2022-07-24T09:12:16Z</time>
      </trkpt>
      <trkpt lat="45.78291" lon="6.59867">
        <ele>1905</ele>
        <time>2022-07-24T09:12:17Z</time>
      </trkpt>
      <trkpt lat="45.78292" lon="6.59867">
        <ele>1905</ele>
        <time>2022-07-24T09:12:18Z</time>
      </trkpt>
      <trkpt lat="45.78294" lon="6.59867">
        <ele>1905</ele>
        <time>2022-07-24T09:12:19Z</time>
      </trkpt>
      <trkpt lat="45.78295" lon="6.59868">
        <ele>1905</ele>
        <time>2022-07-24T09:12:20Z</time>
      </trkpt>
      <trkpt lat="45.78296" lon="6.59868">
        <ele>1905</ele>
        <time>2022-07-24T09:12:21Z</time>
      </trkpt>
      <trkpt lat="45.78297" lon="6.59869">
        <ele>1905</ele>
        <time>2022-07-24T09:12:22Z</time>
      </trkpt>
      <trkpt lat="45.78298" lon="6.59869">
        <ele>1905</ele>
        <time>2022-07-24T09:12:23Z</time>
      </trkpt>
      <trkpt lat="45.78299" lon="6.59869">
        <ele>1905</ele>
        <time>2022-07-24T09:12:24Z</time>
      </trkpt>
      <trkpt lat="45.783" lon="6.5987">
        <ele>1905</ele>
        <time>2022-07-24T09:12:25Z</time>
      </trkpt>
      <trkpt lat="45.78301" lon="6.5987">
        <ele>1905</ele>
        <time>2022-07-24T09:12:26Z</time>
      </trkpt>
      <trkpt lat="45.78302" lon="6.59871">
        <ele>1905</ele>
        <time>2022-07-24T09:12:27Z</time>
      </trkpt>
      <trkpt lat="45.78303" lon="6.59871">
        <ele>1905</ele>
        <time>2022-07-24T09:12:28Z</time>
      </trkpt>
      <trkpt lat="45.78304" lon="6.59872">
        <ele>1905</ele>
        <time>2022-07-24T09:12:29Z</time>
      </trkpt>
      <trkpt lat="45.78305" lon="6.59872">
        <ele>1905</ele>
        <time>2022-07-24T09:12:30Z</time>
      </trkpt>
      <trkpt lat="45.78306" lon="6.59872">
        <ele>1905</ele>
        <time>2022-07-24T09:12:31Z</time>
      </trkpt>
      <trkpt lat="45.78307" lon="6.59873">
        <ele>1905</ele>
        <time>2022-07-24T09:12:32Z</time>
      </trkpt>
      <trkpt lat="45.78309" lon="6.59873">
        <ele>1905</ele>
        <time>2022-07-24T09:12:33Z</time>
      </trkpt>
      <trkpt lat="45.7831" lon="6.59874">
        <ele>1905</ele>
        <time>2022-07-24T09:12:34Z</time>
      </trkpt>
      <trkpt lat="45.78311" lon="6.59874">
        <ele>1905</ele>
        <time>2022-07-24T09:12:35Z</time>
      </trkpt>
      <trkpt lat="45.78312" lon="6.59874">
        <ele>1905</ele>
        <time>2022-07-24T09:12:36Z</time>
      </trkpt>
      <trkpt lat="45.78313" lon="6.59875">
        <ele>1905</ele>
        <time>2022-07-24T09:12:37Z</time>
      </trkpt>
      <trkpt lat="45.78314" lon="6.59875">
        <ele>1905</ele>
        <time>2022-07-24T09:12:38Z</time>
      </trkpt>
      <trkpt lat="45.78315" lon="6.59876">
        <ele>1905</ele>
        <time>2022-07-24T09:12:39Z</time>
      </trkpt>
      <trkpt lat="45.78316" lon="6.59876">
        <ele>1905</ele>
        <time>2022-07-24T09:12:40Z</time>
      </trkpt>
      <trkpt lat="45.78317" lon="6.59877">
        <ele>1905</ele>
        <time>2022-07-24T09:12:41Z</time>
      </trkpt>
      <trkpt lat="45.78318" lon="6.59877">
        <ele>1905</ele>
        <time>2022-07-24T09:12:42Z</time>
      </trkpt>
      <trkpt lat="45.78319" lon="6.59878">
        <ele>1905</ele>
        <time>2022-07-24T09:12:43Z</time>
      </trkpt>
      <trkpt lat="45.7832" lon="6.59878">
        <ele>1905</ele>
        <time>2022-07-24T09:12:44Z</time>
      </trkpt>
      <trkpt lat="45.78321" lon="6.59879">
        <ele>1905</ele>
        <time>2022-07-24T09:12:45Z</time>
      </trkpt>
      <trkpt lat="45.78322" lon="6.59879">
        <ele>1905</ele>
        <time>2022-07-24T09:12:46Z</time>
      </trkpt>
      <trkpt lat="45.78324" lon="6.5988">
        <ele>1905</ele>
        <time>2022-07-24T09:12:47Z</time>
      </trkpt>
      <trkpt lat="45.78325" lon="6.5988">
        <ele>1905</ele>
        <time>2022-07-24T09:12:48Z</time>
      </trkpt>
      <trkpt lat="45.78326" lon="6.5988">
        <ele>1905</ele>
        <time>2022-07-24T09:12:49Z</time>
      </trkpt>
      <trkpt lat="45.78327" lon="6.59881">
        <ele>1905</ele>
        <time>2022-07-24T09:12:50Z</time>
      </trkpt>
      <trkpt lat="45.78328" lon="6.59881">
        <ele>1905</ele>
        <time>2022-07-24T09:12:51Z</time>
      </trkpt>
      <trkpt lat="45.78329" lon="6.59882">
        <ele>1905</ele>
        <time>2022-07-24T09:12:52Z</time>
      </trkpt>
      <trkpt lat="45.7833" lon="6.59882">
        <ele>1905</ele>
        <time>2022-07-24T09:12:53Z</time>
      </trkpt>
      <trkpt lat="45.78331" lon="6.59883">
        <ele>1905</ele>
        <time>2022-07-24T09:12:54Z</time>
      </trkpt>
      <trkpt lat="45.78332" lon="6.59883">
        <ele>1905</ele>
        <time>2022-07-24T09:12:55Z</time>
      </trkpt>
      <trkpt lat="45.78333" lon="6.59884">
        <ele>1905</ele>
        <time>2022-07-24T09:12:56Z</time>
      </trkpt>
      <trkpt lat="45.78334" lon="6.59884">
        <ele>1905</ele>
        <time>2022-07-24T09:12:57Z</time>
      </trkpt>
      <trkpt lat="45.78335" lon="6.59885">
        <ele>1905</ele>
        <time>2022-07-24T09:12:58Z</time>
      </trkpt>
      <trkpt lat="45.78336" lon="6.59885">
        <ele>1905</ele>
        <time>2022-07-24T09:12:59Z</time>
      </trkpt>
      <trkpt lat="45.78337" lon="6.59885">
        <ele>1905</ele>
        <time>2022-07-24T09:13:00Z</time>
      </trkpt>
      <trkpt lat="45.78338" lon="6.59885">
        <ele>1905</ele>
        <time>2022-07-24T09:13:01Z</time>
      </trkpt>
      <trkpt lat="45.78339" lon="6.59886">
        <ele>1905</ele>
        <time>2022-07-24T09:13:02Z</time>
      </trkpt>
      <trkpt lat="45.7834" lon="6.59886">
        <ele>1905</ele>
        <time>2022-07-24T09:13:03Z</time>
      </trkpt>
      <trkpt lat="45.78341" lon="6.59886">
        <ele>1905</ele>
        <time>2022-07-24T09:13:04Z</time>
      </trkpt>
      <trkpt lat="45.78342" lon="6.59886">
        <ele>1905</ele>
        <time>2022-07-24T09:13:05Z</time>
      </trkpt>
      <trkpt lat="45.78343" lon="6.59886">
        <ele>1906</ele>
        <time>2022-07-24T09:13:06Z</time>
      </trkpt>
      <trkpt lat="45.78345" lon="6.59886">
        <ele>1906</ele>
        <time>2022-07-24T09:13:07Z</time>
      </trkpt>
      <trkpt lat="45.78346" lon="6.59886">
        <ele>1906</ele>
        <time>2022-07-24T09:13:08Z</time>
      </trkpt>
      <trkpt lat="45.78347" lon="6.59886">
        <ele>1906</ele>
        <time>2022-07-24T09:13:09Z</time>
      </trkpt>
      <trkpt lat="45.78348" lon="6.59886">
        <ele>1906</ele>
        <time>2022-07-24T09:13:10Z</time>
      </trkpt>
      <trkpt lat="45.78349" lon="6.59886">
        <ele>1906</ele>
        <time>2022-07-24T09:13:11Z</time>
      </trkpt>
      <trkpt lat="45.7835" lon="6.59885">
        <ele>1906</ele>
        <time>2022-07-24T09:13:12Z</time>
      </trkpt>
      <trkpt lat="45.78351" lon="6.59885">
        <ele>1906</ele>
        <time>2022-07-24T09:13:13Z</time>
      </trkpt>
      <trkpt lat="45.78352" lon="6.59885">
        <ele>1906</ele>
        <time>2022-07-24T09:13:14Z</time>
      </trkpt>
      <trkpt lat="45.78353" lon="6.59885">
        <ele>1906</ele>
        <time>2022-07-24T09:13:15Z</time>
      </trkpt>
      <trkpt lat="45.78354" lon="6.59884">
        <ele>1906</ele>
        <time>2022-07-24T09:13:16Z</time>
      </trkpt>
      <trkpt lat="45.78355" lon="6.59884">
        <ele>1906</ele>
        <time>2022-07-24T09:13:17Z</time>
      </trkpt>
      <trkpt lat="45.78356" lon="6.59884">
        <ele>1906</ele>
        <time>2022-07-24T09:13:18Z</time>
      </trkpt>
      <trkpt lat="45.78357" lon="6.59884">
        <ele>1906</ele>
        <time>2022-07-24T09:13:19Z</time>
      </trkpt>
      <trkpt lat="45.78358" lon="6.59884">
        <ele>1906</ele>
        <time>2022-07-24T09:13:20Z</time>
      </trkpt>
      <trkpt lat="45.78359" lon="6.59883">
        <ele>1906</ele>
        <time>2022-07-24T09:13:21Z</time>
      </trkpt>
      <trkpt lat="45.7836" lon="6.59883">
        <ele>1906</ele>
        <time>2022-07-24T09:13:22Z</time>
      </trkpt>
      <trkpt lat="45.78361" lon="6.59883">
        <ele>1906</ele>
        <time>2022-07-24T09:13:23Z</time>
      </trkpt>
      <trkpt lat="45.78362" lon="6.59883">
        <ele>1906</ele>
        <time>2022-07-24T09:13:24Z</time>
      </trkpt>
      <trkpt lat="45.78363" lon="6.59883">
        <ele>1906</ele>
        <time>2022-07-24T09:13:25Z</time>
      </trkpt>
      <trkpt lat="45.78364" lon="6.59883">
        <ele>1906</ele>
        <time>2022-07-24T09:13:26Z</time>
      </trkpt>
      <trkpt lat="45.78365" lon="6.59883">
        <ele>1906</ele>
        <time>2022-07-24T09:13:27Z</time>
      </trkpt>
      <trkpt lat="45.78366" lon="6.59883">
        <ele>1906</ele>
        <time>2022-07-24T09:13:28Z</time>
      </trkpt>
      <trkpt lat="45.78367" lon="6.59883">
        <ele>1906</ele>
        <time>2022-07-24T09:13:29Z</time>
      </trkpt>
      <trkpt lat="45.78368" lon="6.59882">
        <ele>1906</ele>
        <time>2022-07-24T09:13:30Z</time>
      </trkpt>
      <trkpt lat="45.78369" lon="6.59882">
        <ele>1907</ele>
        <time>2022-07-24T09:13:31Z</time>
      </trkpt>
      <trkpt lat="45.7837" lon="6.59882">
        <ele>1907</ele>
        <time>2022-07-24T09:13:32Z</time>
      </trkpt>
      <trkpt lat="45.78371" lon="6.59882">
        <ele>1907</ele>
        <time>2022-07-24T09:13:33Z</time>
      </trkpt>
      <trkpt lat="45.78372" lon="6.59882">
        <ele>1907</ele>
        <time>2022-07-24T09:13:34Z</time>
      </trkpt>
      <trkpt lat="45.78373" lon="6.59882">
        <ele>1907</ele>
        <time>2022-07-24T09:13:35Z</time>
      </trkpt>
      <trkpt lat="45.78374" lon="6.59882">
        <ele>1907</ele>
        <time>2022-07-24T09:13:36Z</time>
      </trkpt>
      <trkpt lat="45.78375" lon="6.59882">
        <ele>1907</ele>
        <time>2022-07-24T09:13:37Z</time>
      </trkpt>
      <trkpt lat="45.78376" lon="6.59882">
        <ele>1907</ele>
        <time>2022-07-24T09:13:38Z</time>
      </trkpt>
      <trkpt lat="45.78377" lon="6.59882">
        <ele>1907</ele>
        <time>2022-07-24T09:13:39Z</time>
      </trkpt>
      <trkpt lat="45.78378" lon="6.59882">
        <ele>1907</ele>
        <time>2022-07-24T09:13:40Z</time>
      </trkpt>
      <trkpt lat="45.78378" lon="6.59882">
        <ele>1907</ele>
        <time>2022-07-24T09:13:41Z</time>
      </trkpt>
      <trkpt lat="45.78378" lon="6.59882">
        <ele>1907</ele>
        <time>2022-07-24T09:13:42Z</time>
      </trkpt>
      <trkpt lat="45.78379" lon="6.59882">
        <ele>1907</ele>
        <time>2022-07-24T09:13:43Z</time>
      </trkpt>
      <trkpt lat="45.78379" lon="6.59882">
        <ele>1907</ele>
        <time>2022-07-24T09:13:44Z</time>
      </trkpt>
      <trkpt lat="45.7838" lon="6.59882">
        <ele>1907</ele>
        <time>2022-07-24T09:13:45Z</time>
      </trkpt>
      <trkpt lat="45.7838" lon="6.59881">
        <ele>1907</ele>
        <time>2022-07-24T09:13:46Z</time>
      </trkpt>
      <trkpt lat="45.78381" lon="6.59881">
        <ele>1907</ele>
        <time>2022-07-24T09:13:47Z</time>
      </trkpt>
      <trkpt lat="45.78381" lon="6.59881">
        <ele>1907</ele>
        <time>2022-07-24T09:13:48Z</time>
      </trkpt>
      <trkpt lat="45.78382" lon="6.59882">
        <ele>1907</ele>
        <time>2022-07-24T09:13:49Z</time>
      </trkpt>
      <trkpt lat="45.78382" lon="6.59882">
        <ele>1907</ele>
        <time>2022-07-24T09:13:50Z</time>
      </trkpt>
      <trkpt lat="45.78383" lon="6.59882">
        <ele>1907</ele>
        <time>2022-07-24T09:13:51Z</time>
      </trkpt>
      <trkpt lat="45.78384" lon="6.59882">
        <ele>1907</ele>
        <time>2022-07-24T09:13:52Z</time>
      </trkpt>
      <trkpt lat="45.78385" lon="6.59882">
        <ele>1907</ele>
        <time>2022-07-24T09:13:53Z</time>
      </trkpt>
      <trkpt lat="45.78386" lon="6.59882">
        <ele>1907</ele>
        <time>2022-07-24T09:13:54Z</time>
      </trkpt>
      <trkpt lat="45.78387" lon="6.59882">
        <ele>1907</ele>
        <time>2022-07-24T09:13:55Z</time>
      </trkpt>
      <trkpt lat="45.78388" lon="6.59882">
        <ele>1908</ele>
        <time>2022-07-24T09:13:56Z</time>
      </trkpt>
      <trkpt lat="45.78389" lon="6.59883">
        <ele>1908</ele>
        <time>2022-07-24T09:13:57Z</time>
      </trkpt>
      <trkpt lat="45.7839" lon="6.59883">
        <ele>1908</ele>
        <time>2022-07-24T09:13:58Z</time>
      </trkpt>
      <trkpt lat="45.78391" lon="6.59883">
        <ele>1908</ele>
        <time>2022-07-24T09:13:59Z</time>
      </trkpt>
      <trkpt lat="45.78392" lon="6.59884">
        <ele>1908</ele>
        <time>2022-07-24T09:14:00Z</time>
      </trkpt>
      <trkpt lat="45.78393" lon="6.59884">
        <ele>1908</ele>
        <time>2022-07-24T09:14:01Z</time>
      </trkpt>
      <trkpt lat="45.78394" lon="6.59884">
        <ele>1908</ele>
        <time>2022-07-24T09:14:02Z</time>
      </trkpt>
      <trkpt lat="45.78395" lon="6.59884">
        <ele>1908</ele>
        <time>2022-07-24T09:14:03Z</time>
      </trkpt>
      <trkpt lat="45.78396" lon="6.59885">
        <ele>1908</ele>
        <time>2022-07-24T09:14:04Z</time>
      </trkpt>
      <trkpt lat="45.78398" lon="6.59885">
        <ele>1908</ele>
        <time>2022-07-24T09:14:05Z</time>
      </trkpt>
      <trkpt lat="45.78399" lon="6.59885">
        <ele>1908</ele>
        <time>2022-07-24T09:14:06Z</time>
      </trkpt>
      <trkpt lat="45.784" lon="6.59886">
        <ele>1908</ele>
        <time>2022-07-24T09:14:07Z</time>
      </trkpt>
      <trkpt lat="45.78401" lon="6.59886">
        <ele>1908</ele>
        <time>2022-07-24T09:14:08Z</time>
      </trkpt>
      <trkpt lat="45.78402" lon="6.59886">
        <ele>1908</ele>
        <time>2022-07-24T09:14:09Z</time>
      </trkpt>
      <trkpt lat="45.78403" lon="6.59886">
        <ele>1908</ele>
        <time>2022-07-24T09:14:10Z</time>
      </trkpt>
      <trkpt lat="45.78404" lon="6.59886">
        <ele>1909</ele>
        <time>2022-07-24T09:14:11Z</time>
      </trkpt>
      <trkpt lat="45.78405" lon="6.59886">
        <ele>1909</ele>
        <time>2022-07-24T09:14:12Z</time>
      </trkpt>
      <trkpt lat="45.78406" lon="6.59887">
        <ele>1909</ele>
        <time>2022-07-24T09:14:13Z</time>
      </trkpt>
      <trkpt lat="45.78407" lon="6.59887">
        <ele>1909</ele>
        <time>2022-07-24T09:14:14Z</time>
      </trkpt>
      <trkpt lat="45.78408" lon="6.59887">
        <ele>1909</ele>
        <time>2022-07-24T09:14:15Z</time>
      </trkpt>
      <trkpt lat="45.78409" lon="6.59887">
        <ele>1909</ele>
        <time>2022-07-24T09:14:16Z</time>
      </trkpt>
      <trkpt lat="45.7841" lon="6.59887">
        <ele>1909</ele>
        <time>2022-07-24T09:14:17Z</time>
      </trkpt>
      <trkpt lat="45.78411" lon="6.59888">
        <ele>1909</ele>
        <time>2022-07-24T09:14:18Z</time>
      </trkpt>
      <trkpt lat="45.78412" lon="6.59888">
        <ele>1909</ele>
        <time>2022-07-24T09:14:19Z</time>
      </trkpt>
      <trkpt lat="45.78413" lon="6.59888">
        <ele>1909</ele>
        <time>2022-07-24T09:14:20Z</time>
      </trkpt>
      <trkpt lat="45.78414" lon="6.59888">
        <ele>1909</ele>
        <time>2022-07-24T09:14:21Z</time>
      </trkpt>
      <trkpt lat="45.78415" lon="6.59888">
        <ele>1909</ele>
        <time>2022-07-24T09:14:22Z</time>
      </trkpt>
      <trkpt lat="45.78417" lon="6.59888">
        <ele>1909</ele>
        <time>2022-07-24T09:14:23Z</time>
      </trkpt>
      <trkpt lat="45.78418" lon="6.59888">
        <ele>1909</ele>
        <time>2022-07-24T09:14:24Z</time>
      </trkpt>
      <trkpt lat="45.78419" lon="6.59888">
        <ele>1909</ele>
        <time>2022-07-24T09:14:25Z</time>
      </trkpt>
      <trkpt lat="45.7842" lon="6.59888">
        <ele>1909</ele>
        <time>2022-07-24T09:14:26Z</time>
      </trkpt>
      <trkpt lat="45.78421" lon="6.59888">
        <ele>1909</ele>
        <time>2022-07-24T09:14:27Z</time>
      </trkpt>
      <trkpt lat="45.78422" lon="6.59888">
        <ele>1909</ele>
        <time>2022-07-24T09:14:28Z</time>
      </trkpt>
      <trkpt lat="45.78423" lon="6.59888">
        <ele>1909</ele>
        <time>2022-07-24T09:14:29Z</time>
      </trkpt>
      <trkpt lat="45.78425" lon="6.59888">
        <ele>1909</ele>
        <time>2022-07-24T09:14:30Z</time>
      </trkpt>
      <trkpt lat="45.78426" lon="6.59888">
        <ele>1909</ele>
        <time>2022-07-24T09:14:31Z</time>
      </trkpt>
      <trkpt lat="45.78427" lon="6.59887">
        <ele>1909</ele>
        <time>2022-07-24T09:14:32Z</time>
      </trkpt>
      <trkpt lat="45.78428" lon="6.59887">
        <ele>1909</ele>
        <time>2022-07-24T09:14:33Z</time>
      </trkpt>
      <trkpt lat="45.78429" lon="6.59887">
        <ele>1909</ele>
        <time>2022-07-24T09:14:34Z</time>
      </trkpt>
      <trkpt lat="45.7843" lon="6.59887">
        <ele>1909</ele>
        <time>2022-07-24T09:14:35Z</time>
      </trkpt>
      <trkpt lat="45.78431" lon="6.59887">
        <ele>1909</ele>
        <time>2022-07-24T09:14:36Z</time>
      </trkpt>
      <trkpt lat="45.78432" lon="6.59886">
        <ele>1909</ele>
        <time>2022-07-24T09:14:37Z</time>
      </trkpt>
      <trkpt lat="45.78433" lon="6.59886">
        <ele>1909</ele>
        <time>2022-07-24T09:14:38Z</time>
      </trkpt>
      <trkpt lat="45.78435" lon="6.59886">
        <ele>1909</ele>
        <time>2022-07-24T09:14:39Z</time>
      </trkpt>
      <trkpt lat="45.78436" lon="6.59886">
        <ele>1909</ele>
        <time>2022-07-24T09:14:40Z</time>
      </trkpt>
      <trkpt lat="45.78437" lon="6.59886">
        <ele>1909</ele>
        <time>2022-07-24T09:14:41Z</time>
      </trkpt>
      <trkpt lat="45.78438" lon="6.59886">
        <ele>1909</ele>
        <time>2022-07-24T09:14:42Z</time>
      </trkpt>
      <trkpt lat="45.78439" lon="6.59886">
        <ele>1909</ele>
        <time>2022-07-24T09:14:43Z</time>
      </trkpt>
      <trkpt lat="45.7844" lon="6.59886">
        <ele>1909</ele>
        <time>2022-07-24T09:14:44Z</time>
      </trkpt>
      <trkpt lat="45.78442" lon="6.59886">
        <ele>1909</ele>
        <time>2022-07-24T09:14:45Z</time>
      </trkpt>
      <trkpt lat="45.78443" lon="6.59886">
        <ele>1909</ele>
        <time>2022-07-24T09:14:46Z</time>
      </trkpt>
      <trkpt lat="45.78444" lon="6.59886">
        <ele>1909</ele>
        <time>2022-07-24T09:14:47Z</time>
      </trkpt>
      <trkpt lat="45.78445" lon="6.59886">
        <ele>1909</ele>
        <time>2022-07-24T09:14:48Z</time>
      </trkpt>
      <trkpt lat="45.78446" lon="6.59886">
        <ele>1909</ele>
        <time>2022-07-24T09:14:49Z</time>
      </trkpt>
      <trkpt lat="45.78448" lon="6.59886">
        <ele>1909</ele>
        <time>2022-07-24T09:14:50Z</time>
      </trkpt>
      <trkpt lat="45.78449" lon="6.59887">
        <ele>1909</ele>
        <time>2022-07-24T09:14:51Z</time>
      </trkpt>
      <trkpt lat="45.7845" lon="6.59887">
        <ele>1909</ele>
        <time>2022-07-24T09:14:52Z</time>
      </trkpt>
      <trkpt lat="45.78451" lon="6.59887">
        <ele>1909</ele>
        <time>2022-07-24T09:14:53Z</time>
      </trkpt>
      <trkpt lat="45.78452" lon="6.59887">
        <ele>1909</ele>
        <time>2022-07-24T09:14:54Z</time>
      </trkpt>
      <trkpt lat="45.78453" lon="6.59888">
        <ele>1909</ele>
        <time>2022-07-24T09:14:55Z</time>
      </trkpt>
      <trkpt lat="45.78454" lon="6.59888">
        <ele>1909</ele>
        <time>2022-07-24T09:14:56Z</time>
      </trkpt>
      <trkpt lat="45.78455" lon="6.59889">
        <ele>1909</ele>
        <time>2022-07-24T09:14:57Z</time>
      </trkpt>
      <trkpt lat="45.78457" lon="6.59889">
        <ele>1909</ele>
        <time>2022-07-24T09:14:58Z</time>
      </trkpt>
      <trkpt lat="45.78458" lon="6.5989">
        <ele>1909</ele>
        <time>2022-07-24T09:14:59Z</time>
      </trkpt>
      <trkpt lat="45.78459" lon="6.5989">
        <ele>1909</ele>
        <time>2022-07-24T09:15:00Z</time>
      </trkpt>
      <trkpt lat="45.7846" lon="6.59891">
        <ele>1909</ele>
        <time>2022-07-24T09:15:01Z</time>
      </trkpt>
      <trkpt lat="45.78462" lon="6.59891">
        <ele>1909</ele>
        <time>2022-07-24T09:15:02Z</time>
      </trkpt>
      <trkpt lat="45.78463" lon="6.59891">
        <ele>1909</ele>
        <time>2022-07-24T09:15:03Z</time>
      </trkpt>
      <trkpt lat="45.78464" lon="6.59892">
        <ele>1909</ele>
        <time>2022-07-24T09:15:04Z</time>
      </trkpt>
      <trkpt lat="45.78465" lon="6.59893">
        <ele>1909</ele>
        <time>2022-07-24T09:15:05Z</time>
      </trkpt>
      <trkpt lat="45.78467" lon="6.59893">
        <ele>1910</ele>
        <time>2022-07-24T09:15:06Z</time>
      </trkpt>
      <trkpt lat="45.78468" lon="6.59894">
        <ele>1910</ele>
        <time>2022-07-24T09:15:07Z</time>
      </trkpt>
      <trkpt lat="45.78469" lon="6.59894">
        <ele>1910</ele>
        <time>2022-07-24T09:15:08Z</time>
      </trkpt>
      <trkpt lat="45.7847" lon="6.59895">
        <ele>1910</ele>
        <time>2022-07-24T09:15:09Z</time>
      </trkpt>
      <trkpt lat="45.78471" lon="6.59895">
        <ele>1910</ele>
        <time>2022-07-24T09:15:10Z</time>
      </trkpt>
      <trkpt lat="45.78472" lon="6.59896">
        <ele>1910</ele>
        <time>2022-07-24T09:15:11Z</time>
      </trkpt>
      <trkpt lat="45.78473" lon="6.59897">
        <ele>1910</ele>
        <time>2022-07-24T09:15:12Z</time>
      </trkpt>
      <trkpt lat="45.78474" lon="6.59897">
        <ele>1910</ele>
        <time>2022-07-24T09:15:13Z</time>
      </trkpt>
      <trkpt lat="45.78475" lon="6.59898">
        <ele>1910</ele>
        <time>2022-07-24T09:15:14Z</time>
      </trkpt>
      <trkpt lat="45.78476" lon="6.59899">
        <ele>1910</ele>
        <time>2022-07-24T09:15:15Z</time>
      </trkpt>
      <trkpt lat="45.78477" lon="6.599">
        <ele>1910</ele>
        <time>2022-07-24T09:15:16Z</time>
      </trkpt>
      <trkpt lat="45.78478" lon="6.599">
        <ele>1910</ele>
        <time>2022-07-24T09:15:17Z</time>
      </trkpt>
      <trkpt lat="45.78479" lon="6.59901">
        <ele>1910</ele>
        <time>2022-07-24T09:15:18Z</time>
      </trkpt>
      <trkpt lat="45.7848" lon="6.59901">
        <ele>1910</ele>
        <time>2022-07-24T09:15:19Z</time>
      </trkpt>
      <trkpt lat="45.78481" lon="6.59902">
        <ele>1910</ele>
        <time>2022-07-24T09:15:20Z</time>
      </trkpt>
      <trkpt lat="45.78482" lon="6.59903">
        <ele>1910</ele>
        <time>2022-07-24T09:15:21Z</time>
      </trkpt>
      <trkpt lat="45.78483" lon="6.59903">
        <ele>1910</ele>
        <time>2022-07-24T09:15:22Z</time>
      </trkpt>
      <trkpt lat="45.78484" lon="6.59904">
        <ele>1910</ele>
        <time>2022-07-24T09:15:23Z</time>
      </trkpt>
      <trkpt lat="45.78485" lon="6.59905">
        <ele>1910</ele>
        <time>2022-07-24T09:15:24Z</time>
      </trkpt>
      <trkpt lat="45.78486" lon="6.59905">
        <ele>1910</ele>
        <time>2022-07-24T09:15:25Z</time>
      </trkpt>
      <trkpt lat="45.78487" lon="6.59906">
        <ele>1910</ele>
        <time>2022-07-24T09:15:26Z</time>
      </trkpt>
      <trkpt lat="45.78488" lon="6.59907">
        <ele>1910</ele>
        <time>2022-07-24T09:15:27Z</time>
      </trkpt>
      <trkpt lat="45.78489" lon="6.59907">
        <ele>1910</ele>
        <time>2022-07-24T09:15:28Z</time>
      </trkpt>
      <trkpt lat="45.7849" lon="6.59908">
        <ele>1910</ele>
        <time>2022-07-24T09:15:29Z</time>
      </trkpt>
      <trkpt lat="45.78491" lon="6.59909">
        <ele>1910</ele>
        <time>2022-07-24T09:15:30Z</time>
      </trkpt>
      <trkpt lat="45.78493" lon="6.5991">
        <ele>1910</ele>
        <time>2022-07-24T09:15:31Z</time>
      </trkpt>
      <trkpt lat="45.78494" lon="6.5991">
        <ele>1910</ele>
        <time>2022-07-24T09:15:32Z</time>
      </trkpt>
      <trkpt lat="45.78495" lon="6.59911">
        <ele>1910</ele>
        <time>2022-07-24T09:15:33Z</time>
      </trkpt>
      <trkpt lat="45.78496" lon="6.59912">
        <ele>1910</ele>
        <time>2022-07-24T09:15:34Z</time>
      </trkpt>
      <trkpt lat="45.78497" lon="6.59912">
        <ele>1910</ele>
        <time>2022-07-24T09:15:35Z</time>
      </trkpt>
      <trkpt lat="45.78498" lon="6.59913">
        <ele>1910</ele>
        <time>2022-07-24T09:15:36Z</time>
      </trkpt>
      <trkpt lat="45.78499" lon="6.59914">
        <ele>1910</ele>
        <time>2022-07-24T09:15:37Z</time>
      </trkpt>
      <trkpt lat="45.785" lon="6.59915">
        <ele>1910</ele>
        <time>2022-07-24T09:15:38Z</time>
      </trkpt>
      <trkpt lat="45.78501" lon="6.59915">
        <ele>1910</ele>
        <time>2022-07-24T09:15:39Z</time>
      </trkpt>
      <trkpt lat="45.78502" lon="6.59916">
        <ele>1910</ele>
        <time>2022-07-24T09:15:40Z</time>
      </trkpt>
      <trkpt lat="45.78503" lon="6.59917">
        <ele>1910</ele>
        <time>2022-07-24T09:15:41Z</time>
      </trkpt>
      <trkpt lat="45.78504" lon="6.59918">
        <ele>1910</ele>
        <time>2022-07-24T09:15:42Z</time>
      </trkpt>
      <trkpt lat="45.78505" lon="6.59918">
        <ele>1910</ele>
        <time>2022-07-24T09:15:43Z</time>
      </trkpt>
      <trkpt lat="45.78506" lon="6.59919">
        <ele>1910</ele>
        <time>2022-07-24T09:15:44Z</time>
      </trkpt>
      <trkpt lat="45.78507" lon="6.5992">
        <ele>1910</ele>
        <time>2022-07-24T09:15:45Z</time>
      </trkpt>
      <trkpt lat="45.78508" lon="6.59921">
        <ele>1910</ele>
        <time>2022-07-24T09:15:46Z</time>
      </trkpt>
      <trkpt lat="45.78509" lon="6.59921">
        <ele>1910</ele>
        <time>2022-07-24T09:15:47Z</time>
      </trkpt>
      <trkpt lat="45.7851" lon="6.59922">
        <ele>1910</ele>
        <time>2022-07-24T09:15:48Z</time>
      </trkpt>
      <trkpt lat="45.78511" lon="6.59922">
        <ele>1910</ele>
        <time>2022-07-24T09:15:49Z</time>
      </trkpt>
      <trkpt lat="45.78512" lon="6.59923">
        <ele>1910</ele>
        <time>2022-07-24T09:15:50Z</time>
      </trkpt>
      <trkpt lat="45.78513" lon="6.59923">
        <ele>1910</ele>
        <time>2022-07-24T09:15:51Z</time>
      </trkpt>
      <trkpt lat="45.78514" lon="6.59924">
        <ele>1910</ele>
        <time>2022-07-24T09:15:52Z</time>
      </trkpt>
      <trkpt lat="45.78515" lon="6.59925">
        <ele>1911</ele>
        <time>2022-07-24T09:16:21Z</time>
      </trkpt>
      <trkpt lat="45.78516" lon="6.59925">
        <ele>1911</ele>
        <time>2022-07-24T09:16:22Z</time>
      </trkpt>
      <trkpt lat="45.78517" lon="6.59925">
        <ele>1911</ele>
        <time>2022-07-24T09:16:23Z</time>
      </trkpt>
      <trkpt lat="45.78517" lon="6.59926">
        <ele>1911</ele>
        <time>2022-07-24T09:16:24Z</time>
      </trkpt>
      <trkpt lat="45.78518" lon="6.59926">
        <ele>1911</ele>
        <time>2022-07-24T09:16:25Z</time>
      </trkpt>
      <trkpt lat="45.78519" lon="6.59927">
        <ele>1911</ele>
        <time>2022-07-24T09:16:26Z</time>
      </trkpt>
      <trkpt lat="45.7852" lon="6.59927">
        <ele>1911</ele>
        <time>2022-07-24T09:16:27Z</time>
      </trkpt>
      <trkpt lat="45.78521" lon="6.59928">
        <ele>1911</ele>
        <time>2022-07-24T09:16:28Z</time>
      </trkpt>
      <trkpt lat="45.78522" lon="6.59928">
        <ele>1911</ele>
        <time>2022-07-24T09:16:29Z</time>
      </trkpt>
      <trkpt lat="45.78523" lon="6.59929">
        <ele>1911</ele>
        <time>2022-07-24T09:16:30Z</time>
      </trkpt>
      <trkpt lat="45.78525" lon="6.59929">
        <ele>1911</ele>
        <time>2022-07-24T09:16:31Z</time>
      </trkpt>
      <trkpt lat="45.78526" lon="6.59929">
        <ele>1911</ele>
        <time>2022-07-24T09:16:32Z</time>
      </trkpt>
      <trkpt lat="45.78527" lon="6.5993">
        <ele>1911</ele>
        <time>2022-07-24T09:16:33Z</time>
      </trkpt>
      <trkpt lat="45.78528" lon="6.5993">
        <ele>1911</ele>
        <time>2022-07-24T09:16:34Z</time>
      </trkpt>
      <trkpt lat="45.78529" lon="6.59931">
        <ele>1911</ele>
        <time>2022-07-24T09:16:35Z</time>
      </trkpt>
      <trkpt lat="45.7853" lon="6.59931">
        <ele>1911</ele>
        <time>2022-07-24T09:16:36Z</time>
      </trkpt>
      <trkpt lat="45.78531" lon="6.59931">
        <ele>1911</ele>
        <time>2022-07-24T09:16:37Z</time>
      </trkpt>
      <trkpt lat="45.78532" lon="6.59931">
        <ele>1911</ele>
        <time>2022-07-24T09:16:38Z</time>
      </trkpt>
      <trkpt lat="45.78534" lon="6.59931">
        <ele>1911</ele>
        <time>2022-07-24T09:16:39Z</time>
      </trkpt>
      <trkpt lat="45.78535" lon="6.59931">
        <ele>1911</ele>
        <time>2022-07-24T09:16:40Z</time>
      </trkpt>
      <trkpt lat="45.78536" lon="6.59931">
        <ele>1911</ele>
        <time>2022-07-24T09:16:41Z</time>
      </trkpt>
      <trkpt lat="45.78537" lon="6.59931">
        <ele>1911</ele>
        <time>2022-07-24T09:16:42Z</time>
      </trkpt>
      <trkpt lat="45.78538" lon="6.59931">
        <ele>1911</ele>
        <time>2022-07-24T09:16:43Z</time>
      </trkpt>
      <trkpt lat="45.78539" lon="6.59931">
        <ele>1911</ele>
        <time>2022-07-24T09:16:44Z</time>
      </trkpt>
      <trkpt lat="45.7854" lon="6.59931">
        <ele>1911</ele>
        <time>2022-07-24T09:16:45Z</time>
      </trkpt>
      <trkpt lat="45.78541" lon="6.59931">
        <ele>1911</ele>
        <time>2022-07-24T09:16:46Z</time>
      </trkpt>
      <trkpt lat="45.78543" lon="6.59932">
        <ele>1910</ele>
        <time>2022-07-24T09:16:47Z</time>
      </trkpt>
      <trkpt lat="45.78544" lon="6.59932">
        <ele>1910</ele>
        <time>2022-07-24T09:16:48Z</time>
      </trkpt>
      <trkpt lat="45.78545" lon="6.59932">
        <ele>1910</ele>
        <time>2022-07-24T09:16:49Z</time>
      </trkpt>
      <trkpt lat="45.78546" lon="6.59932">
        <ele>1910</ele>
        <time>2022-07-24T09:16:50Z</time>
      </trkpt>
      <trkpt lat="45.78547" lon="6.59932">
        <ele>1910</ele>
        <time>2022-07-24T09:16:51Z</time>
      </trkpt>
      <trkpt lat="45.78549" lon="6.59932">
        <ele>1910</ele>
        <time>2022-07-24T09:16:52Z</time>
      </trkpt>
      <trkpt lat="45.7855" lon="6.59932">
        <ele>1910</ele>
        <time>2022-07-24T09:16:53Z</time>
      </trkpt>
      <trkpt lat="45.78551" lon="6.59932">
        <ele>1910</ele>
        <time>2022-07-24T09:16:54Z</time>
      </trkpt>
      <trkpt lat="45.78552" lon="6.59932">
        <ele>1910</ele>
        <time>2022-07-24T09:16:55Z</time>
      </trkpt>
      <trkpt lat="45.78553" lon="6.59932">
        <ele>1910</ele>
        <time>2022-07-24T09:16:56Z</time>
      </trkpt>
      <trkpt lat="45.78554" lon="6.59932">
        <ele>1910</ele>
        <time>2022-07-24T09:16:57Z</time>
      </trkpt>
      <trkpt lat="45.78556" lon="6.59932">
        <ele>1910</ele>
        <time>2022-07-24T09:16:58Z</time>
      </trkpt>
      <trkpt lat="45.78557" lon="6.59932">
        <ele>1910</ele>
        <time>2022-07-24T09:16:59Z</time>
      </trkpt>
      <trkpt lat="45.78558" lon="6.59933">
        <ele>1910</ele>
        <time>2022-07-24T09:17:00Z</time>
      </trkpt>
      <trkpt lat="45.78559" lon="6.59933">
        <ele>1910</ele>
        <time>2022-07-24T09:17:01Z</time>
      </trkpt>
      <trkpt lat="45.7856" lon="6.59933">
        <ele>1910</ele>
        <time>2022-07-24T09:17:02Z</time>
      </trkpt>
      <trkpt lat="45.78561" lon="6.59934">
        <ele>1910</ele>
        <time>2022-07-24T09:17:03Z</time>
      </trkpt>
      <trkpt lat="45.78563" lon="6.59934">
        <ele>1910</ele>
        <time>2022-07-24T09:17:04Z</time>
      </trkpt>
      <trkpt lat="45.78564" lon="6.59934">
        <ele>1910</ele>
        <time>2022-07-24T09:17:05Z</time>
      </trkpt>
      <trkpt lat="45.78565" lon="6.59935">
        <ele>1910</ele>
        <time>2022-07-24T09:17:06Z</time>
      </trkpt>
      <trkpt lat="45.78566" lon="6.59935">
        <ele>1909</ele>
        <time>2022-07-24T09:17:07Z</time>
      </trkpt>
      <trkpt lat="45.78567" lon="6.59935">
        <ele>1909</ele>
        <time>2022-07-24T09:17:08Z</time>
      </trkpt>
      <trkpt lat="45.78569" lon="6.59936">
        <ele>1909</ele>
        <time>2022-07-24T09:17:09Z</time>
      </trkpt>
      <trkpt lat="45.7857" lon="6.59936">
        <ele>1909</ele>
        <time>2022-07-24T09:17:10Z</time>
      </trkpt>
      <trkpt lat="45.78571" lon="6.59936">
        <ele>1909</ele>
        <time>2022-07-24T09:17:11Z</time>
      </trkpt>
      <trkpt lat="45.78572" lon="6.59936">
        <ele>1909</ele>
        <time>2022-07-24T09:17:12Z</time>
      </trkpt>
      <trkpt lat="45.78573" lon="6.59937">
        <ele>1909</ele>
        <time>2022-07-24T09:17:13Z</time>
      </trkpt>
      <trkpt lat="45.78575" lon="6.59937">
        <ele>1909</ele>
        <time>2022-07-24T09:17:14Z</time>
      </trkpt>
      <trkpt lat="45.78576" lon="6.59937">
        <ele>1909</ele>
        <time>2022-07-24T09:17:15Z</time>
      </trkpt>
      <trkpt lat="45.78577" lon="6.59937">
        <ele>1909</ele>
        <time>2022-07-24T09:17:16Z</time>
      </trkpt>
      <trkpt lat="45.78578" lon="6.59938">
        <ele>1909</ele>
        <time>2022-07-24T09:17:17Z</time>
      </trkpt>
      <trkpt lat="45.78579" lon="6.59938">
        <ele>1909</ele>
        <time>2022-07-24T09:17:18Z</time>
      </trkpt>
      <trkpt lat="45.7858" lon="6.59938">
        <ele>1909</ele>
        <time>2022-07-24T09:17:19Z</time>
      </trkpt>
      <trkpt lat="45.78581" lon="6.59939">
        <ele>1909</ele>
        <time>2022-07-24T09:17:20Z</time>
      </trkpt>
      <trkpt lat="45.78582" lon="6.59939">
        <ele>1909</ele>
        <time>2022-07-24T09:17:21Z</time>
      </trkpt>
      <trkpt lat="45.78583" lon="6.5994">
        <ele>1909</ele>
        <time>2022-07-24T09:17:22Z</time>
      </trkpt>
      <trkpt lat="45.78584" lon="6.5994">
        <ele>1909</ele>
        <time>2022-07-24T09:17:23Z</time>
      </trkpt>
      <trkpt lat="45.78585" lon="6.5994">
        <ele>1909</ele>
        <time>2022-07-24T09:17:24Z</time>
      </trkpt>
      <trkpt lat="45.78586" lon="6.59941">
        <ele>1909</ele>
        <time>2022-07-24T09:17:25Z</time>
      </trkpt>
      <trkpt lat="45.78587" lon="6.59941">
        <ele>1909</ele>
        <time>2022-07-24T09:17:26Z</time>
      </trkpt>
      <trkpt lat="45.78589" lon="6.59942">
        <ele>1908</ele>
        <time>2022-07-24T09:17:27Z</time>
      </trkpt>
      <trkpt lat="45.7859" lon="6.59942">
        <ele>1908</ele>
        <time>2022-07-24T09:17:28Z</time>
      </trkpt>
      <trkpt lat="45.78591" lon="6.59943">
        <ele>1908</ele>
        <time>2022-07-24T09:17:29Z</time>
      </trkpt>
      <trkpt lat="45.78592" lon="6.59943">
        <ele>1908</ele>
        <time>2022-07-24T09:17:30Z</time>
      </trkpt>
      <trkpt lat="45.78593" lon="6.59944">
        <ele>1908</ele>
        <time>2022-07-24T09:17:31Z</time>
      </trkpt>
      <trkpt lat="45.78594" lon="6.59945">
        <ele>1908</ele>
        <time>2022-07-24T09:17:32Z</time>
      </trkpt>
      <trkpt lat="45.78595" lon="6.59945">
        <ele>1908</ele>
        <time>2022-07-24T09:17:33Z</time>
      </trkpt>
      <trkpt lat="45.78597" lon="6.59946">
        <ele>1908</ele>
        <time>2022-07-24T09:17:34Z</time>
      </trkpt>
      <trkpt lat="45.78598" lon="6.59947">
        <ele>1908</ele>
        <time>2022-07-24T09:17:35Z</time>
      </trkpt>
      <trkpt lat="45.78599" lon="6.59947">
        <ele>1908</ele>
        <time>2022-07-24T09:17:36Z</time>
      </trkpt>
      <trkpt lat="45.786" lon="6.59948">
        <ele>1908</ele>
        <time>2022-07-24T09:17:37Z</time>
      </trkpt>
      <trkpt lat="45.78601" lon="6.59948">
        <ele>1908</ele>
        <time>2022-07-24T09:17:38Z</time>
      </trkpt>
      <trkpt lat="45.78602" lon="6.59949">
        <ele>1908</ele>
        <time>2022-07-24T09:17:39Z</time>
      </trkpt>
      <trkpt lat="45.78603" lon="6.59949">
        <ele>1908</ele>
        <time>2022-07-24T09:17:40Z</time>
      </trkpt>
      <trkpt lat="45.78605" lon="6.5995">
        <ele>1909</ele>
        <time>2022-07-24T09:17:41Z</time>
      </trkpt>
      <trkpt lat="45.78606" lon="6.5995">
        <ele>1909</ele>
        <time>2022-07-24T09:17:42Z</time>
      </trkpt>
      <trkpt lat="45.78607" lon="6.59951">
        <ele>1909</ele>
        <time>2022-07-24T09:17:43Z</time>
      </trkpt>
      <trkpt lat="45.78608" lon="6.59951">
        <ele>1909</ele>
        <time>2022-07-24T09:17:44Z</time>
      </trkpt>
      <trkpt lat="45.78609" lon="6.59951">
        <ele>1909</ele>
        <time>2022-07-24T09:17:45Z</time>
      </trkpt>
      <trkpt lat="45.7861" lon="6.59952">
        <ele>1909</ele>
        <time>2022-07-24T09:17:46Z</time>
      </trkpt>
      <trkpt lat="45.78611" lon="6.59952">
        <ele>1909</ele>
        <time>2022-07-24T09:17:47Z</time>
      </trkpt>
      <trkpt lat="45.78612" lon="6.59953">
        <ele>1909</ele>
        <time>2022-07-24T09:17:48Z</time>
      </trkpt>
      <trkpt lat="45.78613" lon="6.59953">
        <ele>1909</ele>
        <time>2022-07-24T09:17:49Z</time>
      </trkpt>
      <trkpt lat="45.78615" lon="6.59954">
        <ele>1909</ele>
        <time>2022-07-24T09:17:50Z</time>
      </trkpt>
      <trkpt lat="45.78616" lon="6.59954">
        <ele>1909</ele>
        <time>2022-07-24T09:17:51Z</time>
      </trkpt>
      <trkpt lat="45.78617" lon="6.59954">
        <ele>1909</ele>
        <time>2022-07-24T09:17:52Z</time>
      </trkpt>
      <trkpt lat="45.78618" lon="6.59955">
        <ele>1909</ele>
        <time>2022-07-24T09:17:53Z</time>
      </trkpt>
      <trkpt lat="45.78619" lon="6.59955">
        <ele>1909</ele>
        <time>2022-07-24T09:17:54Z</time>
      </trkpt>
      <trkpt lat="45.7862" lon="6.59955">
        <ele>1909</ele>
        <time>2022-07-24T09:17:55Z</time>
      </trkpt>
      <trkpt lat="45.78621" lon="6.59955">
        <ele>1909</ele>
        <time>2022-07-24T09:17:56Z</time>
      </trkpt>
      <trkpt lat="45.78622" lon="6.59956">
        <ele>1909</ele>
        <time>2022-07-24T09:17:57Z</time>
      </trkpt>
      <trkpt lat="45.78624" lon="6.59956">
        <ele>1909</ele>
        <time>2022-07-24T09:17:58Z</time>
      </trkpt>
      <trkpt lat="45.78625" lon="6.59956">
        <ele>1909</ele>
        <time>2022-07-24T09:17:59Z</time>
      </trkpt>
      <trkpt lat="45.78626" lon="6.59957">
        <ele>1909</ele>
        <time>2022-07-24T09:18:00Z</time>
      </trkpt>
      <trkpt lat="45.78627" lon="6.59957">
        <ele>1909</ele>
        <time>2022-07-24T09:18:01Z</time>
      </trkpt>
      <trkpt lat="45.78628" lon="6.59957">
        <ele>1909</ele>
        <time>2022-07-24T09:18:02Z</time>
      </trkpt>
      <trkpt lat="45.78629" lon="6.59958">
        <ele>1909</ele>
        <time>2022-07-24T09:18:03Z</time>
      </trkpt>
      <trkpt lat="45.7863" lon="6.59958">
        <ele>1909</ele>
        <time>2022-07-24T09:18:04Z</time>
      </trkpt>
      <trkpt lat="45.78631" lon="6.59959">
        <ele>1909</ele>
        <time>2022-07-24T09:18:05Z</time>
      </trkpt>
      <trkpt lat="45.78632" lon="6.59959">
        <ele>1909</ele>
        <time>2022-07-24T09:18:06Z</time>
      </trkpt>
      <trkpt lat="45.78633" lon="6.5996">
        <ele>1909</ele>
        <time>2022-07-24T09:18:07Z</time>
      </trkpt>
      <trkpt lat="45.78634" lon="6.5996">
        <ele>1909</ele>
        <time>2022-07-24T09:18:08Z</time>
      </trkpt>
      <trkpt lat="45.78635" lon="6.5996">
        <ele>1909</ele>
        <time>2022-07-24T09:18:09Z</time>
      </trkpt>
      <trkpt lat="45.78636" lon="6.59961">
        <ele>1909</ele>
        <time>2022-07-24T09:18:10Z</time>
      </trkpt>
      <trkpt lat="45.78637" lon="6.59961">
        <ele>1909</ele>
        <time>2022-07-24T09:18:11Z</time>
      </trkpt>
      <trkpt lat="45.78638" lon="6.59962">
        <ele>1909</ele>
        <time>2022-07-24T09:18:12Z</time>
      </trkpt>
      <trkpt lat="45.78639" lon="6.59962">
        <ele>1909</ele>
        <time>2022-07-24T09:18:13Z</time>
      </trkpt>
      <trkpt lat="45.7864" lon="6.59963">
        <ele>1909</ele>
        <time>2022-07-24T09:18:14Z</time>
      </trkpt>
      <trkpt lat="45.78642" lon="6.59963">
        <ele>1909</ele>
        <time>2022-07-24T09:18:15Z</time>
      </trkpt>
      <trkpt lat="45.78643" lon="6.59964">
        <ele>1909</ele>
        <time>2022-07-24T09:18:16Z</time>
      </trkpt>
      <trkpt lat="45.78644" lon="6.59964">
        <ele>1909</ele>
        <time>2022-07-24T09:18:17Z</time>
      </trkpt>
      <trkpt lat="45.78645" lon="6.59965">
        <ele>1909</ele>
        <time>2022-07-24T09:18:18Z</time>
      </trkpt>
      <trkpt lat="45.78646" lon="6.59965">
        <ele>1909</ele>
        <time>2022-07-24T09:18:19Z</time>
      </trkpt>
      <trkpt lat="45.78647" lon="6.59966">
        <ele>1909</ele>
        <time>2022-07-24T09:18:20Z</time>
      </trkpt>
      <trkpt lat="45.78648" lon="6.59967">
        <ele>1909</ele>
        <time>2022-07-24T09:18:21Z</time>
      </trkpt>
      <trkpt lat="45.78649" lon="6.59967">
        <ele>1909</ele>
        <time>2022-07-24T09:18:22Z</time>
      </trkpt>
      <trkpt lat="45.7865" lon="6.59968">
        <ele>1909</ele>
        <time>2022-07-24T09:18:23Z</time>
      </trkpt>
      <trkpt lat="45.78652" lon="6.59968">
        <ele>1909</ele>
        <time>2022-07-24T09:18:24Z</time>
      </trkpt>
      <trkpt lat="45.78653" lon="6.59968">
        <ele>1909</ele>
        <time>2022-07-24T09:18:25Z</time>
      </trkpt>
      <trkpt lat="45.78654" lon="6.59969">
        <ele>1909</ele>
        <time>2022-07-24T09:18:26Z</time>
      </trkpt>
      <trkpt lat="45.78655" lon="6.5997">
        <ele>1908</ele>
        <time>2022-07-24T09:18:27Z</time>
      </trkpt>
      <trkpt lat="45.78656" lon="6.5997">
        <ele>1908</ele>
        <time>2022-07-24T09:18:28Z</time>
      </trkpt>
      <trkpt lat="45.78657" lon="6.59971">
        <ele>1908</ele>
        <time>2022-07-24T09:18:29Z</time>
      </trkpt>
      <trkpt lat="45.78658" lon="6.59972">
        <ele>1908</ele>
        <time>2022-07-24T09:18:30Z</time>
      </trkpt>
      <trkpt lat="45.78659" lon="6.59972">
        <ele>1908</ele>
        <time>2022-07-24T09:18:31Z</time>
      </trkpt>
      <trkpt lat="45.78661" lon="6.59973">
        <ele>1908</ele>
        <time>2022-07-24T09:18:32Z</time>
      </trkpt>
      <trkpt lat="45.78662" lon="6.59974">
        <ele>1908</ele>
        <time>2022-07-24T09:18:33Z</time>
      </trkpt>
      <trkpt lat="45.78663" lon="6.59975">
        <ele>1908</ele>
        <time>2022-07-24T09:18:34Z</time>
      </trkpt>
      <trkpt lat="45.78664" lon="6.59975">
        <ele>1908</ele>
        <time>2022-07-24T09:18:35Z</time>
      </trkpt>
      <trkpt lat="45.78665" lon="6.59976">
        <ele>1908</ele>
        <time>2022-07-24T09:18:36Z</time>
      </trkpt>
      <trkpt lat="45.78666" lon="6.59977">
        <ele>1908</ele>
        <time>2022-07-24T09:18:37Z</time>
      </trkpt>
      <trkpt lat="45.78667" lon="6.59977">
        <ele>1908</ele>
        <time>2022-07-24T09:18:38Z</time>
      </trkpt>
      <trkpt lat="45.78668" lon="6.59978">
        <ele>1908</ele>
        <time>2022-07-24T09:18:39Z</time>
      </trkpt>
      <trkpt lat="45.78669" lon="6.59979">
        <ele>1908</ele>
        <time>2022-07-24T09:18:40Z</time>
      </trkpt>
      <trkpt lat="45.7867" lon="6.5998">
        <ele>1908</ele>
        <time>2022-07-24T09:18:41Z</time>
      </trkpt>
      <trkpt lat="45.78671" lon="6.5998">
        <ele>1907</ele>
        <time>2022-07-24T09:18:42Z</time>
      </trkpt>
      <trkpt lat="45.78672" lon="6.59981">
        <ele>1907</ele>
        <time>2022-07-24T09:18:43Z</time>
      </trkpt>
      <trkpt lat="45.78673" lon="6.59982">
        <ele>1907</ele>
        <time>2022-07-24T09:18:44Z</time>
      </trkpt>
      <trkpt lat="45.78674" lon="6.59982">
        <ele>1907</ele>
        <time>2022-07-24T09:18:45Z</time>
      </trkpt>
      <trkpt lat="45.78675" lon="6.59983">
        <ele>1907</ele>
        <time>2022-07-24T09:18:46Z</time>
      </trkpt>
      <trkpt lat="45.78676" lon="6.59984">
        <ele>1907</ele>
        <time>2022-07-24T09:18:47Z</time>
      </trkpt>
      <trkpt lat="45.78677" lon="6.59985">
        <ele>1907</ele>
        <time>2022-07-24T09:18:48Z</time>
      </trkpt>
      <trkpt lat="45.78678" lon="6.59985">
        <ele>1907</ele>
        <time>2022-07-24T09:18:49Z</time>
      </trkpt>
      <trkpt lat="45.78679" lon="6.59986">
        <ele>1907</ele>
        <time>2022-07-24T09:18:50Z</time>
      </trkpt>
      <trkpt lat="45.7868" lon="6.59987">
        <ele>1907</ele>
        <time>2022-07-24T09:18:51Z</time>
      </trkpt>
      <trkpt lat="45.78681" lon="6.59988">
        <ele>1907</ele>
        <time>2022-07-24T09:18:52Z</time>
      </trkpt>
      <trkpt lat="45.78682" lon="6.59989">
        <ele>1907</ele>
        <time>2022-07-24T09:18:53Z</time>
      </trkpt>
      <trkpt lat="45.78683" lon="6.5999">
        <ele>1907</ele>
        <time>2022-07-24T09:18:54Z</time>
      </trkpt>
      <trkpt lat="45.78684" lon="6.59991">
        <ele>1907</ele>
        <time>2022-07-24T09:18:55Z</time>
      </trkpt>
      <trkpt lat="45.78685" lon="6.59992">
        <ele>1908</ele>
        <time>2022-07-24T09:20:23Z</time>
      </trkpt>
      <trkpt lat="45.78686" lon="6.59993">
        <ele>1908</ele>
        <time>2022-07-24T09:20:24Z</time>
      </trkpt>
      <trkpt lat="45.78687" lon="6.59994">
        <ele>1908</ele>
        <time>2022-07-24T09:20:25Z</time>
      </trkpt>
      <trkpt lat="45.78687" lon="6.59995">
        <ele>1908</ele>
        <time>2022-07-24T09:20:26Z</time>
      </trkpt>
      <trkpt lat="45.78688" lon="6.59996">
        <ele>1908</ele>
        <time>2022-07-24T09:20:27Z</time>
      </trkpt>
      <trkpt lat="45.78689" lon="6.59996">
        <ele>1908</ele>
        <time>2022-07-24T09:20:28Z</time>
      </trkpt>
      <trkpt lat="45.7869" lon="6.59997">
        <ele>1908</ele>
        <time>2022-07-24T09:20:29Z</time>
      </trkpt>
      <trkpt lat="45.78691" lon="6.59997">
        <ele>1908</ele>
        <time>2022-07-24T09:20:30Z</time>
      </trkpt>
      <trkpt lat="45.78692" lon="6.59998">
        <ele>1908</ele>
        <time>2022-07-24T09:20:31Z</time>
      </trkpt>
      <trkpt lat="45.78693" lon="6.59999">
        <ele>1908</ele>
        <time>2022-07-24T09:20:32Z</time>
      </trkpt>
      <trkpt lat="45.78694" lon="6.59999">
        <ele>1908</ele>
        <time>2022-07-24T09:20:33Z</time>
      </trkpt>
      <trkpt lat="45.78695" lon="6.6">
        <ele>1908</ele>
        <time>2022-07-24T09:20:40Z</time>
      </trkpt>
      <trkpt lat="45.78696" lon="6.60001">
        <ele>1908</ele>
        <time>2022-07-24T09:20:41Z</time>
      </trkpt>
      <trkpt lat="45.78697" lon="6.60001">
        <ele>1908</ele>
        <time>2022-07-24T09:20:42Z</time>
      </trkpt>
      <trkpt lat="45.78697" lon="6.60002">
        <ele>1908</ele>
        <time>2022-07-24T09:20:43Z</time>
      </trkpt>
      <trkpt lat="45.78698" lon="6.60002">
        <ele>1908</ele>
        <time>2022-07-24T09:20:44Z</time>
      </trkpt>
      <trkpt lat="45.78699" lon="6.60003">
        <ele>1908</ele>
        <time>2022-07-24T09:20:45Z</time>
      </trkpt>
      <trkpt lat="45.787" lon="6.60004">
        <ele>1908</ele>
        <time>2022-07-24T09:20:46Z</time>
      </trkpt>
      <trkpt lat="45.78701" lon="6.60004">
        <ele>1908</ele>
        <time>2022-07-24T09:20:47Z</time>
      </trkpt>
      <trkpt lat="45.78702" lon="6.60005">
        <ele>1908</ele>
        <time>2022-07-24T09:20:48Z</time>
      </trkpt>
      <trkpt lat="45.78703" lon="6.60006">
        <ele>1908</ele>
        <time>2022-07-24T09:20:49Z</time>
      </trkpt>
      <trkpt lat="45.78704" lon="6.60007">
        <ele>1908</ele>
        <time>2022-07-24T09:20:50Z</time>
      </trkpt>
      <trkpt lat="45.78705" lon="6.60008">
        <ele>1908</ele>
        <time>2022-07-24T09:20:51Z</time>
      </trkpt>
      <trkpt lat="45.78706" lon="6.60009">
        <ele>1908</ele>
        <time>2022-07-24T09:20:52Z</time>
      </trkpt>
      <trkpt lat="45.78707" lon="6.6001">
        <ele>1908</ele>
        <time>2022-07-24T09:20:53Z</time>
      </trkpt>
      <trkpt lat="45.78708" lon="6.60011">
        <ele>1908</ele>
        <time>2022-07-24T09:20:54Z</time>
      </trkpt>
      <trkpt lat="45.78709" lon="6.60012">
        <ele>1908</ele>
        <time>2022-07-24T09:20:55Z</time>
      </trkpt>
      <trkpt lat="45.78709" lon="6.60013">
        <ele>1908</ele>
        <time>2022-07-24T09:20:56Z</time>
      </trkpt>
      <trkpt lat="45.7871" lon="6.60013">
        <ele>1908</ele>
        <time>2022-07-24T09:20:57Z</time>
      </trkpt>
      <trkpt lat="45.78711" lon="6.60014">
        <ele>1908</ele>
        <time>2022-07-24T09:20:58Z</time>
      </trkpt>
      <trkpt lat="45.78712" lon="6.60015">
        <ele>1908</ele>
        <time>2022-07-24T09:20:59Z</time>
      </trkpt>
      <trkpt lat="45.78713" lon="6.60016">
        <ele>1908</ele>
        <time>2022-07-24T09:21:00Z</time>
      </trkpt>
      <trkpt lat="45.78713" lon="6.60017">
        <ele>1908</ele>
        <time>2022-07-24T09:21:01Z</time>
      </trkpt>
      <trkpt lat="45.78714" lon="6.60018">
        <ele>1908</ele>
        <time>2022-07-24T09:21:02Z</time>
      </trkpt>
      <trkpt lat="45.78715" lon="6.60019">
        <ele>1908</ele>
        <time>2022-07-24T09:21:03Z</time>
      </trkpt>
      <trkpt lat="45.78716" lon="6.6002">
        <ele>1908</ele>
        <time>2022-07-24T09:21:04Z</time>
      </trkpt>
      <trkpt lat="45.78717" lon="6.60021">
        <ele>1908</ele>
        <time>2022-07-24T09:21:05Z</time>
      </trkpt>
      <trkpt lat="45.78718" lon="6.60022">
        <ele>1908</ele>
        <time>2022-07-24T09:21:06Z</time>
      </trkpt>
      <trkpt lat="45.78719" lon="6.60023">
        <ele>1908</ele>
        <time>2022-07-24T09:21:07Z</time>
      </trkpt>
      <trkpt lat="45.7872" lon="6.60024">
        <ele>1908</ele>
        <time>2022-07-24T09:21:08Z</time>
      </trkpt>
      <trkpt lat="45.7872" lon="6.60025">
        <ele>1908</ele>
        <time>2022-07-24T09:21:09Z</time>
      </trkpt>
      <trkpt lat="45.78721" lon="6.60026">
        <ele>1908</ele>
        <time>2022-07-24T09:21:10Z</time>
      </trkpt>
      <trkpt lat="45.78722" lon="6.60026">
        <ele>1908</ele>
        <time>2022-07-24T09:21:11Z</time>
      </trkpt>
      <trkpt lat="45.78723" lon="6.60027">
        <ele>1908</ele>
        <time>2022-07-24T09:21:12Z</time>
      </trkpt>
      <trkpt lat="45.78724" lon="6.60027">
        <ele>1908</ele>
        <time>2022-07-24T09:21:13Z</time>
      </trkpt>
      <trkpt lat="45.78725" lon="6.60028">
        <ele>1908</ele>
        <time>2022-07-24T09:21:14Z</time>
      </trkpt>
      <trkpt lat="45.78726" lon="6.60028">
        <ele>1908</ele>
        <time>2022-07-24T09:21:15Z</time>
      </trkpt>
      <trkpt lat="45.78727" lon="6.60029">
        <ele>1908</ele>
        <time>2022-07-24T09:21:16Z</time>
      </trkpt>
      <trkpt lat="45.78728" lon="6.60029">
        <ele>1908</ele>
        <time>2022-07-24T09:21:17Z</time>
      </trkpt>
      <trkpt lat="45.7873" lon="6.6003">
        <ele>1908</ele>
        <time>2022-07-24T09:21:18Z</time>
      </trkpt>
      <trkpt lat="45.78731" lon="6.6003">
        <ele>1908</ele>
        <time>2022-07-24T09:21:19Z</time>
      </trkpt>
      <trkpt lat="45.78732" lon="6.60031">
        <ele>1908</ele>
        <time>2022-07-24T09:21:20Z</time>
      </trkpt>
      <trkpt lat="45.78733" lon="6.60031">
        <ele>1909</ele>
        <time>2022-07-24T09:21:21Z</time>
      </trkpt>
      <trkpt lat="45.78734" lon="6.60031">
        <ele>1909</ele>
        <time>2022-07-24T09:21:22Z</time>
      </trkpt>
      <trkpt lat="45.78735" lon="6.60032">
        <ele>1909</ele>
        <time>2022-07-24T09:21:23Z</time>
      </trkpt>
      <trkpt lat="45.78736" lon="6.60032">
        <ele>1909</ele>
        <time>2022-07-24T09:21:24Z</time>
      </trkpt>
      <trkpt lat="45.78737" lon="6.60032">
        <ele>1909</ele>
        <time>2022-07-24T09:21:25Z</time>
      </trkpt>
      <trkpt lat="45.78738" lon="6.60033">
        <ele>1909</ele>
        <time>2022-07-24T09:21:26Z</time>
      </trkpt>
      <trkpt lat="45.78739" lon="6.60033">
        <ele>1909</ele>
        <time>2022-07-24T09:21:27Z</time>
      </trkpt>
      <trkpt lat="45.7874" lon="6.60034">
        <ele>1909</ele>
        <time>2022-07-24T09:21:28Z</time>
      </trkpt>
      <trkpt lat="45.78741" lon="6.60034">
        <ele>1909</ele>
        <time>2022-07-24T09:21:29Z</time>
      </trkpt>
      <trkpt lat="45.78742" lon="6.60035">
        <ele>1909</ele>
        <time>2022-07-24T09:21:30Z</time>
      </trkpt>
      <trkpt lat="45.78743" lon="6.60035">
        <ele>1909</ele>
        <time>2022-07-24T09:21:31Z</time>
      </trkpt>
      <trkpt lat="45.78744" lon="6.60035">
        <ele>1909</ele>
        <time>2022-07-24T09:21:32Z</time>
      </trkpt>
      <trkpt lat="45.78745" lon="6.60036">
        <ele>1909</ele>
        <time>2022-07-24T09:21:33Z</time>
      </trkpt>
      <trkpt lat="45.78746" lon="6.60036">
        <ele>1909</ele>
        <time>2022-07-24T09:21:34Z</time>
      </trkpt>
      <trkpt lat="45.78746" lon="6.60037">
        <ele>1909</ele>
        <time>2022-07-24T09:21:35Z</time>
      </trkpt>
      <trkpt lat="45.78747" lon="6.60037">
        <ele>1909</ele>
        <time>2022-07-24T09:21:36Z</time>
      </trkpt>
      <trkpt lat="45.78748" lon="6.60037">
        <ele>1909</ele>
        <time>2022-07-24T09:21:37Z</time>
      </trkpt>
      <trkpt lat="45.78749" lon="6.60038">
        <ele>1909</ele>
        <time>2022-07-24T09:21:38Z</time>
      </trkpt>
      <trkpt lat="45.7875" lon="6.60039">
        <ele>1909</ele>
        <time>2022-07-24T09:21:39Z</time>
      </trkpt>
      <trkpt lat="45.78751" lon="6.60039">
        <ele>1909</ele>
        <time>2022-07-24T09:21:40Z</time>
      </trkpt>
      <trkpt lat="45.78752" lon="6.6004">
        <ele>1909</ele>
        <time>2022-07-24T09:21:41Z</time>
      </trkpt>
      <trkpt lat="45.78752" lon="6.60041">
        <ele>1909</ele>
        <time>2022-07-24T09:21:42Z</time>
      </trkpt>
      <trkpt lat="45.78753" lon="6.60041">
        <ele>1909</ele>
        <time>2022-07-24T09:21:43Z</time>
      </trkpt>
      <trkpt lat="45.78754" lon="6.60042">
        <ele>1909</ele>
        <time>2022-07-24T09:21:44Z</time>
      </trkpt>
      <trkpt lat="45.78755" lon="6.60043">
        <ele>1909</ele>
        <time>2022-07-24T09:21:45Z</time>
      </trkpt>
      <trkpt lat="45.78756" lon="6.60044">
        <ele>1910</ele>
        <time>2022-07-24T09:21:46Z</time>
      </trkpt>
      <trkpt lat="45.78757" lon="6.60045">
        <ele>1910</ele>
        <time>2022-07-24T09:21:47Z</time>
      </trkpt>
      <trkpt lat="45.78758" lon="6.60045">
        <ele>1910</ele>
        <time>2022-07-24T09:21:48Z</time>
      </trkpt>
      <trkpt lat="45.78759" lon="6.60046">
        <ele>1910</ele>
        <time>2022-07-24T09:21:49Z</time>
      </trkpt>
      <trkpt lat="45.7876" lon="6.60047">
        <ele>1910</ele>
        <time>2022-07-24T09:21:50Z</time>
      </trkpt>
      <trkpt lat="45.78761" lon="6.60048">
        <ele>1910</ele>
        <time>2022-07-24T09:21:51Z</time>
      </trkpt>
      <trkpt lat="45.78762" lon="6.60049">
        <ele>1910</ele>
        <time>2022-07-24T09:21:52Z</time>
      </trkpt>
      <trkpt lat="45.78763" lon="6.6005">
        <ele>1910</ele>
        <time>2022-07-24T09:21:53Z</time>
      </trkpt>
      <trkpt lat="45.78764" lon="6.60051">
        <ele>1910</ele>
        <time>2022-07-24T09:21:54Z</time>
      </trkpt>
      <trkpt lat="45.78765" lon="6.60052">
        <ele>1910</ele>
        <time>2022-07-24T09:21:55Z</time>
      </trkpt>
      <trkpt lat="45.78765" lon="6.60053">
        <ele>1910</ele>
        <time>2022-07-24T09:21:56Z</time>
      </trkpt>
      <trkpt lat="45.78766" lon="6.60054">
        <ele>1910</ele>
        <time>2022-07-24T09:21:57Z</time>
      </trkpt>
      <trkpt lat="45.78767" lon="6.60055">
        <ele>1910</ele>
        <time>2022-07-24T09:21:58Z</time>
      </trkpt>
      <trkpt lat="45.78768" lon="6.60056">
        <ele>1910</ele>
        <time>2022-07-24T09:21:59Z</time>
      </trkpt>
      <trkpt lat="45.78769" lon="6.60057">
        <ele>1910</ele>
        <time>2022-07-24T09:22:00Z</time>
      </trkpt>
      <trkpt lat="45.78769" lon="6.60058">
        <ele>1911</ele>
        <time>2022-07-24T09:22:01Z</time>
      </trkpt>
      <trkpt lat="45.7877" lon="6.60059">
        <ele>1911</ele>
        <time>2022-07-24T09:22:02Z</time>
      </trkpt>
      <trkpt lat="45.78771" lon="6.6006">
        <ele>1911</ele>
        <time>2022-07-24T09:22:03Z</time>
      </trkpt>
      <trkpt lat="45.78772" lon="6.60061">
        <ele>1911</ele>
        <time>2022-07-24T09:22:04Z</time>
      </trkpt>
      <trkpt lat="45.78772" lon="6.60062">
        <ele>1911</ele>
        <time>2022-07-24T09:22:05Z</time>
      </trkpt>
      <trkpt lat="45.78773" lon="6.60064">
        <ele>1911</ele>
        <time>2022-07-24T09:22:06Z</time>
      </trkpt>
      <trkpt lat="45.78774" lon="6.60065">
        <ele>1911</ele>
        <time>2022-07-24T09:22:07Z</time>
      </trkpt>
      <trkpt lat="45.78775" lon="6.60066">
        <ele>1911</ele>
        <time>2022-07-24T09:22:08Z</time>
      </trkpt>
      <trkpt lat="45.78776" lon="6.60067">
        <ele>1911</ele>
        <time>2022-07-24T09:22:09Z</time>
      </trkpt>
      <trkpt lat="45.78776" lon="6.60068">
        <ele>1911</ele>
        <time>2022-07-24T09:22:10Z</time>
      </trkpt>
      <trkpt lat="45.78777" lon="6.60068">
        <ele>1911</ele>
        <time>2022-07-24T09:22:11Z</time>
      </trkpt>
      <trkpt lat="45.78778" lon="6.60069">
        <ele>1911</ele>
        <time>2022-07-24T09:22:12Z</time>
      </trkpt>
      <trkpt lat="45.78779" lon="6.6007">
        <ele>1911</ele>
        <time>2022-07-24T09:22:13Z</time>
      </trkpt>
      <trkpt lat="45.7878" lon="6.60071">
        <ele>1911</ele>
        <time>2022-07-24T09:22:14Z</time>
      </trkpt>
      <trkpt lat="45.78781" lon="6.60072">
        <ele>1911</ele>
        <time>2022-07-24T09:22:15Z</time>
      </trkpt>
      <trkpt lat="45.78782" lon="6.60073">
        <ele>1912</ele>
        <time>2022-07-24T09:22:16Z</time>
      </trkpt>
      <trkpt lat="45.78783" lon="6.60073">
        <ele>1912</ele>
        <time>2022-07-24T09:22:17Z</time>
      </trkpt>
      <trkpt lat="45.78784" lon="6.60074">
        <ele>1912</ele>
        <time>2022-07-24T09:22:18Z</time>
      </trkpt>
      <trkpt lat="45.78785" lon="6.60075">
        <ele>1912</ele>
        <time>2022-07-24T09:22:19Z</time>
      </trkpt>
      <trkpt lat="45.78786" lon="6.60075">
        <ele>1912</ele>
        <time>2022-07-24T09:22:20Z</time>
      </trkpt>
      <trkpt lat="45.78787" lon="6.60076">
        <ele>1912</ele>
        <time>2022-07-24T09:22:21Z</time>
      </trkpt>
      <trkpt lat="45.78788" lon="6.60077">
        <ele>1912</ele>
        <time>2022-07-24T09:22:22Z</time>
      </trkpt>
      <trkpt lat="45.78789" lon="6.60077">
        <ele>1912</ele>
        <time>2022-07-24T09:22:23Z</time>
      </trkpt>
      <trkpt lat="45.7879" lon="6.60078">
        <ele>1912</ele>
        <time>2022-07-24T09:22:24Z</time>
      </trkpt>
      <trkpt lat="45.78791" lon="6.60079">
        <ele>1912</ele>
        <time>2022-07-24T09:22:25Z</time>
      </trkpt>
      <trkpt lat="45.78792" lon="6.6008">
        <ele>1912</ele>
        <time>2022-07-24T09:22:26Z</time>
      </trkpt>
      <trkpt lat="45.78793" lon="6.60081">
        <ele>1912</ele>
        <time>2022-07-24T09:22:27Z</time>
      </trkpt>
      <trkpt lat="45.78794" lon="6.60082">
        <ele>1912</ele>
        <time>2022-07-24T09:22:28Z</time>
      </trkpt>
      <trkpt lat="45.78795" lon="6.60082">
        <ele>1913</ele>
        <time>2022-07-24T09:22:29Z</time>
      </trkpt>
      <trkpt lat="45.78796" lon="6.60083">
        <ele>1913</ele>
        <time>2022-07-24T09:22:30Z</time>
      </trkpt>
      <trkpt lat="45.78797" lon="6.60084">
        <ele>1914</ele>
        <time>2022-07-24T09:22:31Z</time>
      </trkpt>
      <trkpt lat="45.78798" lon="6.60085">
        <ele>1914</ele>
        <time>2022-07-24T09:22:32Z</time>
      </trkpt>
      <trkpt lat="45.78798" lon="6.60085">
        <ele>1914</ele>
        <time>2022-07-24T09:22:33Z</time>
      </trkpt>
      <trkpt lat="45.78799" lon="6.60086">
        <ele>1914</ele>
        <time>2022-07-24T09:22:34Z</time>
      </trkpt>
      <trkpt lat="45.788" lon="6.60087">
        <ele>1914</ele>
        <time>2022-07-24T09:22:35Z</time>
      </trkpt>
      <trkpt lat="45.78801" lon="6.60088">
        <ele>1914</ele>
        <time>2022-07-24T09:22:36Z</time>
      </trkpt>
      <trkpt lat="45.78802" lon="6.60088">
        <ele>1914</ele>
        <time>2022-07-24T09:22:37Z</time>
      </trkpt>
      <trkpt lat="45.78803" lon="6.60089">
        <ele>1914</ele>
        <time>2022-07-24T09:22:38Z</time>
      </trkpt>
      <trkpt lat="45.78804" lon="6.60089">
        <ele>1914</ele>
        <time>2022-07-24T09:22:39Z</time>
      </trkpt>
      <trkpt lat="45.78805" lon="6.6009">
        <ele>1914</ele>
        <time>2022-07-24T09:22:40Z</time>
      </trkpt>
      <trkpt lat="45.78806" lon="6.60091">
        <ele>1914</ele>
        <time>2022-07-24T09:22:41Z</time>
      </trkpt>
      <trkpt lat="45.78807" lon="6.60092">
        <ele>1914</ele>
        <time>2022-07-24T09:22:42Z</time>
      </trkpt>
      <trkpt lat="45.78808" lon="6.60092">
        <ele>1914</ele>
        <time>2022-07-24T09:22:43Z</time>
      </trkpt>
      <trkpt lat="45.78809" lon="6.60093">
        <ele>1914</ele>
        <time>2022-07-24T09:22:44Z</time>
      </trkpt>
      <trkpt lat="45.7881" lon="6.60094">
        <ele>1914</ele>
        <time>2022-07-24T09:22:45Z</time>
      </trkpt>
      <trkpt lat="45.78811" lon="6.60095">
        <ele>1914</ele>
        <time>2022-07-24T09:22:46Z</time>
      </trkpt>
      <trkpt lat="45.78812" lon="6.60095">
        <ele>1914</ele>
        <time>2022-07-24T09:22:47Z</time>
      </trkpt>
      <trkpt lat="45.78813" lon="6.60096">
        <ele>1914</ele>
        <time>2022-07-24T09:22:48Z</time>
      </trkpt>
      <trkpt lat="45.78814" lon="6.60097">
        <ele>1914</ele>
        <time>2022-07-24T09:22:49Z</time>
      </trkpt>
      <trkpt lat="45.78816" lon="6.60097">
        <ele>1914</ele>
        <time>2022-07-24T09:22:50Z</time>
      </trkpt>
      <trkpt lat="45.78817" lon="6.60098">
        <ele>1914</ele>
        <time>2022-07-24T09:22:51Z</time>
      </trkpt>
      <trkpt lat="45.78818" lon="6.60099">
        <ele>1914</ele>
        <time>2022-07-24T09:22:52Z</time>
      </trkpt>
      <trkpt lat="45.78819" lon="6.60099">
        <ele>1914</ele>
        <time>2022-07-24T09:22:53Z</time>
      </trkpt>
      <trkpt lat="45.7882" lon="6.601">
        <ele>1914</ele>
        <time>2022-07-24T09:22:54Z</time>
      </trkpt>
      <trkpt lat="45.78821" lon="6.60101">
        <ele>1914</ele>
        <time>2022-07-24T09:22:55Z</time>
      </trkpt>
      <trkpt lat="45.78822" lon="6.60102">
        <ele>1914</ele>
        <time>2022-07-24T09:22:56Z</time>
      </trkpt>
      <trkpt lat="45.78823" lon="6.60102">
        <ele>1914</ele>
        <time>2022-07-24T09:22:57Z</time>
      </trkpt>
      <trkpt lat="45.78824" lon="6.60103">
        <ele>1914</ele>
        <time>2022-07-24T09:22:58Z</time>
      </trkpt>
      <trkpt lat="45.78825" lon="6.60104">
        <ele>1914</ele>
        <time>2022-07-24T09:22:59Z</time>
      </trkpt>
      <trkpt lat="45.78826" lon="6.60104">
        <ele>1914</ele>
        <time>2022-07-24T09:23:00Z</time>
      </trkpt>
      <trkpt lat="45.78827" lon="6.60105">
        <ele>1915</ele>
        <time>2022-07-24T09:23:01Z</time>
      </trkpt>
      <trkpt lat="45.78828" lon="6.60105">
        <ele>1915</ele>
        <time>2022-07-24T09:23:02Z</time>
      </trkpt>
      <trkpt lat="45.78829" lon="6.60106">
        <ele>1915</ele>
        <time>2022-07-24T09:23:03Z</time>
      </trkpt>
      <trkpt lat="45.7883" lon="6.60106">
        <ele>1915</ele>
        <time>2022-07-24T09:23:04Z</time>
      </trkpt>
      <trkpt lat="45.78831" lon="6.60107">
        <ele>1915</ele>
        <time>2022-07-24T09:23:05Z</time>
      </trkpt>
      <trkpt lat="45.78832" lon="6.60107">
        <ele>1915</ele>
        <time>2022-07-24T09:23:06Z</time>
      </trkpt>
      <trkpt lat="45.78833" lon="6.60108">
        <ele>1915</ele>
        <time>2022-07-24T09:23:07Z</time>
      </trkpt>
      <trkpt lat="45.78834" lon="6.60109">
        <ele>1915</ele>
        <time>2022-07-24T09:23:08Z</time>
      </trkpt>
      <trkpt lat="45.78836" lon="6.60109">
        <ele>1915</ele>
        <time>2022-07-24T09:23:09Z</time>
      </trkpt>
      <trkpt lat="45.78837" lon="6.6011">
        <ele>1915</ele>
        <time>2022-07-24T09:23:10Z</time>
      </trkpt>
      <trkpt lat="45.78838" lon="6.6011">
        <ele>1915</ele>
        <time>2022-07-24T09:23:11Z</time>
      </trkpt>
      <trkpt lat="45.78839" lon="6.60111">
        <ele>1915</ele>
        <time>2022-07-24T09:23:12Z</time>
      </trkpt>
      <trkpt lat="45.7884" lon="6.60111">
        <ele>1915</ele>
        <time>2022-07-24T09:23:13Z</time>
      </trkpt>
      <trkpt lat="45.78841" lon="6.60112">
        <ele>1915</ele>
        <time>2022-07-24T09:23:14Z</time>
      </trkpt>
      <trkpt lat="45.78842" lon="6.60112">
        <ele>1915</ele>
        <time>2022-07-24T09:23:15Z</time>
      </trkpt>
      <trkpt lat="45.78843" lon="6.60113">
        <ele>1915</ele>
        <time>2022-07-24T09:23:16Z</time>
      </trkpt>
      <trkpt lat="45.78843" lon="6.60113">
        <ele>1915</ele>
        <time>2022-07-24T09:23:17Z</time>
      </trkpt>
      <trkpt lat="45.78844" lon="6.60114">
        <ele>1915</ele>
        <time>2022-07-24T09:23:18Z</time>
      </trkpt>
      <trkpt lat="45.78845" lon="6.60114">
        <ele>1915</ele>
        <time>2022-07-24T09:23:19Z</time>
      </trkpt>
      <trkpt lat="45.78846" lon="6.60115">
        <ele>1915</ele>
        <time>2022-07-24T09:23:20Z</time>
      </trkpt>
      <trkpt lat="45.78846" lon="6.60115">
        <ele>1915</ele>
        <time>2022-07-24T09:23:21Z</time>
      </trkpt>
      <trkpt lat="45.78847" lon="6.60115">
        <ele>1915</ele>
        <time>2022-07-24T09:23:22Z</time>
      </trkpt>
      <trkpt lat="45.78847" lon="6.60116">
        <ele>1915</ele>
        <time>2022-07-24T09:23:23Z</time>
      </trkpt>
      <trkpt lat="45.78848" lon="6.60116">
        <ele>1915</ele>
        <time>2022-07-24T09:23:24Z</time>
      </trkpt>
      <trkpt lat="45.78848" lon="6.60116">
        <ele>1915</ele>
        <time>2022-07-24T09:23:25Z</time>
      </trkpt>
      <trkpt lat="45.78849" lon="6.60117">
        <ele>1915</ele>
        <time>2022-07-24T09:23:26Z</time>
      </trkpt>
      <trkpt lat="45.7885" lon="6.60117">
        <ele>1915</ele>
        <time>2022-07-24T09:23:27Z</time>
      </trkpt>
      <trkpt lat="45.78851" lon="6.60117">
        <ele>1915</ele>
        <time>2022-07-24T09:23:28Z</time>
      </trkpt>
      <trkpt lat="45.78852" lon="6.60118">
        <ele>1915</ele>
        <time>2022-07-24T09:23:29Z</time>
      </trkpt>
      <trkpt lat="45.78853" lon="6.60118">
        <ele>1915</ele>
        <time>2022-07-24T09:23:30Z</time>
      </trkpt>
      <trkpt lat="45.78854" lon="6.60119">
        <ele>1915</ele>
        <time>2022-07-24T09:23:31Z</time>
      </trkpt>
      <trkpt lat="45.78855" lon="6.60119">
        <ele>1915</ele>
        <time>2022-07-24T09:23:32Z</time>
      </trkpt>
      <trkpt lat="45.78857" lon="6.60119">
        <ele>1915</ele>
        <time>2022-07-24T09:23:33Z</time>
      </trkpt>
      <trkpt lat="45.78858" lon="6.6012">
        <ele>1915</ele>
        <time>2022-07-24T09:23:34Z</time>
      </trkpt>
      <trkpt lat="45.78859" lon="6.6012">
        <ele>1915</ele>
        <time>2022-07-24T09:23:35Z</time>
      </trkpt>
      <trkpt lat="45.7886" lon="6.6012">
        <ele>1915</ele>
        <time>2022-07-24T09:23:36Z</time>
      </trkpt>
      <trkpt lat="45.78861" lon="6.6012">
        <ele>1915</ele>
        <time>2022-07-24T09:23:37Z</time>
      </trkpt>
      <trkpt lat="45.78863" lon="6.60121">
        <ele>1915</ele>
        <time>2022-07-24T09:23:38Z</time>
      </trkpt>
      <trkpt lat="45.78864" lon="6.60121">
        <ele>1915</ele>
        <time>2022-07-24T09:23:39Z</time>
      </trkpt>
      <trkpt lat="45.78865" lon="6.60121">
        <ele>1915</ele>
        <time>2022-07-24T09:23:40Z</time>
      </trkpt>
      <trkpt lat="45.78866" lon="6.60121">
        <ele>1915</ele>
        <time>2022-07-24T09:23:41Z</time>
      </trkpt>
      <trkpt lat="45.78867" lon="6.60122">
        <ele>1914</ele>
        <time>2022-07-24T09:23:42Z</time>
      </trkpt>
      <trkpt lat="45.78868" lon="6.60122">
        <ele>1914</ele>
        <time>2022-07-24T09:23:43Z</time>
      </trkpt>
      <trkpt lat="45.78869" lon="6.60122">
        <ele>1914</ele>
        <time>2022-07-24T09:23:44Z</time>
      </trkpt>
      <trkpt lat="45.7887" lon="6.60123">
        <ele>1914</ele>
        <time>2022-07-24T09:23:45Z</time>
      </trkpt>
      <trkpt lat="45.78871" lon="6.60123">
        <ele>1914</ele>
        <time>2022-07-24T09:23:46Z</time>
      </trkpt>
      <trkpt lat="45.78873" lon="6.60124">
        <ele>1914</ele>
        <time>2022-07-24T09:23:47Z</time>
      </trkpt>
      <trkpt lat="45.78874" lon="6.60124">
        <ele>1914</ele>
        <time>2022-07-24T09:23:48Z</time>
      </trkpt>
      <trkpt lat="45.78875" lon="6.60125">
        <ele>1914</ele>
        <time>2022-07-24T09:23:49Z</time>
      </trkpt>
      <trkpt lat="45.78876" lon="6.60125">
        <ele>1914</ele>
        <time>2022-07-24T09:23:50Z</time>
      </trkpt>
      <trkpt lat="45.78877" lon="6.60126">
        <ele>1915</ele>
        <time>2022-07-24T09:23:51Z</time>
      </trkpt>
      <trkpt lat="45.78878" lon="6.60126">
        <ele>1915</ele>
        <time>2022-07-24T09:23:52Z</time>
      </trkpt>
      <trkpt lat="45.78879" lon="6.60127">
        <ele>1915</ele>
        <time>2022-07-24T09:23:53Z</time>
      </trkpt>
      <trkpt lat="45.7888" lon="6.60128">
        <ele>1915</ele>
        <time>2022-07-24T09:23:54Z</time>
      </trkpt>
      <trkpt lat="45.78881" lon="6.60129">
        <ele>1915</ele>
        <time>2022-07-24T09:23:55Z</time>
      </trkpt>
      <trkpt lat="45.78882" lon="6.60129">
        <ele>1915</ele>
        <time>2022-07-24T09:23:56Z</time>
      </trkpt>
      <trkpt lat="45.78883" lon="6.6013">
        <ele>1915</ele>
        <time>2022-07-24T09:23:57Z</time>
      </trkpt>
      <trkpt lat="45.78884" lon="6.60131">
        <ele>1915</ele>
        <time>2022-07-24T09:23:58Z</time>
      </trkpt>
      <trkpt lat="45.78885" lon="6.60132">
        <ele>1915</ele>
        <time>2022-07-24T09:23:59Z</time>
      </trkpt>
      <trkpt lat="45.78886" lon="6.60133">
        <ele>1915</ele>
        <time>2022-07-24T09:24:00Z</time>
      </trkpt>
      <trkpt lat="45.78887" lon="6.60133">
        <ele>1915</ele>
        <time>2022-07-24T09:24:01Z</time>
      </trkpt>
      <trkpt lat="45.78887" lon="6.60134">
        <ele>1915</ele>
        <time>2022-07-24T09:24:02Z</time>
      </trkpt>
      <trkpt lat="45.78888" lon="6.60135">
        <ele>1915</ele>
        <time>2022-07-24T09:24:03Z</time>
      </trkpt>
      <trkpt lat="45.78889" lon="6.60136">
        <ele>1915</ele>
        <time>2022-07-24T09:24:04Z</time>
      </trkpt>
      <trkpt lat="45.7889" lon="6.60137">
        <ele>1915</ele>
        <time>2022-07-24T09:24:05Z</time>
      </trkpt>
      <trkpt lat="45.7889" lon="6.60138">
        <ele>1915</ele>
        <time>2022-07-24T09:24:06Z</time>
      </trkpt>
      <trkpt lat="45.78891" lon="6.6014">
        <ele>1915</ele>
        <time>2022-07-24T09:24:07Z</time>
      </trkpt>
      <trkpt lat="45.78892" lon="6.60141">
        <ele>1915</ele>
        <time>2022-07-24T09:24:08Z</time>
      </trkpt>
      <trkpt lat="45.78892" lon="6.60142">
        <ele>1915</ele>
        <time>2022-07-24T09:24:09Z</time>
      </trkpt>
      <trkpt lat="45.78893" lon="6.60143">
        <ele>1915</ele>
        <time>2022-07-24T09:24:10Z</time>
      </trkpt>
      <trkpt lat="45.78894" lon="6.60144">
        <ele>1915</ele>
        <time>2022-07-24T09:24:11Z</time>
      </trkpt>
      <trkpt lat="45.78894" lon="6.60146">
        <ele>1915</ele>
        <time>2022-07-24T09:24:12Z</time>
      </trkpt>
      <trkpt lat="45.78895" lon="6.60147">
        <ele>1915</ele>
        <time>2022-07-24T09:24:13Z</time>
      </trkpt>
      <trkpt lat="45.78895" lon="6.60148">
        <ele>1915</ele>
        <time>2022-07-24T09:24:14Z</time>
      </trkpt>
      <trkpt lat="45.78896" lon="6.6015">
        <ele>1915</ele>
        <time>2022-07-24T09:24:15Z</time>
      </trkpt>
      <trkpt lat="45.78896" lon="6.60151">
        <ele>1915</ele>
        <time>2022-07-24T09:24:16Z</time>
      </trkpt>
      <trkpt lat="45.78897" lon="6.60152">
        <ele>1915</ele>
        <time>2022-07-24T09:24:17Z</time>
      </trkpt>
      <trkpt lat="45.78897" lon="6.60154">
        <ele>1915</ele>
        <time>2022-07-24T09:24:18Z</time>
      </trkpt>
      <trkpt lat="45.78898" lon="6.60155">
        <ele>1915</ele>
        <time>2022-07-24T09:24:19Z</time>
      </trkpt>
      <trkpt lat="45.78898" lon="6.60157">
        <ele>1915</ele>
        <time>2022-07-24T09:24:20Z</time>
      </trkpt>
      <trkpt lat="45.78899" lon="6.60158">
        <ele>1915</ele>
        <time>2022-07-24T09:24:21Z</time>
      </trkpt>
      <trkpt lat="45.789" lon="6.6016">
        <ele>1914</ele>
        <time>2022-07-24T09:24:22Z</time>
      </trkpt>
      <trkpt lat="45.789" lon="6.60161">
        <ele>1914</ele>
        <time>2022-07-24T09:24:23Z</time>
      </trkpt>
      <trkpt lat="45.78901" lon="6.60163">
        <ele>1914</ele>
        <time>2022-07-24T09:24:24Z</time>
      </trkpt>
      <trkpt lat="45.78901" lon="6.60164">
        <ele>1914</ele>
        <time>2022-07-24T09:24:25Z</time>
      </trkpt>
      <trkpt lat="45.78902" lon="6.60166">
        <ele>1914</ele>
        <time>2022-07-24T09:24:26Z</time>
      </trkpt>
      <trkpt lat="45.78902" lon="6.60167">
        <ele>1914</ele>
        <time>2022-07-24T09:24:27Z</time>
      </trkpt>
      <trkpt lat="45.78903" lon="6.60169">
        <ele>1914</ele>
        <time>2022-07-24T09:24:28Z</time>
      </trkpt>
      <trkpt lat="45.78903" lon="6.6017">
        <ele>1914</ele>
        <time>2022-07-24T09:24:29Z</time>
      </trkpt>
      <trkpt lat="45.78904" lon="6.60172">
        <ele>1914</ele>
        <time>2022-07-24T09:24:30Z</time>
      </trkpt>
      <trkpt lat="45.78905" lon="6.60173">
        <ele>1914</ele>
        <time>2022-07-24T09:24:31Z</time>
      </trkpt>
      <trkpt lat="45.78905" lon="6.60174">
        <ele>1914</ele>
        <time>2022-07-24T09:24:32Z</time>
      </trkpt>
      <trkpt lat="45.78906" lon="6.60176">
        <ele>1914</ele>
        <time>2022-07-24T09:24:33Z</time>
      </trkpt>
      <trkpt lat="45.78906" lon="6.60177">
        <ele>1914</ele>
        <time>2022-07-24T09:24:34Z</time>
      </trkpt>
      <trkpt lat="45.78907" lon="6.60179">
        <ele>1914</ele>
        <time>2022-07-24T09:24:35Z</time>
      </trkpt>
      <trkpt lat="45.78908" lon="6.6018">
        <ele>1914</ele>
        <time>2022-07-24T09:24:36Z</time>
      </trkpt>
      <trkpt lat="45.78908" lon="6.60181">
        <ele>1914</ele>
        <time>2022-07-24T09:24:37Z</time>
      </trkpt>
      <trkpt lat="45.78909" lon="6.60182">
        <ele>1914</ele>
        <time>2022-07-24T09:24:38Z</time>
      </trkpt>
      <trkpt lat="45.7891" lon="6.60184">
        <ele>1914</ele>
        <time>2022-07-24T09:24:39Z</time>
      </trkpt>
      <trkpt lat="45.78911" lon="6.60185">
        <ele>1914</ele>
        <time>2022-07-24T09:24:40Z</time>
      </trkpt>
      <trkpt lat="45.78911" lon="6.60186">
        <ele>1914</ele>
        <time>2022-07-24T09:24:41Z</time>
      </trkpt>
      <trkpt lat="45.78912" lon="6.60187">
        <ele>1914</ele>
        <time>2022-07-24T09:24:42Z</time>
      </trkpt>
      <trkpt lat="45.78913" lon="6.60188">
        <ele>1914</ele>
        <time>2022-07-24T09:24:43Z</time>
      </trkpt>
      <trkpt lat="45.78914" lon="6.60189">
        <ele>1914</ele>
        <time>2022-07-24T09:24:44Z</time>
      </trkpt>
      <trkpt lat="45.78915" lon="6.60191">
        <ele>1914</ele>
        <time>2022-07-24T09:24:45Z</time>
      </trkpt>
      <trkpt lat="45.78916" lon="6.60192">
        <ele>1914</ele>
        <time>2022-07-24T09:24:46Z</time>
      </trkpt>
      <trkpt lat="45.78917" lon="6.60193">
        <ele>1914</ele>
        <time>2022-07-24T09:24:47Z</time>
      </trkpt>
      <trkpt lat="45.78918" lon="6.60194">
        <ele>1914</ele>
        <time>2022-07-24T09:24:48Z</time>
      </trkpt>
      <trkpt lat="45.78918" lon="6.60195">
        <ele>1914</ele>
        <time>2022-07-24T09:24:49Z</time>
      </trkpt>
      <trkpt lat="45.78919" lon="6.60196">
        <ele>1914</ele>
        <time>2022-07-24T09:24:50Z</time>
      </trkpt>
      <trkpt lat="45.7892" lon="6.60197">
        <ele>1914</ele>
        <time>2022-07-24T09:24:51Z</time>
      </trkpt>
      <trkpt lat="45.78921" lon="6.60198">
        <ele>1914</ele>
        <time>2022-07-24T09:24:52Z</time>
      </trkpt>
      <trkpt lat="45.78922" lon="6.60199">
        <ele>1914</ele>
        <time>2022-07-24T09:24:53Z</time>
      </trkpt>
      <trkpt lat="45.78923" lon="6.60199">
        <ele>1914</ele>
        <time>2022-07-24T09:24:54Z</time>
      </trkpt>
      <trkpt lat="45.78924" lon="6.602">
        <ele>1914</ele>
        <time>2022-07-24T09:24:55Z</time>
      </trkpt>
      <trkpt lat="45.78925" lon="6.60201">
        <ele>1914</ele>
        <time>2022-07-24T09:24:56Z</time>
      </trkpt>
      <trkpt lat="45.78926" lon="6.60201">
        <ele>1914</ele>
        <time>2022-07-24T09:24:57Z</time>
      </trkpt>
      <trkpt lat="45.78927" lon="6.60202">
        <ele>1914</ele>
        <time>2022-07-24T09:24:58Z</time>
      </trkpt>
      <trkpt lat="45.78928" lon="6.60203">
        <ele>1914</ele>
        <time>2022-07-24T09:24:59Z</time>
      </trkpt>
      <trkpt lat="45.78929" lon="6.60204">
        <ele>1914</ele>
        <time>2022-07-24T09:25:00Z</time>
      </trkpt>
      <trkpt lat="45.7893" lon="6.60205">
        <ele>1914</ele>
        <time>2022-07-24T09:25:01Z</time>
      </trkpt>
      <trkpt lat="45.78931" lon="6.60205">
        <ele>1914</ele>
        <time>2022-07-24T09:25:02Z</time>
      </trkpt>
      <trkpt lat="45.78932" lon="6.60206">
        <ele>1914</ele>
        <time>2022-07-24T09:25:03Z</time>
      </trkpt>
      <trkpt lat="45.78933" lon="6.60207">
        <ele>1914</ele>
        <time>2022-07-24T09:25:04Z</time>
      </trkpt>
      <trkpt lat="45.78934" lon="6.60208">
        <ele>1914</ele>
        <time>2022-07-24T09:25:05Z</time>
      </trkpt>
      <trkpt lat="45.78935" lon="6.60208">
        <ele>1914</ele>
        <time>2022-07-24T09:25:06Z</time>
      </trkpt>
      <trkpt lat="45.78936" lon="6.60209">
        <ele>1914</ele>
        <time>2022-07-24T09:25:07Z</time>
      </trkpt>
      <trkpt lat="45.78937" lon="6.6021">
        <ele>1914</ele>
        <time>2022-07-24T09:25:08Z</time>
      </trkpt>
      <trkpt lat="45.78939" lon="6.60211">
        <ele>1914</ele>
        <time>2022-07-24T09:25:09Z</time>
      </trkpt>
      <trkpt lat="45.7894" lon="6.60211">
        <ele>1914</ele>
        <time>2022-07-24T09:25:10Z</time>
      </trkpt>
      <trkpt lat="45.78941" lon="6.60212">
        <ele>1914</ele>
        <time>2022-07-24T09:25:11Z</time>
      </trkpt>
      <trkpt lat="45.78942" lon="6.60213">
        <ele>1914</ele>
        <time>2022-07-24T09:25:12Z</time>
      </trkpt>
      <trkpt lat="45.78943" lon="6.60214">
        <ele>1914</ele>
        <time>2022-07-24T09:25:13Z</time>
      </trkpt>
      <trkpt lat="45.78944" lon="6.60214">
        <ele>1914</ele>
        <time>2022-07-24T09:25:14Z</time>
      </trkpt>
      <trkpt lat="45.78945" lon="6.60215">
        <ele>1914</ele>
        <time>2022-07-24T09:25:15Z</time>
      </trkpt>
      <trkpt lat="45.78946" lon="6.60216">
        <ele>1914</ele>
        <time>2022-07-24T09:25:16Z</time>
      </trkpt>
      <trkpt lat="45.78947" lon="6.60216">
        <ele>1914</ele>
        <time>2022-07-24T09:25:17Z</time>
      </trkpt>
      <trkpt lat="45.78948" lon="6.60217">
        <ele>1914</ele>
        <time>2022-07-24T09:25:18Z</time>
      </trkpt>
      <trkpt lat="45.78949" lon="6.60218">
        <ele>1914</ele>
        <time>2022-07-24T09:25:19Z</time>
      </trkpt>
      <trkpt lat="45.7895" lon="6.60218">
        <ele>1914</ele>
        <time>2022-07-24T09:25:20Z</time>
      </trkpt>
      <trkpt lat="45.78951" lon="6.60219">
        <ele>1914</ele>
        <time>2022-07-24T09:25:21Z</time>
      </trkpt>
      <trkpt lat="45.78952" lon="6.6022">
        <ele>1914</ele>
        <time>2022-07-24T09:25:22Z</time>
      </trkpt>
      <trkpt lat="45.78953" lon="6.6022">
        <ele>1914</ele>
        <time>2022-07-24T09:25:23Z</time>
      </trkpt>
      <trkpt lat="45.78954" lon="6.60221">
        <ele>1914</ele>
        <time>2022-07-24T09:25:24Z</time>
      </trkpt>
      <trkpt lat="45.78955" lon="6.60222">
        <ele>1914</ele>
        <time>2022-07-24T09:25:25Z</time>
      </trkpt>
      <trkpt lat="45.78956" lon="6.60223">
        <ele>1914</ele>
        <time>2022-07-24T09:25:26Z</time>
      </trkpt>
      <trkpt lat="45.78957" lon="6.60223">
        <ele>1914</ele>
        <time>2022-07-24T09:25:27Z</time>
      </trkpt>
      <trkpt lat="45.78958" lon="6.60224">
        <ele>1914</ele>
        <time>2022-07-24T09:25:28Z</time>
      </trkpt>
      <trkpt lat="45.78959" lon="6.60224">
        <ele>1914</ele>
        <time>2022-07-24T09:25:29Z</time>
      </trkpt>
      <trkpt lat="45.7896" lon="6.60225">
        <ele>1914</ele>
        <time>2022-07-24T09:25:30Z</time>
      </trkpt>
      <trkpt lat="45.78961" lon="6.60226">
        <ele>1914</ele>
        <time>2022-07-24T09:25:31Z</time>
      </trkpt>
      <trkpt lat="45.78962" lon="6.60226">
        <ele>1914</ele>
        <time>2022-07-24T09:25:32Z</time>
      </trkpt>
      <trkpt lat="45.78963" lon="6.60227">
        <ele>1914</ele>
        <time>2022-07-24T09:25:33Z</time>
      </trkpt>
      <trkpt lat="45.78964" lon="6.60227">
        <ele>1914</ele>
        <time>2022-07-24T09:25:34Z</time>
      </trkpt>
      <trkpt lat="45.78965" lon="6.60228">
        <ele>1914</ele>
        <time>2022-07-24T09:25:35Z</time>
      </trkpt>
      <trkpt lat="45.78966" lon="6.60229">
        <ele>1914</ele>
        <time>2022-07-24T09:25:36Z</time>
      </trkpt>
      <trkpt lat="45.78967" lon="6.6023">
        <ele>1914</ele>
        <time>2022-07-24T09:25:37Z</time>
      </trkpt>
      <trkpt lat="45.78968" lon="6.6023">
        <ele>1914</ele>
        <time>2022-07-24T09:25:38Z</time>
      </trkpt>
      <trkpt lat="45.78969" lon="6.60231">
        <ele>1914</ele>
        <time>2022-07-24T09:25:39Z</time>
      </trkpt>
      <trkpt lat="45.7897" lon="6.60232">
        <ele>1914</ele>
        <time>2022-07-24T09:25:40Z</time>
      </trkpt>
      <trkpt lat="45.78971" lon="6.60233">
        <ele>1914</ele>
        <time>2022-07-24T09:25:41Z</time>
      </trkpt>
      <trkpt lat="45.78972" lon="6.60234">
        <ele>1914</ele>
        <time>2022-07-24T09:25:42Z</time>
      </trkpt>
      <trkpt lat="45.78973" lon="6.60234">
        <ele>1914</ele>
        <time>2022-07-24T09:25:43Z</time>
      </trkpt>
      <trkpt lat="45.78974" lon="6.60235">
        <ele>1914</ele>
        <time>2022-07-24T09:25:44Z</time>
      </trkpt>
      <trkpt lat="45.78975" lon="6.60236">
        <ele>1914</ele>
        <time>2022-07-24T09:25:45Z</time>
      </trkpt>
      <trkpt lat="45.78976" lon="6.60237">
        <ele>1914</ele>
        <time>2022-07-24T09:25:46Z</time>
      </trkpt>
      <trkpt lat="45.78977" lon="6.60238">
        <ele>1914</ele>
        <time>2022-07-24T09:25:47Z</time>
      </trkpt>
      <trkpt lat="45.78978" lon="6.60239">
        <ele>1914</ele>
        <time>2022-07-24T09:25:48Z</time>
      </trkpt>
      <trkpt lat="45.78979" lon="6.6024">
        <ele>1914</ele>
        <time>2022-07-24T09:25:49Z</time>
      </trkpt>
      <trkpt lat="45.7898" lon="6.60241">
        <ele>1914</ele>
        <time>2022-07-24T09:25:50Z</time>
      </trkpt>
      <trkpt lat="45.78981" lon="6.60242">
        <ele>1914</ele>
        <time>2022-07-24T09:25:51Z</time>
      </trkpt>
      <trkpt lat="45.78982" lon="6.60243">
        <ele>1914</ele>
        <time>2022-07-24T09:25:52Z</time>
      </trkpt>
      <trkpt lat="45.78983" lon="6.60244">
        <ele>1914</ele>
        <time>2022-07-24T09:25:53Z</time>
      </trkpt>
      <trkpt lat="45.78984" lon="6.60245">
        <ele>1914</ele>
        <time>2022-07-24T09:25:54Z</time>
      </trkpt>
      <trkpt lat="45.78985" lon="6.60246">
        <ele>1914</ele>
        <time>2022-07-24T09:25:55Z</time>
      </trkpt>
      <trkpt lat="45.78986" lon="6.60247">
        <ele>1914</ele>
        <time>2022-07-24T09:25:56Z</time>
      </trkpt>
      <trkpt lat="45.78987" lon="6.60248">
        <ele>1914</ele>
        <time>2022-07-24T09:25:57Z</time>
      </trkpt>
      <trkpt lat="45.78987" lon="6.60249">
        <ele>1914</ele>
        <time>2022-07-24T09:25:58Z</time>
      </trkpt>
      <trkpt lat="45.78988" lon="6.6025">
        <ele>1914</ele>
        <time>2022-07-24T09:25:59Z</time>
      </trkpt>
      <trkpt lat="45.78989" lon="6.60252">
        <ele>1914</ele>
        <time>2022-07-24T09:26:00Z</time>
      </trkpt>
      <trkpt lat="45.7899" lon="6.60253">
        <ele>1914</ele>
        <time>2022-07-24T09:26:01Z</time>
      </trkpt>
      <trkpt lat="45.7899" lon="6.60254">
        <ele>1914</ele>
        <time>2022-07-24T09:26:02Z</time>
      </trkpt>
      <trkpt lat="45.78991" lon="6.60255">
        <ele>1914</ele>
        <time>2022-07-24T09:26:03Z</time>
      </trkpt>
      <trkpt lat="45.78992" lon="6.60256">
        <ele>1914</ele>
        <time>2022-07-24T09:26:04Z</time>
      </trkpt>
      <trkpt lat="45.78993" lon="6.60257">
        <ele>1914</ele>
        <time>2022-07-24T09:26:05Z</time>
      </trkpt>
      <trkpt lat="45.78994" lon="6.60258">
        <ele>1914</ele>
        <time>2022-07-24T09:26:06Z</time>
      </trkpt>
      <trkpt lat="45.78994" lon="6.60259">
        <ele>1914</ele>
        <time>2022-07-24T09:26:07Z</time>
      </trkpt>
      <trkpt lat="45.78995" lon="6.6026">
        <ele>1914</ele>
        <time>2022-07-24T09:26:08Z</time>
      </trkpt>
      <trkpt lat="45.78996" lon="6.60261">
        <ele>1914</ele>
        <time>2022-07-24T09:26:09Z</time>
      </trkpt>
      <trkpt lat="45.78997" lon="6.60262">
        <ele>1914</ele>
        <time>2022-07-24T09:26:10Z</time>
      </trkpt>
      <trkpt lat="45.78997" lon="6.60263">
        <ele>1915</ele>
        <time>2022-07-24T09:26:11Z</time>
      </trkpt>
      <trkpt lat="45.78998" lon="6.60264">
        <ele>1915</ele>
        <time>2022-07-24T09:26:12Z</time>
      </trkpt>
      <trkpt lat="45.78999" lon="6.60265">
        <ele>1915</ele>
        <time>2022-07-24T09:26:13Z</time>
      </trkpt>
      <trkpt lat="45.79" lon="6.60266">
        <ele>1915</ele>
        <time>2022-07-24T09:26:14Z</time>
      </trkpt>
      <trkpt lat="45.79" lon="6.60267">
        <ele>1915</ele>
        <time>2022-07-24T09:26:15Z</time>
      </trkpt>
      <trkpt lat="45.79001" lon="6.60268">
        <ele>1915</ele>
        <time>2022-07-24T09:26:16Z</time>
      </trkpt>
      <trkpt lat="45.79002" lon="6.60269">
        <ele>1915</ele>
        <time>2022-07-24T09:26:17Z</time>
      </trkpt>
      <trkpt lat="45.79003" lon="6.6027">
        <ele>1915</ele>
        <time>2022-07-24T09:26:18Z</time>
      </trkpt>
      <trkpt lat="45.79004" lon="6.60271">
        <ele>1915</ele>
        <time>2022-07-24T09:26:19Z</time>
      </trkpt>
      <trkpt lat="45.79005" lon="6.60272">
        <ele>1915</ele>
        <time>2022-07-24T09:26:20Z</time>
      </trkpt>
      <trkpt lat="45.79005" lon="6.60273">
        <ele>1915</ele>
        <time>2022-07-24T09:26:21Z</time>
      </trkpt>
      <trkpt lat="45.79006" lon="6.60274">
        <ele>1915</ele>
        <time>2022-07-24T09:26:22Z</time>
      </trkpt>
      <trkpt lat="45.79007" lon="6.60275">
        <ele>1915</ele>
        <time>2022-07-24T09:26:23Z</time>
      </trkpt>
      <trkpt lat="45.79008" lon="6.60276">
        <ele>1915</ele>
        <time>2022-07-24T09:26:24Z</time>
      </trkpt>
      <trkpt lat="45.79009" lon="6.60278">
        <ele>1915</ele>
        <time>2022-07-24T09:26:25Z</time>
      </trkpt>
      <trkpt lat="45.7901" lon="6.60279">
        <ele>1915</ele>
        <time>2022-07-24T09:26:26Z</time>
      </trkpt>
      <trkpt lat="45.79011" lon="6.6028">
        <ele>1915</ele>
        <time>2022-07-24T09:26:27Z</time>
      </trkpt>
      <trkpt lat="45.79012" lon="6.60281">
        <ele>1915</ele>
        <time>2022-07-24T09:26:28Z</time>
      </trkpt>
      <trkpt lat="45.79013" lon="6.60282">
        <ele>1915</ele>
        <time>2022-07-24T09:26:29Z</time>
      </trkpt>
      <trkpt lat="45.79014" lon="6.60283">
        <ele>1915</ele>
        <time>2022-07-24T09:26:30Z</time>
      </trkpt>
      <trkpt lat="45.79014" lon="6.60285">
        <ele>1916</ele>
        <time>2022-07-24T09:26:31Z</time>
      </trkpt>
      <trkpt lat="45.79015" lon="6.60286">
        <ele>1916</ele>
        <time>2022-07-24T09:26:32Z</time>
      </trkpt>
      <trkpt lat="45.79016" lon="6.60287">
        <ele>1916</ele>
        <time>2022-07-24T09:26:33Z</time>
      </trkpt>
      <trkpt lat="45.79017" lon="6.60288">
        <ele>1916</ele>
        <time>2022-07-24T09:26:34Z</time>
      </trkpt>
      <trkpt lat="45.79018" lon="6.60289">
        <ele>1916</ele>
        <time>2022-07-24T09:26:35Z</time>
      </trkpt>
      <trkpt lat="45.79019" lon="6.6029">
        <ele>1916</ele>
        <time>2022-07-24T09:26:36Z</time>
      </trkpt>
      <trkpt lat="45.7902" lon="6.60291">
        <ele>1916</ele>
        <time>2022-07-24T09:26:37Z</time>
      </trkpt>
      <trkpt lat="45.79021" lon="6.60292">
        <ele>1916</ele>
        <time>2022-07-24T09:26:38Z</time>
      </trkpt>
      <trkpt lat="45.79022" lon="6.60293">
        <ele>1916</ele>
        <time>2022-07-24T09:26:39Z</time>
      </trkpt>
      <trkpt lat="45.79023" lon="6.60294">
        <ele>1916</ele>
        <time>2022-07-24T09:26:40Z</time>
      </trkpt>
      <trkpt lat="45.79024" lon="6.60295">
        <ele>1916</ele>
        <time>2022-07-24T09:26:41Z</time>
      </trkpt>
      <trkpt lat="45.79025" lon="6.60296">
        <ele>1916</ele>
        <time>2022-07-24T09:26:42Z</time>
      </trkpt>
      <trkpt lat="45.79025" lon="6.60297">
        <ele>1916</ele>
        <time>2022-07-24T09:26:43Z</time>
      </trkpt>
      <trkpt lat="45.79026" lon="6.60298">
        <ele>1916</ele>
        <time>2022-07-24T09:26:44Z</time>
      </trkpt>
      <trkpt lat="45.79027" lon="6.60299">
        <ele>1916</ele>
        <time>2022-07-24T09:26:45Z</time>
      </trkpt>
      <trkpt lat="45.79028" lon="6.603">
        <ele>1916</ele>
        <time>2022-07-24T09:26:46Z</time>
      </trkpt>
      <trkpt lat="45.79029" lon="6.60301">
        <ele>1916</ele>
        <time>2022-07-24T09:26:47Z</time>
      </trkpt>
      <trkpt lat="45.7903" lon="6.60302">
        <ele>1916</ele>
        <time>2022-07-24T09:26:48Z</time>
      </trkpt>
      <trkpt lat="45.79031" lon="6.60303">
        <ele>1916</ele>
        <time>2022-07-24T09:26:49Z</time>
      </trkpt>
      <trkpt lat="45.79032" lon="6.60304">
        <ele>1916</ele>
        <time>2022-07-24T09:26:50Z</time>
      </trkpt>
      <trkpt lat="45.79032" lon="6.60305">
        <ele>1917</ele>
        <time>2022-07-24T09:26:51Z</time>
      </trkpt>
      <trkpt lat="45.79033" lon="6.60306">
        <ele>1917</ele>
        <time>2022-07-24T09:26:52Z</time>
      </trkpt>
      <trkpt lat="45.79034" lon="6.60307">
        <ele>1917</ele>
        <time>2022-07-24T09:26:53Z</time>
      </trkpt>
      <trkpt lat="45.79035" lon="6.60308">
        <ele>1917</ele>
        <time>2022-07-24T09:26:54Z</time>
      </trkpt>
      <trkpt lat="45.79036" lon="6.60309">
        <ele>1917</ele>
        <time>2022-07-24T09:26:55Z</time>
      </trkpt>
      <trkpt lat="45.79037" lon="6.6031">
        <ele>1917</ele>
        <time>2022-07-24T09:26:56Z</time>
      </trkpt>
      <trkpt lat="45.79037" lon="6.60311">
        <ele>1917</ele>
        <time>2022-07-24T09:26:57Z</time>
      </trkpt>
      <trkpt lat="45.79038" lon="6.60312">
        <ele>1917</ele>
        <time>2022-07-24T09:26:58Z</time>
      </trkpt>
      <trkpt lat="45.79039" lon="6.60313">
        <ele>1917</ele>
        <time>2022-07-24T09:26:59Z</time>
      </trkpt>
      <trkpt lat="45.7904" lon="6.60314">
        <ele>1917</ele>
        <time>2022-07-24T09:27:00Z</time>
      </trkpt>
      <trkpt lat="45.79041" lon="6.60315">
        <ele>1917</ele>
        <time>2022-07-24T09:27:01Z</time>
      </trkpt>
      <trkpt lat="45.79042" lon="6.60317">
        <ele>1917</ele>
        <time>2022-07-24T09:27:02Z</time>
      </trkpt>
      <trkpt lat="45.79043" lon="6.60318">
        <ele>1917</ele>
        <time>2022-07-24T09:27:03Z</time>
      </trkpt>
      <trkpt lat="45.79044" lon="6.60319">
        <ele>1917</ele>
        <time>2022-07-24T09:27:04Z</time>
      </trkpt>
      <trkpt lat="45.79044" lon="6.6032">
        <ele>1917</ele>
        <time>2022-07-24T09:27:05Z</time>
      </trkpt>
      <trkpt lat="45.79045" lon="6.60321">
        <ele>1917</ele>
        <time>2022-07-24T09:27:06Z</time>
      </trkpt>
      <trkpt lat="45.79046" lon="6.60322">
        <ele>1917</ele>
        <time>2022-07-24T09:27:07Z</time>
      </trkpt>
      <trkpt lat="45.79047" lon="6.60323">
        <ele>1917</ele>
        <time>2022-07-24T09:27:08Z</time>
      </trkpt>
      <trkpt lat="45.79048" lon="6.60325">
        <ele>1917</ele>
        <time>2022-07-24T09:27:09Z</time>
      </trkpt>
      <trkpt lat="45.79048" lon="6.60326">
        <ele>1917</ele>
        <time>2022-07-24T09:27:10Z</time>
      </trkpt>
      <trkpt lat="45.79049" lon="6.60327">
        <ele>1917</ele>
        <time>2022-07-24T09:27:11Z</time>
      </trkpt>
      <trkpt lat="45.7905" lon="6.60328">
        <ele>1917</ele>
        <time>2022-07-24T09:27:12Z</time>
      </trkpt>
      <trkpt lat="45.79051" lon="6.60329">
        <ele>1917</ele>
        <time>2022-07-24T09:27:13Z</time>
      </trkpt>
      <trkpt lat="45.79052" lon="6.6033">
        <ele>1917</ele>
        <time>2022-07-24T09:27:14Z</time>
      </trkpt>
      <trkpt lat="45.79052" lon="6.60331">
        <ele>1917</ele>
        <time>2022-07-24T09:27:15Z</time>
      </trkpt>
      <trkpt lat="45.79053" lon="6.60332">
        <ele>1918</ele>
        <time>2022-07-24T09:27:16Z</time>
      </trkpt>
      <trkpt lat="45.79054" lon="6.60334">
        <ele>1918</ele>
        <time>2022-07-24T09:27:17Z</time>
      </trkpt>
      <trkpt lat="45.79055" lon="6.60335">
        <ele>1918</ele>
        <time>2022-07-24T09:27:18Z</time>
      </trkpt>
      <trkpt lat="45.79055" lon="6.60336">
        <ele>1918</ele>
        <time>2022-07-24T09:27:19Z</time>
      </trkpt>
      <trkpt lat="45.79056" lon="6.60337">
        <ele>1918</ele>
        <time>2022-07-24T09:27:20Z</time>
      </trkpt>
      <trkpt lat="45.79057" lon="6.60339">
        <ele>1918</ele>
        <time>2022-07-24T09:27:21Z</time>
      </trkpt>
      <trkpt lat="45.79057" lon="6.6034">
        <ele>1918</ele>
        <time>2022-07-24T09:27:22Z</time>
      </trkpt>
      <trkpt lat="45.79058" lon="6.60341">
        <ele>1918</ele>
        <time>2022-07-24T09:27:23Z</time>
      </trkpt>
      <trkpt lat="45.79059" lon="6.60343">
        <ele>1918</ele>
        <time>2022-07-24T09:27:24Z</time>
      </trkpt>
      <trkpt lat="45.79059" lon="6.60344">
        <ele>1918</ele>
        <time>2022-07-24T09:27:25Z</time>
      </trkpt>
      <trkpt lat="45.7906" lon="6.60345">
        <ele>1918</ele>
        <time>2022-07-24T09:27:26Z</time>
      </trkpt>
      <trkpt lat="45.79061" lon="6.60347">
        <ele>1918</ele>
        <time>2022-07-24T09:27:27Z</time>
      </trkpt>
      <trkpt lat="45.79061" lon="6.60348">
        <ele>1918</ele>
        <time>2022-07-24T09:27:28Z</time>
      </trkpt>
      <trkpt lat="45.79062" lon="6.60349">
        <ele>1918</ele>
        <time>2022-07-24T09:27:29Z</time>
      </trkpt>
      <trkpt lat="45.79062" lon="6.6035">
        <ele>1918</ele>
        <time>2022-07-24T09:27:30Z</time>
      </trkpt>
      <trkpt lat="45.79062" lon="6.60351">
        <ele>1918</ele>
        <time>2022-07-24T09:27:31Z</time>
      </trkpt>
      <trkpt lat="45.79063" lon="6.60352">
        <ele>1918</ele>
        <time>2022-07-24T09:27:32Z</time>
      </trkpt>
      <trkpt lat="45.79063" lon="6.60352">
        <ele>1918</ele>
        <time>2022-07-24T09:27:33Z</time>
      </trkpt>
      <trkpt lat="45.79063" lon="6.60354">
        <ele>1918</ele>
        <time>2022-07-24T09:27:34Z</time>
      </trkpt>
      <trkpt lat="45.79064" lon="6.60355">
        <ele>1918</ele>
        <time>2022-07-24T09:27:35Z</time>
      </trkpt>
      <trkpt lat="45.79064" lon="6.60356">
        <ele>1918</ele>
        <time>2022-07-24T09:27:36Z</time>
      </trkpt>
      <trkpt lat="45.79064" lon="6.60357">
        <ele>1918</ele>
        <time>2022-07-24T09:27:37Z</time>
      </trkpt>
      <trkpt lat="45.79065" lon="6.60359">
        <ele>1918</ele>
        <time>2022-07-24T09:27:38Z</time>
      </trkpt>
      <trkpt lat="45.79065" lon="6.6036">
        <ele>1918</ele>
        <time>2022-07-24T09:27:39Z</time>
      </trkpt>
      <trkpt lat="45.79066" lon="6.60361">
        <ele>1918</ele>
        <time>2022-07-24T09:27:40Z</time>
      </trkpt>
      <trkpt lat="45.79066" lon="6.60363">
        <ele>1918</ele>
        <time>2022-07-24T09:27:41Z</time>
      </trkpt>
      <trkpt lat="45.79067" lon="6.60364">
        <ele>1918</ele>
        <time>2022-07-24T09:27:42Z</time>
      </trkpt>
      <trkpt lat="45.79067" lon="6.60366">
        <ele>1918</ele>
        <time>2022-07-24T09:27:43Z</time>
      </trkpt>
      <trkpt lat="45.79067" lon="6.60367">
        <ele>1918</ele>
        <time>2022-07-24T09:27:44Z</time>
      </trkpt>
      <trkpt lat="45.79068" lon="6.60369">
        <ele>1918</ele>
        <time>2022-07-24T09:27:45Z</time>
      </trkpt>
      <trkpt lat="45.79068" lon="6.60371">
        <ele>1918</ele>
        <time>2022-07-24T09:27:46Z</time>
      </trkpt>
      <trkpt lat="45.79068" lon="6.60372">
        <ele>1918</ele>
        <time>2022-07-24T09:27:47Z</time>
      </trkpt>
      <trkpt lat="45.79069" lon="6.60374">
        <ele>1918</ele>
        <time>2022-07-24T09:27:48Z</time>
      </trkpt>
      <trkpt lat="45.79069" lon="6.60375">
        <ele>1918</ele>
        <time>2022-07-24T09:27:49Z</time>
      </trkpt>
      <trkpt lat="45.7907" lon="6.60376">
        <ele>1918</ele>
        <time>2022-07-24T09:27:50Z</time>
      </trkpt>
      <trkpt lat="45.7907" lon="6.60378">
        <ele>1919</ele>
        <time>2022-07-24T09:27:51Z</time>
      </trkpt>
      <trkpt lat="45.7907" lon="6.60379">
        <ele>1919</ele>
        <time>2022-07-24T09:27:52Z</time>
      </trkpt>
      <trkpt lat="45.79071" lon="6.6038">
        <ele>1919</ele>
        <time>2022-07-24T09:27:53Z</time>
      </trkpt>
      <trkpt lat="45.79071" lon="6.60381">
        <ele>1919</ele>
        <time>2022-07-24T09:27:54Z</time>
      </trkpt>
      <trkpt lat="45.79071" lon="6.60383">
        <ele>1919</ele>
        <time>2022-07-24T09:27:55Z</time>
      </trkpt>
      <trkpt lat="45.79072" lon="6.60384">
        <ele>1919</ele>
        <time>2022-07-24T09:27:56Z</time>
      </trkpt>
      <trkpt lat="45.79072" lon="6.60386">
        <ele>1919</ele>
        <time>2022-07-24T09:27:57Z</time>
      </trkpt>
      <trkpt lat="45.79072" lon="6.60388">
        <ele>1919</ele>
        <time>2022-07-24T09:27:58Z</time>
      </trkpt>
      <trkpt lat="45.79072" lon="6.60389">
        <ele>1919</ele>
        <time>2022-07-24T09:27:59Z</time>
      </trkpt>
      <trkpt lat="45.79072" lon="6.60391">
        <ele>1919</ele>
        <time>2022-07-24T09:28:00Z</time>
      </trkpt>
      <trkpt lat="45.79072" lon="6.60393">
        <ele>1920</ele>
        <time>2022-07-24T09:28:01Z</time>
      </trkpt>
      <trkpt lat="45.79072" lon="6.60394">
        <ele>1920</ele>
        <time>2022-07-24T09:28:02Z</time>
      </trkpt>
      <trkpt lat="45.79072" lon="6.60396">
        <ele>1920</ele>
        <time>2022-07-24T09:28:03Z</time>
      </trkpt>
      <trkpt lat="45.79072" lon="6.60398">
        <ele>1920</ele>
        <time>2022-07-24T09:28:04Z</time>
      </trkpt>
      <trkpt lat="45.79072" lon="6.60399">
        <ele>1920</ele>
        <time>2022-07-24T09:28:05Z</time>
      </trkpt>
      <trkpt lat="45.79072" lon="6.60401">
        <ele>1920</ele>
        <time>2022-07-24T09:28:06Z</time>
      </trkpt>
      <trkpt lat="45.79072" lon="6.60402">
        <ele>1920</ele>
        <time>2022-07-24T09:28:07Z</time>
      </trkpt>
      <trkpt lat="45.79073" lon="6.60404">
        <ele>1920</ele>
        <time>2022-07-24T09:28:08Z</time>
      </trkpt>
      <trkpt lat="45.79073" lon="6.60406">
        <ele>1920</ele>
        <time>2022-07-24T09:28:09Z</time>
      </trkpt>
      <trkpt lat="45.79073" lon="6.60407">
        <ele>1920</ele>
        <time>2022-07-24T09:28:10Z</time>
      </trkpt>
      <trkpt lat="45.79073" lon="6.60409">
        <ele>1920</ele>
        <time>2022-07-24T09:28:11Z</time>
      </trkpt>
      <trkpt lat="45.79073" lon="6.60411">
        <ele>1920</ele>
        <time>2022-07-24T09:28:12Z</time>
      </trkpt>
      <trkpt lat="45.79074" lon="6.60412">
        <ele>1920</ele>
        <time>2022-07-24T09:28:13Z</time>
      </trkpt>
      <trkpt lat="45.79074" lon="6.60414">
        <ele>1920</ele>
        <time>2022-07-24T09:28:14Z</time>
      </trkpt>
      <trkpt lat="45.79074" lon="6.60416">
        <ele>1920</ele>
        <time>2022-07-24T09:28:15Z</time>
      </trkpt>
      <trkpt lat="45.79074" lon="6.60417">
        <ele>1921</ele>
        <time>2022-07-24T09:28:16Z</time>
      </trkpt>
      <trkpt lat="45.79075" lon="6.60419">
        <ele>1921</ele>
        <time>2022-07-24T09:28:17Z</time>
      </trkpt>
      <trkpt lat="45.79075" lon="6.6042">
        <ele>1921</ele>
        <time>2022-07-24T09:28:18Z</time>
      </trkpt>
      <trkpt lat="45.79076" lon="6.60422">
        <ele>1921</ele>
        <time>2022-07-24T09:28:19Z</time>
      </trkpt>
      <trkpt lat="45.79076" lon="6.60424">
        <ele>1921</ele>
        <time>2022-07-24T09:28:20Z</time>
      </trkpt>
      <trkpt lat="45.79076" lon="6.60425">
        <ele>1921</ele>
        <time>2022-07-24T09:28:21Z</time>
      </trkpt>
      <trkpt lat="45.79077" lon="6.60427">
        <ele>1921</ele>
        <time>2022-07-24T09:28:22Z</time>
      </trkpt>
      <trkpt lat="45.79077" lon="6.60428">
        <ele>1921</ele>
        <time>2022-07-24T09:28:23Z</time>
      </trkpt>
      <trkpt lat="45.79077" lon="6.6043">
        <ele>1921</ele>
        <time>2022-07-24T09:28:24Z</time>
      </trkpt>
      <trkpt lat="45.79078" lon="6.60431">
        <ele>1921</ele>
        <time>2022-07-24T09:28:25Z</time>
      </trkpt>
      <trkpt lat="45.79078" lon="6.60433">
        <ele>1921</ele>
        <time>2022-07-24T09:28:26Z</time>
      </trkpt>
      <trkpt lat="45.79079" lon="6.60434">
        <ele>1921</ele>
        <time>2022-07-24T09:28:27Z</time>
      </trkpt>
      <trkpt lat="45.79079" lon="6.60436">
        <ele>1921</ele>
        <time>2022-07-24T09:28:28Z</time>
      </trkpt>
      <trkpt lat="45.7908" lon="6.60437">
        <ele>1921</ele>
        <time>2022-07-24T09:28:29Z</time>
      </trkpt>
      <trkpt lat="45.7908" lon="6.60438">
        <ele>1921</ele>
        <time>2022-07-24T09:28:30Z</time>
      </trkpt>
      <trkpt lat="45.79081" lon="6.6044">
        <ele>1922</ele>
        <time>2022-07-24T09:28:31Z</time>
      </trkpt>
      <trkpt lat="45.79081" lon="6.60441">
        <ele>1922</ele>
        <time>2022-07-24T09:28:32Z</time>
      </trkpt>
      <trkpt lat="45.79082" lon="6.60442">
        <ele>1922</ele>
        <time>2022-07-24T09:28:33Z</time>
      </trkpt>
      <trkpt lat="45.79082" lon="6.60443">
        <ele>1922</ele>
        <time>2022-07-24T09:28:34Z</time>
      </trkpt>
      <trkpt lat="45.79083" lon="6.60445">
        <ele>1922</ele>
        <time>2022-07-24T09:28:35Z</time>
      </trkpt>
      <trkpt lat="45.79084" lon="6.60446">
        <ele>1922</ele>
        <time>2022-07-24T09:28:36Z</time>
      </trkpt>
      <trkpt lat="45.79084" lon="6.60447">
        <ele>1922</ele>
        <time>2022-07-24T09:28:37Z</time>
      </trkpt>
      <trkpt lat="45.79085" lon="6.60448">
        <ele>1922</ele>
        <time>2022-07-24T09:28:38Z</time>
      </trkpt>
      <trkpt lat="45.79086" lon="6.60449">
        <ele>1922</ele>
        <time>2022-07-24T09:28:39Z</time>
      </trkpt>
      <trkpt lat="45.79087" lon="6.60451">
        <ele>1922</ele>
        <time>2022-07-24T09:28:40Z</time>
      </trkpt>
      <trkpt lat="45.79088" lon="6.60452">
        <ele>1923</ele>
        <time>2022-07-24T09:28:41Z</time>
      </trkpt>
      <trkpt lat="45.79088" lon="6.60453">
        <ele>1923</ele>
        <time>2022-07-24T09:28:42Z</time>
      </trkpt>
      <trkpt lat="45.79089" lon="6.60454">
        <ele>1923</ele>
        <time>2022-07-24T09:28:43Z</time>
      </trkpt>
      <trkpt lat="45.7909" lon="6.60455">
        <ele>1923</ele>
        <time>2022-07-24T09:28:44Z</time>
      </trkpt>
      <trkpt lat="45.7909" lon="6.60457">
        <ele>1923</ele>
        <time>2022-07-24T09:28:45Z</time>
      </trkpt>
      <trkpt lat="45.79091" lon="6.60458">
        <ele>1923</ele>
        <time>2022-07-24T09:28:46Z</time>
      </trkpt>
      <trkpt lat="45.79092" lon="6.60459">
        <ele>1923</ele>
        <time>2022-07-24T09:28:47Z</time>
      </trkpt>
      <trkpt lat="45.79092" lon="6.60461">
        <ele>1923</ele>
        <time>2022-07-24T09:28:48Z</time>
      </trkpt>
      <trkpt lat="45.79093" lon="6.60462">
        <ele>1923</ele>
        <time>2022-07-24T09:28:49Z</time>
      </trkpt>
      <trkpt lat="45.79094" lon="6.60463">
        <ele>1923</ele>
        <time>2022-07-24T09:28:50Z</time>
      </trkpt>
      <trkpt lat="45.79095" lon="6.60465">
        <ele>1923</ele>
        <time>2022-07-24T09:28:51Z</time>
      </trkpt>
      <trkpt lat="45.79095" lon="6.60466">
        <ele>1923</ele>
        <time>2022-07-24T09:28:52Z</time>
      </trkpt>
      <trkpt lat="45.79096" lon="6.60468">
        <ele>1923</ele>
        <time>2022-07-24T09:28:53Z</time>
      </trkpt>
      <trkpt lat="45.79097" lon="6.60469">
        <ele>1923</ele>
        <time>2022-07-24T09:28:54Z</time>
      </trkpt>
      <trkpt lat="45.79098" lon="6.6047">
        <ele>1923</ele>
        <time>2022-07-24T09:28:55Z</time>
      </trkpt>
      <trkpt lat="45.79098" lon="6.60471">
        <ele>1923</ele>
        <time>2022-07-24T09:28:56Z</time>
      </trkpt>
      <trkpt lat="45.79099" lon="6.60473">
        <ele>1923</ele>
        <time>2022-07-24T09:28:57Z</time>
      </trkpt>
      <trkpt lat="45.791" lon="6.60474">
        <ele>1923</ele>
        <time>2022-07-24T09:28:58Z</time>
      </trkpt>
      <trkpt lat="45.79101" lon="6.60475">
        <ele>1923</ele>
        <time>2022-07-24T09:28:59Z</time>
      </trkpt>
      <trkpt lat="45.79102" lon="6.60477">
        <ele>1923</ele>
        <time>2022-07-24T09:29:00Z</time>
      </trkpt>
      <trkpt lat="45.79102" lon="6.60478">
        <ele>1924</ele>
        <time>2022-07-24T09:29:01Z</time>
      </trkpt>
      <trkpt lat="45.79103" lon="6.60479">
        <ele>1924</ele>
        <time>2022-07-24T09:29:02Z</time>
      </trkpt>
      <trkpt lat="45.79104" lon="6.6048">
        <ele>1924</ele>
        <time>2022-07-24T09:29:03Z</time>
      </trkpt>
      <trkpt lat="45.79105" lon="6.60482">
        <ele>1924</ele>
        <time>2022-07-24T09:29:04Z</time>
      </trkpt>
      <trkpt lat="45.79106" lon="6.60483">
        <ele>1924</ele>
        <time>2022-07-24T09:29:05Z</time>
      </trkpt>
      <trkpt lat="45.79107" lon="6.60484">
        <ele>1924</ele>
        <time>2022-07-24T09:29:06Z</time>
      </trkpt>
      <trkpt lat="45.79107" lon="6.60485">
        <ele>1924</ele>
        <time>2022-07-24T09:29:07Z</time>
      </trkpt>
      <trkpt lat="45.79108" lon="6.60486">
        <ele>1924</ele>
        <time>2022-07-24T09:29:08Z</time>
      </trkpt>
      <trkpt lat="45.79109" lon="6.60488">
        <ele>1924</ele>
        <time>2022-07-24T09:29:09Z</time>
      </trkpt>
      <trkpt lat="45.7911" lon="6.60489">
        <ele>1924</ele>
        <time>2022-07-24T09:29:10Z</time>
      </trkpt>
      <trkpt lat="45.79111" lon="6.6049">
        <ele>1924</ele>
        <time>2022-07-24T09:29:11Z</time>
      </trkpt>
      <trkpt lat="45.79111" lon="6.60491">
        <ele>1924</ele>
        <time>2022-07-24T09:29:12Z</time>
      </trkpt>
      <trkpt lat="45.79112" lon="6.60493">
        <ele>1924</ele>
        <time>2022-07-24T09:29:13Z</time>
      </trkpt>
      <trkpt lat="45.79113" lon="6.60494">
        <ele>1924</ele>
        <time>2022-07-24T09:29:14Z</time>
      </trkpt>
      <trkpt lat="45.79114" lon="6.60495">
        <ele>1924</ele>
        <time>2022-07-24T09:29:15Z</time>
      </trkpt>
      <trkpt lat="45.79115" lon="6.60496">
        <ele>1925</ele>
        <time>2022-07-24T09:29:16Z</time>
      </trkpt>
      <trkpt lat="45.79116" lon="6.60497">
        <ele>1925</ele>
        <time>2022-07-24T09:29:17Z</time>
      </trkpt>
      <trkpt lat="45.79117" lon="6.60499">
        <ele>1925</ele>
        <time>2022-07-24T09:29:18Z</time>
      </trkpt>
      <trkpt lat="45.79118" lon="6.605">
        <ele>1925</ele>
        <time>2022-07-24T09:29:19Z</time>
      </trkpt>
      <trkpt lat="45.79119" lon="6.60501">
        <ele>1925</ele>
        <time>2022-07-24T09:29:20Z</time>
      </trkpt>
      <trkpt lat="45.7912" lon="6.60502">
        <ele>1925</ele>
        <time>2022-07-24T09:29:21Z</time>
      </trkpt>
      <trkpt lat="45.79121" lon="6.60503">
        <ele>1925</ele>
        <time>2022-07-24T09:29:22Z</time>
      </trkpt>
      <trkpt lat="45.79122" lon="6.60504">
        <ele>1925</ele>
        <time>2022-07-24T09:29:23Z</time>
      </trkpt>
      <trkpt lat="45.79123" lon="6.60504">
        <ele>1925</ele>
        <time>2022-07-24T09:29:24Z</time>
      </trkpt>
      <trkpt lat="45.79124" lon="6.60505">
        <ele>1925</ele>
        <time>2022-07-24T09:29:25Z</time>
      </trkpt>
      <trkpt lat="45.79125" lon="6.60506">
        <ele>1925</ele>
        <time>2022-07-24T09:29:26Z</time>
      </trkpt>
      <trkpt lat="45.79126" lon="6.60507">
        <ele>1925</ele>
        <time>2022-07-24T09:29:27Z</time>
      </trkpt>
      <trkpt lat="45.79127" lon="6.60507">
        <ele>1925</ele>
        <time>2022-07-24T09:29:28Z</time>
      </trkpt>
      <trkpt lat="45.79128" lon="6.60508">
        <ele>1925</ele>
        <time>2022-07-24T09:29:29Z</time>
      </trkpt>
      <trkpt lat="45.79129" lon="6.60509">
        <ele>1925</ele>
        <time>2022-07-24T09:29:30Z</time>
      </trkpt>
      <trkpt lat="45.7913" lon="6.60509">
        <ele>1925</ele>
        <time>2022-07-24T09:29:31Z</time>
      </trkpt>
      <trkpt lat="45.79132" lon="6.6051">
        <ele>1925</ele>
        <time>2022-07-24T09:29:32Z</time>
      </trkpt>
      <trkpt lat="45.79133" lon="6.60511">
        <ele>1925</ele>
        <time>2022-07-24T09:29:33Z</time>
      </trkpt>
      <trkpt lat="45.79134" lon="6.60511">
        <ele>1925</ele>
        <time>2022-07-24T09:29:34Z</time>
      </trkpt>
      <trkpt lat="45.79135" lon="6.60512">
        <ele>1925</ele>
        <time>2022-07-24T09:29:35Z</time>
      </trkpt>
      <trkpt lat="45.79136" lon="6.60513">
        <ele>1925</ele>
        <time>2022-07-24T09:29:36Z</time>
      </trkpt>
      <trkpt lat="45.79138" lon="6.60514">
        <ele>1925</ele>
        <time>2022-07-24T09:29:37Z</time>
      </trkpt>
      <trkpt lat="45.79139" lon="6.60515">
        <ele>1925</ele>
        <time>2022-07-24T09:29:38Z</time>
      </trkpt>
      <trkpt lat="45.7914" lon="6.60516">
        <ele>1925</ele>
        <time>2022-07-24T09:29:39Z</time>
      </trkpt>
      <trkpt lat="45.79141" lon="6.60517">
        <ele>1925</ele>
        <time>2022-07-24T09:29:40Z</time>
      </trkpt>
      <trkpt lat="45.79142" lon="6.60518">
        <ele>1925</ele>
        <time>2022-07-24T09:29:41Z</time>
      </trkpt>
      <trkpt lat="45.79143" lon="6.60519">
        <ele>1925</ele>
        <time>2022-07-24T09:29:42Z</time>
      </trkpt>
      <trkpt lat="45.79144" lon="6.6052">
        <ele>1925</ele>
        <time>2022-07-24T09:29:43Z</time>
      </trkpt>
      <trkpt lat="45.79145" lon="6.60521">
        <ele>1925</ele>
        <time>2022-07-24T09:29:44Z</time>
      </trkpt>
      <trkpt lat="45.79146" lon="6.60523">
        <ele>1925</ele>
        <time>2022-07-24T09:29:45Z</time>
      </trkpt>
      <trkpt lat="45.79147" lon="6.60524">
        <ele>1925</ele>
        <time>2022-07-24T09:29:46Z</time>
      </trkpt>
      <trkpt lat="45.79148" lon="6.60525">
        <ele>1925</ele>
        <time>2022-07-24T09:29:47Z</time>
      </trkpt>
      <trkpt lat="45.79149" lon="6.60526">
        <ele>1925</ele>
        <time>2022-07-24T09:29:48Z</time>
      </trkpt>
      <trkpt lat="45.79149" lon="6.60527">
        <ele>1925</ele>
        <time>2022-07-24T09:29:49Z</time>
      </trkpt>
      <trkpt lat="45.7915" lon="6.60529">
        <ele>1925</ele>
        <time>2022-07-24T09:29:50Z</time>
      </trkpt>
      <trkpt lat="45.79151" lon="6.6053">
        <ele>1925</ele>
        <time>2022-07-24T09:29:51Z</time>
      </trkpt>
      <trkpt lat="45.79151" lon="6.60532">
        <ele>1925</ele>
        <time>2022-07-24T09:29:52Z</time>
      </trkpt>
      <trkpt lat="45.79152" lon="6.60533">
        <ele>1925</ele>
        <time>2022-07-24T09:29:53Z</time>
      </trkpt>
      <trkpt lat="45.79152" lon="6.60535">
        <ele>1925</ele>
        <time>2022-07-24T09:29:54Z</time>
      </trkpt>
      <trkpt lat="45.79153" lon="6.60536">
        <ele>1925</ele>
        <time>2022-07-24T09:29:55Z</time>
      </trkpt>
      <trkpt lat="45.79153" lon="6.60538">
        <ele>1925</ele>
        <time>2022-07-24T09:29:56Z</time>
      </trkpt>
      <trkpt lat="45.79154" lon="6.60539">
        <ele>1925</ele>
        <time>2022-07-24T09:29:57Z</time>
      </trkpt>
      <trkpt lat="45.79155" lon="6.60541">
        <ele>1925</ele>
        <time>2022-07-24T09:29:58Z</time>
      </trkpt>
      <trkpt lat="45.79155" lon="6.60543">
        <ele>1925</ele>
        <time>2022-07-24T09:29:59Z</time>
      </trkpt>
      <trkpt lat="45.79156" lon="6.60544">
        <ele>1925</ele>
        <time>2022-07-24T09:30:00Z</time>
      </trkpt>
      <trkpt lat="45.79156" lon="6.60546">
        <ele>1925</ele>
        <time>2022-07-24T09:30:01Z</time>
      </trkpt>
      <trkpt lat="45.79157" lon="6.60548">
        <ele>1925</ele>
        <time>2022-07-24T09:30:02Z</time>
      </trkpt>
      <trkpt lat="45.79157" lon="6.60549">
        <ele>1925</ele>
        <time>2022-07-24T09:30:03Z</time>
      </trkpt>
      <trkpt lat="45.79158" lon="6.60551">
        <ele>1925</ele>
        <time>2022-07-24T09:30:04Z</time>
      </trkpt>
      <trkpt lat="45.79158" lon="6.60552">
        <ele>1925</ele>
        <time>2022-07-24T09:30:05Z</time>
      </trkpt>
      <trkpt lat="45.79159" lon="6.60554">
        <ele>1925</ele>
        <time>2022-07-24T09:30:06Z</time>
      </trkpt>
      <trkpt lat="45.7916" lon="6.60555">
        <ele>1925</ele>
        <time>2022-07-24T09:30:07Z</time>
      </trkpt>
      <trkpt lat="45.7916" lon="6.60556">
        <ele>1925</ele>
        <time>2022-07-24T09:30:08Z</time>
      </trkpt>
      <trkpt lat="45.79161" lon="6.60558">
        <ele>1925</ele>
        <time>2022-07-24T09:30:09Z</time>
      </trkpt>
      <trkpt lat="45.79162" lon="6.60559">
        <ele>1925</ele>
        <time>2022-07-24T09:30:10Z</time>
      </trkpt>
      <trkpt lat="45.79163" lon="6.6056">
        <ele>1926</ele>
        <time>2022-07-24T09:30:11Z</time>
      </trkpt>
      <trkpt lat="45.79164" lon="6.60562">
        <ele>1926</ele>
        <time>2022-07-24T09:30:12Z</time>
      </trkpt>
      <trkpt lat="45.79165" lon="6.60563">
        <ele>1926</ele>
        <time>2022-07-24T09:30:13Z</time>
      </trkpt>
      <trkpt lat="45.79165" lon="6.60564">
        <ele>1926</ele>
        <time>2022-07-24T09:30:14Z</time>
      </trkpt>
      <trkpt lat="45.79166" lon="6.60565">
        <ele>1926</ele>
        <time>2022-07-24T09:30:15Z</time>
      </trkpt>
      <trkpt lat="45.79167" lon="6.60567">
        <ele>1926</ele>
        <time>2022-07-24T09:30:16Z</time>
      </trkpt>
      <trkpt lat="45.79168" lon="6.60568">
        <ele>1926</ele>
        <time>2022-07-24T09:30:17Z</time>
      </trkpt>
      <trkpt lat="45.79169" lon="6.60569">
        <ele>1926</ele>
        <time>2022-07-24T09:30:18Z</time>
      </trkpt>
      <trkpt lat="45.7917" lon="6.6057">
        <ele>1926</ele>
        <time>2022-07-24T09:30:19Z</time>
      </trkpt>
      <trkpt lat="45.7917" lon="6.60571">
        <ele>1926</ele>
        <time>2022-07-24T09:30:20Z</time>
      </trkpt>
      <trkpt lat="45.79171" lon="6.60573">
        <ele>1926</ele>
        <time>2022-07-24T09:30:21Z</time>
      </trkpt>
      <trkpt lat="45.79172" lon="6.60574">
        <ele>1926</ele>
        <time>2022-07-24T09:30:22Z</time>
      </trkpt>
      <trkpt lat="45.79173" lon="6.60575">
        <ele>1926</ele>
        <time>2022-07-24T09:30:23Z</time>
      </trkpt>
      <trkpt lat="45.79174" lon="6.60576">
        <ele>1926</ele>
        <time>2022-07-24T09:30:24Z</time>
      </trkpt>
      <trkpt lat="45.79175" lon="6.60578">
        <ele>1926</ele>
        <time>2022-07-24T09:30:25Z</time>
      </trkpt>
      <trkpt lat="45.79175" lon="6.60579">
        <ele>1926</ele>
        <time>2022-07-24T09:30:26Z</time>
      </trkpt>
      <trkpt lat="45.79176" lon="6.60581">
        <ele>1926</ele>
        <time>2022-07-24T09:30:27Z</time>
      </trkpt>
      <trkpt lat="45.79177" lon="6.60582">
        <ele>1926</ele>
        <time>2022-07-24T09:30:28Z</time>
      </trkpt>
      <trkpt lat="45.79178" lon="6.60584">
        <ele>1926</ele>
        <time>2022-07-24T09:30:29Z</time>
      </trkpt>
      <trkpt lat="45.79178" lon="6.60585">
        <ele>1926</ele>
        <time>2022-07-24T09:30:30Z</time>
      </trkpt>
      <trkpt lat="45.79179" lon="6.60587">
        <ele>1926</ele>
        <time>2022-07-24T09:30:31Z</time>
      </trkpt>
      <trkpt lat="45.7918" lon="6.60589">
        <ele>1926</ele>
        <time>2022-07-24T09:30:32Z</time>
      </trkpt>
      <trkpt lat="45.7918" lon="6.6059">
        <ele>1926</ele>
        <time>2022-07-24T09:30:33Z</time>
      </trkpt>
      <trkpt lat="45.79181" lon="6.60592">
        <ele>1926</ele>
        <time>2022-07-24T09:30:34Z</time>
      </trkpt>
      <trkpt lat="45.79181" lon="6.60594">
        <ele>1926</ele>
        <time>2022-07-24T09:30:35Z</time>
      </trkpt>
      <trkpt lat="45.79182" lon="6.60595">
        <ele>1926</ele>
        <time>2022-07-24T09:30:36Z</time>
      </trkpt>
      <trkpt lat="45.79182" lon="6.60597">
        <ele>1926</ele>
        <time>2022-07-24T09:30:37Z</time>
      </trkpt>
      <trkpt lat="45.79183" lon="6.60599">
        <ele>1926</ele>
        <time>2022-07-24T09:30:38Z</time>
      </trkpt>
      <trkpt lat="45.79183" lon="6.60601">
        <ele>1926</ele>
        <time>2022-07-24T09:30:39Z</time>
      </trkpt>
      <trkpt lat="45.79183" lon="6.60602">
        <ele>1926</ele>
        <time>2022-07-24T09:30:40Z</time>
      </trkpt>
      <trkpt lat="45.79184" lon="6.60604">
        <ele>1926</ele>
        <time>2022-07-24T09:30:41Z</time>
      </trkpt>
      <trkpt lat="45.79184" lon="6.60606">
        <ele>1926</ele>
        <time>2022-07-24T09:30:42Z</time>
      </trkpt>
      <trkpt lat="45.79184" lon="6.60607">
        <ele>1926</ele>
        <time>2022-07-24T09:30:43Z</time>
      </trkpt>
      <trkpt lat="45.79185" lon="6.60609">
        <ele>1926</ele>
        <time>2022-07-24T09:30:44Z</time>
      </trkpt>
      <trkpt lat="45.79185" lon="6.60611">
        <ele>1926</ele>
        <time>2022-07-24T09:30:45Z</time>
      </trkpt>
      <trkpt lat="45.79185" lon="6.60612">
        <ele>1926</ele>
        <time>2022-07-24T09:30:46Z</time>
      </trkpt>
      <trkpt lat="45.79186" lon="6.60614">
        <ele>1926</ele>
        <time>2022-07-24T09:30:47Z</time>
      </trkpt>
      <trkpt lat="45.79186" lon="6.60615">
        <ele>1926</ele>
        <time>2022-07-24T09:30:48Z</time>
      </trkpt>
      <trkpt lat="45.79187" lon="6.60617">
        <ele>1926</ele>
        <time>2022-07-24T09:30:49Z</time>
      </trkpt>
      <trkpt lat="45.79187" lon="6.60619">
        <ele>1926</ele>
        <time>2022-07-24T09:30:50Z</time>
      </trkpt>
      <trkpt lat="45.79187" lon="6.6062">
        <ele>1926</ele>
        <time>2022-07-24T09:30:51Z</time>
      </trkpt>
      <trkpt lat="45.79188" lon="6.60622">
        <ele>1926</ele>
        <time>2022-07-24T09:30:52Z</time>
      </trkpt>
      <trkpt lat="45.79188" lon="6.60624">
        <ele>1926</ele>
        <time>2022-07-24T09:30:53Z</time>
      </trkpt>
      <trkpt lat="45.79188" lon="6.60626">
        <ele>1926</ele>
        <time>2022-07-24T09:30:54Z</time>
      </trkpt>
      <trkpt lat="45.79189" lon="6.60627">
        <ele>1926</ele>
        <time>2022-07-24T09:30:55Z</time>
      </trkpt>
      <trkpt lat="45.79189" lon="6.60629">
        <ele>1926</ele>
        <time>2022-07-24T09:30:56Z</time>
      </trkpt>
      <trkpt lat="45.79189" lon="6.60631">
        <ele>1926</ele>
        <time>2022-07-24T09:30:57Z</time>
      </trkpt>
      <trkpt lat="45.7919" lon="6.60632">
        <ele>1926</ele>
        <time>2022-07-24T09:30:58Z</time>
      </trkpt>
      <trkpt lat="45.7919" lon="6.60634">
        <ele>1926</ele>
        <time>2022-07-24T09:30:59Z</time>
      </trkpt>
      <trkpt lat="45.7919" lon="6.60636">
        <ele>1926</ele>
        <time>2022-07-24T09:31:00Z</time>
      </trkpt>
      <trkpt lat="45.79191" lon="6.60638">
        <ele>1926</ele>
        <time>2022-07-24T09:31:01Z</time>
      </trkpt>
      <trkpt lat="45.79191" lon="6.6064">
        <ele>1926</ele>
        <time>2022-07-24T09:31:02Z</time>
      </trkpt>
      <trkpt lat="45.79192" lon="6.60642">
        <ele>1926</ele>
        <time>2022-07-24T09:31:03Z</time>
      </trkpt>
      <trkpt lat="45.79192" lon="6.60643">
        <ele>1926</ele>
        <time>2022-07-24T09:31:04Z</time>
      </trkpt>
      <trkpt lat="45.79193" lon="6.60645">
        <ele>1926</ele>
        <time>2022-07-24T09:31:05Z</time>
      </trkpt>
      <trkpt lat="45.79193" lon="6.60647">
        <ele>1926</ele>
        <time>2022-07-24T09:31:06Z</time>
      </trkpt>
      <trkpt lat="45.79194" lon="6.60649">
        <ele>1926</ele>
        <time>2022-07-24T09:31:07Z</time>
      </trkpt>
      <trkpt lat="45.79194" lon="6.6065">
        <ele>1926</ele>
        <time>2022-07-24T09:31:08Z</time>
      </trkpt>
      <trkpt lat="45.79195" lon="6.60652">
        <ele>1926</ele>
        <time>2022-07-24T09:31:09Z</time>
      </trkpt>
      <trkpt lat="45.79195" lon="6.60654">
        <ele>1926</ele>
        <time>2022-07-24T09:31:10Z</time>
      </trkpt>
      <trkpt lat="45.79196" lon="6.60656">
        <ele>1926</ele>
        <time>2022-07-24T09:31:11Z</time>
      </trkpt>
      <trkpt lat="45.79196" lon="6.60657">
        <ele>1926</ele>
        <time>2022-07-24T09:31:12Z</time>
      </trkpt>
      <trkpt lat="45.79197" lon="6.60659">
        <ele>1926</ele>
        <time>2022-07-24T09:31:13Z</time>
      </trkpt>
      <trkpt lat="45.79197" lon="6.60661">
        <ele>1926</ele>
        <time>2022-07-24T09:31:14Z</time>
      </trkpt>
      <trkpt lat="45.79198" lon="6.60662">
        <ele>1926</ele>
        <time>2022-07-24T09:31:15Z</time>
      </trkpt>
      <trkpt lat="45.79199" lon="6.60664">
        <ele>1926</ele>
        <time>2022-07-24T09:31:16Z</time>
      </trkpt>
      <trkpt lat="45.79199" lon="6.60666">
        <ele>1926</ele>
        <time>2022-07-24T09:31:17Z</time>
      </trkpt>
      <trkpt lat="45.792" lon="6.60667">
        <ele>1926</ele>
        <time>2022-07-24T09:31:18Z</time>
      </trkpt>
      <trkpt lat="45.792" lon="6.60669">
        <ele>1926</ele>
        <time>2022-07-24T09:31:19Z</time>
      </trkpt>
      <trkpt lat="45.79201" lon="6.60671">
        <ele>1926</ele>
        <time>2022-07-24T09:31:20Z</time>
      </trkpt>
      <trkpt lat="45.79202" lon="6.60672">
        <ele>1926</ele>
        <time>2022-07-24T09:31:21Z</time>
      </trkpt>
      <trkpt lat="45.79203" lon="6.60674">
        <ele>1926</ele>
        <time>2022-07-24T09:31:22Z</time>
      </trkpt>
      <trkpt lat="45.79203" lon="6.60675">
        <ele>1926</ele>
        <time>2022-07-24T09:31:23Z</time>
      </trkpt>
      <trkpt lat="45.79204" lon="6.60677">
        <ele>1926</ele>
        <time>2022-07-24T09:31:24Z</time>
      </trkpt>
      <trkpt lat="45.79205" lon="6.60678">
        <ele>1926</ele>
        <time>2022-07-24T09:31:25Z</time>
      </trkpt>
      <trkpt lat="45.79206" lon="6.6068">
        <ele>1926</ele>
        <time>2022-07-24T09:31:26Z</time>
      </trkpt>
      <trkpt lat="45.79207" lon="6.60681">
        <ele>1926</ele>
        <time>2022-07-24T09:31:27Z</time>
      </trkpt>
      <trkpt lat="45.79207" lon="6.60682">
        <ele>1926</ele>
        <time>2022-07-24T09:31:28Z</time>
      </trkpt>
      <trkpt lat="45.79208" lon="6.60683">
        <ele>1926</ele>
        <time>2022-07-24T09:31:29Z</time>
      </trkpt>
      <trkpt lat="45.79209" lon="6.60685">
        <ele>1926</ele>
        <time>2022-07-24T09:31:30Z</time>
      </trkpt>
      <trkpt lat="45.7921" lon="6.60686">
        <ele>1926</ele>
        <time>2022-07-24T09:31:31Z</time>
      </trkpt>
      <trkpt lat="45.79211" lon="6.60687">
        <ele>1925</ele>
        <time>2022-07-24T09:31:32Z</time>
      </trkpt>
      <trkpt lat="45.79212" lon="6.60689">
        <ele>1925</ele>
        <time>2022-07-24T09:31:33Z</time>
      </trkpt>
      <trkpt lat="45.79213" lon="6.6069">
        <ele>1925</ele>
        <time>2022-07-24T09:31:34Z</time>
      </trkpt>
      <trkpt lat="45.79214" lon="6.60691">
        <ele>1925</ele>
        <time>2022-07-24T09:31:35Z</time>
      </trkpt>
      <trkpt lat="45.79215" lon="6.60692">
        <ele>1925</ele>
        <time>2022-07-24T09:31:36Z</time>
      </trkpt>
      <trkpt lat="45.79216" lon="6.60693">
        <ele>1925</ele>
        <time>2022-07-24T09:31:37Z</time>
      </trkpt>
      <trkpt lat="45.79217" lon="6.60694">
        <ele>1925</ele>
        <time>2022-07-24T09:31:38Z</time>
      </trkpt>
      <trkpt lat="45.79217" lon="6.60695">
        <ele>1925</ele>
        <time>2022-07-24T09:31:39Z</time>
      </trkpt>
      <trkpt lat="45.79218" lon="6.60696">
        <ele>1925</ele>
        <time>2022-07-24T09:31:40Z</time>
      </trkpt>
      <trkpt lat="45.79219" lon="6.60697">
        <ele>1925</ele>
        <time>2022-07-24T09:31:41Z</time>
      </trkpt>
      <trkpt lat="45.7922" lon="6.60698">
        <ele>1925</ele>
        <time>2022-07-24T09:31:42Z</time>
      </trkpt>
      <trkpt lat="45.79221" lon="6.60699">
        <ele>1925</ele>
        <time>2022-07-24T09:31:43Z</time>
      </trkpt>
      <trkpt lat="45.79222" lon="6.607">
        <ele>1925</ele>
        <time>2022-07-24T09:31:44Z</time>
      </trkpt>
      <trkpt lat="45.79222" lon="6.60701">
        <ele>1925</ele>
        <time>2022-07-24T09:31:45Z</time>
      </trkpt>
      <trkpt lat="45.79223" lon="6.60701">
        <ele>1925</ele>
        <time>2022-07-24T09:31:46Z</time>
      </trkpt>
      <trkpt lat="45.79224" lon="6.60702">
        <ele>1925</ele>
        <time>2022-07-24T09:31:47Z</time>
      </trkpt>
      <trkpt lat="45.79226" lon="6.60703">
        <ele>1924</ele>
        <time>2022-07-24T09:32:27Z</time>
      </trkpt>
      <trkpt lat="45.79226" lon="6.60704">
        <ele>1924</ele>
        <time>2022-07-24T09:32:28Z</time>
      </trkpt>
      <trkpt lat="45.79227" lon="6.60705">
        <ele>1924</ele>
        <time>2022-07-24T09:32:29Z</time>
      </trkpt>
      <trkpt lat="45.79228" lon="6.60705">
        <ele>1924</ele>
        <time>2022-07-24T09:32:30Z</time>
      </trkpt>
      <trkpt lat="45.79229" lon="6.60706">
        <ele>1924</ele>
        <time>2022-07-24T09:32:31Z</time>
      </trkpt>
      <trkpt lat="45.7923" lon="6.60706">
        <ele>1924</ele>
        <time>2022-07-24T09:32:32Z</time>
      </trkpt>
      <trkpt lat="45.79231" lon="6.60707">
        <ele>1924</ele>
        <time>2022-07-24T09:32:33Z</time>
      </trkpt>
      <trkpt lat="45.79232" lon="6.60708">
        <ele>1924</ele>
        <time>2022-07-24T09:32:34Z</time>
      </trkpt>
      <trkpt lat="45.79233" lon="6.60709">
        <ele>1924</ele>
        <time>2022-07-24T09:32:35Z</time>
      </trkpt>
      <trkpt lat="45.79234" lon="6.6071">
        <ele>1924</ele>
        <time>2022-07-24T09:32:36Z</time>
      </trkpt>
      <trkpt lat="45.79235" lon="6.60711">
        <ele>1924</ele>
        <time>2022-07-24T09:32:37Z</time>
      </trkpt>
      <trkpt lat="45.79236" lon="6.60712">
        <ele>1924</ele>
        <time>2022-07-24T09:32:38Z</time>
      </trkpt>
      <trkpt lat="45.79237" lon="6.60713">
        <ele>1924</ele>
        <time>2022-07-24T09:32:39Z</time>
      </trkpt>
      <trkpt lat="45.79238" lon="6.60714">
        <ele>1924</ele>
        <time>2022-07-24T09:32:40Z</time>
      </trkpt>
      <trkpt lat="45.79239" lon="6.60715">
        <ele>1924</ele>
        <time>2022-07-24T09:32:41Z</time>
      </trkpt>
      <trkpt lat="45.79239" lon="6.60715">
        <ele>1924</ele>
        <time>2022-07-24T09:32:42Z</time>
      </trkpt>
      <trkpt lat="45.7924" lon="6.60716">
        <ele>1924</ele>
        <time>2022-07-24T09:32:43Z</time>
      </trkpt>
      <trkpt lat="45.79241" lon="6.60717">
        <ele>1924</ele>
        <time>2022-07-24T09:32:44Z</time>
      </trkpt>
      <trkpt lat="45.79241" lon="6.60718">
        <ele>1924</ele>
        <time>2022-07-24T09:32:45Z</time>
      </trkpt>
      <trkpt lat="45.79242" lon="6.60719">
        <ele>1924</ele>
        <time>2022-07-24T09:32:46Z</time>
      </trkpt>
      <trkpt lat="45.79243" lon="6.6072">
        <ele>1924</ele>
        <time>2022-07-24T09:32:47Z</time>
      </trkpt>
      <trkpt lat="45.79243" lon="6.60721">
        <ele>1924</ele>
        <time>2022-07-24T09:32:48Z</time>
      </trkpt>
      <trkpt lat="45.79244" lon="6.60722">
        <ele>1924</ele>
        <time>2022-07-24T09:32:49Z</time>
      </trkpt>
      <trkpt lat="45.79244" lon="6.60723">
        <ele>1924</ele>
        <time>2022-07-24T09:32:50Z</time>
      </trkpt>
      <trkpt lat="45.79245" lon="6.60724">
        <ele>1925</ele>
        <time>2022-07-24T09:32:51Z</time>
      </trkpt>
      <trkpt lat="45.79245" lon="6.60725">
        <ele>1925</ele>
        <time>2022-07-24T09:32:52Z</time>
      </trkpt>
      <trkpt lat="45.79246" lon="6.60726">
        <ele>1925</ele>
        <time>2022-07-24T09:32:53Z</time>
      </trkpt>
      <trkpt lat="45.79247" lon="6.60727">
        <ele>1925</ele>
        <time>2022-07-24T09:32:54Z</time>
      </trkpt>
      <trkpt lat="45.79248" lon="6.60728">
        <ele>1925</ele>
        <time>2022-07-24T09:32:55Z</time>
      </trkpt>
      <trkpt lat="45.79249" lon="6.60729">
        <ele>1925</ele>
        <time>2022-07-24T09:32:56Z</time>
      </trkpt>
      <trkpt lat="45.79249" lon="6.6073">
        <ele>1925</ele>
        <time>2022-07-24T09:32:57Z</time>
      </trkpt>
      <trkpt lat="45.7925" lon="6.60731">
        <ele>1925</ele>
        <time>2022-07-24T09:32:58Z</time>
      </trkpt>
      <trkpt lat="45.79251" lon="6.60732">
        <ele>1925</ele>
        <time>2022-07-24T09:32:59Z</time>
      </trkpt>
      <trkpt lat="45.79252" lon="6.60733">
        <ele>1925</ele>
        <time>2022-07-24T09:33:00Z</time>
      </trkpt>
      <trkpt lat="45.79253" lon="6.60733">
        <ele>1926</ele>
        <time>2022-07-24T09:33:01Z</time>
      </trkpt>
      <trkpt lat="45.79254" lon="6.60734">
        <ele>1926</ele>
        <time>2022-07-24T09:33:02Z</time>
      </trkpt>
      <trkpt lat="45.79255" lon="6.60735">
        <ele>1926</ele>
        <time>2022-07-24T09:33:03Z</time>
      </trkpt>
      <trkpt lat="45.79256" lon="6.60736">
        <ele>1926</ele>
        <time>2022-07-24T09:33:04Z</time>
      </trkpt>
      <trkpt lat="45.79257" lon="6.60737">
        <ele>1926</ele>
        <time>2022-07-24T09:33:05Z</time>
      </trkpt>
      <trkpt lat="45.79258" lon="6.60737">
        <ele>1926</ele>
        <time>2022-07-24T09:33:06Z</time>
      </trkpt>
      <trkpt lat="45.79259" lon="6.60738">
        <ele>1926</ele>
        <time>2022-07-24T09:33:07Z</time>
      </trkpt>
      <trkpt lat="45.79259" lon="6.60739">
        <ele>1926</ele>
        <time>2022-07-24T09:33:08Z</time>
      </trkpt>
      <trkpt lat="45.7926" lon="6.6074">
        <ele>1926</ele>
        <time>2022-07-24T09:33:09Z</time>
      </trkpt>
      <trkpt lat="45.79261" lon="6.60741">
        <ele>1926</ele>
        <time>2022-07-24T09:33:10Z</time>
      </trkpt>
      <trkpt lat="45.79262" lon="6.60741">
        <ele>1927</ele>
        <time>2022-07-24T09:33:11Z</time>
      </trkpt>
      <trkpt lat="45.79263" lon="6.60742">
        <ele>1927</ele>
        <time>2022-07-24T09:33:12Z</time>
      </trkpt>
      <trkpt lat="45.79264" lon="6.60743">
        <ele>1927</ele>
        <time>2022-07-24T09:33:13Z</time>
      </trkpt>
      <trkpt lat="45.79265" lon="6.60743">
        <ele>1927</ele>
        <time>2022-07-24T09:33:14Z</time>
      </trkpt>
      <trkpt lat="45.79266" lon="6.60744">
        <ele>1927</ele>
        <time>2022-07-24T09:33:15Z</time>
      </trkpt>
      <trkpt lat="45.79267" lon="6.60745">
        <ele>1927</ele>
        <time>2022-07-24T09:33:16Z</time>
      </trkpt>
      <trkpt lat="45.79268" lon="6.60745">
        <ele>1927</ele>
        <time>2022-07-24T09:33:17Z</time>
      </trkpt>
      <trkpt lat="45.79269" lon="6.60746">
        <ele>1927</ele>
        <time>2022-07-24T09:33:18Z</time>
      </trkpt>
      <trkpt lat="45.7927" lon="6.60747">
        <ele>1927</ele>
        <time>2022-07-24T09:33:19Z</time>
      </trkpt>
      <trkpt lat="45.79271" lon="6.60747">
        <ele>1927</ele>
        <time>2022-07-24T09:33:20Z</time>
      </trkpt>
      <trkpt lat="45.79272" lon="6.60748">
        <ele>1928</ele>
        <time>2022-07-24T09:33:21Z</time>
      </trkpt>
      <trkpt lat="45.79273" lon="6.60749">
        <ele>1928</ele>
        <time>2022-07-24T09:33:22Z</time>
      </trkpt>
      <trkpt lat="45.79274" lon="6.60749">
        <ele>1928</ele>
        <time>2022-07-24T09:33:23Z</time>
      </trkpt>
      <trkpt lat="45.79275" lon="6.6075">
        <ele>1928</ele>
        <time>2022-07-24T09:33:24Z</time>
      </trkpt>
      <trkpt lat="45.79276" lon="6.60751">
        <ele>1928</ele>
        <time>2022-07-24T09:33:25Z</time>
      </trkpt>
      <trkpt lat="45.79277" lon="6.60752">
        <ele>1928</ele>
        <time>2022-07-24T09:33:26Z</time>
      </trkpt>
      <trkpt lat="45.79278" lon="6.60753">
        <ele>1928</ele>
        <time>2022-07-24T09:33:27Z</time>
      </trkpt>
      <trkpt lat="45.79279" lon="6.60753">
        <ele>1928</ele>
        <time>2022-07-24T09:33:28Z</time>
      </trkpt>
      <trkpt lat="45.7928" lon="6.60754">
        <ele>1928</ele>
        <time>2022-07-24T09:33:29Z</time>
      </trkpt>
      <trkpt lat="45.79281" lon="6.60755">
        <ele>1928</ele>
        <time>2022-07-24T09:33:30Z</time>
      </trkpt>
      <trkpt lat="45.79282" lon="6.60755">
        <ele>1929</ele>
        <time>2022-07-24T09:33:31Z</time>
      </trkpt>
      <trkpt lat="45.79284" lon="6.60756">
        <ele>1929</ele>
        <time>2022-07-24T09:33:32Z</time>
      </trkpt>
      <trkpt lat="45.79285" lon="6.60757">
        <ele>1929</ele>
        <time>2022-07-24T09:33:33Z</time>
      </trkpt>
      <trkpt lat="45.79286" lon="6.60757">
        <ele>1929</ele>
        <time>2022-07-24T09:33:34Z</time>
      </trkpt>
      <trkpt lat="45.79287" lon="6.60757">
        <ele>1929</ele>
        <time>2022-07-24T09:33:35Z</time>
      </trkpt>
      <trkpt lat="45.79287" lon="6.60758">
        <ele>1929</ele>
        <time>2022-07-24T09:33:36Z</time>
      </trkpt>
      <trkpt lat="45.79288" lon="6.60758">
        <ele>1929</ele>
        <time>2022-07-24T09:33:37Z</time>
      </trkpt>
      <trkpt lat="45.79288" lon="6.60758">
        <ele>1929</ele>
        <time>2022-07-24T09:33:38Z</time>
      </trkpt>
      <trkpt lat="45.79289" lon="6.60758">
        <ele>1929</ele>
        <time>2022-07-24T09:33:39Z</time>
      </trkpt>
      <trkpt lat="45.79289" lon="6.60759">
        <ele>1929</ele>
        <time>2022-07-24T09:33:40Z</time>
      </trkpt>
      <trkpt lat="45.7929" lon="6.60759">
        <ele>1930</ele>
        <time>2022-07-24T09:33:41Z</time>
      </trkpt>
      <trkpt lat="45.79291" lon="6.60759">
        <ele>1930</ele>
        <time>2022-07-24T09:33:42Z</time>
      </trkpt>
      <trkpt lat="45.79292" lon="6.6076">
        <ele>1930</ele>
        <time>2022-07-24T09:33:43Z</time>
      </trkpt>
      <trkpt lat="45.79293" lon="6.6076">
        <ele>1930</ele>
        <time>2022-07-24T09:33:44Z</time>
      </trkpt>
      <trkpt lat="45.79294" lon="6.60761">
        <ele>1930</ele>
        <time>2022-07-24T09:33:45Z</time>
      </trkpt>
      <trkpt lat="45.79295" lon="6.60761">
        <ele>1930</ele>
        <time>2022-07-24T09:33:46Z</time>
      </trkpt>
      <trkpt lat="45.79296" lon="6.60762">
        <ele>1930</ele>
        <time>2022-07-24T09:33:47Z</time>
      </trkpt>
      <trkpt lat="45.79298" lon="6.60762">
        <ele>1930</ele>
        <time>2022-07-24T09:33:48Z</time>
      </trkpt>
      <trkpt lat="45.79299" lon="6.60763">
        <ele>1930</ele>
        <time>2022-07-24T09:33:49Z</time>
      </trkpt>
      <trkpt lat="45.793" lon="6.60763">
        <ele>1930</ele>
        <time>2022-07-24T09:33:50Z</time>
      </trkpt>
      <trkpt lat="45.79301" lon="6.60764">
        <ele>1931</ele>
        <time>2022-07-24T09:33:51Z</time>
      </trkpt>
      <trkpt lat="45.79302" lon="6.60764">
        <ele>1931</ele>
        <time>2022-07-24T09:33:52Z</time>
      </trkpt>
      <trkpt lat="45.79303" lon="6.60764">
        <ele>1931</ele>
        <time>2022-07-24T09:33:53Z</time>
      </trkpt>
      <trkpt lat="45.79304" lon="6.60765">
        <ele>1931</ele>
        <time>2022-07-24T09:33:54Z</time>
      </trkpt>
      <trkpt lat="45.79305" lon="6.60766">
        <ele>1931</ele>
        <time>2022-07-24T09:33:55Z</time>
      </trkpt>
      <trkpt lat="45.79306" lon="6.60766">
        <ele>1931</ele>
        <time>2022-07-24T09:33:56Z</time>
      </trkpt>
      <trkpt lat="45.79307" lon="6.60767">
        <ele>1931</ele>
        <time>2022-07-24T09:33:57Z</time>
      </trkpt>
      <trkpt lat="45.79308" lon="6.60768">
        <ele>1931</ele>
        <time>2022-07-24T09:33:58Z</time>
      </trkpt>
      <trkpt lat="45.79309" lon="6.60769">
        <ele>1931</ele>
        <time>2022-07-24T09:33:59Z</time>
      </trkpt>
      <trkpt lat="45.7931" lon="6.6077">
        <ele>1931</ele>
        <time>2022-07-24T09:34:00Z</time>
      </trkpt>
      <trkpt lat="45.79311" lon="6.60771">
        <ele>1932</ele>
        <time>2022-07-24T09:34:01Z</time>
      </trkpt>
      <trkpt lat="45.79312" lon="6.60772">
        <ele>1932</ele>
        <time>2022-07-24T09:34:02Z</time>
      </trkpt>
      <trkpt lat="45.79313" lon="6.60772">
        <ele>1932</ele>
        <time>2022-07-24T09:34:03Z</time>
      </trkpt>
      <trkpt lat="45.79314" lon="6.60773">
        <ele>1932</ele>
        <time>2022-07-24T09:34:04Z</time>
      </trkpt>
      <trkpt lat="45.79315" lon="6.60774">
        <ele>1932</ele>
        <time>2022-07-24T09:34:05Z</time>
      </trkpt>
      <trkpt lat="45.79315" lon="6.60776">
        <ele>1932</ele>
        <time>2022-07-24T09:34:06Z</time>
      </trkpt>
      <trkpt lat="45.79316" lon="6.60777">
        <ele>1932</ele>
        <time>2022-07-24T09:34:07Z</time>
      </trkpt>
      <trkpt lat="45.79317" lon="6.60778">
        <ele>1932</ele>
        <time>2022-07-24T09:34:08Z</time>
      </trkpt>
      <trkpt lat="45.79318" lon="6.60779">
        <ele>1932</ele>
        <time>2022-07-24T09:34:09Z</time>
      </trkpt>
      <trkpt lat="45.79318" lon="6.6078">
        <ele>1932</ele>
        <time>2022-07-24T09:34:10Z</time>
      </trkpt>
      <trkpt lat="45.79319" lon="6.60781">
        <ele>1932</ele>
        <time>2022-07-24T09:34:11Z</time>
      </trkpt>
      <trkpt lat="45.7932" lon="6.60783">
        <ele>1932</ele>
        <time>2022-07-24T09:34:12Z</time>
      </trkpt>
      <trkpt lat="45.79321" lon="6.60784">
        <ele>1932</ele>
        <time>2022-07-24T09:34:13Z</time>
      </trkpt>
      <trkpt lat="45.79321" lon="6.60785">
        <ele>1932</ele>
        <time>2022-07-24T09:34:14Z</time>
      </trkpt>
      <trkpt lat="45.79322" lon="6.60786">
        <ele>1932</ele>
        <time>2022-07-24T09:34:15Z</time>
      </trkpt>
      <trkpt lat="45.79323" lon="6.60787">
        <ele>1933</ele>
        <time>2022-07-24T09:34:16Z</time>
      </trkpt>
      <trkpt lat="45.79323" lon="6.60788">
        <ele>1933</ele>
        <time>2022-07-24T09:34:17Z</time>
      </trkpt>
      <trkpt lat="45.79324" lon="6.60789">
        <ele>1933</ele>
        <time>2022-07-24T09:34:18Z</time>
      </trkpt>
      <trkpt lat="45.79324" lon="6.60791">
        <ele>1933</ele>
        <time>2022-07-24T09:34:19Z</time>
      </trkpt>
      <trkpt lat="45.79325" lon="6.60792">
        <ele>1933</ele>
        <time>2022-07-24T09:34:20Z</time>
      </trkpt>
      <trkpt lat="45.79326" lon="6.60795">
        <ele>1934</ele>
        <time>2022-07-24T09:34:28Z</time>
      </trkpt>
      <trkpt lat="45.79326" lon="6.60796">
        <ele>1934</ele>
        <time>2022-07-24T09:34:29Z</time>
      </trkpt>
      <trkpt lat="45.79326" lon="6.60797">
        <ele>1934</ele>
        <time>2022-07-24T09:34:30Z</time>
      </trkpt>
      <trkpt lat="45.79326" lon="6.60798">
        <ele>1934</ele>
        <time>2022-07-24T09:34:31Z</time>
      </trkpt>
      <trkpt lat="45.79326" lon="6.60799">
        <ele>1934</ele>
        <time>2022-07-24T09:34:32Z</time>
      </trkpt>
      <trkpt lat="45.79327" lon="6.60801">
        <ele>1934</ele>
        <time>2022-07-24T09:34:33Z</time>
      </trkpt>
      <trkpt lat="45.79327" lon="6.60802">
        <ele>1934</ele>
        <time>2022-07-24T09:34:34Z</time>
      </trkpt>
      <trkpt lat="45.79328" lon="6.60804">
        <ele>1934</ele>
        <time>2022-07-24T09:34:35Z</time>
      </trkpt>
      <trkpt lat="45.79328" lon="6.60806">
        <ele>1935</ele>
        <time>2022-07-24T09:34:36Z</time>
      </trkpt>
      <trkpt lat="45.79329" lon="6.60807">
        <ele>1935</ele>
        <time>2022-07-24T09:34:37Z</time>
      </trkpt>
      <trkpt lat="45.79329" lon="6.60809">
        <ele>1935</ele>
        <time>2022-07-24T09:34:38Z</time>
      </trkpt>
      <trkpt lat="45.7933" lon="6.60811">
        <ele>1935</ele>
        <time>2022-07-24T09:34:39Z</time>
      </trkpt>
      <trkpt lat="45.7933" lon="6.60812">
        <ele>1935</ele>
        <time>2022-07-24T09:34:40Z</time>
      </trkpt>
      <trkpt lat="45.79331" lon="6.60814">
        <ele>1935</ele>
        <time>2022-07-24T09:34:41Z</time>
      </trkpt>
      <trkpt lat="45.79331" lon="6.60815">
        <ele>1935</ele>
        <time>2022-07-24T09:34:42Z</time>
      </trkpt>
      <trkpt lat="45.79332" lon="6.60817">
        <ele>1935</ele>
        <time>2022-07-24T09:34:43Z</time>
      </trkpt>
      <trkpt lat="45.79332" lon="6.60819">
        <ele>1935</ele>
        <time>2022-07-24T09:34:44Z</time>
      </trkpt>
      <trkpt lat="45.79333" lon="6.6082">
        <ele>1935</ele>
        <time>2022-07-24T09:34:45Z</time>
      </trkpt>
      <trkpt lat="45.79333" lon="6.60822">
        <ele>1936</ele>
        <time>2022-07-24T09:34:46Z</time>
      </trkpt>
      <trkpt lat="45.79334" lon="6.60824">
        <ele>1936</ele>
        <time>2022-07-24T09:34:47Z</time>
      </trkpt>
      <trkpt lat="45.79334" lon="6.60825">
        <ele>1936</ele>
        <time>2022-07-24T09:34:48Z</time>
      </trkpt>
      <trkpt lat="45.79334" lon="6.60827">
        <ele>1936</ele>
        <time>2022-07-24T09:34:49Z</time>
      </trkpt>
      <trkpt lat="45.79335" lon="6.60828">
        <ele>1936</ele>
        <time>2022-07-24T09:34:50Z</time>
      </trkpt>
      <trkpt lat="45.79335" lon="6.6083">
        <ele>1936</ele>
        <time>2022-07-24T09:34:51Z</time>
      </trkpt>
      <trkpt lat="45.79336" lon="6.60831">
        <ele>1936</ele>
        <time>2022-07-24T09:34:52Z</time>
      </trkpt>
      <trkpt lat="45.79336" lon="6.60833">
        <ele>1936</ele>
        <time>2022-07-24T09:34:53Z</time>
      </trkpt>
      <trkpt lat="45.79337" lon="6.60834">
        <ele>1936</ele>
        <time>2022-07-24T09:34:54Z</time>
      </trkpt>
      <trkpt lat="45.79338" lon="6.60836">
        <ele>1936</ele>
        <time>2022-07-24T09:34:55Z</time>
      </trkpt>
      <trkpt lat="45.79338" lon="6.60838">
        <ele>1937</ele>
        <time>2022-07-24T09:34:56Z</time>
      </trkpt>
      <trkpt lat="45.79339" lon="6.60839">
        <ele>1937</ele>
        <time>2022-07-24T09:34:57Z</time>
      </trkpt>
      <trkpt lat="45.79339" lon="6.60841">
        <ele>1937</ele>
        <time>2022-07-24T09:34:58Z</time>
      </trkpt>
      <trkpt lat="45.7934" lon="6.60842">
        <ele>1937</ele>
        <time>2022-07-24T09:34:59Z</time>
      </trkpt>
      <trkpt lat="45.7934" lon="6.60843">
        <ele>1937</ele>
        <time>2022-07-24T09:35:00Z</time>
      </trkpt>
      <trkpt lat="45.79341" lon="6.60845">
        <ele>1937</ele>
        <time>2022-07-24T09:35:01Z</time>
      </trkpt>
      <trkpt lat="45.79342" lon="6.60846">
        <ele>1937</ele>
        <time>2022-07-24T09:35:02Z</time>
      </trkpt>
      <trkpt lat="45.79342" lon="6.60848">
        <ele>1937</ele>
        <time>2022-07-24T09:35:03Z</time>
      </trkpt>
      <trkpt lat="45.79343" lon="6.60849">
        <ele>1937</ele>
        <time>2022-07-24T09:35:04Z</time>
      </trkpt>
      <trkpt lat="45.79344" lon="6.6085">
        <ele>1937</ele>
        <time>2022-07-24T09:35:05Z</time>
      </trkpt>
      <trkpt lat="45.79345" lon="6.60852">
        <ele>1938</ele>
        <time>2022-07-24T09:35:06Z</time>
      </trkpt>
      <trkpt lat="45.79345" lon="6.60853">
        <ele>1938</ele>
        <time>2022-07-24T09:35:07Z</time>
      </trkpt>
      <trkpt lat="45.79346" lon="6.60855">
        <ele>1938</ele>
        <time>2022-07-24T09:35:08Z</time>
      </trkpt>
      <trkpt lat="45.79347" lon="6.60856">
        <ele>1938</ele>
        <time>2022-07-24T09:35:09Z</time>
      </trkpt>
      <trkpt lat="45.79348" lon="6.60858">
        <ele>1938</ele>
        <time>2022-07-24T09:35:10Z</time>
      </trkpt>
      <trkpt lat="45.79348" lon="6.60859">
        <ele>1938</ele>
        <time>2022-07-24T09:35:11Z</time>
      </trkpt>
      <trkpt lat="45.79349" lon="6.60861">
        <ele>1938</ele>
        <time>2022-07-24T09:35:12Z</time>
      </trkpt>
      <trkpt lat="45.7935" lon="6.60862">
        <ele>1938</ele>
        <time>2022-07-24T09:35:13Z</time>
      </trkpt>
      <trkpt lat="45.79351" lon="6.60863">
        <ele>1938</ele>
        <time>2022-07-24T09:35:14Z</time>
      </trkpt>
      <trkpt lat="45.79351" lon="6.60865">
        <ele>1938</ele>
        <time>2022-07-24T09:35:15Z</time>
      </trkpt>
      <trkpt lat="45.79352" lon="6.60866">
        <ele>1939</ele>
        <time>2022-07-24T09:35:16Z</time>
      </trkpt>
      <trkpt lat="45.79353" lon="6.60868">
        <ele>1939</ele>
        <time>2022-07-24T09:35:17Z</time>
      </trkpt>
      <trkpt lat="45.79354" lon="6.60869">
        <ele>1939</ele>
        <time>2022-07-24T09:35:18Z</time>
      </trkpt>
      <trkpt lat="45.79354" lon="6.6087">
        <ele>1939</ele>
        <time>2022-07-24T09:35:19Z</time>
      </trkpt>
      <trkpt lat="45.79355" lon="6.60872">
        <ele>1939</ele>
        <time>2022-07-24T09:35:20Z</time>
      </trkpt>
      <trkpt lat="45.79356" lon="6.60873">
        <ele>1939</ele>
        <time>2022-07-24T09:35:21Z</time>
      </trkpt>
      <trkpt lat="45.79357" lon="6.60874">
        <ele>1939</ele>
        <time>2022-07-24T09:35:22Z</time>
      </trkpt>
      <trkpt lat="45.79357" lon="6.60876">
        <ele>1939</ele>
        <time>2022-07-24T09:35:23Z</time>
      </trkpt>
      <trkpt lat="45.79358" lon="6.60877">
        <ele>1939</ele>
        <time>2022-07-24T09:35:24Z</time>
      </trkpt>
      <trkpt lat="45.79359" lon="6.60879">
        <ele>1939</ele>
        <time>2022-07-24T09:35:25Z</time>
      </trkpt>
      <trkpt lat="45.7936" lon="6.6088">
        <ele>1940</ele>
        <time>2022-07-24T09:35:26Z</time>
      </trkpt>
      <trkpt lat="45.7936" lon="6.60882">
        <ele>1940</ele>
        <time>2022-07-24T09:35:27Z</time>
      </trkpt>
      <trkpt lat="45.79361" lon="6.60883">
        <ele>1940</ele>
        <time>2022-07-24T09:35:28Z</time>
      </trkpt>
      <trkpt lat="45.79362" lon="6.60884">
        <ele>1940</ele>
        <time>2022-07-24T09:35:29Z</time>
      </trkpt>
      <trkpt lat="45.79362" lon="6.60886">
        <ele>1940</ele>
        <time>2022-07-24T09:35:30Z</time>
      </trkpt>
      <trkpt lat="45.79363" lon="6.60887">
        <ele>1940</ele>
        <time>2022-07-24T09:35:31Z</time>
      </trkpt>
      <trkpt lat="45.79364" lon="6.60888">
        <ele>1940</ele>
        <time>2022-07-24T09:35:32Z</time>
      </trkpt>
      <trkpt lat="45.79365" lon="6.60889">
        <ele>1940</ele>
        <time>2022-07-24T09:35:33Z</time>
      </trkpt>
      <trkpt lat="45.79366" lon="6.6089">
        <ele>1940</ele>
        <time>2022-07-24T09:35:34Z</time>
      </trkpt>
      <trkpt lat="45.79367" lon="6.60891">
        <ele>1940</ele>
        <time>2022-07-24T09:35:35Z</time>
      </trkpt>
      <trkpt lat="45.79367" lon="6.60892">
        <ele>1941</ele>
        <time>2022-07-24T09:35:36Z</time>
      </trkpt>
      <trkpt lat="45.79367" lon="6.60892">
        <ele>1941</ele>
        <time>2022-07-24T09:36:01Z</time>
      </trkpt>
      <trkpt lat="45.79367" lon="6.60892">
        <ele>1941</ele>
        <time>2022-07-24T09:36:02Z</time>
      </trkpt>
      <trkpt lat="45.79367" lon="6.60892">
        <ele>1941</ele>
        <time>2022-07-24T09:36:03Z</time>
      </trkpt>
      <trkpt lat="45.79367" lon="6.60892">
        <ele>1941</ele>
        <time>2022-07-24T09:36:04Z</time>
      </trkpt>
      <trkpt lat="45.79368" lon="6.60893">
        <ele>1941</ele>
        <time>2022-07-24T09:36:05Z</time>
      </trkpt>
      <trkpt lat="45.79368" lon="6.60894">
        <ele>1941</ele>
        <time>2022-07-24T09:36:06Z</time>
      </trkpt>
      <trkpt lat="45.79369" lon="6.60894">
        <ele>1941</ele>
        <time>2022-07-24T09:36:07Z</time>
      </trkpt>
      <trkpt lat="45.7937" lon="6.60895">
        <ele>1941</ele>
        <time>2022-07-24T09:36:08Z</time>
      </trkpt>
      <trkpt lat="45.79371" lon="6.60896">
        <ele>1941</ele>
        <time>2022-07-24T09:36:09Z</time>
      </trkpt>
      <trkpt lat="45.79371" lon="6.60897">
        <ele>1941</ele>
        <time>2022-07-24T09:36:10Z</time>
      </trkpt>
      <trkpt lat="45.79372" lon="6.60898">
        <ele>1942</ele>
        <time>2022-07-24T09:36:11Z</time>
      </trkpt>
      <trkpt lat="45.79373" lon="6.60899">
        <ele>1942</ele>
        <time>2022-07-24T09:36:12Z</time>
      </trkpt>
      <trkpt lat="45.79374" lon="6.60901">
        <ele>1942</ele>
        <time>2022-07-24T09:36:13Z</time>
      </trkpt>
      <trkpt lat="45.79375" lon="6.60902">
        <ele>1942</ele>
        <time>2022-07-24T09:36:14Z</time>
      </trkpt>
      <trkpt lat="45.79375" lon="6.60903">
        <ele>1942</ele>
        <time>2022-07-24T09:36:15Z</time>
      </trkpt>
      <trkpt lat="45.79376" lon="6.60904">
        <ele>1942</ele>
        <time>2022-07-24T09:36:16Z</time>
      </trkpt>
      <trkpt lat="45.79377" lon="6.60905">
        <ele>1942</ele>
        <time>2022-07-24T09:36:17Z</time>
      </trkpt>
      <trkpt lat="45.79378" lon="6.60906">
        <ele>1942</ele>
        <time>2022-07-24T09:36:18Z</time>
      </trkpt>
      <trkpt lat="45.79379" lon="6.60907">
        <ele>1942</ele>
        <time>2022-07-24T09:36:19Z</time>
      </trkpt>
      <trkpt lat="45.79379" lon="6.60908">
        <ele>1942</ele>
        <time>2022-07-24T09:36:20Z</time>
      </trkpt>
      <trkpt lat="45.7938" lon="6.60908">
        <ele>1942</ele>
        <time>2022-07-24T09:36:21Z</time>
      </trkpt>
      <trkpt lat="45.79381" lon="6.60909">
        <ele>1942</ele>
        <time>2022-07-24T09:36:22Z</time>
      </trkpt>
      <trkpt lat="45.79382" lon="6.6091">
        <ele>1942</ele>
        <time>2022-07-24T09:36:23Z</time>
      </trkpt>
      <trkpt lat="45.79383" lon="6.60912">
        <ele>1942</ele>
        <time>2022-07-24T09:36:24Z</time>
      </trkpt>
      <trkpt lat="45.79384" lon="6.60913">
        <ele>1942</ele>
        <time>2022-07-24T09:36:25Z</time>
      </trkpt>
      <trkpt lat="45.79385" lon="6.60914">
        <ele>1943</ele>
        <time>2022-07-24T09:36:26Z</time>
      </trkpt>
      <trkpt lat="45.79385" lon="6.60915">
        <ele>1943</ele>
        <time>2022-07-24T09:36:27Z</time>
      </trkpt>
      <trkpt lat="45.79386" lon="6.60916">
        <ele>1943</ele>
        <time>2022-07-24T09:36:28Z</time>
      </trkpt>
      <trkpt lat="45.79387" lon="6.60917">
        <ele>1943</ele>
        <time>2022-07-24T09:36:29Z</time>
      </trkpt>
      <trkpt lat="45.79388" lon="6.60918">
        <ele>1943</ele>
        <time>2022-07-24T09:36:30Z</time>
      </trkpt>
      <trkpt lat="45.79389" lon="6.60919">
        <ele>1943</ele>
        <time>2022-07-24T09:36:31Z</time>
      </trkpt>
      <trkpt lat="45.7939" lon="6.6092">
        <ele>1943</ele>
        <time>2022-07-24T09:36:32Z</time>
      </trkpt>
      <trkpt lat="45.79391" lon="6.60921">
        <ele>1943</ele>
        <time>2022-07-24T09:36:33Z</time>
      </trkpt>
      <trkpt lat="45.79392" lon="6.60922">
        <ele>1944</ele>
        <time>2022-07-24T09:36:34Z</time>
      </trkpt>
      <trkpt lat="45.79393" lon="6.60923">
        <ele>1944</ele>
        <time>2022-07-24T09:36:35Z</time>
      </trkpt>
      <trkpt lat="45.79393" lon="6.60924">
        <ele>1945</ele>
        <time>2022-07-24T09:36:36Z</time>
      </trkpt>
      <trkpt lat="45.79394" lon="6.60924">
        <ele>1945</ele>
        <time>2022-07-24T09:36:37Z</time>
      </trkpt>
      <trkpt lat="45.79395" lon="6.60925">
        <ele>1945</ele>
        <time>2022-07-24T09:36:38Z</time>
      </trkpt>
      <trkpt lat="45.79396" lon="6.60926">
        <ele>1945</ele>
        <time>2022-07-24T09:36:39Z</time>
      </trkpt>
      <trkpt lat="45.79397" lon="6.60927">
        <ele>1945</ele>
        <time>2022-07-24T09:36:40Z</time>
      </trkpt>
      <trkpt lat="45.79398" lon="6.60928">
        <ele>1945</ele>
        <time>2022-07-24T09:36:41Z</time>
      </trkpt>
      <trkpt lat="45.79398" lon="6.60929">
        <ele>1945</ele>
        <time>2022-07-24T09:36:42Z</time>
      </trkpt>
      <trkpt lat="45.79399" lon="6.60929">
        <ele>1945</ele>
        <time>2022-07-24T09:36:43Z</time>
      </trkpt>
      <trkpt lat="45.794" lon="6.6093">
        <ele>1945</ele>
        <time>2022-07-24T09:36:44Z</time>
      </trkpt>
      <trkpt lat="45.79401" lon="6.60931">
        <ele>1945</ele>
        <time>2022-07-24T09:36:45Z</time>
      </trkpt>
      <trkpt lat="45.79402" lon="6.60932">
        <ele>1945</ele>
        <time>2022-07-24T09:36:46Z</time>
      </trkpt>
      <trkpt lat="45.79403" lon="6.60933">
        <ele>1945</ele>
        <time>2022-07-24T09:36:47Z</time>
      </trkpt>
      <trkpt lat="45.79404" lon="6.60934">
        <ele>1945</ele>
        <time>2022-07-24T09:36:48Z</time>
      </trkpt>
      <trkpt lat="45.79405" lon="6.60934">
        <ele>1945</ele>
        <time>2022-07-24T09:36:49Z</time>
      </trkpt>
      <trkpt lat="45.79406" lon="6.60935">
        <ele>1945</ele>
        <time>2022-07-24T09:36:50Z</time>
      </trkpt>
      <trkpt lat="45.79406" lon="6.60936">
        <ele>1945</ele>
        <time>2022-07-24T09:36:51Z</time>
      </trkpt>
      <trkpt lat="45.79407" lon="6.60937">
        <ele>1945</ele>
        <time>2022-07-24T09:36:52Z</time>
      </trkpt>
      <trkpt lat="45.79408" lon="6.60939">
        <ele>1945</ele>
        <time>2022-07-24T09:36:53Z</time>
      </trkpt>
      <trkpt lat="45.79409" lon="6.6094">
        <ele>1945</ele>
        <time>2022-07-24T09:36:54Z</time>
      </trkpt>
      <trkpt lat="45.7941" lon="6.60941">
        <ele>1945</ele>
        <time>2022-07-24T09:36:55Z</time>
      </trkpt>
      <trkpt lat="45.79411" lon="6.60942">
        <ele>1946</ele>
        <time>2022-07-24T09:36:56Z</time>
      </trkpt>
      <trkpt lat="45.79411" lon="6.60943">
        <ele>1946</ele>
        <time>2022-07-24T09:36:57Z</time>
      </trkpt>
      <trkpt lat="45.79412" lon="6.60944">
        <ele>1946</ele>
        <time>2022-07-24T09:36:58Z</time>
      </trkpt>
      <trkpt lat="45.79413" lon="6.60945">
        <ele>1946</ele>
        <time>2022-07-24T09:36:59Z</time>
      </trkpt>
      <trkpt lat="45.79414" lon="6.60946">
        <ele>1946</ele>
        <time>2022-07-24T09:37:00Z</time>
      </trkpt>
      <trkpt lat="45.79415" lon="6.60947">
        <ele>1946</ele>
        <time>2022-07-24T09:37:01Z</time>
      </trkpt>
      <trkpt lat="45.79416" lon="6.60948">
        <ele>1946</ele>
        <time>2022-07-24T09:37:02Z</time>
      </trkpt>
      <trkpt lat="45.79417" lon="6.6095">
        <ele>1946</ele>
        <time>2022-07-24T09:37:03Z</time>
      </trkpt>
      <trkpt lat="45.79417" lon="6.60951">
        <ele>1946</ele>
        <time>2022-07-24T09:37:04Z</time>
      </trkpt>
      <trkpt lat="45.79418" lon="6.60952">
        <ele>1946</ele>
        <time>2022-07-24T09:37:05Z</time>
      </trkpt>
      <trkpt lat="45.79419" lon="6.60953">
        <ele>1946</ele>
        <time>2022-07-24T09:37:06Z</time>
      </trkpt>
      <trkpt lat="45.7942" lon="6.60954">
        <ele>1946</ele>
        <time>2022-07-24T09:37:07Z</time>
      </trkpt>
      <trkpt lat="45.79421" lon="6.60955">
        <ele>1946</ele>
        <time>2022-07-24T09:37:08Z</time>
      </trkpt>
      <trkpt lat="45.79422" lon="6.60956">
        <ele>1946</ele>
        <time>2022-07-24T09:37:09Z</time>
      </trkpt>
      <trkpt lat="45.79422" lon="6.60957">
        <ele>1946</ele>
        <time>2022-07-24T09:37:10Z</time>
      </trkpt>
      <trkpt lat="45.79423" lon="6.60958">
        <ele>1946</ele>
        <time>2022-07-24T09:37:11Z</time>
      </trkpt>
      <trkpt lat="45.79424" lon="6.60959">
        <ele>1946</ele>
        <time>2022-07-24T09:37:12Z</time>
      </trkpt>
      <trkpt lat="45.79425" lon="6.6096">
        <ele>1946</ele>
        <time>2022-07-24T09:37:13Z</time>
      </trkpt>
      <trkpt lat="45.79426" lon="6.60961">
        <ele>1946</ele>
        <time>2022-07-24T09:37:14Z</time>
      </trkpt>
      <trkpt lat="45.79427" lon="6.60962">
        <ele>1946</ele>
        <time>2022-07-24T09:37:15Z</time>
      </trkpt>
      <trkpt lat="45.79428" lon="6.60963">
        <ele>1947</ele>
        <time>2022-07-24T09:37:16Z</time>
      </trkpt>
      <trkpt lat="45.79429" lon="6.60964">
        <ele>1947</ele>
        <time>2022-07-24T09:37:17Z</time>
      </trkpt>
      <trkpt lat="45.7943" lon="6.60965">
        <ele>1947</ele>
        <time>2022-07-24T09:37:18Z</time>
      </trkpt>
      <trkpt lat="45.79431" lon="6.60966">
        <ele>1947</ele>
        <time>2022-07-24T09:37:19Z</time>
      </trkpt>
      <trkpt lat="45.79432" lon="6.60967">
        <ele>1947</ele>
        <time>2022-07-24T09:37:20Z</time>
      </trkpt>
      <trkpt lat="45.79433" lon="6.60968">
        <ele>1947</ele>
        <time>2022-07-24T09:37:21Z</time>
      </trkpt>
      <trkpt lat="45.79434" lon="6.60969">
        <ele>1947</ele>
        <time>2022-07-24T09:37:22Z</time>
      </trkpt>
      <trkpt lat="45.79435" lon="6.6097">
        <ele>1947</ele>
        <time>2022-07-24T09:37:23Z</time>
      </trkpt>
      <trkpt lat="45.79436" lon="6.60971">
        <ele>1947</ele>
        <time>2022-07-24T09:37:24Z</time>
      </trkpt>
      <trkpt lat="45.79436" lon="6.60972">
        <ele>1947</ele>
        <time>2022-07-24T09:37:25Z</time>
      </trkpt>
      <trkpt lat="45.79437" lon="6.60973">
        <ele>1947</ele>
        <time>2022-07-24T09:37:26Z</time>
      </trkpt>
      <trkpt lat="45.79438" lon="6.60974">
        <ele>1947</ele>
        <time>2022-07-24T09:37:27Z</time>
      </trkpt>
      <trkpt lat="45.79439" lon="6.60975">
        <ele>1947</ele>
        <time>2022-07-24T09:37:28Z</time>
      </trkpt>
      <trkpt lat="45.7944" lon="6.60976">
        <ele>1947</ele>
        <time>2022-07-24T09:37:29Z</time>
      </trkpt>
      <trkpt lat="45.79441" lon="6.60976">
        <ele>1947</ele>
        <time>2022-07-24T09:37:30Z</time>
      </trkpt>
      <trkpt lat="45.79442" lon="6.60977">
        <ele>1947</ele>
        <time>2022-07-24T09:37:31Z</time>
      </trkpt>
      <trkpt lat="45.79443" lon="6.60978">
        <ele>1947</ele>
        <time>2022-07-24T09:37:32Z</time>
      </trkpt>
      <trkpt lat="45.79444" lon="6.60979">
        <ele>1947</ele>
        <time>2022-07-24T09:37:33Z</time>
      </trkpt>
      <trkpt lat="45.79445" lon="6.6098">
        <ele>1947</ele>
        <time>2022-07-24T09:37:34Z</time>
      </trkpt>
      <trkpt lat="45.79446" lon="6.60981">
        <ele>1947</ele>
        <time>2022-07-24T09:37:35Z</time>
      </trkpt>
      <trkpt lat="45.79446" lon="6.60982">
        <ele>1948</ele>
        <time>2022-07-24T09:37:36Z</time>
      </trkpt>
      <trkpt lat="45.79447" lon="6.60983">
        <ele>1948</ele>
        <time>2022-07-24T09:37:37Z</time>
      </trkpt>
      <trkpt lat="45.79448" lon="6.60984">
        <ele>1948</ele>
        <time>2022-07-24T09:37:38Z</time>
      </trkpt>
      <trkpt lat="45.79449" lon="6.60985">
        <ele>1948</ele>
        <time>2022-07-24T09:37:39Z</time>
      </trkpt>
      <trkpt lat="45.7945" lon="6.60986">
        <ele>1948</ele>
        <time>2022-07-24T09:37:40Z</time>
      </trkpt>
      <trkpt lat="45.79451" lon="6.60987">
        <ele>1948</ele>
        <time>2022-07-24T09:37:41Z</time>
      </trkpt>
      <trkpt lat="45.79452" lon="6.60988">
        <ele>1948</ele>
        <time>2022-07-24T09:37:42Z</time>
      </trkpt>
      <trkpt lat="45.79453" lon="6.60989">
        <ele>1948</ele>
        <time>2022-07-24T09:37:43Z</time>
      </trkpt>
      <trkpt lat="45.79453" lon="6.6099">
        <ele>1948</ele>
        <time>2022-07-24T09:37:44Z</time>
      </trkpt>
      <trkpt lat="45.79454" lon="6.60991">
        <ele>1948</ele>
        <time>2022-07-24T09:37:45Z</time>
      </trkpt>
      <trkpt lat="45.79455" lon="6.60992">
        <ele>1949</ele>
        <time>2022-07-24T09:37:46Z</time>
      </trkpt>
      <trkpt lat="45.79456" lon="6.60993">
        <ele>1949</ele>
        <time>2022-07-24T09:37:47Z</time>
      </trkpt>
      <trkpt lat="45.79457" lon="6.60994">
        <ele>1949</ele>
        <time>2022-07-24T09:37:48Z</time>
      </trkpt>
      <trkpt lat="45.79457" lon="6.60995">
        <ele>1949</ele>
        <time>2022-07-24T09:37:49Z</time>
      </trkpt>
      <trkpt lat="45.79458" lon="6.60996">
        <ele>1949</ele>
        <time>2022-07-24T09:37:50Z</time>
      </trkpt>
      <trkpt lat="45.79459" lon="6.60998">
        <ele>1949</ele>
        <time>2022-07-24T09:37:51Z</time>
      </trkpt>
      <trkpt lat="45.7946" lon="6.60999">
        <ele>1949</ele>
        <time>2022-07-24T09:37:52Z</time>
      </trkpt>
      <trkpt lat="45.7946" lon="6.61">
        <ele>1949</ele>
        <time>2022-07-24T09:37:53Z</time>
      </trkpt>
      <trkpt lat="45.79461" lon="6.61001">
        <ele>1949</ele>
        <time>2022-07-24T09:37:54Z</time>
      </trkpt>
      <trkpt lat="45.79462" lon="6.61002">
        <ele>1949</ele>
        <time>2022-07-24T09:37:55Z</time>
      </trkpt>
      <trkpt lat="45.79462" lon="6.61003">
        <ele>1950</ele>
        <time>2022-07-24T09:37:56Z</time>
      </trkpt>
      <trkpt lat="45.79463" lon="6.61005">
        <ele>1950</ele>
        <time>2022-07-24T09:37:57Z</time>
      </trkpt>
      <trkpt lat="45.79464" lon="6.61006">
        <ele>1950</ele>
        <time>2022-07-24T09:37:58Z</time>
      </trkpt>
      <trkpt lat="45.79464" lon="6.61007">
        <ele>1950</ele>
        <time>2022-07-24T09:37:59Z</time>
      </trkpt>
      <trkpt lat="45.79465" lon="6.61008">
        <ele>1950</ele>
        <time>2022-07-24T09:38:00Z</time>
      </trkpt>
      <trkpt lat="45.79466" lon="6.61009">
        <ele>1950</ele>
        <time>2022-07-24T09:38:01Z</time>
      </trkpt>
      <trkpt lat="45.79467" lon="6.6101">
        <ele>1950</ele>
        <time>2022-07-24T09:38:02Z</time>
      </trkpt>
      <trkpt lat="45.79467" lon="6.61011">
        <ele>1950</ele>
        <time>2022-07-24T09:38:03Z</time>
      </trkpt>
      <trkpt lat="45.79468" lon="6.61012">
        <ele>1950</ele>
        <time>2022-07-24T09:38:04Z</time>
      </trkpt>
      <trkpt lat="45.79469" lon="6.61014">
        <ele>1950</ele>
        <time>2022-07-24T09:38:05Z</time>
      </trkpt>
      <trkpt lat="45.7947" lon="6.61015">
        <ele>1951</ele>
        <time>2022-07-24T09:38:06Z</time>
      </trkpt>
      <trkpt lat="45.79471" lon="6.61016">
        <ele>1951</ele>
        <time>2022-07-24T09:38:07Z</time>
      </trkpt>
      <trkpt lat="45.79471" lon="6.61017">
        <ele>1951</ele>
        <time>2022-07-24T09:38:08Z</time>
      </trkpt>
      <trkpt lat="45.79472" lon="6.61018">
        <ele>1951</ele>
        <time>2022-07-24T09:38:09Z</time>
      </trkpt>
      <trkpt lat="45.79473" lon="6.61019">
        <ele>1951</ele>
        <time>2022-07-24T09:38:10Z</time>
      </trkpt>
      <trkpt lat="45.79474" lon="6.61021">
        <ele>1951</ele>
        <time>2022-07-24T09:38:11Z</time>
      </trkpt>
      <trkpt lat="45.79475" lon="6.61022">
        <ele>1951</ele>
        <time>2022-07-24T09:38:12Z</time>
      </trkpt>
      <trkpt lat="45.79476" lon="6.61023">
        <ele>1951</ele>
        <time>2022-07-24T09:38:13Z</time>
      </trkpt>
      <trkpt lat="45.79476" lon="6.61024">
        <ele>1951</ele>
        <time>2022-07-24T09:38:14Z</time>
      </trkpt>
      <trkpt lat="45.79477" lon="6.61025">
        <ele>1951</ele>
        <time>2022-07-24T09:38:15Z</time>
      </trkpt>
      <trkpt lat="45.79478" lon="6.61026">
        <ele>1952</ele>
        <time>2022-07-24T09:38:16Z</time>
      </trkpt>
      <trkpt lat="45.79479" lon="6.61027">
        <ele>1952</ele>
        <time>2022-07-24T09:38:17Z</time>
      </trkpt>
      <trkpt lat="45.7948" lon="6.61028">
        <ele>1952</ele>
        <time>2022-07-24T09:38:18Z</time>
      </trkpt>
      <trkpt lat="45.79481" lon="6.61029">
        <ele>1952</ele>
        <time>2022-07-24T09:38:19Z</time>
      </trkpt>
      <trkpt lat="45.79482" lon="6.6103">
        <ele>1952</ele>
        <time>2022-07-24T09:38:20Z</time>
      </trkpt>
      <trkpt lat="45.79483" lon="6.61031">
        <ele>1952</ele>
        <time>2022-07-24T09:38:21Z</time>
      </trkpt>
      <trkpt lat="45.79484" lon="6.61032">
        <ele>1952</ele>
        <time>2022-07-24T09:38:22Z</time>
      </trkpt>
      <trkpt lat="45.79485" lon="6.61033">
        <ele>1952</ele>
        <time>2022-07-24T09:38:23Z</time>
      </trkpt>
      <trkpt lat="45.79486" lon="6.61034">
        <ele>1952</ele>
        <time>2022-07-24T09:38:24Z</time>
      </trkpt>
      <trkpt lat="45.79487" lon="6.61035">
        <ele>1952</ele>
        <time>2022-07-24T09:38:25Z</time>
      </trkpt>
      <trkpt lat="45.79488" lon="6.61036">
        <ele>1953</ele>
        <time>2022-07-24T09:38:26Z</time>
      </trkpt>
      <trkpt lat="45.79489" lon="6.61037">
        <ele>1953</ele>
        <time>2022-07-24T09:38:27Z</time>
      </trkpt>
      <trkpt lat="45.7949" lon="6.61037">
        <ele>1953</ele>
        <time>2022-07-24T09:38:28Z</time>
      </trkpt>
      <trkpt lat="45.79491" lon="6.61038">
        <ele>1953</ele>
        <time>2022-07-24T09:38:29Z</time>
      </trkpt>
      <trkpt lat="45.79492" lon="6.61039">
        <ele>1953</ele>
        <time>2022-07-24T09:38:30Z</time>
      </trkpt>
      <trkpt lat="45.79492" lon="6.6104">
        <ele>1953</ele>
        <time>2022-07-24T09:38:31Z</time>
      </trkpt>
      <trkpt lat="45.79493" lon="6.61041">
        <ele>1953</ele>
        <time>2022-07-24T09:38:32Z</time>
      </trkpt>
      <trkpt lat="45.79494" lon="6.61042">
        <ele>1953</ele>
        <time>2022-07-24T09:38:33Z</time>
      </trkpt>
      <trkpt lat="45.79495" lon="6.61043">
        <ele>1953</ele>
        <time>2022-07-24T09:38:34Z</time>
      </trkpt>
      <trkpt lat="45.79496" lon="6.61044">
        <ele>1953</ele>
        <time>2022-07-24T09:38:35Z</time>
      </trkpt>
      <trkpt lat="45.79497" lon="6.61046">
        <ele>1954</ele>
        <time>2022-07-24T09:38:36Z</time>
      </trkpt>
      <trkpt lat="45.79498" lon="6.61047">
        <ele>1954</ele>
        <time>2022-07-24T09:38:37Z</time>
      </trkpt>
      <trkpt lat="45.79498" lon="6.61048">
        <ele>1954</ele>
        <time>2022-07-24T09:38:38Z</time>
      </trkpt>
      <trkpt lat="45.79499" lon="6.61049">
        <ele>1954</ele>
        <time>2022-07-24T09:38:39Z</time>
      </trkpt>
      <trkpt lat="45.795" lon="6.6105">
        <ele>1954</ele>
        <time>2022-07-24T09:38:40Z</time>
      </trkpt>
      <trkpt lat="45.79501" lon="6.61051">
        <ele>1954</ele>
        <time>2022-07-24T09:38:41Z</time>
      </trkpt>
      <trkpt lat="45.79502" lon="6.61052">
        <ele>1954</ele>
        <time>2022-07-24T09:38:42Z</time>
      </trkpt>
      <trkpt lat="45.79502" lon="6.61054">
        <ele>1954</ele>
        <time>2022-07-24T09:38:43Z</time>
      </trkpt>
      <trkpt lat="45.79503" lon="6.61055">
        <ele>1954</ele>
        <time>2022-07-24T09:38:44Z</time>
      </trkpt>
      <trkpt lat="45.79504" lon="6.61056">
        <ele>1954</ele>
        <time>2022-07-24T09:38:45Z</time>
      </trkpt>
      <trkpt lat="45.79505" lon="6.61057">
        <ele>1955</ele>
        <time>2022-07-24T09:38:46Z</time>
      </trkpt>
      <trkpt lat="45.79506" lon="6.61058">
        <ele>1955</ele>
        <time>2022-07-24T09:38:47Z</time>
      </trkpt>
      <trkpt lat="45.79507" lon="6.61059">
        <ele>1955</ele>
        <time>2022-07-24T09:38:48Z</time>
      </trkpt>
      <trkpt lat="45.79508" lon="6.6106">
        <ele>1955</ele>
        <time>2022-07-24T09:38:49Z</time>
      </trkpt>
      <trkpt lat="45.79508" lon="6.6106">
        <ele>1955</ele>
        <time>2022-07-24T09:38:50Z</time>
      </trkpt>
      <trkpt lat="45.79509" lon="6.61061">
        <ele>1955</ele>
        <time>2022-07-24T09:38:51Z</time>
      </trkpt>
      <trkpt lat="45.7951" lon="6.61061">
        <ele>1955</ele>
        <time>2022-07-24T09:38:52Z</time>
      </trkpt>
      <trkpt lat="45.79511" lon="6.61062">
        <ele>1955</ele>
        <time>2022-07-24T09:38:53Z</time>
      </trkpt>
      <trkpt lat="45.79511" lon="6.61063">
        <ele>1955</ele>
        <time>2022-07-24T09:38:54Z</time>
      </trkpt>
      <trkpt lat="45.79512" lon="6.61063">
        <ele>1955</ele>
        <time>2022-07-24T09:38:55Z</time>
      </trkpt>
      <trkpt lat="45.79513" lon="6.61064">
        <ele>1956</ele>
        <time>2022-07-24T09:38:56Z</time>
      </trkpt>
      <trkpt lat="45.79514" lon="6.61064">
        <ele>1956</ele>
        <time>2022-07-24T09:38:57Z</time>
      </trkpt>
      <trkpt lat="45.79515" lon="6.61064">
        <ele>1956</ele>
        <time>2022-07-24T09:38:58Z</time>
      </trkpt>
      <trkpt lat="45.79516" lon="6.61065">
        <ele>1956</ele>
        <time>2022-07-24T09:38:59Z</time>
      </trkpt>
      <trkpt lat="45.79516" lon="6.61064">
        <ele>1956</ele>
        <time>2022-07-24T09:39:00Z</time>
      </trkpt>
      <trkpt lat="45.79517" lon="6.61064">
        <ele>1956</ele>
        <time>2022-07-24T09:39:01Z</time>
      </trkpt>
      <trkpt lat="45.79518" lon="6.61064">
        <ele>1956</ele>
        <time>2022-07-24T09:39:02Z</time>
      </trkpt>
      <trkpt lat="45.79519" lon="6.61063">
        <ele>1956</ele>
        <time>2022-07-24T09:39:03Z</time>
      </trkpt>
      <trkpt lat="45.79519" lon="6.61062">
        <ele>1956</ele>
        <time>2022-07-24T09:39:04Z</time>
      </trkpt>
      <trkpt lat="45.7952" lon="6.61061">
        <ele>1956</ele>
        <time>2022-07-24T09:39:05Z</time>
      </trkpt>
      <trkpt lat="45.79521" lon="6.61059">
        <ele>1957</ele>
        <time>2022-07-24T09:39:22Z</time>
      </trkpt>
      <trkpt lat="45.79521" lon="6.61059">
        <ele>1957</ele>
        <time>2022-07-24T09:39:23Z</time>
      </trkpt>
      <trkpt lat="45.79521" lon="6.61058">
        <ele>1957</ele>
        <time>2022-07-24T09:39:24Z</time>
      </trkpt>
      <trkpt lat="45.79521" lon="6.61059">
        <ele>1957</ele>
        <time>2022-07-24T09:39:25Z</time>
      </trkpt>
      <trkpt lat="45.7952" lon="6.61059">
        <ele>1957</ele>
        <time>2022-07-24T09:39:26Z</time>
      </trkpt>
      <trkpt lat="45.7952" lon="6.6106">
        <ele>1957</ele>
        <time>2022-07-24T09:39:27Z</time>
      </trkpt>
      <trkpt lat="45.7952" lon="6.61061">
        <ele>1957</ele>
        <time>2022-07-24T09:39:28Z</time>
      </trkpt>
      <trkpt lat="45.7952" lon="6.61061">
        <ele>1957</ele>
        <time>2022-07-24T09:39:29Z</time>
      </trkpt>
      <trkpt lat="45.7952" lon="6.61062">
        <ele>1957</ele>
        <time>2022-07-24T09:39:30Z</time>
      </trkpt>
      <trkpt lat="45.7952" lon="6.61063">
        <ele>1957</ele>
        <time>2022-07-24T09:39:31Z</time>
      </trkpt>
      <trkpt lat="45.79521" lon="6.61063">
        <ele>1957</ele>
        <time>2022-07-24T09:39:32Z</time>
      </trkpt>
      <trkpt lat="45.79521" lon="6.61066">
        <ele>1958</ele>
        <time>2022-07-24T09:41:02Z</time>
      </trkpt>
      <trkpt lat="45.79522" lon="6.61067">
        <ele>1958</ele>
        <time>2022-07-24T09:41:03Z</time>
      </trkpt>
      <trkpt lat="45.79522" lon="6.61068">
        <ele>1958</ele>
        <time>2022-07-24T09:41:04Z</time>
      </trkpt>
      <trkpt lat="45.79522" lon="6.61068">
        <ele>1958</ele>
        <time>2022-07-24T09:41:05Z</time>
      </trkpt>
      <trkpt lat="45.79522" lon="6.61068">
        <ele>1958</ele>
        <time>2022-07-24T09:41:06Z</time>
      </trkpt>
      <trkpt lat="45.79521" lon="6.61067">
        <ele>1957</ele>
        <time>2022-07-24T09:41:07Z</time>
      </trkpt>
      <trkpt lat="45.79521" lon="6.61066">
        <ele>1957</ele>
        <time>2022-07-24T09:41:08Z</time>
      </trkpt>
      <trkpt lat="45.79521" lon="6.61064">
        <ele>1957</ele>
        <time>2022-07-24T09:41:09Z</time>
      </trkpt>
      <trkpt lat="45.79521" lon="6.61063">
        <ele>1957</ele>
        <time>2022-07-24T09:41:10Z</time>
      </trkpt>
      <trkpt lat="45.7952" lon="6.61061">
        <ele>1957</ele>
        <time>2022-07-24T09:41:11Z</time>
      </trkpt>
      <trkpt lat="45.7952" lon="6.61059">
        <ele>1957</ele>
        <time>2022-07-24T09:41:12Z</time>
      </trkpt>
      <trkpt lat="45.7952" lon="6.61058">
        <ele>1957</ele>
        <time>2022-07-24T09:41:13Z</time>
      </trkpt>
      <trkpt lat="45.7952" lon="6.61056">
        <ele>1957</ele>
        <time>2022-07-24T09:41:14Z</time>
      </trkpt>
      <trkpt lat="45.7952" lon="6.61054">
        <ele>1957</ele>
        <time>2022-07-24T09:41:15Z</time>
      </trkpt>
      <trkpt lat="45.7952" lon="6.61053">
        <ele>1957</ele>
        <time>2022-07-24T09:41:16Z</time>
      </trkpt>
      <trkpt lat="45.79521" lon="6.61051">
        <ele>1957</ele>
        <time>2022-07-24T09:41:17Z</time>
      </trkpt>
      <trkpt lat="45.79522" lon="6.6105">
        <ele>1957</ele>
        <time>2022-07-24T09:41:18Z</time>
      </trkpt>
      <trkpt lat="45.79522" lon="6.61049">
        <ele>1957</ele>
        <time>2022-07-24T09:41:19Z</time>
      </trkpt>
      <trkpt lat="45.79523" lon="6.61048">
        <ele>1957</ele>
        <time>2022-07-24T09:41:20Z</time>
      </trkpt>
      <trkpt lat="45.79524" lon="6.61047">
        <ele>1958</ele>
        <time>2022-07-24T09:41:21Z</time>
      </trkpt>
      <trkpt lat="45.79525" lon="6.61046">
        <ele>1958</ele>
        <time>2022-07-24T09:41:22Z</time>
      </trkpt>
      <trkpt lat="45.79525" lon="6.61045">
        <ele>1958</ele>
        <time>2022-07-24T09:41:23Z</time>
      </trkpt>
      <trkpt lat="45.79526" lon="6.61045">
        <ele>1958</ele>
        <time>2022-07-24T09:41:24Z</time>
      </trkpt>
      <trkpt lat="45.79526" lon="6.61044">
        <ele>1958</ele>
        <time>2022-07-24T09:41:25Z</time>
      </trkpt>
      <trkpt lat="45.79526" lon="6.61044">
        <ele>1959</ele>
        <time>2022-07-24T09:41:26Z</time>
      </trkpt>
      <trkpt lat="45.79526" lon="6.61044">
        <ele>1959</ele>
        <time>2022-07-24T09:41:27Z</time>
      </trkpt>
      <trkpt lat="45.79526" lon="6.61043">
        <ele>1959</ele>
        <time>2022-07-24T09:41:28Z</time>
      </trkpt>
      <trkpt lat="45.79526" lon="6.61043">
        <ele>1959</ele>
        <time>2022-07-24T09:41:29Z</time>
      </trkpt>
      <trkpt lat="45.79525" lon="6.61043">
        <ele>1959</ele>
        <time>2022-07-24T09:41:30Z</time>
      </trkpt>
      <trkpt lat="45.79524" lon="6.61043">
        <ele>1959</ele>
        <time>2022-07-24T09:41:31Z</time>
      </trkpt>
      <trkpt lat="45.79523" lon="6.61043">
        <ele>1959</ele>
        <time>2022-07-24T09:41:32Z</time>
      </trkpt>
      <trkpt lat="45.79522" lon="6.61043">
        <ele>1959</ele>
        <time>2022-07-24T09:41:33Z</time>
      </trkpt>
      <trkpt lat="45.79521" lon="6.61043">
        <ele>1959</ele>
        <time>2022-07-24T09:41:34Z</time>
      </trkpt>
      <trkpt lat="45.7952" lon="6.61043">
        <ele>1959</ele>
        <time>2022-07-24T09:41:35Z</time>
      </trkpt>
      <trkpt lat="45.79521" lon="6.61041">
        <ele>1959</ele>
        <time>2022-07-24T09:42:34Z</time>
      </trkpt>
      <trkpt lat="45.79521" lon="6.6104">
        <ele>1959</ele>
        <time>2022-07-24T09:42:35Z</time>
      </trkpt>
      <trkpt lat="45.79522" lon="6.61038">
        <ele>1959</ele>
        <time>2022-07-24T09:42:36Z</time>
      </trkpt>
      <trkpt lat="45.79522" lon="6.61038">
        <ele>1959</ele>
        <time>2022-07-24T09:42:37Z</time>
      </trkpt>
      <trkpt lat="45.79522" lon="6.61038">
        <ele>1959</ele>
        <time>2022-07-24T09:42:38Z</time>
      </trkpt>
      <trkpt lat="45.79523" lon="6.61039">
        <ele>1959</ele>
        <time>2022-07-24T09:42:39Z</time>
      </trkpt>
      <trkpt lat="45.79523" lon="6.61039">
        <ele>1959</ele>
        <time>2022-07-24T09:42:40Z</time>
      </trkpt>
      <trkpt lat="45.79524" lon="6.61039">
        <ele>1960</ele>
        <time>2022-07-24T09:42:41Z</time>
      </trkpt>
      <trkpt lat="45.79525" lon="6.6104">
        <ele>1960</ele>
        <time>2022-07-24T09:42:42Z</time>
      </trkpt>
      <trkpt lat="45.79525" lon="6.6104">
        <ele>1960</ele>
        <time>2022-07-24T09:42:43Z</time>
      </trkpt>
      <trkpt lat="45.79525" lon="6.6104">
        <ele>1960</ele>
        <time>2022-07-24T09:42:44Z</time>
      </trkpt>
      <trkpt lat="45.79525" lon="6.61041">
        <ele>1960</ele>
        <time>2022-07-24T09:42:45Z</time>
      </trkpt>
      <trkpt lat="45.79525" lon="6.61042">
        <ele>1960</ele>
        <time>2022-07-24T09:42:46Z</time>
      </trkpt>
      <trkpt lat="45.79525" lon="6.61042">
        <ele>1960</ele>
        <time>2022-07-24T09:42:47Z</time>
      </trkpt>
      <trkpt lat="45.79525" lon="6.61042">
        <ele>1960</ele>
        <time>2022-07-24T09:42:48Z</time>
      </trkpt>
      <trkpt lat="45.79525" lon="6.61042">
        <ele>1960</ele>
        <time>2022-07-24T09:42:49Z</time>
      </trkpt>
      <trkpt lat="45.79525" lon="6.61042">
        <ele>1960</ele>
        <time>2022-07-24T09:42:50Z</time>
      </trkpt>
      <trkpt lat="45.79525" lon="6.61042">
        <ele>1960</ele>
        <time>2022-07-24T09:42:51Z</time>
      </trkpt>
      <trkpt lat="45.79525" lon="6.61043">
        <ele>1959</ele>
        <time>2022-07-24T09:42:52Z</time>
      </trkpt>
      <trkpt lat="45.79525" lon="6.61044">
        <ele>1959</ele>
        <time>2022-07-24T09:42:53Z</time>
      </trkpt>
      <trkpt lat="45.79525" lon="6.61046">
        <ele>1959</ele>
        <time>2022-07-24T09:42:54Z</time>
      </trkpt>
      <trkpt lat="45.79525" lon="6.61047">
        <ele>1959</ele>
        <time>2022-07-24T09:42:55Z</time>
      </trkpt>
      <trkpt lat="45.79524" lon="6.61049">
        <ele>1959</ele>
        <time>2022-07-24T09:42:56Z</time>
      </trkpt>
      <trkpt lat="45.79523" lon="6.61051">
        <ele>1958</ele>
        <time>2022-07-24T09:42:57Z</time>
      </trkpt>
      <trkpt lat="45.79522" lon="6.61053">
        <ele>1958</ele>
        <time>2022-07-24T09:42:58Z</time>
      </trkpt>
      <trkpt lat="45.79521" lon="6.61055">
        <ele>1958</ele>
        <time>2022-07-24T09:42:59Z</time>
      </trkpt>
      <trkpt lat="45.79521" lon="6.61057">
        <ele>1958</ele>
        <time>2022-07-24T09:43:00Z</time>
      </trkpt>
      <trkpt lat="45.79521" lon="6.6106">
        <ele>1958</ele>
        <time>2022-07-24T09:43:01Z</time>
      </trkpt>
      <trkpt lat="45.79522" lon="6.61062">
        <ele>1956</ele>
        <time>2022-07-24T09:43:25Z</time>
      </trkpt>
      <trkpt lat="45.79522" lon="6.61063">
        <ele>1956</ele>
        <time>2022-07-24T09:43:26Z</time>
      </trkpt>
      <trkpt lat="45.79522" lon="6.61064">
        <ele>1956</ele>
        <time>2022-07-24T09:43:27Z</time>
      </trkpt>
      <trkpt lat="45.79523" lon="6.61065">
        <ele>1956</ele>
        <time>2022-07-24T09:43:28Z</time>
      </trkpt>
      <trkpt lat="45.79523" lon="6.61066">
        <ele>1956</ele>
        <time>2022-07-24T09:43:29Z</time>
      </trkpt>
      <trkpt lat="45.79524" lon="6.61067">
        <ele>1956</ele>
        <time>2022-07-24T09:43:30Z</time>
      </trkpt>
      <trkpt lat="45.79524" lon="6.61068">
        <ele>1956</ele>
        <time>2022-07-24T09:43:31Z</time>
      </trkpt>
      <trkpt lat="45.79525" lon="6.61069">
        <ele>1956</ele>
        <time>2022-07-24T09:43:32Z</time>
      </trkpt>
      <trkpt lat="45.79526" lon="6.6107">
        <ele>1956</ele>
        <time>2022-07-24T09:43:33Z</time>
      </trkpt>
      <trkpt lat="45.79527" lon="6.61071">
        <ele>1956</ele>
        <time>2022-07-24T09:43:34Z</time>
      </trkpt>
      <trkpt lat="45.79528" lon="6.61072">
        <ele>1956</ele>
        <time>2022-07-24T09:43:35Z</time>
      </trkpt>
      <trkpt lat="45.79529" lon="6.61072">
        <ele>1956</ele>
        <time>2022-07-24T09:43:36Z</time>
      </trkpt>
      <trkpt lat="45.7953" lon="6.61073">
        <ele>1956</ele>
        <time>2022-07-24T09:43:37Z</time>
      </trkpt>
      <trkpt lat="45.7953" lon="6.61073">
        <ele>1956</ele>
        <time>2022-07-24T09:43:38Z</time>
      </trkpt>
      <trkpt lat="45.79531" lon="6.61074">
        <ele>1956</ele>
        <time>2022-07-24T09:43:39Z</time>
      </trkpt>
      <trkpt lat="45.79532" lon="6.61074">
        <ele>1956</ele>
        <time>2022-07-24T09:43:40Z</time>
      </trkpt>
      <trkpt lat="45.79533" lon="6.61075">
        <ele>1957</ele>
        <time>2022-07-24T09:43:41Z</time>
      </trkpt>
      <trkpt lat="45.79534" lon="6.61075">
        <ele>1956</ele>
        <time>2022-07-24T09:43:42Z</time>
      </trkpt>
      <trkpt lat="45.79535" lon="6.61076">
        <ele>1956</ele>
        <time>2022-07-24T09:43:43Z</time>
      </trkpt>
      <trkpt lat="45.79536" lon="6.61077">
        <ele>1956</ele>
        <time>2022-07-24T09:43:44Z</time>
      </trkpt>
      <trkpt lat="45.79537" lon="6.61077">
        <ele>1956</ele>
        <time>2022-07-24T09:43:45Z</time>
      </trkpt>
      <trkpt lat="45.79538" lon="6.61078">
        <ele>1956</ele>
        <time>2022-07-24T09:43:46Z</time>
      </trkpt>
      <trkpt lat="45.79539" lon="6.61078">
        <ele>1956</ele>
        <time>2022-07-24T09:43:47Z</time>
      </trkpt>
      <trkpt lat="45.7954" lon="6.61079">
        <ele>1956</ele>
        <time>2022-07-24T09:43:48Z</time>
      </trkpt>
      <trkpt lat="45.79541" lon="6.61079">
        <ele>1956</ele>
        <time>2022-07-24T09:43:49Z</time>
      </trkpt>
      <trkpt lat="45.79542" lon="6.61079">
        <ele>1956</ele>
        <time>2022-07-24T09:43:50Z</time>
      </trkpt>
      <trkpt lat="45.79543" lon="6.6108">
        <ele>1956</ele>
        <time>2022-07-24T09:43:51Z</time>
      </trkpt>
      <trkpt lat="45.79544" lon="6.6108">
        <ele>1956</ele>
        <time>2022-07-24T09:43:52Z</time>
      </trkpt>
      <trkpt lat="45.79545" lon="6.61081">
        <ele>1956</ele>
        <time>2022-07-24T09:43:53Z</time>
      </trkpt>
      <trkpt lat="45.79546" lon="6.61081">
        <ele>1956</ele>
        <time>2022-07-24T09:43:54Z</time>
      </trkpt>
      <trkpt lat="45.79547" lon="6.61082">
        <ele>1956</ele>
        <time>2022-07-24T09:43:55Z</time>
      </trkpt>
      <trkpt lat="45.79548" lon="6.61082">
        <ele>1956</ele>
        <time>2022-07-24T09:43:56Z</time>
      </trkpt>
      <trkpt lat="45.79549" lon="6.61083">
        <ele>1956</ele>
        <time>2022-07-24T09:43:57Z</time>
      </trkpt>
      <trkpt lat="45.7955" lon="6.61084">
        <ele>1956</ele>
        <time>2022-07-24T09:43:58Z</time>
      </trkpt>
      <trkpt lat="45.79552" lon="6.61084">
        <ele>1956</ele>
        <time>2022-07-24T09:43:59Z</time>
      </trkpt>
      <trkpt lat="45.79553" lon="6.61085">
        <ele>1956</ele>
        <time>2022-07-24T09:44:00Z</time>
      </trkpt>
      <trkpt lat="45.79554" lon="6.61086">
        <ele>1957</ele>
        <time>2022-07-24T09:44:01Z</time>
      </trkpt>
      <trkpt lat="45.79555" lon="6.61087">
        <ele>1957</ele>
        <time>2022-07-24T09:44:02Z</time>
      </trkpt>
      <trkpt lat="45.79556" lon="6.61087">
        <ele>1957</ele>
        <time>2022-07-24T09:44:03Z</time>
      </trkpt>
      <trkpt lat="45.79557" lon="6.61088">
        <ele>1957</ele>
        <time>2022-07-24T09:44:04Z</time>
      </trkpt>
      <trkpt lat="45.79558" lon="6.61089">
        <ele>1957</ele>
        <time>2022-07-24T09:44:05Z</time>
      </trkpt>
      <trkpt lat="45.79559" lon="6.61089">
        <ele>1957</ele>
        <time>2022-07-24T09:44:06Z</time>
      </trkpt>
      <trkpt lat="45.7956" lon="6.6109">
        <ele>1957</ele>
        <time>2022-07-24T09:44:07Z</time>
      </trkpt>
      <trkpt lat="45.79561" lon="6.61091">
        <ele>1957</ele>
        <time>2022-07-24T09:44:08Z</time>
      </trkpt>
      <trkpt lat="45.79563" lon="6.61091">
        <ele>1957</ele>
        <time>2022-07-24T09:44:09Z</time>
      </trkpt>
      <trkpt lat="45.79564" lon="6.61092">
        <ele>1958</ele>
        <time>2022-07-24T09:45:05Z</time>
      </trkpt>
      <trkpt lat="45.79565" lon="6.61092">
        <ele>1958</ele>
        <time>2022-07-24T09:45:06Z</time>
      </trkpt>
      <trkpt lat="45.79565" lon="6.61092">
        <ele>1958</ele>
        <time>2022-07-24T09:45:07Z</time>
      </trkpt>
      <trkpt lat="45.79566" lon="6.61093">
        <ele>1958</ele>
        <time>2022-07-24T09:45:08Z</time>
      </trkpt>
      <trkpt lat="45.79567" lon="6.61093">
        <ele>1958</ele>
        <time>2022-07-24T09:45:09Z</time>
      </trkpt>
      <trkpt lat="45.79567" lon="6.61094">
        <ele>1958</ele>
        <time>2022-07-24T09:45:10Z</time>
      </trkpt>
      <trkpt lat="45.79568" lon="6.61095">
        <ele>1958</ele>
        <time>2022-07-24T09:45:11Z</time>
      </trkpt>
      <trkpt lat="45.79569" lon="6.61095">
        <ele>1958</ele>
        <time>2022-07-24T09:45:12Z</time>
      </trkpt>
      <trkpt lat="45.7957" lon="6.61096">
        <ele>1958</ele>
        <time>2022-07-24T09:45:13Z</time>
      </trkpt>
      <trkpt lat="45.79571" lon="6.61097">
        <ele>1958</ele>
        <time>2022-07-24T09:45:14Z</time>
      </trkpt>
      <trkpt lat="45.79572" lon="6.61098">
        <ele>1958</ele>
        <time>2022-07-24T09:45:15Z</time>
      </trkpt>
      <trkpt lat="45.79573" lon="6.61099">
        <ele>1958</ele>
        <time>2022-07-24T09:45:16Z</time>
      </trkpt>
      <trkpt lat="45.79574" lon="6.611">
        <ele>1958</ele>
        <time>2022-07-24T09:45:17Z</time>
      </trkpt>
      <trkpt lat="45.79575" lon="6.61101">
        <ele>1958</ele>
        <time>2022-07-24T09:45:18Z</time>
      </trkpt>
      <trkpt lat="45.79577" lon="6.61101">
        <ele>1958</ele>
        <time>2022-07-24T09:45:19Z</time>
      </trkpt>
      <trkpt lat="45.79578" lon="6.61102">
        <ele>1958</ele>
        <time>2022-07-24T09:45:20Z</time>
      </trkpt>
      <trkpt lat="45.79579" lon="6.61103">
        <ele>1958</ele>
        <time>2022-07-24T09:45:21Z</time>
      </trkpt>
      <trkpt lat="45.7958" lon="6.61104">
        <ele>1958</ele>
        <time>2022-07-24T09:45:22Z</time>
      </trkpt>
      <trkpt lat="45.79581" lon="6.61104">
        <ele>1958</ele>
        <time>2022-07-24T09:45:23Z</time>
      </trkpt>
      <trkpt lat="45.79582" lon="6.61105">
        <ele>1958</ele>
        <time>2022-07-24T09:45:24Z</time>
      </trkpt>
      <trkpt lat="45.79583" lon="6.61106">
        <ele>1958</ele>
        <time>2022-07-24T09:45:25Z</time>
      </trkpt>
      <trkpt lat="45.79583" lon="6.61107">
        <ele>1958</ele>
        <time>2022-07-24T09:45:26Z</time>
      </trkpt>
      <trkpt lat="45.79584" lon="6.61107">
        <ele>1958</ele>
        <time>2022-07-24T09:45:27Z</time>
      </trkpt>
      <trkpt lat="45.79585" lon="6.61109">
        <ele>1958</ele>
        <time>2022-07-24T09:45:28Z</time>
      </trkpt>
      <trkpt lat="45.79586" lon="6.6111">
        <ele>1958</ele>
        <time>2022-07-24T09:45:29Z</time>
      </trkpt>
      <trkpt lat="45.79587" lon="6.61111">
        <ele>1958</ele>
        <time>2022-07-24T09:45:30Z</time>
      </trkpt>
      <trkpt lat="45.79587" lon="6.61112">
        <ele>1958</ele>
        <time>2022-07-24T09:45:31Z</time>
      </trkpt>
      <trkpt lat="45.79588" lon="6.61113">
        <ele>1958</ele>
        <time>2022-07-24T09:45:32Z</time>
      </trkpt>
      <trkpt lat="45.79588" lon="6.61113">
        <ele>1958</ele>
        <time>2022-07-24T09:45:33Z</time>
      </trkpt>
      <trkpt lat="45.79589" lon="6.61114">
        <ele>1958</ele>
        <time>2022-07-24T09:45:34Z</time>
      </trkpt>
      <trkpt lat="45.79589" lon="6.61115">
        <ele>1958</ele>
        <time>2022-07-24T09:45:35Z</time>
      </trkpt>
      <trkpt lat="45.79589" lon="6.61115">
        <ele>1958</ele>
        <time>2022-07-24T09:45:36Z</time>
      </trkpt>
      <trkpt lat="45.7959" lon="6.61116">
        <ele>1958</ele>
        <time>2022-07-24T09:45:37Z</time>
      </trkpt>
      <trkpt lat="45.7959" lon="6.61117">
        <ele>1958</ele>
        <time>2022-07-24T09:45:38Z</time>
      </trkpt>
      <trkpt lat="45.7959" lon="6.61118">
        <ele>1958</ele>
        <time>2022-07-24T09:45:39Z</time>
      </trkpt>
      <trkpt lat="45.7959" lon="6.61118">
        <ele>1958</ele>
        <time>2022-07-24T09:45:40Z</time>
      </trkpt>
      <trkpt lat="45.79591" lon="6.6112">
        <ele>1958</ele>
        <time>2022-07-24T09:45:41Z</time>
      </trkpt>
      <trkpt lat="45.79591" lon="6.61121">
        <ele>1958</ele>
        <time>2022-07-24T09:45:42Z</time>
      </trkpt>
      <trkpt lat="45.79591" lon="6.61122">
        <ele>1958</ele>
        <time>2022-07-24T09:45:43Z</time>
      </trkpt>
      <trkpt lat="45.79592" lon="6.61124">
        <ele>1958</ele>
        <time>2022-07-24T09:45:44Z</time>
      </trkpt>
      <trkpt lat="45.79592" lon="6.61126">
        <ele>1958</ele>
        <time>2022-07-24T09:45:45Z</time>
      </trkpt>
      <trkpt lat="45.79592" lon="6.61127">
        <ele>1958</ele>
        <time>2022-07-24T09:45:46Z</time>
      </trkpt>
      <trkpt lat="45.79592" lon="6.61129">
        <ele>1957</ele>
        <time>2022-07-24T09:45:47Z</time>
      </trkpt>
      <trkpt lat="45.79592" lon="6.61131">
        <ele>1957</ele>
        <time>2022-07-24T09:45:48Z</time>
      </trkpt>
      <trkpt lat="45.79592" lon="6.61133">
        <ele>1957</ele>
        <time>2022-07-24T09:45:49Z</time>
      </trkpt>
      <trkpt lat="45.79592" lon="6.61135">
        <ele>1957</ele>
        <time>2022-07-24T09:45:50Z</time>
      </trkpt>
      <trkpt lat="45.79592" lon="6.61137">
        <ele>1957</ele>
        <time>2022-07-24T09:45:51Z</time>
      </trkpt>
      <trkpt lat="45.79592" lon="6.61138">
        <ele>1957</ele>
        <time>2022-07-24T09:45:52Z</time>
      </trkpt>
      <trkpt lat="45.79592" lon="6.6114">
        <ele>1957</ele>
        <time>2022-07-24T09:45:53Z</time>
      </trkpt>
      <trkpt lat="45.79591" lon="6.61142">
        <ele>1957</ele>
        <time>2022-07-24T09:45:54Z</time>
      </trkpt>
      <trkpt lat="45.79591" lon="6.61143">
        <ele>1957</ele>
        <time>2022-07-24T09:45:55Z</time>
      </trkpt>
      <trkpt lat="45.79591" lon="6.61145">
        <ele>1957</ele>
        <time>2022-07-24T09:45:56Z</time>
      </trkpt>
      <trkpt lat="45.79591" lon="6.61147">
        <ele>1957</ele>
        <time>2022-07-24T09:45:57Z</time>
      </trkpt>
      <trkpt lat="45.79591" lon="6.61148">
        <ele>1957</ele>
        <time>2022-07-24T09:45:58Z</time>
      </trkpt>
      <trkpt lat="45.79591" lon="6.6115">
        <ele>1957</ele>
        <time>2022-07-24T09:45:59Z</time>
      </trkpt>
      <trkpt lat="45.79591" lon="6.61152">
        <ele>1957</ele>
        <time>2022-07-24T09:46:00Z</time>
      </trkpt>
      <trkpt lat="45.79591" lon="6.61153">
        <ele>1957</ele>
        <time>2022-07-24T09:46:01Z</time>
      </trkpt>
      <trkpt lat="45.79591" lon="6.61155">
        <ele>1957</ele>
        <time>2022-07-24T09:46:02Z</time>
      </trkpt>
      <trkpt lat="45.79591" lon="6.61156">
        <ele>1957</ele>
        <time>2022-07-24T09:46:03Z</time>
      </trkpt>
      <trkpt lat="45.79591" lon="6.61158">
        <ele>1957</ele>
        <time>2022-07-24T09:46:04Z</time>
      </trkpt>
      <trkpt lat="45.79591" lon="6.6116">
        <ele>1957</ele>
        <time>2022-07-24T09:46:05Z</time>
      </trkpt>
      <trkpt lat="45.79591" lon="6.61161">
        <ele>1957</ele>
        <time>2022-07-24T09:46:06Z</time>
      </trkpt>
      <trkpt lat="45.79591" lon="6.61163">
        <ele>1957</ele>
        <time>2022-07-24T09:46:07Z</time>
      </trkpt>
      <trkpt lat="45.79591" lon="6.61165">
        <ele>1957</ele>
        <time>2022-07-24T09:46:08Z</time>
      </trkpt>
      <trkpt lat="45.79591" lon="6.61166">
        <ele>1957</ele>
        <time>2022-07-24T09:46:09Z</time>
      </trkpt>
      <trkpt lat="45.79592" lon="6.61168">
        <ele>1957</ele>
        <time>2022-07-24T09:46:10Z</time>
      </trkpt>
      <trkpt lat="45.79592" lon="6.6117">
        <ele>1958</ele>
        <time>2022-07-24T09:46:11Z</time>
      </trkpt>
      <trkpt lat="45.79592" lon="6.61171">
        <ele>1958</ele>
        <time>2022-07-24T09:46:12Z</time>
      </trkpt>
      <trkpt lat="45.79593" lon="6.61173">
        <ele>1958</ele>
        <time>2022-07-24T09:46:13Z</time>
      </trkpt>
      <trkpt lat="45.79593" lon="6.61174">
        <ele>1958</ele>
        <time>2022-07-24T09:46:14Z</time>
      </trkpt>
      <trkpt lat="45.79593" lon="6.61176">
        <ele>1958</ele>
        <time>2022-07-24T09:46:15Z</time>
      </trkpt>
      <trkpt lat="45.79594" lon="6.61177">
        <ele>1958</ele>
        <time>2022-07-24T09:46:16Z</time>
      </trkpt>
      <trkpt lat="45.79594" lon="6.61179">
        <ele>1958</ele>
        <time>2022-07-24T09:46:17Z</time>
      </trkpt>
      <trkpt lat="45.79595" lon="6.61181">
        <ele>1958</ele>
        <time>2022-07-24T09:46:18Z</time>
      </trkpt>
      <trkpt lat="45.79595" lon="6.61182">
        <ele>1958</ele>
        <time>2022-07-24T09:46:19Z</time>
      </trkpt>
      <trkpt lat="45.79596" lon="6.61184">
        <ele>1958</ele>
        <time>2022-07-24T09:46:20Z</time>
      </trkpt>
      <trkpt lat="45.79596" lon="6.61185">
        <ele>1958</ele>
        <time>2022-07-24T09:46:21Z</time>
      </trkpt>
      <trkpt lat="45.79596" lon="6.61187">
        <ele>1958</ele>
        <time>2022-07-24T09:46:22Z</time>
      </trkpt>
      <trkpt lat="45.79597" lon="6.61189">
        <ele>1958</ele>
        <time>2022-07-24T09:46:23Z</time>
      </trkpt>
      <trkpt lat="45.79597" lon="6.6119">
        <ele>1958</ele>
        <time>2022-07-24T09:46:24Z</time>
      </trkpt>
      <trkpt lat="45.79598" lon="6.61192">
        <ele>1958</ele>
        <time>2022-07-24T09:46:25Z</time>
      </trkpt>
      <trkpt lat="45.79598" lon="6.61193">
        <ele>1958</ele>
        <time>2022-07-24T09:46:26Z</time>
      </trkpt>
      <trkpt lat="45.79598" lon="6.61195">
        <ele>1958</ele>
        <time>2022-07-24T09:46:27Z</time>
      </trkpt>
      <trkpt lat="45.79599" lon="6.61196">
        <ele>1958</ele>
        <time>2022-07-24T09:46:28Z</time>
      </trkpt>
      <trkpt lat="45.79599" lon="6.61198">
        <ele>1958</ele>
        <time>2022-07-24T09:46:29Z</time>
      </trkpt>
      <trkpt lat="45.79599" lon="6.612">
        <ele>1958</ele>
        <time>2022-07-24T09:46:30Z</time>
      </trkpt>
      <trkpt lat="45.796" lon="6.61201">
        <ele>1958</ele>
        <time>2022-07-24T09:46:31Z</time>
      </trkpt>
      <trkpt lat="45.796" lon="6.61203">
        <ele>1958</ele>
        <time>2022-07-24T09:46:32Z</time>
      </trkpt>
      <trkpt lat="45.796" lon="6.61205">
        <ele>1958</ele>
        <time>2022-07-24T09:46:33Z</time>
      </trkpt>
      <trkpt lat="45.796" lon="6.61206">
        <ele>1958</ele>
        <time>2022-07-24T09:46:34Z</time>
      </trkpt>
      <trkpt lat="45.79601" lon="6.61208">
        <ele>1958</ele>
        <time>2022-07-24T09:46:35Z</time>
      </trkpt>
      <trkpt lat="45.79601" lon="6.6121">
        <ele>1958</ele>
        <time>2022-07-24T09:46:36Z</time>
      </trkpt>
      <trkpt lat="45.79601" lon="6.61212">
        <ele>1958</ele>
        <time>2022-07-24T09:46:37Z</time>
      </trkpt>
      <trkpt lat="45.79602" lon="6.61213">
        <ele>1958</ele>
        <time>2022-07-24T09:46:38Z</time>
      </trkpt>
      <trkpt lat="45.79602" lon="6.61215">
        <ele>1958</ele>
        <time>2022-07-24T09:46:39Z</time>
      </trkpt>
      <trkpt lat="45.79602" lon="6.61217">
        <ele>1958</ele>
        <time>2022-07-24T09:46:40Z</time>
      </trkpt>
      <trkpt lat="45.79602" lon="6.61218">
        <ele>1959</ele>
        <time>2022-07-24T09:46:41Z</time>
      </trkpt>
      <trkpt lat="45.79602" lon="6.6122">
        <ele>1959</ele>
        <time>2022-07-24T09:46:42Z</time>
      </trkpt>
      <trkpt lat="45.79602" lon="6.61222">
        <ele>1959</ele>
        <time>2022-07-24T09:46:43Z</time>
      </trkpt>
      <trkpt lat="45.79603" lon="6.61224">
        <ele>1959</ele>
        <time>2022-07-24T09:46:44Z</time>
      </trkpt>
      <trkpt lat="45.79603" lon="6.61225">
        <ele>1959</ele>
        <time>2022-07-24T09:46:45Z</time>
      </trkpt>
      <trkpt lat="45.79603" lon="6.61227">
        <ele>1959</ele>
        <time>2022-07-24T09:46:46Z</time>
      </trkpt>
      <trkpt lat="45.79603" lon="6.61229">
        <ele>1959</ele>
        <time>2022-07-24T09:46:47Z</time>
      </trkpt>
      <trkpt lat="45.79604" lon="6.6123">
        <ele>1959</ele>
        <time>2022-07-24T09:46:48Z</time>
      </trkpt>
      <trkpt lat="45.79604" lon="6.61232">
        <ele>1959</ele>
        <time>2022-07-24T09:46:49Z</time>
      </trkpt>
      <trkpt lat="45.79604" lon="6.61233">
        <ele>1959</ele>
        <time>2022-07-24T09:46:50Z</time>
      </trkpt>
      <trkpt lat="45.79604" lon="6.61235">
        <ele>1959</ele>
        <time>2022-07-24T09:46:51Z</time>
      </trkpt>
      <trkpt lat="45.79605" lon="6.61236">
        <ele>1959</ele>
        <time>2022-07-24T09:46:52Z</time>
      </trkpt>
      <trkpt lat="45.79605" lon="6.61238">
        <ele>1959</ele>
        <time>2022-07-24T09:46:53Z</time>
      </trkpt>
      <trkpt lat="45.79605" lon="6.61239">
        <ele>1959</ele>
        <time>2022-07-24T09:46:54Z</time>
      </trkpt>
      <trkpt lat="45.79605" lon="6.61241">
        <ele>1959</ele>
        <time>2022-07-24T09:46:55Z</time>
      </trkpt>
      <trkpt lat="45.79605" lon="6.61242">
        <ele>1960</ele>
        <time>2022-07-24T09:46:56Z</time>
      </trkpt>
      <trkpt lat="45.79606" lon="6.61244">
        <ele>1960</ele>
        <time>2022-07-24T09:46:57Z</time>
      </trkpt>
      <trkpt lat="45.79606" lon="6.61245">
        <ele>1960</ele>
        <time>2022-07-24T09:46:58Z</time>
      </trkpt>
      <trkpt lat="45.79606" lon="6.61247">
        <ele>1960</ele>
        <time>2022-07-24T09:46:59Z</time>
      </trkpt>
      <trkpt lat="45.79606" lon="6.61248">
        <ele>1960</ele>
        <time>2022-07-24T09:47:00Z</time>
      </trkpt>
      <trkpt lat="45.79606" lon="6.6125">
        <ele>1960</ele>
        <time>2022-07-24T09:47:01Z</time>
      </trkpt>
      <trkpt lat="45.79606" lon="6.61251">
        <ele>1960</ele>
        <time>2022-07-24T09:47:02Z</time>
      </trkpt>
      <trkpt lat="45.79607" lon="6.61253">
        <ele>1960</ele>
        <time>2022-07-24T09:47:03Z</time>
      </trkpt>
      <trkpt lat="45.79607" lon="6.61254">
        <ele>1960</ele>
        <time>2022-07-24T09:47:04Z</time>
      </trkpt>
      <trkpt lat="45.79607" lon="6.61255">
        <ele>1960</ele>
        <time>2022-07-24T09:47:05Z</time>
      </trkpt>
      <trkpt lat="45.79607" lon="6.61257">
        <ele>1960</ele>
        <time>2022-07-24T09:47:06Z</time>
      </trkpt>
      <trkpt lat="45.79607" lon="6.61258">
        <ele>1960</ele>
        <time>2022-07-24T09:47:07Z</time>
      </trkpt>
      <trkpt lat="45.79607" lon="6.61259">
        <ele>1960</ele>
        <time>2022-07-24T09:47:08Z</time>
      </trkpt>
      <trkpt lat="45.79607" lon="6.61261">
        <ele>1960</ele>
        <time>2022-07-24T09:47:09Z</time>
      </trkpt>
      <trkpt lat="45.79608" lon="6.61262">
        <ele>1960</ele>
        <time>2022-07-24T09:47:10Z</time>
      </trkpt>
      <trkpt lat="45.79608" lon="6.61264">
        <ele>1961</ele>
        <time>2022-07-24T09:47:11Z</time>
      </trkpt>
      <trkpt lat="45.79608" lon="6.61265">
        <ele>1961</ele>
        <time>2022-07-24T09:47:12Z</time>
      </trkpt>
      <trkpt lat="45.79608" lon="6.61266">
        <ele>1961</ele>
        <time>2022-07-24T09:47:13Z</time>
      </trkpt>
      <trkpt lat="45.79609" lon="6.61268">
        <ele>1961</ele>
        <time>2022-07-24T09:47:14Z</time>
      </trkpt>
      <trkpt lat="45.79609" lon="6.61269">
        <ele>1961</ele>
        <time>2022-07-24T09:47:15Z</time>
      </trkpt>
      <trkpt lat="45.79609" lon="6.61271">
        <ele>1961</ele>
        <time>2022-07-24T09:47:16Z</time>
      </trkpt>
      <trkpt lat="45.7961" lon="6.61272">
        <ele>1961</ele>
        <time>2022-07-24T09:47:17Z</time>
      </trkpt>
      <trkpt lat="45.7961" lon="6.61274">
        <ele>1961</ele>
        <time>2022-07-24T09:47:18Z</time>
      </trkpt>
      <trkpt lat="45.79611" lon="6.61275">
        <ele>1961</ele>
        <time>2022-07-24T09:47:19Z</time>
      </trkpt>
      <trkpt lat="45.79611" lon="6.61277">
        <ele>1961</ele>
        <time>2022-07-24T09:47:20Z</time>
      </trkpt>
      <trkpt lat="45.79611" lon="6.61278">
        <ele>1961</ele>
        <time>2022-07-24T09:47:21Z</time>
      </trkpt>
      <trkpt lat="45.79612" lon="6.61279">
        <ele>1961</ele>
        <time>2022-07-24T09:47:22Z</time>
      </trkpt>
      <trkpt lat="45.79612" lon="6.61281">
        <ele>1961</ele>
        <time>2022-07-24T09:47:23Z</time>
      </trkpt>
      <trkpt lat="45.79613" lon="6.61282">
        <ele>1961</ele>
        <time>2022-07-24T09:47:24Z</time>
      </trkpt>
      <trkpt lat="45.79613" lon="6.61283">
        <ele>1961</ele>
        <time>2022-07-24T09:47:25Z</time>
      </trkpt>
      <trkpt lat="45.79613" lon="6.61284">
        <ele>1962</ele>
        <time>2022-07-24T09:47:26Z</time>
      </trkpt>
      <trkpt lat="45.79614" lon="6.61285">
        <ele>1962</ele>
        <time>2022-07-24T09:47:27Z</time>
      </trkpt>
      <trkpt lat="45.79614" lon="6.61286">
        <ele>1962</ele>
        <time>2022-07-24T09:47:28Z</time>
      </trkpt>
      <trkpt lat="45.79614" lon="6.61288">
        <ele>1962</ele>
        <time>2022-07-24T09:47:29Z</time>
      </trkpt>
      <trkpt lat="45.79615" lon="6.61289">
        <ele>1962</ele>
        <time>2022-07-24T09:47:30Z</time>
      </trkpt>
      <trkpt lat="45.79615" lon="6.61291">
        <ele>1962</ele>
        <time>2022-07-24T09:47:31Z</time>
      </trkpt>
      <trkpt lat="45.79615" lon="6.61292">
        <ele>1962</ele>
        <time>2022-07-24T09:47:32Z</time>
      </trkpt>
      <trkpt lat="45.79615" lon="6.61294">
        <ele>1962</ele>
        <time>2022-07-24T09:47:33Z</time>
      </trkpt>
      <trkpt lat="45.79616" lon="6.61295">
        <ele>1962</ele>
        <time>2022-07-24T09:47:34Z</time>
      </trkpt>
      <trkpt lat="45.79616" lon="6.61297">
        <ele>1962</ele>
        <time>2022-07-24T09:47:35Z</time>
      </trkpt>
      <trkpt lat="45.79616" lon="6.61298">
        <ele>1963</ele>
        <time>2022-07-24T09:47:36Z</time>
      </trkpt>
      <trkpt lat="45.79617" lon="6.613">
        <ele>1963</ele>
        <time>2022-07-24T09:47:37Z</time>
      </trkpt>
      <trkpt lat="45.79617" lon="6.61301">
        <ele>1963</ele>
        <time>2022-07-24T09:47:38Z</time>
      </trkpt>
      <trkpt lat="45.79618" lon="6.61303">
        <ele>1963</ele>
        <time>2022-07-24T09:47:39Z</time>
      </trkpt>
      <trkpt lat="45.79618" lon="6.61304">
        <ele>1963</ele>
        <time>2022-07-24T09:47:40Z</time>
      </trkpt>
      <trkpt lat="45.79618" lon="6.61306">
        <ele>1963</ele>
        <time>2022-07-24T09:47:41Z</time>
      </trkpt>
      <trkpt lat="45.79618" lon="6.61308">
        <ele>1963</ele>
        <time>2022-07-24T09:47:42Z</time>
      </trkpt>
      <trkpt lat="45.79619" lon="6.61309">
        <ele>1963</ele>
        <time>2022-07-24T09:47:43Z</time>
      </trkpt>
      <trkpt lat="45.79619" lon="6.61311">
        <ele>1963</ele>
        <time>2022-07-24T09:47:44Z</time>
      </trkpt>
      <trkpt lat="45.79619" lon="6.61313">
        <ele>1963</ele>
        <time>2022-07-24T09:47:45Z</time>
      </trkpt>
      <trkpt lat="45.79619" lon="6.61314">
        <ele>1963</ele>
        <time>2022-07-24T09:47:46Z</time>
      </trkpt>
      <trkpt lat="45.79619" lon="6.61316">
        <ele>1963</ele>
        <time>2022-07-24T09:47:47Z</time>
      </trkpt>
      <trkpt lat="45.79619" lon="6.61318">
        <ele>1963</ele>
        <time>2022-07-24T09:47:48Z</time>
      </trkpt>
      <trkpt lat="45.7962" lon="6.61319">
        <ele>1963</ele>
        <time>2022-07-24T09:47:49Z</time>
      </trkpt>
      <trkpt lat="45.7962" lon="6.61321">
        <ele>1963</ele>
        <time>2022-07-24T09:47:50Z</time>
      </trkpt>
      <trkpt lat="45.7962" lon="6.61323">
        <ele>1963</ele>
        <time>2022-07-24T09:47:51Z</time>
      </trkpt>
      <trkpt lat="45.7962" lon="6.61324">
        <ele>1963</ele>
        <time>2022-07-24T09:47:52Z</time>
      </trkpt>
      <trkpt lat="45.7962" lon="6.61326">
        <ele>1963</ele>
        <time>2022-07-24T09:47:53Z</time>
      </trkpt>
      <trkpt lat="45.7962" lon="6.61328">
        <ele>1963</ele>
        <time>2022-07-24T09:47:54Z</time>
      </trkpt>
      <trkpt lat="45.7962" lon="6.6133">
        <ele>1963</ele>
        <time>2022-07-24T09:47:55Z</time>
      </trkpt>
      <trkpt lat="45.79621" lon="6.61331">
        <ele>1963</ele>
        <time>2022-07-24T09:47:56Z</time>
      </trkpt>
      <trkpt lat="45.79621" lon="6.61333">
        <ele>1963</ele>
        <time>2022-07-24T09:47:57Z</time>
      </trkpt>
      <trkpt lat="45.79621" lon="6.61335">
        <ele>1963</ele>
        <time>2022-07-24T09:47:58Z</time>
      </trkpt>
      <trkpt lat="45.79621" lon="6.61336">
        <ele>1963</ele>
        <time>2022-07-24T09:47:59Z</time>
      </trkpt>
      <trkpt lat="45.79621" lon="6.61338">
        <ele>1963</ele>
        <time>2022-07-24T09:48:00Z</time>
      </trkpt>
      <trkpt lat="45.79621" lon="6.6134">
        <ele>1964</ele>
        <time>2022-07-24T09:48:01Z</time>
      </trkpt>
      <trkpt lat="45.79621" lon="6.61341">
        <ele>1964</ele>
        <time>2022-07-24T09:48:02Z</time>
      </trkpt>
      <trkpt lat="45.79621" lon="6.61343">
        <ele>1964</ele>
        <time>2022-07-24T09:48:03Z</time>
      </trkpt>
      <trkpt lat="45.79621" lon="6.61344">
        <ele>1964</ele>
        <time>2022-07-24T09:48:04Z</time>
      </trkpt>
      <trkpt lat="45.79622" lon="6.61346">
        <ele>1964</ele>
        <time>2022-07-24T09:48:05Z</time>
      </trkpt>
      <trkpt lat="45.79622" lon="6.61348">
        <ele>1964</ele>
        <time>2022-07-24T09:48:06Z</time>
      </trkpt>
      <trkpt lat="45.79622" lon="6.61349">
        <ele>1964</ele>
        <time>2022-07-24T09:48:07Z</time>
      </trkpt>
      <trkpt lat="45.79622" lon="6.61351">
        <ele>1964</ele>
        <time>2022-07-24T09:48:08Z</time>
      </trkpt>
      <trkpt lat="45.79622" lon="6.61352">
        <ele>1964</ele>
        <time>2022-07-24T09:48:09Z</time>
      </trkpt>
      <trkpt lat="45.79622" lon="6.61354">
        <ele>1964</ele>
        <time>2022-07-24T09:48:10Z</time>
      </trkpt>
      <trkpt lat="45.79623" lon="6.61356">
        <ele>1964</ele>
        <time>2022-07-24T09:48:11Z</time>
      </trkpt>
      <trkpt lat="45.79623" lon="6.61357">
        <ele>1964</ele>
        <time>2022-07-24T09:48:12Z</time>
      </trkpt>
      <trkpt lat="45.79623" lon="6.61359">
        <ele>1964</ele>
        <time>2022-07-24T09:48:13Z</time>
      </trkpt>
      <trkpt lat="45.79624" lon="6.61361">
        <ele>1964</ele>
        <time>2022-07-24T09:48:14Z</time>
      </trkpt>
      <trkpt lat="45.79624" lon="6.61363">
        <ele>1964</ele>
        <time>2022-07-24T09:48:15Z</time>
      </trkpt>
      <trkpt lat="45.79624" lon="6.61364">
        <ele>1964</ele>
        <time>2022-07-24T09:48:16Z</time>
      </trkpt>
      <trkpt lat="45.79624" lon="6.61366">
        <ele>1964</ele>
        <time>2022-07-24T09:48:17Z</time>
      </trkpt>
      <trkpt lat="45.79625" lon="6.61368">
        <ele>1964</ele>
        <time>2022-07-24T09:48:18Z</time>
      </trkpt>
      <trkpt lat="45.79625" lon="6.6137">
        <ele>1964</ele>
        <time>2022-07-24T09:48:19Z</time>
      </trkpt>
      <trkpt lat="45.79625" lon="6.61371">
        <ele>1964</ele>
        <time>2022-07-24T09:48:20Z</time>
      </trkpt>
      <trkpt lat="45.79626" lon="6.61373">
        <ele>1964</ele>
        <time>2022-07-24T09:48:21Z</time>
      </trkpt>
      <trkpt lat="45.79626" lon="6.61375">
        <ele>1964</ele>
        <time>2022-07-24T09:48:22Z</time>
      </trkpt>
      <trkpt lat="45.79626" lon="6.61376">
        <ele>1964</ele>
        <time>2022-07-24T09:48:23Z</time>
      </trkpt>
      <trkpt lat="45.79626" lon="6.61378">
        <ele>1964</ele>
        <time>2022-07-24T09:48:24Z</time>
      </trkpt>
      <trkpt lat="45.79627" lon="6.6138">
        <ele>1964</ele>
        <time>2022-07-24T09:48:25Z</time>
      </trkpt>
      <trkpt lat="45.79627" lon="6.61381">
        <ele>1964</ele>
        <time>2022-07-24T09:48:26Z</time>
      </trkpt>
      <trkpt lat="45.79627" lon="6.61383">
        <ele>1964</ele>
        <time>2022-07-24T09:48:27Z</time>
      </trkpt>
      <trkpt lat="45.79627" lon="6.61385">
        <ele>1964</ele>
        <time>2022-07-24T09:48:28Z</time>
      </trkpt>
      <trkpt lat="45.79627" lon="6.61386">
        <ele>1964</ele>
        <time>2022-07-24T09:48:29Z</time>
      </trkpt>
      <trkpt lat="45.79628" lon="6.61388">
        <ele>1964</ele>
        <time>2022-07-24T09:48:30Z</time>
      </trkpt>
      <trkpt lat="45.79628" lon="6.6139">
        <ele>1965</ele>
        <time>2022-07-24T09:48:31Z</time>
      </trkpt>
      <trkpt lat="45.79628" lon="6.61391">
        <ele>1965</ele>
        <time>2022-07-24T09:48:32Z</time>
      </trkpt>
      <trkpt lat="45.79628" lon="6.61393">
        <ele>1965</ele>
        <time>2022-07-24T09:48:33Z</time>
      </trkpt>
      <trkpt lat="45.79628" lon="6.61395">
        <ele>1965</ele>
        <time>2022-07-24T09:48:34Z</time>
      </trkpt>
      <trkpt lat="45.79628" lon="6.61396">
        <ele>1965</ele>
        <time>2022-07-24T09:48:35Z</time>
      </trkpt>
      <trkpt lat="45.79629" lon="6.61398">
        <ele>1965</ele>
        <time>2022-07-24T09:48:36Z</time>
      </trkpt>
      <trkpt lat="45.79629" lon="6.614">
        <ele>1964</ele>
        <time>2022-07-24T09:48:37Z</time>
      </trkpt>
      <trkpt lat="45.79629" lon="6.61401">
        <ele>1964</ele>
        <time>2022-07-24T09:48:38Z</time>
      </trkpt>
      <trkpt lat="45.79629" lon="6.61403">
        <ele>1964</ele>
        <time>2022-07-24T09:48:39Z</time>
      </trkpt>
      <trkpt lat="45.79629" lon="6.61405">
        <ele>1964</ele>
        <time>2022-07-24T09:48:40Z</time>
      </trkpt>
      <trkpt lat="45.79629" lon="6.61407">
        <ele>1964</ele>
        <time>2022-07-24T09:48:41Z</time>
      </trkpt>
      <trkpt lat="45.79629" lon="6.61408">
        <ele>1964</ele>
        <time>2022-07-24T09:48:42Z</time>
      </trkpt>
      <trkpt lat="45.79629" lon="6.6141">
        <ele>1964</ele>
        <time>2022-07-24T09:48:43Z</time>
      </trkpt>
      <trkpt lat="45.79629" lon="6.61412">
        <ele>1964</ele>
        <time>2022-07-24T09:48:44Z</time>
      </trkpt>
      <trkpt lat="45.79629" lon="6.61414">
        <ele>1964</ele>
        <time>2022-07-24T09:48:45Z</time>
      </trkpt>
      <trkpt lat="45.79629" lon="6.61415">
        <ele>1964</ele>
        <time>2022-07-24T09:48:46Z</time>
      </trkpt>
      <trkpt lat="45.79629" lon="6.61417">
        <ele>1964</ele>
        <time>2022-07-24T09:48:47Z</time>
      </trkpt>
      <trkpt lat="45.79629" lon="6.61419">
        <ele>1964</ele>
        <time>2022-07-24T09:48:48Z</time>
      </trkpt>
      <trkpt lat="45.79629" lon="6.61421">
        <ele>1964</ele>
        <time>2022-07-24T09:48:49Z</time>
      </trkpt>
      <trkpt lat="45.79629" lon="6.61422">
        <ele>1964</ele>
        <time>2022-07-24T09:48:50Z</time>
      </trkpt>
      <trkpt lat="45.7963" lon="6.61424">
        <ele>1964</ele>
        <time>2022-07-24T09:48:51Z</time>
      </trkpt>
      <trkpt lat="45.7963" lon="6.61426">
        <ele>1964</ele>
        <time>2022-07-24T09:48:52Z</time>
      </trkpt>
      <trkpt lat="45.7963" lon="6.61427">
        <ele>1964</ele>
        <time>2022-07-24T09:48:53Z</time>
      </trkpt>
      <trkpt lat="45.7963" lon="6.61429">
        <ele>1964</ele>
        <time>2022-07-24T09:48:54Z</time>
      </trkpt>
      <trkpt lat="45.7963" lon="6.61431">
        <ele>1964</ele>
        <time>2022-07-24T09:48:55Z</time>
      </trkpt>
      <trkpt lat="45.7963" lon="6.61432">
        <ele>1965</ele>
        <time>2022-07-24T09:48:56Z</time>
      </trkpt>
      <trkpt lat="45.7963" lon="6.61434">
        <ele>1965</ele>
        <time>2022-07-24T09:48:57Z</time>
      </trkpt>
      <trkpt lat="45.7963" lon="6.61435">
        <ele>1965</ele>
        <time>2022-07-24T09:48:58Z</time>
      </trkpt>
      <trkpt lat="45.7963" lon="6.61437">
        <ele>1965</ele>
        <time>2022-07-24T09:48:59Z</time>
      </trkpt>
      <trkpt lat="45.79631" lon="6.61439">
        <ele>1965</ele>
        <time>2022-07-24T09:49:00Z</time>
      </trkpt>
      <trkpt lat="45.79631" lon="6.6144">
        <ele>1965</ele>
        <time>2022-07-24T09:49:01Z</time>
      </trkpt>
      <trkpt lat="45.79631" lon="6.61442">
        <ele>1965</ele>
        <time>2022-07-24T09:49:02Z</time>
      </trkpt>
      <trkpt lat="45.79631" lon="6.61444">
        <ele>1965</ele>
        <time>2022-07-24T09:49:03Z</time>
      </trkpt>
      <trkpt lat="45.79631" lon="6.61445">
        <ele>1965</ele>
        <time>2022-07-24T09:49:04Z</time>
      </trkpt>
      <trkpt lat="45.79631" lon="6.61447">
        <ele>1965</ele>
        <time>2022-07-24T09:49:05Z</time>
      </trkpt>
      <trkpt lat="45.79631" lon="6.61449">
        <ele>1965</ele>
        <time>2022-07-24T09:49:06Z</time>
      </trkpt>
      <trkpt lat="45.79631" lon="6.6145">
        <ele>1965</ele>
        <time>2022-07-24T09:49:07Z</time>
      </trkpt>
      <trkpt lat="45.79631" lon="6.61452">
        <ele>1965</ele>
        <time>2022-07-24T09:49:08Z</time>
      </trkpt>
      <trkpt lat="45.79631" lon="6.61454">
        <ele>1965</ele>
        <time>2022-07-24T09:49:09Z</time>
      </trkpt>
      <trkpt lat="45.79631" lon="6.61455">
        <ele>1965</ele>
        <time>2022-07-24T09:49:10Z</time>
      </trkpt>
      <trkpt lat="45.79632" lon="6.61457">
        <ele>1966</ele>
        <time>2022-07-24T09:49:11Z</time>
      </trkpt>
      <trkpt lat="45.79632" lon="6.61459">
        <ele>1966</ele>
        <time>2022-07-24T09:49:12Z</time>
      </trkpt>
      <trkpt lat="45.79632" lon="6.6146">
        <ele>1966</ele>
        <time>2022-07-24T09:49:13Z</time>
      </trkpt>
      <trkpt lat="45.79632" lon="6.61462">
        <ele>1966</ele>
        <time>2022-07-24T09:49:14Z</time>
      </trkpt>
      <trkpt lat="45.79632" lon="6.61464">
        <ele>1966</ele>
        <time>2022-07-24T09:49:15Z</time>
      </trkpt>
      <trkpt lat="45.79632" lon="6.61465">
        <ele>1966</ele>
        <time>2022-07-24T09:49:16Z</time>
      </trkpt>
      <trkpt lat="45.79632" lon="6.61467">
        <ele>1966</ele>
        <time>2022-07-24T09:49:17Z</time>
      </trkpt>
      <trkpt lat="45.79632" lon="6.61469">
        <ele>1966</ele>
        <time>2022-07-24T09:49:18Z</time>
      </trkpt>
      <trkpt lat="45.79632" lon="6.6147">
        <ele>1966</ele>
        <time>2022-07-24T09:49:19Z</time>
      </trkpt>
      <trkpt lat="45.79632" lon="6.61472">
        <ele>1966</ele>
        <time>2022-07-24T09:49:20Z</time>
      </trkpt>
      <trkpt lat="45.79632" lon="6.61473">
        <ele>1966</ele>
        <time>2022-07-24T09:49:21Z</time>
      </trkpt>
      <trkpt lat="45.79632" lon="6.61475">
        <ele>1966</ele>
        <time>2022-07-24T09:49:22Z</time>
      </trkpt>
      <trkpt lat="45.79632" lon="6.61476">
        <ele>1966</ele>
        <time>2022-07-24T09:49:23Z</time>
      </trkpt>
      <trkpt lat="45.79632" lon="6.61478">
        <ele>1966</ele>
        <time>2022-07-24T09:49:24Z</time>
      </trkpt>
      <trkpt lat="45.79632" lon="6.61479">
        <ele>1966</ele>
        <time>2022-07-24T09:49:25Z</time>
      </trkpt>
      <trkpt lat="45.79632" lon="6.6148">
        <ele>1966</ele>
        <time>2022-07-24T09:49:26Z</time>
      </trkpt>
      <trkpt lat="45.79632" lon="6.61481">
        <ele>1966</ele>
        <time>2022-07-24T09:49:35Z</time>
      </trkpt>
      <trkpt lat="45.79632" lon="6.61482">
        <ele>1966</ele>
        <time>2022-07-24T09:49:36Z</time>
      </trkpt>
      <trkpt lat="45.79633" lon="6.61482">
        <ele>1966</ele>
        <time>2022-07-24T09:49:37Z</time>
      </trkpt>
      <trkpt lat="45.79633" lon="6.61483">
        <ele>1966</ele>
        <time>2022-07-24T09:49:38Z</time>
      </trkpt>
      <trkpt lat="45.79634" lon="6.61483">
        <ele>1966</ele>
        <time>2022-07-24T09:49:39Z</time>
      </trkpt>
      <trkpt lat="45.79636" lon="6.61483">
        <ele>1966</ele>
        <time>2022-07-24T09:49:40Z</time>
      </trkpt>
      <trkpt lat="45.79637" lon="6.61483">
        <ele>1967</ele>
        <time>2022-07-24T09:49:41Z</time>
      </trkpt>
      <trkpt lat="45.79569" lon="6.61694">
        <ele>1978</ele>
        <time>2022-07-24T10:21:46Z</time>
      </trkpt>
      <trkpt lat="45.79569" lon="6.61695">
        <ele>1978</ele>
        <time>2022-07-24T10:21:47Z</time>
      </trkpt>
      <trkpt lat="45.79568" lon="6.61695">
        <ele>1978</ele>
        <time>2022-07-24T10:21:48Z</time>
      </trkpt>
      <trkpt lat="45.79568" lon="6.61696">
        <ele>1978</ele>
        <time>2022-07-24T10:21:49Z</time>
      </trkpt>
      <trkpt lat="45.79568" lon="6.61697">
        <ele>1978</ele>
        <time>2022-07-24T10:21:50Z</time>
      </trkpt>
      <trkpt lat="45.79568" lon="6.61698">
        <ele>1978</ele>
        <time>2022-07-24T10:21:51Z</time>
      </trkpt>
      <trkpt lat="45.79568" lon="6.61699">
        <ele>1978</ele>
        <time>2022-07-24T10:21:52Z</time>
      </trkpt>
      <trkpt lat="45.79568" lon="6.61701">
        <ele>1978</ele>
        <time>2022-07-24T10:21:53Z</time>
      </trkpt>
      <trkpt lat="45.79567" lon="6.61702">
        <ele>1978</ele>
        <time>2022-07-24T10:21:54Z</time>
      </trkpt>
      <trkpt lat="45.79567" lon="6.61704">
        <ele>1978</ele>
        <time>2022-07-24T10:21:55Z</time>
      </trkpt>
      <trkpt lat="45.79567" lon="6.61706">
        <ele>1978</ele>
        <time>2022-07-24T10:21:56Z</time>
      </trkpt>
      <trkpt lat="45.79567" lon="6.61707">
        <ele>1978</ele>
        <time>2022-07-24T10:21:57Z</time>
      </trkpt>
      <trkpt lat="45.79566" lon="6.61709">
        <ele>1978</ele>
        <time>2022-07-24T10:21:58Z</time>
      </trkpt>
      <trkpt lat="45.79566" lon="6.6171">
        <ele>1978</ele>
        <time>2022-07-24T10:21:59Z</time>
      </trkpt>
      <trkpt lat="45.79566" lon="6.61712">
        <ele>1978</ele>
        <time>2022-07-24T10:22:00Z</time>
      </trkpt>
      <trkpt lat="45.79566" lon="6.61714">
        <ele>1978</ele>
        <time>2022-07-24T10:22:01Z</time>
      </trkpt>
      <trkpt lat="45.79566" lon="6.61715">
        <ele>1978</ele>
        <time>2022-07-24T10:22:02Z</time>
      </trkpt>
      <trkpt lat="45.79566" lon="6.61717">
        <ele>1979</ele>
        <time>2022-07-24T10:22:03Z</time>
      </trkpt>
      <trkpt lat="45.79566" lon="6.61719">
        <ele>1979</ele>
        <time>2022-07-24T10:22:04Z</time>
      </trkpt>
      <trkpt lat="45.79566" lon="6.61721">
        <ele>1979</ele>
        <time>2022-07-24T10:22:05Z</time>
      </trkpt>
      <trkpt lat="45.79567" lon="6.61722">
        <ele>1979</ele>
        <time>2022-07-24T10:22:06Z</time>
      </trkpt>
      <trkpt lat="45.79567" lon="6.61724">
        <ele>1979</ele>
        <time>2022-07-24T10:22:07Z</time>
      </trkpt>
      <trkpt lat="45.79567" lon="6.61726">
        <ele>1979</ele>
        <time>2022-07-24T10:22:08Z</time>
      </trkpt>
      <trkpt lat="45.79567" lon="6.61728">
        <ele>1979</ele>
        <time>2022-07-24T10:22:09Z</time>
      </trkpt>
      <trkpt lat="45.79567" lon="6.6173">
        <ele>1979</ele>
        <time>2022-07-24T10:22:10Z</time>
      </trkpt>
      <trkpt lat="45.79567" lon="6.61731">
        <ele>1979</ele>
        <time>2022-07-24T10:22:11Z</time>
      </trkpt>
      <trkpt lat="45.79567" lon="6.61733">
        <ele>1979</ele>
        <time>2022-07-24T10:22:12Z</time>
      </trkpt>
      <trkpt lat="45.79567" lon="6.61735">
        <ele>1979</ele>
        <time>2022-07-24T10:22:13Z</time>
      </trkpt>
      <trkpt lat="45.79567" lon="6.61737">
        <ele>1979</ele>
        <time>2022-07-24T10:22:14Z</time>
      </trkpt>
      <trkpt lat="45.79567" lon="6.61738">
        <ele>1979</ele>
        <time>2022-07-24T10:22:15Z</time>
      </trkpt>
      <trkpt lat="45.79566" lon="6.6174">
        <ele>1979</ele>
        <time>2022-07-24T10:22:16Z</time>
      </trkpt>
      <trkpt lat="45.79566" lon="6.61742">
        <ele>1979</ele>
        <time>2022-07-24T10:22:17Z</time>
      </trkpt>
      <trkpt lat="45.79565" lon="6.61743">
        <ele>1979</ele>
        <time>2022-07-24T10:22:18Z</time>
      </trkpt>
      <trkpt lat="45.79565" lon="6.61745">
        <ele>1979</ele>
        <time>2022-07-24T10:22:19Z</time>
      </trkpt>
      <trkpt lat="45.79564" lon="6.61746">
        <ele>1979</ele>
        <time>2022-07-24T10:22:20Z</time>
      </trkpt>
      <trkpt lat="45.79564" lon="6.61748">
        <ele>1979</ele>
        <time>2022-07-24T10:22:21Z</time>
      </trkpt>
      <trkpt lat="45.79563" lon="6.61749">
        <ele>1979</ele>
        <time>2022-07-24T10:22:22Z</time>
      </trkpt>
      <trkpt lat="45.79563" lon="6.61751">
        <ele>1979</ele>
        <time>2022-07-24T10:22:23Z</time>
      </trkpt>
      <trkpt lat="45.79562" lon="6.61753">
        <ele>1979</ele>
        <time>2022-07-24T10:22:24Z</time>
      </trkpt>
      <trkpt lat="45.79562" lon="6.61754">
        <ele>1979</ele>
        <time>2022-07-24T10:22:25Z</time>
      </trkpt>
      <trkpt lat="45.79562" lon="6.61756">
        <ele>1979</ele>
        <time>2022-07-24T10:22:26Z</time>
      </trkpt>
      <trkpt lat="45.79561" lon="6.61757">
        <ele>1979</ele>
        <time>2022-07-24T10:22:27Z</time>
      </trkpt>
      <trkpt lat="45.79561" lon="6.61759">
        <ele>1979</ele>
        <time>2022-07-24T10:22:28Z</time>
      </trkpt>
      <trkpt lat="45.79561" lon="6.61761">
        <ele>1979</ele>
        <time>2022-07-24T10:22:29Z</time>
      </trkpt>
      <trkpt lat="45.79561" lon="6.61762">
        <ele>1979</ele>
        <time>2022-07-24T10:22:30Z</time>
      </trkpt>
      <trkpt lat="45.79561" lon="6.61764">
        <ele>1979</ele>
        <time>2022-07-24T10:22:31Z</time>
      </trkpt>
      <trkpt lat="45.79562" lon="6.61766">
        <ele>1979</ele>
        <time>2022-07-24T10:22:32Z</time>
      </trkpt>
      <trkpt lat="45.79562" lon="6.61767">
        <ele>1980</ele>
        <time>2022-07-24T10:22:33Z</time>
      </trkpt>
      <trkpt lat="45.79562" lon="6.61769">
        <ele>1980</ele>
        <time>2022-07-24T10:22:34Z</time>
      </trkpt>
      <trkpt lat="45.79561" lon="6.61771">
        <ele>1980</ele>
        <time>2022-07-24T10:22:35Z</time>
      </trkpt>
      <trkpt lat="45.79561" lon="6.61772">
        <ele>1980</ele>
        <time>2022-07-24T10:22:36Z</time>
      </trkpt>
      <trkpt lat="45.79561" lon="6.61774">
        <ele>1980</ele>
        <time>2022-07-24T10:22:37Z</time>
      </trkpt>
      <trkpt lat="45.79561" lon="6.61776">
        <ele>1980</ele>
        <time>2022-07-24T10:22:38Z</time>
      </trkpt>
      <trkpt lat="45.79561" lon="6.61777">
        <ele>1980</ele>
        <time>2022-07-24T10:22:39Z</time>
      </trkpt>
      <trkpt lat="45.79561" lon="6.61779">
        <ele>1980</ele>
        <time>2022-07-24T10:22:40Z</time>
      </trkpt>
      <trkpt lat="45.7956" lon="6.61781">
        <ele>1980</ele>
        <time>2022-07-24T10:22:41Z</time>
      </trkpt>
      <trkpt lat="45.7956" lon="6.61783">
        <ele>1980</ele>
        <time>2022-07-24T10:22:42Z</time>
      </trkpt>
      <trkpt lat="45.7956" lon="6.61784">
        <ele>1980</ele>
        <time>2022-07-24T10:22:43Z</time>
      </trkpt>
      <trkpt lat="45.7956" lon="6.61786">
        <ele>1980</ele>
        <time>2022-07-24T10:22:44Z</time>
      </trkpt>
      <trkpt lat="45.79559" lon="6.61787">
        <ele>1980</ele>
        <time>2022-07-24T10:22:45Z</time>
      </trkpt>
      <trkpt lat="45.79559" lon="6.61789">
        <ele>1980</ele>
        <time>2022-07-24T10:22:46Z</time>
      </trkpt>
      <trkpt lat="45.79558" lon="6.61791">
        <ele>1980</ele>
        <time>2022-07-24T10:22:47Z</time>
      </trkpt>
      <trkpt lat="45.79558" lon="6.61792">
        <ele>1980</ele>
        <time>2022-07-24T10:22:48Z</time>
      </trkpt>
      <trkpt lat="45.79557" lon="6.61793">
        <ele>1980</ele>
        <time>2022-07-24T10:22:49Z</time>
      </trkpt>
      <trkpt lat="45.79556" lon="6.61795">
        <ele>1980</ele>
        <time>2022-07-24T10:22:50Z</time>
      </trkpt>
      <trkpt lat="45.79555" lon="6.61795">
        <ele>1980</ele>
        <time>2022-07-24T10:22:51Z</time>
      </trkpt>
      <trkpt lat="45.79554" lon="6.61796">
        <ele>1980</ele>
        <time>2022-07-24T10:22:52Z</time>
      </trkpt>
      <trkpt lat="45.79553" lon="6.61797">
        <ele>1980</ele>
        <time>2022-07-24T10:22:53Z</time>
      </trkpt>
      <trkpt lat="45.79552" lon="6.61797">
        <ele>1980</ele>
        <time>2022-07-24T10:22:54Z</time>
      </trkpt>
      <trkpt lat="45.79551" lon="6.61798">
        <ele>1980</ele>
        <time>2022-07-24T10:22:55Z</time>
      </trkpt>
      <trkpt lat="45.7955" lon="6.61798">
        <ele>1980</ele>
        <time>2022-07-24T10:22:56Z</time>
      </trkpt>
      <trkpt lat="45.79548" lon="6.61799">
        <ele>1980</ele>
        <time>2022-07-24T10:22:57Z</time>
      </trkpt>
      <trkpt lat="45.79547" lon="6.61799">
        <ele>1980</ele>
        <time>2022-07-24T10:22:58Z</time>
      </trkpt>
      <trkpt lat="45.79546" lon="6.618">
        <ele>1980</ele>
        <time>2022-07-24T10:22:59Z</time>
      </trkpt>
      <trkpt lat="45.79545" lon="6.618">
        <ele>1980</ele>
        <time>2022-07-24T10:23:00Z</time>
      </trkpt>
      <trkpt lat="45.79544" lon="6.61801">
        <ele>1980</ele>
        <time>2022-07-24T10:23:01Z</time>
      </trkpt>
      <trkpt lat="45.79544" lon="6.61801">
        <ele>1980</ele>
        <time>2022-07-24T10:23:02Z</time>
      </trkpt>
      <trkpt lat="45.79543" lon="6.61801">
        <ele>1981</ele>
        <time>2022-07-24T10:23:03Z</time>
      </trkpt>
      <trkpt lat="45.79542" lon="6.61802">
        <ele>1981</ele>
        <time>2022-07-24T10:23:04Z</time>
      </trkpt>
      <trkpt lat="45.79541" lon="6.61802">
        <ele>1981</ele>
        <time>2022-07-24T10:23:05Z</time>
      </trkpt>
      <trkpt lat="45.7954" lon="6.61802">
        <ele>1981</ele>
        <time>2022-07-24T10:23:06Z</time>
      </trkpt>
      <trkpt lat="45.79539" lon="6.61803">
        <ele>1981</ele>
        <time>2022-07-24T10:23:07Z</time>
      </trkpt>
      <trkpt lat="45.79538" lon="6.61803">
        <ele>1981</ele>
        <time>2022-07-24T10:23:08Z</time>
      </trkpt>
      <trkpt lat="45.79537" lon="6.61804">
        <ele>1981</ele>
        <time>2022-07-24T10:23:09Z</time>
      </trkpt>
      <trkpt lat="45.79536" lon="6.61804">
        <ele>1981</ele>
        <time>2022-07-24T10:23:10Z</time>
      </trkpt>
      <trkpt lat="45.79535" lon="6.61805">
        <ele>1981</ele>
        <time>2022-07-24T10:23:11Z</time>
      </trkpt>
      <trkpt lat="45.79534" lon="6.61805">
        <ele>1981</ele>
        <time>2022-07-24T10:23:12Z</time>
      </trkpt>
      <trkpt lat="45.79534" lon="6.61806">
        <ele>1982</ele>
        <time>2022-07-24T10:23:13Z</time>
      </trkpt>
      <trkpt lat="45.79533" lon="6.61806">
        <ele>1982</ele>
        <time>2022-07-24T10:23:14Z</time>
      </trkpt>
      <trkpt lat="45.79532" lon="6.61807">
        <ele>1982</ele>
        <time>2022-07-24T10:23:15Z</time>
      </trkpt>
      <trkpt lat="45.79531" lon="6.61807">
        <ele>1982</ele>
        <time>2022-07-24T10:23:16Z</time>
      </trkpt>
      <trkpt lat="45.7953" lon="6.61808">
        <ele>1982</ele>
        <time>2022-07-24T10:23:17Z</time>
      </trkpt>
      <trkpt lat="45.7953" lon="6.61808">
        <ele>1982</ele>
        <time>2022-07-24T10:23:18Z</time>
      </trkpt>
      <trkpt lat="45.79529" lon="6.61809">
        <ele>1982</ele>
        <time>2022-07-24T10:23:19Z</time>
      </trkpt>
      <trkpt lat="45.79528" lon="6.6181">
        <ele>1982</ele>
        <time>2022-07-24T10:23:20Z</time>
      </trkpt>
      <trkpt lat="45.79527" lon="6.6181">
        <ele>1982</ele>
        <time>2022-07-24T10:23:21Z</time>
      </trkpt>
      <trkpt lat="45.79526" lon="6.61811">
        <ele>1982</ele>
        <time>2022-07-24T10:23:22Z</time>
      </trkpt>
      <trkpt lat="45.79525" lon="6.61812">
        <ele>1982</ele>
        <time>2022-07-24T10:23:23Z</time>
      </trkpt>
      <trkpt lat="45.79524" lon="6.61812">
        <ele>1982</ele>
        <time>2022-07-24T10:23:24Z</time>
      </trkpt>
      <trkpt lat="45.79524" lon="6.61813">
        <ele>1982</ele>
        <time>2022-07-24T10:23:25Z</time>
      </trkpt>
      <trkpt lat="45.79523" lon="6.61814">
        <ele>1982</ele>
        <time>2022-07-24T10:23:26Z</time>
      </trkpt>
      <trkpt lat="45.79522" lon="6.61814">
        <ele>1982</ele>
        <time>2022-07-24T10:23:27Z</time>
      </trkpt>
      <trkpt lat="45.79521" lon="6.61815">
        <ele>1982</ele>
        <time>2022-07-24T10:23:28Z</time>
      </trkpt>
      <trkpt lat="45.7952" lon="6.61816">
        <ele>1982</ele>
        <time>2022-07-24T10:23:29Z</time>
      </trkpt>
      <trkpt lat="45.7952" lon="6.61816">
        <ele>1982</ele>
        <time>2022-07-24T10:23:30Z</time>
      </trkpt>
      <trkpt lat="45.79519" lon="6.61817">
        <ele>1982</ele>
        <time>2022-07-24T10:23:31Z</time>
      </trkpt>
      <trkpt lat="45.79518" lon="6.61818">
        <ele>1982</ele>
        <time>2022-07-24T10:23:32Z</time>
      </trkpt>
      <trkpt lat="45.79517" lon="6.61819">
        <ele>1983</ele>
        <time>2022-07-24T10:23:33Z</time>
      </trkpt>
      <trkpt lat="45.79517" lon="6.61819">
        <ele>1983</ele>
        <time>2022-07-24T10:23:34Z</time>
      </trkpt>
      <trkpt lat="45.79516" lon="6.6182">
        <ele>1983</ele>
        <time>2022-07-24T10:23:35Z</time>
      </trkpt>
      <trkpt lat="45.79515" lon="6.6182">
        <ele>1983</ele>
        <time>2022-07-24T10:23:36Z</time>
      </trkpt>
      <trkpt lat="45.79514" lon="6.61821">
        <ele>1983</ele>
        <time>2022-07-24T10:23:37Z</time>
      </trkpt>
      <trkpt lat="45.79513" lon="6.61821">
        <ele>1983</ele>
        <time>2022-07-24T10:23:38Z</time>
      </trkpt>
      <trkpt lat="45.79513" lon="6.61822">
        <ele>1983</ele>
        <time>2022-07-24T10:23:39Z</time>
      </trkpt>
      <trkpt lat="45.79513" lon="6.61822">
        <ele>1983</ele>
        <time>2022-07-24T10:23:40Z</time>
      </trkpt>
      <trkpt lat="45.79512" lon="6.61822">
        <ele>1983</ele>
        <time>2022-07-24T10:23:41Z</time>
      </trkpt>
      <trkpt lat="45.79512" lon="6.61823">
        <ele>1983</ele>
        <time>2022-07-24T10:23:42Z</time>
      </trkpt>
      <trkpt lat="45.79511" lon="6.61823">
        <ele>1983</ele>
        <time>2022-07-24T10:23:43Z</time>
      </trkpt>
      <trkpt lat="45.7951" lon="6.61823">
        <ele>1983</ele>
        <time>2022-07-24T10:23:44Z</time>
      </trkpt>
      <trkpt lat="45.7951" lon="6.61824">
        <ele>1983</ele>
        <time>2022-07-24T10:23:45Z</time>
      </trkpt>
      <trkpt lat="45.79509" lon="6.61824">
        <ele>1983</ele>
        <time>2022-07-24T10:23:46Z</time>
      </trkpt>
      <trkpt lat="45.79508" lon="6.61824">
        <ele>1983</ele>
        <time>2022-07-24T10:23:47Z</time>
      </trkpt>
      <trkpt lat="45.79507" lon="6.61824">
        <ele>1984</ele>
        <time>2022-07-24T10:23:48Z</time>
      </trkpt>
      <trkpt lat="45.79506" lon="6.61825">
        <ele>1984</ele>
        <time>2022-07-24T10:23:49Z</time>
      </trkpt>
      <trkpt lat="45.79505" lon="6.61825">
        <ele>1984</ele>
        <time>2022-07-24T10:23:50Z</time>
      </trkpt>
      <trkpt lat="45.79504" lon="6.61825">
        <ele>1984</ele>
        <time>2022-07-24T10:23:51Z</time>
      </trkpt>
      <trkpt lat="45.79503" lon="6.61825">
        <ele>1984</ele>
        <time>2022-07-24T10:23:52Z</time>
      </trkpt>
      <trkpt lat="45.79502" lon="6.61825">
        <ele>1984</ele>
        <time>2022-07-24T10:23:53Z</time>
      </trkpt>
      <trkpt lat="45.79502" lon="6.61826">
        <ele>1984</ele>
        <time>2022-07-24T10:23:54Z</time>
      </trkpt>
      <trkpt lat="45.79501" lon="6.61826">
        <ele>1984</ele>
        <time>2022-07-24T10:23:55Z</time>
      </trkpt>
      <trkpt lat="45.79501" lon="6.61826">
        <ele>1985</ele>
        <time>2022-07-24T10:24:04Z</time>
      </trkpt>
      <trkpt lat="45.795" lon="6.61826">
        <ele>1985</ele>
        <time>2022-07-24T10:24:05Z</time>
      </trkpt>
      <trkpt lat="45.795" lon="6.61826">
        <ele>1985</ele>
        <time>2022-07-24T10:24:06Z</time>
      </trkpt>
      <trkpt lat="45.79499" lon="6.61826">
        <ele>1985</ele>
        <time>2022-07-24T10:24:07Z</time>
      </trkpt>
      <trkpt lat="45.79499" lon="6.61826">
        <ele>1985</ele>
        <time>2022-07-24T10:24:08Z</time>
      </trkpt>
      <trkpt lat="45.79498" lon="6.61827">
        <ele>1985</ele>
        <time>2022-07-24T10:24:09Z</time>
      </trkpt>
      <trkpt lat="45.79497" lon="6.61827">
        <ele>1985</ele>
        <time>2022-07-24T10:24:10Z</time>
      </trkpt>
      <trkpt lat="45.79496" lon="6.61827">
        <ele>1985</ele>
        <time>2022-07-24T10:24:11Z</time>
      </trkpt>
      <trkpt lat="45.79496" lon="6.61827">
        <ele>1985</ele>
        <time>2022-07-24T10:24:12Z</time>
      </trkpt>
      <trkpt lat="45.79495" lon="6.61827">
        <ele>1985</ele>
        <time>2022-07-24T10:24:13Z</time>
      </trkpt>
      <trkpt lat="45.79494" lon="6.61827">
        <ele>1985</ele>
        <time>2022-07-24T10:24:14Z</time>
      </trkpt>
      <trkpt lat="45.79494" lon="6.61827">
        <ele>1985</ele>
        <time>2022-07-24T10:24:15Z</time>
      </trkpt>
      <trkpt lat="45.79493" lon="6.61827">
        <ele>1985</ele>
        <time>2022-07-24T10:24:16Z</time>
      </trkpt>
      <trkpt lat="45.79492" lon="6.61828">
        <ele>1985</ele>
        <time>2022-07-24T10:24:17Z</time>
      </trkpt>
      <trkpt lat="45.79491" lon="6.61828">
        <ele>1986</ele>
        <time>2022-07-24T10:24:18Z</time>
      </trkpt>
      <trkpt lat="45.79491" lon="6.61829">
        <ele>1986</ele>
        <time>2022-07-24T10:24:19Z</time>
      </trkpt>
      <trkpt lat="45.7949" lon="6.61829">
        <ele>1986</ele>
        <time>2022-07-24T10:24:20Z</time>
      </trkpt>
      <trkpt lat="45.79489" lon="6.61829">
        <ele>1986</ele>
        <time>2022-07-24T10:24:21Z</time>
      </trkpt>
      <trkpt lat="45.79488" lon="6.6183">
        <ele>1986</ele>
        <time>2022-07-24T10:24:22Z</time>
      </trkpt>
      <trkpt lat="45.79487" lon="6.6183">
        <ele>1986</ele>
        <time>2022-07-24T10:24:23Z</time>
      </trkpt>
      <trkpt lat="45.79486" lon="6.61831">
        <ele>1986</ele>
        <time>2022-07-24T10:24:24Z</time>
      </trkpt>
      <trkpt lat="45.79485" lon="6.61831">
        <ele>1986</ele>
        <time>2022-07-24T10:24:25Z</time>
      </trkpt>
      <trkpt lat="45.79484" lon="6.61832">
        <ele>1986</ele>
        <time>2022-07-24T10:24:26Z</time>
      </trkpt>
      <trkpt lat="45.79483" lon="6.61833">
        <ele>1986</ele>
        <time>2022-07-24T10:24:27Z</time>
      </trkpt>
      <trkpt lat="45.79483" lon="6.61834">
        <ele>1987</ele>
        <time>2022-07-24T10:24:28Z</time>
      </trkpt>
      <trkpt lat="45.79482" lon="6.61835">
        <ele>1987</ele>
        <time>2022-07-24T10:24:29Z</time>
      </trkpt>
      <trkpt lat="45.79481" lon="6.61836">
        <ele>1987</ele>
        <time>2022-07-24T10:24:30Z</time>
      </trkpt>
      <trkpt lat="45.79481" lon="6.61836">
        <ele>1987</ele>
        <time>2022-07-24T10:24:31Z</time>
      </trkpt>
      <trkpt lat="45.7948" lon="6.61837">
        <ele>1987</ele>
        <time>2022-07-24T10:24:32Z</time>
      </trkpt>
      <trkpt lat="45.7948" lon="6.61838">
        <ele>1988</ele>
        <time>2022-07-24T10:24:33Z</time>
      </trkpt>
      <trkpt lat="45.79479" lon="6.61839">
        <ele>1988</ele>
        <time>2022-07-24T10:24:34Z</time>
      </trkpt>
      <trkpt lat="45.79479" lon="6.6184">
        <ele>1988</ele>
        <time>2022-07-24T10:24:35Z</time>
      </trkpt>
      <trkpt lat="45.79478" lon="6.61841">
        <ele>1988</ele>
        <time>2022-07-24T10:24:36Z</time>
      </trkpt>
      <trkpt lat="45.79477" lon="6.61842">
        <ele>1988</ele>
        <time>2022-07-24T10:24:37Z</time>
      </trkpt>
      <trkpt lat="45.79477" lon="6.61843">
        <ele>1989</ele>
        <time>2022-07-24T10:24:38Z</time>
      </trkpt>
      <trkpt lat="45.79476" lon="6.61845">
        <ele>1989</ele>
        <time>2022-07-24T10:24:39Z</time>
      </trkpt>
      <trkpt lat="45.79476" lon="6.61846">
        <ele>1989</ele>
        <time>2022-07-24T10:24:40Z</time>
      </trkpt>
      <trkpt lat="45.79475" lon="6.61847">
        <ele>1989</ele>
        <time>2022-07-24T10:24:41Z</time>
      </trkpt>
      <trkpt lat="45.79475" lon="6.61849">
        <ele>1989</ele>
        <time>2022-07-24T10:24:42Z</time>
      </trkpt>
      <trkpt lat="45.79474" lon="6.61851">
        <ele>1990</ele>
        <time>2022-07-24T10:24:43Z</time>
      </trkpt>
      <trkpt lat="45.79474" lon="6.61852">
        <ele>1990</ele>
        <time>2022-07-24T10:24:44Z</time>
      </trkpt>
      <trkpt lat="45.79474" lon="6.61854">
        <ele>1990</ele>
        <time>2022-07-24T10:24:45Z</time>
      </trkpt>
      <trkpt lat="45.79473" lon="6.61856">
        <ele>1990</ele>
        <time>2022-07-24T10:24:46Z</time>
      </trkpt>
      <trkpt lat="45.79473" lon="6.61857">
        <ele>1990</ele>
        <time>2022-07-24T10:24:47Z</time>
      </trkpt>
      <trkpt lat="45.79472" lon="6.61859">
        <ele>1990</ele>
        <time>2022-07-24T10:24:48Z</time>
      </trkpt>
      <trkpt lat="45.79472" lon="6.61861">
        <ele>1990</ele>
        <time>2022-07-24T10:24:49Z</time>
      </trkpt>
      <trkpt lat="45.79472" lon="6.61862">
        <ele>1990</ele>
        <time>2022-07-24T10:24:50Z</time>
      </trkpt>
      <trkpt lat="45.79471" lon="6.61864">
        <ele>1990</ele>
        <time>2022-07-24T10:24:51Z</time>
      </trkpt>
      <trkpt lat="45.79471" lon="6.61865">
        <ele>1990</ele>
        <time>2022-07-24T10:24:52Z</time>
      </trkpt>
      <trkpt lat="45.7947" lon="6.61867">
        <ele>1990</ele>
        <time>2022-07-24T10:24:53Z</time>
      </trkpt>
      <trkpt lat="45.7947" lon="6.61869">
        <ele>1990</ele>
        <time>2022-07-24T10:24:54Z</time>
      </trkpt>
      <trkpt lat="45.7947" lon="6.6187">
        <ele>1990</ele>
        <time>2022-07-24T10:24:55Z</time>
      </trkpt>
      <trkpt lat="45.79469" lon="6.61872">
        <ele>1990</ele>
        <time>2022-07-24T10:24:56Z</time>
      </trkpt>
      <trkpt lat="45.79469" lon="6.61874">
        <ele>1990</ele>
        <time>2022-07-24T10:24:57Z</time>
      </trkpt>
      <trkpt lat="45.79469" lon="6.61875">
        <ele>1991</ele>
        <time>2022-07-24T10:24:58Z</time>
      </trkpt>
      <trkpt lat="45.79468" lon="6.61877">
        <ele>1991</ele>
        <time>2022-07-24T10:24:59Z</time>
      </trkpt>
      <trkpt lat="45.79468" lon="6.61879">
        <ele>1991</ele>
        <time>2022-07-24T10:25:00Z</time>
      </trkpt>
      <trkpt lat="45.79468" lon="6.6188">
        <ele>1991</ele>
        <time>2022-07-24T10:25:01Z</time>
      </trkpt>
      <trkpt lat="45.79467" lon="6.61882">
        <ele>1991</ele>
        <time>2022-07-24T10:25:02Z</time>
      </trkpt>
      <trkpt lat="45.79467" lon="6.61884">
        <ele>1991</ele>
        <time>2022-07-24T10:25:03Z</time>
      </trkpt>
      <trkpt lat="45.79466" lon="6.61885">
        <ele>1991</ele>
        <time>2022-07-24T10:25:04Z</time>
      </trkpt>
      <trkpt lat="45.79465" lon="6.61887">
        <ele>1991</ele>
        <time>2022-07-24T10:25:05Z</time>
      </trkpt>
      <trkpt lat="45.79465" lon="6.61888">
        <ele>1991</ele>
        <time>2022-07-24T10:25:06Z</time>
      </trkpt>
      <trkpt lat="45.79464" lon="6.6189">
        <ele>1991</ele>
        <time>2022-07-24T10:25:07Z</time>
      </trkpt>
      <trkpt lat="45.79464" lon="6.61892">
        <ele>1991</ele>
        <time>2022-07-24T10:25:08Z</time>
      </trkpt>
      <trkpt lat="45.79463" lon="6.61893">
        <ele>1991</ele>
        <time>2022-07-24T10:25:09Z</time>
      </trkpt>
      <trkpt lat="45.79462" lon="6.61895">
        <ele>1991</ele>
        <time>2022-07-24T10:25:10Z</time>
      </trkpt>
      <trkpt lat="45.79462" lon="6.61896">
        <ele>1991</ele>
        <time>2022-07-24T10:25:11Z</time>
      </trkpt>
      <trkpt lat="45.79461" lon="6.61898">
        <ele>1991</ele>
        <time>2022-07-24T10:25:12Z</time>
      </trkpt>
      <trkpt lat="45.7946" lon="6.61899">
        <ele>1991</ele>
        <time>2022-07-24T10:25:13Z</time>
      </trkpt>
      <trkpt lat="45.79459" lon="6.61901">
        <ele>1991</ele>
        <time>2022-07-24T10:25:14Z</time>
      </trkpt>
      <trkpt lat="45.79459" lon="6.61902">
        <ele>1991</ele>
        <time>2022-07-24T10:25:15Z</time>
      </trkpt>
      <trkpt lat="45.79458" lon="6.61904">
        <ele>1991</ele>
        <time>2022-07-24T10:25:16Z</time>
      </trkpt>
      <trkpt lat="45.79458" lon="6.61905">
        <ele>1991</ele>
        <time>2022-07-24T10:25:17Z</time>
      </trkpt>
      <trkpt lat="45.79457" lon="6.61907">
        <ele>1991</ele>
        <time>2022-07-24T10:25:18Z</time>
      </trkpt>
      <trkpt lat="45.79457" lon="6.61909">
        <ele>1991</ele>
        <time>2022-07-24T10:25:19Z</time>
      </trkpt>
      <trkpt lat="45.79456" lon="6.6191">
        <ele>1991</ele>
        <time>2022-07-24T10:25:20Z</time>
      </trkpt>
      <trkpt lat="45.79456" lon="6.61912">
        <ele>1991</ele>
        <time>2022-07-24T10:25:21Z</time>
      </trkpt>
      <trkpt lat="45.79456" lon="6.61913">
        <ele>1991</ele>
        <time>2022-07-24T10:25:22Z</time>
      </trkpt>
      <trkpt lat="45.79455" lon="6.61915">
        <ele>1991</ele>
        <time>2022-07-24T10:25:23Z</time>
      </trkpt>
      <trkpt lat="45.79455" lon="6.61916">
        <ele>1991</ele>
        <time>2022-07-24T10:25:24Z</time>
      </trkpt>
      <trkpt lat="45.79455" lon="6.61918">
        <ele>1991</ele>
        <time>2022-07-24T10:25:25Z</time>
      </trkpt>
      <trkpt lat="45.79454" lon="6.61919">
        <ele>1991</ele>
        <time>2022-07-24T10:25:26Z</time>
      </trkpt>
      <trkpt lat="45.79454" lon="6.61921">
        <ele>1991</ele>
        <time>2022-07-24T10:25:27Z</time>
      </trkpt>
      <trkpt lat="45.79454" lon="6.61922">
        <ele>1991</ele>
        <time>2022-07-24T10:25:28Z</time>
      </trkpt>
      <trkpt lat="45.79453" lon="6.61923">
        <ele>1990</ele>
        <time>2022-07-24T10:25:29Z</time>
      </trkpt>
      <trkpt lat="45.79453" lon="6.61925">
        <ele>1990</ele>
        <time>2022-07-24T10:25:30Z</time>
      </trkpt>
      <trkpt lat="45.79453" lon="6.61926">
        <ele>1990</ele>
        <time>2022-07-24T10:25:31Z</time>
      </trkpt>
      <trkpt lat="45.79452" lon="6.61927">
        <ele>1990</ele>
        <time>2022-07-24T10:25:32Z</time>
      </trkpt>
      <trkpt lat="45.79452" lon="6.61929">
        <ele>1990</ele>
        <time>2022-07-24T10:25:33Z</time>
      </trkpt>
      <trkpt lat="45.79452" lon="6.6193">
        <ele>1989</ele>
        <time>2022-07-24T10:26:22Z</time>
      </trkpt>
      <trkpt lat="45.79452" lon="6.61931">
        <ele>1989</ele>
        <time>2022-07-24T10:26:23Z</time>
      </trkpt>
      <trkpt lat="45.79452" lon="6.61931">
        <ele>1988</ele>
        <time>2022-07-24T10:26:24Z</time>
      </trkpt>
      <trkpt lat="45.79452" lon="6.61932">
        <ele>1988</ele>
        <time>2022-07-24T10:26:25Z</time>
      </trkpt>
      <trkpt lat="45.79452" lon="6.61933">
        <ele>1988</ele>
        <time>2022-07-24T10:26:26Z</time>
      </trkpt>
      <trkpt lat="45.79452" lon="6.61934">
        <ele>1988</ele>
        <time>2022-07-24T10:26:27Z</time>
      </trkpt>
      <trkpt lat="45.79451" lon="6.61935">
        <ele>1988</ele>
        <time>2022-07-24T10:26:28Z</time>
      </trkpt>
      <trkpt lat="45.79451" lon="6.61937">
        <ele>1988</ele>
        <time>2022-07-24T10:26:29Z</time>
      </trkpt>
      <trkpt lat="45.79451" lon="6.61938">
        <ele>1988</ele>
        <time>2022-07-24T10:26:30Z</time>
      </trkpt>
      <trkpt lat="45.79451" lon="6.61939">
        <ele>1988</ele>
        <time>2022-07-24T10:26:31Z</time>
      </trkpt>
      <trkpt lat="45.79451" lon="6.6194">
        <ele>1988</ele>
        <time>2022-07-24T10:26:32Z</time>
      </trkpt>
      <trkpt lat="45.7945" lon="6.61942">
        <ele>1988</ele>
        <time>2022-07-24T10:26:33Z</time>
      </trkpt>
      <trkpt lat="45.7945" lon="6.61943">
        <ele>1987</ele>
        <time>2022-07-24T10:26:34Z</time>
      </trkpt>
      <trkpt lat="45.7945" lon="6.61945">
        <ele>1987</ele>
        <time>2022-07-24T10:26:35Z</time>
      </trkpt>
      <trkpt lat="45.7945" lon="6.61946">
        <ele>1987</ele>
        <time>2022-07-24T10:26:36Z</time>
      </trkpt>
      <trkpt lat="45.7945" lon="6.61947">
        <ele>1987</ele>
        <time>2022-07-24T10:26:37Z</time>
      </trkpt>
      <trkpt lat="45.7945" lon="6.61949">
        <ele>1987</ele>
        <time>2022-07-24T10:26:38Z</time>
      </trkpt>
      <trkpt lat="45.7945" lon="6.6195">
        <ele>1987</ele>
        <time>2022-07-24T10:26:39Z</time>
      </trkpt>
      <trkpt lat="45.7945" lon="6.61951">
        <ele>1987</ele>
        <time>2022-07-24T10:26:40Z</time>
      </trkpt>
      <trkpt lat="45.7945" lon="6.61952">
        <ele>1987</ele>
        <time>2022-07-24T10:26:41Z</time>
      </trkpt>
      <trkpt lat="45.7945" lon="6.61953">
        <ele>1987</ele>
        <time>2022-07-24T10:26:42Z</time>
      </trkpt>
      <trkpt lat="45.7945" lon="6.61954">
        <ele>1987</ele>
        <time>2022-07-24T10:26:43Z</time>
      </trkpt>
      <trkpt lat="45.7945" lon="6.61955">
        <ele>1986</ele>
        <time>2022-07-24T10:26:44Z</time>
      </trkpt>
      <trkpt lat="45.7945" lon="6.61956">
        <ele>1986</ele>
        <time>2022-07-24T10:26:45Z</time>
      </trkpt>
      <trkpt lat="45.79451" lon="6.61958">
        <ele>1986</ele>
        <time>2022-07-24T10:26:46Z</time>
      </trkpt>
      <trkpt lat="45.79451" lon="6.61959">
        <ele>1986</ele>
        <time>2022-07-24T10:26:47Z</time>
      </trkpt>
      <trkpt lat="45.79451" lon="6.6196">
        <ele>1986</ele>
        <time>2022-07-24T10:26:48Z</time>
      </trkpt>
      <trkpt lat="45.79451" lon="6.6196">
        <ele>1985</ele>
        <time>2022-07-24T10:26:49Z</time>
      </trkpt>
      <trkpt lat="45.79451" lon="6.61961">
        <ele>1985</ele>
        <time>2022-07-24T10:26:50Z</time>
      </trkpt>
      <trkpt lat="45.79451" lon="6.61961">
        <ele>1985</ele>
        <time>2022-07-24T10:26:51Z</time>
      </trkpt>
      <trkpt lat="45.79451" lon="6.61962">
        <ele>1985</ele>
        <time>2022-07-24T10:26:52Z</time>
      </trkpt>
      <trkpt lat="45.79452" lon="6.61962">
        <ele>1985</ele>
        <time>2022-07-24T10:26:53Z</time>
      </trkpt>
      <trkpt lat="45.79452" lon="6.61963">
        <ele>1985</ele>
        <time>2022-07-24T10:26:54Z</time>
      </trkpt>
      <trkpt lat="45.79452" lon="6.61964">
        <ele>1985</ele>
        <time>2022-07-24T10:26:55Z</time>
      </trkpt>
      <trkpt lat="45.79452" lon="6.61965">
        <ele>1985</ele>
        <time>2022-07-24T10:26:56Z</time>
      </trkpt>
      <trkpt lat="45.79453" lon="6.61966">
        <ele>1985</ele>
        <time>2022-07-24T10:26:57Z</time>
      </trkpt>
      <trkpt lat="45.79453" lon="6.61967">
        <ele>1985</ele>
        <time>2022-07-24T10:26:58Z</time>
      </trkpt>
      <trkpt lat="45.79454" lon="6.61968">
        <ele>1985</ele>
        <time>2022-07-24T10:26:59Z</time>
      </trkpt>
      <trkpt lat="45.79454" lon="6.6197">
        <ele>1985</ele>
        <time>2022-07-24T10:27:00Z</time>
      </trkpt>
      <trkpt lat="45.79455" lon="6.61971">
        <ele>1985</ele>
        <time>2022-07-24T10:27:01Z</time>
      </trkpt>
      <trkpt lat="45.79455" lon="6.61973">
        <ele>1985</ele>
        <time>2022-07-24T10:27:02Z</time>
      </trkpt>
      <trkpt lat="45.79456" lon="6.61974">
        <ele>1985</ele>
        <time>2022-07-24T10:27:03Z</time>
      </trkpt>
      <trkpt lat="45.79456" lon="6.61976">
        <ele>1984</ele>
        <time>2022-07-24T10:27:04Z</time>
      </trkpt>
      <trkpt lat="45.79456" lon="6.61978">
        <ele>1984</ele>
        <time>2022-07-24T10:27:05Z</time>
      </trkpt>
      <trkpt lat="45.79456" lon="6.61979">
        <ele>1984</ele>
        <time>2022-07-24T10:27:06Z</time>
      </trkpt>
      <trkpt lat="45.79456" lon="6.61981">
        <ele>1984</ele>
        <time>2022-07-24T10:27:07Z</time>
      </trkpt>
      <trkpt lat="45.79457" lon="6.61982">
        <ele>1984</ele>
        <time>2022-07-24T10:27:08Z</time>
      </trkpt>
      <trkpt lat="45.79457" lon="6.61984">
        <ele>1984</ele>
        <time>2022-07-24T10:27:09Z</time>
      </trkpt>
      <trkpt lat="45.79457" lon="6.61985">
        <ele>1984</ele>
        <time>2022-07-24T10:27:10Z</time>
      </trkpt>
      <trkpt lat="45.79458" lon="6.61987">
        <ele>1984</ele>
        <time>2022-07-24T10:27:11Z</time>
      </trkpt>
      <trkpt lat="45.79458" lon="6.61988">
        <ele>1984</ele>
        <time>2022-07-24T10:27:12Z</time>
      </trkpt>
      <trkpt lat="45.79459" lon="6.61989">
        <ele>1984</ele>
        <time>2022-07-24T10:27:13Z</time>
      </trkpt>
      <trkpt lat="45.79459" lon="6.6199">
        <ele>1984</ele>
        <time>2022-07-24T10:27:14Z</time>
      </trkpt>
      <trkpt lat="45.7946" lon="6.61991">
        <ele>1984</ele>
        <time>2022-07-24T10:27:15Z</time>
      </trkpt>
      <trkpt lat="45.79461" lon="6.61993">
        <ele>1984</ele>
        <time>2022-07-24T10:27:33Z</time>
      </trkpt>
      <trkpt lat="45.79461" lon="6.61995">
        <ele>1984</ele>
        <time>2022-07-24T10:27:34Z</time>
      </trkpt>
      <trkpt lat="45.79461" lon="6.61996">
        <ele>1984</ele>
        <time>2022-07-24T10:27:35Z</time>
      </trkpt>
      <trkpt lat="45.79462" lon="6.61997">
        <ele>1984</ele>
        <time>2022-07-24T10:27:36Z</time>
      </trkpt>
      <trkpt lat="45.79462" lon="6.61998">
        <ele>1984</ele>
        <time>2022-07-24T10:27:37Z</time>
      </trkpt>
      <trkpt lat="45.79462" lon="6.62">
        <ele>1984</ele>
        <time>2022-07-24T10:27:38Z</time>
      </trkpt>
      <trkpt lat="45.79463" lon="6.62002">
        <ele>1984</ele>
        <time>2022-07-24T10:27:39Z</time>
      </trkpt>
      <trkpt lat="45.79463" lon="6.62004">
        <ele>1984</ele>
        <time>2022-07-24T10:27:40Z</time>
      </trkpt>
      <trkpt lat="45.79463" lon="6.62006">
        <ele>1984</ele>
        <time>2022-07-24T10:27:41Z</time>
      </trkpt>
      <trkpt lat="45.79464" lon="6.62008">
        <ele>1984</ele>
        <time>2022-07-24T10:27:42Z</time>
      </trkpt>
      <trkpt lat="45.79464" lon="6.62009">
        <ele>1984</ele>
        <time>2022-07-24T10:27:43Z</time>
      </trkpt>
      <trkpt lat="45.79464" lon="6.62011">
        <ele>1984</ele>
        <time>2022-07-24T10:27:44Z</time>
      </trkpt>
      <trkpt lat="45.79464" lon="6.62013">
        <ele>1984</ele>
        <time>2022-07-24T10:27:45Z</time>
      </trkpt>
      <trkpt lat="45.79465" lon="6.62015">
        <ele>1984</ele>
        <time>2022-07-24T10:27:46Z</time>
      </trkpt>
      <trkpt lat="45.79465" lon="6.62017">
        <ele>1984</ele>
        <time>2022-07-24T10:27:47Z</time>
      </trkpt>
      <trkpt lat="45.79466" lon="6.62019">
        <ele>1984</ele>
        <time>2022-07-24T10:27:48Z</time>
      </trkpt>
      <trkpt lat="45.79466" lon="6.6202">
        <ele>1983</ele>
        <time>2022-07-24T10:27:49Z</time>
      </trkpt>
      <trkpt lat="45.79466" lon="6.62022">
        <ele>1983</ele>
        <time>2022-07-24T10:27:50Z</time>
      </trkpt>
      <trkpt lat="45.79467" lon="6.62023">
        <ele>1983</ele>
        <time>2022-07-24T10:27:51Z</time>
      </trkpt>
      <trkpt lat="45.79467" lon="6.62025">
        <ele>1983</ele>
        <time>2022-07-24T10:27:52Z</time>
      </trkpt>
      <trkpt lat="45.79468" lon="6.62027">
        <ele>1983</ele>
        <time>2022-07-24T10:27:53Z</time>
      </trkpt>
      <trkpt lat="45.79468" lon="6.62028">
        <ele>1983</ele>
        <time>2022-07-24T10:27:54Z</time>
      </trkpt>
      <trkpt lat="45.79468" lon="6.6203">
        <ele>1983</ele>
        <time>2022-07-24T10:27:55Z</time>
      </trkpt>
      <trkpt lat="45.79468" lon="6.62031">
        <ele>1983</ele>
        <time>2022-07-24T10:27:56Z</time>
      </trkpt>
      <trkpt lat="45.79469" lon="6.62033">
        <ele>1983</ele>
        <time>2022-07-24T10:27:57Z</time>
      </trkpt>
      <trkpt lat="45.79469" lon="6.62035">
        <ele>1983</ele>
        <time>2022-07-24T10:27:58Z</time>
      </trkpt>
      <trkpt lat="45.79469" lon="6.62037">
        <ele>1983</ele>
        <time>2022-07-24T10:27:59Z</time>
      </trkpt>
      <trkpt lat="45.79469" lon="6.62038">
        <ele>1983</ele>
        <time>2022-07-24T10:28:00Z</time>
      </trkpt>
      <trkpt lat="45.79469" lon="6.6204">
        <ele>1983</ele>
        <time>2022-07-24T10:28:01Z</time>
      </trkpt>
      <trkpt lat="45.79469" lon="6.62042">
        <ele>1983</ele>
        <time>2022-07-24T10:28:02Z</time>
      </trkpt>
      <trkpt lat="45.79469" lon="6.62044">
        <ele>1983</ele>
        <time>2022-07-24T10:28:03Z</time>
      </trkpt>
      <trkpt lat="45.7947" lon="6.62045">
        <ele>1983</ele>
        <time>2022-07-24T10:28:04Z</time>
      </trkpt>
      <trkpt lat="45.7947" lon="6.62047">
        <ele>1983</ele>
        <time>2022-07-24T10:28:05Z</time>
      </trkpt>
      <trkpt lat="45.7947" lon="6.62049">
        <ele>1983</ele>
        <time>2022-07-24T10:28:06Z</time>
      </trkpt>
      <trkpt lat="45.7947" lon="6.62051">
        <ele>1983</ele>
        <time>2022-07-24T10:28:07Z</time>
      </trkpt>
      <trkpt lat="45.7947" lon="6.62052">
        <ele>1983</ele>
        <time>2022-07-24T10:28:08Z</time>
      </trkpt>
      <trkpt lat="45.7947" lon="6.62054">
        <ele>1983</ele>
        <time>2022-07-24T10:28:09Z</time>
      </trkpt>
      <trkpt lat="45.7947" lon="6.62056">
        <ele>1983</ele>
        <time>2022-07-24T10:28:10Z</time>
      </trkpt>
      <trkpt lat="45.79469" lon="6.62058">
        <ele>1983</ele>
        <time>2022-07-24T10:28:11Z</time>
      </trkpt>
      <trkpt lat="45.79469" lon="6.62059">
        <ele>1983</ele>
        <time>2022-07-24T10:28:12Z</time>
      </trkpt>
      <trkpt lat="45.79469" lon="6.62061">
        <ele>1983</ele>
        <time>2022-07-24T10:28:13Z</time>
      </trkpt>
      <trkpt lat="45.79469" lon="6.62063">
        <ele>1982</ele>
        <time>2022-07-24T10:28:14Z</time>
      </trkpt>
      <trkpt lat="45.79469" lon="6.62064">
        <ele>1982</ele>
        <time>2022-07-24T10:28:15Z</time>
      </trkpt>
      <trkpt lat="45.79469" lon="6.62066">
        <ele>1982</ele>
        <time>2022-07-24T10:28:16Z</time>
      </trkpt>
      <trkpt lat="45.79469" lon="6.62068">
        <ele>1982</ele>
        <time>2022-07-24T10:28:17Z</time>
      </trkpt>
      <trkpt lat="45.79469" lon="6.6207">
        <ele>1982</ele>
        <time>2022-07-24T10:28:18Z</time>
      </trkpt>
      <trkpt lat="45.79469" lon="6.62071">
        <ele>1982</ele>
        <time>2022-07-24T10:28:19Z</time>
      </trkpt>
      <trkpt lat="45.79469" lon="6.62073">
        <ele>1982</ele>
        <time>2022-07-24T10:28:20Z</time>
      </trkpt>
      <trkpt lat="45.7947" lon="6.62075">
        <ele>1982</ele>
        <time>2022-07-24T10:28:21Z</time>
      </trkpt>
      <trkpt lat="45.7947" lon="6.62077">
        <ele>1982</ele>
        <time>2022-07-24T10:28:22Z</time>
      </trkpt>
      <trkpt lat="45.7947" lon="6.62079">
        <ele>1982</ele>
        <time>2022-07-24T10:28:23Z</time>
      </trkpt>
      <trkpt lat="45.7947" lon="6.6208">
        <ele>1981</ele>
        <time>2022-07-24T10:28:24Z</time>
      </trkpt>
      <trkpt lat="45.7947" lon="6.62082">
        <ele>1981</ele>
        <time>2022-07-24T10:28:25Z</time>
      </trkpt>
      <trkpt lat="45.7947" lon="6.62084">
        <ele>1981</ele>
        <time>2022-07-24T10:28:26Z</time>
      </trkpt>
      <trkpt lat="45.7947" lon="6.62086">
        <ele>1981</ele>
        <time>2022-07-24T10:28:27Z</time>
      </trkpt>
      <trkpt lat="45.79469" lon="6.62087">
        <ele>1981</ele>
        <time>2022-07-24T10:28:28Z</time>
      </trkpt>
      <trkpt lat="45.79469" lon="6.62089">
        <ele>1981</ele>
        <time>2022-07-24T10:28:29Z</time>
      </trkpt>
      <trkpt lat="45.79469" lon="6.62091">
        <ele>1981</ele>
        <time>2022-07-24T10:28:30Z</time>
      </trkpt>
      <trkpt lat="45.79469" lon="6.62092">
        <ele>1981</ele>
        <time>2022-07-24T10:28:31Z</time>
      </trkpt>
      <trkpt lat="45.79469" lon="6.62094">
        <ele>1981</ele>
        <time>2022-07-24T10:28:32Z</time>
      </trkpt>
      <trkpt lat="45.79469" lon="6.62096">
        <ele>1981</ele>
        <time>2022-07-24T10:28:33Z</time>
      </trkpt>
      <trkpt lat="45.79469" lon="6.62098">
        <ele>1980</ele>
        <time>2022-07-24T10:28:34Z</time>
      </trkpt>
      <trkpt lat="45.79469" lon="6.621">
        <ele>1980</ele>
        <time>2022-07-24T10:28:35Z</time>
      </trkpt>
      <trkpt lat="45.79469" lon="6.62102">
        <ele>1980</ele>
        <time>2022-07-24T10:28:36Z</time>
      </trkpt>
      <trkpt lat="45.79469" lon="6.62103">
        <ele>1980</ele>
        <time>2022-07-24T10:28:37Z</time>
      </trkpt>
      <trkpt lat="45.79469" lon="6.62105">
        <ele>1980</ele>
        <time>2022-07-24T10:28:38Z</time>
      </trkpt>
      <trkpt lat="45.7947" lon="6.62107">
        <ele>1980</ele>
        <time>2022-07-24T10:28:39Z</time>
      </trkpt>
      <trkpt lat="45.7947" lon="6.62109">
        <ele>1980</ele>
        <time>2022-07-24T10:28:40Z</time>
      </trkpt>
      <trkpt lat="45.7947" lon="6.62111">
        <ele>1980</ele>
        <time>2022-07-24T10:28:41Z</time>
      </trkpt>
      <trkpt lat="45.7947" lon="6.62113">
        <ele>1980</ele>
        <time>2022-07-24T10:28:42Z</time>
      </trkpt>
      <trkpt lat="45.7947" lon="6.62115">
        <ele>1980</ele>
        <time>2022-07-24T10:28:43Z</time>
      </trkpt>
      <trkpt lat="45.7947" lon="6.62116">
        <ele>1979</ele>
        <time>2022-07-24T10:28:44Z</time>
      </trkpt>
      <trkpt lat="45.7947" lon="6.62118">
        <ele>1979</ele>
        <time>2022-07-24T10:28:45Z</time>
      </trkpt>
      <trkpt lat="45.7947" lon="6.6212">
        <ele>1979</ele>
        <time>2022-07-24T10:28:46Z</time>
      </trkpt>
      <trkpt lat="45.7947" lon="6.62122">
        <ele>1979</ele>
        <time>2022-07-24T10:28:47Z</time>
      </trkpt>
      <trkpt lat="45.7947" lon="6.62124">
        <ele>1979</ele>
        <time>2022-07-24T10:28:48Z</time>
      </trkpt>
      <trkpt lat="45.7947" lon="6.62126">
        <ele>1979</ele>
        <time>2022-07-24T10:28:49Z</time>
      </trkpt>
      <trkpt lat="45.7947" lon="6.62128">
        <ele>1979</ele>
        <time>2022-07-24T10:28:50Z</time>
      </trkpt>
      <trkpt lat="45.7947" lon="6.62129">
        <ele>1979</ele>
        <time>2022-07-24T10:28:51Z</time>
      </trkpt>
      <trkpt lat="45.7947" lon="6.62131">
        <ele>1979</ele>
        <time>2022-07-24T10:28:52Z</time>
      </trkpt>
      <trkpt lat="45.7947" lon="6.62133">
        <ele>1979</ele>
        <time>2022-07-24T10:28:53Z</time>
      </trkpt>
      <trkpt lat="45.7947" lon="6.62135">
        <ele>1978</ele>
        <time>2022-07-24T10:28:54Z</time>
      </trkpt>
      <trkpt lat="45.7947" lon="6.62137">
        <ele>1978</ele>
        <time>2022-07-24T10:28:55Z</time>
      </trkpt>
      <trkpt lat="45.7947" lon="6.62139">
        <ele>1978</ele>
        <time>2022-07-24T10:28:56Z</time>
      </trkpt>
      <trkpt lat="45.7947" lon="6.62141">
        <ele>1978</ele>
        <time>2022-07-24T10:28:57Z</time>
      </trkpt>
      <trkpt lat="45.7947" lon="6.62143">
        <ele>1978</ele>
        <time>2022-07-24T10:28:58Z</time>
      </trkpt>
      <trkpt lat="45.7947" lon="6.62145">
        <ele>1978</ele>
        <time>2022-07-24T10:28:59Z</time>
      </trkpt>
      <trkpt lat="45.7947" lon="6.62147">
        <ele>1978</ele>
        <time>2022-07-24T10:29:00Z</time>
      </trkpt>
      <trkpt lat="45.79469" lon="6.62149">
        <ele>1978</ele>
        <time>2022-07-24T10:29:01Z</time>
      </trkpt>
      <trkpt lat="45.79469" lon="6.62151">
        <ele>1978</ele>
        <time>2022-07-24T10:29:02Z</time>
      </trkpt>
      <trkpt lat="45.79469" lon="6.62153">
        <ele>1978</ele>
        <time>2022-07-24T10:29:03Z</time>
      </trkpt>
      <trkpt lat="45.79468" lon="6.62155">
        <ele>1977</ele>
        <time>2022-07-24T10:29:04Z</time>
      </trkpt>
      <trkpt lat="45.79468" lon="6.62157">
        <ele>1977</ele>
        <time>2022-07-24T10:29:05Z</time>
      </trkpt>
      <trkpt lat="45.79468" lon="6.62158">
        <ele>1977</ele>
        <time>2022-07-24T10:29:06Z</time>
      </trkpt>
      <trkpt lat="45.79467" lon="6.6216">
        <ele>1977</ele>
        <time>2022-07-24T10:29:07Z</time>
      </trkpt>
      <trkpt lat="45.79467" lon="6.62162">
        <ele>1977</ele>
        <time>2022-07-24T10:29:08Z</time>
      </trkpt>
      <trkpt lat="45.79467" lon="6.62164">
        <ele>1976</ele>
        <time>2022-07-24T10:29:09Z</time>
      </trkpt>
      <trkpt lat="45.79467" lon="6.62166">
        <ele>1976</ele>
        <time>2022-07-24T10:29:10Z</time>
      </trkpt>
      <trkpt lat="45.79467" lon="6.62168">
        <ele>1975</ele>
        <time>2022-07-24T10:29:11Z</time>
      </trkpt>
      <trkpt lat="45.79466" lon="6.6217">
        <ele>1975</ele>
        <time>2022-07-24T10:29:12Z</time>
      </trkpt>
      <trkpt lat="45.79466" lon="6.62172">
        <ele>1975</ele>
        <time>2022-07-24T10:29:13Z</time>
      </trkpt>
      <trkpt lat="45.79466" lon="6.62174">
        <ele>1975</ele>
        <time>2022-07-24T10:29:14Z</time>
      </trkpt>
      <trkpt lat="45.79466" lon="6.62176">
        <ele>1975</ele>
        <time>2022-07-24T10:29:15Z</time>
      </trkpt>
      <trkpt lat="45.79466" lon="6.62178">
        <ele>1975</ele>
        <time>2022-07-24T10:29:16Z</time>
      </trkpt>
      <trkpt lat="45.79466" lon="6.62179">
        <ele>1975</ele>
        <time>2022-07-24T10:29:17Z</time>
      </trkpt>
      <trkpt lat="45.79465" lon="6.62181">
        <ele>1975</ele>
        <time>2022-07-24T10:29:18Z</time>
      </trkpt>
      <trkpt lat="45.79465" lon="6.62183">
        <ele>1974</ele>
        <time>2022-07-24T10:29:19Z</time>
      </trkpt>
      <trkpt lat="45.79465" lon="6.62185">
        <ele>1974</ele>
        <time>2022-07-24T10:29:20Z</time>
      </trkpt>
      <trkpt lat="45.79465" lon="6.62187">
        <ele>1974</ele>
        <time>2022-07-24T10:29:21Z</time>
      </trkpt>
      <trkpt lat="45.79464" lon="6.62188">
        <ele>1974</ele>
        <time>2022-07-24T10:29:22Z</time>
      </trkpt>
      <trkpt lat="45.79464" lon="6.6219">
        <ele>1974</ele>
        <time>2022-07-24T10:29:23Z</time>
      </trkpt>
      <trkpt lat="45.79464" lon="6.62192">
        <ele>1974</ele>
        <time>2022-07-24T10:29:24Z</time>
      </trkpt>
      <trkpt lat="45.79464" lon="6.62193">
        <ele>1974</ele>
        <time>2022-07-24T10:29:25Z</time>
      </trkpt>
      <trkpt lat="45.79463" lon="6.62195">
        <ele>1974</ele>
        <time>2022-07-24T10:29:26Z</time>
      </trkpt>
      <trkpt lat="45.79463" lon="6.62196">
        <ele>1974</ele>
        <time>2022-07-24T10:29:27Z</time>
      </trkpt>
      <trkpt lat="45.79463" lon="6.62197">
        <ele>1974</ele>
        <time>2022-07-24T10:29:28Z</time>
      </trkpt>
      <trkpt lat="45.79463" lon="6.62199">
        <ele>1973</ele>
        <time>2022-07-24T10:29:29Z</time>
      </trkpt>
      <trkpt lat="45.79463" lon="6.622">
        <ele>1973</ele>
        <time>2022-07-24T10:29:30Z</time>
      </trkpt>
      <trkpt lat="45.79462" lon="6.62201">
        <ele>1973</ele>
        <time>2022-07-24T10:29:31Z</time>
      </trkpt>
      <trkpt lat="45.79462" lon="6.62202">
        <ele>1973</ele>
        <time>2022-07-24T10:29:32Z</time>
      </trkpt>
      <trkpt lat="45.79462" lon="6.62203">
        <ele>1973</ele>
        <time>2022-07-24T10:29:33Z</time>
      </trkpt>
      <trkpt lat="45.79462" lon="6.62205">
        <ele>1972</ele>
        <time>2022-07-24T10:29:34Z</time>
      </trkpt>
      <trkpt lat="45.79462" lon="6.62206">
        <ele>1972</ele>
        <time>2022-07-24T10:29:35Z</time>
      </trkpt>
      <trkpt lat="45.79461" lon="6.62207">
        <ele>1972</ele>
        <time>2022-07-24T10:29:36Z</time>
      </trkpt>
      <trkpt lat="45.79461" lon="6.62209">
        <ele>1972</ele>
        <time>2022-07-24T10:29:37Z</time>
      </trkpt>
      <trkpt lat="45.79461" lon="6.6221">
        <ele>1972</ele>
        <time>2022-07-24T10:29:38Z</time>
      </trkpt>
      <trkpt lat="45.79461" lon="6.62212">
        <ele>1972</ele>
        <time>2022-07-24T10:29:39Z</time>
      </trkpt>
      <trkpt lat="45.79461" lon="6.62214">
        <ele>1972</ele>
        <time>2022-07-24T10:29:40Z</time>
      </trkpt>
      <trkpt lat="45.79461" lon="6.62215">
        <ele>1972</ele>
        <time>2022-07-24T10:29:41Z</time>
      </trkpt>
      <trkpt lat="45.79461" lon="6.62217">
        <ele>1972</ele>
        <time>2022-07-24T10:29:42Z</time>
      </trkpt>
      <trkpt lat="45.79461" lon="6.62219">
        <ele>1972</ele>
        <time>2022-07-24T10:29:43Z</time>
      </trkpt>
      <trkpt lat="45.79461" lon="6.6222">
        <ele>1971</ele>
        <time>2022-07-24T10:29:44Z</time>
      </trkpt>
      <trkpt lat="45.79461" lon="6.62222">
        <ele>1971</ele>
        <time>2022-07-24T10:29:45Z</time>
      </trkpt>
      <trkpt lat="45.7946" lon="6.62223">
        <ele>1971</ele>
        <time>2022-07-24T10:29:46Z</time>
      </trkpt>
      <trkpt lat="45.7946" lon="6.62225">
        <ele>1971</ele>
        <time>2022-07-24T10:29:47Z</time>
      </trkpt>
      <trkpt lat="45.7946" lon="6.62225">
        <ele>1971</ele>
        <time>2022-07-24T10:29:48Z</time>
      </trkpt>
      <trkpt lat="45.7946" lon="6.62226">
        <ele>1971</ele>
        <time>2022-07-24T10:29:49Z</time>
      </trkpt>
      <trkpt lat="45.7946" lon="6.62227">
        <ele>1971</ele>
        <time>2022-07-24T10:29:50Z</time>
      </trkpt>
      <trkpt lat="45.7946" lon="6.62228">
        <ele>1971</ele>
        <time>2022-07-24T10:29:51Z</time>
      </trkpt>
      <trkpt lat="45.7946" lon="6.62229">
        <ele>1971</ele>
        <time>2022-07-24T10:29:52Z</time>
      </trkpt>
      <trkpt lat="45.7946" lon="6.6223">
        <ele>1971</ele>
        <time>2022-07-24T10:29:53Z</time>
      </trkpt>
      <trkpt lat="45.7946" lon="6.62231">
        <ele>1971</ele>
        <time>2022-07-24T10:29:54Z</time>
      </trkpt>
      <trkpt lat="45.79459" lon="6.62233">
        <ele>1971</ele>
        <time>2022-07-24T10:29:55Z</time>
      </trkpt>
      <trkpt lat="45.79459" lon="6.62234">
        <ele>1971</ele>
        <time>2022-07-24T10:29:56Z</time>
      </trkpt>
      <trkpt lat="45.79459" lon="6.62236">
        <ele>1971</ele>
        <time>2022-07-24T10:29:57Z</time>
      </trkpt>
      <trkpt lat="45.79458" lon="6.62238">
        <ele>1971</ele>
        <time>2022-07-24T10:29:58Z</time>
      </trkpt>
      <trkpt lat="45.79458" lon="6.62239">
        <ele>1970</ele>
        <time>2022-07-24T10:29:59Z</time>
      </trkpt>
      <trkpt lat="45.79457" lon="6.62241">
        <ele>1970</ele>
        <time>2022-07-24T10:30:00Z</time>
      </trkpt>
      <trkpt lat="45.79456" lon="6.62242">
        <ele>1970</ele>
        <time>2022-07-24T10:30:01Z</time>
      </trkpt>
      <trkpt lat="45.79456" lon="6.62244">
        <ele>1970</ele>
        <time>2022-07-24T10:30:02Z</time>
      </trkpt>
      <trkpt lat="45.79455" lon="6.62245">
        <ele>1970</ele>
        <time>2022-07-24T10:30:03Z</time>
      </trkpt>
      <trkpt lat="45.79455" lon="6.62246">
        <ele>1970</ele>
        <time>2022-07-24T10:30:04Z</time>
      </trkpt>
      <trkpt lat="45.79454" lon="6.62247">
        <ele>1970</ele>
        <time>2022-07-24T10:30:05Z</time>
      </trkpt>
      <trkpt lat="45.79453" lon="6.62248">
        <ele>1970</ele>
        <time>2022-07-24T10:30:06Z</time>
      </trkpt>
      <trkpt lat="45.79453" lon="6.62249">
        <ele>1970</ele>
        <time>2022-07-24T10:30:07Z</time>
      </trkpt>
      <trkpt lat="45.79452" lon="6.6225">
        <ele>1971</ele>
        <time>2022-07-24T10:30:08Z</time>
      </trkpt>
      <trkpt lat="45.79452" lon="6.62251">
        <ele>1971</ele>
        <time>2022-07-24T10:30:09Z</time>
      </trkpt>
      <trkpt lat="45.79451" lon="6.62252">
        <ele>1971</ele>
        <time>2022-07-24T10:30:10Z</time>
      </trkpt>
      <trkpt lat="45.7945" lon="6.62253">
        <ele>1971</ele>
        <time>2022-07-24T10:30:11Z</time>
      </trkpt>
      <trkpt lat="45.79449" lon="6.62254">
        <ele>1971</ele>
        <time>2022-07-24T10:30:12Z</time>
      </trkpt>
      <trkpt lat="45.79449" lon="6.62255">
        <ele>1971</ele>
        <time>2022-07-24T10:30:13Z</time>
      </trkpt>
      <trkpt lat="45.79448" lon="6.62256">
        <ele>1971</ele>
        <time>2022-07-24T10:30:14Z</time>
      </trkpt>
      <trkpt lat="45.79448" lon="6.62258">
        <ele>1971</ele>
        <time>2022-07-24T10:30:15Z</time>
      </trkpt>
      <trkpt lat="45.79447" lon="6.62259">
        <ele>1971</ele>
        <time>2022-07-24T10:30:16Z</time>
      </trkpt>
      <trkpt lat="45.79447" lon="6.6226">
        <ele>1971</ele>
        <time>2022-07-24T10:30:17Z</time>
      </trkpt>
      <trkpt lat="45.79446" lon="6.62261">
        <ele>1971</ele>
        <time>2022-07-24T10:30:18Z</time>
      </trkpt>
      <trkpt lat="45.79445" lon="6.62263">
        <ele>1971</ele>
        <time>2022-07-24T10:30:19Z</time>
      </trkpt>
      <trkpt lat="45.79445" lon="6.62264">
        <ele>1971</ele>
        <time>2022-07-24T10:30:20Z</time>
      </trkpt>
      <trkpt lat="45.79444" lon="6.62266">
        <ele>1971</ele>
        <time>2022-07-24T10:30:21Z</time>
      </trkpt>
      <trkpt lat="45.79443" lon="6.62267">
        <ele>1971</ele>
        <time>2022-07-24T10:30:22Z</time>
      </trkpt>
      <trkpt lat="45.79443" lon="6.62269">
        <ele>1972</ele>
        <time>2022-07-24T10:30:23Z</time>
      </trkpt>
      <trkpt lat="45.79442" lon="6.62271">
        <ele>1972</ele>
        <time>2022-07-24T10:30:24Z</time>
      </trkpt>
      <trkpt lat="45.79442" lon="6.62272">
        <ele>1972</ele>
        <time>2022-07-24T10:30:25Z</time>
      </trkpt>
      <trkpt lat="45.79442" lon="6.62274">
        <ele>1972</ele>
        <time>2022-07-24T10:30:26Z</time>
      </trkpt>
      <trkpt lat="45.79441" lon="6.62275">
        <ele>1972</ele>
        <time>2022-07-24T10:30:27Z</time>
      </trkpt>
      <trkpt lat="45.79441" lon="6.62277">
        <ele>1972</ele>
        <time>2022-07-24T10:30:28Z</time>
      </trkpt>
      <trkpt lat="45.79441" lon="6.62278">
        <ele>1972</ele>
        <time>2022-07-24T10:30:29Z</time>
      </trkpt>
      <trkpt lat="45.7944" lon="6.62279">
        <ele>1972</ele>
        <time>2022-07-24T10:30:30Z</time>
      </trkpt>
      <trkpt lat="45.7944" lon="6.62281">
        <ele>1972</ele>
        <time>2022-07-24T10:30:31Z</time>
      </trkpt>
      <trkpt lat="45.7944" lon="6.62282">
        <ele>1972</ele>
        <time>2022-07-24T10:30:32Z</time>
      </trkpt>
      <trkpt lat="45.7944" lon="6.62283">
        <ele>1972</ele>
        <time>2022-07-24T10:30:33Z</time>
      </trkpt>
      <trkpt lat="45.79439" lon="6.62285">
        <ele>1972</ele>
        <time>2022-07-24T10:30:34Z</time>
      </trkpt>
      <trkpt lat="45.79439" lon="6.62286">
        <ele>1972</ele>
        <time>2022-07-24T10:30:35Z</time>
      </trkpt>
      <trkpt lat="45.79439" lon="6.62287">
        <ele>1972</ele>
        <time>2022-07-24T10:30:36Z</time>
      </trkpt>
      <trkpt lat="45.79438" lon="6.62289">
        <ele>1972</ele>
        <time>2022-07-24T10:30:37Z</time>
      </trkpt>
      <trkpt lat="45.79438" lon="6.6229">
        <ele>1973</ele>
        <time>2022-07-24T10:30:38Z</time>
      </trkpt>
      <trkpt lat="45.79438" lon="6.62291">
        <ele>1973</ele>
        <time>2022-07-24T10:30:39Z</time>
      </trkpt>
      <trkpt lat="45.79438" lon="6.62293">
        <ele>1973</ele>
        <time>2022-07-24T10:30:40Z</time>
      </trkpt>
      <trkpt lat="45.79438" lon="6.62295">
        <ele>1973</ele>
        <time>2022-07-24T10:30:41Z</time>
      </trkpt>
      <trkpt lat="45.79438" lon="6.62296">
        <ele>1973</ele>
        <time>2022-07-24T10:30:42Z</time>
      </trkpt>
      <trkpt lat="45.79438" lon="6.62298">
        <ele>1973</ele>
        <time>2022-07-24T10:30:43Z</time>
      </trkpt>
      <trkpt lat="45.79438" lon="6.623">
        <ele>1972</ele>
        <time>2022-07-24T10:30:44Z</time>
      </trkpt>
      <trkpt lat="45.79438" lon="6.62302">
        <ele>1972</ele>
        <time>2022-07-24T10:30:45Z</time>
      </trkpt>
      <trkpt lat="45.79438" lon="6.62304">
        <ele>1972</ele>
        <time>2022-07-24T10:30:46Z</time>
      </trkpt>
      <trkpt lat="45.79439" lon="6.62305">
        <ele>1972</ele>
        <time>2022-07-24T10:30:47Z</time>
      </trkpt>
      <trkpt lat="45.79439" lon="6.62307">
        <ele>1972</ele>
        <time>2022-07-24T10:30:48Z</time>
      </trkpt>
      <trkpt lat="45.79439" lon="6.62309">
        <ele>1971</ele>
        <time>2022-07-24T10:30:49Z</time>
      </trkpt>
      <trkpt lat="45.7944" lon="6.62311">
        <ele>1971</ele>
        <time>2022-07-24T10:30:50Z</time>
      </trkpt>
      <trkpt lat="45.7944" lon="6.62313">
        <ele>1971</ele>
        <time>2022-07-24T10:30:51Z</time>
      </trkpt>
      <trkpt lat="45.7944" lon="6.62314">
        <ele>1971</ele>
        <time>2022-07-24T10:30:52Z</time>
      </trkpt>
      <trkpt lat="45.79441" lon="6.62316">
        <ele>1971</ele>
        <time>2022-07-24T10:30:53Z</time>
      </trkpt>
      <trkpt lat="45.79441" lon="6.62318">
        <ele>1970</ele>
        <time>2022-07-24T10:30:54Z</time>
      </trkpt>
      <trkpt lat="45.79442" lon="6.6232">
        <ele>1970</ele>
        <time>2022-07-24T10:30:55Z</time>
      </trkpt>
      <trkpt lat="45.79442" lon="6.62321">
        <ele>1970</ele>
        <time>2022-07-24T10:30:56Z</time>
      </trkpt>
      <trkpt lat="45.79442" lon="6.62323">
        <ele>1970</ele>
        <time>2022-07-24T10:30:57Z</time>
      </trkpt>
      <trkpt lat="45.79443" lon="6.62325">
        <ele>1970</ele>
        <time>2022-07-24T10:30:58Z</time>
      </trkpt>
      <trkpt lat="45.79443" lon="6.62327">
        <ele>1970</ele>
        <time>2022-07-24T10:30:59Z</time>
      </trkpt>
      <trkpt lat="45.79443" lon="6.62329">
        <ele>1970</ele>
        <time>2022-07-24T10:31:00Z</time>
      </trkpt>
      <trkpt lat="45.79444" lon="6.62331">
        <ele>1970</ele>
        <time>2022-07-24T10:31:01Z</time>
      </trkpt>
      <trkpt lat="45.79444" lon="6.62333">
        <ele>1970</ele>
        <time>2022-07-24T10:31:02Z</time>
      </trkpt>
      <trkpt lat="45.79444" lon="6.62335">
        <ele>1970</ele>
        <time>2022-07-24T10:31:03Z</time>
      </trkpt>
      <trkpt lat="45.79444" lon="6.62337">
        <ele>1969</ele>
        <time>2022-07-24T10:31:04Z</time>
      </trkpt>
      <trkpt lat="45.79444" lon="6.62339">
        <ele>1969</ele>
        <time>2022-07-24T10:31:05Z</time>
      </trkpt>
      <trkpt lat="45.79444" lon="6.6234">
        <ele>1969</ele>
        <time>2022-07-24T10:31:06Z</time>
      </trkpt>
      <trkpt lat="45.79444" lon="6.62342">
        <ele>1969</ele>
        <time>2022-07-24T10:31:07Z</time>
      </trkpt>
      <trkpt lat="45.79444" lon="6.62344">
        <ele>1969</ele>
        <time>2022-07-24T10:31:08Z</time>
      </trkpt>
      <trkpt lat="45.79443" lon="6.62345">
        <ele>1969</ele>
        <time>2022-07-24T10:31:09Z</time>
      </trkpt>
      <trkpt lat="45.79443" lon="6.62347">
        <ele>1969</ele>
        <time>2022-07-24T10:31:10Z</time>
      </trkpt>
      <trkpt lat="45.79443" lon="6.62349">
        <ele>1969</ele>
        <time>2022-07-24T10:31:11Z</time>
      </trkpt>
      <trkpt lat="45.79443" lon="6.62351">
        <ele>1969</ele>
        <time>2022-07-24T10:31:12Z</time>
      </trkpt>
      <trkpt lat="45.79443" lon="6.62352">
        <ele>1969</ele>
        <time>2022-07-24T10:31:13Z</time>
      </trkpt>
      <trkpt lat="45.79443" lon="6.62354">
        <ele>1969</ele>
        <time>2022-07-24T10:31:14Z</time>
      </trkpt>
      <trkpt lat="45.79444" lon="6.62356">
        <ele>1969</ele>
        <time>2022-07-24T10:31:15Z</time>
      </trkpt>
      <trkpt lat="45.79444" lon="6.62358">
        <ele>1969</ele>
        <time>2022-07-24T10:31:16Z</time>
      </trkpt>
      <trkpt lat="45.79444" lon="6.6236">
        <ele>1969</ele>
        <time>2022-07-24T10:31:17Z</time>
      </trkpt>
      <trkpt lat="45.79444" lon="6.62362">
        <ele>1969</ele>
        <time>2022-07-24T10:31:18Z</time>
      </trkpt>
      <trkpt lat="45.79444" lon="6.62364">
        <ele>1969</ele>
        <time>2022-07-24T10:31:19Z</time>
      </trkpt>
      <trkpt lat="45.79444" lon="6.62365">
        <ele>1969</ele>
        <time>2022-07-24T10:31:20Z</time>
      </trkpt>
      <trkpt lat="45.79445" lon="6.62367">
        <ele>1969</ele>
        <time>2022-07-24T10:31:21Z</time>
      </trkpt>
      <trkpt lat="45.79445" lon="6.62369">
        <ele>1969</ele>
        <time>2022-07-24T10:31:22Z</time>
      </trkpt>
      <trkpt lat="45.79445" lon="6.62371">
        <ele>1969</ele>
        <time>2022-07-24T10:31:23Z</time>
      </trkpt>
      <trkpt lat="45.79445" lon="6.62373">
        <ele>1969</ele>
        <time>2022-07-24T10:31:24Z</time>
      </trkpt>
      <trkpt lat="45.79445" lon="6.62374">
        <ele>1969</ele>
        <time>2022-07-24T10:31:25Z</time>
      </trkpt>
      <trkpt lat="45.79446" lon="6.62376">
        <ele>1969</ele>
        <time>2022-07-24T10:31:26Z</time>
      </trkpt>
      <trkpt lat="45.79446" lon="6.62378">
        <ele>1969</ele>
        <time>2022-07-24T10:31:27Z</time>
      </trkpt>
      <trkpt lat="45.79446" lon="6.6238">
        <ele>1969</ele>
        <time>2022-07-24T10:31:28Z</time>
      </trkpt>
      <trkpt lat="45.79446" lon="6.62382">
        <ele>1968</ele>
        <time>2022-07-24T10:31:29Z</time>
      </trkpt>
      <trkpt lat="45.79446" lon="6.62383">
        <ele>1968</ele>
        <time>2022-07-24T10:31:30Z</time>
      </trkpt>
      <trkpt lat="45.79447" lon="6.62385">
        <ele>1968</ele>
        <time>2022-07-24T10:31:31Z</time>
      </trkpt>
      <trkpt lat="45.79447" lon="6.62387">
        <ele>1968</ele>
        <time>2022-07-24T10:31:32Z</time>
      </trkpt>
      <trkpt lat="45.79447" lon="6.62389">
        <ele>1968</ele>
        <time>2022-07-24T10:31:33Z</time>
      </trkpt>
      <trkpt lat="45.79447" lon="6.62391">
        <ele>1968</ele>
        <time>2022-07-24T10:31:34Z</time>
      </trkpt>
      <trkpt lat="45.79447" lon="6.62392">
        <ele>1968</ele>
        <time>2022-07-24T10:31:35Z</time>
      </trkpt>
      <trkpt lat="45.79447" lon="6.62394">
        <ele>1968</ele>
        <time>2022-07-24T10:31:36Z</time>
      </trkpt>
      <trkpt lat="45.79447" lon="6.62396">
        <ele>1968</ele>
        <time>2022-07-24T10:31:37Z</time>
      </trkpt>
      <trkpt lat="45.79447" lon="6.62397">
        <ele>1968</ele>
        <time>2022-07-24T10:31:38Z</time>
      </trkpt>
      <trkpt lat="45.79447" lon="6.62399">
        <ele>1968</ele>
        <time>2022-07-24T10:31:39Z</time>
      </trkpt>
      <trkpt lat="45.79448" lon="6.624">
        <ele>1968</ele>
        <time>2022-07-24T10:31:40Z</time>
      </trkpt>
      <trkpt lat="45.79448" lon="6.62401">
        <ele>1968</ele>
        <time>2022-07-24T10:31:41Z</time>
      </trkpt>
      <trkpt lat="45.79447" lon="6.62401">
        <ele>1968</ele>
        <time>2022-07-24T10:31:42Z</time>
      </trkpt>
      <trkpt lat="45.79447" lon="6.62401">
        <ele>1968</ele>
        <time>2022-07-24T10:31:43Z</time>
      </trkpt>
      <trkpt lat="45.79447" lon="6.62402">
        <ele>1967</ele>
        <time>2022-07-24T10:31:44Z</time>
      </trkpt>
      <trkpt lat="45.79447" lon="6.62403">
        <ele>1967</ele>
        <time>2022-07-24T10:31:45Z</time>
      </trkpt>
      <trkpt lat="45.79447" lon="6.62404">
        <ele>1967</ele>
        <time>2022-07-24T10:31:46Z</time>
      </trkpt>
      <trkpt lat="45.79447" lon="6.62405">
        <ele>1967</ele>
        <time>2022-07-24T10:31:47Z</time>
      </trkpt>
      <trkpt lat="45.79447" lon="6.62407">
        <ele>1967</ele>
        <time>2022-07-24T10:31:48Z</time>
      </trkpt>
      <trkpt lat="45.79447" lon="6.62409">
        <ele>1967</ele>
        <time>2022-07-24T10:31:49Z</time>
      </trkpt>
      <trkpt lat="45.79448" lon="6.6241">
        <ele>1967</ele>
        <time>2022-07-24T10:31:50Z</time>
      </trkpt>
      <trkpt lat="45.79448" lon="6.62413">
        <ele>1967</ele>
        <time>2022-07-24T10:31:51Z</time>
      </trkpt>
      <trkpt lat="45.79448" lon="6.62415">
        <ele>1967</ele>
        <time>2022-07-24T10:31:52Z</time>
      </trkpt>
      <trkpt lat="45.79447" lon="6.62417">
        <ele>1967</ele>
        <time>2022-07-24T10:31:53Z</time>
      </trkpt>
      <trkpt lat="45.79447" lon="6.62419">
        <ele>1967</ele>
        <time>2022-07-24T10:31:54Z</time>
      </trkpt>
      <trkpt lat="45.79447" lon="6.62422">
        <ele>1967</ele>
        <time>2022-07-24T10:31:55Z</time>
      </trkpt>
      <trkpt lat="45.79447" lon="6.62424">
        <ele>1967</ele>
        <time>2022-07-24T10:31:56Z</time>
      </trkpt>
      <trkpt lat="45.79447" lon="6.62426">
        <ele>1967</ele>
        <time>2022-07-24T10:31:57Z</time>
      </trkpt>
      <trkpt lat="45.79447" lon="6.62428">
        <ele>1967</ele>
        <time>2022-07-24T10:31:58Z</time>
      </trkpt>
      <trkpt lat="45.79447" lon="6.6243">
        <ele>1966</ele>
        <time>2022-07-24T10:31:59Z</time>
      </trkpt>
      <trkpt lat="45.79447" lon="6.62432">
        <ele>1966</ele>
        <time>2022-07-24T10:32:00Z</time>
      </trkpt>
      <trkpt lat="45.79447" lon="6.62434">
        <ele>1966</ele>
        <time>2022-07-24T10:32:01Z</time>
      </trkpt>
      <trkpt lat="45.79447" lon="6.62436">
        <ele>1966</ele>
        <time>2022-07-24T10:32:02Z</time>
      </trkpt>
      <trkpt lat="45.79447" lon="6.62438">
        <ele>1966</ele>
        <time>2022-07-24T10:32:03Z</time>
      </trkpt>
      <trkpt lat="45.79447" lon="6.62439">
        <ele>1965</ele>
        <time>2022-07-24T10:32:04Z</time>
      </trkpt>
      <trkpt lat="45.79448" lon="6.62441">
        <ele>1965</ele>
        <time>2022-07-24T10:32:05Z</time>
      </trkpt>
      <trkpt lat="45.79448" lon="6.62443">
        <ele>1965</ele>
        <time>2022-07-24T10:32:06Z</time>
      </trkpt>
      <trkpt lat="45.79448" lon="6.62444">
        <ele>1965</ele>
        <time>2022-07-24T10:32:07Z</time>
      </trkpt>
      <trkpt lat="45.79449" lon="6.62446">
        <ele>1965</ele>
        <time>2022-07-24T10:32:08Z</time>
      </trkpt>
      <trkpt lat="45.79449" lon="6.62448">
        <ele>1964</ele>
        <time>2022-07-24T10:32:09Z</time>
      </trkpt>
      <trkpt lat="45.7945" lon="6.62449">
        <ele>1964</ele>
        <time>2022-07-24T10:32:10Z</time>
      </trkpt>
      <trkpt lat="45.7945" lon="6.6245">
        <ele>1964</ele>
        <time>2022-07-24T10:32:11Z</time>
      </trkpt>
      <trkpt lat="45.79451" lon="6.62452">
        <ele>1964</ele>
        <time>2022-07-24T10:32:12Z</time>
      </trkpt>
      <trkpt lat="45.79452" lon="6.62453">
        <ele>1964</ele>
        <time>2022-07-24T10:32:13Z</time>
      </trkpt>
      <trkpt lat="45.79452" lon="6.62454">
        <ele>1963</ele>
        <time>2022-07-24T10:32:14Z</time>
      </trkpt>
      <trkpt lat="45.79453" lon="6.62455">
        <ele>1963</ele>
        <time>2022-07-24T10:32:15Z</time>
      </trkpt>
      <trkpt lat="45.79453" lon="6.62456">
        <ele>1963</ele>
        <time>2022-07-24T10:32:16Z</time>
      </trkpt>
      <trkpt lat="45.79454" lon="6.62457">
        <ele>1963</ele>
        <time>2022-07-24T10:32:17Z</time>
      </trkpt>
      <trkpt lat="45.79455" lon="6.62458">
        <ele>1963</ele>
        <time>2022-07-24T10:32:18Z</time>
      </trkpt>
      <trkpt lat="45.79455" lon="6.62459">
        <ele>1963</ele>
        <time>2022-07-24T10:32:19Z</time>
      </trkpt>
      <trkpt lat="45.79456" lon="6.6246">
        <ele>1963</ele>
        <time>2022-07-24T10:32:20Z</time>
      </trkpt>
      <trkpt lat="45.79457" lon="6.62461">
        <ele>1963</ele>
        <time>2022-07-24T10:32:21Z</time>
      </trkpt>
      <trkpt lat="45.79458" lon="6.62462">
        <ele>1963</ele>
        <time>2022-07-24T10:32:22Z</time>
      </trkpt>
      <trkpt lat="45.79459" lon="6.62463">
        <ele>1963</ele>
        <time>2022-07-24T10:32:23Z</time>
      </trkpt>
      <trkpt lat="45.7946" lon="6.62464">
        <ele>1963</ele>
        <time>2022-07-24T10:32:24Z</time>
      </trkpt>
      <trkpt lat="45.7946" lon="6.62465">
        <ele>1963</ele>
        <time>2022-07-24T10:32:25Z</time>
      </trkpt>
      <trkpt lat="45.79461" lon="6.62466">
        <ele>1963</ele>
        <time>2022-07-24T10:32:26Z</time>
      </trkpt>
      <trkpt lat="45.79462" lon="6.62467">
        <ele>1963</ele>
        <time>2022-07-24T10:32:27Z</time>
      </trkpt>
      <trkpt lat="45.79462" lon="6.62469">
        <ele>1963</ele>
        <time>2022-07-24T10:32:28Z</time>
      </trkpt>
      <trkpt lat="45.79463" lon="6.6247">
        <ele>1963</ele>
        <time>2022-07-24T10:32:29Z</time>
      </trkpt>
      <trkpt lat="45.79463" lon="6.62471">
        <ele>1963</ele>
        <time>2022-07-24T10:32:30Z</time>
      </trkpt>
      <trkpt lat="45.79464" lon="6.62472">
        <ele>1963</ele>
        <time>2022-07-24T10:32:31Z</time>
      </trkpt>
      <trkpt lat="45.79464" lon="6.62473">
        <ele>1963</ele>
        <time>2022-07-24T10:32:32Z</time>
      </trkpt>
      <trkpt lat="45.79464" lon="6.62474">
        <ele>1963</ele>
        <time>2022-07-24T10:32:33Z</time>
      </trkpt>
      <trkpt lat="45.79465" lon="6.62475">
        <ele>1963</ele>
        <time>2022-07-24T10:32:34Z</time>
      </trkpt>
      <trkpt lat="45.79466" lon="6.62476">
        <ele>1963</ele>
        <time>2022-07-24T10:32:35Z</time>
      </trkpt>
      <trkpt lat="45.79466" lon="6.62477">
        <ele>1963</ele>
        <time>2022-07-24T10:32:36Z</time>
      </trkpt>
      <trkpt lat="45.79467" lon="6.62478">
        <ele>1963</ele>
        <time>2022-07-24T10:32:37Z</time>
      </trkpt>
      <trkpt lat="45.79468" lon="6.62479">
        <ele>1963</ele>
        <time>2022-07-24T10:32:38Z</time>
      </trkpt>
      <trkpt lat="45.79468" lon="6.6248">
        <ele>1962</ele>
        <time>2022-07-24T10:32:39Z</time>
      </trkpt>
      <trkpt lat="45.79469" lon="6.62481">
        <ele>1962</ele>
        <time>2022-07-24T10:32:40Z</time>
      </trkpt>
      <trkpt lat="45.7947" lon="6.62482">
        <ele>1962</ele>
        <time>2022-07-24T10:32:54Z</time>
      </trkpt>
      <trkpt lat="45.7947" lon="6.62483">
        <ele>1962</ele>
        <time>2022-07-24T10:32:55Z</time>
      </trkpt>
      <trkpt lat="45.7947" lon="6.62483">
        <ele>1962</ele>
        <time>2022-07-24T10:32:56Z</time>
      </trkpt>
      <trkpt lat="45.79471" lon="6.62484">
        <ele>1962</ele>
        <time>2022-07-24T10:32:57Z</time>
      </trkpt>
      <trkpt lat="45.79472" lon="6.62485">
        <ele>1962</ele>
        <time>2022-07-24T10:32:58Z</time>
      </trkpt>
      <trkpt lat="45.79473" lon="6.62486">
        <ele>1961</ele>
        <time>2022-07-24T10:32:59Z</time>
      </trkpt>
      <trkpt lat="45.79474" lon="6.62488">
        <ele>1961</ele>
        <time>2022-07-24T10:33:00Z</time>
      </trkpt>
      <trkpt lat="45.79475" lon="6.62489">
        <ele>1961</ele>
        <time>2022-07-24T10:33:01Z</time>
      </trkpt>
      <trkpt lat="45.79476" lon="6.62491">
        <ele>1961</ele>
        <time>2022-07-24T10:33:02Z</time>
      </trkpt>
      <trkpt lat="45.79477" lon="6.62493">
        <ele>1961</ele>
        <time>2022-07-24T10:33:03Z</time>
      </trkpt>
      <trkpt lat="45.79478" lon="6.62495">
        <ele>1961</ele>
        <time>2022-07-24T10:33:04Z</time>
      </trkpt>
      <trkpt lat="45.79479" lon="6.62496">
        <ele>1961</ele>
        <time>2022-07-24T10:33:05Z</time>
      </trkpt>
      <trkpt lat="45.79479" lon="6.62498">
        <ele>1961</ele>
        <time>2022-07-24T10:33:06Z</time>
      </trkpt>
      <trkpt lat="45.7948" lon="6.625">
        <ele>1961</ele>
        <time>2022-07-24T10:33:07Z</time>
      </trkpt>
      <trkpt lat="45.79481" lon="6.62502">
        <ele>1961</ele>
        <time>2022-07-24T10:33:08Z</time>
      </trkpt>
      <trkpt lat="45.79481" lon="6.62504">
        <ele>1961</ele>
        <time>2022-07-24T10:33:09Z</time>
      </trkpt>
      <trkpt lat="45.79482" lon="6.62505">
        <ele>1961</ele>
        <time>2022-07-24T10:33:10Z</time>
      </trkpt>
      <trkpt lat="45.79482" lon="6.62507">
        <ele>1961</ele>
        <time>2022-07-24T10:33:11Z</time>
      </trkpt>
      <trkpt lat="45.79483" lon="6.62509">
        <ele>1961</ele>
        <time>2022-07-24T10:33:12Z</time>
      </trkpt>
      <trkpt lat="45.79484" lon="6.6251">
        <ele>1961</ele>
        <time>2022-07-24T10:33:13Z</time>
      </trkpt>
      <trkpt lat="45.79484" lon="6.62512">
        <ele>1960</ele>
        <time>2022-07-24T10:33:14Z</time>
      </trkpt>
      <trkpt lat="45.79485" lon="6.62514">
        <ele>1960</ele>
        <time>2022-07-24T10:33:15Z</time>
      </trkpt>
      <trkpt lat="45.79486" lon="6.62515">
        <ele>1960</ele>
        <time>2022-07-24T10:33:16Z</time>
      </trkpt>
      <trkpt lat="45.79487" lon="6.62517">
        <ele>1960</ele>
        <time>2022-07-24T10:33:17Z</time>
      </trkpt>
      <trkpt lat="45.79488" lon="6.62519">
        <ele>1960</ele>
        <time>2022-07-24T10:33:18Z</time>
      </trkpt>
      <trkpt lat="45.79489" lon="6.6252">
        <ele>1960</ele>
        <time>2022-07-24T10:33:19Z</time>
      </trkpt>
      <trkpt lat="45.7949" lon="6.62522">
        <ele>1960</ele>
        <time>2022-07-24T10:33:20Z</time>
      </trkpt>
      <trkpt lat="45.79491" lon="6.62524">
        <ele>1960</ele>
        <time>2022-07-24T10:33:21Z</time>
      </trkpt>
      <trkpt lat="45.79492" lon="6.62525">
        <ele>1960</ele>
        <time>2022-07-24T10:33:22Z</time>
      </trkpt>
      <trkpt lat="45.79493" lon="6.62527">
        <ele>1960</ele>
        <time>2022-07-24T10:33:23Z</time>
      </trkpt>
      <trkpt lat="45.79493" lon="6.62529">
        <ele>1959</ele>
        <time>2022-07-24T10:33:24Z</time>
      </trkpt>
      <trkpt lat="45.79494" lon="6.62531">
        <ele>1959</ele>
        <time>2022-07-24T10:33:25Z</time>
      </trkpt>
      <trkpt lat="45.79494" lon="6.62533">
        <ele>1959</ele>
        <time>2022-07-24T10:33:26Z</time>
      </trkpt>
      <trkpt lat="45.79495" lon="6.62534">
        <ele>1959</ele>
        <time>2022-07-24T10:33:27Z</time>
      </trkpt>
      <trkpt lat="45.79495" lon="6.62536">
        <ele>1959</ele>
        <time>2022-07-24T10:33:28Z</time>
      </trkpt>
      <trkpt lat="45.79495" lon="6.62538">
        <ele>1959</ele>
        <time>2022-07-24T10:33:29Z</time>
      </trkpt>
      <trkpt lat="45.79496" lon="6.6254">
        <ele>1959</ele>
        <time>2022-07-24T10:33:30Z</time>
      </trkpt>
      <trkpt lat="45.79496" lon="6.62541">
        <ele>1959</ele>
        <time>2022-07-24T10:33:31Z</time>
      </trkpt>
      <trkpt lat="45.79496" lon="6.62543">
        <ele>1959</ele>
        <time>2022-07-24T10:33:32Z</time>
      </trkpt>
      <trkpt lat="45.79496" lon="6.62545">
        <ele>1959</ele>
        <time>2022-07-24T10:33:33Z</time>
      </trkpt>
      <trkpt lat="45.79497" lon="6.62546">
        <ele>1959</ele>
        <time>2022-07-24T10:33:34Z</time>
      </trkpt>
      <trkpt lat="45.79497" lon="6.62548">
        <ele>1959</ele>
        <time>2022-07-24T10:33:35Z</time>
      </trkpt>
      <trkpt lat="45.79497" lon="6.6255">
        <ele>1959</ele>
        <time>2022-07-24T10:33:36Z</time>
      </trkpt>
      <trkpt lat="45.79497" lon="6.62551">
        <ele>1959</ele>
        <time>2022-07-24T10:33:37Z</time>
      </trkpt>
      <trkpt lat="45.79498" lon="6.62553">
        <ele>1959</ele>
        <time>2022-07-24T10:33:38Z</time>
      </trkpt>
      <trkpt lat="45.79498" lon="6.62554">
        <ele>1958</ele>
        <time>2022-07-24T10:33:39Z</time>
      </trkpt>
      <trkpt lat="45.79498" lon="6.62556">
        <ele>1958</ele>
        <time>2022-07-24T10:33:40Z</time>
      </trkpt>
      <trkpt lat="45.79499" lon="6.62558">
        <ele>1957</ele>
        <time>2022-07-24T10:33:57Z</time>
      </trkpt>
      <trkpt lat="45.79499" lon="6.62559">
        <ele>1957</ele>
        <time>2022-07-24T10:33:58Z</time>
      </trkpt>
      <trkpt lat="45.79499" lon="6.6256">
        <ele>1957</ele>
        <time>2022-07-24T10:33:59Z</time>
      </trkpt>
      <trkpt lat="45.79499" lon="6.62561">
        <ele>1957</ele>
        <time>2022-07-24T10:34:00Z</time>
      </trkpt>
      <trkpt lat="45.79499" lon="6.62562">
        <ele>1957</ele>
        <time>2022-07-24T10:34:01Z</time>
      </trkpt>
      <trkpt lat="45.79499" lon="6.62564">
        <ele>1957</ele>
        <time>2022-07-24T10:34:02Z</time>
      </trkpt>
      <trkpt lat="45.79499" lon="6.62565">
        <ele>1957</ele>
        <time>2022-07-24T10:34:03Z</time>
      </trkpt>
      <trkpt lat="45.79499" lon="6.62567">
        <ele>1957</ele>
        <time>2022-07-24T10:34:04Z</time>
      </trkpt>
      <trkpt lat="45.79499" lon="6.62569">
        <ele>1957</ele>
        <time>2022-07-24T10:34:05Z</time>
      </trkpt>
      <trkpt lat="45.79499" lon="6.6257">
        <ele>1957</ele>
        <time>2022-07-24T10:34:06Z</time>
      </trkpt>
      <trkpt lat="45.79499" lon="6.62572">
        <ele>1957</ele>
        <time>2022-07-24T10:34:07Z</time>
      </trkpt>
      <trkpt lat="45.795" lon="6.62573">
        <ele>1957</ele>
        <time>2022-07-24T10:34:08Z</time>
      </trkpt>
      <trkpt lat="45.795" lon="6.62574">
        <ele>1956</ele>
        <time>2022-07-24T10:34:09Z</time>
      </trkpt>
      <trkpt lat="45.795" lon="6.62576">
        <ele>1956</ele>
        <time>2022-07-24T10:34:10Z</time>
      </trkpt>
      <trkpt lat="45.795" lon="6.62578">
        <ele>1956</ele>
        <time>2022-07-24T10:34:11Z</time>
      </trkpt>
      <trkpt lat="45.79501" lon="6.62579">
        <ele>1956</ele>
        <time>2022-07-24T10:34:12Z</time>
      </trkpt>
      <trkpt lat="45.79501" lon="6.62581">
        <ele>1956</ele>
        <time>2022-07-24T10:34:13Z</time>
      </trkpt>
      <trkpt lat="45.79501" lon="6.62583">
        <ele>1956</ele>
        <time>2022-07-24T10:34:14Z</time>
      </trkpt>
      <trkpt lat="45.79501" lon="6.62585">
        <ele>1956</ele>
        <time>2022-07-24T10:34:15Z</time>
      </trkpt>
      <trkpt lat="45.79501" lon="6.62587">
        <ele>1956</ele>
        <time>2022-07-24T10:34:16Z</time>
      </trkpt>
      <trkpt lat="45.79501" lon="6.62589">
        <ele>1956</ele>
        <time>2022-07-24T10:34:17Z</time>
      </trkpt>
      <trkpt lat="45.79501" lon="6.62591">
        <ele>1956</ele>
        <time>2022-07-24T10:34:18Z</time>
      </trkpt>
      <trkpt lat="45.79501" lon="6.62592">
        <ele>1956</ele>
        <time>2022-07-24T10:34:19Z</time>
      </trkpt>
      <trkpt lat="45.795" lon="6.62594">
        <ele>1956</ele>
        <time>2022-07-24T10:34:20Z</time>
      </trkpt>
      <trkpt lat="45.795" lon="6.62596">
        <ele>1956</ele>
        <time>2022-07-24T10:34:21Z</time>
      </trkpt>
      <trkpt lat="45.795" lon="6.62598">
        <ele>1956</ele>
        <time>2022-07-24T10:34:22Z</time>
      </trkpt>
      <trkpt lat="45.79499" lon="6.62599">
        <ele>1956</ele>
        <time>2022-07-24T10:34:23Z</time>
      </trkpt>
      <trkpt lat="45.79499" lon="6.62601">
        <ele>1956</ele>
        <time>2022-07-24T10:34:24Z</time>
      </trkpt>
      <trkpt lat="45.79498" lon="6.62602">
        <ele>1956</ele>
        <time>2022-07-24T10:34:25Z</time>
      </trkpt>
      <trkpt lat="45.79497" lon="6.62604">
        <ele>1956</ele>
        <time>2022-07-24T10:34:26Z</time>
      </trkpt>
      <trkpt lat="45.79497" lon="6.62606">
        <ele>1956</ele>
        <time>2022-07-24T10:34:27Z</time>
      </trkpt>
      <trkpt lat="45.79496" lon="6.62607">
        <ele>1956</ele>
        <time>2022-07-24T10:34:28Z</time>
      </trkpt>
      <trkpt lat="45.79496" lon="6.62608">
        <ele>1955</ele>
        <time>2022-07-24T10:34:29Z</time>
      </trkpt>
      <trkpt lat="45.79495" lon="6.6261">
        <ele>1955</ele>
        <time>2022-07-24T10:34:30Z</time>
      </trkpt>
      <trkpt lat="45.79495" lon="6.62611">
        <ele>1955</ele>
        <time>2022-07-24T10:34:31Z</time>
      </trkpt>
      <trkpt lat="45.79494" lon="6.62612">
        <ele>1955</ele>
        <time>2022-07-24T10:34:32Z</time>
      </trkpt>
      <trkpt lat="45.79494" lon="6.62613">
        <ele>1955</ele>
        <time>2022-07-24T10:34:33Z</time>
      </trkpt>
      <trkpt lat="45.79494" lon="6.62614">
        <ele>1955</ele>
        <time>2022-07-24T10:34:34Z</time>
      </trkpt>
      <trkpt lat="45.79493" lon="6.62615">
        <ele>1955</ele>
        <time>2022-07-24T10:34:35Z</time>
      </trkpt>
      <trkpt lat="45.79493" lon="6.62617">
        <ele>1955</ele>
        <time>2022-07-24T10:34:36Z</time>
      </trkpt>
      <trkpt lat="45.79493" lon="6.62618">
        <ele>1955</ele>
        <time>2022-07-24T10:34:37Z</time>
      </trkpt>
      <trkpt lat="45.79493" lon="6.62619">
        <ele>1955</ele>
        <time>2022-07-24T10:34:38Z</time>
      </trkpt>
      <trkpt lat="45.79493" lon="6.6262">
        <ele>1955</ele>
        <time>2022-07-24T10:34:39Z</time>
      </trkpt>
      <trkpt lat="45.79494" lon="6.62622">
        <ele>1955</ele>
        <time>2022-07-24T10:34:40Z</time>
      </trkpt>
      <trkpt lat="45.79494" lon="6.62623">
        <ele>1955</ele>
        <time>2022-07-24T10:34:41Z</time>
      </trkpt>
      <trkpt lat="45.79494" lon="6.62624">
        <ele>1955</ele>
        <time>2022-07-24T10:34:42Z</time>
      </trkpt>
      <trkpt lat="45.79494" lon="6.62626">
        <ele>1955</ele>
        <time>2022-07-24T10:34:43Z</time>
      </trkpt>
      <trkpt lat="45.79494" lon="6.62627">
        <ele>1954</ele>
        <time>2022-07-24T10:34:44Z</time>
      </trkpt>
      <trkpt lat="45.79495" lon="6.62628">
        <ele>1954</ele>
        <time>2022-07-24T10:34:45Z</time>
      </trkpt>
      <trkpt lat="45.79495" lon="6.62629">
        <ele>1954</ele>
        <time>2022-07-24T10:34:46Z</time>
      </trkpt>
      <trkpt lat="45.79495" lon="6.6263">
        <ele>1954</ele>
        <time>2022-07-24T10:34:47Z</time>
      </trkpt>
      <trkpt lat="45.79495" lon="6.62631">
        <ele>1954</ele>
        <time>2022-07-24T10:34:48Z</time>
      </trkpt>
      <trkpt lat="45.79495" lon="6.62632">
        <ele>1954</ele>
        <time>2022-07-24T10:34:49Z</time>
      </trkpt>
      <trkpt lat="45.79495" lon="6.62633">
        <ele>1954</ele>
        <time>2022-07-24T10:34:50Z</time>
      </trkpt>
      <trkpt lat="45.79496" lon="6.62633">
        <ele>1954</ele>
        <time>2022-07-24T10:34:51Z</time>
      </trkpt>
      <trkpt lat="45.79496" lon="6.62634">
        <ele>1954</ele>
        <time>2022-07-24T10:34:52Z</time>
      </trkpt>
      <trkpt lat="45.79497" lon="6.62633">
        <ele>1954</ele>
        <time>2022-07-24T10:35:22Z</time>
      </trkpt>
      <trkpt lat="45.79497" lon="6.62633">
        <ele>1954</ele>
        <time>2022-07-24T10:35:23Z</time>
      </trkpt>
      <trkpt lat="45.79497" lon="6.62633">
        <ele>1954</ele>
        <time>2022-07-24T10:35:24Z</time>
      </trkpt>
      <trkpt lat="45.79496" lon="6.62634">
        <ele>1954</ele>
        <time>2022-07-24T10:35:25Z</time>
      </trkpt>
      <trkpt lat="45.79496" lon="6.62634">
        <ele>1954</ele>
        <time>2022-07-24T10:35:26Z</time>
      </trkpt>
      <trkpt lat="45.79495" lon="6.62634">
        <ele>1954</ele>
        <time>2022-07-24T10:35:27Z</time>
      </trkpt>
      <trkpt lat="45.79494" lon="6.62635">
        <ele>1954</ele>
        <time>2022-07-24T10:35:28Z</time>
      </trkpt>
      <trkpt lat="45.79494" lon="6.62635">
        <ele>1954</ele>
        <time>2022-07-24T10:35:29Z</time>
      </trkpt>
      <trkpt lat="45.79494" lon="6.62636">
        <ele>1954</ele>
        <time>2022-07-24T10:35:30Z</time>
      </trkpt>
      <trkpt lat="45.79493" lon="6.62636">
        <ele>1954</ele>
        <time>2022-07-24T10:35:31Z</time>
      </trkpt>
      <trkpt lat="45.79493" lon="6.62637">
        <ele>1954</ele>
        <time>2022-07-24T10:35:32Z</time>
      </trkpt>
      <trkpt lat="45.79492" lon="6.62637">
        <ele>1954</ele>
        <time>2022-07-24T10:35:33Z</time>
      </trkpt>
      <trkpt lat="45.79492" lon="6.62638">
        <ele>1954</ele>
        <time>2022-07-24T10:35:34Z</time>
      </trkpt>
      <trkpt lat="45.79492" lon="6.62639">
        <ele>1954</ele>
        <time>2022-07-24T10:35:35Z</time>
      </trkpt>
      <trkpt lat="45.79492" lon="6.62642">
        <ele>1954</ele>
        <time>2022-07-24T10:35:41Z</time>
      </trkpt>
      <trkpt lat="45.79492" lon="6.62643">
        <ele>1954</ele>
        <time>2022-07-24T10:35:42Z</time>
      </trkpt>
      <trkpt lat="45.79492" lon="6.62644">
        <ele>1954</ele>
        <time>2022-07-24T10:35:43Z</time>
      </trkpt>
      <trkpt lat="45.79492" lon="6.62645">
        <ele>1954</ele>
        <time>2022-07-24T10:35:44Z</time>
      </trkpt>
      <trkpt lat="45.79492" lon="6.62646">
        <ele>1954</ele>
        <time>2022-07-24T10:35:45Z</time>
      </trkpt>
      <trkpt lat="45.79492" lon="6.62647">
        <ele>1954</ele>
        <time>2022-07-24T10:35:46Z</time>
      </trkpt>
      <trkpt lat="45.79493" lon="6.62648">
        <ele>1954</ele>
        <time>2022-07-24T10:35:47Z</time>
      </trkpt>
      <trkpt lat="45.79493" lon="6.6265">
        <ele>1954</ele>
        <time>2022-07-24T10:35:48Z</time>
      </trkpt>
      <trkpt lat="45.79493" lon="6.62651">
        <ele>1953</ele>
        <time>2022-07-24T10:35:49Z</time>
      </trkpt>
      <trkpt lat="45.79493" lon="6.62653">
        <ele>1953</ele>
        <time>2022-07-24T10:35:50Z</time>
      </trkpt>
      <trkpt lat="45.79493" lon="6.62654">
        <ele>1953</ele>
        <time>2022-07-24T10:35:51Z</time>
      </trkpt>
      <trkpt lat="45.79493" lon="6.62655">
        <ele>1953</ele>
        <time>2022-07-24T10:35:52Z</time>
      </trkpt>
      <trkpt lat="45.79493" lon="6.62657">
        <ele>1953</ele>
        <time>2022-07-24T10:35:53Z</time>
      </trkpt>
      <trkpt lat="45.79493" lon="6.62658">
        <ele>1953</ele>
        <time>2022-07-24T10:35:54Z</time>
      </trkpt>
      <trkpt lat="45.79492" lon="6.6266">
        <ele>1953</ele>
        <time>2022-07-24T10:35:55Z</time>
      </trkpt>
      <trkpt lat="45.79492" lon="6.62661">
        <ele>1953</ele>
        <time>2022-07-24T10:35:56Z</time>
      </trkpt>
      <trkpt lat="45.79492" lon="6.62662">
        <ele>1953</ele>
        <time>2022-07-24T10:35:57Z</time>
      </trkpt>
      <trkpt lat="45.79492" lon="6.62663">
        <ele>1953</ele>
        <time>2022-07-24T10:35:58Z</time>
      </trkpt>
      <trkpt lat="45.79492" lon="6.62665">
        <ele>1952</ele>
        <time>2022-07-24T10:35:59Z</time>
      </trkpt>
      <trkpt lat="45.79491" lon="6.62666">
        <ele>1952</ele>
        <time>2022-07-24T10:36:00Z</time>
      </trkpt>
      <trkpt lat="45.79491" lon="6.62667">
        <ele>1952</ele>
        <time>2022-07-24T10:36:01Z</time>
      </trkpt>
      <trkpt lat="45.79491" lon="6.62668">
        <ele>1952</ele>
        <time>2022-07-24T10:36:02Z</time>
      </trkpt>
      <trkpt lat="45.7949" lon="6.62668">
        <ele>1952</ele>
        <time>2022-07-24T10:36:03Z</time>
      </trkpt>
      <trkpt lat="45.7949" lon="6.62669">
        <ele>1951</ele>
        <time>2022-07-24T10:36:04Z</time>
      </trkpt>
      <trkpt lat="45.7949" lon="6.6267">
        <ele>1951</ele>
        <time>2022-07-24T10:36:05Z</time>
      </trkpt>
      <trkpt lat="45.79489" lon="6.6267">
        <ele>1951</ele>
        <time>2022-07-24T10:36:06Z</time>
      </trkpt>
      <trkpt lat="45.79489" lon="6.62671">
        <ele>1951</ele>
        <time>2022-07-24T10:36:07Z</time>
      </trkpt>
      <trkpt lat="45.79488" lon="6.62671">
        <ele>1951</ele>
        <time>2022-07-24T10:36:08Z</time>
      </trkpt>
      <trkpt lat="45.79487" lon="6.62671">
        <ele>1950</ele>
        <time>2022-07-24T10:36:09Z</time>
      </trkpt>
      <trkpt lat="45.79487" lon="6.62672">
        <ele>1950</ele>
        <time>2022-07-24T10:36:10Z</time>
      </trkpt>
      <trkpt lat="45.79486" lon="6.62672">
        <ele>1950</ele>
        <time>2022-07-24T10:36:11Z</time>
      </trkpt>
      <trkpt lat="45.79485" lon="6.62673">
        <ele>1950</ele>
        <time>2022-07-24T10:36:12Z</time>
      </trkpt>
      <trkpt lat="45.79485" lon="6.62673">
        <ele>1950</ele>
        <time>2022-07-24T10:36:13Z</time>
      </trkpt>
      <trkpt lat="45.79484" lon="6.62674">
        <ele>1950</ele>
        <time>2022-07-24T10:36:14Z</time>
      </trkpt>
      <trkpt lat="45.79483" lon="6.62675">
        <ele>1950</ele>
        <time>2022-07-24T10:36:15Z</time>
      </trkpt>
      <trkpt lat="45.79483" lon="6.62676">
        <ele>1950</ele>
        <time>2022-07-24T10:36:16Z</time>
      </trkpt>
      <trkpt lat="45.79482" lon="6.62677">
        <ele>1950</ele>
        <time>2022-07-24T10:36:17Z</time>
      </trkpt>
      <trkpt lat="45.79482" lon="6.62678">
        <ele>1950</ele>
        <time>2022-07-24T10:36:18Z</time>
      </trkpt>
      <trkpt lat="45.79481" lon="6.62679">
        <ele>1949</ele>
        <time>2022-07-24T10:36:19Z</time>
      </trkpt>
      <trkpt lat="45.79481" lon="6.6268">
        <ele>1949</ele>
        <time>2022-07-24T10:36:20Z</time>
      </trkpt>
      <trkpt lat="45.7948" lon="6.62681">
        <ele>1949</ele>
        <time>2022-07-24T10:36:21Z</time>
      </trkpt>
      <trkpt lat="45.7948" lon="6.62683">
        <ele>1949</ele>
        <time>2022-07-24T10:36:22Z</time>
      </trkpt>
      <trkpt lat="45.7948" lon="6.62684">
        <ele>1949</ele>
        <time>2022-07-24T10:36:23Z</time>
      </trkpt>
      <trkpt lat="45.79479" lon="6.62686">
        <ele>1948</ele>
        <time>2022-07-24T10:36:24Z</time>
      </trkpt>
      <trkpt lat="45.79479" lon="6.62687">
        <ele>1948</ele>
        <time>2022-07-24T10:36:25Z</time>
      </trkpt>
      <trkpt lat="45.79479" lon="6.62688">
        <ele>1948</ele>
        <time>2022-07-24T10:36:26Z</time>
      </trkpt>
      <trkpt lat="45.79478" lon="6.6269">
        <ele>1948</ele>
        <time>2022-07-24T10:36:27Z</time>
      </trkpt>
      <trkpt lat="45.79478" lon="6.62691">
        <ele>1948</ele>
        <time>2022-07-24T10:36:28Z</time>
      </trkpt>
      <trkpt lat="45.79477" lon="6.62692">
        <ele>1947</ele>
        <time>2022-07-24T10:36:29Z</time>
      </trkpt>
      <trkpt lat="45.79477" lon="6.62693">
        <ele>1947</ele>
        <time>2022-07-24T10:36:30Z</time>
      </trkpt>
      <trkpt lat="45.79476" lon="6.62695">
        <ele>1947</ele>
        <time>2022-07-24T10:36:31Z</time>
      </trkpt>
      <trkpt lat="45.79476" lon="6.62696">
        <ele>1947</ele>
        <time>2022-07-24T10:36:32Z</time>
      </trkpt>
      <trkpt lat="45.79475" lon="6.62697">
        <ele>1947</ele>
        <time>2022-07-24T10:36:33Z</time>
      </trkpt>
      <trkpt lat="45.79475" lon="6.62699">
        <ele>1946</ele>
        <time>2022-07-24T10:36:34Z</time>
      </trkpt>
      <trkpt lat="45.79474" lon="6.627">
        <ele>1946</ele>
        <time>2022-07-24T10:36:35Z</time>
      </trkpt>
      <trkpt lat="45.79474" lon="6.62701">
        <ele>1946</ele>
        <time>2022-07-24T10:36:36Z</time>
      </trkpt>
      <trkpt lat="45.79474" lon="6.62703">
        <ele>1946</ele>
        <time>2022-07-24T10:36:37Z</time>
      </trkpt>
      <trkpt lat="45.79474" lon="6.62704">
        <ele>1946</ele>
        <time>2022-07-24T10:36:38Z</time>
      </trkpt>
      <trkpt lat="45.79474" lon="6.62706">
        <ele>1946</ele>
        <time>2022-07-24T10:36:39Z</time>
      </trkpt>
      <trkpt lat="45.79473" lon="6.62707">
        <ele>1946</ele>
        <time>2022-07-24T10:36:40Z</time>
      </trkpt>
      <trkpt lat="45.79473" lon="6.62708">
        <ele>1946</ele>
        <time>2022-07-24T10:36:41Z</time>
      </trkpt>
      <trkpt lat="45.79473" lon="6.6271">
        <ele>1946</ele>
        <time>2022-07-24T10:36:42Z</time>
      </trkpt>
      <trkpt lat="45.79473" lon="6.62711">
        <ele>1946</ele>
        <time>2022-07-24T10:36:43Z</time>
      </trkpt>
      <trkpt lat="45.79473" lon="6.62712">
        <ele>1946</ele>
        <time>2022-07-24T10:36:44Z</time>
      </trkpt>
      <trkpt lat="45.79473" lon="6.62713">
        <ele>1946</ele>
        <time>2022-07-24T10:36:45Z</time>
      </trkpt>
      <trkpt lat="45.79473" lon="6.62714">
        <ele>1946</ele>
        <time>2022-07-24T10:36:46Z</time>
      </trkpt>
      <trkpt lat="45.79473" lon="6.62715">
        <ele>1946</ele>
        <time>2022-07-24T10:36:47Z</time>
      </trkpt>
      <trkpt lat="45.79473" lon="6.62716">
        <ele>1946</ele>
        <time>2022-07-24T10:36:48Z</time>
      </trkpt>
      <trkpt lat="45.79473" lon="6.62717">
        <ele>1946</ele>
        <time>2022-07-24T10:36:49Z</time>
      </trkpt>
      <trkpt lat="45.79473" lon="6.62718">
        <ele>1946</ele>
        <time>2022-07-24T10:36:50Z</time>
      </trkpt>
      <trkpt lat="45.79473" lon="6.6272">
        <ele>1946</ele>
        <time>2022-07-24T10:36:51Z</time>
      </trkpt>
      <trkpt lat="45.79473" lon="6.62721">
        <ele>1946</ele>
        <time>2022-07-24T10:36:52Z</time>
      </trkpt>
      <trkpt lat="45.79473" lon="6.62722">
        <ele>1946</ele>
        <time>2022-07-24T10:36:53Z</time>
      </trkpt>
      <trkpt lat="45.79472" lon="6.62724">
        <ele>1946</ele>
        <time>2022-07-24T10:36:54Z</time>
      </trkpt>
      <trkpt lat="45.79472" lon="6.62725">
        <ele>1946</ele>
        <time>2022-07-24T10:36:55Z</time>
      </trkpt>
      <trkpt lat="45.79472" lon="6.62726">
        <ele>1946</ele>
        <time>2022-07-24T10:36:56Z</time>
      </trkpt>
      <trkpt lat="45.79472" lon="6.62727">
        <ele>1946</ele>
        <time>2022-07-24T10:36:57Z</time>
      </trkpt>
      <trkpt lat="45.79471" lon="6.62728">
        <ele>1946</ele>
        <time>2022-07-24T10:36:58Z</time>
      </trkpt>
      <trkpt lat="45.79471" lon="6.62729">
        <ele>1946</ele>
        <time>2022-07-24T10:36:59Z</time>
      </trkpt>
      <trkpt lat="45.79471" lon="6.6273">
        <ele>1946</ele>
        <time>2022-07-24T10:37:00Z</time>
      </trkpt>
      <trkpt lat="45.7947" lon="6.62732">
        <ele>1946</ele>
        <time>2022-07-24T10:37:01Z</time>
      </trkpt>
      <trkpt lat="45.7947" lon="6.62733">
        <ele>1946</ele>
        <time>2022-07-24T10:37:02Z</time>
      </trkpt>
      <trkpt lat="45.7947" lon="6.62735">
        <ele>1946</ele>
        <time>2022-07-24T10:37:03Z</time>
      </trkpt>
      <trkpt lat="45.7947" lon="6.62736">
        <ele>1946</ele>
        <time>2022-07-24T10:37:04Z</time>
      </trkpt>
      <trkpt lat="45.7947" lon="6.62738">
        <ele>1946</ele>
        <time>2022-07-24T10:37:05Z</time>
      </trkpt>
      <trkpt lat="45.79471" lon="6.62739">
        <ele>1946</ele>
        <time>2022-07-24T10:37:06Z</time>
      </trkpt>
      <trkpt lat="45.79471" lon="6.62741">
        <ele>1946</ele>
        <time>2022-07-24T10:37:07Z</time>
      </trkpt>
      <trkpt lat="45.79471" lon="6.62742">
        <ele>1946</ele>
        <time>2022-07-24T10:37:08Z</time>
      </trkpt>
      <trkpt lat="45.79471" lon="6.62744">
        <ele>1945</ele>
        <time>2022-07-24T10:37:09Z</time>
      </trkpt>
      <trkpt lat="45.79471" lon="6.62746">
        <ele>1945</ele>
        <time>2022-07-24T10:37:10Z</time>
      </trkpt>
      <trkpt lat="45.79471" lon="6.62747">
        <ele>1945</ele>
        <time>2022-07-24T10:37:11Z</time>
      </trkpt>
      <trkpt lat="45.79471" lon="6.62748">
        <ele>1945</ele>
        <time>2022-07-24T10:37:12Z</time>
      </trkpt>
      <trkpt lat="45.79471" lon="6.6275">
        <ele>1945</ele>
        <time>2022-07-24T10:37:13Z</time>
      </trkpt>
      <trkpt lat="45.79471" lon="6.62751">
        <ele>1945</ele>
        <time>2022-07-24T10:37:14Z</time>
      </trkpt>
      <trkpt lat="45.7947" lon="6.62752">
        <ele>1945</ele>
        <time>2022-07-24T10:37:15Z</time>
      </trkpt>
      <trkpt lat="45.79469" lon="6.62753">
        <ele>1945</ele>
        <time>2022-07-24T10:37:16Z</time>
      </trkpt>
      <trkpt lat="45.79469" lon="6.62754">
        <ele>1945</ele>
        <time>2022-07-24T10:37:17Z</time>
      </trkpt>
      <trkpt lat="45.79468" lon="6.62755">
        <ele>1945</ele>
        <time>2022-07-24T10:37:18Z</time>
      </trkpt>
      <trkpt lat="45.79467" lon="6.62756">
        <ele>1945</ele>
        <time>2022-07-24T10:37:19Z</time>
      </trkpt>
      <trkpt lat="45.79467" lon="6.62758">
        <ele>1945</ele>
        <time>2022-07-24T10:37:20Z</time>
      </trkpt>
      <trkpt lat="45.79466" lon="6.62759">
        <ele>1945</ele>
        <time>2022-07-24T10:37:21Z</time>
      </trkpt>
      <trkpt lat="45.79466" lon="6.62761">
        <ele>1945</ele>
        <time>2022-07-24T10:37:22Z</time>
      </trkpt>
      <trkpt lat="45.79466" lon="6.62763">
        <ele>1945</ele>
        <time>2022-07-24T10:37:23Z</time>
      </trkpt>
      <trkpt lat="45.79465" lon="6.62765">
        <ele>1945</ele>
        <time>2022-07-24T10:37:24Z</time>
      </trkpt>
      <trkpt lat="45.79465" lon="6.62766">
        <ele>1945</ele>
        <time>2022-07-24T10:37:25Z</time>
      </trkpt>
      <trkpt lat="45.79465" lon="6.62768">
        <ele>1945</ele>
        <time>2022-07-24T10:37:26Z</time>
      </trkpt>
      <trkpt lat="45.79465" lon="6.6277">
        <ele>1945</ele>
        <time>2022-07-24T10:37:27Z</time>
      </trkpt>
      <trkpt lat="45.79465" lon="6.62772">
        <ele>1945</ele>
        <time>2022-07-24T10:37:28Z</time>
      </trkpt>
      <trkpt lat="45.79464" lon="6.62774">
        <ele>1945</ele>
        <time>2022-07-24T10:37:29Z</time>
      </trkpt>
      <trkpt lat="45.79464" lon="6.62775">
        <ele>1945</ele>
        <time>2022-07-24T10:37:30Z</time>
      </trkpt>
      <trkpt lat="45.79464" lon="6.62777">
        <ele>1945</ele>
        <time>2022-07-24T10:37:31Z</time>
      </trkpt>
      <trkpt lat="45.79463" lon="6.62779">
        <ele>1945</ele>
        <time>2022-07-24T10:37:32Z</time>
      </trkpt>
      <trkpt lat="45.79463" lon="6.6278">
        <ele>1945</ele>
        <time>2022-07-24T10:37:33Z</time>
      </trkpt>
      <trkpt lat="45.79462" lon="6.62782">
        <ele>1945</ele>
        <time>2022-07-24T10:37:34Z</time>
      </trkpt>
      <trkpt lat="45.79462" lon="6.62783">
        <ele>1945</ele>
        <time>2022-07-24T10:37:35Z</time>
      </trkpt>
      <trkpt lat="45.79461" lon="6.62785">
        <ele>1945</ele>
        <time>2022-07-24T10:37:36Z</time>
      </trkpt>
      <trkpt lat="45.79461" lon="6.62786">
        <ele>1945</ele>
        <time>2022-07-24T10:37:37Z</time>
      </trkpt>
      <trkpt lat="45.7946" lon="6.62788">
        <ele>1945</ele>
        <time>2022-07-24T10:37:38Z</time>
      </trkpt>
      <trkpt lat="45.7946" lon="6.62789">
        <ele>1945</ele>
        <time>2022-07-24T10:37:39Z</time>
      </trkpt>
      <trkpt lat="45.7946" lon="6.62791">
        <ele>1945</ele>
        <time>2022-07-24T10:37:40Z</time>
      </trkpt>
      <trkpt lat="45.79459" lon="6.62793">
        <ele>1945</ele>
        <time>2022-07-24T10:37:41Z</time>
      </trkpt>
      <trkpt lat="45.79459" lon="6.62794">
        <ele>1945</ele>
        <time>2022-07-24T10:37:42Z</time>
      </trkpt>
      <trkpt lat="45.79458" lon="6.62796">
        <ele>1945</ele>
        <time>2022-07-24T10:37:43Z</time>
      </trkpt>
      <trkpt lat="45.79458" lon="6.62797">
        <ele>1945</ele>
        <time>2022-07-24T10:37:44Z</time>
      </trkpt>
      <trkpt lat="45.79457" lon="6.62799">
        <ele>1945</ele>
        <time>2022-07-24T10:37:45Z</time>
      </trkpt>
      <trkpt lat="45.79457" lon="6.628">
        <ele>1945</ele>
        <time>2022-07-24T10:37:46Z</time>
      </trkpt>
      <trkpt lat="45.79456" lon="6.62802">
        <ele>1945</ele>
        <time>2022-07-24T10:37:47Z</time>
      </trkpt>
      <trkpt lat="45.79455" lon="6.62803">
        <ele>1945</ele>
        <time>2022-07-24T10:37:48Z</time>
      </trkpt>
      <trkpt lat="45.79455" lon="6.62804">
        <ele>1945</ele>
        <time>2022-07-24T10:37:49Z</time>
      </trkpt>
      <trkpt lat="45.79454" lon="6.62806">
        <ele>1945</ele>
        <time>2022-07-24T10:37:50Z</time>
      </trkpt>
      <trkpt lat="45.79454" lon="6.62807">
        <ele>1945</ele>
        <time>2022-07-24T10:37:51Z</time>
      </trkpt>
      <trkpt lat="45.79453" lon="6.62809">
        <ele>1945</ele>
        <time>2022-07-24T10:37:52Z</time>
      </trkpt>
      <trkpt lat="45.79453" lon="6.6281">
        <ele>1945</ele>
        <time>2022-07-24T10:37:53Z</time>
      </trkpt>
      <trkpt lat="45.79452" lon="6.62812">
        <ele>1945</ele>
        <time>2022-07-24T10:37:54Z</time>
      </trkpt>
      <trkpt lat="45.79452" lon="6.62813">
        <ele>1945</ele>
        <time>2022-07-24T10:37:55Z</time>
      </trkpt>
      <trkpt lat="45.79451" lon="6.62815">
        <ele>1945</ele>
        <time>2022-07-24T10:37:56Z</time>
      </trkpt>
      <trkpt lat="45.79451" lon="6.62817">
        <ele>1945</ele>
        <time>2022-07-24T10:37:57Z</time>
      </trkpt>
      <trkpt lat="45.79451" lon="6.62818">
        <ele>1945</ele>
        <time>2022-07-24T10:37:58Z</time>
      </trkpt>
      <trkpt lat="45.7945" lon="6.6282">
        <ele>1944</ele>
        <time>2022-07-24T10:37:59Z</time>
      </trkpt>
      <trkpt lat="45.7945" lon="6.62821">
        <ele>1944</ele>
        <time>2022-07-24T10:38:00Z</time>
      </trkpt>
      <trkpt lat="45.7945" lon="6.62823">
        <ele>1943</ele>
        <time>2022-07-24T10:38:01Z</time>
      </trkpt>
      <trkpt lat="45.7945" lon="6.62824">
        <ele>1943</ele>
        <time>2022-07-24T10:38:02Z</time>
      </trkpt>
      <trkpt lat="45.79449" lon="6.62826">
        <ele>1943</ele>
        <time>2022-07-24T10:38:03Z</time>
      </trkpt>
      <trkpt lat="45.79449" lon="6.62827">
        <ele>1943</ele>
        <time>2022-07-24T10:38:04Z</time>
      </trkpt>
      <trkpt lat="45.7945" lon="6.62828">
        <ele>1943</ele>
        <time>2022-07-24T10:38:05Z</time>
      </trkpt>
      <trkpt lat="45.7945" lon="6.6283">
        <ele>1943</ele>
        <time>2022-07-24T10:38:06Z</time>
      </trkpt>
      <trkpt lat="45.7945" lon="6.62831">
        <ele>1943</ele>
        <time>2022-07-24T10:38:07Z</time>
      </trkpt>
      <trkpt lat="45.7945" lon="6.62833">
        <ele>1943</ele>
        <time>2022-07-24T10:38:08Z</time>
      </trkpt>
      <trkpt lat="45.7945" lon="6.62834">
        <ele>1943</ele>
        <time>2022-07-24T10:38:09Z</time>
      </trkpt>
      <trkpt lat="45.7945" lon="6.62836">
        <ele>1943</ele>
        <time>2022-07-24T10:38:10Z</time>
      </trkpt>
      <trkpt lat="45.7945" lon="6.62838">
        <ele>1943</ele>
        <time>2022-07-24T10:38:11Z</time>
      </trkpt>
      <trkpt lat="45.7945" lon="6.6284">
        <ele>1943</ele>
        <time>2022-07-24T10:38:12Z</time>
      </trkpt>
      <trkpt lat="45.7945" lon="6.62841">
        <ele>1943</ele>
        <time>2022-07-24T10:38:13Z</time>
      </trkpt>
      <trkpt lat="45.7945" lon="6.62843">
        <ele>1943</ele>
        <time>2022-07-24T10:38:14Z</time>
      </trkpt>
      <trkpt lat="45.7945" lon="6.62845">
        <ele>1943</ele>
        <time>2022-07-24T10:38:15Z</time>
      </trkpt>
      <trkpt lat="45.7945" lon="6.62847">
        <ele>1943</ele>
        <time>2022-07-24T10:38:16Z</time>
      </trkpt>
      <trkpt lat="45.79451" lon="6.62848">
        <ele>1943</ele>
        <time>2022-07-24T10:38:17Z</time>
      </trkpt>
      <trkpt lat="45.79451" lon="6.6285">
        <ele>1943</ele>
        <time>2022-07-24T10:38:18Z</time>
      </trkpt>
      <trkpt lat="45.79451" lon="6.62852">
        <ele>1942</ele>
        <time>2022-07-24T10:38:19Z</time>
      </trkpt>
      <trkpt lat="45.79451" lon="6.62853">
        <ele>1942</ele>
        <time>2022-07-24T10:38:20Z</time>
      </trkpt>
      <trkpt lat="45.79452" lon="6.62855">
        <ele>1942</ele>
        <time>2022-07-24T10:38:21Z</time>
      </trkpt>
      <trkpt lat="45.79452" lon="6.62857">
        <ele>1942</ele>
        <time>2022-07-24T10:38:22Z</time>
      </trkpt>
      <trkpt lat="45.79452" lon="6.62858">
        <ele>1942</ele>
        <time>2022-07-24T10:38:23Z</time>
      </trkpt>
      <trkpt lat="45.79453" lon="6.6286">
        <ele>1942</ele>
        <time>2022-07-24T10:38:24Z</time>
      </trkpt>
      <trkpt lat="45.79453" lon="6.62862">
        <ele>1942</ele>
        <time>2022-07-24T10:38:25Z</time>
      </trkpt>
      <trkpt lat="45.79453" lon="6.62864">
        <ele>1942</ele>
        <time>2022-07-24T10:38:26Z</time>
      </trkpt>
      <trkpt lat="45.79453" lon="6.62865">
        <ele>1942</ele>
        <time>2022-07-24T10:38:27Z</time>
      </trkpt>
      <trkpt lat="45.79453" lon="6.62867">
        <ele>1942</ele>
        <time>2022-07-24T10:38:28Z</time>
      </trkpt>
      <trkpt lat="45.79453" lon="6.62869">
        <ele>1941</ele>
        <time>2022-07-24T10:38:29Z</time>
      </trkpt>
      <trkpt lat="45.79453" lon="6.62871">
        <ele>1941</ele>
        <time>2022-07-24T10:38:30Z</time>
      </trkpt>
      <trkpt lat="45.79453" lon="6.62873">
        <ele>1941</ele>
        <time>2022-07-24T10:38:31Z</time>
      </trkpt>
      <trkpt lat="45.79453" lon="6.62874">
        <ele>1941</ele>
        <time>2022-07-24T10:38:32Z</time>
      </trkpt>
      <trkpt lat="45.79453" lon="6.62876">
        <ele>1941</ele>
        <time>2022-07-24T10:38:33Z</time>
      </trkpt>
      <trkpt lat="45.79453" lon="6.62878">
        <ele>1941</ele>
        <time>2022-07-24T10:38:34Z</time>
      </trkpt>
      <trkpt lat="45.79453" lon="6.62879">
        <ele>1941</ele>
        <time>2022-07-24T10:38:35Z</time>
      </trkpt>
      <trkpt lat="45.79452" lon="6.62881">
        <ele>1941</ele>
        <time>2022-07-24T10:38:36Z</time>
      </trkpt>
      <trkpt lat="45.79452" lon="6.62883">
        <ele>1941</ele>
        <time>2022-07-24T10:38:37Z</time>
      </trkpt>
      <trkpt lat="45.79452" lon="6.62884">
        <ele>1941</ele>
        <time>2022-07-24T10:38:38Z</time>
      </trkpt>
      <trkpt lat="45.79451" lon="6.62886">
        <ele>1941</ele>
        <time>2022-07-24T10:38:39Z</time>
      </trkpt>
      <trkpt lat="45.79451" lon="6.62887">
        <ele>1941</ele>
        <time>2022-07-24T10:38:40Z</time>
      </trkpt>
      <trkpt lat="45.7945" lon="6.62889">
        <ele>1941</ele>
        <time>2022-07-24T10:38:41Z</time>
      </trkpt>
      <trkpt lat="45.7945" lon="6.6289">
        <ele>1941</ele>
        <time>2022-07-24T10:38:42Z</time>
      </trkpt>
      <trkpt lat="45.7945" lon="6.62892">
        <ele>1941</ele>
        <time>2022-07-24T10:38:43Z</time>
      </trkpt>
      <trkpt lat="45.7945" lon="6.62894">
        <ele>1940</ele>
        <time>2022-07-24T10:38:44Z</time>
      </trkpt>
      <trkpt lat="45.7945" lon="6.62896">
        <ele>1940</ele>
        <time>2022-07-24T10:38:45Z</time>
      </trkpt>
      <trkpt lat="45.7945" lon="6.62898">
        <ele>1940</ele>
        <time>2022-07-24T10:38:53Z</time>
      </trkpt>
      <trkpt lat="45.7945" lon="6.62899">
        <ele>1940</ele>
        <time>2022-07-24T10:38:54Z</time>
      </trkpt>
      <trkpt lat="45.7945" lon="6.629">
        <ele>1940</ele>
        <time>2022-07-24T10:38:55Z</time>
      </trkpt>
      <trkpt lat="45.7945" lon="6.62901">
        <ele>1940</ele>
        <time>2022-07-24T10:38:56Z</time>
      </trkpt>
      <trkpt lat="45.7945" lon="6.62902">
        <ele>1940</ele>
        <time>2022-07-24T10:38:57Z</time>
      </trkpt>
      <trkpt lat="45.7945" lon="6.62904">
        <ele>1940</ele>
        <time>2022-07-24T10:38:58Z</time>
      </trkpt>
      <trkpt lat="45.7945" lon="6.62905">
        <ele>1939</ele>
        <time>2022-07-24T10:38:59Z</time>
      </trkpt>
      <trkpt lat="45.79449" lon="6.62907">
        <ele>1939</ele>
        <time>2022-07-24T10:39:00Z</time>
      </trkpt>
      <trkpt lat="45.79449" lon="6.62909">
        <ele>1939</ele>
        <time>2022-07-24T10:39:01Z</time>
      </trkpt>
      <trkpt lat="45.79449" lon="6.62911">
        <ele>1939</ele>
        <time>2022-07-24T10:39:02Z</time>
      </trkpt>
      <trkpt lat="45.79449" lon="6.62913">
        <ele>1939</ele>
        <time>2022-07-24T10:39:03Z</time>
      </trkpt>
      <trkpt lat="45.79448" lon="6.62915">
        <ele>1939</ele>
        <time>2022-07-24T10:39:04Z</time>
      </trkpt>
      <trkpt lat="45.79448" lon="6.62917">
        <ele>1939</ele>
        <time>2022-07-24T10:39:05Z</time>
      </trkpt>
      <trkpt lat="45.79449" lon="6.62918">
        <ele>1939</ele>
        <time>2022-07-24T10:39:06Z</time>
      </trkpt>
      <trkpt lat="45.79449" lon="6.6292">
        <ele>1939</ele>
        <time>2022-07-24T10:39:07Z</time>
      </trkpt>
      <trkpt lat="45.79449" lon="6.62922">
        <ele>1939</ele>
        <time>2022-07-24T10:39:08Z</time>
      </trkpt>
      <trkpt lat="45.79449" lon="6.62924">
        <ele>1938</ele>
        <time>2022-07-24T10:39:09Z</time>
      </trkpt>
      <trkpt lat="45.79449" lon="6.62926">
        <ele>1938</ele>
        <time>2022-07-24T10:39:10Z</time>
      </trkpt>
      <trkpt lat="45.79449" lon="6.62927">
        <ele>1938</ele>
        <time>2022-07-24T10:39:11Z</time>
      </trkpt>
      <trkpt lat="45.79449" lon="6.62929">
        <ele>1938</ele>
        <time>2022-07-24T10:39:12Z</time>
      </trkpt>
      <trkpt lat="45.79449" lon="6.62931">
        <ele>1938</ele>
        <time>2022-07-24T10:39:13Z</time>
      </trkpt>
      <trkpt lat="45.79449" lon="6.62932">
        <ele>1938</ele>
        <time>2022-07-24T10:39:14Z</time>
      </trkpt>
      <trkpt lat="45.79449" lon="6.62934">
        <ele>1938</ele>
        <time>2022-07-24T10:39:15Z</time>
      </trkpt>
      <trkpt lat="45.79449" lon="6.62936">
        <ele>1938</ele>
        <time>2022-07-24T10:39:16Z</time>
      </trkpt>
      <trkpt lat="45.79449" lon="6.62937">
        <ele>1938</ele>
        <time>2022-07-24T10:39:17Z</time>
      </trkpt>
      <trkpt lat="45.79448" lon="6.62939">
        <ele>1938</ele>
        <time>2022-07-24T10:39:18Z</time>
      </trkpt>
      <trkpt lat="45.79448" lon="6.6294">
        <ele>1938</ele>
        <time>2022-07-24T10:39:19Z</time>
      </trkpt>
      <trkpt lat="45.79448" lon="6.62942">
        <ele>1938</ele>
        <time>2022-07-24T10:39:20Z</time>
      </trkpt>
      <trkpt lat="45.79448" lon="6.62943">
        <ele>1938</ele>
        <time>2022-07-24T10:39:21Z</time>
      </trkpt>
      <trkpt lat="45.79448" lon="6.62944">
        <ele>1938</ele>
        <time>2022-07-24T10:39:22Z</time>
      </trkpt>
      <trkpt lat="45.79447" lon="6.62946">
        <ele>1938</ele>
        <time>2022-07-24T10:39:23Z</time>
      </trkpt>
      <trkpt lat="45.79447" lon="6.62947">
        <ele>1938</ele>
        <time>2022-07-24T10:39:24Z</time>
      </trkpt>
      <trkpt lat="45.79447" lon="6.62948">
        <ele>1938</ele>
        <time>2022-07-24T10:39:25Z</time>
      </trkpt>
      <trkpt lat="45.79446" lon="6.62949">
        <ele>1938</ele>
        <time>2022-07-24T10:39:26Z</time>
      </trkpt>
      <trkpt lat="45.79446" lon="6.6295">
        <ele>1938</ele>
        <time>2022-07-24T10:39:27Z</time>
      </trkpt>
      <trkpt lat="45.79446" lon="6.62951">
        <ele>1938</ele>
        <time>2022-07-24T10:39:28Z</time>
      </trkpt>
      <trkpt lat="45.79445" lon="6.62952">
        <ele>1938</ele>
        <time>2022-07-24T10:39:29Z</time>
      </trkpt>
      <trkpt lat="45.79445" lon="6.62953">
        <ele>1938</ele>
        <time>2022-07-24T10:39:30Z</time>
      </trkpt>
      <trkpt lat="45.79445" lon="6.62954">
        <ele>1938</ele>
        <time>2022-07-24T10:39:31Z</time>
      </trkpt>
      <trkpt lat="45.79444" lon="6.62956">
        <ele>1938</ele>
        <time>2022-07-24T10:39:32Z</time>
      </trkpt>
      <trkpt lat="45.79444" lon="6.62957">
        <ele>1939</ele>
        <time>2022-07-24T10:39:33Z</time>
      </trkpt>
      <trkpt lat="45.79444" lon="6.62958">
        <ele>1939</ele>
        <time>2022-07-24T10:39:34Z</time>
      </trkpt>
      <trkpt lat="45.79443" lon="6.6296">
        <ele>1939</ele>
        <time>2022-07-24T10:39:35Z</time>
      </trkpt>
      <trkpt lat="45.79443" lon="6.62961">
        <ele>1939</ele>
        <time>2022-07-24T10:39:36Z</time>
      </trkpt>
      <trkpt lat="45.79443" lon="6.62963">
        <ele>1939</ele>
        <time>2022-07-24T10:39:37Z</time>
      </trkpt>
      <trkpt lat="45.79442" lon="6.62964">
        <ele>1939</ele>
        <time>2022-07-24T10:39:38Z</time>
      </trkpt>
      <trkpt lat="45.79442" lon="6.62966">
        <ele>1939</ele>
        <time>2022-07-24T10:39:39Z</time>
      </trkpt>
      <trkpt lat="45.79442" lon="6.62967">
        <ele>1939</ele>
        <time>2022-07-24T10:39:40Z</time>
      </trkpt>
      <trkpt lat="45.79442" lon="6.62969">
        <ele>1939</ele>
        <time>2022-07-24T10:39:41Z</time>
      </trkpt>
      <trkpt lat="45.79441" lon="6.6297">
        <ele>1939</ele>
        <time>2022-07-24T10:39:42Z</time>
      </trkpt>
      <trkpt lat="45.79441" lon="6.62972">
        <ele>1940</ele>
        <time>2022-07-24T10:39:43Z</time>
      </trkpt>
      <trkpt lat="45.79441" lon="6.62973">
        <ele>1940</ele>
        <time>2022-07-24T10:39:44Z</time>
      </trkpt>
      <trkpt lat="45.7944" lon="6.62975">
        <ele>1940</ele>
        <time>2022-07-24T10:39:45Z</time>
      </trkpt>
      <trkpt lat="45.7944" lon="6.62976">
        <ele>1940</ele>
        <time>2022-07-24T10:39:46Z</time>
      </trkpt>
      <trkpt lat="45.7944" lon="6.62978">
        <ele>1940</ele>
        <time>2022-07-24T10:39:47Z</time>
      </trkpt>
      <trkpt lat="45.79439" lon="6.62979">
        <ele>1940</ele>
        <time>2022-07-24T10:39:48Z</time>
      </trkpt>
      <trkpt lat="45.79439" lon="6.62981">
        <ele>1940</ele>
        <time>2022-07-24T10:39:49Z</time>
      </trkpt>
      <trkpt lat="45.79439" lon="6.62982">
        <ele>1940</ele>
        <time>2022-07-24T10:39:50Z</time>
      </trkpt>
      <trkpt lat="45.79439" lon="6.62984">
        <ele>1940</ele>
        <time>2022-07-24T10:39:51Z</time>
      </trkpt>
      <trkpt lat="45.79438" lon="6.62986">
        <ele>1940</ele>
        <time>2022-07-24T10:39:52Z</time>
      </trkpt>
      <trkpt lat="45.79438" lon="6.62987">
        <ele>1940</ele>
        <time>2022-07-24T10:39:53Z</time>
      </trkpt>
      <trkpt lat="45.79438" lon="6.62989">
        <ele>1940</ele>
        <time>2022-07-24T10:39:54Z</time>
      </trkpt>
      <trkpt lat="45.79438" lon="6.6299">
        <ele>1940</ele>
        <time>2022-07-24T10:39:55Z</time>
      </trkpt>
      <trkpt lat="45.79438" lon="6.62992">
        <ele>1940</ele>
        <time>2022-07-24T10:39:56Z</time>
      </trkpt>
      <trkpt lat="45.79438" lon="6.62993">
        <ele>1940</ele>
        <time>2022-07-24T10:39:57Z</time>
      </trkpt>
      <trkpt lat="45.79439" lon="6.62995">
        <ele>1941</ele>
        <time>2022-07-24T10:39:58Z</time>
      </trkpt>
      <trkpt lat="45.79439" lon="6.62996">
        <ele>1941</ele>
        <time>2022-07-24T10:39:59Z</time>
      </trkpt>
      <trkpt lat="45.79439" lon="6.62998">
        <ele>1941</ele>
        <time>2022-07-24T10:40:00Z</time>
      </trkpt>
      <trkpt lat="45.7944" lon="6.62999">
        <ele>1941</ele>
        <time>2022-07-24T10:40:01Z</time>
      </trkpt>
      <trkpt lat="45.7944" lon="6.63">
        <ele>1941</ele>
        <time>2022-07-24T10:40:02Z</time>
      </trkpt>
      <trkpt lat="45.7944" lon="6.63002">
        <ele>1941</ele>
        <time>2022-07-24T10:40:03Z</time>
      </trkpt>
      <trkpt lat="45.79441" lon="6.63003">
        <ele>1941</ele>
        <time>2022-07-24T10:40:04Z</time>
      </trkpt>
      <trkpt lat="45.79441" lon="6.63004">
        <ele>1941</ele>
        <time>2022-07-24T10:40:05Z</time>
      </trkpt>
      <trkpt lat="45.79441" lon="6.63005">
        <ele>1941</ele>
        <time>2022-07-24T10:40:06Z</time>
      </trkpt>
      <trkpt lat="45.79441" lon="6.63005">
        <ele>1941</ele>
        <time>2022-07-24T10:40:07Z</time>
      </trkpt>
      <trkpt lat="45.79442" lon="6.63006">
        <ele>1941</ele>
        <time>2022-07-24T10:40:08Z</time>
      </trkpt>
      <trkpt lat="45.79442" lon="6.63007">
        <ele>1941</ele>
        <time>2022-07-24T10:40:09Z</time>
      </trkpt>
      <trkpt lat="45.79443" lon="6.63008">
        <ele>1941</ele>
        <time>2022-07-24T10:40:10Z</time>
      </trkpt>
      <trkpt lat="45.79443" lon="6.63009">
        <ele>1941</ele>
        <time>2022-07-24T10:40:11Z</time>
      </trkpt>
      <trkpt lat="45.79444" lon="6.63009">
        <ele>1941</ele>
        <time>2022-07-24T10:40:12Z</time>
      </trkpt>
      <trkpt lat="45.79444" lon="6.6301">
        <ele>1942</ele>
        <time>2022-07-24T10:40:13Z</time>
      </trkpt>
      <trkpt lat="45.79445" lon="6.63012">
        <ele>1942</ele>
        <time>2022-07-24T10:40:14Z</time>
      </trkpt>
      <trkpt lat="45.79445" lon="6.63013">
        <ele>1942</ele>
        <time>2022-07-24T10:40:15Z</time>
      </trkpt>
      <trkpt lat="45.79446" lon="6.63014">
        <ele>1942</ele>
        <time>2022-07-24T10:40:16Z</time>
      </trkpt>
      <trkpt lat="45.79446" lon="6.63015">
        <ele>1942</ele>
        <time>2022-07-24T10:40:17Z</time>
      </trkpt>
      <trkpt lat="45.79447" lon="6.63017">
        <ele>1942</ele>
        <time>2022-07-24T10:40:18Z</time>
      </trkpt>
      <trkpt lat="45.79447" lon="6.63018">
        <ele>1942</ele>
        <time>2022-07-24T10:40:19Z</time>
      </trkpt>
      <trkpt lat="45.79447" lon="6.6302">
        <ele>1942</ele>
        <time>2022-07-24T10:40:20Z</time>
      </trkpt>
      <trkpt lat="45.79448" lon="6.63021">
        <ele>1942</ele>
        <time>2022-07-24T10:40:21Z</time>
      </trkpt>
      <trkpt lat="45.79448" lon="6.63022">
        <ele>1942</ele>
        <time>2022-07-24T10:40:22Z</time>
      </trkpt>
      <trkpt lat="45.79449" lon="6.63023">
        <ele>1943</ele>
        <time>2022-07-24T10:40:23Z</time>
      </trkpt>
      <trkpt lat="45.79449" lon="6.63025">
        <ele>1943</ele>
        <time>2022-07-24T10:40:24Z</time>
      </trkpt>
      <trkpt lat="45.7945" lon="6.63026">
        <ele>1943</ele>
        <time>2022-07-24T10:40:25Z</time>
      </trkpt>
      <trkpt lat="45.79451" lon="6.63027">
        <ele>1943</ele>
        <time>2022-07-24T10:40:26Z</time>
      </trkpt>
      <trkpt lat="45.79451" lon="6.63029">
        <ele>1943</ele>
        <time>2022-07-24T10:40:27Z</time>
      </trkpt>
      <trkpt lat="45.79452" lon="6.6303">
        <ele>1943</ele>
        <time>2022-07-24T10:40:28Z</time>
      </trkpt>
      <trkpt lat="45.79453" lon="6.63032">
        <ele>1943</ele>
        <time>2022-07-24T10:40:29Z</time>
      </trkpt>
      <trkpt lat="45.79454" lon="6.63033">
        <ele>1943</ele>
        <time>2022-07-24T10:40:30Z</time>
      </trkpt>
      <trkpt lat="45.79454" lon="6.63034">
        <ele>1944</ele>
        <time>2022-07-24T10:40:31Z</time>
      </trkpt>
      <trkpt lat="45.79455" lon="6.63036">
        <ele>1944</ele>
        <time>2022-07-24T10:40:32Z</time>
      </trkpt>
      <trkpt lat="45.79456" lon="6.63037">
        <ele>1945</ele>
        <time>2022-07-24T10:40:33Z</time>
      </trkpt>
      <trkpt lat="45.79456" lon="6.63038">
        <ele>1945</ele>
        <time>2022-07-24T10:40:34Z</time>
      </trkpt>
      <trkpt lat="45.79457" lon="6.63041">
        <ele>1946</ele>
        <time>2022-07-24T10:40:50Z</time>
      </trkpt>
      <trkpt lat="45.79456" lon="6.63041">
        <ele>1946</ele>
        <time>2022-07-24T10:40:51Z</time>
      </trkpt>
      <trkpt lat="45.79455" lon="6.63042">
        <ele>1946</ele>
        <time>2022-07-24T10:40:52Z</time>
      </trkpt>
      <trkpt lat="45.79454" lon="6.63042">
        <ele>1946</ele>
        <time>2022-07-24T10:40:53Z</time>
      </trkpt>
      <trkpt lat="45.79453" lon="6.63042">
        <ele>1945</ele>
        <time>2022-07-24T10:40:54Z</time>
      </trkpt>
      <trkpt lat="45.7945" lon="6.63042">
        <ele>1946</ele>
        <time>2022-07-24T10:41:03Z</time>
      </trkpt>
      <trkpt lat="45.7945" lon="6.63042">
        <ele>1946</ele>
        <time>2022-07-24T10:41:04Z</time>
      </trkpt>
      <trkpt lat="45.79449" lon="6.63042">
        <ele>1946</ele>
        <time>2022-07-24T10:41:05Z</time>
      </trkpt>
      <trkpt lat="45.79448" lon="6.63043">
        <ele>1946</ele>
        <time>2022-07-24T10:41:06Z</time>
      </trkpt>
      <trkpt lat="45.79447" lon="6.63043">
        <ele>1946</ele>
        <time>2022-07-24T10:41:07Z</time>
      </trkpt>
      <trkpt lat="45.79446" lon="6.63043">
        <ele>1946</ele>
        <time>2022-07-24T10:41:08Z</time>
      </trkpt>
      <trkpt lat="45.79445" lon="6.63043">
        <ele>1946</ele>
        <time>2022-07-24T10:41:09Z</time>
      </trkpt>
      <trkpt lat="45.79443" lon="6.63044">
        <ele>1946</ele>
        <time>2022-07-24T10:41:10Z</time>
      </trkpt>
      <trkpt lat="45.79442" lon="6.63044">
        <ele>1946</ele>
        <time>2022-07-24T10:41:11Z</time>
      </trkpt>
      <trkpt lat="45.79441" lon="6.63045">
        <ele>1946</ele>
        <time>2022-07-24T10:41:12Z</time>
      </trkpt>
      <trkpt lat="45.79439" lon="6.63045">
        <ele>1946</ele>
        <time>2022-07-24T10:41:13Z</time>
      </trkpt>
      <trkpt lat="45.79438" lon="6.63046">
        <ele>1945</ele>
        <time>2022-07-24T10:41:14Z</time>
      </trkpt>
      <trkpt lat="45.79437" lon="6.63047">
        <ele>1945</ele>
        <time>2022-07-24T10:41:15Z</time>
      </trkpt>
      <trkpt lat="45.79437" lon="6.63049">
        <ele>1945</ele>
        <time>2022-07-24T10:41:16Z</time>
      </trkpt>
      <trkpt lat="45.79436" lon="6.6305">
        <ele>1945</ele>
        <time>2022-07-24T10:41:17Z</time>
      </trkpt>
      <trkpt lat="45.79436" lon="6.63052">
        <ele>1945</ele>
        <time>2022-07-24T10:41:18Z</time>
      </trkpt>
      <trkpt lat="45.79436" lon="6.63054">
        <ele>1945</ele>
        <time>2022-07-24T10:41:19Z</time>
      </trkpt>
      <trkpt lat="45.79436" lon="6.63056">
        <ele>1945</ele>
        <time>2022-07-24T10:41:20Z</time>
      </trkpt>
      <trkpt lat="45.79435" lon="6.63058">
        <ele>1945</ele>
        <time>2022-07-24T10:41:21Z</time>
      </trkpt>
      <trkpt lat="45.79435" lon="6.6306">
        <ele>1945</ele>
        <time>2022-07-24T10:41:22Z</time>
      </trkpt>
      <trkpt lat="45.79435" lon="6.63061">
        <ele>1945</ele>
        <time>2022-07-24T10:41:23Z</time>
      </trkpt>
      <trkpt lat="45.79434" lon="6.63063">
        <ele>1945</ele>
        <time>2022-07-24T10:41:24Z</time>
      </trkpt>
      <trkpt lat="45.79433" lon="6.63064">
        <ele>1945</ele>
        <time>2022-07-24T10:41:25Z</time>
      </trkpt>
      <trkpt lat="45.79433" lon="6.63066">
        <ele>1945</ele>
        <time>2022-07-24T10:41:26Z</time>
      </trkpt>
      <trkpt lat="45.79432" lon="6.63067">
        <ele>1945</ele>
        <time>2022-07-24T10:41:27Z</time>
      </trkpt>
      <trkpt lat="45.79431" lon="6.63068">
        <ele>1945</ele>
        <time>2022-07-24T10:41:28Z</time>
      </trkpt>
      <trkpt lat="45.7943" lon="6.63069">
        <ele>1945</ele>
        <time>2022-07-24T10:41:29Z</time>
      </trkpt>
      <trkpt lat="45.79429" lon="6.6307">
        <ele>1945</ele>
        <time>2022-07-24T10:41:30Z</time>
      </trkpt>
      <trkpt lat="45.79428" lon="6.63071">
        <ele>1945</ele>
        <time>2022-07-24T10:41:31Z</time>
      </trkpt>
      <trkpt lat="45.79427" lon="6.63072">
        <ele>1945</ele>
        <time>2022-07-24T10:41:32Z</time>
      </trkpt>
      <trkpt lat="45.79426" lon="6.63073">
        <ele>1945</ele>
        <time>2022-07-24T10:41:33Z</time>
      </trkpt>
      <trkpt lat="45.79425" lon="6.63074">
        <ele>1945</ele>
        <time>2022-07-24T10:41:34Z</time>
      </trkpt>
      <trkpt lat="45.79424" lon="6.63075">
        <ele>1945</ele>
        <time>2022-07-24T10:41:35Z</time>
      </trkpt>
      <trkpt lat="45.79424" lon="6.63076">
        <ele>1945</ele>
        <time>2022-07-24T10:41:36Z</time>
      </trkpt>
      <trkpt lat="45.79423" lon="6.63077">
        <ele>1945</ele>
        <time>2022-07-24T10:41:37Z</time>
      </trkpt>
      <trkpt lat="45.79422" lon="6.63078">
        <ele>1945</ele>
        <time>2022-07-24T10:41:38Z</time>
      </trkpt>
      <trkpt lat="45.79422" lon="6.63079">
        <ele>1945</ele>
        <time>2022-07-24T10:41:39Z</time>
      </trkpt>
      <trkpt lat="45.79421" lon="6.6308">
        <ele>1945</ele>
        <time>2022-07-24T10:41:40Z</time>
      </trkpt>
      <trkpt lat="45.7942" lon="6.63081">
        <ele>1945</ele>
        <time>2022-07-24T10:41:41Z</time>
      </trkpt>
      <trkpt lat="45.79419" lon="6.63082">
        <ele>1945</ele>
        <time>2022-07-24T10:41:42Z</time>
      </trkpt>
      <trkpt lat="45.79419" lon="6.63082">
        <ele>1946</ele>
        <time>2022-07-24T10:41:43Z</time>
      </trkpt>
      <trkpt lat="45.79418" lon="6.63083">
        <ele>1946</ele>
        <time>2022-07-24T10:41:44Z</time>
      </trkpt>
      <trkpt lat="45.79417" lon="6.63084">
        <ele>1946</ele>
        <time>2022-07-24T10:41:45Z</time>
      </trkpt>
      <trkpt lat="45.79416" lon="6.63085">
        <ele>1946</ele>
        <time>2022-07-24T10:41:46Z</time>
      </trkpt>
      <trkpt lat="45.79416" lon="6.63086">
        <ele>1946</ele>
        <time>2022-07-24T10:41:47Z</time>
      </trkpt>
      <trkpt lat="45.79416" lon="6.63087">
        <ele>1946</ele>
        <time>2022-07-24T10:41:48Z</time>
      </trkpt>
      <trkpt lat="45.79415" lon="6.63088">
        <ele>1946</ele>
        <time>2022-07-24T10:41:49Z</time>
      </trkpt>
      <trkpt lat="45.79415" lon="6.63089">
        <ele>1946</ele>
        <time>2022-07-24T10:41:50Z</time>
      </trkpt>
      <trkpt lat="45.79415" lon="6.6309">
        <ele>1946</ele>
        <time>2022-07-24T10:41:51Z</time>
      </trkpt>
      <trkpt lat="45.79415" lon="6.63091">
        <ele>1946</ele>
        <time>2022-07-24T10:41:52Z</time>
      </trkpt>
      <trkpt lat="45.79414" lon="6.63092">
        <ele>1947</ele>
        <time>2022-07-24T10:41:53Z</time>
      </trkpt>
      <trkpt lat="45.79414" lon="6.63093">
        <ele>1947</ele>
        <time>2022-07-24T10:41:54Z</time>
      </trkpt>
      <trkpt lat="45.79414" lon="6.63094">
        <ele>1947</ele>
        <time>2022-07-24T10:41:55Z</time>
      </trkpt>
      <trkpt lat="45.79414" lon="6.63095">
        <ele>1947</ele>
        <time>2022-07-24T10:41:56Z</time>
      </trkpt>
      <trkpt lat="45.79414" lon="6.63096">
        <ele>1947</ele>
        <time>2022-07-24T10:41:57Z</time>
      </trkpt>
      <trkpt lat="45.79414" lon="6.63097">
        <ele>1948</ele>
        <time>2022-07-24T10:41:58Z</time>
      </trkpt>
      <trkpt lat="45.79413" lon="6.63098">
        <ele>1948</ele>
        <time>2022-07-24T10:41:59Z</time>
      </trkpt>
      <trkpt lat="45.79413" lon="6.63099">
        <ele>1948</ele>
        <time>2022-07-24T10:42:00Z</time>
      </trkpt>
      <trkpt lat="45.79412" lon="6.63099">
        <ele>1948</ele>
        <time>2022-07-24T10:42:01Z</time>
      </trkpt>
      <trkpt lat="45.79412" lon="6.631">
        <ele>1948</ele>
        <time>2022-07-24T10:42:02Z</time>
      </trkpt>
      <trkpt lat="45.79411" lon="6.63101">
        <ele>1949</ele>
        <time>2022-07-24T10:42:03Z</time>
      </trkpt>
      <trkpt lat="45.79411" lon="6.63102">
        <ele>1949</ele>
        <time>2022-07-24T10:42:04Z</time>
      </trkpt>
      <trkpt lat="45.7941" lon="6.63103">
        <ele>1949</ele>
        <time>2022-07-24T10:42:05Z</time>
      </trkpt>
      <trkpt lat="45.79409" lon="6.63103">
        <ele>1949</ele>
        <time>2022-07-24T10:42:06Z</time>
      </trkpt>
      <trkpt lat="45.79409" lon="6.63104">
        <ele>1949</ele>
        <time>2022-07-24T10:42:07Z</time>
      </trkpt>
      <trkpt lat="45.79408" lon="6.63105">
        <ele>1949</ele>
        <time>2022-07-24T10:42:08Z</time>
      </trkpt>
      <trkpt lat="45.79408" lon="6.63106">
        <ele>1949</ele>
        <time>2022-07-24T10:42:09Z</time>
      </trkpt>
      <trkpt lat="45.79407" lon="6.63107">
        <ele>1949</ele>
        <time>2022-07-24T10:42:10Z</time>
      </trkpt>
      <trkpt lat="45.79407" lon="6.63108">
        <ele>1949</ele>
        <time>2022-07-24T10:42:11Z</time>
      </trkpt>
      <trkpt lat="45.79406" lon="6.63108">
        <ele>1949</ele>
        <time>2022-07-24T10:42:12Z</time>
      </trkpt>
      <trkpt lat="45.79405" lon="6.63109">
        <ele>1950</ele>
        <time>2022-07-24T10:42:13Z</time>
      </trkpt>
      <trkpt lat="45.79405" lon="6.6311">
        <ele>1950</ele>
        <time>2022-07-24T10:42:14Z</time>
      </trkpt>
      <trkpt lat="45.79404" lon="6.6311">
        <ele>1950</ele>
        <time>2022-07-24T10:42:15Z</time>
      </trkpt>
      <trkpt lat="45.79404" lon="6.63111">
        <ele>1950</ele>
        <time>2022-07-24T10:42:16Z</time>
      </trkpt>
      <trkpt lat="45.79403" lon="6.63111">
        <ele>1950</ele>
        <time>2022-07-24T10:42:17Z</time>
      </trkpt>
      <trkpt lat="45.79403" lon="6.63112">
        <ele>1951</ele>
        <time>2022-07-24T10:42:18Z</time>
      </trkpt>
      <trkpt lat="45.79402" lon="6.63112">
        <ele>1951</ele>
        <time>2022-07-24T10:42:19Z</time>
      </trkpt>
      <trkpt lat="45.79402" lon="6.63113">
        <ele>1951</ele>
        <time>2022-07-24T10:42:20Z</time>
      </trkpt>
      <trkpt lat="45.79401" lon="6.63114">
        <ele>1951</ele>
        <time>2022-07-24T10:42:21Z</time>
      </trkpt>
      <trkpt lat="45.794" lon="6.63114">
        <ele>1951</ele>
        <time>2022-07-24T10:42:22Z</time>
      </trkpt>
      <trkpt lat="45.794" lon="6.63115">
        <ele>1952</ele>
        <time>2022-07-24T10:42:23Z</time>
      </trkpt>
      <trkpt lat="45.79399" lon="6.63116">
        <ele>1952</ele>
        <time>2022-07-24T10:42:24Z</time>
      </trkpt>
      <trkpt lat="45.79399" lon="6.63117">
        <ele>1952</ele>
        <time>2022-07-24T10:42:25Z</time>
      </trkpt>
      <trkpt lat="45.79398" lon="6.63118">
        <ele>1952</ele>
        <time>2022-07-24T10:42:26Z</time>
      </trkpt>
      <trkpt lat="45.79397" lon="6.63119">
        <ele>1952</ele>
        <time>2022-07-24T10:42:27Z</time>
      </trkpt>
      <trkpt lat="45.79397" lon="6.6312">
        <ele>1953</ele>
        <time>2022-07-24T10:42:28Z</time>
      </trkpt>
      <trkpt lat="45.79396" lon="6.63121">
        <ele>1953</ele>
        <time>2022-07-24T10:42:29Z</time>
      </trkpt>
      <trkpt lat="45.79396" lon="6.63122">
        <ele>1953</ele>
        <time>2022-07-24T10:42:30Z</time>
      </trkpt>
      <trkpt lat="45.79395" lon="6.63123">
        <ele>1953</ele>
        <time>2022-07-24T10:42:31Z</time>
      </trkpt>
      <trkpt lat="45.79394" lon="6.63124">
        <ele>1953</ele>
        <time>2022-07-24T10:42:32Z</time>
      </trkpt>
      <trkpt lat="45.79394" lon="6.63125">
        <ele>1954</ele>
        <time>2022-07-24T10:42:33Z</time>
      </trkpt>
      <trkpt lat="45.79393" lon="6.63126">
        <ele>1954</ele>
        <time>2022-07-24T10:42:34Z</time>
      </trkpt>
      <trkpt lat="45.79393" lon="6.63128">
        <ele>1954</ele>
        <time>2022-07-24T10:42:35Z</time>
      </trkpt>
      <trkpt lat="45.79392" lon="6.63129">
        <ele>1954</ele>
        <time>2022-07-24T10:42:36Z</time>
      </trkpt>
      <trkpt lat="45.79392" lon="6.6313">
        <ele>1954</ele>
        <time>2022-07-24T10:42:37Z</time>
      </trkpt>
      <trkpt lat="45.79391" lon="6.63131">
        <ele>1955</ele>
        <time>2022-07-24T10:42:38Z</time>
      </trkpt>
      <trkpt lat="45.79391" lon="6.63133">
        <ele>1955</ele>
        <time>2022-07-24T10:42:39Z</time>
      </trkpt>
      <trkpt lat="45.7939" lon="6.63134">
        <ele>1955</ele>
        <time>2022-07-24T10:42:40Z</time>
      </trkpt>
      <trkpt lat="45.7939" lon="6.63136">
        <ele>1955</ele>
        <time>2022-07-24T10:42:41Z</time>
      </trkpt>
      <trkpt lat="45.79389" lon="6.63137">
        <ele>1955</ele>
        <time>2022-07-24T10:42:42Z</time>
      </trkpt>
      <trkpt lat="45.79389" lon="6.63139">
        <ele>1956</ele>
        <time>2022-07-24T10:42:43Z</time>
      </trkpt>
      <trkpt lat="45.79388" lon="6.63141">
        <ele>1956</ele>
        <time>2022-07-24T10:42:44Z</time>
      </trkpt>
      <trkpt lat="45.79388" lon="6.63142">
        <ele>1956</ele>
        <time>2022-07-24T10:42:45Z</time>
      </trkpt>
      <trkpt lat="45.79387" lon="6.63144">
        <ele>1956</ele>
        <time>2022-07-24T10:42:46Z</time>
      </trkpt>
      <trkpt lat="45.79387" lon="6.63145">
        <ele>1956</ele>
        <time>2022-07-24T10:42:47Z</time>
      </trkpt>
      <trkpt lat="45.79386" lon="6.63147">
        <ele>1956</ele>
        <time>2022-07-24T10:42:48Z</time>
      </trkpt>
      <trkpt lat="45.79386" lon="6.63149">
        <ele>1956</ele>
        <time>2022-07-24T10:42:49Z</time>
      </trkpt>
      <trkpt lat="45.79385" lon="6.6315">
        <ele>1956</ele>
        <time>2022-07-24T10:42:50Z</time>
      </trkpt>
      <trkpt lat="45.79385" lon="6.63152">
        <ele>1956</ele>
        <time>2022-07-24T10:42:51Z</time>
      </trkpt>
      <trkpt lat="45.79385" lon="6.63153">
        <ele>1956</ele>
        <time>2022-07-24T10:42:52Z</time>
      </trkpt>
      <trkpt lat="45.79384" lon="6.63155">
        <ele>1956</ele>
        <time>2022-07-24T10:42:53Z</time>
      </trkpt>
      <trkpt lat="45.79384" lon="6.63157">
        <ele>1956</ele>
        <time>2022-07-24T10:42:54Z</time>
      </trkpt>
      <trkpt lat="45.79384" lon="6.63158">
        <ele>1956</ele>
        <time>2022-07-24T10:42:55Z</time>
      </trkpt>
      <trkpt lat="45.79384" lon="6.6316">
        <ele>1956</ele>
        <time>2022-07-24T10:42:56Z</time>
      </trkpt>
      <trkpt lat="45.79384" lon="6.63162">
        <ele>1956</ele>
        <time>2022-07-24T10:42:57Z</time>
      </trkpt>
      <trkpt lat="45.79384" lon="6.63163">
        <ele>1956</ele>
        <time>2022-07-24T10:42:58Z</time>
      </trkpt>
      <trkpt lat="45.79384" lon="6.63165">
        <ele>1956</ele>
        <time>2022-07-24T10:42:59Z</time>
      </trkpt>
      <trkpt lat="45.79384" lon="6.63167">
        <ele>1956</ele>
        <time>2022-07-24T10:43:00Z</time>
      </trkpt>
      <trkpt lat="45.79384" lon="6.63169">
        <ele>1956</ele>
        <time>2022-07-24T10:43:01Z</time>
      </trkpt>
      <trkpt lat="45.79384" lon="6.63171">
        <ele>1956</ele>
        <time>2022-07-24T10:43:02Z</time>
      </trkpt>
      <trkpt lat="45.79383" lon="6.63173">
        <ele>1956</ele>
        <time>2022-07-24T10:43:03Z</time>
      </trkpt>
      <trkpt lat="45.79383" lon="6.63174">
        <ele>1956</ele>
        <time>2022-07-24T10:43:04Z</time>
      </trkpt>
      <trkpt lat="45.79383" lon="6.63176">
        <ele>1956</ele>
        <time>2022-07-24T10:43:05Z</time>
      </trkpt>
      <trkpt lat="45.79382" lon="6.63178">
        <ele>1956</ele>
        <time>2022-07-24T10:43:06Z</time>
      </trkpt>
      <trkpt lat="45.79381" lon="6.63179">
        <ele>1956</ele>
        <time>2022-07-24T10:43:07Z</time>
      </trkpt>
      <trkpt lat="45.79381" lon="6.6318">
        <ele>1957</ele>
        <time>2022-07-24T10:43:08Z</time>
      </trkpt>
      <trkpt lat="45.7938" lon="6.63182">
        <ele>1957</ele>
        <time>2022-07-24T10:43:09Z</time>
      </trkpt>
      <trkpt lat="45.7938" lon="6.63184">
        <ele>1957</ele>
        <time>2022-07-24T10:43:10Z</time>
      </trkpt>
      <trkpt lat="45.79379" lon="6.63185">
        <ele>1957</ele>
        <time>2022-07-24T10:43:11Z</time>
      </trkpt>
      <trkpt lat="45.79378" lon="6.63187">
        <ele>1957</ele>
        <time>2022-07-24T10:43:12Z</time>
      </trkpt>
      <trkpt lat="45.79378" lon="6.63188">
        <ele>1957</ele>
        <time>2022-07-24T10:43:13Z</time>
      </trkpt>
      <trkpt lat="45.79377" lon="6.63189">
        <ele>1957</ele>
        <time>2022-07-24T10:43:14Z</time>
      </trkpt>
      <trkpt lat="45.79377" lon="6.63191">
        <ele>1957</ele>
        <time>2022-07-24T10:43:15Z</time>
      </trkpt>
      <trkpt lat="45.79376" lon="6.63192">
        <ele>1957</ele>
        <time>2022-07-24T10:43:21Z</time>
      </trkpt>
      <trkpt lat="45.79376" lon="6.63193">
        <ele>1957</ele>
        <time>2022-07-24T10:43:22Z</time>
      </trkpt>
      <trkpt lat="45.79376" lon="6.63194">
        <ele>1957</ele>
        <time>2022-07-24T10:43:23Z</time>
      </trkpt>
      <trkpt lat="45.79376" lon="6.63194">
        <ele>1957</ele>
        <time>2022-07-24T10:43:24Z</time>
      </trkpt>
      <trkpt lat="45.79375" lon="6.63195">
        <ele>1957</ele>
        <time>2022-07-24T10:43:25Z</time>
      </trkpt>
      <trkpt lat="45.79375" lon="6.63197">
        <ele>1957</ele>
        <time>2022-07-24T10:43:26Z</time>
      </trkpt>
      <trkpt lat="45.79375" lon="6.63198">
        <ele>1957</ele>
        <time>2022-07-24T10:43:27Z</time>
      </trkpt>
      <trkpt lat="45.79374" lon="6.632">
        <ele>1958</ele>
        <time>2022-07-24T10:43:28Z</time>
      </trkpt>
      <trkpt lat="45.79374" lon="6.63201">
        <ele>1958</ele>
        <time>2022-07-24T10:43:29Z</time>
      </trkpt>
      <trkpt lat="45.79373" lon="6.63203">
        <ele>1958</ele>
        <time>2022-07-24T10:43:30Z</time>
      </trkpt>
      <trkpt lat="45.79372" lon="6.63204">
        <ele>1958</ele>
        <time>2022-07-24T10:43:31Z</time>
      </trkpt>
      <trkpt lat="45.79372" lon="6.63206">
        <ele>1958</ele>
        <time>2022-07-24T10:43:32Z</time>
      </trkpt>
      <trkpt lat="45.79371" lon="6.63207">
        <ele>1958</ele>
        <time>2022-07-24T10:43:33Z</time>
      </trkpt>
      <trkpt lat="45.7937" lon="6.63209">
        <ele>1958</ele>
        <time>2022-07-24T10:43:34Z</time>
      </trkpt>
      <trkpt lat="45.7937" lon="6.6321">
        <ele>1958</ele>
        <time>2022-07-24T10:43:35Z</time>
      </trkpt>
      <trkpt lat="45.7937" lon="6.63212">
        <ele>1958</ele>
        <time>2022-07-24T10:43:36Z</time>
      </trkpt>
      <trkpt lat="45.79369" lon="6.63213">
        <ele>1958</ele>
        <time>2022-07-24T10:43:37Z</time>
      </trkpt>
      <trkpt lat="45.79369" lon="6.63215">
        <ele>1958</ele>
        <time>2022-07-24T10:43:38Z</time>
      </trkpt>
      <trkpt lat="45.79368" lon="6.63216">
        <ele>1958</ele>
        <time>2022-07-24T10:43:39Z</time>
      </trkpt>
      <trkpt lat="45.79368" lon="6.63219">
        <ele>1960</ele>
        <time>2022-07-24T10:44:55Z</time>
      </trkpt>
      <trkpt lat="45.79368" lon="6.6322">
        <ele>1960</ele>
        <time>2022-07-24T10:44:56Z</time>
      </trkpt>
      <trkpt lat="45.79368" lon="6.63221">
        <ele>1960</ele>
        <time>2022-07-24T10:44:57Z</time>
      </trkpt>
      <trkpt lat="45.79368" lon="6.63222">
        <ele>1960</ele>
        <time>2022-07-24T10:44:58Z</time>
      </trkpt>
      <trkpt lat="45.79368" lon="6.63223">
        <ele>1960</ele>
        <time>2022-07-24T10:44:59Z</time>
      </trkpt>
      <trkpt lat="45.79367" lon="6.63225">
        <ele>1960</ele>
        <time>2022-07-24T10:45:00Z</time>
      </trkpt>
      <trkpt lat="45.79367" lon="6.63227">
        <ele>1960</ele>
        <time>2022-07-24T10:45:01Z</time>
      </trkpt>
      <trkpt lat="45.79367" lon="6.63228">
        <ele>1960</ele>
        <time>2022-07-24T10:45:02Z</time>
      </trkpt>
      <trkpt lat="45.79366" lon="6.6323">
        <ele>1960</ele>
        <time>2022-07-24T10:45:03Z</time>
      </trkpt>
      <trkpt lat="45.79366" lon="6.63232">
        <ele>1960</ele>
        <time>2022-07-24T10:45:04Z</time>
      </trkpt>
      <trkpt lat="45.79366" lon="6.63234">
        <ele>1960</ele>
        <time>2022-07-24T10:45:05Z</time>
      </trkpt>
      <trkpt lat="45.79366" lon="6.63236">
        <ele>1960</ele>
        <time>2022-07-24T10:45:06Z</time>
      </trkpt>
      <trkpt lat="45.79366" lon="6.63238">
        <ele>1960</ele>
        <time>2022-07-24T10:45:07Z</time>
      </trkpt>
      <trkpt lat="45.79366" lon="6.6324">
        <ele>1960</ele>
        <time>2022-07-24T10:45:08Z</time>
      </trkpt>
      <trkpt lat="45.79365" lon="6.63241">
        <ele>1960</ele>
        <time>2022-07-24T10:45:09Z</time>
      </trkpt>
      <trkpt lat="45.79365" lon="6.63243">
        <ele>1960</ele>
        <time>2022-07-24T10:45:10Z</time>
      </trkpt>
      <trkpt lat="45.79365" lon="6.63245">
        <ele>1960</ele>
        <time>2022-07-24T10:45:11Z</time>
      </trkpt>
      <trkpt lat="45.79365" lon="6.63247">
        <ele>1960</ele>
        <time>2022-07-24T10:45:12Z</time>
      </trkpt>
      <trkpt lat="45.79364" lon="6.63248">
        <ele>1960</ele>
        <time>2022-07-24T10:45:13Z</time>
      </trkpt>
      <trkpt lat="45.79364" lon="6.6325">
        <ele>1960</ele>
        <time>2022-07-24T10:45:14Z</time>
      </trkpt>
      <trkpt lat="45.79364" lon="6.63252">
        <ele>1960</ele>
        <time>2022-07-24T10:45:15Z</time>
      </trkpt>
      <trkpt lat="45.79364" lon="6.63254">
        <ele>1960</ele>
        <time>2022-07-24T10:45:16Z</time>
      </trkpt>
      <trkpt lat="45.79364" lon="6.63255">
        <ele>1960</ele>
        <time>2022-07-24T10:45:17Z</time>
      </trkpt>
      <trkpt lat="45.79364" lon="6.63257">
        <ele>1960</ele>
        <time>2022-07-24T10:45:18Z</time>
      </trkpt>
      <trkpt lat="45.79364" lon="6.63259">
        <ele>1959</ele>
        <time>2022-07-24T10:45:19Z</time>
      </trkpt>
      <trkpt lat="45.79365" lon="6.63261">
        <ele>1959</ele>
        <time>2022-07-24T10:45:20Z</time>
      </trkpt>
      <trkpt lat="45.79365" lon="6.63263">
        <ele>1959</ele>
        <time>2022-07-24T10:45:21Z</time>
      </trkpt>
      <trkpt lat="45.79365" lon="6.63264">
        <ele>1959</ele>
        <time>2022-07-24T10:45:22Z</time>
      </trkpt>
      <trkpt lat="45.79365" lon="6.63266">
        <ele>1959</ele>
        <time>2022-07-24T10:45:23Z</time>
      </trkpt>
      <trkpt lat="45.79366" lon="6.63268">
        <ele>1959</ele>
        <time>2022-07-24T10:45:24Z</time>
      </trkpt>
      <trkpt lat="45.79366" lon="6.6327">
        <ele>1959</ele>
        <time>2022-07-24T10:45:25Z</time>
      </trkpt>
      <trkpt lat="45.79366" lon="6.63272">
        <ele>1959</ele>
        <time>2022-07-24T10:45:26Z</time>
      </trkpt>
      <trkpt lat="45.79367" lon="6.63273">
        <ele>1959</ele>
        <time>2022-07-24T10:45:27Z</time>
      </trkpt>
      <trkpt lat="45.79367" lon="6.63275">
        <ele>1959</ele>
        <time>2022-07-24T10:45:28Z</time>
      </trkpt>
      <trkpt lat="45.79368" lon="6.63277">
        <ele>1958</ele>
        <time>2022-07-24T10:45:29Z</time>
      </trkpt>
      <trkpt lat="45.79368" lon="6.63279">
        <ele>1958</ele>
        <time>2022-07-24T10:45:30Z</time>
      </trkpt>
      <trkpt lat="45.79368" lon="6.63281">
        <ele>1958</ele>
        <time>2022-07-24T10:45:31Z</time>
      </trkpt>
      <trkpt lat="45.79369" lon="6.63282">
        <ele>1958</ele>
        <time>2022-07-24T10:45:32Z</time>
      </trkpt>
      <trkpt lat="45.79369" lon="6.63284">
        <ele>1958</ele>
        <time>2022-07-24T10:45:33Z</time>
      </trkpt>
      <trkpt lat="45.79369" lon="6.63286">
        <ele>1958</ele>
        <time>2022-07-24T10:45:34Z</time>
      </trkpt>
      <trkpt lat="45.79369" lon="6.63288">
        <ele>1958</ele>
        <time>2022-07-24T10:45:35Z</time>
      </trkpt>
      <trkpt lat="45.7937" lon="6.63289">
        <ele>1958</ele>
        <time>2022-07-24T10:45:36Z</time>
      </trkpt>
      <trkpt lat="45.7937" lon="6.63291">
        <ele>1958</ele>
        <time>2022-07-24T10:45:37Z</time>
      </trkpt>
      <trkpt lat="45.7937" lon="6.63293">
        <ele>1958</ele>
        <time>2022-07-24T10:45:38Z</time>
      </trkpt>
      <trkpt lat="45.7937" lon="6.63295">
        <ele>1957</ele>
        <time>2022-07-24T10:45:39Z</time>
      </trkpt>
      <trkpt lat="45.79371" lon="6.63297">
        <ele>1957</ele>
        <time>2022-07-24T10:45:40Z</time>
      </trkpt>
      <trkpt lat="45.79371" lon="6.63298">
        <ele>1957</ele>
        <time>2022-07-24T10:45:41Z</time>
      </trkpt>
      <trkpt lat="45.79371" lon="6.633">
        <ele>1957</ele>
        <time>2022-07-24T10:45:42Z</time>
      </trkpt>
      <trkpt lat="45.79371" lon="6.63302">
        <ele>1957</ele>
        <time>2022-07-24T10:45:43Z</time>
      </trkpt>
      <trkpt lat="45.79372" lon="6.63303">
        <ele>1957</ele>
        <time>2022-07-24T10:45:44Z</time>
      </trkpt>
      <trkpt lat="45.79372" lon="6.63304">
        <ele>1957</ele>
        <time>2022-07-24T10:45:45Z</time>
      </trkpt>
      <trkpt lat="45.79372" lon="6.63305">
        <ele>1957</ele>
        <time>2022-07-24T10:45:46Z</time>
      </trkpt>
      <trkpt lat="45.79372" lon="6.63307">
        <ele>1957</ele>
        <time>2022-07-24T10:45:47Z</time>
      </trkpt>
      <trkpt lat="45.79372" lon="6.63309">
        <ele>1957</ele>
        <time>2022-07-24T10:45:48Z</time>
      </trkpt>
      <trkpt lat="45.79373" lon="6.6331">
        <ele>1957</ele>
        <time>2022-07-24T10:45:49Z</time>
      </trkpt>
      <trkpt lat="45.79373" lon="6.63312">
        <ele>1957</ele>
        <time>2022-07-24T10:45:50Z</time>
      </trkpt>
      <trkpt lat="45.79373" lon="6.63313">
        <ele>1957</ele>
        <time>2022-07-24T10:45:51Z</time>
      </trkpt>
      <trkpt lat="45.79374" lon="6.63315">
        <ele>1957</ele>
        <time>2022-07-24T10:45:52Z</time>
      </trkpt>
      <trkpt lat="45.79375" lon="6.63317">
        <ele>1957</ele>
        <time>2022-07-24T10:45:53Z</time>
      </trkpt>
      <trkpt lat="45.79375" lon="6.63318">
        <ele>1957</ele>
        <time>2022-07-24T10:45:54Z</time>
      </trkpt>
      <trkpt lat="45.79376" lon="6.6332">
        <ele>1957</ele>
        <time>2022-07-24T10:45:55Z</time>
      </trkpt>
      <trkpt lat="45.79377" lon="6.63322">
        <ele>1957</ele>
        <time>2022-07-24T10:45:56Z</time>
      </trkpt>
      <trkpt lat="45.79377" lon="6.63323">
        <ele>1957</ele>
        <time>2022-07-24T10:45:57Z</time>
      </trkpt>
      <trkpt lat="45.79378" lon="6.63325">
        <ele>1957</ele>
        <time>2022-07-24T10:45:58Z</time>
      </trkpt>
      <trkpt lat="45.79378" lon="6.63327">
        <ele>1956</ele>
        <time>2022-07-24T10:45:59Z</time>
      </trkpt>
      <trkpt lat="45.79379" lon="6.63328">
        <ele>1956</ele>
        <time>2022-07-24T10:46:00Z</time>
      </trkpt>
      <trkpt lat="45.79379" lon="6.6333">
        <ele>1956</ele>
        <time>2022-07-24T10:46:01Z</time>
      </trkpt>
      <trkpt lat="45.7938" lon="6.63331">
        <ele>1956</ele>
        <time>2022-07-24T10:46:02Z</time>
      </trkpt>
      <trkpt lat="45.7938" lon="6.63333">
        <ele>1956</ele>
        <time>2022-07-24T10:46:03Z</time>
      </trkpt>
      <trkpt lat="45.79381" lon="6.63334">
        <ele>1956</ele>
        <time>2022-07-24T10:46:04Z</time>
      </trkpt>
      <trkpt lat="45.79382" lon="6.63336">
        <ele>1956</ele>
        <time>2022-07-24T10:46:05Z</time>
      </trkpt>
      <trkpt lat="45.79383" lon="6.63337">
        <ele>1956</ele>
        <time>2022-07-24T10:46:06Z</time>
      </trkpt>
      <trkpt lat="45.79383" lon="6.63339">
        <ele>1956</ele>
        <time>2022-07-24T10:46:07Z</time>
      </trkpt>
      <trkpt lat="45.79384" lon="6.63341">
        <ele>1956</ele>
        <time>2022-07-24T10:46:08Z</time>
      </trkpt>
      <trkpt lat="45.79385" lon="6.63342">
        <ele>1956</ele>
        <time>2022-07-24T10:46:09Z</time>
      </trkpt>
      <trkpt lat="45.79385" lon="6.63344">
        <ele>1956</ele>
        <time>2022-07-24T10:46:10Z</time>
      </trkpt>
      <trkpt lat="45.79386" lon="6.63346">
        <ele>1956</ele>
        <time>2022-07-24T10:46:11Z</time>
      </trkpt>
      <trkpt lat="45.79386" lon="6.63347">
        <ele>1956</ele>
        <time>2022-07-24T10:46:12Z</time>
      </trkpt>
      <trkpt lat="45.79387" lon="6.63349">
        <ele>1956</ele>
        <time>2022-07-24T10:46:13Z</time>
      </trkpt>
      <trkpt lat="45.79387" lon="6.6335">
        <ele>1956</ele>
        <time>2022-07-24T10:46:14Z</time>
      </trkpt>
      <trkpt lat="45.79388" lon="6.63352">
        <ele>1956</ele>
        <time>2022-07-24T10:46:15Z</time>
      </trkpt>
      <trkpt lat="45.79388" lon="6.63353">
        <ele>1956</ele>
        <time>2022-07-24T10:46:16Z</time>
      </trkpt>
      <trkpt lat="45.79388" lon="6.63355">
        <ele>1956</ele>
        <time>2022-07-24T10:46:17Z</time>
      </trkpt>
      <trkpt lat="45.79388" lon="6.63357">
        <ele>1956</ele>
        <time>2022-07-24T10:46:18Z</time>
      </trkpt>
      <trkpt lat="45.79389" lon="6.63358">
        <ele>1956</ele>
        <time>2022-07-24T10:46:19Z</time>
      </trkpt>
      <trkpt lat="45.79389" lon="6.6336">
        <ele>1956</ele>
        <time>2022-07-24T10:46:20Z</time>
      </trkpt>
      <trkpt lat="45.79389" lon="6.63361">
        <ele>1956</ele>
        <time>2022-07-24T10:46:21Z</time>
      </trkpt>
      <trkpt lat="45.7939" lon="6.63363">
        <ele>1956</ele>
        <time>2022-07-24T10:46:22Z</time>
      </trkpt>
      <trkpt lat="45.7939" lon="6.63365">
        <ele>1956</ele>
        <time>2022-07-24T10:46:23Z</time>
      </trkpt>
      <trkpt lat="45.7939" lon="6.63366">
        <ele>1956</ele>
        <time>2022-07-24T10:46:24Z</time>
      </trkpt>
      <trkpt lat="45.79391" lon="6.63368">
        <ele>1956</ele>
        <time>2022-07-24T10:46:25Z</time>
      </trkpt>
      <trkpt lat="45.79391" lon="6.6337">
        <ele>1956</ele>
        <time>2022-07-24T10:46:26Z</time>
      </trkpt>
      <trkpt lat="45.79391" lon="6.63371">
        <ele>1956</ele>
        <time>2022-07-24T10:46:27Z</time>
      </trkpt>
      <trkpt lat="45.79392" lon="6.63373">
        <ele>1957</ele>
        <time>2022-07-24T10:46:28Z</time>
      </trkpt>
      <trkpt lat="45.79392" lon="6.63375">
        <ele>1957</ele>
        <time>2022-07-24T10:46:29Z</time>
      </trkpt>
      <trkpt lat="45.79392" lon="6.63376">
        <ele>1957</ele>
        <time>2022-07-24T10:46:30Z</time>
      </trkpt>
      <trkpt lat="45.79393" lon="6.63378">
        <ele>1957</ele>
        <time>2022-07-24T10:46:31Z</time>
      </trkpt>
      <trkpt lat="45.79393" lon="6.6338">
        <ele>1957</ele>
        <time>2022-07-24T10:46:32Z</time>
      </trkpt>
      <trkpt lat="45.79394" lon="6.63381">
        <ele>1957</ele>
        <time>2022-07-24T10:46:33Z</time>
      </trkpt>
      <trkpt lat="45.79394" lon="6.63383">
        <ele>1956</ele>
        <time>2022-07-24T10:46:34Z</time>
      </trkpt>
      <trkpt lat="45.79395" lon="6.63384">
        <ele>1956</ele>
        <time>2022-07-24T10:46:35Z</time>
      </trkpt>
      <trkpt lat="45.79395" lon="6.63386">
        <ele>1956</ele>
        <time>2022-07-24T10:46:36Z</time>
      </trkpt>
      <trkpt lat="45.79396" lon="6.63387">
        <ele>1956</ele>
        <time>2022-07-24T10:46:37Z</time>
      </trkpt>
      <trkpt lat="45.79396" lon="6.63389">
        <ele>1956</ele>
        <time>2022-07-24T10:46:38Z</time>
      </trkpt>
      <trkpt lat="45.79397" lon="6.6339">
        <ele>1956</ele>
        <time>2022-07-24T10:46:39Z</time>
      </trkpt>
      <trkpt lat="45.79397" lon="6.63392">
        <ele>1956</ele>
        <time>2022-07-24T10:46:40Z</time>
      </trkpt>
      <trkpt lat="45.79398" lon="6.63393">
        <ele>1956</ele>
        <time>2022-07-24T10:46:41Z</time>
      </trkpt>
      <trkpt lat="45.79399" lon="6.63395">
        <ele>1956</ele>
        <time>2022-07-24T10:46:42Z</time>
      </trkpt>
      <trkpt lat="45.79399" lon="6.63396">
        <ele>1956</ele>
        <time>2022-07-24T10:46:43Z</time>
      </trkpt>
      <trkpt lat="45.794" lon="6.63398">
        <ele>1956</ele>
        <time>2022-07-24T10:46:44Z</time>
      </trkpt>
      <trkpt lat="45.79401" lon="6.63399">
        <ele>1956</ele>
        <time>2022-07-24T10:46:45Z</time>
      </trkpt>
      <trkpt lat="45.79401" lon="6.634">
        <ele>1956</ele>
        <time>2022-07-24T10:46:46Z</time>
      </trkpt>
      <trkpt lat="45.79402" lon="6.63401">
        <ele>1956</ele>
        <time>2022-07-24T10:46:47Z</time>
      </trkpt>
      <trkpt lat="45.79402" lon="6.63402">
        <ele>1956</ele>
        <time>2022-07-24T10:47:05Z</time>
      </trkpt>
      <trkpt lat="45.79403" lon="6.63403">
        <ele>1956</ele>
        <time>2022-07-24T10:47:06Z</time>
      </trkpt>
      <trkpt lat="45.79403" lon="6.63403">
        <ele>1956</ele>
        <time>2022-07-24T10:47:07Z</time>
      </trkpt>
      <trkpt lat="45.79404" lon="6.63404">
        <ele>1956</ele>
        <time>2022-07-24T10:47:08Z</time>
      </trkpt>
      <trkpt lat="45.79404" lon="6.63405">
        <ele>1956</ele>
        <time>2022-07-24T10:47:09Z</time>
      </trkpt>
      <trkpt lat="45.79405" lon="6.63406">
        <ele>1956</ele>
        <time>2022-07-24T10:47:10Z</time>
      </trkpt>
      <trkpt lat="45.79405" lon="6.63407">
        <ele>1956</ele>
        <time>2022-07-24T10:47:11Z</time>
      </trkpt>
      <trkpt lat="45.79406" lon="6.63408">
        <ele>1956</ele>
        <time>2022-07-24T10:47:12Z</time>
      </trkpt>
      <trkpt lat="45.79407" lon="6.63409">
        <ele>1956</ele>
        <time>2022-07-24T10:47:13Z</time>
      </trkpt>
      <trkpt lat="45.79407" lon="6.63411">
        <ele>1956</ele>
        <time>2022-07-24T10:47:14Z</time>
      </trkpt>
      <trkpt lat="45.79408" lon="6.63412">
        <ele>1956</ele>
        <time>2022-07-24T10:47:15Z</time>
      </trkpt>
      <trkpt lat="45.79409" lon="6.63414">
        <ele>1956</ele>
        <time>2022-07-24T10:47:16Z</time>
      </trkpt>
      <trkpt lat="45.7941" lon="6.63416">
        <ele>1956</ele>
        <time>2022-07-24T10:47:17Z</time>
      </trkpt>
      <trkpt lat="45.7941" lon="6.63417">
        <ele>1956</ele>
        <time>2022-07-24T10:47:18Z</time>
      </trkpt>
      <trkpt lat="45.79411" lon="6.63418">
        <ele>1956</ele>
        <time>2022-07-24T10:47:19Z</time>
      </trkpt>
      <trkpt lat="45.79412" lon="6.63419">
        <ele>1956</ele>
        <time>2022-07-24T10:47:20Z</time>
      </trkpt>
      <trkpt lat="45.79413" lon="6.6342">
        <ele>1956</ele>
        <time>2022-07-24T10:47:21Z</time>
      </trkpt>
      <trkpt lat="45.79415" lon="6.63421">
        <ele>1956</ele>
        <time>2022-07-24T10:47:22Z</time>
      </trkpt>
      <trkpt lat="45.79416" lon="6.63422">
        <ele>1956</ele>
        <time>2022-07-24T10:47:23Z</time>
      </trkpt>
      <trkpt lat="45.79417" lon="6.63422">
        <ele>1956</ele>
        <time>2022-07-24T10:47:24Z</time>
      </trkpt>
      <trkpt lat="45.79418" lon="6.63423">
        <ele>1956</ele>
        <time>2022-07-24T10:47:25Z</time>
      </trkpt>
      <trkpt lat="45.79419" lon="6.63424">
        <ele>1956</ele>
        <time>2022-07-24T10:47:26Z</time>
      </trkpt>
      <trkpt lat="45.7942" lon="6.63425">
        <ele>1956</ele>
        <time>2022-07-24T10:47:27Z</time>
      </trkpt>
      <trkpt lat="45.79421" lon="6.63426">
        <ele>1956</ele>
        <time>2022-07-24T10:47:28Z</time>
      </trkpt>
      <trkpt lat="45.79422" lon="6.63427">
        <ele>1956</ele>
        <time>2022-07-24T10:47:29Z</time>
      </trkpt>
      <trkpt lat="45.79423" lon="6.63429">
        <ele>1956</ele>
        <time>2022-07-24T10:47:30Z</time>
      </trkpt>
      <trkpt lat="45.79424" lon="6.6343">
        <ele>1956</ele>
        <time>2022-07-24T10:47:31Z</time>
      </trkpt>
      <trkpt lat="45.79424" lon="6.63432">
        <ele>1956</ele>
        <time>2022-07-24T10:47:32Z</time>
      </trkpt>
      <trkpt lat="45.79425" lon="6.63433">
        <ele>1956</ele>
        <time>2022-07-24T10:47:33Z</time>
      </trkpt>
      <trkpt lat="45.79426" lon="6.63435">
        <ele>1956</ele>
        <time>2022-07-24T10:47:34Z</time>
      </trkpt>
      <trkpt lat="45.79427" lon="6.63436">
        <ele>1956</ele>
        <time>2022-07-24T10:47:35Z</time>
      </trkpt>
      <trkpt lat="45.79427" lon="6.63438">
        <ele>1956</ele>
        <time>2022-07-24T10:47:36Z</time>
      </trkpt>
      <trkpt lat="45.79428" lon="6.63439">
        <ele>1956</ele>
        <time>2022-07-24T10:47:37Z</time>
      </trkpt>
      <trkpt lat="45.79429" lon="6.63441">
        <ele>1956</ele>
        <time>2022-07-24T10:47:38Z</time>
      </trkpt>
      <trkpt lat="45.7943" lon="6.63443">
        <ele>1956</ele>
        <time>2022-07-24T10:47:39Z</time>
      </trkpt>
      <trkpt lat="45.7943" lon="6.63444">
        <ele>1956</ele>
        <time>2022-07-24T10:47:40Z</time>
      </trkpt>
      <trkpt lat="45.79431" lon="6.63446">
        <ele>1956</ele>
        <time>2022-07-24T10:47:41Z</time>
      </trkpt>
      <trkpt lat="45.79431" lon="6.63448">
        <ele>1956</ele>
        <time>2022-07-24T10:47:42Z</time>
      </trkpt>
      <trkpt lat="45.79432" lon="6.6345">
        <ele>1956</ele>
        <time>2022-07-24T10:47:43Z</time>
      </trkpt>
      <trkpt lat="45.79432" lon="6.63451">
        <ele>1956</ele>
        <time>2022-07-24T10:47:44Z</time>
      </trkpt>
      <trkpt lat="45.79433" lon="6.63453">
        <ele>1956</ele>
        <time>2022-07-24T10:47:45Z</time>
      </trkpt>
      <trkpt lat="45.79433" lon="6.63454">
        <ele>1956</ele>
        <time>2022-07-24T10:47:46Z</time>
      </trkpt>
      <trkpt lat="45.79434" lon="6.63455">
        <ele>1956</ele>
        <time>2022-07-24T10:47:47Z</time>
      </trkpt>
      <trkpt lat="45.79434" lon="6.63456">
        <ele>1956</ele>
        <time>2022-07-24T10:47:48Z</time>
      </trkpt>
      <trkpt lat="45.79435" lon="6.63457">
        <ele>1956</ele>
        <time>2022-07-24T10:47:49Z</time>
      </trkpt>
      <trkpt lat="45.79436" lon="6.63458">
        <ele>1956</ele>
        <time>2022-07-24T10:47:50Z</time>
      </trkpt>
      <trkpt lat="45.79437" lon="6.63459">
        <ele>1956</ele>
        <time>2022-07-24T10:47:51Z</time>
      </trkpt>
      <trkpt lat="45.79438" lon="6.6346">
        <ele>1956</ele>
        <time>2022-07-24T10:47:52Z</time>
      </trkpt>
      <trkpt lat="45.79439" lon="6.63461">
        <ele>1956</ele>
        <time>2022-07-24T10:47:53Z</time>
      </trkpt>
      <trkpt lat="45.7944" lon="6.63462">
        <ele>1956</ele>
        <time>2022-07-24T10:47:54Z</time>
      </trkpt>
      <trkpt lat="45.79441" lon="6.63463">
        <ele>1956</ele>
        <time>2022-07-24T10:47:55Z</time>
      </trkpt>
      <trkpt lat="45.79442" lon="6.63464">
        <ele>1956</ele>
        <time>2022-07-24T10:47:56Z</time>
      </trkpt>
      <trkpt lat="45.79443" lon="6.63465">
        <ele>1956</ele>
        <time>2022-07-24T10:47:57Z</time>
      </trkpt>
      <trkpt lat="45.79443" lon="6.63466">
        <ele>1956</ele>
        <time>2022-07-24T10:47:58Z</time>
      </trkpt>
      <trkpt lat="45.79444" lon="6.63467">
        <ele>1956</ele>
        <time>2022-07-24T10:47:59Z</time>
      </trkpt>
      <trkpt lat="45.79445" lon="6.63468">
        <ele>1956</ele>
        <time>2022-07-24T10:48:00Z</time>
      </trkpt>
      <trkpt lat="45.79445" lon="6.63469">
        <ele>1956</ele>
        <time>2022-07-24T10:48:01Z</time>
      </trkpt>
      <trkpt lat="45.79446" lon="6.6347">
        <ele>1956</ele>
        <time>2022-07-24T10:48:02Z</time>
      </trkpt>
      <trkpt lat="45.79446" lon="6.63471">
        <ele>1956</ele>
        <time>2022-07-24T10:48:03Z</time>
      </trkpt>
      <trkpt lat="45.79446" lon="6.63472">
        <ele>1956</ele>
        <time>2022-07-24T10:48:04Z</time>
      </trkpt>
      <trkpt lat="45.79447" lon="6.63474">
        <ele>1956</ele>
        <time>2022-07-24T10:48:05Z</time>
      </trkpt>
      <trkpt lat="45.79447" lon="6.63474">
        <ele>1956</ele>
        <time>2022-07-24T10:48:06Z</time>
      </trkpt>
      <trkpt lat="45.79447" lon="6.63475">
        <ele>1956</ele>
        <time>2022-07-24T10:48:07Z</time>
      </trkpt>
      <trkpt lat="45.79447" lon="6.63476">
        <ele>1956</ele>
        <time>2022-07-24T10:48:08Z</time>
      </trkpt>
      <trkpt lat="45.79448" lon="6.63477">
        <ele>1956</ele>
        <time>2022-07-24T10:48:09Z</time>
      </trkpt>
      <trkpt lat="45.79448" lon="6.63478">
        <ele>1956</ele>
        <time>2022-07-24T10:48:10Z</time>
      </trkpt>
      <trkpt lat="45.79448" lon="6.63479">
        <ele>1955</ele>
        <time>2022-07-24T10:49:11Z</time>
      </trkpt>
      <trkpt lat="45.79448" lon="6.63478">
        <ele>1955</ele>
        <time>2022-07-24T10:49:12Z</time>
      </trkpt>
      <trkpt lat="45.79449" lon="6.63478">
        <ele>1955</ele>
        <time>2022-07-24T10:49:13Z</time>
      </trkpt>
      <trkpt lat="45.79449" lon="6.63478">
        <ele>1955</ele>
        <time>2022-07-24T10:49:14Z</time>
      </trkpt>
      <trkpt lat="45.79449" lon="6.63479">
        <ele>1955</ele>
        <time>2022-07-24T10:49:15Z</time>
      </trkpt>
      <trkpt lat="45.7945" lon="6.63479">
        <ele>1956</ele>
        <time>2022-07-24T10:49:24Z</time>
      </trkpt>
      <trkpt lat="45.7945" lon="6.6348">
        <ele>1956</ele>
        <time>2022-07-24T10:49:25Z</time>
      </trkpt>
      <trkpt lat="45.7945" lon="6.6348">
        <ele>1956</ele>
        <time>2022-07-24T10:49:26Z</time>
      </trkpt>
      <trkpt lat="45.79451" lon="6.63479">
        <ele>1956</ele>
        <time>2022-07-24T10:49:27Z</time>
      </trkpt>
      <trkpt lat="45.79451" lon="6.63479">
        <ele>1956</ele>
        <time>2022-07-24T10:49:28Z</time>
      </trkpt>
      <trkpt lat="45.79452" lon="6.63478">
        <ele>1956</ele>
        <time>2022-07-24T10:49:29Z</time>
      </trkpt>
      <trkpt lat="45.79452" lon="6.63477">
        <ele>1956</ele>
        <time>2022-07-24T10:49:30Z</time>
      </trkpt>
      <trkpt lat="45.79453" lon="6.63476">
        <ele>1957</ele>
        <time>2022-07-24T10:50:24Z</time>
      </trkpt>
      <trkpt lat="45.79453" lon="6.63476">
        <ele>1957</ele>
        <time>2022-07-24T10:50:25Z</time>
      </trkpt>
      <trkpt lat="45.79453" lon="6.63475">
        <ele>1957</ele>
        <time>2022-07-24T10:50:26Z</time>
      </trkpt>
      <trkpt lat="45.79453" lon="6.63476">
        <ele>1957</ele>
        <time>2022-07-24T10:50:27Z</time>
      </trkpt>
      <trkpt lat="45.79452" lon="6.63476">
        <ele>1957</ele>
        <time>2022-07-24T10:50:28Z</time>
      </trkpt>
      <trkpt lat="45.79452" lon="6.63477">
        <ele>1956</ele>
        <time>2022-07-24T10:50:29Z</time>
      </trkpt>
      <trkpt lat="45.79451" lon="6.63477">
        <ele>1956</ele>
        <time>2022-07-24T10:50:30Z</time>
      </trkpt>
      <trkpt lat="45.79451" lon="6.63479">
        <ele>1956</ele>
        <time>2022-07-24T10:50:31Z</time>
      </trkpt>
      <trkpt lat="45.7945" lon="6.6348">
        <ele>1956</ele>
        <time>2022-07-24T10:50:32Z</time>
      </trkpt>
      <trkpt lat="45.7945" lon="6.6348">
        <ele>1956</ele>
        <time>2022-07-24T10:50:33Z</time>
      </trkpt>
      <trkpt lat="45.79449" lon="6.6348">
        <ele>1956</ele>
        <time>2022-07-24T10:50:34Z</time>
      </trkpt>
      <trkpt lat="45.79449" lon="6.63481">
        <ele>1956</ele>
        <time>2022-07-24T10:50:35Z</time>
      </trkpt>
      <trkpt lat="45.79449" lon="6.63482">
        <ele>1957</ele>
        <time>2022-07-24T10:58:29Z</time>
      </trkpt>
      <trkpt lat="45.79448" lon="6.63482">
        <ele>1957</ele>
        <time>2022-07-24T10:58:30Z</time>
      </trkpt>
      <trkpt lat="45.79448" lon="6.63483">
        <ele>1957</ele>
        <time>2022-07-24T10:58:31Z</time>
      </trkpt>
      <trkpt lat="45.79448" lon="6.63484">
        <ele>1957</ele>
        <time>2022-07-24T10:58:32Z</time>
      </trkpt>
      <trkpt lat="45.79448" lon="6.63484">
        <ele>1957</ele>
        <time>2022-07-24T10:58:33Z</time>
      </trkpt>
      <trkpt lat="45.79448" lon="6.63487">
        <ele>1957</ele>
        <time>2022-07-24T10:58:46Z</time>
      </trkpt>
      <trkpt lat="45.79448" lon="6.63488">
        <ele>1957</ele>
        <time>2022-07-24T10:58:47Z</time>
      </trkpt>
      <trkpt lat="45.79448" lon="6.63489">
        <ele>1957</ele>
        <time>2022-07-24T10:58:48Z</time>
      </trkpt>
      <trkpt lat="45.79448" lon="6.6349">
        <ele>1957</ele>
        <time>2022-07-24T10:58:49Z</time>
      </trkpt>
      <trkpt lat="45.79449" lon="6.63491">
        <ele>1957</ele>
        <time>2022-07-24T10:58:50Z</time>
      </trkpt>
      <trkpt lat="45.79449" lon="6.63492">
        <ele>1957</ele>
        <time>2022-07-24T10:58:51Z</time>
      </trkpt>
      <trkpt lat="45.79449" lon="6.63493">
        <ele>1957</ele>
        <time>2022-07-24T10:58:52Z</time>
      </trkpt>
      <trkpt lat="45.79449" lon="6.63493">
        <ele>1957</ele>
        <time>2022-07-24T10:58:53Z</time>
      </trkpt>
      <trkpt lat="45.7945" lon="6.63494">
        <ele>1957</ele>
        <time>2022-07-24T10:58:54Z</time>
      </trkpt>
      <trkpt lat="45.7945" lon="6.63495">
        <ele>1957</ele>
        <time>2022-07-24T10:58:55Z</time>
      </trkpt>
      <trkpt lat="45.7945" lon="6.63496">
        <ele>1957</ele>
        <time>2022-07-24T10:58:56Z</time>
      </trkpt>
      <trkpt lat="45.7945" lon="6.63497">
        <ele>1957</ele>
        <time>2022-07-24T10:58:57Z</time>
      </trkpt>
      <trkpt lat="45.79451" lon="6.63498">
        <ele>1957</ele>
        <time>2022-07-24T10:58:58Z</time>
      </trkpt>
      <trkpt lat="45.79451" lon="6.635">
        <ele>1957</ele>
        <time>2022-07-24T10:58:59Z</time>
      </trkpt>
      <trkpt lat="45.79451" lon="6.63502">
        <ele>1957</ele>
        <time>2022-07-24T10:59:00Z</time>
      </trkpt>
      <trkpt lat="45.79451" lon="6.63504">
        <ele>1957</ele>
        <time>2022-07-24T10:59:01Z</time>
      </trkpt>
      <trkpt lat="45.79452" lon="6.63506">
        <ele>1957</ele>
        <time>2022-07-24T10:59:02Z</time>
      </trkpt>
      <trkpt lat="45.79452" lon="6.63508">
        <ele>1957</ele>
        <time>2022-07-24T10:59:03Z</time>
      </trkpt>
      <trkpt lat="45.79452" lon="6.6351">
        <ele>1957</ele>
        <time>2022-07-24T10:59:04Z</time>
      </trkpt>
      <trkpt lat="45.79453" lon="6.63512">
        <ele>1957</ele>
        <time>2022-07-24T10:59:05Z</time>
      </trkpt>
      <trkpt lat="45.79453" lon="6.63514">
        <ele>1957</ele>
        <time>2022-07-24T10:59:06Z</time>
      </trkpt>
      <trkpt lat="45.79453" lon="6.63516">
        <ele>1957</ele>
        <time>2022-07-24T10:59:07Z</time>
      </trkpt>
      <trkpt lat="45.79453" lon="6.63518">
        <ele>1957</ele>
        <time>2022-07-24T10:59:08Z</time>
      </trkpt>
      <trkpt lat="45.79454" lon="6.6352">
        <ele>1957</ele>
        <time>2022-07-24T10:59:09Z</time>
      </trkpt>
      <trkpt lat="45.79454" lon="6.63522">
        <ele>1957</ele>
        <time>2022-07-24T10:59:10Z</time>
      </trkpt>
      <trkpt lat="45.79453" lon="6.63524">
        <ele>1957</ele>
        <time>2022-07-24T10:59:11Z</time>
      </trkpt>
      <trkpt lat="45.79453" lon="6.63525">
        <ele>1957</ele>
        <time>2022-07-24T10:59:12Z</time>
      </trkpt>
      <trkpt lat="45.79453" lon="6.63527">
        <ele>1957</ele>
        <time>2022-07-24T10:59:13Z</time>
      </trkpt>
      <trkpt lat="45.79452" lon="6.63528">
        <ele>1956</ele>
        <time>2022-07-24T10:59:14Z</time>
      </trkpt>
      <trkpt lat="45.79451" lon="6.6353">
        <ele>1956</ele>
        <time>2022-07-24T10:59:15Z</time>
      </trkpt>
      <trkpt lat="45.7945" lon="6.63531">
        <ele>1956</ele>
        <time>2022-07-24T10:59:16Z</time>
      </trkpt>
      <trkpt lat="45.79449" lon="6.63532">
        <ele>1956</ele>
        <time>2022-07-24T10:59:17Z</time>
      </trkpt>
      <trkpt lat="45.79448" lon="6.63534">
        <ele>1956</ele>
        <time>2022-07-24T10:59:18Z</time>
      </trkpt>
      <trkpt lat="45.79447" lon="6.63535">
        <ele>1956</ele>
        <time>2022-07-24T10:59:19Z</time>
      </trkpt>
      <trkpt lat="45.79446" lon="6.63536">
        <ele>1956</ele>
        <time>2022-07-24T10:59:20Z</time>
      </trkpt>
      <trkpt lat="45.79446" lon="6.63538">
        <ele>1956</ele>
        <time>2022-07-24T10:59:21Z</time>
      </trkpt>
      <trkpt lat="45.79446" lon="6.6354">
        <ele>1956</ele>
        <time>2022-07-24T10:59:22Z</time>
      </trkpt>
      <trkpt lat="45.79446" lon="6.63542">
        <ele>1956</ele>
        <time>2022-07-24T10:59:23Z</time>
      </trkpt>
      <trkpt lat="45.79446" lon="6.63543">
        <ele>1955</ele>
        <time>2022-07-24T10:59:24Z</time>
      </trkpt>
      <trkpt lat="45.79447" lon="6.63545">
        <ele>1955</ele>
        <time>2022-07-24T10:59:25Z</time>
      </trkpt>
      <trkpt lat="45.79448" lon="6.63547">
        <ele>1955</ele>
        <time>2022-07-24T10:59:26Z</time>
      </trkpt>
      <trkpt lat="45.79449" lon="6.63549">
        <ele>1955</ele>
        <time>2022-07-24T10:59:27Z</time>
      </trkpt>
      <trkpt lat="45.7945" lon="6.6355">
        <ele>1955</ele>
        <time>2022-07-24T10:59:28Z</time>
      </trkpt>
      <trkpt lat="45.7945" lon="6.63552">
        <ele>1954</ele>
        <time>2022-07-24T10:59:29Z</time>
      </trkpt>
      <trkpt lat="45.79451" lon="6.63554">
        <ele>1954</ele>
        <time>2022-07-24T10:59:30Z</time>
      </trkpt>
      <trkpt lat="45.79451" lon="6.63556">
        <ele>1954</ele>
        <time>2022-07-24T10:59:31Z</time>
      </trkpt>
      <trkpt lat="45.79452" lon="6.63557">
        <ele>1954</ele>
        <time>2022-07-24T10:59:32Z</time>
      </trkpt>
      <trkpt lat="45.79452" lon="6.63559">
        <ele>1954</ele>
        <time>2022-07-24T10:59:33Z</time>
      </trkpt>
      <trkpt lat="45.79452" lon="6.63561">
        <ele>1953</ele>
        <time>2022-07-24T10:59:34Z</time>
      </trkpt>
      <trkpt lat="45.79453" lon="6.63563">
        <ele>1953</ele>
        <time>2022-07-24T10:59:35Z</time>
      </trkpt>
      <trkpt lat="45.79453" lon="6.63565">
        <ele>1953</ele>
        <time>2022-07-24T10:59:36Z</time>
      </trkpt>
      <trkpt lat="45.79454" lon="6.63566">
        <ele>1953</ele>
        <time>2022-07-24T10:59:37Z</time>
      </trkpt>
      <trkpt lat="45.79454" lon="6.63568">
        <ele>1953</ele>
        <time>2022-07-24T10:59:38Z</time>
      </trkpt>
      <trkpt lat="45.79455" lon="6.6357">
        <ele>1953</ele>
        <time>2022-07-24T10:59:39Z</time>
      </trkpt>
      <trkpt lat="45.79455" lon="6.63571">
        <ele>1953</ele>
        <time>2022-07-24T10:59:40Z</time>
      </trkpt>
      <trkpt lat="45.79456" lon="6.63573">
        <ele>1953</ele>
        <time>2022-07-24T10:59:41Z</time>
      </trkpt>
      <trkpt lat="45.79456" lon="6.63575">
        <ele>1953</ele>
        <time>2022-07-24T10:59:42Z</time>
      </trkpt>
      <trkpt lat="45.79457" lon="6.63576">
        <ele>1953</ele>
        <time>2022-07-24T10:59:43Z</time>
      </trkpt>
      <trkpt lat="45.79457" lon="6.63578">
        <ele>1953</ele>
        <time>2022-07-24T10:59:44Z</time>
      </trkpt>
      <trkpt lat="45.79458" lon="6.6358">
        <ele>1953</ele>
        <time>2022-07-24T10:59:45Z</time>
      </trkpt>
      <trkpt lat="45.79459" lon="6.63581">
        <ele>1953</ele>
        <time>2022-07-24T10:59:46Z</time>
      </trkpt>
      <trkpt lat="45.79459" lon="6.63583">
        <ele>1953</ele>
        <time>2022-07-24T10:59:47Z</time>
      </trkpt>
      <trkpt lat="45.7946" lon="6.63585">
        <ele>1953</ele>
        <time>2022-07-24T10:59:48Z</time>
      </trkpt>
      <trkpt lat="45.7946" lon="6.63586">
        <ele>1952</ele>
        <time>2022-07-24T10:59:49Z</time>
      </trkpt>
      <trkpt lat="45.79461" lon="6.63588">
        <ele>1952</ele>
        <time>2022-07-24T10:59:50Z</time>
      </trkpt>
      <trkpt lat="45.79462" lon="6.63589">
        <ele>1952</ele>
        <time>2022-07-24T10:59:51Z</time>
      </trkpt>
      <trkpt lat="45.79462" lon="6.6359">
        <ele>1952</ele>
        <time>2022-07-24T10:59:52Z</time>
      </trkpt>
      <trkpt lat="45.79463" lon="6.63592">
        <ele>1952</ele>
        <time>2022-07-24T10:59:53Z</time>
      </trkpt>
      <trkpt lat="45.79463" lon="6.63593">
        <ele>1952</ele>
        <time>2022-07-24T10:59:54Z</time>
      </trkpt>
      <trkpt lat="45.79464" lon="6.63594">
        <ele>1952</ele>
        <time>2022-07-24T10:59:55Z</time>
      </trkpt>
      <trkpt lat="45.79465" lon="6.63595">
        <ele>1952</ele>
        <time>2022-07-24T10:59:56Z</time>
      </trkpt>
      <trkpt lat="45.79465" lon="6.63595">
        <ele>1952</ele>
        <time>2022-07-24T10:59:57Z</time>
      </trkpt>
      <trkpt lat="45.79465" lon="6.63596">
        <ele>1952</ele>
        <time>2022-07-24T10:59:58Z</time>
      </trkpt>
      <trkpt lat="45.79465" lon="6.63596">
        <ele>1952</ele>
        <time>2022-07-24T10:59:59Z</time>
      </trkpt>
      <trkpt lat="45.79465" lon="6.63597">
        <ele>1952</ele>
        <time>2022-07-24T11:00:00Z</time>
      </trkpt>
      <trkpt lat="45.79466" lon="6.63598">
        <ele>1952</ele>
        <time>2022-07-24T11:00:01Z</time>
      </trkpt>
      <trkpt lat="45.79466" lon="6.63599">
        <ele>1952</ele>
        <time>2022-07-24T11:00:02Z</time>
      </trkpt>
      <trkpt lat="45.79466" lon="6.63601">
        <ele>1952</ele>
        <time>2022-07-24T11:00:09Z</time>
      </trkpt>
      <trkpt lat="45.79466" lon="6.63602">
        <ele>1952</ele>
        <time>2022-07-24T11:00:10Z</time>
      </trkpt>
      <trkpt lat="45.79466" lon="6.63603">
        <ele>1952</ele>
        <time>2022-07-24T11:00:11Z</time>
      </trkpt>
      <trkpt lat="45.79466" lon="6.63604">
        <ele>1952</ele>
        <time>2022-07-24T11:00:12Z</time>
      </trkpt>
      <trkpt lat="45.79466" lon="6.63605">
        <ele>1952</ele>
        <time>2022-07-24T11:00:13Z</time>
      </trkpt>
      <trkpt lat="45.79467" lon="6.63607">
        <ele>1951</ele>
        <time>2022-07-24T11:00:14Z</time>
      </trkpt>
      <trkpt lat="45.79467" lon="6.63608">
        <ele>1951</ele>
        <time>2022-07-24T11:00:15Z</time>
      </trkpt>
      <trkpt lat="45.79468" lon="6.6361">
        <ele>1951</ele>
        <time>2022-07-24T11:00:16Z</time>
      </trkpt>
      <trkpt lat="45.79468" lon="6.63612">
        <ele>1951</ele>
        <time>2022-07-24T11:00:17Z</time>
      </trkpt>
      <trkpt lat="45.79469" lon="6.63614">
        <ele>1951</ele>
        <time>2022-07-24T11:00:18Z</time>
      </trkpt>
      <trkpt lat="45.79469" lon="6.63615">
        <ele>1951</ele>
        <time>2022-07-24T11:00:19Z</time>
      </trkpt>
      <trkpt lat="45.79469" lon="6.63617">
        <ele>1951</ele>
        <time>2022-07-24T11:00:20Z</time>
      </trkpt>
      <trkpt lat="45.7947" lon="6.63619">
        <ele>1951</ele>
        <time>2022-07-24T11:00:21Z</time>
      </trkpt>
      <trkpt lat="45.7947" lon="6.63621">
        <ele>1951</ele>
        <time>2022-07-24T11:00:22Z</time>
      </trkpt>
      <trkpt lat="45.79471" lon="6.63623">
        <ele>1951</ele>
        <time>2022-07-24T11:00:23Z</time>
      </trkpt>
      <trkpt lat="45.79471" lon="6.63625">
        <ele>1951</ele>
        <time>2022-07-24T11:00:24Z</time>
      </trkpt>
      <trkpt lat="45.79471" lon="6.63626">
        <ele>1951</ele>
        <time>2022-07-24T11:00:25Z</time>
      </trkpt>
      <trkpt lat="45.79472" lon="6.63628">
        <ele>1951</ele>
        <time>2022-07-24T11:00:26Z</time>
      </trkpt>
      <trkpt lat="45.79472" lon="6.6363">
        <ele>1951</ele>
        <time>2022-07-24T11:00:27Z</time>
      </trkpt>
      <trkpt lat="45.79473" lon="6.63632">
        <ele>1951</ele>
        <time>2022-07-24T11:00:28Z</time>
      </trkpt>
      <trkpt lat="45.79474" lon="6.63634">
        <ele>1951</ele>
        <time>2022-07-24T11:00:29Z</time>
      </trkpt>
      <trkpt lat="45.79474" lon="6.63635">
        <ele>1951</ele>
        <time>2022-07-24T11:00:30Z</time>
      </trkpt>
      <trkpt lat="45.79475" lon="6.63637">
        <ele>1951</ele>
        <time>2022-07-24T11:00:31Z</time>
      </trkpt>
      <trkpt lat="45.79475" lon="6.63639">
        <ele>1951</ele>
        <time>2022-07-24T11:00:32Z</time>
      </trkpt>
      <trkpt lat="45.79476" lon="6.63641">
        <ele>1951</ele>
        <time>2022-07-24T11:00:33Z</time>
      </trkpt>
      <trkpt lat="45.79477" lon="6.63643">
        <ele>1950</ele>
        <time>2022-07-24T11:00:34Z</time>
      </trkpt>
      <trkpt lat="45.79477" lon="6.63645">
        <ele>1950</ele>
        <time>2022-07-24T11:00:35Z</time>
      </trkpt>
      <trkpt lat="45.79478" lon="6.63646">
        <ele>1950</ele>
        <time>2022-07-24T11:00:36Z</time>
      </trkpt>
      <trkpt lat="45.79478" lon="6.63648">
        <ele>1950</ele>
        <time>2022-07-24T11:00:37Z</time>
      </trkpt>
      <trkpt lat="45.79479" lon="6.6365">
        <ele>1950</ele>
        <time>2022-07-24T11:00:38Z</time>
      </trkpt>
      <trkpt lat="45.7948" lon="6.63652">
        <ele>1950</ele>
        <time>2022-07-24T11:00:39Z</time>
      </trkpt>
      <trkpt lat="45.7948" lon="6.63653">
        <ele>1950</ele>
        <time>2022-07-24T11:00:40Z</time>
      </trkpt>
      <trkpt lat="45.79481" lon="6.63655">
        <ele>1950</ele>
        <time>2022-07-24T11:00:41Z</time>
      </trkpt>
      <trkpt lat="45.79482" lon="6.63656">
        <ele>1950</ele>
        <time>2022-07-24T11:00:42Z</time>
      </trkpt>
      <trkpt lat="45.79482" lon="6.63658">
        <ele>1950</ele>
        <time>2022-07-24T11:00:43Z</time>
      </trkpt>
      <trkpt lat="45.79483" lon="6.6366">
        <ele>1950</ele>
        <time>2022-07-24T11:00:44Z</time>
      </trkpt>
      <trkpt lat="45.79484" lon="6.63661">
        <ele>1950</ele>
        <time>2022-07-24T11:00:45Z</time>
      </trkpt>
      <trkpt lat="45.79484" lon="6.63663">
        <ele>1950</ele>
        <time>2022-07-24T11:00:46Z</time>
      </trkpt>
      <trkpt lat="45.79485" lon="6.63665">
        <ele>1950</ele>
        <time>2022-07-24T11:00:47Z</time>
      </trkpt>
      <trkpt lat="45.79486" lon="6.63666">
        <ele>1950</ele>
        <time>2022-07-24T11:00:48Z</time>
      </trkpt>
      <trkpt lat="45.79486" lon="6.63668">
        <ele>1950</ele>
        <time>2022-07-24T11:00:49Z</time>
      </trkpt>
      <trkpt lat="45.79487" lon="6.63669">
        <ele>1950</ele>
        <time>2022-07-24T11:00:50Z</time>
      </trkpt>
      <trkpt lat="45.79488" lon="6.63671">
        <ele>1950</ele>
        <time>2022-07-24T11:00:51Z</time>
      </trkpt>
      <trkpt lat="45.79488" lon="6.63673">
        <ele>1950</ele>
        <time>2022-07-24T11:00:52Z</time>
      </trkpt>
      <trkpt lat="45.79489" lon="6.63674">
        <ele>1950</ele>
        <time>2022-07-24T11:00:53Z</time>
      </trkpt>
      <trkpt lat="45.79489" lon="6.63675">
        <ele>1950</ele>
        <time>2022-07-24T11:00:54Z</time>
      </trkpt>
      <trkpt lat="45.7949" lon="6.63677">
        <ele>1950</ele>
        <time>2022-07-24T11:00:55Z</time>
      </trkpt>
      <trkpt lat="45.7949" lon="6.63678">
        <ele>1950</ele>
        <time>2022-07-24T11:00:56Z</time>
      </trkpt>
      <trkpt lat="45.79491" lon="6.6368">
        <ele>1950</ele>
        <time>2022-07-24T11:00:57Z</time>
      </trkpt>
      <trkpt lat="45.79491" lon="6.63681">
        <ele>1950</ele>
        <time>2022-07-24T11:00:58Z</time>
      </trkpt>
      <trkpt lat="45.79492" lon="6.63683">
        <ele>1950</ele>
        <time>2022-07-24T11:00:59Z</time>
      </trkpt>
      <trkpt lat="45.79492" lon="6.63685">
        <ele>1950</ele>
        <time>2022-07-24T11:01:00Z</time>
      </trkpt>
      <trkpt lat="45.79493" lon="6.63686">
        <ele>1950</ele>
        <time>2022-07-24T11:01:01Z</time>
      </trkpt>
      <trkpt lat="45.79493" lon="6.63688">
        <ele>1950</ele>
        <time>2022-07-24T11:01:02Z</time>
      </trkpt>
      <trkpt lat="45.79494" lon="6.6369">
        <ele>1950</ele>
        <time>2022-07-24T11:01:03Z</time>
      </trkpt>
      <trkpt lat="45.79495" lon="6.63691">
        <ele>1950</ele>
        <time>2022-07-24T11:01:04Z</time>
      </trkpt>
      <trkpt lat="45.79496" lon="6.63693">
        <ele>1950</ele>
        <time>2022-07-24T11:01:05Z</time>
      </trkpt>
      <trkpt lat="45.79496" lon="6.63694">
        <ele>1950</ele>
        <time>2022-07-24T11:01:06Z</time>
      </trkpt>
      <trkpt lat="45.79497" lon="6.63696">
        <ele>1950</ele>
        <time>2022-07-24T11:01:07Z</time>
      </trkpt>
      <trkpt lat="45.79498" lon="6.63697">
        <ele>1950</ele>
        <time>2022-07-24T11:01:08Z</time>
      </trkpt>
      <trkpt lat="45.79498" lon="6.63699">
        <ele>1950</ele>
        <time>2022-07-24T11:01:09Z</time>
      </trkpt>
      <trkpt lat="45.79499" lon="6.637">
        <ele>1949</ele>
        <time>2022-07-24T11:01:54Z</time>
      </trkpt>
      <trkpt lat="45.795" lon="6.63701">
        <ele>1949</ele>
        <time>2022-07-24T11:01:55Z</time>
      </trkpt>
      <trkpt lat="45.795" lon="6.63702">
        <ele>1949</ele>
        <time>2022-07-24T11:01:56Z</time>
      </trkpt>
      <trkpt lat="45.79501" lon="6.63703">
        <ele>1949</ele>
        <time>2022-07-24T11:02:09Z</time>
      </trkpt>
      <trkpt lat="45.79502" lon="6.63704">
        <ele>1949</ele>
        <time>2022-07-24T11:02:10Z</time>
      </trkpt>
      <trkpt lat="45.79502" lon="6.63705">
        <ele>1949</ele>
        <time>2022-07-24T11:02:11Z</time>
      </trkpt>
      <trkpt lat="45.79503" lon="6.63706">
        <ele>1949</ele>
        <time>2022-07-24T11:02:12Z</time>
      </trkpt>
      <trkpt lat="45.79503" lon="6.63707">
        <ele>1949</ele>
        <time>2022-07-24T11:02:13Z</time>
      </trkpt>
      <trkpt lat="45.79504" lon="6.63708">
        <ele>1949</ele>
        <time>2022-07-24T11:02:14Z</time>
      </trkpt>
      <trkpt lat="45.79504" lon="6.63709">
        <ele>1949</ele>
        <time>2022-07-24T11:02:15Z</time>
      </trkpt>
      <trkpt lat="45.79505" lon="6.6371">
        <ele>1949</ele>
        <time>2022-07-24T11:02:16Z</time>
      </trkpt>
      <trkpt lat="45.79505" lon="6.63712">
        <ele>1949</ele>
        <time>2022-07-24T11:02:17Z</time>
      </trkpt>
      <trkpt lat="45.79506" lon="6.63713">
        <ele>1949</ele>
        <time>2022-07-24T11:02:18Z</time>
      </trkpt>
      <trkpt lat="45.79507" lon="6.63714">
        <ele>1949</ele>
        <time>2022-07-24T11:02:19Z</time>
      </trkpt>
      <trkpt lat="45.79507" lon="6.63715">
        <ele>1949</ele>
        <time>2022-07-24T11:02:20Z</time>
      </trkpt>
      <trkpt lat="45.79508" lon="6.63716">
        <ele>1949</ele>
        <time>2022-07-24T11:02:21Z</time>
      </trkpt>
      <trkpt lat="45.79508" lon="6.63717">
        <ele>1949</ele>
        <time>2022-07-24T11:02:22Z</time>
      </trkpt>
      <trkpt lat="45.79508" lon="6.63719">
        <ele>1950</ele>
        <time>2022-07-24T11:02:23Z</time>
      </trkpt>
      <trkpt lat="45.79508" lon="6.6372">
        <ele>1950</ele>
        <time>2022-07-24T11:02:24Z</time>
      </trkpt>
      <trkpt lat="45.79508" lon="6.63721">
        <ele>1950</ele>
        <time>2022-07-24T11:02:25Z</time>
      </trkpt>
      <trkpt lat="45.79508" lon="6.63723">
        <ele>1950</ele>
        <time>2022-07-24T11:02:26Z</time>
      </trkpt>
      <trkpt lat="45.79507" lon="6.63724">
        <ele>1950</ele>
        <time>2022-07-24T11:02:27Z</time>
      </trkpt>
      <trkpt lat="45.79507" lon="6.63726">
        <ele>1950</ele>
        <time>2022-07-24T11:02:53Z</time>
      </trkpt>
      <trkpt lat="45.79507" lon="6.63726">
        <ele>1950</ele>
        <time>2022-07-24T11:02:54Z</time>
      </trkpt>
      <trkpt lat="45.79507" lon="6.63727">
        <ele>1950</ele>
        <time>2022-07-24T11:02:55Z</time>
      </trkpt>
      <trkpt lat="45.79507" lon="6.63728">
        <ele>1950</ele>
        <time>2022-07-24T11:02:56Z</time>
      </trkpt>
      <trkpt lat="45.79507" lon="6.63729">
        <ele>1950</ele>
        <time>2022-07-24T11:02:57Z</time>
      </trkpt>
      <trkpt lat="45.79507" lon="6.6373">
        <ele>1950</ele>
        <time>2022-07-24T11:02:58Z</time>
      </trkpt>
      <trkpt lat="45.79507" lon="6.63732">
        <ele>1950</ele>
        <time>2022-07-24T11:02:59Z</time>
      </trkpt>
      <trkpt lat="45.79507" lon="6.63734">
        <ele>1950</ele>
        <time>2022-07-24T11:03:00Z</time>
      </trkpt>
      <trkpt lat="45.79507" lon="6.63736">
        <ele>1950</ele>
        <time>2022-07-24T11:03:01Z</time>
      </trkpt>
      <trkpt lat="45.79508" lon="6.63737">
        <ele>1950</ele>
        <time>2022-07-24T11:03:02Z</time>
      </trkpt>
      <trkpt lat="45.79508" lon="6.63739">
        <ele>1950</ele>
        <time>2022-07-24T11:03:03Z</time>
      </trkpt>
      <trkpt lat="45.79509" lon="6.63741">
        <ele>1949</ele>
        <time>2022-07-24T11:03:04Z</time>
      </trkpt>
      <trkpt lat="45.79509" lon="6.63743">
        <ele>1949</ele>
        <time>2022-07-24T11:03:05Z</time>
      </trkpt>
      <trkpt lat="45.7951" lon="6.63744">
        <ele>1949</ele>
        <time>2022-07-24T11:03:06Z</time>
      </trkpt>
      <trkpt lat="45.7951" lon="6.63746">
        <ele>1949</ele>
        <time>2022-07-24T11:03:07Z</time>
      </trkpt>
      <trkpt lat="45.79511" lon="6.63747">
        <ele>1949</ele>
        <time>2022-07-24T11:03:08Z</time>
      </trkpt>
      <trkpt lat="45.79512" lon="6.63748">
        <ele>1949</ele>
        <time>2022-07-24T11:03:09Z</time>
      </trkpt>
      <trkpt lat="45.79512" lon="6.63749">
        <ele>1949</ele>
        <time>2022-07-24T11:03:10Z</time>
      </trkpt>
      <trkpt lat="45.79513" lon="6.63751">
        <ele>1949</ele>
        <time>2022-07-24T11:03:11Z</time>
      </trkpt>
      <trkpt lat="45.79513" lon="6.63752">
        <ele>1949</ele>
        <time>2022-07-24T11:03:12Z</time>
      </trkpt>
      <trkpt lat="45.79514" lon="6.63753">
        <ele>1949</ele>
        <time>2022-07-24T11:03:13Z</time>
      </trkpt>
      <trkpt lat="45.79514" lon="6.63755">
        <ele>1949</ele>
        <time>2022-07-24T11:03:14Z</time>
      </trkpt>
      <trkpt lat="45.79514" lon="6.63756">
        <ele>1949</ele>
        <time>2022-07-24T11:03:15Z</time>
      </trkpt>
      <trkpt lat="45.79514" lon="6.63758">
        <ele>1949</ele>
        <time>2022-07-24T11:03:16Z</time>
      </trkpt>
      <trkpt lat="45.79514" lon="6.6376">
        <ele>1949</ele>
        <time>2022-07-24T11:03:17Z</time>
      </trkpt>
      <trkpt lat="45.79515" lon="6.63761">
        <ele>1949</ele>
        <time>2022-07-24T11:03:18Z</time>
      </trkpt>
      <trkpt lat="45.79515" lon="6.63763">
        <ele>1949</ele>
        <time>2022-07-24T11:03:19Z</time>
      </trkpt>
      <trkpt lat="45.79516" lon="6.63765">
        <ele>1949</ele>
        <time>2022-07-24T11:03:20Z</time>
      </trkpt>
      <trkpt lat="45.79516" lon="6.63766">
        <ele>1949</ele>
        <time>2022-07-24T11:03:21Z</time>
      </trkpt>
      <trkpt lat="45.79517" lon="6.63768">
        <ele>1949</ele>
        <time>2022-07-24T11:03:22Z</time>
      </trkpt>
      <trkpt lat="45.79517" lon="6.63769">
        <ele>1949</ele>
        <time>2022-07-24T11:03:23Z</time>
      </trkpt>
      <trkpt lat="45.79518" lon="6.6377">
        <ele>1949</ele>
        <time>2022-07-24T11:03:24Z</time>
      </trkpt>
      <trkpt lat="45.79518" lon="6.63772">
        <ele>1949</ele>
        <time>2022-07-24T11:03:25Z</time>
      </trkpt>
      <trkpt lat="45.79518" lon="6.63772">
        <ele>1949</ele>
        <time>2022-07-24T11:03:26Z</time>
      </trkpt>
      <trkpt lat="45.79519" lon="6.63773">
        <ele>1949</ele>
        <time>2022-07-24T11:03:27Z</time>
      </trkpt>
      <trkpt lat="45.79519" lon="6.63774">
        <ele>1949</ele>
        <time>2022-07-24T11:03:28Z</time>
      </trkpt>
      <trkpt lat="45.79519" lon="6.63775">
        <ele>1949</ele>
        <time>2022-07-24T11:03:29Z</time>
      </trkpt>
      <trkpt lat="45.79519" lon="6.63777">
        <ele>1949</ele>
        <time>2022-07-24T11:03:30Z</time>
      </trkpt>
      <trkpt lat="45.79519" lon="6.63778">
        <ele>1949</ele>
        <time>2022-07-24T11:03:31Z</time>
      </trkpt>
      <trkpt lat="45.79519" lon="6.6378">
        <ele>1949</ele>
        <time>2022-07-24T11:03:32Z</time>
      </trkpt>
      <trkpt lat="45.79519" lon="6.63781">
        <ele>1949</ele>
        <time>2022-07-24T11:03:33Z</time>
      </trkpt>
      <trkpt lat="45.79519" lon="6.63783">
        <ele>1949</ele>
        <time>2022-07-24T11:03:34Z</time>
      </trkpt>
      <trkpt lat="45.79519" lon="6.63785">
        <ele>1949</ele>
        <time>2022-07-24T11:03:35Z</time>
      </trkpt>
      <trkpt lat="45.79519" lon="6.63787">
        <ele>1949</ele>
        <time>2022-07-24T11:03:36Z</time>
      </trkpt>
      <trkpt lat="45.79518" lon="6.63789">
        <ele>1949</ele>
        <time>2022-07-24T11:03:37Z</time>
      </trkpt>
      <trkpt lat="45.79518" lon="6.63791">
        <ele>1949</ele>
        <time>2022-07-24T11:03:38Z</time>
      </trkpt>
      <trkpt lat="45.79518" lon="6.63792">
        <ele>1949</ele>
        <time>2022-07-24T11:03:39Z</time>
      </trkpt>
      <trkpt lat="45.79517" lon="6.63794">
        <ele>1949</ele>
        <time>2022-07-24T11:03:40Z</time>
      </trkpt>
      <trkpt lat="45.79517" lon="6.63796">
        <ele>1949</ele>
        <time>2022-07-24T11:03:41Z</time>
      </trkpt>
      <trkpt lat="45.79517" lon="6.63798">
        <ele>1949</ele>
        <time>2022-07-24T11:03:42Z</time>
      </trkpt>
      <trkpt lat="45.79517" lon="6.638">
        <ele>1949</ele>
        <time>2022-07-24T11:03:43Z</time>
      </trkpt>
      <trkpt lat="45.79516" lon="6.63802">
        <ele>1949</ele>
        <time>2022-07-24T11:03:44Z</time>
      </trkpt>
      <trkpt lat="45.79516" lon="6.63803">
        <ele>1949</ele>
        <time>2022-07-24T11:03:45Z</time>
      </trkpt>
      <trkpt lat="45.79515" lon="6.63805">
        <ele>1949</ele>
        <time>2022-07-24T11:03:46Z</time>
      </trkpt>
      <trkpt lat="45.79515" lon="6.63807">
        <ele>1949</ele>
        <time>2022-07-24T11:03:47Z</time>
      </trkpt>
      <trkpt lat="45.79514" lon="6.63809">
        <ele>1950</ele>
        <time>2022-07-24T11:03:48Z</time>
      </trkpt>
      <trkpt lat="45.79514" lon="6.63811">
        <ele>1950</ele>
        <time>2022-07-24T11:03:49Z</time>
      </trkpt>
      <trkpt lat="45.79513" lon="6.63812">
        <ele>1950</ele>
        <time>2022-07-24T11:03:50Z</time>
      </trkpt>
      <trkpt lat="45.79513" lon="6.63814">
        <ele>1950</ele>
        <time>2022-07-24T11:03:51Z</time>
      </trkpt>
      <trkpt lat="45.79512" lon="6.63815">
        <ele>1950</ele>
        <time>2022-07-24T11:03:52Z</time>
      </trkpt>
      <trkpt lat="45.79511" lon="6.63817">
        <ele>1950</ele>
        <time>2022-07-24T11:03:53Z</time>
      </trkpt>
      <trkpt lat="45.79511" lon="6.63818">
        <ele>1950</ele>
        <time>2022-07-24T11:03:54Z</time>
      </trkpt>
      <trkpt lat="45.7951" lon="6.63819">
        <ele>1950</ele>
        <time>2022-07-24T11:03:55Z</time>
      </trkpt>
      <trkpt lat="45.79509" lon="6.63821">
        <ele>1950</ele>
        <time>2022-07-24T11:03:56Z</time>
      </trkpt>
      <trkpt lat="45.79509" lon="6.63822">
        <ele>1950</ele>
        <time>2022-07-24T11:03:57Z</time>
      </trkpt>
      <trkpt lat="45.79508" lon="6.63823">
        <ele>1950</ele>
        <time>2022-07-24T11:03:58Z</time>
      </trkpt>
      <trkpt lat="45.79508" lon="6.63825">
        <ele>1950</ele>
        <time>2022-07-24T11:03:59Z</time>
      </trkpt>
      <trkpt lat="45.79507" lon="6.63827">
        <ele>1950</ele>
        <time>2022-07-24T11:04:00Z</time>
      </trkpt>
      <trkpt lat="45.79507" lon="6.63828">
        <ele>1950</ele>
        <time>2022-07-24T11:04:01Z</time>
      </trkpt>
      <trkpt lat="45.79506" lon="6.6383">
        <ele>1950</ele>
        <time>2022-07-24T11:04:02Z</time>
      </trkpt>
      <trkpt lat="45.79505" lon="6.63831">
        <ele>1950</ele>
        <time>2022-07-24T11:04:03Z</time>
      </trkpt>
      <trkpt lat="45.79505" lon="6.63833">
        <ele>1950</ele>
        <time>2022-07-24T11:04:04Z</time>
      </trkpt>
      <trkpt lat="45.79504" lon="6.63834">
        <ele>1950</ele>
        <time>2022-07-24T11:04:05Z</time>
      </trkpt>
      <trkpt lat="45.79503" lon="6.63836">
        <ele>1950</ele>
        <time>2022-07-24T11:04:06Z</time>
      </trkpt>
      <trkpt lat="45.79503" lon="6.63837">
        <ele>1950</ele>
        <time>2022-07-24T11:04:07Z</time>
      </trkpt>
      <trkpt lat="45.79502" lon="6.63838">
        <ele>1950</ele>
        <time>2022-07-24T11:04:08Z</time>
      </trkpt>
      <trkpt lat="45.79502" lon="6.6384">
        <ele>1950</ele>
        <time>2022-07-24T11:04:09Z</time>
      </trkpt>
      <trkpt lat="45.79501" lon="6.63841">
        <ele>1950</ele>
        <time>2022-07-24T11:04:10Z</time>
      </trkpt>
      <trkpt lat="45.79501" lon="6.63842">
        <ele>1950</ele>
        <time>2022-07-24T11:04:11Z</time>
      </trkpt>
      <trkpt lat="45.795" lon="6.63844">
        <ele>1950</ele>
        <time>2022-07-24T11:04:12Z</time>
      </trkpt>
      <trkpt lat="45.795" lon="6.63845">
        <ele>1951</ele>
        <time>2022-07-24T11:04:13Z</time>
      </trkpt>
      <trkpt lat="45.795" lon="6.63847">
        <ele>1951</ele>
        <time>2022-07-24T11:04:14Z</time>
      </trkpt>
      <trkpt lat="45.79499" lon="6.63849">
        <ele>1951</ele>
        <time>2022-07-24T11:04:15Z</time>
      </trkpt>
      <trkpt lat="45.79499" lon="6.63852">
        <ele>1950</ele>
        <time>2022-07-24T11:04:32Z</time>
      </trkpt>
      <trkpt lat="45.79499" lon="6.63853">
        <ele>1950</ele>
        <time>2022-07-24T11:04:33Z</time>
      </trkpt>
      <trkpt lat="45.79499" lon="6.63854">
        <ele>1950</ele>
        <time>2022-07-24T11:04:34Z</time>
      </trkpt>
      <trkpt lat="45.79499" lon="6.63855">
        <ele>1950</ele>
        <time>2022-07-24T11:04:35Z</time>
      </trkpt>
      <trkpt lat="45.79499" lon="6.63855">
        <ele>1950</ele>
        <time>2022-07-24T11:04:36Z</time>
      </trkpt>
      <trkpt lat="45.79499" lon="6.63856">
        <ele>1950</ele>
        <time>2022-07-24T11:04:37Z</time>
      </trkpt>
      <trkpt lat="45.79499" lon="6.63856">
        <ele>1950</ele>
        <time>2022-07-24T11:04:38Z</time>
      </trkpt>
      <trkpt lat="45.79499" lon="6.63857">
        <ele>1950</ele>
        <time>2022-07-24T11:04:39Z</time>
      </trkpt>
      <trkpt lat="45.79499" lon="6.63857">
        <ele>1950</ele>
        <time>2022-07-24T11:04:40Z</time>
      </trkpt>
      <trkpt lat="45.79499" lon="6.63857">
        <ele>1950</ele>
        <time>2022-07-24T11:04:41Z</time>
      </trkpt>
      <trkpt lat="45.795" lon="6.63858">
        <ele>1950</ele>
        <time>2022-07-24T11:04:42Z</time>
      </trkpt>
      <trkpt lat="45.795" lon="6.63859">
        <ele>1950</ele>
        <time>2022-07-24T11:04:43Z</time>
      </trkpt>
      <trkpt lat="45.795" lon="6.6386">
        <ele>1949</ele>
        <time>2022-07-24T11:04:44Z</time>
      </trkpt>
      <trkpt lat="45.79501" lon="6.63861">
        <ele>1949</ele>
        <time>2022-07-24T11:04:45Z</time>
      </trkpt>
      <trkpt lat="45.79501" lon="6.63862">
        <ele>1949</ele>
        <time>2022-07-24T11:04:46Z</time>
      </trkpt>
      <trkpt lat="45.79501" lon="6.63863">
        <ele>1949</ele>
        <time>2022-07-24T11:04:47Z</time>
      </trkpt>
      <trkpt lat="45.79501" lon="6.63865">
        <ele>1949</ele>
        <time>2022-07-24T11:04:48Z</time>
      </trkpt>
      <trkpt lat="45.79502" lon="6.63867">
        <ele>1949</ele>
        <time>2022-07-24T11:04:49Z</time>
      </trkpt>
      <trkpt lat="45.79502" lon="6.63869">
        <ele>1949</ele>
        <time>2022-07-24T11:04:50Z</time>
      </trkpt>
      <trkpt lat="45.79502" lon="6.63871">
        <ele>1949</ele>
        <time>2022-07-24T11:04:51Z</time>
      </trkpt>
      <trkpt lat="45.79501" lon="6.63872">
        <ele>1949</ele>
        <time>2022-07-24T11:04:52Z</time>
      </trkpt>
      <trkpt lat="45.79501" lon="6.63874">
        <ele>1949</ele>
        <time>2022-07-24T11:04:53Z</time>
      </trkpt>
      <trkpt lat="45.79501" lon="6.63876">
        <ele>1948</ele>
        <time>2022-07-24T11:04:54Z</time>
      </trkpt>
      <trkpt lat="45.79501" lon="6.63878">
        <ele>1948</ele>
        <time>2022-07-24T11:04:55Z</time>
      </trkpt>
      <trkpt lat="45.795" lon="6.6388">
        <ele>1948</ele>
        <time>2022-07-24T11:04:56Z</time>
      </trkpt>
      <trkpt lat="45.795" lon="6.63882">
        <ele>1948</ele>
        <time>2022-07-24T11:04:57Z</time>
      </trkpt>
      <trkpt lat="45.795" lon="6.63884">
        <ele>1948</ele>
        <time>2022-07-24T11:04:58Z</time>
      </trkpt>
      <trkpt lat="45.795" lon="6.63885">
        <ele>1948</ele>
        <time>2022-07-24T11:04:59Z</time>
      </trkpt>
      <trkpt lat="45.795" lon="6.63887">
        <ele>1948</ele>
        <time>2022-07-24T11:05:00Z</time>
      </trkpt>
      <trkpt lat="45.79501" lon="6.63889">
        <ele>1948</ele>
        <time>2022-07-24T11:05:01Z</time>
      </trkpt>
      <trkpt lat="45.79501" lon="6.63891">
        <ele>1948</ele>
        <time>2022-07-24T11:05:02Z</time>
      </trkpt>
      <trkpt lat="45.79501" lon="6.63893">
        <ele>1948</ele>
        <time>2022-07-24T11:05:03Z</time>
      </trkpt>
      <trkpt lat="45.79502" lon="6.63895">
        <ele>1948</ele>
        <time>2022-07-24T11:05:04Z</time>
      </trkpt>
      <trkpt lat="45.79502" lon="6.63896">
        <ele>1948</ele>
        <time>2022-07-24T11:05:05Z</time>
      </trkpt>
      <trkpt lat="45.79503" lon="6.63898">
        <ele>1948</ele>
        <time>2022-07-24T11:05:06Z</time>
      </trkpt>
      <trkpt lat="45.79504" lon="6.63899">
        <ele>1948</ele>
        <time>2022-07-24T11:05:07Z</time>
      </trkpt>
      <trkpt lat="45.79504" lon="6.63901">
        <ele>1948</ele>
        <time>2022-07-24T11:05:08Z</time>
      </trkpt>
      <trkpt lat="45.79505" lon="6.63903">
        <ele>1948</ele>
        <time>2022-07-24T11:05:09Z</time>
      </trkpt>
      <trkpt lat="45.79505" lon="6.63904">
        <ele>1948</ele>
        <time>2022-07-24T11:05:10Z</time>
      </trkpt>
      <trkpt lat="45.79506" lon="6.63906">
        <ele>1948</ele>
        <time>2022-07-24T11:05:11Z</time>
      </trkpt>
      <trkpt lat="45.79506" lon="6.63908">
        <ele>1948</ele>
        <time>2022-07-24T11:05:12Z</time>
      </trkpt>
      <trkpt lat="45.79506" lon="6.6391">
        <ele>1948</ele>
        <time>2022-07-24T11:05:13Z</time>
      </trkpt>
      <trkpt lat="45.79507" lon="6.63912">
        <ele>1948</ele>
        <time>2022-07-24T11:05:14Z</time>
      </trkpt>
      <trkpt lat="45.79507" lon="6.63914">
        <ele>1948</ele>
        <time>2022-07-24T11:05:15Z</time>
      </trkpt>
      <trkpt lat="45.79507" lon="6.63916">
        <ele>1948</ele>
        <time>2022-07-24T11:05:16Z</time>
      </trkpt>
      <trkpt lat="45.79507" lon="6.63918">
        <ele>1948</ele>
        <time>2022-07-24T11:05:17Z</time>
      </trkpt>
      <trkpt lat="45.79507" lon="6.6392">
        <ele>1948</ele>
        <time>2022-07-24T11:05:18Z</time>
      </trkpt>
      <trkpt lat="45.79507" lon="6.63921">
        <ele>1948</ele>
        <time>2022-07-24T11:05:19Z</time>
      </trkpt>
      <trkpt lat="45.79507" lon="6.63923">
        <ele>1948</ele>
        <time>2022-07-24T11:05:20Z</time>
      </trkpt>
      <trkpt lat="45.79506" lon="6.63925">
        <ele>1948</ele>
        <time>2022-07-24T11:05:21Z</time>
      </trkpt>
      <trkpt lat="45.79506" lon="6.63927">
        <ele>1948</ele>
        <time>2022-07-24T11:05:22Z</time>
      </trkpt>
      <trkpt lat="45.79505" lon="6.63928">
        <ele>1948</ele>
        <time>2022-07-24T11:05:23Z</time>
      </trkpt>
      <trkpt lat="45.79505" lon="6.6393">
        <ele>1948</ele>
        <time>2022-07-24T11:05:24Z</time>
      </trkpt>
      <trkpt lat="45.79504" lon="6.63932">
        <ele>1948</ele>
        <time>2022-07-24T11:05:25Z</time>
      </trkpt>
      <trkpt lat="45.79504" lon="6.63933">
        <ele>1948</ele>
        <time>2022-07-24T11:05:26Z</time>
      </trkpt>
      <trkpt lat="45.79503" lon="6.63935">
        <ele>1948</ele>
        <time>2022-07-24T11:05:27Z</time>
      </trkpt>
      <trkpt lat="45.79503" lon="6.63937">
        <ele>1948</ele>
        <time>2022-07-24T11:05:28Z</time>
      </trkpt>
      <trkpt lat="45.79502" lon="6.63939">
        <ele>1948</ele>
        <time>2022-07-24T11:05:29Z</time>
      </trkpt>
      <trkpt lat="45.79502" lon="6.63941">
        <ele>1948</ele>
        <time>2022-07-24T11:05:30Z</time>
      </trkpt>
      <trkpt lat="45.79502" lon="6.63942">
        <ele>1948</ele>
        <time>2022-07-24T11:05:31Z</time>
      </trkpt>
      <trkpt lat="45.79502" lon="6.63944">
        <ele>1948</ele>
        <time>2022-07-24T11:05:32Z</time>
      </trkpt>
      <trkpt lat="45.79502" lon="6.63946">
        <ele>1948</ele>
        <time>2022-07-24T11:05:33Z</time>
      </trkpt>
      <trkpt lat="45.79502" lon="6.63948">
        <ele>1947</ele>
        <time>2022-07-24T11:05:34Z</time>
      </trkpt>
      <trkpt lat="45.79502" lon="6.6395">
        <ele>1947</ele>
        <time>2022-07-24T11:05:35Z</time>
      </trkpt>
      <trkpt lat="45.79502" lon="6.63952">
        <ele>1947</ele>
        <time>2022-07-24T11:05:36Z</time>
      </trkpt>
      <trkpt lat="45.79503" lon="6.63954">
        <ele>1947</ele>
        <time>2022-07-24T11:05:37Z</time>
      </trkpt>
      <trkpt lat="45.79503" lon="6.63955">
        <ele>1947</ele>
        <time>2022-07-24T11:05:43Z</time>
      </trkpt>
      <trkpt lat="45.79503" lon="6.63956">
        <ele>1947</ele>
        <time>2022-07-24T11:05:44Z</time>
      </trkpt>
      <trkpt lat="45.79503" lon="6.63956">
        <ele>1947</ele>
        <time>2022-07-24T11:05:45Z</time>
      </trkpt>
      <trkpt lat="45.79503" lon="6.63957">
        <ele>1947</ele>
        <time>2022-07-24T11:05:46Z</time>
      </trkpt>
      <trkpt lat="45.79504" lon="6.63958">
        <ele>1947</ele>
        <time>2022-07-24T11:05:47Z</time>
      </trkpt>
      <trkpt lat="45.79504" lon="6.63959">
        <ele>1947</ele>
        <time>2022-07-24T11:05:48Z</time>
      </trkpt>
      <trkpt lat="45.79505" lon="6.6396">
        <ele>1947</ele>
        <time>2022-07-24T11:05:49Z</time>
      </trkpt>
      <trkpt lat="45.79505" lon="6.63962">
        <ele>1947</ele>
        <time>2022-07-24T11:05:50Z</time>
      </trkpt>
      <trkpt lat="45.79505" lon="6.63963">
        <ele>1947</ele>
        <time>2022-07-24T11:05:51Z</time>
      </trkpt>
      <trkpt lat="45.79506" lon="6.63965">
        <ele>1947</ele>
        <time>2022-07-24T11:05:52Z</time>
      </trkpt>
      <trkpt lat="45.79507" lon="6.63967">
        <ele>1947</ele>
        <time>2022-07-24T11:05:53Z</time>
      </trkpt>
      <trkpt lat="45.79507" lon="6.63969">
        <ele>1946</ele>
        <time>2022-07-24T11:05:54Z</time>
      </trkpt>
      <trkpt lat="45.79508" lon="6.6397">
        <ele>1946</ele>
        <time>2022-07-24T11:05:55Z</time>
      </trkpt>
      <trkpt lat="45.79508" lon="6.63972">
        <ele>1946</ele>
        <time>2022-07-24T11:05:56Z</time>
      </trkpt>
      <trkpt lat="45.79508" lon="6.63974">
        <ele>1946</ele>
        <time>2022-07-24T11:05:57Z</time>
      </trkpt>
      <trkpt lat="45.79509" lon="6.63976">
        <ele>1946</ele>
        <time>2022-07-24T11:05:58Z</time>
      </trkpt>
      <trkpt lat="45.79509" lon="6.63977">
        <ele>1946</ele>
        <time>2022-07-24T11:05:59Z</time>
      </trkpt>
      <trkpt lat="45.79509" lon="6.63979">
        <ele>1946</ele>
        <time>2022-07-24T11:06:00Z</time>
      </trkpt>
      <trkpt lat="45.79509" lon="6.6398">
        <ele>1946</ele>
        <time>2022-07-24T11:06:01Z</time>
      </trkpt>
      <trkpt lat="45.79509" lon="6.63982">
        <ele>1946</ele>
        <time>2022-07-24T11:06:02Z</time>
      </trkpt>
      <trkpt lat="45.79509" lon="6.63983">
        <ele>1946</ele>
        <time>2022-07-24T11:06:03Z</time>
      </trkpt>
      <trkpt lat="45.79509" lon="6.63985">
        <ele>1946</ele>
        <time>2022-07-24T11:06:04Z</time>
      </trkpt>
      <trkpt lat="45.79509" lon="6.63986">
        <ele>1946</ele>
        <time>2022-07-24T11:06:05Z</time>
      </trkpt>
      <trkpt lat="45.79509" lon="6.63987">
        <ele>1946</ele>
        <time>2022-07-24T11:06:20Z</time>
      </trkpt>
      <trkpt lat="45.79509" lon="6.63988">
        <ele>1946</ele>
        <time>2022-07-24T11:06:21Z</time>
      </trkpt>
      <trkpt lat="45.79509" lon="6.63989">
        <ele>1946</ele>
        <time>2022-07-24T11:06:22Z</time>
      </trkpt>
      <trkpt lat="45.79509" lon="6.6399">
        <ele>1946</ele>
        <time>2022-07-24T11:06:23Z</time>
      </trkpt>
      <trkpt lat="45.7951" lon="6.63991">
        <ele>1946</ele>
        <time>2022-07-24T11:06:24Z</time>
      </trkpt>
      <trkpt lat="45.7951" lon="6.63992">
        <ele>1946</ele>
        <time>2022-07-24T11:06:25Z</time>
      </trkpt>
      <trkpt lat="45.79511" lon="6.63994">
        <ele>1946</ele>
        <time>2022-07-24T11:06:26Z</time>
      </trkpt>
      <trkpt lat="45.79511" lon="6.63996">
        <ele>1946</ele>
        <time>2022-07-24T11:06:27Z</time>
      </trkpt>
      <trkpt lat="45.79512" lon="6.63998">
        <ele>1946</ele>
        <time>2022-07-24T11:06:28Z</time>
      </trkpt>
      <trkpt lat="45.79512" lon="6.64">
        <ele>1946</ele>
        <time>2022-07-24T11:06:29Z</time>
      </trkpt>
      <trkpt lat="45.79513" lon="6.64001">
        <ele>1946</ele>
        <time>2022-07-24T11:06:30Z</time>
      </trkpt>
      <trkpt lat="45.79513" lon="6.64003">
        <ele>1946</ele>
        <time>2022-07-24T11:06:31Z</time>
      </trkpt>
      <trkpt lat="45.79513" lon="6.64005">
        <ele>1946</ele>
        <time>2022-07-24T11:06:32Z</time>
      </trkpt>
      <trkpt lat="45.79513" lon="6.64006">
        <ele>1946</ele>
        <time>2022-07-24T11:06:33Z</time>
      </trkpt>
      <trkpt lat="45.79514" lon="6.64008">
        <ele>1945</ele>
        <time>2022-07-24T11:06:34Z</time>
      </trkpt>
      <trkpt lat="45.79514" lon="6.64009">
        <ele>1945</ele>
        <time>2022-07-24T11:06:35Z</time>
      </trkpt>
      <trkpt lat="45.79515" lon="6.64011">
        <ele>1945</ele>
        <time>2022-07-24T11:06:36Z</time>
      </trkpt>
      <trkpt lat="45.79515" lon="6.64012">
        <ele>1945</ele>
        <time>2022-07-24T11:06:37Z</time>
      </trkpt>
      <trkpt lat="45.79516" lon="6.64013">
        <ele>1945</ele>
        <time>2022-07-24T11:06:38Z</time>
      </trkpt>
      <trkpt lat="45.79516" lon="6.64014">
        <ele>1945</ele>
        <time>2022-07-24T11:06:39Z</time>
      </trkpt>
      <trkpt lat="45.79517" lon="6.64014">
        <ele>1945</ele>
        <time>2022-07-24T11:06:40Z</time>
      </trkpt>
      <trkpt lat="45.79517" lon="6.64016">
        <ele>1945</ele>
        <time>2022-07-24T11:06:41Z</time>
      </trkpt>
      <trkpt lat="45.79517" lon="6.64017">
        <ele>1945</ele>
        <time>2022-07-24T11:06:42Z</time>
      </trkpt>
      <trkpt lat="45.79517" lon="6.64018">
        <ele>1945</ele>
        <time>2022-07-24T11:06:43Z</time>
      </trkpt>
      <trkpt lat="45.79517" lon="6.64019">
        <ele>1945</ele>
        <time>2022-07-24T11:06:44Z</time>
      </trkpt>
      <trkpt lat="45.79517" lon="6.6402">
        <ele>1945</ele>
        <time>2022-07-24T11:06:45Z</time>
      </trkpt>
      <trkpt lat="45.79516" lon="6.64021">
        <ele>1945</ele>
        <time>2022-07-24T11:06:46Z</time>
      </trkpt>
      <trkpt lat="45.79516" lon="6.64022">
        <ele>1945</ele>
        <time>2022-07-24T11:06:47Z</time>
      </trkpt>
      <trkpt lat="45.79515" lon="6.64023">
        <ele>1945</ele>
        <time>2022-07-24T11:06:48Z</time>
      </trkpt>
      <trkpt lat="45.79515" lon="6.64025">
        <ele>1945</ele>
        <time>2022-07-24T11:06:49Z</time>
      </trkpt>
      <trkpt lat="45.79514" lon="6.64026">
        <ele>1945</ele>
        <time>2022-07-24T11:06:50Z</time>
      </trkpt>
      <trkpt lat="45.79513" lon="6.64028">
        <ele>1945</ele>
        <time>2022-07-24T11:06:51Z</time>
      </trkpt>
      <trkpt lat="45.79513" lon="6.64029">
        <ele>1945</ele>
        <time>2022-07-24T11:06:52Z</time>
      </trkpt>
      <trkpt lat="45.79512" lon="6.64031">
        <ele>1945</ele>
        <time>2022-07-24T11:06:53Z</time>
      </trkpt>
      <trkpt lat="45.79511" lon="6.64033">
        <ele>1945</ele>
        <time>2022-07-24T11:06:54Z</time>
      </trkpt>
      <trkpt lat="45.7951" lon="6.64035">
        <ele>1945</ele>
        <time>2022-07-24T11:06:55Z</time>
      </trkpt>
      <trkpt lat="45.7951" lon="6.64037">
        <ele>1945</ele>
        <time>2022-07-24T11:06:56Z</time>
      </trkpt>
      <trkpt lat="45.79509" lon="6.64038">
        <ele>1945</ele>
        <time>2022-07-24T11:06:57Z</time>
      </trkpt>
      <trkpt lat="45.79509" lon="6.6404">
        <ele>1945</ele>
        <time>2022-07-24T11:06:58Z</time>
      </trkpt>
      <trkpt lat="45.79508" lon="6.64042">
        <ele>1945</ele>
        <time>2022-07-24T11:06:59Z</time>
      </trkpt>
      <trkpt lat="45.79507" lon="6.64044">
        <ele>1945</ele>
        <time>2022-07-24T11:07:00Z</time>
      </trkpt>
      <trkpt lat="45.79507" lon="6.64046">
        <ele>1945</ele>
        <time>2022-07-24T11:07:01Z</time>
      </trkpt>
      <trkpt lat="45.79506" lon="6.64047">
        <ele>1945</ele>
        <time>2022-07-24T11:07:02Z</time>
      </trkpt>
      <trkpt lat="45.79505" lon="6.64049">
        <ele>1945</ele>
        <time>2022-07-24T11:07:03Z</time>
      </trkpt>
      <trkpt lat="45.79505" lon="6.64051">
        <ele>1944</ele>
        <time>2022-07-24T11:07:04Z</time>
      </trkpt>
      <trkpt lat="45.79504" lon="6.64052">
        <ele>1944</ele>
        <time>2022-07-24T11:07:05Z</time>
      </trkpt>
      <trkpt lat="45.79503" lon="6.64054">
        <ele>1943</ele>
        <time>2022-07-24T11:07:06Z</time>
      </trkpt>
      <trkpt lat="45.79502" lon="6.64055">
        <ele>1943</ele>
        <time>2022-07-24T11:07:07Z</time>
      </trkpt>
      <trkpt lat="45.79501" lon="6.64056">
        <ele>1943</ele>
        <time>2022-07-24T11:07:08Z</time>
      </trkpt>
      <trkpt lat="45.79499" lon="6.64057">
        <ele>1943</ele>
        <time>2022-07-24T11:07:09Z</time>
      </trkpt>
      <trkpt lat="45.79498" lon="6.64058">
        <ele>1943</ele>
        <time>2022-07-24T11:07:10Z</time>
      </trkpt>
      <trkpt lat="45.79497" lon="6.64058">
        <ele>1943</ele>
        <time>2022-07-24T11:07:11Z</time>
      </trkpt>
      <trkpt lat="45.79496" lon="6.64059">
        <ele>1943</ele>
        <time>2022-07-24T11:07:12Z</time>
      </trkpt>
      <trkpt lat="45.79494" lon="6.6406">
        <ele>1943</ele>
        <time>2022-07-24T11:07:13Z</time>
      </trkpt>
      <trkpt lat="45.79493" lon="6.6406">
        <ele>1943</ele>
        <time>2022-07-24T11:07:14Z</time>
      </trkpt>
      <trkpt lat="45.79492" lon="6.64061">
        <ele>1943</ele>
        <time>2022-07-24T11:07:15Z</time>
      </trkpt>
      <trkpt lat="45.79491" lon="6.64062">
        <ele>1943</ele>
        <time>2022-07-24T11:07:16Z</time>
      </trkpt>
      <trkpt lat="45.7949" lon="6.64063">
        <ele>1943</ele>
        <time>2022-07-24T11:07:17Z</time>
      </trkpt>
      <trkpt lat="45.7949" lon="6.64064">
        <ele>1943</ele>
        <time>2022-07-24T11:07:18Z</time>
      </trkpt>
      <trkpt lat="45.79489" lon="6.64065">
        <ele>1942</ele>
        <time>2022-07-24T11:11:31Z</time>
      </trkpt>
      <trkpt lat="45.79488" lon="6.64066">
        <ele>1942</ele>
        <time>2022-07-24T11:11:32Z</time>
      </trkpt>
      <trkpt lat="45.79488" lon="6.64067">
        <ele>1943</ele>
        <time>2022-07-24T11:11:33Z</time>
      </trkpt>
      <trkpt lat="45.79487" lon="6.64067">
        <ele>1942</ele>
        <time>2022-07-24T11:11:34Z</time>
      </trkpt>
      <trkpt lat="45.79487" lon="6.64068">
        <ele>1942</ele>
        <time>2022-07-24T11:11:35Z</time>
      </trkpt>
      <trkpt lat="45.79486" lon="6.6407">
        <ele>1942</ele>
        <time>2022-07-24T11:11:44Z</time>
      </trkpt>
      <trkpt lat="45.79486" lon="6.64071">
        <ele>1942</ele>
        <time>2022-07-24T11:11:45Z</time>
      </trkpt>
      <trkpt lat="45.79485" lon="6.64071">
        <ele>1942</ele>
        <time>2022-07-24T11:11:46Z</time>
      </trkpt>
      <trkpt lat="45.79485" lon="6.64072">
        <ele>1942</ele>
        <time>2022-07-24T11:11:47Z</time>
      </trkpt>
      <trkpt lat="45.79484" lon="6.64073">
        <ele>1942</ele>
        <time>2022-07-24T11:11:48Z</time>
      </trkpt>
      <trkpt lat="45.79484" lon="6.64073">
        <ele>1942</ele>
        <time>2022-07-24T11:11:49Z</time>
      </trkpt>
      <trkpt lat="45.79484" lon="6.64074">
        <ele>1942</ele>
        <time>2022-07-24T11:11:50Z</time>
      </trkpt>
      <trkpt lat="45.79483" lon="6.64075">
        <ele>1942</ele>
        <time>2022-07-24T11:11:56Z</time>
      </trkpt>
      <trkpt lat="45.79482" lon="6.64076">
        <ele>1942</ele>
        <time>2022-07-24T11:11:57Z</time>
      </trkpt>
      <trkpt lat="45.79482" lon="6.64077">
        <ele>1942</ele>
        <time>2022-07-24T11:11:58Z</time>
      </trkpt>
      <trkpt lat="45.79481" lon="6.64078">
        <ele>1942</ele>
        <time>2022-07-24T11:11:59Z</time>
      </trkpt>
      <trkpt lat="45.7948" lon="6.64079">
        <ele>1942</ele>
        <time>2022-07-24T11:12:00Z</time>
      </trkpt>
      <trkpt lat="45.7948" lon="6.64081">
        <ele>1942</ele>
        <time>2022-07-24T11:12:01Z</time>
      </trkpt>
      <trkpt lat="45.79479" lon="6.64082">
        <ele>1942</ele>
        <time>2022-07-24T11:12:02Z</time>
      </trkpt>
      <trkpt lat="45.79478" lon="6.64084">
        <ele>1942</ele>
        <time>2022-07-24T11:12:03Z</time>
      </trkpt>
      <trkpt lat="45.79477" lon="6.64086">
        <ele>1941</ele>
        <time>2022-07-24T11:12:04Z</time>
      </trkpt>
      <trkpt lat="45.79477" lon="6.64088">
        <ele>1941</ele>
        <time>2022-07-24T11:12:05Z</time>
      </trkpt>
      <trkpt lat="45.79476" lon="6.64089">
        <ele>1941</ele>
        <time>2022-07-24T11:12:06Z</time>
      </trkpt>
      <trkpt lat="45.79475" lon="6.64091">
        <ele>1941</ele>
        <time>2022-07-24T11:12:07Z</time>
      </trkpt>
      <trkpt lat="45.79475" lon="6.64093">
        <ele>1941</ele>
        <time>2022-07-24T11:12:08Z</time>
      </trkpt>
      <trkpt lat="45.79474" lon="6.64094">
        <ele>1940</ele>
        <time>2022-07-24T11:12:09Z</time>
      </trkpt>
      <trkpt lat="45.79474" lon="6.64096">
        <ele>1940</ele>
        <time>2022-07-24T11:12:10Z</time>
      </trkpt>
      <trkpt lat="45.79473" lon="6.64098">
        <ele>1940</ele>
        <time>2022-07-24T11:12:11Z</time>
      </trkpt>
      <trkpt lat="45.79472" lon="6.64099">
        <ele>1940</ele>
        <time>2022-07-24T11:12:12Z</time>
      </trkpt>
      <trkpt lat="45.79472" lon="6.64101">
        <ele>1940</ele>
        <time>2022-07-24T11:12:13Z</time>
      </trkpt>
      <trkpt lat="45.79471" lon="6.64102">
        <ele>1939</ele>
        <time>2022-07-24T11:12:14Z</time>
      </trkpt>
      <trkpt lat="45.79471" lon="6.64104">
        <ele>1939</ele>
        <time>2022-07-24T11:12:15Z</time>
      </trkpt>
      <trkpt lat="45.7947" lon="6.64105">
        <ele>1939</ele>
        <time>2022-07-24T11:12:16Z</time>
      </trkpt>
      <trkpt lat="45.79469" lon="6.64107">
        <ele>1939</ele>
        <time>2022-07-24T11:12:17Z</time>
      </trkpt>
      <trkpt lat="45.79469" lon="6.64108">
        <ele>1939</ele>
        <time>2022-07-24T11:12:18Z</time>
      </trkpt>
      <trkpt lat="45.79468" lon="6.64109">
        <ele>1939</ele>
        <time>2022-07-24T11:12:19Z</time>
      </trkpt>
      <trkpt lat="45.79467" lon="6.64111">
        <ele>1939</ele>
        <time>2022-07-24T11:12:20Z</time>
      </trkpt>
      <trkpt lat="45.79467" lon="6.64112">
        <ele>1939</ele>
        <time>2022-07-24T11:12:21Z</time>
      </trkpt>
      <trkpt lat="45.79466" lon="6.64114">
        <ele>1939</ele>
        <time>2022-07-24T11:12:22Z</time>
      </trkpt>
      <trkpt lat="45.79466" lon="6.64115">
        <ele>1939</ele>
        <time>2022-07-24T11:12:23Z</time>
      </trkpt>
      <trkpt lat="45.79465" lon="6.64117">
        <ele>1938</ele>
        <time>2022-07-24T11:12:24Z</time>
      </trkpt>
      <trkpt lat="45.79465" lon="6.64118">
        <ele>1938</ele>
        <time>2022-07-24T11:12:25Z</time>
      </trkpt>
      <trkpt lat="45.79464" lon="6.6412">
        <ele>1938</ele>
        <time>2022-07-24T11:12:26Z</time>
      </trkpt>
      <trkpt lat="45.79464" lon="6.64121">
        <ele>1938</ele>
        <time>2022-07-24T11:12:27Z</time>
      </trkpt>
      <trkpt lat="45.79463" lon="6.64123">
        <ele>1938</ele>
        <time>2022-07-24T11:12:28Z</time>
      </trkpt>
      <trkpt lat="45.79463" lon="6.64125">
        <ele>1937</ele>
        <time>2022-07-24T11:12:29Z</time>
      </trkpt>
      <trkpt lat="45.79463" lon="6.64126">
        <ele>1937</ele>
        <time>2022-07-24T11:12:30Z</time>
      </trkpt>
      <trkpt lat="45.79463" lon="6.64128">
        <ele>1937</ele>
        <time>2022-07-24T11:12:31Z</time>
      </trkpt>
      <trkpt lat="45.79463" lon="6.6413">
        <ele>1937</ele>
        <time>2022-07-24T11:12:32Z</time>
      </trkpt>
      <trkpt lat="45.79463" lon="6.64131">
        <ele>1937</ele>
        <time>2022-07-24T11:12:33Z</time>
      </trkpt>
      <trkpt lat="45.79463" lon="6.64133">
        <ele>1937</ele>
        <time>2022-07-24T11:12:34Z</time>
      </trkpt>
      <trkpt lat="45.79463" lon="6.64135">
        <ele>1937</ele>
        <time>2022-07-24T11:12:35Z</time>
      </trkpt>
      <trkpt lat="45.79463" lon="6.64136">
        <ele>1937</ele>
        <time>2022-07-24T11:12:36Z</time>
      </trkpt>
      <trkpt lat="45.79463" lon="6.64138">
        <ele>1937</ele>
        <time>2022-07-24T11:12:37Z</time>
      </trkpt>
      <trkpt lat="45.79463" lon="6.6414">
        <ele>1937</ele>
        <time>2022-07-24T11:12:38Z</time>
      </trkpt>
      <trkpt lat="45.79464" lon="6.64141">
        <ele>1937</ele>
        <time>2022-07-24T11:12:39Z</time>
      </trkpt>
      <trkpt lat="45.79464" lon="6.64143">
        <ele>1937</ele>
        <time>2022-07-24T11:12:40Z</time>
      </trkpt>
      <trkpt lat="45.79465" lon="6.64144">
        <ele>1937</ele>
        <time>2022-07-24T11:12:41Z</time>
      </trkpt>
      <trkpt lat="45.79465" lon="6.64146">
        <ele>1937</ele>
        <time>2022-07-24T11:12:42Z</time>
      </trkpt>
      <trkpt lat="45.79466" lon="6.64147">
        <ele>1937</ele>
        <time>2022-07-24T11:12:43Z</time>
      </trkpt>
      <trkpt lat="45.79466" lon="6.64149">
        <ele>1936</ele>
        <time>2022-07-24T11:12:44Z</time>
      </trkpt>
      <trkpt lat="45.79467" lon="6.6415">
        <ele>1936</ele>
        <time>2022-07-24T11:12:45Z</time>
      </trkpt>
      <trkpt lat="45.79468" lon="6.64151">
        <ele>1936</ele>
        <time>2022-07-24T11:12:46Z</time>
      </trkpt>
      <trkpt lat="45.79468" lon="6.64153">
        <ele>1936</ele>
        <time>2022-07-24T11:12:47Z</time>
      </trkpt>
      <trkpt lat="45.79469" lon="6.64154">
        <ele>1936</ele>
        <time>2022-07-24T11:12:48Z</time>
      </trkpt>
      <trkpt lat="45.7947" lon="6.64155">
        <ele>1936</ele>
        <time>2022-07-24T11:12:49Z</time>
      </trkpt>
      <trkpt lat="45.7947" lon="6.64156">
        <ele>1936</ele>
        <time>2022-07-24T11:12:50Z</time>
      </trkpt>
      <trkpt lat="45.7947" lon="6.64157">
        <ele>1936</ele>
        <time>2022-07-24T11:12:51Z</time>
      </trkpt>
      <trkpt lat="45.79471" lon="6.64157">
        <ele>1936</ele>
        <time>2022-07-24T11:12:52Z</time>
      </trkpt>
      <trkpt lat="45.7947" lon="6.64158">
        <ele>1936</ele>
        <time>2022-07-24T11:12:53Z</time>
      </trkpt>
      <trkpt lat="45.7947" lon="6.64159">
        <ele>1936</ele>
        <time>2022-07-24T11:12:54Z</time>
      </trkpt>
      <trkpt lat="45.7947" lon="6.64159">
        <ele>1936</ele>
        <time>2022-07-24T11:12:55Z</time>
      </trkpt>
      <trkpt lat="45.7947" lon="6.6416">
        <ele>1936</ele>
        <time>2022-07-24T11:12:56Z</time>
      </trkpt>
      <trkpt lat="45.79469" lon="6.64161">
        <ele>1936</ele>
        <time>2022-07-24T11:12:57Z</time>
      </trkpt>
      <trkpt lat="45.79469" lon="6.64161">
        <ele>1936</ele>
        <time>2022-07-24T11:12:58Z</time>
      </trkpt>
      <trkpt lat="45.79469" lon="6.64161">
        <ele>1935</ele>
        <time>2022-07-24T11:12:59Z</time>
      </trkpt>
      <trkpt lat="45.79469" lon="6.64162">
        <ele>1935</ele>
        <time>2022-07-24T11:13:00Z</time>
      </trkpt>
      <trkpt lat="45.79469" lon="6.64163">
        <ele>1935</ele>
        <time>2022-07-24T11:13:01Z</time>
      </trkpt>
      <trkpt lat="45.79469" lon="6.64164">
        <ele>1935</ele>
        <time>2022-07-24T11:13:02Z</time>
      </trkpt>
      <trkpt lat="45.79469" lon="6.64165">
        <ele>1935</ele>
        <time>2022-07-24T11:13:03Z</time>
      </trkpt>
      <trkpt lat="45.79469" lon="6.64166">
        <ele>1934</ele>
        <time>2022-07-24T11:13:04Z</time>
      </trkpt>
      <trkpt lat="45.7947" lon="6.64167">
        <ele>1934</ele>
        <time>2022-07-24T11:13:05Z</time>
      </trkpt>
      <trkpt lat="45.7947" lon="6.64168">
        <ele>1934</ele>
        <time>2022-07-24T11:13:06Z</time>
      </trkpt>
      <trkpt lat="45.79471" lon="6.64169">
        <ele>1934</ele>
        <time>2022-07-24T11:13:07Z</time>
      </trkpt>
      <trkpt lat="45.79471" lon="6.6417">
        <ele>1934</ele>
        <time>2022-07-24T11:13:08Z</time>
      </trkpt>
      <trkpt lat="45.79472" lon="6.64171">
        <ele>1933</ele>
        <time>2022-07-24T11:13:09Z</time>
      </trkpt>
      <trkpt lat="45.79472" lon="6.64172">
        <ele>1933</ele>
        <time>2022-07-24T11:13:10Z</time>
      </trkpt>
      <trkpt lat="45.79473" lon="6.64173">
        <ele>1933</ele>
        <time>2022-07-24T11:13:11Z</time>
      </trkpt>
      <trkpt lat="45.79474" lon="6.64174">
        <ele>1933</ele>
        <time>2022-07-24T11:13:12Z</time>
      </trkpt>
      <trkpt lat="45.79474" lon="6.64175">
        <ele>1933</ele>
        <time>2022-07-24T11:13:13Z</time>
      </trkpt>
      <trkpt lat="45.79475" lon="6.64176">
        <ele>1933</ele>
        <time>2022-07-24T11:13:14Z</time>
      </trkpt>
      <trkpt lat="45.79476" lon="6.64177">
        <ele>1933</ele>
        <time>2022-07-24T11:13:15Z</time>
      </trkpt>
      <trkpt lat="45.79476" lon="6.64178">
        <ele>1933</ele>
        <time>2022-07-24T11:13:16Z</time>
      </trkpt>
      <trkpt lat="45.79477" lon="6.64179">
        <ele>1933</ele>
        <time>2022-07-24T11:13:17Z</time>
      </trkpt>
      <trkpt lat="45.79478" lon="6.6418">
        <ele>1933</ele>
        <time>2022-07-24T11:13:18Z</time>
      </trkpt>
      <trkpt lat="45.79479" lon="6.6418">
        <ele>1932</ele>
        <time>2022-07-24T11:13:19Z</time>
      </trkpt>
      <trkpt lat="45.79479" lon="6.64181">
        <ele>1932</ele>
        <time>2022-07-24T11:13:20Z</time>
      </trkpt>
      <trkpt lat="45.7948" lon="6.64181">
        <ele>1932</ele>
        <time>2022-07-24T11:13:21Z</time>
      </trkpt>
      <trkpt lat="45.79481" lon="6.64181">
        <ele>1932</ele>
        <time>2022-07-24T11:13:22Z</time>
      </trkpt>
      <trkpt lat="45.79482" lon="6.64182">
        <ele>1932</ele>
        <time>2022-07-24T11:13:23Z</time>
      </trkpt>
      <trkpt lat="45.79483" lon="6.64182">
        <ele>1931</ele>
        <time>2022-07-24T11:13:24Z</time>
      </trkpt>
      <trkpt lat="45.79484" lon="6.64182">
        <ele>1931</ele>
        <time>2022-07-24T11:13:25Z</time>
      </trkpt>
      <trkpt lat="45.79485" lon="6.64182">
        <ele>1931</ele>
        <time>2022-07-24T11:13:26Z</time>
      </trkpt>
      <trkpt lat="45.79486" lon="6.64182">
        <ele>1931</ele>
        <time>2022-07-24T11:13:27Z</time>
      </trkpt>
      <trkpt lat="45.79487" lon="6.64183">
        <ele>1931</ele>
        <time>2022-07-24T11:13:28Z</time>
      </trkpt>
      <trkpt lat="45.79488" lon="6.64183">
        <ele>1930</ele>
        <time>2022-07-24T11:13:29Z</time>
      </trkpt>
      <trkpt lat="45.79489" lon="6.64184">
        <ele>1930</ele>
        <time>2022-07-24T11:13:30Z</time>
      </trkpt>
      <trkpt lat="45.7949" lon="6.64184">
        <ele>1930</ele>
        <time>2022-07-24T11:13:31Z</time>
      </trkpt>
      <trkpt lat="45.7949" lon="6.64185">
        <ele>1930</ele>
        <time>2022-07-24T11:13:32Z</time>
      </trkpt>
      <trkpt lat="45.79491" lon="6.64187">
        <ele>1930</ele>
        <time>2022-07-24T11:13:33Z</time>
      </trkpt>
      <trkpt lat="45.79491" lon="6.64188">
        <ele>1929</ele>
        <time>2022-07-24T11:13:34Z</time>
      </trkpt>
      <trkpt lat="45.79491" lon="6.64189">
        <ele>1929</ele>
        <time>2022-07-24T11:13:35Z</time>
      </trkpt>
      <trkpt lat="45.79491" lon="6.64191">
        <ele>1929</ele>
        <time>2022-07-24T11:13:36Z</time>
      </trkpt>
      <trkpt lat="45.79491" lon="6.64192">
        <ele>1929</ele>
        <time>2022-07-24T11:13:37Z</time>
      </trkpt>
      <trkpt lat="45.79491" lon="6.64194">
        <ele>1929</ele>
        <time>2022-07-24T11:13:38Z</time>
      </trkpt>
      <trkpt lat="45.79491" lon="6.64195">
        <ele>1928</ele>
        <time>2022-07-24T11:13:39Z</time>
      </trkpt>
      <trkpt lat="45.79491" lon="6.64197">
        <ele>1928</ele>
        <time>2022-07-24T11:13:40Z</time>
      </trkpt>
      <trkpt lat="45.79491" lon="6.64198">
        <ele>1928</ele>
        <time>2022-07-24T11:13:41Z</time>
      </trkpt>
      <trkpt lat="45.79491" lon="6.642">
        <ele>1928</ele>
        <time>2022-07-24T11:13:42Z</time>
      </trkpt>
      <trkpt lat="45.7949" lon="6.64202">
        <ele>1928</ele>
        <time>2022-07-24T11:13:43Z</time>
      </trkpt>
      <trkpt lat="45.7949" lon="6.64204">
        <ele>1928</ele>
        <time>2022-07-24T11:13:44Z</time>
      </trkpt>
      <trkpt lat="45.7949" lon="6.64206">
        <ele>1928</ele>
        <time>2022-07-24T11:13:45Z</time>
      </trkpt>
      <trkpt lat="45.7949" lon="6.64208">
        <ele>1928</ele>
        <time>2022-07-24T11:13:46Z</time>
      </trkpt>
      <trkpt lat="45.79489" lon="6.64209">
        <ele>1928</ele>
        <time>2022-07-24T11:13:47Z</time>
      </trkpt>
      <trkpt lat="45.79489" lon="6.64211">
        <ele>1928</ele>
        <time>2022-07-24T11:13:48Z</time>
      </trkpt>
      <trkpt lat="45.79489" lon="6.64213">
        <ele>1927</ele>
        <time>2022-07-24T11:13:49Z</time>
      </trkpt>
      <trkpt lat="45.79488" lon="6.64214">
        <ele>1927</ele>
        <time>2022-07-24T11:13:50Z</time>
      </trkpt>
      <trkpt lat="45.79487" lon="6.64216">
        <ele>1927</ele>
        <time>2022-07-24T11:13:51Z</time>
      </trkpt>
      <trkpt lat="45.79487" lon="6.64218">
        <ele>1927</ele>
        <time>2022-07-24T11:13:52Z</time>
      </trkpt>
      <trkpt lat="45.79486" lon="6.64219">
        <ele>1927</ele>
        <time>2022-07-24T11:13:53Z</time>
      </trkpt>
      <trkpt lat="45.79485" lon="6.64221">
        <ele>1926</ele>
        <time>2022-07-24T11:13:54Z</time>
      </trkpt>
      <trkpt lat="45.79484" lon="6.64222">
        <ele>1926</ele>
        <time>2022-07-24T11:13:55Z</time>
      </trkpt>
      <trkpt lat="45.79483" lon="6.64224">
        <ele>1926</ele>
        <time>2022-07-24T11:13:56Z</time>
      </trkpt>
      <trkpt lat="45.79482" lon="6.64225">
        <ele>1926</ele>
        <time>2022-07-24T11:13:57Z</time>
      </trkpt>
      <trkpt lat="45.79481" lon="6.64227">
        <ele>1926</ele>
        <time>2022-07-24T11:13:58Z</time>
      </trkpt>
      <trkpt lat="45.7948" lon="6.64228">
        <ele>1925</ele>
        <time>2022-07-24T11:13:59Z</time>
      </trkpt>
      <trkpt lat="45.79479" lon="6.64229">
        <ele>1925</ele>
        <time>2022-07-24T11:14:00Z</time>
      </trkpt>
      <trkpt lat="45.79479" lon="6.64231">
        <ele>1925</ele>
        <time>2022-07-24T11:14:01Z</time>
      </trkpt>
      <trkpt lat="45.79478" lon="6.64232">
        <ele>1925</ele>
        <time>2022-07-24T11:14:02Z</time>
      </trkpt>
      <trkpt lat="45.79477" lon="6.64233">
        <ele>1925</ele>
        <time>2022-07-24T11:14:03Z</time>
      </trkpt>
      <trkpt lat="45.79476" lon="6.64235">
        <ele>1925</ele>
        <time>2022-07-24T11:14:04Z</time>
      </trkpt>
      <trkpt lat="45.79475" lon="6.64236">
        <ele>1925</ele>
        <time>2022-07-24T11:14:05Z</time>
      </trkpt>
      <trkpt lat="45.79474" lon="6.64237">
        <ele>1925</ele>
        <time>2022-07-24T11:14:06Z</time>
      </trkpt>
      <trkpt lat="45.79474" lon="6.64238">
        <ele>1925</ele>
        <time>2022-07-24T11:14:07Z</time>
      </trkpt>
      <trkpt lat="45.79473" lon="6.64239">
        <ele>1925</ele>
        <time>2022-07-24T11:14:08Z</time>
      </trkpt>
      <trkpt lat="45.79472" lon="6.64241">
        <ele>1924</ele>
        <time>2022-07-24T11:14:09Z</time>
      </trkpt>
      <trkpt lat="45.79471" lon="6.64242">
        <ele>1924</ele>
        <time>2022-07-24T11:14:10Z</time>
      </trkpt>
      <trkpt lat="45.7947" lon="6.64243">
        <ele>1924</ele>
        <time>2022-07-24T11:14:11Z</time>
      </trkpt>
      <trkpt lat="45.7947" lon="6.64245">
        <ele>1924</ele>
        <time>2022-07-24T11:14:12Z</time>
      </trkpt>
      <trkpt lat="45.79469" lon="6.64247">
        <ele>1924</ele>
        <time>2022-07-24T11:14:13Z</time>
      </trkpt>
      <trkpt lat="45.79469" lon="6.64248">
        <ele>1924</ele>
        <time>2022-07-24T11:14:14Z</time>
      </trkpt>
      <trkpt lat="45.79469" lon="6.6425">
        <ele>1924</ele>
        <time>2022-07-24T11:14:15Z</time>
      </trkpt>
      <trkpt lat="45.79468" lon="6.64252">
        <ele>1924</ele>
        <time>2022-07-24T11:14:16Z</time>
      </trkpt>
      <trkpt lat="45.79468" lon="6.64253">
        <ele>1924</ele>
        <time>2022-07-24T11:14:17Z</time>
      </trkpt>
      <trkpt lat="45.79468" lon="6.64255">
        <ele>1924</ele>
        <time>2022-07-24T11:14:18Z</time>
      </trkpt>
      <trkpt lat="45.79468" lon="6.64257">
        <ele>1923</ele>
        <time>2022-07-24T11:14:19Z</time>
      </trkpt>
      <trkpt lat="45.79468" lon="6.64259">
        <ele>1923</ele>
        <time>2022-07-24T11:14:20Z</time>
      </trkpt>
      <trkpt lat="45.79467" lon="6.64261">
        <ele>1923</ele>
        <time>2022-07-24T11:14:21Z</time>
      </trkpt>
      <trkpt lat="45.79467" lon="6.64262">
        <ele>1923</ele>
        <time>2022-07-24T11:14:22Z</time>
      </trkpt>
      <trkpt lat="45.79467" lon="6.64264">
        <ele>1923</ele>
        <time>2022-07-24T11:14:23Z</time>
      </trkpt>
      <trkpt lat="45.79466" lon="6.64266">
        <ele>1922</ele>
        <time>2022-07-24T11:14:24Z</time>
      </trkpt>
      <trkpt lat="45.79466" lon="6.64267">
        <ele>1922</ele>
        <time>2022-07-24T11:14:25Z</time>
      </trkpt>
      <trkpt lat="45.79466" lon="6.64269">
        <ele>1922</ele>
        <time>2022-07-24T11:14:26Z</time>
      </trkpt>
      <trkpt lat="45.79465" lon="6.6427">
        <ele>1922</ele>
        <time>2022-07-24T11:14:27Z</time>
      </trkpt>
      <trkpt lat="45.79465" lon="6.64272">
        <ele>1922</ele>
        <time>2022-07-24T11:14:28Z</time>
      </trkpt>
      <trkpt lat="45.79465" lon="6.64274">
        <ele>1921</ele>
        <time>2022-07-24T11:14:29Z</time>
      </trkpt>
      <trkpt lat="45.79465" lon="6.64275">
        <ele>1921</ele>
        <time>2022-07-24T11:14:30Z</time>
      </trkpt>
      <trkpt lat="45.79464" lon="6.64277">
        <ele>1921</ele>
        <time>2022-07-24T11:14:31Z</time>
      </trkpt>
      <trkpt lat="45.79464" lon="6.64278">
        <ele>1921</ele>
        <time>2022-07-24T11:14:32Z</time>
      </trkpt>
      <trkpt lat="45.79464" lon="6.6428">
        <ele>1921</ele>
        <time>2022-07-24T11:14:33Z</time>
      </trkpt>
      <trkpt lat="45.79464" lon="6.64281">
        <ele>1921</ele>
        <time>2022-07-24T11:14:34Z</time>
      </trkpt>
      <trkpt lat="45.79464" lon="6.64282">
        <ele>1921</ele>
        <time>2022-07-24T11:14:35Z</time>
      </trkpt>
      <trkpt lat="45.79464" lon="6.64283">
        <ele>1921</ele>
        <time>2022-07-24T11:14:36Z</time>
      </trkpt>
      <trkpt lat="45.79464" lon="6.64283">
        <ele>1921</ele>
        <time>2022-07-24T11:14:37Z</time>
      </trkpt>
      <trkpt lat="45.79464" lon="6.64284">
        <ele>1921</ele>
        <time>2022-07-24T11:14:38Z</time>
      </trkpt>
      <trkpt lat="45.79464" lon="6.64285">
        <ele>1920</ele>
        <time>2022-07-24T11:14:39Z</time>
      </trkpt>
      <trkpt lat="45.79464" lon="6.64286">
        <ele>1920</ele>
        <time>2022-07-24T11:14:40Z</time>
      </trkpt>
      <trkpt lat="45.79464" lon="6.64287">
        <ele>1920</ele>
        <time>2022-07-24T11:14:41Z</time>
      </trkpt>
      <trkpt lat="45.79464" lon="6.64288">
        <ele>1920</ele>
        <time>2022-07-24T11:14:42Z</time>
      </trkpt>
      <trkpt lat="45.79464" lon="6.64289">
        <ele>1920</ele>
        <time>2022-07-24T11:14:43Z</time>
      </trkpt>
      <trkpt lat="45.79464" lon="6.6429">
        <ele>1919</ele>
        <time>2022-07-24T11:14:44Z</time>
      </trkpt>
      <trkpt lat="45.79463" lon="6.64291">
        <ele>1919</ele>
        <time>2022-07-24T11:14:45Z</time>
      </trkpt>
      <trkpt lat="45.79462" lon="6.64292">
        <ele>1918</ele>
        <time>2022-07-24T11:14:52Z</time>
      </trkpt>
      <trkpt lat="45.79461" lon="6.64293">
        <ele>1918</ele>
        <time>2022-07-24T11:14:53Z</time>
      </trkpt>
      <trkpt lat="45.79461" lon="6.64294">
        <ele>1918</ele>
        <time>2022-07-24T11:14:54Z</time>
      </trkpt>
      <trkpt lat="45.79461" lon="6.64295">
        <ele>1918</ele>
        <time>2022-07-24T11:15:00Z</time>
      </trkpt>
      <trkpt lat="45.79461" lon="6.64296">
        <ele>1918</ele>
        <time>2022-07-24T11:15:01Z</time>
      </trkpt>
      <trkpt lat="45.79462" lon="6.64296">
        <ele>1918</ele>
        <time>2022-07-24T11:15:02Z</time>
      </trkpt>
      <trkpt lat="45.79462" lon="6.64298">
        <ele>1918</ele>
        <time>2022-07-24T11:15:03Z</time>
      </trkpt>
      <trkpt lat="45.79462" lon="6.64299">
        <ele>1917</ele>
        <time>2022-07-24T11:15:04Z</time>
      </trkpt>
      <trkpt lat="45.79462" lon="6.643">
        <ele>1917</ele>
        <time>2022-07-24T11:15:05Z</time>
      </trkpt>
      <trkpt lat="45.79463" lon="6.64302">
        <ele>1917</ele>
        <time>2022-07-24T11:15:06Z</time>
      </trkpt>
      <trkpt lat="45.79463" lon="6.64304">
        <ele>1917</ele>
        <time>2022-07-24T11:15:07Z</time>
      </trkpt>
      <trkpt lat="45.79463" lon="6.64305">
        <ele>1917</ele>
        <time>2022-07-24T11:15:08Z</time>
      </trkpt>
      <trkpt lat="45.79464" lon="6.64307">
        <ele>1916</ele>
        <time>2022-07-24T11:15:09Z</time>
      </trkpt>
      <trkpt lat="45.79464" lon="6.64308">
        <ele>1916</ele>
        <time>2022-07-24T11:15:10Z</time>
      </trkpt>
      <trkpt lat="45.79464" lon="6.64309">
        <ele>1916</ele>
        <time>2022-07-24T11:15:11Z</time>
      </trkpt>
      <trkpt lat="45.79465" lon="6.6431">
        <ele>1916</ele>
        <time>2022-07-24T11:15:12Z</time>
      </trkpt>
      <trkpt lat="45.79466" lon="6.64311">
        <ele>1916</ele>
        <time>2022-07-24T11:15:13Z</time>
      </trkpt>
      <trkpt lat="45.79466" lon="6.64312">
        <ele>1915</ele>
        <time>2022-07-24T11:15:14Z</time>
      </trkpt>
      <trkpt lat="45.79467" lon="6.64314">
        <ele>1915</ele>
        <time>2022-07-24T11:15:15Z</time>
      </trkpt>
      <trkpt lat="45.79467" lon="6.64315">
        <ele>1915</ele>
        <time>2022-07-24T11:15:16Z</time>
      </trkpt>
      <trkpt lat="45.79468" lon="6.64316">
        <ele>1915</ele>
        <time>2022-07-24T11:15:17Z</time>
      </trkpt>
      <trkpt lat="45.79469" lon="6.64317">
        <ele>1915</ele>
        <time>2022-07-24T11:15:18Z</time>
      </trkpt>
      <trkpt lat="45.7947" lon="6.64318">
        <ele>1914</ele>
        <time>2022-07-24T11:15:19Z</time>
      </trkpt>
      <trkpt lat="45.79471" lon="6.64319">
        <ele>1914</ele>
        <time>2022-07-24T11:15:20Z</time>
      </trkpt>
      <trkpt lat="45.79472" lon="6.64321">
        <ele>1914</ele>
        <time>2022-07-24T11:15:21Z</time>
      </trkpt>
      <trkpt lat="45.79472" lon="6.64322">
        <ele>1914</ele>
        <time>2022-07-24T11:15:22Z</time>
      </trkpt>
      <trkpt lat="45.79473" lon="6.64323">
        <ele>1914</ele>
        <time>2022-07-24T11:15:23Z</time>
      </trkpt>
      <trkpt lat="45.79474" lon="6.64325">
        <ele>1913</ele>
        <time>2022-07-24T11:15:24Z</time>
      </trkpt>
      <trkpt lat="45.79475" lon="6.64326">
        <ele>1913</ele>
        <time>2022-07-24T11:15:25Z</time>
      </trkpt>
      <trkpt lat="45.79476" lon="6.64327">
        <ele>1912</ele>
        <time>2022-07-24T11:15:26Z</time>
      </trkpt>
      <trkpt lat="45.79477" lon="6.64329">
        <ele>1912</ele>
        <time>2022-07-24T11:15:27Z</time>
      </trkpt>
      <trkpt lat="45.79477" lon="6.6433">
        <ele>1912</ele>
        <time>2022-07-24T11:15:28Z</time>
      </trkpt>
      <trkpt lat="45.79478" lon="6.64331">
        <ele>1912</ele>
        <time>2022-07-24T11:15:29Z</time>
      </trkpt>
      <trkpt lat="45.79479" lon="6.64333">
        <ele>1912</ele>
        <time>2022-07-24T11:15:30Z</time>
      </trkpt>
      <trkpt lat="45.79479" lon="6.64334">
        <ele>1912</ele>
        <time>2022-07-24T11:15:31Z</time>
      </trkpt>
      <trkpt lat="45.7948" lon="6.64336">
        <ele>1912</ele>
        <time>2022-07-24T11:15:32Z</time>
      </trkpt>
      <trkpt lat="45.7948" lon="6.64337">
        <ele>1912</ele>
        <time>2022-07-24T11:15:33Z</time>
      </trkpt>
      <trkpt lat="45.7948" lon="6.64338">
        <ele>1911</ele>
        <time>2022-07-24T11:15:34Z</time>
      </trkpt>
      <trkpt lat="45.79481" lon="6.6434">
        <ele>1911</ele>
        <time>2022-07-24T11:15:35Z</time>
      </trkpt>
      <trkpt lat="45.79481" lon="6.64341">
        <ele>1911</ele>
        <time>2022-07-24T11:15:36Z</time>
      </trkpt>
      <trkpt lat="45.79482" lon="6.64342">
        <ele>1911</ele>
        <time>2022-07-24T11:15:37Z</time>
      </trkpt>
      <trkpt lat="45.79483" lon="6.64344">
        <ele>1911</ele>
        <time>2022-07-24T11:15:38Z</time>
      </trkpt>
      <trkpt lat="45.79483" lon="6.64345">
        <ele>1911</ele>
        <time>2022-07-24T11:15:39Z</time>
      </trkpt>
      <trkpt lat="45.79484" lon="6.64346">
        <ele>1911</ele>
        <time>2022-07-24T11:15:40Z</time>
      </trkpt>
      <trkpt lat="45.79485" lon="6.64348">
        <ele>1911</ele>
        <time>2022-07-24T11:15:41Z</time>
      </trkpt>
      <trkpt lat="45.79486" lon="6.64349">
        <ele>1911</ele>
        <time>2022-07-24T11:15:42Z</time>
      </trkpt>
      <trkpt lat="45.79487" lon="6.6435">
        <ele>1911</ele>
        <time>2022-07-24T11:15:43Z</time>
      </trkpt>
      <trkpt lat="45.79487" lon="6.64351">
        <ele>1910</ele>
        <time>2022-07-24T11:15:44Z</time>
      </trkpt>
      <trkpt lat="45.79488" lon="6.64352">
        <ele>1910</ele>
        <time>2022-07-24T11:15:45Z</time>
      </trkpt>
      <trkpt lat="45.79489" lon="6.64353">
        <ele>1910</ele>
        <time>2022-07-24T11:15:46Z</time>
      </trkpt>
      <trkpt lat="45.79491" lon="6.64354">
        <ele>1910</ele>
        <time>2022-07-24T11:15:47Z</time>
      </trkpt>
      <trkpt lat="45.79492" lon="6.64355">
        <ele>1910</ele>
        <time>2022-07-24T11:15:48Z</time>
      </trkpt>
      <trkpt lat="45.79493" lon="6.64355">
        <ele>1909</ele>
        <time>2022-07-24T11:15:49Z</time>
      </trkpt>
      <trkpt lat="45.79494" lon="6.64355">
        <ele>1909</ele>
        <time>2022-07-24T11:15:50Z</time>
      </trkpt>
      <trkpt lat="45.79495" lon="6.64355">
        <ele>1909</ele>
        <time>2022-07-24T11:15:51Z</time>
      </trkpt>
      <trkpt lat="45.79496" lon="6.64355">
        <ele>1909</ele>
        <time>2022-07-24T11:15:52Z</time>
      </trkpt>
      <trkpt lat="45.79497" lon="6.64356">
        <ele>1909</ele>
        <time>2022-07-24T11:15:53Z</time>
      </trkpt>
      <trkpt lat="45.79498" lon="6.64356">
        <ele>1909</ele>
        <time>2022-07-24T11:15:54Z</time>
      </trkpt>
      <trkpt lat="45.79499" lon="6.64356">
        <ele>1909</ele>
        <time>2022-07-24T11:15:55Z</time>
      </trkpt>
      <trkpt lat="45.795" lon="6.64356">
        <ele>1909</ele>
        <time>2022-07-24T11:15:56Z</time>
      </trkpt>
      <trkpt lat="45.79501" lon="6.64356">
        <ele>1909</ele>
        <time>2022-07-24T11:15:57Z</time>
      </trkpt>
      <trkpt lat="45.79502" lon="6.64357">
        <ele>1909</ele>
        <time>2022-07-24T11:15:58Z</time>
      </trkpt>
      <trkpt lat="45.79504" lon="6.64357">
        <ele>1908</ele>
        <time>2022-07-24T11:15:59Z</time>
      </trkpt>
      <trkpt lat="45.79505" lon="6.64357">
        <ele>1908</ele>
        <time>2022-07-24T11:16:00Z</time>
      </trkpt>
      <trkpt lat="45.79506" lon="6.64357">
        <ele>1908</ele>
        <time>2022-07-24T11:16:01Z</time>
      </trkpt>
      <trkpt lat="45.79507" lon="6.64357">
        <ele>1908</ele>
        <time>2022-07-24T11:16:02Z</time>
      </trkpt>
      <trkpt lat="45.79508" lon="6.64357">
        <ele>1908</ele>
        <time>2022-07-24T11:16:03Z</time>
      </trkpt>
      <trkpt lat="45.79509" lon="6.64358">
        <ele>1907</ele>
        <time>2022-07-24T11:16:04Z</time>
      </trkpt>
      <trkpt lat="45.7951" lon="6.64358">
        <ele>1907</ele>
        <time>2022-07-24T11:16:05Z</time>
      </trkpt>
      <trkpt lat="45.79511" lon="6.64359">
        <ele>1907</ele>
        <time>2022-07-24T11:16:06Z</time>
      </trkpt>
      <trkpt lat="45.79512" lon="6.6436">
        <ele>1907</ele>
        <time>2022-07-24T11:16:07Z</time>
      </trkpt>
      <trkpt lat="45.79512" lon="6.64361">
        <ele>1907</ele>
        <time>2022-07-24T11:16:08Z</time>
      </trkpt>
      <trkpt lat="45.79513" lon="6.64362">
        <ele>1906</ele>
        <time>2022-07-24T11:16:09Z</time>
      </trkpt>
      <trkpt lat="45.79513" lon="6.64363">
        <ele>1906</ele>
        <time>2022-07-24T11:16:10Z</time>
      </trkpt>
      <trkpt lat="45.79514" lon="6.64364">
        <ele>1906</ele>
        <time>2022-07-24T11:16:11Z</time>
      </trkpt>
      <trkpt lat="45.79514" lon="6.64365">
        <ele>1906</ele>
        <time>2022-07-24T11:16:12Z</time>
      </trkpt>
      <trkpt lat="45.79514" lon="6.64367">
        <ele>1906</ele>
        <time>2022-07-24T11:16:13Z</time>
      </trkpt>
      <trkpt lat="45.79514" lon="6.64368">
        <ele>1906</ele>
        <time>2022-07-24T11:16:14Z</time>
      </trkpt>
      <trkpt lat="45.79513" lon="6.64372">
        <ele>1906</ele>
        <time>2022-07-24T11:16:40Z</time>
      </trkpt>
      <trkpt lat="45.79513" lon="6.64374">
        <ele>1906</ele>
        <time>2022-07-24T11:16:41Z</time>
      </trkpt>
      <trkpt lat="45.79513" lon="6.64376">
        <ele>1906</ele>
        <time>2022-07-24T11:16:42Z</time>
      </trkpt>
      <trkpt lat="45.79514" lon="6.64377">
        <ele>1907</ele>
        <time>2022-07-24T11:16:43Z</time>
      </trkpt>
      <trkpt lat="45.79514" lon="6.64378">
        <ele>1906</ele>
        <time>2022-07-24T11:16:44Z</time>
      </trkpt>
      <trkpt lat="45.79514" lon="6.6438">
        <ele>1906</ele>
        <time>2022-07-24T11:16:45Z</time>
      </trkpt>
      <trkpt lat="45.79515" lon="6.64381">
        <ele>1906</ele>
        <time>2022-07-24T11:16:46Z</time>
      </trkpt>
      <trkpt lat="45.79515" lon="6.64383">
        <ele>1906</ele>
        <time>2022-07-24T11:16:47Z</time>
      </trkpt>
      <trkpt lat="45.79516" lon="6.64384">
        <ele>1906</ele>
        <time>2022-07-24T11:16:48Z</time>
      </trkpt>
      <trkpt lat="45.79517" lon="6.64386">
        <ele>1906</ele>
        <time>2022-07-24T11:16:49Z</time>
      </trkpt>
      <trkpt lat="45.79517" lon="6.64387">
        <ele>1906</ele>
        <time>2022-07-24T11:16:50Z</time>
      </trkpt>
      <trkpt lat="45.79518" lon="6.64389">
        <ele>1906</ele>
        <time>2022-07-24T11:16:51Z</time>
      </trkpt>
      <trkpt lat="45.79518" lon="6.6439">
        <ele>1906</ele>
        <time>2022-07-24T11:16:52Z</time>
      </trkpt>
      <trkpt lat="45.79519" lon="6.64392">
        <ele>1906</ele>
        <time>2022-07-24T11:16:53Z</time>
      </trkpt>
      <trkpt lat="45.79519" lon="6.64393">
        <ele>1905</ele>
        <time>2022-07-24T11:16:54Z</time>
      </trkpt>
      <trkpt lat="45.7952" lon="6.64395">
        <ele>1905</ele>
        <time>2022-07-24T11:16:55Z</time>
      </trkpt>
      <trkpt lat="45.7952" lon="6.64396">
        <ele>1905</ele>
        <time>2022-07-24T11:16:56Z</time>
      </trkpt>
      <trkpt lat="45.79521" lon="6.64397">
        <ele>1905</ele>
        <time>2022-07-24T11:16:57Z</time>
      </trkpt>
      <trkpt lat="45.79521" lon="6.64399">
        <ele>1905</ele>
        <time>2022-07-24T11:16:58Z</time>
      </trkpt>
      <trkpt lat="45.79521" lon="6.644">
        <ele>1904</ele>
        <time>2022-07-24T11:16:59Z</time>
      </trkpt>
      <trkpt lat="45.79522" lon="6.64401">
        <ele>1904</ele>
        <time>2022-07-24T11:17:00Z</time>
      </trkpt>
      <trkpt lat="45.79522" lon="6.64402">
        <ele>1904</ele>
        <time>2022-07-24T11:17:01Z</time>
      </trkpt>
      <trkpt lat="45.79523" lon="6.64403">
        <ele>1904</ele>
        <time>2022-07-24T11:17:02Z</time>
      </trkpt>
      <trkpt lat="45.79523" lon="6.64405">
        <ele>1904</ele>
        <time>2022-07-24T11:17:03Z</time>
      </trkpt>
      <trkpt lat="45.79524" lon="6.64406">
        <ele>1903</ele>
        <time>2022-07-24T11:17:04Z</time>
      </trkpt>
      <trkpt lat="45.79524" lon="6.64407">
        <ele>1903</ele>
        <time>2022-07-24T11:17:05Z</time>
      </trkpt>
      <trkpt lat="45.79525" lon="6.64408">
        <ele>1903</ele>
        <time>2022-07-24T11:17:06Z</time>
      </trkpt>
      <trkpt lat="45.79525" lon="6.6441">
        <ele>1903</ele>
        <time>2022-07-24T11:17:07Z</time>
      </trkpt>
      <trkpt lat="45.79526" lon="6.64411">
        <ele>1903</ele>
        <time>2022-07-24T11:17:08Z</time>
      </trkpt>
      <trkpt lat="45.79526" lon="6.64412">
        <ele>1902</ele>
        <time>2022-07-24T11:17:09Z</time>
      </trkpt>
      <trkpt lat="45.79527" lon="6.64414">
        <ele>1902</ele>
        <time>2022-07-24T11:17:10Z</time>
      </trkpt>
      <trkpt lat="45.79528" lon="6.64415">
        <ele>1902</ele>
        <time>2022-07-24T11:17:11Z</time>
      </trkpt>
      <trkpt lat="45.79528" lon="6.64417">
        <ele>1902</ele>
        <time>2022-07-24T11:17:12Z</time>
      </trkpt>
      <trkpt lat="45.79529" lon="6.64418">
        <ele>1902</ele>
        <time>2022-07-24T11:17:13Z</time>
      </trkpt>
      <trkpt lat="45.79529" lon="6.64419">
        <ele>1901</ele>
        <time>2022-07-24T11:17:14Z</time>
      </trkpt>
      <trkpt lat="45.7953" lon="6.64421">
        <ele>1901</ele>
        <time>2022-07-24T11:17:15Z</time>
      </trkpt>
      <trkpt lat="45.7953" lon="6.64422">
        <ele>1901</ele>
        <time>2022-07-24T11:17:16Z</time>
      </trkpt>
      <trkpt lat="45.79531" lon="6.64423">
        <ele>1901</ele>
        <time>2022-07-24T11:17:17Z</time>
      </trkpt>
      <trkpt lat="45.79532" lon="6.64424">
        <ele>1901</ele>
        <time>2022-07-24T11:17:18Z</time>
      </trkpt>
      <trkpt lat="45.79533" lon="6.64425">
        <ele>1900</ele>
        <time>2022-07-24T11:17:19Z</time>
      </trkpt>
      <trkpt lat="45.79533" lon="6.64426">
        <ele>1900</ele>
        <time>2022-07-24T11:17:20Z</time>
      </trkpt>
      <trkpt lat="45.79534" lon="6.64427">
        <ele>1900</ele>
        <time>2022-07-24T11:17:21Z</time>
      </trkpt>
      <trkpt lat="45.79535" lon="6.64428">
        <ele>1900</ele>
        <time>2022-07-24T11:17:22Z</time>
      </trkpt>
      <trkpt lat="45.79536" lon="6.64428">
        <ele>1900</ele>
        <time>2022-07-24T11:17:23Z</time>
      </trkpt>
      <trkpt lat="45.79536" lon="6.64429">
        <ele>1899</ele>
        <time>2022-07-24T11:17:24Z</time>
      </trkpt>
      <trkpt lat="45.79537" lon="6.64431">
        <ele>1899</ele>
        <time>2022-07-24T11:17:25Z</time>
      </trkpt>
      <trkpt lat="45.79537" lon="6.64432">
        <ele>1899</ele>
        <time>2022-07-24T11:17:26Z</time>
      </trkpt>
      <trkpt lat="45.79538" lon="6.64433">
        <ele>1899</ele>
        <time>2022-07-24T11:17:27Z</time>
      </trkpt>
      <trkpt lat="45.79538" lon="6.64434">
        <ele>1899</ele>
        <time>2022-07-24T11:17:28Z</time>
      </trkpt>
      <trkpt lat="45.79539" lon="6.64435">
        <ele>1898</ele>
        <time>2022-07-24T11:17:29Z</time>
      </trkpt>
      <trkpt lat="45.79539" lon="6.64436">
        <ele>1898</ele>
        <time>2022-07-24T11:17:30Z</time>
      </trkpt>
      <trkpt lat="45.7954" lon="6.64438">
        <ele>1898</ele>
        <time>2022-07-24T11:17:31Z</time>
      </trkpt>
      <trkpt lat="45.79541" lon="6.64439">
        <ele>1898</ele>
        <time>2022-07-24T11:17:32Z</time>
      </trkpt>
      <trkpt lat="45.79541" lon="6.6444">
        <ele>1898</ele>
        <time>2022-07-24T11:17:33Z</time>
      </trkpt>
      <trkpt lat="45.79542" lon="6.64442">
        <ele>1897</ele>
        <time>2022-07-24T11:17:34Z</time>
      </trkpt>
      <trkpt lat="45.79542" lon="6.64442">
        <ele>1897</ele>
        <time>2022-07-24T11:17:35Z</time>
      </trkpt>
      <trkpt lat="45.79542" lon="6.64443">
        <ele>1897</ele>
        <time>2022-07-24T11:17:36Z</time>
      </trkpt>
      <trkpt lat="45.79542" lon="6.64443">
        <ele>1897</ele>
        <time>2022-07-24T11:17:37Z</time>
      </trkpt>
      <trkpt lat="45.79542" lon="6.64444">
        <ele>1897</ele>
        <time>2022-07-24T11:17:38Z</time>
      </trkpt>
      <trkpt lat="45.79542" lon="6.64445">
        <ele>1896</ele>
        <time>2022-07-24T11:17:39Z</time>
      </trkpt>
      <trkpt lat="45.79542" lon="6.64445">
        <ele>1896</ele>
        <time>2022-07-24T11:17:40Z</time>
      </trkpt>
      <trkpt lat="45.79542" lon="6.64446">
        <ele>1896</ele>
        <time>2022-07-24T11:17:41Z</time>
      </trkpt>
      <trkpt lat="45.79542" lon="6.64447">
        <ele>1896</ele>
        <time>2022-07-24T11:17:42Z</time>
      </trkpt>
      <trkpt lat="45.79542" lon="6.64448">
        <ele>1896</ele>
        <time>2022-07-24T11:17:43Z</time>
      </trkpt>
      <trkpt lat="45.79542" lon="6.6445">
        <ele>1895</ele>
        <time>2022-07-24T11:17:50Z</time>
      </trkpt>
      <trkpt lat="45.79541" lon="6.64451">
        <ele>1895</ele>
        <time>2022-07-24T11:17:51Z</time>
      </trkpt>
      <trkpt lat="45.79541" lon="6.64452">
        <ele>1895</ele>
        <time>2022-07-24T11:17:52Z</time>
      </trkpt>
      <trkpt lat="45.79541" lon="6.64453">
        <ele>1895</ele>
        <time>2022-07-24T11:17:53Z</time>
      </trkpt>
      <trkpt lat="45.79541" lon="6.64454">
        <ele>1895</ele>
        <time>2022-07-24T11:17:54Z</time>
      </trkpt>
      <trkpt lat="45.7954" lon="6.64455">
        <ele>1895</ele>
        <time>2022-07-24T11:17:55Z</time>
      </trkpt>
      <trkpt lat="45.7954" lon="6.64457">
        <ele>1895</ele>
        <time>2022-07-24T11:17:56Z</time>
      </trkpt>
      <trkpt lat="45.79539" lon="6.64458">
        <ele>1895</ele>
        <time>2022-07-24T11:17:57Z</time>
      </trkpt>
      <trkpt lat="45.79539" lon="6.64459">
        <ele>1895</ele>
        <time>2022-07-24T11:17:58Z</time>
      </trkpt>
      <trkpt lat="45.79538" lon="6.6446">
        <ele>1894</ele>
        <time>2022-07-24T11:18:10Z</time>
      </trkpt>
      <trkpt lat="45.79538" lon="6.6446">
        <ele>1894</ele>
        <time>2022-07-24T11:18:11Z</time>
      </trkpt>
      <trkpt lat="45.79538" lon="6.64461">
        <ele>1894</ele>
        <time>2022-07-24T11:18:12Z</time>
      </trkpt>
      <trkpt lat="45.79538" lon="6.64461">
        <ele>1894</ele>
        <time>2022-07-24T11:18:13Z</time>
      </trkpt>
      <trkpt lat="45.79538" lon="6.64461">
        <ele>1893</ele>
        <time>2022-07-24T11:18:14Z</time>
      </trkpt>
      <trkpt lat="45.79539" lon="6.64461">
        <ele>1893</ele>
        <time>2022-07-24T11:18:15Z</time>
      </trkpt>
      <trkpt lat="45.79539" lon="6.64461">
        <ele>1893</ele>
        <time>2022-07-24T11:18:16Z</time>
      </trkpt>
      <trkpt lat="45.79541" lon="6.64461">
        <ele>1892</ele>
        <time>2022-07-24T11:19:30Z</time>
      </trkpt>
      <trkpt lat="45.79542" lon="6.64461">
        <ele>1892</ele>
        <time>2022-07-24T11:19:31Z</time>
      </trkpt>
      <trkpt lat="45.79543" lon="6.64461">
        <ele>1892</ele>
        <time>2022-07-24T11:19:32Z</time>
      </trkpt>
      <trkpt lat="45.79543" lon="6.64462">
        <ele>1892</ele>
        <time>2022-07-24T11:19:33Z</time>
      </trkpt>
      <trkpt lat="45.79543" lon="6.64462">
        <ele>1892</ele>
        <time>2022-07-24T11:19:34Z</time>
      </trkpt>
      <trkpt lat="45.79543" lon="6.64463">
        <ele>1892</ele>
        <time>2022-07-24T11:19:35Z</time>
      </trkpt>
      <trkpt lat="45.79543" lon="6.64464">
        <ele>1892</ele>
        <time>2022-07-24T11:19:36Z</time>
      </trkpt>
      <trkpt lat="45.79543" lon="6.64465">
        <ele>1892</ele>
        <time>2022-07-24T11:19:37Z</time>
      </trkpt>
      <trkpt lat="45.79543" lon="6.64466">
        <ele>1893</ele>
        <time>2022-07-24T11:19:38Z</time>
      </trkpt>
      <trkpt lat="45.79543" lon="6.64468">
        <ele>1893</ele>
        <time>2022-07-24T11:19:39Z</time>
      </trkpt>
      <trkpt lat="45.79543" lon="6.64469">
        <ele>1893</ele>
        <time>2022-07-24T11:19:40Z</time>
      </trkpt>
      <trkpt lat="45.79544" lon="6.64471">
        <ele>1893</ele>
        <time>2022-07-24T11:19:41Z</time>
      </trkpt>
      <trkpt lat="45.79544" lon="6.64472">
        <ele>1893</ele>
        <time>2022-07-24T11:19:42Z</time>
      </trkpt>
      <trkpt lat="45.79544" lon="6.64473">
        <ele>1893</ele>
        <time>2022-07-24T11:19:43Z</time>
      </trkpt>
      <trkpt lat="45.79545" lon="6.64475">
        <ele>1893</ele>
        <time>2022-07-24T11:19:44Z</time>
      </trkpt>
      <trkpt lat="45.79545" lon="6.64476">
        <ele>1893</ele>
        <time>2022-07-24T11:19:45Z</time>
      </trkpt>
      <trkpt lat="45.79546" lon="6.64478">
        <ele>1893</ele>
        <time>2022-07-24T11:19:46Z</time>
      </trkpt>
      <trkpt lat="45.79546" lon="6.6448">
        <ele>1893</ele>
        <time>2022-07-24T11:19:47Z</time>
      </trkpt>
      <trkpt lat="45.79546" lon="6.64481">
        <ele>1893</ele>
        <time>2022-07-24T11:19:48Z</time>
      </trkpt>
      <trkpt lat="45.79547" lon="6.64483">
        <ele>1892</ele>
        <time>2022-07-24T11:19:49Z</time>
      </trkpt>
      <trkpt lat="45.79547" lon="6.64484">
        <ele>1892</ele>
        <time>2022-07-24T11:19:50Z</time>
      </trkpt>
      <trkpt lat="45.79547" lon="6.64486">
        <ele>1892</ele>
        <time>2022-07-24T11:19:51Z</time>
      </trkpt>
      <trkpt lat="45.79548" lon="6.64487">
        <ele>1892</ele>
        <time>2022-07-24T11:19:52Z</time>
      </trkpt>
      <trkpt lat="45.79548" lon="6.64489">
        <ele>1892</ele>
        <time>2022-07-24T11:19:53Z</time>
      </trkpt>
      <trkpt lat="45.79548" lon="6.6449">
        <ele>1892</ele>
        <time>2022-07-24T11:19:54Z</time>
      </trkpt>
      <trkpt lat="45.79549" lon="6.64491">
        <ele>1892</ele>
        <time>2022-07-24T11:19:55Z</time>
      </trkpt>
      <trkpt lat="45.79549" lon="6.64493">
        <ele>1892</ele>
        <time>2022-07-24T11:19:56Z</time>
      </trkpt>
      <trkpt lat="45.7955" lon="6.64494">
        <ele>1892</ele>
        <time>2022-07-24T11:19:57Z</time>
      </trkpt>
      <trkpt lat="45.7955" lon="6.64495">
        <ele>1892</ele>
        <time>2022-07-24T11:19:58Z</time>
      </trkpt>
      <trkpt lat="45.7955" lon="6.64497">
        <ele>1891</ele>
        <time>2022-07-24T11:19:59Z</time>
      </trkpt>
      <trkpt lat="45.7955" lon="6.64498">
        <ele>1891</ele>
        <time>2022-07-24T11:20:00Z</time>
      </trkpt>
      <trkpt lat="45.79551" lon="6.645">
        <ele>1891</ele>
        <time>2022-07-24T11:20:01Z</time>
      </trkpt>
      <trkpt lat="45.79551" lon="6.64502">
        <ele>1891</ele>
        <time>2022-07-24T11:20:02Z</time>
      </trkpt>
      <trkpt lat="45.79551" lon="6.64503">
        <ele>1891</ele>
        <time>2022-07-24T11:20:03Z</time>
      </trkpt>
      <trkpt lat="45.79551" lon="6.64505">
        <ele>1890</ele>
        <time>2022-07-24T11:20:04Z</time>
      </trkpt>
      <trkpt lat="45.79552" lon="6.64506">
        <ele>1890</ele>
        <time>2022-07-24T11:20:05Z</time>
      </trkpt>
      <trkpt lat="45.79552" lon="6.64507">
        <ele>1890</ele>
        <time>2022-07-24T11:20:06Z</time>
      </trkpt>
      <trkpt lat="45.79552" lon="6.64509">
        <ele>1890</ele>
        <time>2022-07-24T11:20:07Z</time>
      </trkpt>
      <trkpt lat="45.79553" lon="6.6451">
        <ele>1890</ele>
        <time>2022-07-24T11:20:08Z</time>
      </trkpt>
      <trkpt lat="45.79553" lon="6.64511">
        <ele>1889</ele>
        <time>2022-07-24T11:20:09Z</time>
      </trkpt>
      <trkpt lat="45.79553" lon="6.64513">
        <ele>1889</ele>
        <time>2022-07-24T11:20:10Z</time>
      </trkpt>
      <trkpt lat="45.79554" lon="6.64514">
        <ele>1889</ele>
        <time>2022-07-24T11:20:11Z</time>
      </trkpt>
      <trkpt lat="45.79554" lon="6.64516">
        <ele>1889</ele>
        <time>2022-07-24T11:20:12Z</time>
      </trkpt>
      <trkpt lat="45.79555" lon="6.64517">
        <ele>1889</ele>
        <time>2022-07-24T11:20:13Z</time>
      </trkpt>
      <trkpt lat="45.79555" lon="6.64518">
        <ele>1889</ele>
        <time>2022-07-24T11:20:14Z</time>
      </trkpt>
      <trkpt lat="45.79555" lon="6.64519">
        <ele>1889</ele>
        <time>2022-07-24T11:20:15Z</time>
      </trkpt>
      <trkpt lat="45.79556" lon="6.64519">
        <ele>1889</ele>
        <time>2022-07-24T11:20:16Z</time>
      </trkpt>
      <trkpt lat="45.79556" lon="6.6452">
        <ele>1889</ele>
        <time>2022-07-24T11:20:17Z</time>
      </trkpt>
      <trkpt lat="45.79557" lon="6.64521">
        <ele>1889</ele>
        <time>2022-07-24T11:20:18Z</time>
      </trkpt>
      <trkpt lat="45.79557" lon="6.64523">
        <ele>1888</ele>
        <time>2022-07-24T11:20:19Z</time>
      </trkpt>
      <trkpt lat="45.79558" lon="6.64524">
        <ele>1888</ele>
        <time>2022-07-24T11:20:20Z</time>
      </trkpt>
      <trkpt lat="45.79558" lon="6.64525">
        <ele>1888</ele>
        <time>2022-07-24T11:20:21Z</time>
      </trkpt>
      <trkpt lat="45.79559" lon="6.64526">
        <ele>1888</ele>
        <time>2022-07-24T11:20:22Z</time>
      </trkpt>
      <trkpt lat="45.79559" lon="6.64527">
        <ele>1888</ele>
        <time>2022-07-24T11:20:23Z</time>
      </trkpt>
      <trkpt lat="45.79559" lon="6.64529">
        <ele>1888</ele>
        <time>2022-07-24T11:20:24Z</time>
      </trkpt>
      <trkpt lat="45.7956" lon="6.6453">
        <ele>1888</ele>
        <time>2022-07-24T11:20:25Z</time>
      </trkpt>
      <trkpt lat="45.7956" lon="6.64532">
        <ele>1888</ele>
        <time>2022-07-24T11:20:26Z</time>
      </trkpt>
      <trkpt lat="45.79561" lon="6.64533">
        <ele>1888</ele>
        <time>2022-07-24T11:20:27Z</time>
      </trkpt>
      <trkpt lat="45.79562" lon="6.64535">
        <ele>1888</ele>
        <time>2022-07-24T11:20:28Z</time>
      </trkpt>
      <trkpt lat="45.79562" lon="6.64537">
        <ele>1888</ele>
        <time>2022-07-24T11:20:29Z</time>
      </trkpt>
      <trkpt lat="45.79563" lon="6.64538">
        <ele>1888</ele>
        <time>2022-07-24T11:20:30Z</time>
      </trkpt>
      <trkpt lat="45.79563" lon="6.6454">
        <ele>1888</ele>
        <time>2022-07-24T11:20:31Z</time>
      </trkpt>
      <trkpt lat="45.79563" lon="6.64541">
        <ele>1888</ele>
        <time>2022-07-24T11:20:32Z</time>
      </trkpt>
      <trkpt lat="45.79564" lon="6.64543">
        <ele>1888</ele>
        <time>2022-07-24T11:20:33Z</time>
      </trkpt>
      <trkpt lat="45.79564" lon="6.64544">
        <ele>1888</ele>
        <time>2022-07-24T11:20:34Z</time>
      </trkpt>
      <trkpt lat="45.79565" lon="6.64545">
        <ele>1888</ele>
        <time>2022-07-24T11:20:35Z</time>
      </trkpt>
      <trkpt lat="45.79565" lon="6.64546">
        <ele>1888</ele>
        <time>2022-07-24T11:20:36Z</time>
      </trkpt>
      <trkpt lat="45.79566" lon="6.64548">
        <ele>1888</ele>
        <time>2022-07-24T11:20:37Z</time>
      </trkpt>
      <trkpt lat="45.79566" lon="6.64549">
        <ele>1888</ele>
        <time>2022-07-24T11:20:38Z</time>
      </trkpt>
      <trkpt lat="45.79567" lon="6.6455">
        <ele>1887</ele>
        <time>2022-07-24T11:20:39Z</time>
      </trkpt>
      <trkpt lat="45.79567" lon="6.64552">
        <ele>1887</ele>
        <time>2022-07-24T11:20:40Z</time>
      </trkpt>
      <trkpt lat="45.79568" lon="6.64554">
        <ele>1887</ele>
        <time>2022-07-24T11:20:41Z</time>
      </trkpt>
      <trkpt lat="45.79568" lon="6.64555">
        <ele>1887</ele>
        <time>2022-07-24T11:20:42Z</time>
      </trkpt>
      <trkpt lat="45.79568" lon="6.64557">
        <ele>1887</ele>
        <time>2022-07-24T11:20:43Z</time>
      </trkpt>
      <trkpt lat="45.79568" lon="6.64559">
        <ele>1887</ele>
        <time>2022-07-24T11:20:44Z</time>
      </trkpt>
      <trkpt lat="45.79568" lon="6.6456">
        <ele>1887</ele>
        <time>2022-07-24T11:20:45Z</time>
      </trkpt>
      <trkpt lat="45.79569" lon="6.64562">
        <ele>1887</ele>
        <time>2022-07-24T11:20:46Z</time>
      </trkpt>
      <trkpt lat="45.79569" lon="6.64564">
        <ele>1887</ele>
        <time>2022-07-24T11:20:47Z</time>
      </trkpt>
      <trkpt lat="45.79569" lon="6.64565">
        <ele>1887</ele>
        <time>2022-07-24T11:20:48Z</time>
      </trkpt>
      <trkpt lat="45.79569" lon="6.64567">
        <ele>1886</ele>
        <time>2022-07-24T11:20:49Z</time>
      </trkpt>
      <trkpt lat="45.79569" lon="6.64568">
        <ele>1886</ele>
        <time>2022-07-24T11:20:50Z</time>
      </trkpt>
      <trkpt lat="45.79569" lon="6.64569">
        <ele>1886</ele>
        <time>2022-07-24T11:20:51Z</time>
      </trkpt>
      <trkpt lat="45.79569" lon="6.64571">
        <ele>1886</ele>
        <time>2022-07-24T11:20:52Z</time>
      </trkpt>
      <trkpt lat="45.79569" lon="6.64572">
        <ele>1886</ele>
        <time>2022-07-24T11:20:53Z</time>
      </trkpt>
      <trkpt lat="45.79569" lon="6.64573">
        <ele>1886</ele>
        <time>2022-07-24T11:20:54Z</time>
      </trkpt>
      <trkpt lat="45.79569" lon="6.64575">
        <ele>1886</ele>
        <time>2022-07-24T11:20:55Z</time>
      </trkpt>
      <trkpt lat="45.7957" lon="6.64576">
        <ele>1886</ele>
        <time>2022-07-24T11:20:56Z</time>
      </trkpt>
      <trkpt lat="45.7957" lon="6.64577">
        <ele>1886</ele>
        <time>2022-07-24T11:20:57Z</time>
      </trkpt>
      <trkpt lat="45.7957" lon="6.64579">
        <ele>1886</ele>
        <time>2022-07-24T11:20:58Z</time>
      </trkpt>
      <trkpt lat="45.79571" lon="6.64581">
        <ele>1885</ele>
        <time>2022-07-24T11:20:59Z</time>
      </trkpt>
      <trkpt lat="45.79571" lon="6.64582">
        <ele>1885</ele>
        <time>2022-07-24T11:21:00Z</time>
      </trkpt>
      <trkpt lat="45.79571" lon="6.64584">
        <ele>1885</ele>
        <time>2022-07-24T11:21:01Z</time>
      </trkpt>
      <trkpt lat="45.79572" lon="6.64585">
        <ele>1885</ele>
        <time>2022-07-24T11:21:02Z</time>
      </trkpt>
      <trkpt lat="45.79572" lon="6.64587">
        <ele>1885</ele>
        <time>2022-07-24T11:21:03Z</time>
      </trkpt>
      <trkpt lat="45.79572" lon="6.64589">
        <ele>1884</ele>
        <time>2022-07-24T11:21:04Z</time>
      </trkpt>
      <trkpt lat="45.79572" lon="6.6459">
        <ele>1884</ele>
        <time>2022-07-24T11:21:05Z</time>
      </trkpt>
      <trkpt lat="45.79572" lon="6.64591">
        <ele>1884</ele>
        <time>2022-07-24T11:21:06Z</time>
      </trkpt>
      <trkpt lat="45.79571" lon="6.64593">
        <ele>1884</ele>
        <time>2022-07-24T11:21:07Z</time>
      </trkpt>
      <trkpt lat="45.79571" lon="6.64594">
        <ele>1884</ele>
        <time>2022-07-24T11:21:08Z</time>
      </trkpt>
      <trkpt lat="45.79571" lon="6.64595">
        <ele>1883</ele>
        <time>2022-07-24T11:21:09Z</time>
      </trkpt>
      <trkpt lat="45.7957" lon="6.64596">
        <ele>1883</ele>
        <time>2022-07-24T11:21:10Z</time>
      </trkpt>
      <trkpt lat="45.7957" lon="6.64598">
        <ele>1883</ele>
        <time>2022-07-24T11:21:11Z</time>
      </trkpt>
      <trkpt lat="45.7957" lon="6.64599">
        <ele>1883</ele>
        <time>2022-07-24T11:21:12Z</time>
      </trkpt>
      <trkpt lat="45.7957" lon="6.64601">
        <ele>1883</ele>
        <time>2022-07-24T11:21:13Z</time>
      </trkpt>
      <trkpt lat="45.7957" lon="6.64603">
        <ele>1882</ele>
        <time>2022-07-24T11:21:14Z</time>
      </trkpt>
      <trkpt lat="45.7957" lon="6.64605">
        <ele>1881</ele>
        <time>2022-07-24T11:21:15Z</time>
      </trkpt>
      <trkpt lat="45.7957" lon="6.64606">
        <ele>1881</ele>
        <time>2022-07-24T11:21:16Z</time>
      </trkpt>
      <trkpt lat="45.79569" lon="6.64608">
        <ele>1880</ele>
        <time>2022-07-24T11:21:17Z</time>
      </trkpt>
      <trkpt lat="45.79569" lon="6.6461">
        <ele>1880</ele>
        <time>2022-07-24T11:21:18Z</time>
      </trkpt>
      <trkpt lat="45.79568" lon="6.6461">
        <ele>1880</ele>
        <time>2022-07-24T11:21:19Z</time>
      </trkpt>
      <trkpt lat="45.79567" lon="6.64611">
        <ele>1880</ele>
        <time>2022-07-24T11:21:20Z</time>
      </trkpt>
      <trkpt lat="45.79566" lon="6.64612">
        <ele>1880</ele>
        <time>2022-07-24T11:21:21Z</time>
      </trkpt>
      <trkpt lat="45.79565" lon="6.64612">
        <ele>1880</ele>
        <time>2022-07-24T11:21:22Z</time>
      </trkpt>
      <trkpt lat="45.79564" lon="6.64613">
        <ele>1880</ele>
        <time>2022-07-24T11:21:23Z</time>
      </trkpt>
      <trkpt lat="45.79563" lon="6.64614">
        <ele>1879</ele>
        <time>2022-07-24T11:21:24Z</time>
      </trkpt>
      <trkpt lat="45.79562" lon="6.64615">
        <ele>1879</ele>
        <time>2022-07-24T11:21:25Z</time>
      </trkpt>
      <trkpt lat="45.79561" lon="6.64616">
        <ele>1878</ele>
        <time>2022-07-24T11:21:26Z</time>
      </trkpt>
      <trkpt lat="45.79561" lon="6.64617">
        <ele>1878</ele>
        <time>2022-07-24T11:21:27Z</time>
      </trkpt>
      <trkpt lat="45.7956" lon="6.64618">
        <ele>1878</ele>
        <time>2022-07-24T11:21:28Z</time>
      </trkpt>
      <trkpt lat="45.79559" lon="6.6462">
        <ele>1877</ele>
        <time>2022-07-24T11:21:29Z</time>
      </trkpt>
      <trkpt lat="45.79558" lon="6.64621">
        <ele>1877</ele>
        <time>2022-07-24T11:21:30Z</time>
      </trkpt>
      <trkpt lat="45.79557" lon="6.64622">
        <ele>1877</ele>
        <time>2022-07-24T11:21:31Z</time>
      </trkpt>
      <trkpt lat="45.79556" lon="6.64623">
        <ele>1877</ele>
        <time>2022-07-24T11:21:32Z</time>
      </trkpt>
      <trkpt lat="45.79555" lon="6.64625">
        <ele>1877</ele>
        <time>2022-07-24T11:21:33Z</time>
      </trkpt>
      <trkpt lat="45.79555" lon="6.64626">
        <ele>1877</ele>
        <time>2022-07-24T11:21:34Z</time>
      </trkpt>
      <trkpt lat="45.79554" lon="6.64627">
        <ele>1877</ele>
        <time>2022-07-24T11:21:35Z</time>
      </trkpt>
      <trkpt lat="45.79553" lon="6.64627">
        <ele>1877</ele>
        <time>2022-07-24T11:21:36Z</time>
      </trkpt>
      <trkpt lat="45.79552" lon="6.64628">
        <ele>1877</ele>
        <time>2022-07-24T11:21:37Z</time>
      </trkpt>
      <trkpt lat="45.79551" lon="6.64629">
        <ele>1877</ele>
        <time>2022-07-24T11:21:38Z</time>
      </trkpt>
      <trkpt lat="45.79551" lon="6.6463">
        <ele>1877</ele>
        <time>2022-07-24T11:21:39Z</time>
      </trkpt>
      <trkpt lat="45.7955" lon="6.64631">
        <ele>1877</ele>
        <time>2022-07-24T11:21:40Z</time>
      </trkpt>
      <trkpt lat="45.79549" lon="6.64632">
        <ele>1877</ele>
        <time>2022-07-24T11:21:41Z</time>
      </trkpt>
      <trkpt lat="45.79548" lon="6.64633">
        <ele>1877</ele>
        <time>2022-07-24T11:21:42Z</time>
      </trkpt>
      <trkpt lat="45.79548" lon="6.64634">
        <ele>1877</ele>
        <time>2022-07-24T11:21:43Z</time>
      </trkpt>
      <trkpt lat="45.79547" lon="6.64635">
        <ele>1876</ele>
        <time>2022-07-24T11:21:44Z</time>
      </trkpt>
      <trkpt lat="45.79547" lon="6.64637">
        <ele>1876</ele>
        <time>2022-07-24T11:21:45Z</time>
      </trkpt>
      <trkpt lat="45.79546" lon="6.64638">
        <ele>1876</ele>
        <time>2022-07-24T11:21:46Z</time>
      </trkpt>
      <trkpt lat="45.79545" lon="6.64639">
        <ele>1876</ele>
        <time>2022-07-24T11:21:47Z</time>
      </trkpt>
      <trkpt lat="45.79545" lon="6.6464">
        <ele>1876</ele>
        <time>2022-07-24T11:21:48Z</time>
      </trkpt>
      <trkpt lat="45.79544" lon="6.64641">
        <ele>1875</ele>
        <time>2022-07-24T11:21:49Z</time>
      </trkpt>
      <trkpt lat="45.79543" lon="6.64643">
        <ele>1875</ele>
        <time>2022-07-24T11:21:50Z</time>
      </trkpt>
      <trkpt lat="45.79542" lon="6.64644">
        <ele>1875</ele>
        <time>2022-07-24T11:21:51Z</time>
      </trkpt>
      <trkpt lat="45.79541" lon="6.64645">
        <ele>1875</ele>
        <time>2022-07-24T11:21:52Z</time>
      </trkpt>
      <trkpt lat="45.79541" lon="6.64647">
        <ele>1875</ele>
        <time>2022-07-24T11:21:53Z</time>
      </trkpt>
      <trkpt lat="45.7954" lon="6.64648">
        <ele>1874</ele>
        <time>2022-07-24T11:21:54Z</time>
      </trkpt>
      <trkpt lat="45.79539" lon="6.6465">
        <ele>1874</ele>
        <time>2022-07-24T11:21:55Z</time>
      </trkpt>
      <trkpt lat="45.79539" lon="6.64651">
        <ele>1874</ele>
        <time>2022-07-24T11:21:56Z</time>
      </trkpt>
      <trkpt lat="45.79538" lon="6.64653">
        <ele>1874</ele>
        <time>2022-07-24T11:21:57Z</time>
      </trkpt>
      <trkpt lat="45.79538" lon="6.64654">
        <ele>1874</ele>
        <time>2022-07-24T11:21:58Z</time>
      </trkpt>
      <trkpt lat="45.79537" lon="6.64656">
        <ele>1873</ele>
        <time>2022-07-24T11:21:59Z</time>
      </trkpt>
      <trkpt lat="45.79537" lon="6.64657">
        <ele>1873</ele>
        <time>2022-07-24T11:22:00Z</time>
      </trkpt>
      <trkpt lat="45.79536" lon="6.64659">
        <ele>1873</ele>
        <time>2022-07-24T11:22:01Z</time>
      </trkpt>
      <trkpt lat="45.79536" lon="6.6466">
        <ele>1873</ele>
        <time>2022-07-24T11:22:02Z</time>
      </trkpt>
      <trkpt lat="45.79535" lon="6.64662">
        <ele>1873</ele>
        <time>2022-07-24T11:22:03Z</time>
      </trkpt>
      <trkpt lat="45.79534" lon="6.64663">
        <ele>1872</ele>
        <time>2022-07-24T11:22:04Z</time>
      </trkpt>
      <trkpt lat="45.79534" lon="6.64665">
        <ele>1872</ele>
        <time>2022-07-24T11:22:05Z</time>
      </trkpt>
      <trkpt lat="45.79533" lon="6.64667">
        <ele>1872</ele>
        <time>2022-07-24T11:22:06Z</time>
      </trkpt>
      <trkpt lat="45.79532" lon="6.64668">
        <ele>1872</ele>
        <time>2022-07-24T11:22:07Z</time>
      </trkpt>
      <trkpt lat="45.79532" lon="6.6467">
        <ele>1872</ele>
        <time>2022-07-24T11:22:08Z</time>
      </trkpt>
      <trkpt lat="45.79531" lon="6.64671">
        <ele>1872</ele>
        <time>2022-07-24T11:22:09Z</time>
      </trkpt>
      <trkpt lat="45.7953" lon="6.64673">
        <ele>1872</ele>
        <time>2022-07-24T11:22:10Z</time>
      </trkpt>
      <trkpt lat="45.7953" lon="6.64675">
        <ele>1872</ele>
        <time>2022-07-24T11:22:11Z</time>
      </trkpt>
      <trkpt lat="45.79529" lon="6.64676">
        <ele>1872</ele>
        <time>2022-07-24T11:22:12Z</time>
      </trkpt>
      <trkpt lat="45.79529" lon="6.64678">
        <ele>1872</ele>
        <time>2022-07-24T11:22:13Z</time>
      </trkpt>
      <trkpt lat="45.79528" lon="6.6468">
        <ele>1871</ele>
        <time>2022-07-24T11:22:14Z</time>
      </trkpt>
      <trkpt lat="45.79528" lon="6.64681">
        <ele>1871</ele>
        <time>2022-07-24T11:22:15Z</time>
      </trkpt>
      <trkpt lat="45.79527" lon="6.64683">
        <ele>1871</ele>
        <time>2022-07-24T11:22:16Z</time>
      </trkpt>
      <trkpt lat="45.79527" lon="6.64684">
        <ele>1871</ele>
        <time>2022-07-24T11:22:17Z</time>
      </trkpt>
      <trkpt lat="45.79526" lon="6.64685">
        <ele>1871</ele>
        <time>2022-07-24T11:22:18Z</time>
      </trkpt>
      <trkpt lat="45.79526" lon="6.64687">
        <ele>1870</ele>
        <time>2022-07-24T11:22:19Z</time>
      </trkpt>
      <trkpt lat="45.79525" lon="6.64688">
        <ele>1870</ele>
        <time>2022-07-24T11:22:20Z</time>
      </trkpt>
      <trkpt lat="45.79524" lon="6.6469">
        <ele>1870</ele>
        <time>2022-07-24T11:22:21Z</time>
      </trkpt>
      <trkpt lat="45.79524" lon="6.64691">
        <ele>1870</ele>
        <time>2022-07-24T11:22:22Z</time>
      </trkpt>
      <trkpt lat="45.79523" lon="6.64692">
        <ele>1870</ele>
        <time>2022-07-24T11:22:23Z</time>
      </trkpt>
      <trkpt lat="45.79523" lon="6.64694">
        <ele>1869</ele>
        <time>2022-07-24T11:22:24Z</time>
      </trkpt>
      <trkpt lat="45.79522" lon="6.64695">
        <ele>1869</ele>
        <time>2022-07-24T11:22:25Z</time>
      </trkpt>
      <trkpt lat="45.79521" lon="6.64696">
        <ele>1869</ele>
        <time>2022-07-24T11:22:26Z</time>
      </trkpt>
      <trkpt lat="45.7952" lon="6.64696">
        <ele>1869</ele>
        <time>2022-07-24T11:22:27Z</time>
      </trkpt>
      <trkpt lat="45.79519" lon="6.64697">
        <ele>1869</ele>
        <time>2022-07-24T11:22:28Z</time>
      </trkpt>
      <trkpt lat="45.79518" lon="6.64698">
        <ele>1868</ele>
        <time>2022-07-24T11:22:29Z</time>
      </trkpt>
      <trkpt lat="45.79517" lon="6.64698">
        <ele>1868</ele>
        <time>2022-07-24T11:22:30Z</time>
      </trkpt>
      <trkpt lat="45.79516" lon="6.64699">
        <ele>1868</ele>
        <time>2022-07-24T11:22:31Z</time>
      </trkpt>
      <trkpt lat="45.79515" lon="6.647">
        <ele>1868</ele>
        <time>2022-07-24T11:22:32Z</time>
      </trkpt>
      <trkpt lat="45.79514" lon="6.64701">
        <ele>1868</ele>
        <time>2022-07-24T11:22:33Z</time>
      </trkpt>
      <trkpt lat="45.79513" lon="6.64702">
        <ele>1867</ele>
        <time>2022-07-24T11:22:34Z</time>
      </trkpt>
      <trkpt lat="45.79512" lon="6.64703">
        <ele>1867</ele>
        <time>2022-07-24T11:22:35Z</time>
      </trkpt>
      <trkpt lat="45.79511" lon="6.64704">
        <ele>1867</ele>
        <time>2022-07-24T11:22:36Z</time>
      </trkpt>
      <trkpt lat="45.7951" lon="6.64704">
        <ele>1867</ele>
        <time>2022-07-24T11:22:37Z</time>
      </trkpt>
      <trkpt lat="45.79509" lon="6.64705">
        <ele>1867</ele>
        <time>2022-07-24T11:22:38Z</time>
      </trkpt>
      <trkpt lat="45.79508" lon="6.64706">
        <ele>1866</ele>
        <time>2022-07-24T11:22:39Z</time>
      </trkpt>
      <trkpt lat="45.79507" lon="6.64706">
        <ele>1866</ele>
        <time>2022-07-24T11:22:40Z</time>
      </trkpt>
      <trkpt lat="45.79506" lon="6.64707">
        <ele>1866</ele>
        <time>2022-07-24T11:22:41Z</time>
      </trkpt>
      <trkpt lat="45.79505" lon="6.64708">
        <ele>1866</ele>
        <time>2022-07-24T11:22:42Z</time>
      </trkpt>
      <trkpt lat="45.79504" lon="6.64708">
        <ele>1866</ele>
        <time>2022-07-24T11:22:43Z</time>
      </trkpt>
      <trkpt lat="45.79503" lon="6.64709">
        <ele>1865</ele>
        <time>2022-07-24T11:22:44Z</time>
      </trkpt>
      <trkpt lat="45.79503" lon="6.6471">
        <ele>1865</ele>
        <time>2022-07-24T11:22:45Z</time>
      </trkpt>
      <trkpt lat="45.79502" lon="6.64711">
        <ele>1865</ele>
        <time>2022-07-24T11:22:46Z</time>
      </trkpt>
      <trkpt lat="45.79501" lon="6.64712">
        <ele>1865</ele>
        <time>2022-07-24T11:22:47Z</time>
      </trkpt>
      <trkpt lat="45.795" lon="6.64713">
        <ele>1865</ele>
        <time>2022-07-24T11:22:48Z</time>
      </trkpt>
      <trkpt lat="45.79499" lon="6.64714">
        <ele>1864</ele>
        <time>2022-07-24T11:22:49Z</time>
      </trkpt>
      <trkpt lat="45.79498" lon="6.64715">
        <ele>1864</ele>
        <time>2022-07-24T11:22:50Z</time>
      </trkpt>
      <trkpt lat="45.79497" lon="6.64716">
        <ele>1864</ele>
        <time>2022-07-24T11:22:51Z</time>
      </trkpt>
      <trkpt lat="45.79497" lon="6.64717">
        <ele>1864</ele>
        <time>2022-07-24T11:22:52Z</time>
      </trkpt>
      <trkpt lat="45.79496" lon="6.64718">
        <ele>1864</ele>
        <time>2022-07-24T11:22:53Z</time>
      </trkpt>
      <trkpt lat="45.79495" lon="6.64719">
        <ele>1863</ele>
        <time>2022-07-24T11:22:54Z</time>
      </trkpt>
      <trkpt lat="45.79494" lon="6.64721">
        <ele>1863</ele>
        <time>2022-07-24T11:22:55Z</time>
      </trkpt>
      <trkpt lat="45.79493" lon="6.64722">
        <ele>1863</ele>
        <time>2022-07-24T11:22:56Z</time>
      </trkpt>
      <trkpt lat="45.79492" lon="6.64723">
        <ele>1863</ele>
        <time>2022-07-24T11:22:57Z</time>
      </trkpt>
      <trkpt lat="45.79491" lon="6.64724">
        <ele>1863</ele>
        <time>2022-07-24T11:22:58Z</time>
      </trkpt>
      <trkpt lat="45.79491" lon="6.64725">
        <ele>1862</ele>
        <time>2022-07-24T11:22:59Z</time>
      </trkpt>
      <trkpt lat="45.7949" lon="6.64726">
        <ele>1862</ele>
        <time>2022-07-24T11:23:00Z</time>
      </trkpt>
      <trkpt lat="45.79489" lon="6.64727">
        <ele>1862</ele>
        <time>2022-07-24T11:23:01Z</time>
      </trkpt>
      <trkpt lat="45.79489" lon="6.64729">
        <ele>1862</ele>
        <time>2022-07-24T11:23:02Z</time>
      </trkpt>
      <trkpt lat="45.79488" lon="6.6473">
        <ele>1862</ele>
        <time>2022-07-24T11:23:03Z</time>
      </trkpt>
      <trkpt lat="45.79487" lon="6.64731">
        <ele>1861</ele>
        <time>2022-07-24T11:23:04Z</time>
      </trkpt>
      <trkpt lat="45.79487" lon="6.64732">
        <ele>1861</ele>
        <time>2022-07-24T11:23:05Z</time>
      </trkpt>
      <trkpt lat="45.79486" lon="6.64734">
        <ele>1861</ele>
        <time>2022-07-24T11:23:06Z</time>
      </trkpt>
      <trkpt lat="45.79485" lon="6.64735">
        <ele>1861</ele>
        <time>2022-07-24T11:23:07Z</time>
      </trkpt>
      <trkpt lat="45.79485" lon="6.64736">
        <ele>1861</ele>
        <time>2022-07-24T11:23:08Z</time>
      </trkpt>
      <trkpt lat="45.79484" lon="6.64737">
        <ele>1860</ele>
        <time>2022-07-24T11:23:09Z</time>
      </trkpt>
      <trkpt lat="45.79483" lon="6.64738">
        <ele>1860</ele>
        <time>2022-07-24T11:23:10Z</time>
      </trkpt>
      <trkpt lat="45.79483" lon="6.64739">
        <ele>1860</ele>
        <time>2022-07-24T11:23:11Z</time>
      </trkpt>
      <trkpt lat="45.79482" lon="6.6474">
        <ele>1860</ele>
        <time>2022-07-24T11:23:12Z</time>
      </trkpt>
      <trkpt lat="45.79482" lon="6.64741">
        <ele>1860</ele>
        <time>2022-07-24T11:23:13Z</time>
      </trkpt>
      <trkpt lat="45.79481" lon="6.64742">
        <ele>1859</ele>
        <time>2022-07-24T11:23:14Z</time>
      </trkpt>
      <trkpt lat="45.79481" lon="6.64743">
        <ele>1859</ele>
        <time>2022-07-24T11:23:15Z</time>
      </trkpt>
      <trkpt lat="45.7948" lon="6.64744">
        <ele>1859</ele>
        <time>2022-07-24T11:23:16Z</time>
      </trkpt>
      <trkpt lat="45.7948" lon="6.64745">
        <ele>1859</ele>
        <time>2022-07-24T11:23:17Z</time>
      </trkpt>
      <trkpt lat="45.79479" lon="6.64746">
        <ele>1859</ele>
        <time>2022-07-24T11:23:18Z</time>
      </trkpt>
      <trkpt lat="45.79478" lon="6.64746">
        <ele>1858</ele>
        <time>2022-07-24T11:23:19Z</time>
      </trkpt>
      <trkpt lat="45.79478" lon="6.64747">
        <ele>1858</ele>
        <time>2022-07-24T11:23:20Z</time>
      </trkpt>
      <trkpt lat="45.79477" lon="6.64748">
        <ele>1857</ele>
        <time>2022-07-24T11:23:21Z</time>
      </trkpt>
      <trkpt lat="45.79476" lon="6.64749">
        <ele>1857</ele>
        <time>2022-07-24T11:23:22Z</time>
      </trkpt>
      <trkpt lat="45.79476" lon="6.6475">
        <ele>1857</ele>
        <time>2022-07-24T11:23:23Z</time>
      </trkpt>
      <trkpt lat="45.79475" lon="6.64751">
        <ele>1856</ele>
        <time>2022-07-24T11:23:24Z</time>
      </trkpt>
      <trkpt lat="45.79474" lon="6.64751">
        <ele>1856</ele>
        <time>2022-07-24T11:23:25Z</time>
      </trkpt>
      <trkpt lat="45.79473" lon="6.64752">
        <ele>1856</ele>
        <time>2022-07-24T11:23:26Z</time>
      </trkpt>
      <trkpt lat="45.79472" lon="6.64753">
        <ele>1856</ele>
        <time>2022-07-24T11:23:27Z</time>
      </trkpt>
      <trkpt lat="45.79471" lon="6.64753">
        <ele>1856</ele>
        <time>2022-07-24T11:23:28Z</time>
      </trkpt>
      <trkpt lat="45.7947" lon="6.64753">
        <ele>1855</ele>
        <time>2022-07-24T11:23:29Z</time>
      </trkpt>
      <trkpt lat="45.79469" lon="6.64754">
        <ele>1855</ele>
        <time>2022-07-24T11:23:30Z</time>
      </trkpt>
      <trkpt lat="45.79468" lon="6.64754">
        <ele>1855</ele>
        <time>2022-07-24T11:23:31Z</time>
      </trkpt>
      <trkpt lat="45.79467" lon="6.64755">
        <ele>1855</ele>
        <time>2022-07-24T11:23:32Z</time>
      </trkpt>
      <trkpt lat="45.79467" lon="6.64756">
        <ele>1855</ele>
        <time>2022-07-24T11:23:33Z</time>
      </trkpt>
      <trkpt lat="45.79466" lon="6.64757">
        <ele>1854</ele>
        <time>2022-07-24T11:23:34Z</time>
      </trkpt>
      <trkpt lat="45.79466" lon="6.64758">
        <ele>1854</ele>
        <time>2022-07-24T11:23:35Z</time>
      </trkpt>
      <trkpt lat="45.79465" lon="6.6476">
        <ele>1854</ele>
        <time>2022-07-24T11:23:36Z</time>
      </trkpt>
      <trkpt lat="45.79465" lon="6.64761">
        <ele>1854</ele>
        <time>2022-07-24T11:23:37Z</time>
      </trkpt>
      <trkpt lat="45.79465" lon="6.64763">
        <ele>1854</ele>
        <time>2022-07-24T11:23:38Z</time>
      </trkpt>
      <trkpt lat="45.79464" lon="6.64765">
        <ele>1853</ele>
        <time>2022-07-24T11:23:39Z</time>
      </trkpt>
      <trkpt lat="45.79464" lon="6.64766">
        <ele>1853</ele>
        <time>2022-07-24T11:23:40Z</time>
      </trkpt>
      <trkpt lat="45.79464" lon="6.64768">
        <ele>1853</ele>
        <time>2022-07-24T11:23:41Z</time>
      </trkpt>
      <trkpt lat="45.79463" lon="6.6477">
        <ele>1853</ele>
        <time>2022-07-24T11:23:42Z</time>
      </trkpt>
      <trkpt lat="45.79463" lon="6.64771">
        <ele>1853</ele>
        <time>2022-07-24T11:23:43Z</time>
      </trkpt>
      <trkpt lat="45.79462" lon="6.64773">
        <ele>1852</ele>
        <time>2022-07-24T11:23:44Z</time>
      </trkpt>
      <trkpt lat="45.79461" lon="6.64775">
        <ele>1852</ele>
        <time>2022-07-24T11:23:45Z</time>
      </trkpt>
      <trkpt lat="45.7946" lon="6.64776">
        <ele>1851</ele>
        <time>2022-07-24T11:23:46Z</time>
      </trkpt>
      <trkpt lat="45.79459" lon="6.64777">
        <ele>1851</ele>
        <time>2022-07-24T11:23:47Z</time>
      </trkpt>
      <trkpt lat="45.79459" lon="6.64779">
        <ele>1851</ele>
        <time>2022-07-24T11:23:48Z</time>
      </trkpt>
      <trkpt lat="45.79458" lon="6.64781">
        <ele>1851</ele>
        <time>2022-07-24T11:23:49Z</time>
      </trkpt>
      <trkpt lat="45.79458" lon="6.64782">
        <ele>1851</ele>
        <time>2022-07-24T11:23:50Z</time>
      </trkpt>
      <trkpt lat="45.79457" lon="6.64784">
        <ele>1851</ele>
        <time>2022-07-24T11:23:51Z</time>
      </trkpt>
      <trkpt lat="45.79456" lon="6.64785">
        <ele>1851</ele>
        <time>2022-07-24T11:23:52Z</time>
      </trkpt>
      <trkpt lat="45.79456" lon="6.64787">
        <ele>1851</ele>
        <time>2022-07-24T11:23:53Z</time>
      </trkpt>
      <trkpt lat="45.79456" lon="6.64788">
        <ele>1851</ele>
        <time>2022-07-24T11:23:54Z</time>
      </trkpt>
      <trkpt lat="45.79455" lon="6.6479">
        <ele>1851</ele>
        <time>2022-07-24T11:23:55Z</time>
      </trkpt>
      <trkpt lat="45.79455" lon="6.64791">
        <ele>1851</ele>
        <time>2022-07-24T11:23:56Z</time>
      </trkpt>
      <trkpt lat="45.79454" lon="6.64793">
        <ele>1851</ele>
        <time>2022-07-24T11:23:57Z</time>
      </trkpt>
      <trkpt lat="45.79454" lon="6.64794">
        <ele>1851</ele>
        <time>2022-07-24T11:23:58Z</time>
      </trkpt>
      <trkpt lat="45.79454" lon="6.64796">
        <ele>1850</ele>
        <time>2022-07-24T11:23:59Z</time>
      </trkpt>
      <trkpt lat="45.79453" lon="6.64797">
        <ele>1850</ele>
        <time>2022-07-24T11:24:00Z</time>
      </trkpt>
      <trkpt lat="45.79453" lon="6.64799">
        <ele>1849</ele>
        <time>2022-07-24T11:24:01Z</time>
      </trkpt>
      <trkpt lat="45.79453" lon="6.648">
        <ele>1849</ele>
        <time>2022-07-24T11:24:02Z</time>
      </trkpt>
      <trkpt lat="45.79453" lon="6.64801">
        <ele>1849</ele>
        <time>2022-07-24T11:24:03Z</time>
      </trkpt>
      <trkpt lat="45.79452" lon="6.64803">
        <ele>1849</ele>
        <time>2022-07-24T11:24:04Z</time>
      </trkpt>
      <trkpt lat="45.79452" lon="6.64804">
        <ele>1849</ele>
        <time>2022-07-24T11:24:05Z</time>
      </trkpt>
      <trkpt lat="45.79452" lon="6.64805">
        <ele>1849</ele>
        <time>2022-07-24T11:24:06Z</time>
      </trkpt>
      <trkpt lat="45.79452" lon="6.64807">
        <ele>1849</ele>
        <time>2022-07-24T11:24:07Z</time>
      </trkpt>
      <trkpt lat="45.79452" lon="6.64808">
        <ele>1849</ele>
        <time>2022-07-24T11:24:08Z</time>
      </trkpt>
      <trkpt lat="45.79452" lon="6.64809">
        <ele>1849</ele>
        <time>2022-07-24T11:24:09Z</time>
      </trkpt>
      <trkpt lat="45.79453" lon="6.6481">
        <ele>1849</ele>
        <time>2022-07-24T11:24:10Z</time>
      </trkpt>
      <trkpt lat="45.79453" lon="6.64811">
        <ele>1849</ele>
        <time>2022-07-24T11:24:11Z</time>
      </trkpt>
      <trkpt lat="45.79453" lon="6.64812">
        <ele>1849</ele>
        <time>2022-07-24T11:24:12Z</time>
      </trkpt>
      <trkpt lat="45.79453" lon="6.64814">
        <ele>1849</ele>
        <time>2022-07-24T11:24:13Z</time>
      </trkpt>
      <trkpt lat="45.79453" lon="6.64815">
        <ele>1849</ele>
        <time>2022-07-24T11:24:14Z</time>
      </trkpt>
      <trkpt lat="45.79452" lon="6.64816">
        <ele>1849</ele>
        <time>2022-07-24T11:24:15Z</time>
      </trkpt>
      <trkpt lat="45.79452" lon="6.64816">
        <ele>1849</ele>
        <time>2022-07-24T11:24:16Z</time>
      </trkpt>
      <trkpt lat="45.79451" lon="6.64817">
        <ele>1849</ele>
        <time>2022-07-24T11:24:17Z</time>
      </trkpt>
      <trkpt lat="45.7945" lon="6.64818">
        <ele>1849</ele>
        <time>2022-07-24T11:24:18Z</time>
      </trkpt>
      <trkpt lat="45.79449" lon="6.64818">
        <ele>1849</ele>
        <time>2022-07-24T11:24:19Z</time>
      </trkpt>
      <trkpt lat="45.79448" lon="6.64819">
        <ele>1849</ele>
        <time>2022-07-24T11:24:20Z</time>
      </trkpt>
      <trkpt lat="45.79447" lon="6.6482">
        <ele>1849</ele>
        <time>2022-07-24T11:24:21Z</time>
      </trkpt>
      <trkpt lat="45.79447" lon="6.6482">
        <ele>1849</ele>
        <time>2022-07-24T11:24:22Z</time>
      </trkpt>
      <trkpt lat="45.79446" lon="6.64821">
        <ele>1849</ele>
        <time>2022-07-24T11:24:23Z</time>
      </trkpt>
      <trkpt lat="45.79445" lon="6.64822">
        <ele>1849</ele>
        <time>2022-07-24T11:24:24Z</time>
      </trkpt>
      <trkpt lat="45.79445" lon="6.64823">
        <ele>1849</ele>
        <time>2022-07-24T11:24:25Z</time>
      </trkpt>
      <trkpt lat="45.79444" lon="6.64825">
        <ele>1849</ele>
        <time>2022-07-24T11:24:26Z</time>
      </trkpt>
      <trkpt lat="45.79443" lon="6.64826">
        <ele>1849</ele>
        <time>2022-07-24T11:24:27Z</time>
      </trkpt>
      <trkpt lat="45.79443" lon="6.64828">
        <ele>1849</ele>
        <time>2022-07-24T11:24:28Z</time>
      </trkpt>
      <trkpt lat="45.79442" lon="6.64829">
        <ele>1849</ele>
        <time>2022-07-24T11:24:29Z</time>
      </trkpt>
      <trkpt lat="45.79442" lon="6.64831">
        <ele>1849</ele>
        <time>2022-07-24T11:24:30Z</time>
      </trkpt>
      <trkpt lat="45.79441" lon="6.64832">
        <ele>1849</ele>
        <time>2022-07-24T11:24:31Z</time>
      </trkpt>
      <trkpt lat="45.7944" lon="6.64834">
        <ele>1849</ele>
        <time>2022-07-24T11:24:32Z</time>
      </trkpt>
      <trkpt lat="45.7944" lon="6.64835">
        <ele>1849</ele>
        <time>2022-07-24T11:24:33Z</time>
      </trkpt>
      <trkpt lat="45.79439" lon="6.64837">
        <ele>1849</ele>
        <time>2022-07-24T11:24:34Z</time>
      </trkpt>
      <trkpt lat="45.79438" lon="6.64838">
        <ele>1849</ele>
        <time>2022-07-24T11:24:35Z</time>
      </trkpt>
      <trkpt lat="45.79437" lon="6.64839">
        <ele>1849</ele>
        <time>2022-07-24T11:24:36Z</time>
      </trkpt>
      <trkpt lat="45.79436" lon="6.6484">
        <ele>1849</ele>
        <time>2022-07-24T11:24:37Z</time>
      </trkpt>
      <trkpt lat="45.79435" lon="6.64841">
        <ele>1849</ele>
        <time>2022-07-24T11:24:38Z</time>
      </trkpt>
      <trkpt lat="45.79434" lon="6.64841">
        <ele>1849</ele>
        <time>2022-07-24T11:24:39Z</time>
      </trkpt>
      <trkpt lat="45.79432" lon="6.64842">
        <ele>1849</ele>
        <time>2022-07-24T11:24:40Z</time>
      </trkpt>
      <trkpt lat="45.79431" lon="6.64843">
        <ele>1849</ele>
        <time>2022-07-24T11:24:41Z</time>
      </trkpt>
      <trkpt lat="45.7943" lon="6.64843">
        <ele>1849</ele>
        <time>2022-07-24T11:24:42Z</time>
      </trkpt>
      <trkpt lat="45.79429" lon="6.64844">
        <ele>1849</ele>
        <time>2022-07-24T11:24:43Z</time>
      </trkpt>
      <trkpt lat="45.79428" lon="6.64845">
        <ele>1849</ele>
        <time>2022-07-24T11:24:44Z</time>
      </trkpt>
      <trkpt lat="45.79427" lon="6.64846">
        <ele>1849</ele>
        <time>2022-07-24T11:24:45Z</time>
      </trkpt>
      <trkpt lat="45.79426" lon="6.64847">
        <ele>1849</ele>
        <time>2022-07-24T11:24:46Z</time>
      </trkpt>
      <trkpt lat="45.79425" lon="6.64848">
        <ele>1849</ele>
        <time>2022-07-24T11:24:47Z</time>
      </trkpt>
      <trkpt lat="45.79424" lon="6.64849">
        <ele>1849</ele>
        <time>2022-07-24T11:24:48Z</time>
      </trkpt>
      <trkpt lat="45.79423" lon="6.6485">
        <ele>1849</ele>
        <time>2022-07-24T11:24:49Z</time>
      </trkpt>
      <trkpt lat="45.79423" lon="6.64851">
        <ele>1849</ele>
        <time>2022-07-24T11:24:50Z</time>
      </trkpt>
      <trkpt lat="45.79422" lon="6.64852">
        <ele>1849</ele>
        <time>2022-07-24T11:24:51Z</time>
      </trkpt>
      <trkpt lat="45.79421" lon="6.64853">
        <ele>1849</ele>
        <time>2022-07-24T11:24:52Z</time>
      </trkpt>
      <trkpt lat="45.79421" lon="6.64855">
        <ele>1849</ele>
        <time>2022-07-24T11:24:53Z</time>
      </trkpt>
      <trkpt lat="45.7942" lon="6.64856">
        <ele>1849</ele>
        <time>2022-07-24T11:24:54Z</time>
      </trkpt>
      <trkpt lat="45.7942" lon="6.64857">
        <ele>1849</ele>
        <time>2022-07-24T11:24:55Z</time>
      </trkpt>
      <trkpt lat="45.79419" lon="6.64858">
        <ele>1849</ele>
        <time>2022-07-24T11:24:56Z</time>
      </trkpt>
      <trkpt lat="45.79419" lon="6.64859">
        <ele>1849</ele>
        <time>2022-07-24T11:24:57Z</time>
      </trkpt>
      <trkpt lat="45.79419" lon="6.6486">
        <ele>1849</ele>
        <time>2022-07-24T11:24:58Z</time>
      </trkpt>
      <trkpt lat="45.79418" lon="6.64861">
        <ele>1849</ele>
        <time>2022-07-24T11:24:59Z</time>
      </trkpt>
      <trkpt lat="45.79418" lon="6.64863">
        <ele>1849</ele>
        <time>2022-07-24T11:25:00Z</time>
      </trkpt>
      <trkpt lat="45.79417" lon="6.64864">
        <ele>1849</ele>
        <time>2022-07-24T11:25:01Z</time>
      </trkpt>
      <trkpt lat="45.79417" lon="6.64865">
        <ele>1849</ele>
        <time>2022-07-24T11:25:02Z</time>
      </trkpt>
      <trkpt lat="45.79416" lon="6.64867">
        <ele>1849</ele>
        <time>2022-07-24T11:25:03Z</time>
      </trkpt>
      <trkpt lat="45.79416" lon="6.64868">
        <ele>1849</ele>
        <time>2022-07-24T11:25:04Z</time>
      </trkpt>
      <trkpt lat="45.79415" lon="6.64869">
        <ele>1849</ele>
        <time>2022-07-24T11:25:05Z</time>
      </trkpt>
      <trkpt lat="45.79415" lon="6.64871">
        <ele>1849</ele>
        <time>2022-07-24T11:25:06Z</time>
      </trkpt>
      <trkpt lat="45.79414" lon="6.64872">
        <ele>1849</ele>
        <time>2022-07-24T11:25:07Z</time>
      </trkpt>
      <trkpt lat="45.79413" lon="6.64874">
        <ele>1849</ele>
        <time>2022-07-24T11:25:08Z</time>
      </trkpt>
      <trkpt lat="45.79412" lon="6.64875">
        <ele>1849</ele>
        <time>2022-07-24T11:25:09Z</time>
      </trkpt>
      <trkpt lat="45.79412" lon="6.64877">
        <ele>1849</ele>
        <time>2022-07-24T11:25:10Z</time>
      </trkpt>
      <trkpt lat="45.79411" lon="6.64878">
        <ele>1849</ele>
        <time>2022-07-24T11:25:11Z</time>
      </trkpt>
      <trkpt lat="45.7941" lon="6.64879">
        <ele>1849</ele>
        <time>2022-07-24T11:25:12Z</time>
      </trkpt>
      <trkpt lat="45.79409" lon="6.6488">
        <ele>1849</ele>
        <time>2022-07-24T11:25:13Z</time>
      </trkpt>
      <trkpt lat="45.79409" lon="6.64881">
        <ele>1849</ele>
        <time>2022-07-24T11:25:14Z</time>
      </trkpt>
      <trkpt lat="45.79408" lon="6.64883">
        <ele>1849</ele>
        <time>2022-07-24T11:25:15Z</time>
      </trkpt>
      <trkpt lat="45.79407" lon="6.64884">
        <ele>1849</ele>
        <time>2022-07-24T11:25:16Z</time>
      </trkpt>
      <trkpt lat="45.79407" lon="6.64885">
        <ele>1849</ele>
        <time>2022-07-24T11:25:17Z</time>
      </trkpt>
      <trkpt lat="45.79406" lon="6.64886">
        <ele>1849</ele>
        <time>2022-07-24T11:25:18Z</time>
      </trkpt>
      <trkpt lat="45.79405" lon="6.64888">
        <ele>1849</ele>
        <time>2022-07-24T11:25:19Z</time>
      </trkpt>
      <trkpt lat="45.79405" lon="6.64889">
        <ele>1849</ele>
        <time>2022-07-24T11:25:20Z</time>
      </trkpt>
      <trkpt lat="45.79404" lon="6.64891">
        <ele>1849</ele>
        <time>2022-07-24T11:25:21Z</time>
      </trkpt>
      <trkpt lat="45.79403" lon="6.64892">
        <ele>1849</ele>
        <time>2022-07-24T11:25:22Z</time>
      </trkpt>
      <trkpt lat="45.79403" lon="6.64894">
        <ele>1849</ele>
        <time>2022-07-24T11:25:23Z</time>
      </trkpt>
      <trkpt lat="45.79402" lon="6.64895">
        <ele>1849</ele>
        <time>2022-07-24T11:25:24Z</time>
      </trkpt>
      <trkpt lat="45.79401" lon="6.64897">
        <ele>1849</ele>
        <time>2022-07-24T11:25:25Z</time>
      </trkpt>
      <trkpt lat="45.79401" lon="6.64898">
        <ele>1850</ele>
        <time>2022-07-24T11:25:26Z</time>
      </trkpt>
      <trkpt lat="45.794" lon="6.64899">
        <ele>1850</ele>
        <time>2022-07-24T11:25:27Z</time>
      </trkpt>
      <trkpt lat="45.79399" lon="6.64901">
        <ele>1851</ele>
        <time>2022-07-24T11:25:28Z</time>
      </trkpt>
      <trkpt lat="45.79399" lon="6.64902">
        <ele>1851</ele>
        <time>2022-07-24T11:25:29Z</time>
      </trkpt>
      <trkpt lat="45.79399" lon="6.64903">
        <ele>1851</ele>
        <time>2022-07-24T11:25:30Z</time>
      </trkpt>
      <trkpt lat="45.79398" lon="6.64905">
        <ele>1851</ele>
        <time>2022-07-24T11:25:31Z</time>
      </trkpt>
      <trkpt lat="45.79398" lon="6.64906">
        <ele>1851</ele>
        <time>2022-07-24T11:25:32Z</time>
      </trkpt>
      <trkpt lat="45.79398" lon="6.64907">
        <ele>1851</ele>
        <time>2022-07-24T11:25:33Z</time>
      </trkpt>
      <trkpt lat="45.79397" lon="6.64908">
        <ele>1851</ele>
        <time>2022-07-24T11:25:34Z</time>
      </trkpt>
      <trkpt lat="45.79397" lon="6.64909">
        <ele>1851</ele>
        <time>2022-07-24T11:25:35Z</time>
      </trkpt>
      <trkpt lat="45.79397" lon="6.6491">
        <ele>1851</ele>
        <time>2022-07-24T11:25:36Z</time>
      </trkpt>
      <trkpt lat="45.79397" lon="6.64911">
        <ele>1851</ele>
        <time>2022-07-24T11:25:37Z</time>
      </trkpt>
      <trkpt lat="45.79397" lon="6.64913">
        <ele>1852</ele>
        <time>2022-07-24T11:25:38Z</time>
      </trkpt>
      <trkpt lat="45.79396" lon="6.64914">
        <ele>1852</ele>
        <time>2022-07-24T11:25:39Z</time>
      </trkpt>
      <trkpt lat="45.79396" lon="6.64915">
        <ele>1852</ele>
        <time>2022-07-24T11:25:40Z</time>
      </trkpt>
      <trkpt lat="45.79395" lon="6.64916">
        <ele>1852</ele>
        <time>2022-07-24T11:25:41Z</time>
      </trkpt>
      <trkpt lat="45.79395" lon="6.64916">
        <ele>1852</ele>
        <time>2022-07-24T11:25:42Z</time>
      </trkpt>
      <trkpt lat="45.79395" lon="6.64917">
        <ele>1852</ele>
        <time>2022-07-24T11:25:43Z</time>
      </trkpt>
      <trkpt lat="45.79394" lon="6.64918">
        <ele>1852</ele>
        <time>2022-07-24T11:25:44Z</time>
      </trkpt>
      <trkpt lat="45.79394" lon="6.64919">
        <ele>1852</ele>
        <time>2022-07-24T11:25:45Z</time>
      </trkpt>
      <trkpt lat="45.79394" lon="6.64919">
        <ele>1852</ele>
        <time>2022-07-24T11:25:46Z</time>
      </trkpt>
      <trkpt lat="45.79394" lon="6.6492">
        <ele>1852</ele>
        <time>2022-07-24T11:25:47Z</time>
      </trkpt>
      <trkpt lat="45.79394" lon="6.6492">
        <ele>1852</ele>
        <time>2022-07-24T11:25:48Z</time>
      </trkpt>
      <trkpt lat="45.79394" lon="6.6492">
        <ele>1851</ele>
        <time>2022-07-24T11:25:49Z</time>
      </trkpt>
      <trkpt lat="45.79394" lon="6.64921">
        <ele>1851</ele>
        <time>2022-07-24T11:25:50Z</time>
      </trkpt>
      <trkpt lat="45.79394" lon="6.64922">
        <ele>1851</ele>
        <time>2022-07-24T11:25:51Z</time>
      </trkpt>
      <trkpt lat="45.79393" lon="6.64924">
        <ele>1851</ele>
        <time>2022-07-24T11:25:52Z</time>
      </trkpt>
      <trkpt lat="45.79393" lon="6.64925">
        <ele>1851</ele>
        <time>2022-07-24T11:25:53Z</time>
      </trkpt>
      <trkpt lat="45.79392" lon="6.64926">
        <ele>1851</ele>
        <time>2022-07-24T11:25:54Z</time>
      </trkpt>
      <trkpt lat="45.79392" lon="6.64927">
        <ele>1851</ele>
        <time>2022-07-24T11:25:55Z</time>
      </trkpt>
      <trkpt lat="45.79391" lon="6.64927">
        <ele>1851</ele>
        <time>2022-07-24T11:25:56Z</time>
      </trkpt>
      <trkpt lat="45.7939" lon="6.64928">
        <ele>1851</ele>
        <time>2022-07-24T11:25:57Z</time>
      </trkpt>
      <trkpt lat="45.79389" lon="6.64929">
        <ele>1851</ele>
        <time>2022-07-24T11:25:58Z</time>
      </trkpt>
      <trkpt lat="45.79388" lon="6.64929">
        <ele>1850</ele>
        <time>2022-07-24T11:25:59Z</time>
      </trkpt>
      <trkpt lat="45.79388" lon="6.64929">
        <ele>1850</ele>
        <time>2022-07-24T11:26:00Z</time>
      </trkpt>
      <trkpt lat="45.79387" lon="6.6493">
        <ele>1849</ele>
        <time>2022-07-24T11:26:01Z</time>
      </trkpt>
      <trkpt lat="45.79386" lon="6.6493">
        <ele>1849</ele>
        <time>2022-07-24T11:26:02Z</time>
      </trkpt>
      <trkpt lat="45.79385" lon="6.6493">
        <ele>1849</ele>
        <time>2022-07-24T11:26:03Z</time>
      </trkpt>
      <trkpt lat="45.79385" lon="6.6493">
        <ele>1848</ele>
        <time>2022-07-24T11:26:04Z</time>
      </trkpt>
      <trkpt lat="45.79385" lon="6.64931">
        <ele>1848</ele>
        <time>2022-07-24T11:26:05Z</time>
      </trkpt>
      <trkpt lat="45.79385" lon="6.64931">
        <ele>1848</ele>
        <time>2022-07-24T11:26:06Z</time>
      </trkpt>
      <trkpt lat="45.79386" lon="6.64931">
        <ele>1848</ele>
        <time>2022-07-24T11:26:07Z</time>
      </trkpt>
      <trkpt lat="45.79387" lon="6.64932">
        <ele>1848</ele>
        <time>2022-07-24T11:26:08Z</time>
      </trkpt>
      <trkpt lat="45.79387" lon="6.64932">
        <ele>1848</ele>
        <time>2022-07-24T11:26:09Z</time>
      </trkpt>
      <trkpt lat="45.79388" lon="6.64933">
        <ele>1848</ele>
        <time>2022-07-24T11:26:10Z</time>
      </trkpt>
      <trkpt lat="45.79389" lon="6.64933">
        <ele>1848</ele>
        <time>2022-07-24T11:26:11Z</time>
      </trkpt>
      <trkpt lat="45.7939" lon="6.64934">
        <ele>1848</ele>
        <time>2022-07-24T11:26:12Z</time>
      </trkpt>
      <trkpt lat="45.79391" lon="6.64935">
        <ele>1848</ele>
        <time>2022-07-24T11:26:13Z</time>
      </trkpt>
      <trkpt lat="45.79392" lon="6.64935">
        <ele>1847</ele>
        <time>2022-07-24T11:26:14Z</time>
      </trkpt>
      <trkpt lat="45.79393" lon="6.64936">
        <ele>1847</ele>
        <time>2022-07-24T11:26:15Z</time>
      </trkpt>
      <trkpt lat="45.79393" lon="6.64937">
        <ele>1847</ele>
        <time>2022-07-24T11:26:16Z</time>
      </trkpt>
      <trkpt lat="45.79394" lon="6.64938">
        <ele>1847</ele>
        <time>2022-07-24T11:26:17Z</time>
      </trkpt>
      <trkpt lat="45.79394" lon="6.64938">
        <ele>1847</ele>
        <time>2022-07-24T11:26:18Z</time>
      </trkpt>
      <trkpt lat="45.79394" lon="6.64939">
        <ele>1846</ele>
        <time>2022-07-24T11:26:19Z</time>
      </trkpt>
      <trkpt lat="45.79394" lon="6.6494">
        <ele>1846</ele>
        <time>2022-07-24T11:26:20Z</time>
      </trkpt>
      <trkpt lat="45.79394" lon="6.64941">
        <ele>1846</ele>
        <time>2022-07-24T11:26:21Z</time>
      </trkpt>
      <trkpt lat="45.79394" lon="6.64941">
        <ele>1846</ele>
        <time>2022-07-24T11:26:22Z</time>
      </trkpt>
      <trkpt lat="45.79394" lon="6.64942">
        <ele>1846</ele>
        <time>2022-07-24T11:26:23Z</time>
      </trkpt>
      <trkpt lat="45.79394" lon="6.64943">
        <ele>1845</ele>
        <time>2022-07-24T11:26:24Z</time>
      </trkpt>
      <trkpt lat="45.79393" lon="6.64943">
        <ele>1845</ele>
        <time>2022-07-24T11:26:25Z</time>
      </trkpt>
      <trkpt lat="45.79391" lon="6.64946">
        <ele>1841</ele>
        <time>2022-07-24T11:26:46Z</time>
      </trkpt>
      <trkpt lat="45.7939" lon="6.64948">
        <ele>1841</ele>
        <time>2022-07-24T11:26:47Z</time>
      </trkpt>
      <trkpt lat="45.79389" lon="6.6495">
        <ele>1841</ele>
        <time>2022-07-24T11:26:48Z</time>
      </trkpt>
      <trkpt lat="45.79388" lon="6.64951">
        <ele>1840</ele>
        <time>2022-07-24T11:26:49Z</time>
      </trkpt>
      <trkpt lat="45.79387" lon="6.64952">
        <ele>1840</ele>
        <time>2022-07-24T11:26:50Z</time>
      </trkpt>
      <trkpt lat="45.79387" lon="6.64952">
        <ele>1840</ele>
        <time>2022-07-24T11:26:51Z</time>
      </trkpt>
      <trkpt lat="45.79386" lon="6.64952">
        <ele>1840</ele>
        <time>2022-07-24T11:26:52Z</time>
      </trkpt>
      <trkpt lat="45.79385" lon="6.64952">
        <ele>1840</ele>
        <time>2022-07-24T11:26:53Z</time>
      </trkpt>
      <trkpt lat="45.79384" lon="6.64952">
        <ele>1839</ele>
        <time>2022-07-24T11:26:54Z</time>
      </trkpt>
      <trkpt lat="45.79383" lon="6.64952">
        <ele>1839</ele>
        <time>2022-07-24T11:26:55Z</time>
      </trkpt>
      <trkpt lat="45.79382" lon="6.64952">
        <ele>1839</ele>
        <time>2022-07-24T11:26:56Z</time>
      </trkpt>
      <trkpt lat="45.79382" lon="6.64952">
        <ele>1839</ele>
        <time>2022-07-24T11:26:57Z</time>
      </trkpt>
      <trkpt lat="45.79381" lon="6.64952">
        <ele>1839</ele>
        <time>2022-07-24T11:26:58Z</time>
      </trkpt>
      <trkpt lat="45.79381" lon="6.64952">
        <ele>1838</ele>
        <time>2022-07-24T11:26:59Z</time>
      </trkpt>
      <trkpt lat="45.7938" lon="6.64952">
        <ele>1838</ele>
        <time>2022-07-24T11:27:00Z</time>
      </trkpt>
      <trkpt lat="45.7938" lon="6.64953">
        <ele>1838</ele>
        <time>2022-07-24T11:27:01Z</time>
      </trkpt>
      <trkpt lat="45.7938" lon="6.64953">
        <ele>1838</ele>
        <time>2022-07-24T11:27:02Z</time>
      </trkpt>
      <trkpt lat="45.7938" lon="6.64954">
        <ele>1838</ele>
        <time>2022-07-24T11:27:03Z</time>
      </trkpt>
      <trkpt lat="45.7938" lon="6.64955">
        <ele>1837</ele>
        <time>2022-07-24T11:27:04Z</time>
      </trkpt>
      <trkpt lat="45.7938" lon="6.64956">
        <ele>1837</ele>
        <time>2022-07-24T11:27:05Z</time>
      </trkpt>
      <trkpt lat="45.7938" lon="6.64957">
        <ele>1837</ele>
        <time>2022-07-24T11:27:06Z</time>
      </trkpt>
      <trkpt lat="45.7938" lon="6.64958">
        <ele>1837</ele>
        <time>2022-07-24T11:27:07Z</time>
      </trkpt>
      <trkpt lat="45.7938" lon="6.64959">
        <ele>1837</ele>
        <time>2022-07-24T11:27:08Z</time>
      </trkpt>
      <trkpt lat="45.7938" lon="6.6496">
        <ele>1836</ele>
        <time>2022-07-24T11:27:09Z</time>
      </trkpt>
      <trkpt lat="45.7938" lon="6.64961">
        <ele>1836</ele>
        <time>2022-07-24T11:27:10Z</time>
      </trkpt>
      <trkpt lat="45.7938" lon="6.64962">
        <ele>1836</ele>
        <time>2022-07-24T11:27:11Z</time>
      </trkpt>
      <trkpt lat="45.7938" lon="6.64963">
        <ele>1836</ele>
        <time>2022-07-24T11:27:12Z</time>
      </trkpt>
      <trkpt lat="45.7938" lon="6.64964">
        <ele>1836</ele>
        <time>2022-07-24T11:27:13Z</time>
      </trkpt>
      <trkpt lat="45.7938" lon="6.64965">
        <ele>1835</ele>
        <time>2022-07-24T11:27:14Z</time>
      </trkpt>
      <trkpt lat="45.79381" lon="6.64965">
        <ele>1835</ele>
        <time>2022-07-24T11:27:15Z</time>
      </trkpt>
      <trkpt lat="45.79381" lon="6.64966">
        <ele>1835</ele>
        <time>2022-07-24T11:27:16Z</time>
      </trkpt>
      <trkpt lat="45.79382" lon="6.64965">
        <ele>1835</ele>
        <time>2022-07-24T11:27:17Z</time>
      </trkpt>
      <trkpt lat="45.79383" lon="6.64965">
        <ele>1835</ele>
        <time>2022-07-24T11:27:18Z</time>
      </trkpt>
      <trkpt lat="45.79384" lon="6.64965">
        <ele>1835</ele>
        <time>2022-07-24T11:27:19Z</time>
      </trkpt>
      <trkpt lat="45.79385" lon="6.64965">
        <ele>1835</ele>
        <time>2022-07-24T11:27:20Z</time>
      </trkpt>
      <trkpt lat="45.79386" lon="6.64966">
        <ele>1835</ele>
        <time>2022-07-24T11:27:21Z</time>
      </trkpt>
      <trkpt lat="45.79387" lon="6.64966">
        <ele>1835</ele>
        <time>2022-07-24T11:27:22Z</time>
      </trkpt>
      <trkpt lat="45.79387" lon="6.64967">
        <ele>1835</ele>
        <time>2022-07-24T11:27:23Z</time>
      </trkpt>
      <trkpt lat="45.79388" lon="6.64968">
        <ele>1835</ele>
        <time>2022-07-24T11:27:24Z</time>
      </trkpt>
      <trkpt lat="45.79389" lon="6.64969">
        <ele>1835</ele>
        <time>2022-07-24T11:27:25Z</time>
      </trkpt>
      <trkpt lat="45.79389" lon="6.6497">
        <ele>1835</ele>
        <time>2022-07-24T11:27:26Z</time>
      </trkpt>
      <trkpt lat="45.7939" lon="6.64971">
        <ele>1835</ele>
        <time>2022-07-24T11:27:27Z</time>
      </trkpt>
      <trkpt lat="45.7939" lon="6.64972">
        <ele>1835</ele>
        <time>2022-07-24T11:27:28Z</time>
      </trkpt>
      <trkpt lat="45.7939" lon="6.64973">
        <ele>1835</ele>
        <time>2022-07-24T11:27:29Z</time>
      </trkpt>
      <trkpt lat="45.79391" lon="6.64974">
        <ele>1835</ele>
        <time>2022-07-24T11:27:30Z</time>
      </trkpt>
      <trkpt lat="45.79391" lon="6.64975">
        <ele>1835</ele>
        <time>2022-07-24T11:27:31Z</time>
      </trkpt>
      <trkpt lat="45.79391" lon="6.64977">
        <ele>1835</ele>
        <time>2022-07-24T11:27:32Z</time>
      </trkpt>
      <trkpt lat="45.79391" lon="6.64978">
        <ele>1835</ele>
        <time>2022-07-24T11:27:33Z</time>
      </trkpt>
      <trkpt lat="45.79391" lon="6.64979">
        <ele>1835</ele>
        <time>2022-07-24T11:27:34Z</time>
      </trkpt>
      <trkpt lat="45.79391" lon="6.6498">
        <ele>1835</ele>
        <time>2022-07-24T11:27:35Z</time>
      </trkpt>
      <trkpt lat="45.79391" lon="6.64982">
        <ele>1835</ele>
        <time>2022-07-24T11:27:36Z</time>
      </trkpt>
      <trkpt lat="45.79391" lon="6.64983">
        <ele>1835</ele>
        <time>2022-07-24T11:27:37Z</time>
      </trkpt>
      <trkpt lat="45.79391" lon="6.64985">
        <ele>1835</ele>
        <time>2022-07-24T11:27:38Z</time>
      </trkpt>
      <trkpt lat="45.79391" lon="6.64986">
        <ele>1835</ele>
        <time>2022-07-24T11:27:39Z</time>
      </trkpt>
      <trkpt lat="45.79391" lon="6.64987">
        <ele>1835</ele>
        <time>2022-07-24T11:27:40Z</time>
      </trkpt>
      <trkpt lat="45.7939" lon="6.64989">
        <ele>1835</ele>
        <time>2022-07-24T11:27:41Z</time>
      </trkpt>
      <trkpt lat="45.7939" lon="6.6499">
        <ele>1835</ele>
        <time>2022-07-24T11:27:42Z</time>
      </trkpt>
      <trkpt lat="45.7939" lon="6.64991">
        <ele>1835</ele>
        <time>2022-07-24T11:27:43Z</time>
      </trkpt>
      <trkpt lat="45.79389" lon="6.64992">
        <ele>1835</ele>
        <time>2022-07-24T11:27:44Z</time>
      </trkpt>
      <trkpt lat="45.79389" lon="6.64993">
        <ele>1835</ele>
        <time>2022-07-24T11:27:45Z</time>
      </trkpt>
      <trkpt lat="45.79388" lon="6.64994">
        <ele>1835</ele>
        <time>2022-07-24T11:27:46Z</time>
      </trkpt>
      <trkpt lat="45.79387" lon="6.64995">
        <ele>1835</ele>
        <time>2022-07-24T11:27:47Z</time>
      </trkpt>
      <trkpt lat="45.79387" lon="6.64996">
        <ele>1835</ele>
        <time>2022-07-24T11:27:48Z</time>
      </trkpt>
      <trkpt lat="45.79386" lon="6.64997">
        <ele>1835</ele>
        <time>2022-07-24T11:27:49Z</time>
      </trkpt>
      <trkpt lat="45.79386" lon="6.64998">
        <ele>1835</ele>
        <time>2022-07-24T11:27:50Z</time>
      </trkpt>
      <trkpt lat="45.79385" lon="6.64999">
        <ele>1835</ele>
        <time>2022-07-24T11:27:51Z</time>
      </trkpt>
      <trkpt lat="45.79384" lon="6.65">
        <ele>1835</ele>
        <time>2022-07-24T11:27:52Z</time>
      </trkpt>
      <trkpt lat="45.79383" lon="6.65">
        <ele>1836</ele>
        <time>2022-07-24T11:27:53Z</time>
      </trkpt>
      <trkpt lat="45.79382" lon="6.65001">
        <ele>1836</ele>
        <time>2022-07-24T11:27:54Z</time>
      </trkpt>
      <trkpt lat="45.79381" lon="6.65002">
        <ele>1836</ele>
        <time>2022-07-24T11:27:55Z</time>
      </trkpt>
      <trkpt lat="45.7938" lon="6.65003">
        <ele>1836</ele>
        <time>2022-07-24T11:27:56Z</time>
      </trkpt>
      <trkpt lat="45.79379" lon="6.65003">
        <ele>1836</ele>
        <time>2022-07-24T11:27:57Z</time>
      </trkpt>
      <trkpt lat="45.79378" lon="6.65004">
        <ele>1836</ele>
        <time>2022-07-24T11:27:58Z</time>
      </trkpt>
      <trkpt lat="45.79377" lon="6.65005">
        <ele>1836</ele>
        <time>2022-07-24T11:27:59Z</time>
      </trkpt>
      <trkpt lat="45.79377" lon="6.65006">
        <ele>1836</ele>
        <time>2022-07-24T11:28:00Z</time>
      </trkpt>
      <trkpt lat="45.79376" lon="6.65007">
        <ele>1836</ele>
        <time>2022-07-24T11:28:01Z</time>
      </trkpt>
      <trkpt lat="45.79375" lon="6.65007">
        <ele>1836</ele>
        <time>2022-07-24T11:28:02Z</time>
      </trkpt>
      <trkpt lat="45.79374" lon="6.65008">
        <ele>1837</ele>
        <time>2022-07-24T11:28:03Z</time>
      </trkpt>
      <trkpt lat="45.79373" lon="6.65008">
        <ele>1837</ele>
        <time>2022-07-24T11:28:04Z</time>
      </trkpt>
      <trkpt lat="45.79372" lon="6.65008">
        <ele>1837</ele>
        <time>2022-07-24T11:28:05Z</time>
      </trkpt>
      <trkpt lat="45.79371" lon="6.65008">
        <ele>1837</ele>
        <time>2022-07-24T11:28:06Z</time>
      </trkpt>
      <trkpt lat="45.7937" lon="6.65008">
        <ele>1837</ele>
        <time>2022-07-24T11:28:07Z</time>
      </trkpt>
      <trkpt lat="45.79369" lon="6.65008">
        <ele>1837</ele>
        <time>2022-07-24T11:28:08Z</time>
      </trkpt>
      <trkpt lat="45.79367" lon="6.65008">
        <ele>1837</ele>
        <time>2022-07-24T11:28:09Z</time>
      </trkpt>
      <trkpt lat="45.79366" lon="6.65008">
        <ele>1837</ele>
        <time>2022-07-24T11:28:10Z</time>
      </trkpt>
      <trkpt lat="45.79365" lon="6.65008">
        <ele>1837</ele>
        <time>2022-07-24T11:28:11Z</time>
      </trkpt>
      <trkpt lat="45.79364" lon="6.65008">
        <ele>1837</ele>
        <time>2022-07-24T11:28:12Z</time>
      </trkpt>
      <trkpt lat="45.79363" lon="6.65008">
        <ele>1837</ele>
        <time>2022-07-24T11:28:13Z</time>
      </trkpt>
      <trkpt lat="45.79362" lon="6.65008">
        <ele>1837</ele>
        <time>2022-07-24T11:28:14Z</time>
      </trkpt>
      <trkpt lat="45.79361" lon="6.65008">
        <ele>1837</ele>
        <time>2022-07-24T11:28:15Z</time>
      </trkpt>
      <trkpt lat="45.79361" lon="6.65009">
        <ele>1837</ele>
        <time>2022-07-24T11:28:16Z</time>
      </trkpt>
      <trkpt lat="45.7936" lon="6.65009">
        <ele>1837</ele>
        <time>2022-07-24T11:28:17Z</time>
      </trkpt>
      <trkpt lat="45.79359" lon="6.65009">
        <ele>1838</ele>
        <time>2022-07-24T11:28:18Z</time>
      </trkpt>
      <trkpt lat="45.79358" lon="6.65009">
        <ele>1838</ele>
        <time>2022-07-24T11:28:19Z</time>
      </trkpt>
      <trkpt lat="45.79358" lon="6.65009">
        <ele>1838</ele>
        <time>2022-07-24T11:28:20Z</time>
      </trkpt>
      <trkpt lat="45.79357" lon="6.6501">
        <ele>1838</ele>
        <time>2022-07-24T11:28:21Z</time>
      </trkpt>
      <trkpt lat="45.79356" lon="6.6501">
        <ele>1838</ele>
        <time>2022-07-24T11:28:22Z</time>
      </trkpt>
      <trkpt lat="45.79356" lon="6.6501">
        <ele>1839</ele>
        <time>2022-07-24T11:28:23Z</time>
      </trkpt>
      <trkpt lat="45.79355" lon="6.6501">
        <ele>1839</ele>
        <time>2022-07-24T11:28:24Z</time>
      </trkpt>
      <trkpt lat="45.79355" lon="6.65011">
        <ele>1839</ele>
        <time>2022-07-24T11:28:25Z</time>
      </trkpt>
      <trkpt lat="45.79354" lon="6.65011">
        <ele>1839</ele>
        <time>2022-07-24T11:28:26Z</time>
      </trkpt>
      <trkpt lat="45.79354" lon="6.65011">
        <ele>1839</ele>
        <time>2022-07-24T11:28:27Z</time>
      </trkpt>
      <trkpt lat="45.79353" lon="6.65012">
        <ele>1840</ele>
        <time>2022-07-24T11:28:28Z</time>
      </trkpt>
      <trkpt lat="45.79352" lon="6.65012">
        <ele>1840</ele>
        <time>2022-07-24T11:28:29Z</time>
      </trkpt>
      <trkpt lat="45.79352" lon="6.65013">
        <ele>1840</ele>
        <time>2022-07-24T11:28:30Z</time>
      </trkpt>
      <trkpt lat="45.79351" lon="6.65013">
        <ele>1840</ele>
        <time>2022-07-24T11:28:31Z</time>
      </trkpt>
      <trkpt lat="45.79351" lon="6.65014">
        <ele>1840</ele>
        <time>2022-07-24T11:28:32Z</time>
      </trkpt>
      <trkpt lat="45.7935" lon="6.65014">
        <ele>1840</ele>
        <time>2022-07-24T11:28:33Z</time>
      </trkpt>
      <trkpt lat="45.7935" lon="6.65015">
        <ele>1840</ele>
        <time>2022-07-24T11:28:34Z</time>
      </trkpt>
      <trkpt lat="45.79349" lon="6.65016">
        <ele>1840</ele>
        <time>2022-07-24T11:28:35Z</time>
      </trkpt>
      <trkpt lat="45.79348" lon="6.65016">
        <ele>1840</ele>
        <time>2022-07-24T11:28:36Z</time>
      </trkpt>
      <trkpt lat="45.79347" lon="6.65017">
        <ele>1840</ele>
        <time>2022-07-24T11:28:37Z</time>
      </trkpt>
      <trkpt lat="45.79347" lon="6.65019">
        <ele>1841</ele>
        <time>2022-07-24T11:28:38Z</time>
      </trkpt>
      <trkpt lat="45.79346" lon="6.6502">
        <ele>1841</ele>
        <time>2022-07-24T11:28:39Z</time>
      </trkpt>
      <trkpt lat="45.79345" lon="6.65021">
        <ele>1841</ele>
        <time>2022-07-24T11:28:40Z</time>
      </trkpt>
      <trkpt lat="45.79344" lon="6.65022">
        <ele>1841</ele>
        <time>2022-07-24T11:28:41Z</time>
      </trkpt>
      <trkpt lat="45.79343" lon="6.65024">
        <ele>1841</ele>
        <time>2022-07-24T11:28:42Z</time>
      </trkpt>
      <trkpt lat="45.79342" lon="6.65025">
        <ele>1841</ele>
        <time>2022-07-24T11:28:43Z</time>
      </trkpt>
      <trkpt lat="45.79341" lon="6.65026">
        <ele>1841</ele>
        <time>2022-07-24T11:28:44Z</time>
      </trkpt>
      <trkpt lat="45.79341" lon="6.65027">
        <ele>1841</ele>
        <time>2022-07-24T11:28:45Z</time>
      </trkpt>
      <trkpt lat="45.7934" lon="6.65029">
        <ele>1841</ele>
        <time>2022-07-24T11:28:46Z</time>
      </trkpt>
      <trkpt lat="45.7934" lon="6.65029">
        <ele>1842</ele>
        <time>2022-07-24T11:29:16Z</time>
      </trkpt>
      <trkpt lat="45.79339" lon="6.6503">
        <ele>1842</ele>
        <time>2022-07-24T11:29:17Z</time>
      </trkpt>
      <trkpt lat="45.79339" lon="6.6503">
        <ele>1842</ele>
        <time>2022-07-24T11:29:18Z</time>
      </trkpt>
      <trkpt lat="45.79338" lon="6.65031">
        <ele>1842</ele>
        <time>2022-07-24T11:29:19Z</time>
      </trkpt>
      <trkpt lat="45.79338" lon="6.65031">
        <ele>1842</ele>
        <time>2022-07-24T11:29:20Z</time>
      </trkpt>
      <trkpt lat="45.79337" lon="6.65031">
        <ele>1842</ele>
        <time>2022-07-24T11:29:21Z</time>
      </trkpt>
      <trkpt lat="45.79336" lon="6.65031">
        <ele>1842</ele>
        <time>2022-07-24T11:29:22Z</time>
      </trkpt>
      <trkpt lat="45.79335" lon="6.65031">
        <ele>1842</ele>
        <time>2022-07-24T11:29:23Z</time>
      </trkpt>
      <trkpt lat="45.79334" lon="6.65031">
        <ele>1842</ele>
        <time>2022-07-24T11:29:24Z</time>
      </trkpt>
      <trkpt lat="45.79332" lon="6.65031">
        <ele>1842</ele>
        <time>2022-07-24T11:29:25Z</time>
      </trkpt>
      <trkpt lat="45.79331" lon="6.65031">
        <ele>1842</ele>
        <time>2022-07-24T11:29:26Z</time>
      </trkpt>
      <trkpt lat="45.7933" lon="6.6503">
        <ele>1842</ele>
        <time>2022-07-24T11:29:27Z</time>
      </trkpt>
      <trkpt lat="45.79328" lon="6.65029">
        <ele>1842</ele>
        <time>2022-07-24T11:29:28Z</time>
      </trkpt>
      <trkpt lat="45.79327" lon="6.65029">
        <ele>1842</ele>
        <time>2022-07-24T11:29:29Z</time>
      </trkpt>
      <trkpt lat="45.79326" lon="6.65028">
        <ele>1842</ele>
        <time>2022-07-24T11:29:30Z</time>
      </trkpt>
      <trkpt lat="45.79325" lon="6.65028">
        <ele>1842</ele>
        <time>2022-07-24T11:29:31Z</time>
      </trkpt>
      <trkpt lat="45.79323" lon="6.65027">
        <ele>1842</ele>
        <time>2022-07-24T11:29:32Z</time>
      </trkpt>
      <trkpt lat="45.79322" lon="6.65027">
        <ele>1843</ele>
        <time>2022-07-24T11:29:33Z</time>
      </trkpt>
      <trkpt lat="45.79321" lon="6.65027">
        <ele>1843</ele>
        <time>2022-07-24T11:29:34Z</time>
      </trkpt>
      <trkpt lat="45.7932" lon="6.65027">
        <ele>1843</ele>
        <time>2022-07-24T11:29:35Z</time>
      </trkpt>
      <trkpt lat="45.79319" lon="6.65027">
        <ele>1843</ele>
        <time>2022-07-24T11:29:36Z</time>
      </trkpt>
      <trkpt lat="45.79318" lon="6.65027">
        <ele>1843</ele>
        <time>2022-07-24T11:29:37Z</time>
      </trkpt>
      <trkpt lat="45.79316" lon="6.65027">
        <ele>1843</ele>
        <time>2022-07-24T11:29:38Z</time>
      </trkpt>
      <trkpt lat="45.79315" lon="6.65027">
        <ele>1843</ele>
        <time>2022-07-24T11:29:39Z</time>
      </trkpt>
      <trkpt lat="45.79314" lon="6.65027">
        <ele>1843</ele>
        <time>2022-07-24T11:29:40Z</time>
      </trkpt>
      <trkpt lat="45.79313" lon="6.65027">
        <ele>1843</ele>
        <time>2022-07-24T11:29:41Z</time>
      </trkpt>
      <trkpt lat="45.79312" lon="6.65027">
        <ele>1843</ele>
        <time>2022-07-24T11:29:42Z</time>
      </trkpt>
      <trkpt lat="45.79312" lon="6.65027">
        <ele>1843</ele>
        <time>2022-07-24T11:29:43Z</time>
      </trkpt>
      <trkpt lat="45.79311" lon="6.65027">
        <ele>1843</ele>
        <time>2022-07-24T11:29:44Z</time>
      </trkpt>
      <trkpt lat="45.7931" lon="6.65027">
        <ele>1843</ele>
        <time>2022-07-24T11:29:45Z</time>
      </trkpt>
      <trkpt lat="45.7931" lon="6.65026">
        <ele>1843</ele>
        <time>2022-07-24T11:29:46Z</time>
      </trkpt>
      <trkpt lat="45.79309" lon="6.65026">
        <ele>1843</ele>
        <time>2022-07-24T11:29:47Z</time>
      </trkpt>
      <trkpt lat="45.79309" lon="6.65026">
        <ele>1843</ele>
        <time>2022-07-24T11:29:48Z</time>
      </trkpt>
      <trkpt lat="45.79308" lon="6.65026">
        <ele>1843</ele>
        <time>2022-07-24T11:29:49Z</time>
      </trkpt>
      <trkpt lat="45.79307" lon="6.65026">
        <ele>1843</ele>
        <time>2022-07-24T11:29:50Z</time>
      </trkpt>
      <trkpt lat="45.79306" lon="6.65026">
        <ele>1843</ele>
        <time>2022-07-24T11:29:51Z</time>
      </trkpt>
      <trkpt lat="45.79305" lon="6.65026">
        <ele>1843</ele>
        <time>2022-07-24T11:29:52Z</time>
      </trkpt>
      <trkpt lat="45.79304" lon="6.65026">
        <ele>1843</ele>
        <time>2022-07-24T11:29:53Z</time>
      </trkpt>
      <trkpt lat="45.79303" lon="6.65026">
        <ele>1843</ele>
        <time>2022-07-24T11:29:54Z</time>
      </trkpt>
      <trkpt lat="45.79303" lon="6.65026">
        <ele>1843</ele>
        <time>2022-07-24T11:29:55Z</time>
      </trkpt>
      <trkpt lat="45.79303" lon="6.65026">
        <ele>1843</ele>
        <time>2022-07-24T11:29:56Z</time>
      </trkpt>
      <trkpt lat="45.79302" lon="6.65026">
        <ele>1843</ele>
        <time>2022-07-24T11:29:57Z</time>
      </trkpt>
      <trkpt lat="45.79302" lon="6.65026">
        <ele>1843</ele>
        <time>2022-07-24T11:29:58Z</time>
      </trkpt>
      <trkpt lat="45.79302" lon="6.65026">
        <ele>1843</ele>
        <time>2022-07-24T11:29:59Z</time>
      </trkpt>
      <trkpt lat="45.79301" lon="6.65026">
        <ele>1843</ele>
        <time>2022-07-24T11:30:00Z</time>
      </trkpt>
      <trkpt lat="45.793" lon="6.65026">
        <ele>1843</ele>
        <time>2022-07-24T11:30:01Z</time>
      </trkpt>
      <trkpt lat="45.793" lon="6.65026">
        <ele>1843</ele>
        <time>2022-07-24T11:30:02Z</time>
      </trkpt>
      <trkpt lat="45.79299" lon="6.65026">
        <ele>1843</ele>
        <time>2022-07-24T11:30:03Z</time>
      </trkpt>
      <trkpt lat="45.79298" lon="6.65026">
        <ele>1843</ele>
        <time>2022-07-24T11:30:04Z</time>
      </trkpt>
      <trkpt lat="45.79298" lon="6.65027">
        <ele>1843</ele>
        <time>2022-07-24T11:30:05Z</time>
      </trkpt>
      <trkpt lat="45.79297" lon="6.65027">
        <ele>1843</ele>
        <time>2022-07-24T11:30:06Z</time>
      </trkpt>
      <trkpt lat="45.79296" lon="6.65027">
        <ele>1841</ele>
        <time>2022-07-24T11:30:30Z</time>
      </trkpt>
      <trkpt lat="45.79295" lon="6.65028">
        <ele>1841</ele>
        <time>2022-07-24T11:30:31Z</time>
      </trkpt>
      <trkpt lat="45.79295" lon="6.65028">
        <ele>1841</ele>
        <time>2022-07-24T11:30:32Z</time>
      </trkpt>
      <trkpt lat="45.79294" lon="6.65028">
        <ele>1841</ele>
        <time>2022-07-24T11:30:33Z</time>
      </trkpt>
      <trkpt lat="45.79294" lon="6.65029">
        <ele>1841</ele>
        <time>2022-07-24T11:30:34Z</time>
      </trkpt>
      <trkpt lat="45.79293" lon="6.6503">
        <ele>1841</ele>
        <time>2022-07-24T11:30:35Z</time>
      </trkpt>
      <trkpt lat="45.79293" lon="6.65032">
        <ele>1841</ele>
        <time>2022-07-24T11:30:36Z</time>
      </trkpt>
      <trkpt lat="45.79292" lon="6.65033">
        <ele>1841</ele>
        <time>2022-07-24T11:30:37Z</time>
      </trkpt>
      <trkpt lat="45.79291" lon="6.65035">
        <ele>1841</ele>
        <time>2022-07-24T11:30:38Z</time>
      </trkpt>
      <trkpt lat="45.79291" lon="6.65036">
        <ele>1840</ele>
        <time>2022-07-24T11:30:39Z</time>
      </trkpt>
      <trkpt lat="45.7929" lon="6.65038">
        <ele>1840</ele>
        <time>2022-07-24T11:30:40Z</time>
      </trkpt>
      <trkpt lat="45.79289" lon="6.65039">
        <ele>1840</ele>
        <time>2022-07-24T11:30:41Z</time>
      </trkpt>
      <trkpt lat="45.79288" lon="6.6504">
        <ele>1840</ele>
        <time>2022-07-24T11:30:42Z</time>
      </trkpt>
      <trkpt lat="45.79287" lon="6.65041">
        <ele>1840</ele>
        <time>2022-07-24T11:30:43Z</time>
      </trkpt>
      <trkpt lat="45.79286" lon="6.65042">
        <ele>1840</ele>
        <time>2022-07-24T11:30:44Z</time>
      </trkpt>
      <trkpt lat="45.79285" lon="6.65043">
        <ele>1840</ele>
        <time>2022-07-24T11:30:45Z</time>
      </trkpt>
      <trkpt lat="45.79284" lon="6.65044">
        <ele>1840</ele>
        <time>2022-07-24T11:30:46Z</time>
      </trkpt>
      <trkpt lat="45.79283" lon="6.65045">
        <ele>1840</ele>
        <time>2022-07-24T11:30:47Z</time>
      </trkpt>
      <trkpt lat="45.79281" lon="6.65046">
        <ele>1840</ele>
        <time>2022-07-24T11:30:48Z</time>
      </trkpt>
      <trkpt lat="45.7928" lon="6.65047">
        <ele>1840</ele>
        <time>2022-07-24T11:30:49Z</time>
      </trkpt>
      <trkpt lat="45.79279" lon="6.65048">
        <ele>1840</ele>
        <time>2022-07-24T11:30:50Z</time>
      </trkpt>
      <trkpt lat="45.79278" lon="6.65049">
        <ele>1840</ele>
        <time>2022-07-24T11:30:51Z</time>
      </trkpt>
      <trkpt lat="45.79276" lon="6.65049">
        <ele>1840</ele>
        <time>2022-07-24T11:30:52Z</time>
      </trkpt>
      <trkpt lat="45.79275" lon="6.6505">
        <ele>1840</ele>
        <time>2022-07-24T11:30:53Z</time>
      </trkpt>
      <trkpt lat="45.79274" lon="6.65051">
        <ele>1839</ele>
        <time>2022-07-24T11:30:54Z</time>
      </trkpt>
      <trkpt lat="45.79273" lon="6.65052">
        <ele>1839</ele>
        <time>2022-07-24T11:30:55Z</time>
      </trkpt>
      <trkpt lat="45.79272" lon="6.65053">
        <ele>1839</ele>
        <time>2022-07-24T11:30:56Z</time>
      </trkpt>
      <trkpt lat="45.7927" lon="6.65054">
        <ele>1839</ele>
        <time>2022-07-24T11:30:57Z</time>
      </trkpt>
      <trkpt lat="45.79269" lon="6.65055">
        <ele>1839</ele>
        <time>2022-07-24T11:30:58Z</time>
      </trkpt>
      <trkpt lat="45.79268" lon="6.65056">
        <ele>1839</ele>
        <time>2022-07-24T11:30:59Z</time>
      </trkpt>
      <trkpt lat="45.79267" lon="6.65057">
        <ele>1839</ele>
        <time>2022-07-24T11:31:00Z</time>
      </trkpt>
      <trkpt lat="45.79266" lon="6.65058">
        <ele>1839</ele>
        <time>2022-07-24T11:31:01Z</time>
      </trkpt>
      <trkpt lat="45.79265" lon="6.65059">
        <ele>1839</ele>
        <time>2022-07-24T11:31:02Z</time>
      </trkpt>
      <trkpt lat="45.79264" lon="6.6506">
        <ele>1839</ele>
        <time>2022-07-24T11:31:03Z</time>
      </trkpt>
      <trkpt lat="45.79263" lon="6.65061">
        <ele>1838</ele>
        <time>2022-07-24T11:31:04Z</time>
      </trkpt>
      <trkpt lat="45.79262" lon="6.65062">
        <ele>1838</ele>
        <time>2022-07-24T11:31:05Z</time>
      </trkpt>
      <trkpt lat="45.79261" lon="6.65063">
        <ele>1838</ele>
        <time>2022-07-24T11:31:06Z</time>
      </trkpt>
      <trkpt lat="45.79259" lon="6.65064">
        <ele>1838</ele>
        <time>2022-07-24T11:31:07Z</time>
      </trkpt>
      <trkpt lat="45.79258" lon="6.65065">
        <ele>1838</ele>
        <time>2022-07-24T11:31:08Z</time>
      </trkpt>
      <trkpt lat="45.79257" lon="6.65065">
        <ele>1837</ele>
        <time>2022-07-24T11:31:09Z</time>
      </trkpt>
      <trkpt lat="45.79256" lon="6.65066">
        <ele>1837</ele>
        <time>2022-07-24T11:31:10Z</time>
      </trkpt>
      <trkpt lat="45.79255" lon="6.65067">
        <ele>1837</ele>
        <time>2022-07-24T11:31:11Z</time>
      </trkpt>
      <trkpt lat="45.79254" lon="6.65068">
        <ele>1837</ele>
        <time>2022-07-24T11:31:12Z</time>
      </trkpt>
      <trkpt lat="45.79253" lon="6.65069">
        <ele>1837</ele>
        <time>2022-07-24T11:31:13Z</time>
      </trkpt>
      <trkpt lat="45.79251" lon="6.6507">
        <ele>1837</ele>
        <time>2022-07-24T11:31:14Z</time>
      </trkpt>
      <trkpt lat="45.7925" lon="6.65071">
        <ele>1837</ele>
        <time>2022-07-24T11:31:15Z</time>
      </trkpt>
      <trkpt lat="45.79249" lon="6.65072">
        <ele>1837</ele>
        <time>2022-07-24T11:31:16Z</time>
      </trkpt>
      <trkpt lat="45.79248" lon="6.65073">
        <ele>1837</ele>
        <time>2022-07-24T11:31:17Z</time>
      </trkpt>
      <trkpt lat="45.79247" lon="6.65074">
        <ele>1837</ele>
        <time>2022-07-24T11:31:18Z</time>
      </trkpt>
      <trkpt lat="45.79246" lon="6.65075">
        <ele>1836</ele>
        <time>2022-07-24T11:31:19Z</time>
      </trkpt>
      <trkpt lat="45.79245" lon="6.65076">
        <ele>1836</ele>
        <time>2022-07-24T11:31:20Z</time>
      </trkpt>
      <trkpt lat="45.79244" lon="6.65078">
        <ele>1836</ele>
        <time>2022-07-24T11:31:21Z</time>
      </trkpt>
      <trkpt lat="45.79243" lon="6.65079">
        <ele>1836</ele>
        <time>2022-07-24T11:31:22Z</time>
      </trkpt>
      <trkpt lat="45.79242" lon="6.65081">
        <ele>1836</ele>
        <time>2022-07-24T11:31:23Z</time>
      </trkpt>
      <trkpt lat="45.79241" lon="6.65082">
        <ele>1835</ele>
        <time>2022-07-24T11:31:24Z</time>
      </trkpt>
      <trkpt lat="45.7924" lon="6.65083">
        <ele>1835</ele>
        <time>2022-07-24T11:31:25Z</time>
      </trkpt>
      <trkpt lat="45.79239" lon="6.65084">
        <ele>1835</ele>
        <time>2022-07-24T11:31:26Z</time>
      </trkpt>
      <trkpt lat="45.79238" lon="6.65084">
        <ele>1835</ele>
        <time>2022-07-24T11:31:27Z</time>
      </trkpt>
      <trkpt lat="45.79236" lon="6.65085">
        <ele>1835</ele>
        <time>2022-07-24T11:31:28Z</time>
      </trkpt>
      <trkpt lat="45.79235" lon="6.65085">
        <ele>1834</ele>
        <time>2022-07-24T11:31:29Z</time>
      </trkpt>
      <trkpt lat="45.79234" lon="6.65085">
        <ele>1834</ele>
        <time>2022-07-24T11:31:30Z</time>
      </trkpt>
      <trkpt lat="45.79233" lon="6.65086">
        <ele>1834</ele>
        <time>2022-07-24T11:31:31Z</time>
      </trkpt>
      <trkpt lat="45.79231" lon="6.65087">
        <ele>1834</ele>
        <time>2022-07-24T11:31:32Z</time>
      </trkpt>
      <trkpt lat="45.7923" lon="6.65087">
        <ele>1834</ele>
        <time>2022-07-24T11:31:33Z</time>
      </trkpt>
      <trkpt lat="45.79229" lon="6.65088">
        <ele>1833</ele>
        <time>2022-07-24T11:31:34Z</time>
      </trkpt>
      <trkpt lat="45.79228" lon="6.65089">
        <ele>1833</ele>
        <time>2022-07-24T11:31:35Z</time>
      </trkpt>
      <trkpt lat="45.79226" lon="6.65089">
        <ele>1833</ele>
        <time>2022-07-24T11:31:36Z</time>
      </trkpt>
      <trkpt lat="45.79225" lon="6.6509">
        <ele>1833</ele>
        <time>2022-07-24T11:31:37Z</time>
      </trkpt>
      <trkpt lat="45.79224" lon="6.65091">
        <ele>1833</ele>
        <time>2022-07-24T11:31:38Z</time>
      </trkpt>
      <trkpt lat="45.79223" lon="6.65092">
        <ele>1833</ele>
        <time>2022-07-24T11:31:39Z</time>
      </trkpt>
      <trkpt lat="45.79221" lon="6.65093">
        <ele>1833</ele>
        <time>2022-07-24T11:31:40Z</time>
      </trkpt>
      <trkpt lat="45.7922" lon="6.65094">
        <ele>1833</ele>
        <time>2022-07-24T11:31:41Z</time>
      </trkpt>
      <trkpt lat="45.79219" lon="6.65095">
        <ele>1833</ele>
        <time>2022-07-24T11:31:42Z</time>
      </trkpt>
      <trkpt lat="45.79218" lon="6.65096">
        <ele>1833</ele>
        <time>2022-07-24T11:31:43Z</time>
      </trkpt>
      <trkpt lat="45.79217" lon="6.65097">
        <ele>1833</ele>
        <time>2022-07-24T11:31:44Z</time>
      </trkpt>
      <trkpt lat="45.79216" lon="6.65098">
        <ele>1833</ele>
        <time>2022-07-24T11:31:45Z</time>
      </trkpt>
      <trkpt lat="45.79215" lon="6.65099">
        <ele>1833</ele>
        <time>2022-07-24T11:31:46Z</time>
      </trkpt>
      <trkpt lat="45.79212" lon="6.65102">
        <ele>1831</ele>
        <time>2022-07-24T11:33:15Z</time>
      </trkpt>
      <trkpt lat="45.79211" lon="6.65103">
        <ele>1831</ele>
        <time>2022-07-24T11:33:16Z</time>
      </trkpt>
      <trkpt lat="45.79209" lon="6.65104">
        <ele>1831</ele>
        <time>2022-07-24T11:33:17Z</time>
      </trkpt>
      <trkpt lat="45.79209" lon="6.65105">
        <ele>1831</ele>
        <time>2022-07-24T11:33:18Z</time>
      </trkpt>
      <trkpt lat="45.79208" lon="6.65106">
        <ele>1831</ele>
        <time>2022-07-24T11:33:19Z</time>
      </trkpt>
      <trkpt lat="45.79207" lon="6.65107">
        <ele>1831</ele>
        <time>2022-07-24T11:33:20Z</time>
      </trkpt>
      <trkpt lat="45.79206" lon="6.65107">
        <ele>1831</ele>
        <time>2022-07-24T11:33:21Z</time>
      </trkpt>
      <trkpt lat="45.79205" lon="6.65108">
        <ele>1831</ele>
        <time>2022-07-24T11:33:22Z</time>
      </trkpt>
      <trkpt lat="45.79204" lon="6.65108">
        <ele>1831</ele>
        <time>2022-07-24T11:33:23Z</time>
      </trkpt>
      <trkpt lat="45.79202" lon="6.65109">
        <ele>1831</ele>
        <time>2022-07-24T11:33:24Z</time>
      </trkpt>
      <trkpt lat="45.79201" lon="6.65109">
        <ele>1831</ele>
        <time>2022-07-24T11:33:25Z</time>
      </trkpt>
      <trkpt lat="45.792" lon="6.6511">
        <ele>1831</ele>
        <time>2022-07-24T11:33:26Z</time>
      </trkpt>
      <trkpt lat="45.79199" lon="6.6511">
        <ele>1831</ele>
        <time>2022-07-24T11:33:27Z</time>
      </trkpt>
      <trkpt lat="45.79198" lon="6.65111">
        <ele>1831</ele>
        <time>2022-07-24T11:33:28Z</time>
      </trkpt>
      <trkpt lat="45.79197" lon="6.65112">
        <ele>1831</ele>
        <time>2022-07-24T11:33:29Z</time>
      </trkpt>
      <trkpt lat="45.79196" lon="6.65112">
        <ele>1831</ele>
        <time>2022-07-24T11:33:30Z</time>
      </trkpt>
      <trkpt lat="45.79195" lon="6.65112">
        <ele>1831</ele>
        <time>2022-07-24T11:33:31Z</time>
      </trkpt>
      <trkpt lat="45.79194" lon="6.65113">
        <ele>1831</ele>
        <time>2022-07-24T11:33:32Z</time>
      </trkpt>
      <trkpt lat="45.79194" lon="6.65113">
        <ele>1831</ele>
        <time>2022-07-24T11:33:33Z</time>
      </trkpt>
      <trkpt lat="45.79193" lon="6.65113">
        <ele>1831</ele>
        <time>2022-07-24T11:33:34Z</time>
      </trkpt>
      <trkpt lat="45.79193" lon="6.65114">
        <ele>1831</ele>
        <time>2022-07-24T11:33:35Z</time>
      </trkpt>
      <trkpt lat="45.79192" lon="6.65115">
        <ele>1831</ele>
        <time>2022-07-24T11:33:36Z</time>
      </trkpt>
      <trkpt lat="45.79191" lon="6.65116">
        <ele>1831</ele>
        <time>2022-07-24T11:33:37Z</time>
      </trkpt>
      <trkpt lat="45.7919" lon="6.65117">
        <ele>1831</ele>
        <time>2022-07-24T11:33:38Z</time>
      </trkpt>
      <trkpt lat="45.7919" lon="6.65117">
        <ele>1830</ele>
        <time>2022-07-24T11:33:39Z</time>
      </trkpt>
      <trkpt lat="45.79189" lon="6.65118">
        <ele>1830</ele>
        <time>2022-07-24T11:33:40Z</time>
      </trkpt>
      <trkpt lat="45.79188" lon="6.65119">
        <ele>1830</ele>
        <time>2022-07-24T11:33:41Z</time>
      </trkpt>
      <trkpt lat="45.79187" lon="6.6512">
        <ele>1830</ele>
        <time>2022-07-24T11:33:42Z</time>
      </trkpt>
      <trkpt lat="45.79186" lon="6.6512">
        <ele>1830</ele>
        <time>2022-07-24T11:33:43Z</time>
      </trkpt>
      <trkpt lat="45.79186" lon="6.65121">
        <ele>1830</ele>
        <time>2022-07-24T11:33:44Z</time>
      </trkpt>
      <trkpt lat="45.79185" lon="6.65121">
        <ele>1830</ele>
        <time>2022-07-24T11:33:45Z</time>
      </trkpt>
      <trkpt lat="45.79184" lon="6.65122">
        <ele>1830</ele>
        <time>2022-07-24T11:33:46Z</time>
      </trkpt>
      <trkpt lat="45.79183" lon="6.65122">
        <ele>1830</ele>
        <time>2022-07-24T11:33:47Z</time>
      </trkpt>
      <trkpt lat="45.79182" lon="6.65123">
        <ele>1830</ele>
        <time>2022-07-24T11:33:48Z</time>
      </trkpt>
      <trkpt lat="45.79181" lon="6.65124">
        <ele>1829</ele>
        <time>2022-07-24T11:33:49Z</time>
      </trkpt>
      <trkpt lat="45.7918" lon="6.65125">
        <ele>1829</ele>
        <time>2022-07-24T11:33:50Z</time>
      </trkpt>
      <trkpt lat="45.79179" lon="6.65126">
        <ele>1829</ele>
        <time>2022-07-24T11:33:51Z</time>
      </trkpt>
      <trkpt lat="45.79178" lon="6.65127">
        <ele>1829</ele>
        <time>2022-07-24T11:33:52Z</time>
      </trkpt>
      <trkpt lat="45.79178" lon="6.65128">
        <ele>1829</ele>
        <time>2022-07-24T11:33:53Z</time>
      </trkpt>
      <trkpt lat="45.79177" lon="6.65129">
        <ele>1828</ele>
        <time>2022-07-24T11:33:54Z</time>
      </trkpt>
      <trkpt lat="45.79176" lon="6.6513">
        <ele>1828</ele>
        <time>2022-07-24T11:33:55Z</time>
      </trkpt>
      <trkpt lat="45.79175" lon="6.65131">
        <ele>1828</ele>
        <time>2022-07-24T11:33:56Z</time>
      </trkpt>
      <trkpt lat="45.79175" lon="6.65132">
        <ele>1828</ele>
        <time>2022-07-24T11:33:57Z</time>
      </trkpt>
      <trkpt lat="45.79174" lon="6.65134">
        <ele>1828</ele>
        <time>2022-07-24T11:33:58Z</time>
      </trkpt>
      <trkpt lat="45.79173" lon="6.65135">
        <ele>1827</ele>
        <time>2022-07-24T11:33:59Z</time>
      </trkpt>
      <trkpt lat="45.79172" lon="6.65136">
        <ele>1827</ele>
        <time>2022-07-24T11:34:00Z</time>
      </trkpt>
      <trkpt lat="45.79171" lon="6.65137">
        <ele>1827</ele>
        <time>2022-07-24T11:34:01Z</time>
      </trkpt>
      <trkpt lat="45.7917" lon="6.65138">
        <ele>1827</ele>
        <time>2022-07-24T11:34:02Z</time>
      </trkpt>
      <trkpt lat="45.79169" lon="6.65139">
        <ele>1827</ele>
        <time>2022-07-24T11:34:03Z</time>
      </trkpt>
      <trkpt lat="45.79168" lon="6.6514">
        <ele>1827</ele>
        <time>2022-07-24T11:34:04Z</time>
      </trkpt>
      <trkpt lat="45.79167" lon="6.65141">
        <ele>1827</ele>
        <time>2022-07-24T11:34:05Z</time>
      </trkpt>
      <trkpt lat="45.79166" lon="6.65141">
        <ele>1827</ele>
        <time>2022-07-24T11:34:06Z</time>
      </trkpt>
      <trkpt lat="45.79165" lon="6.65142">
        <ele>1827</ele>
        <time>2022-07-24T11:34:07Z</time>
      </trkpt>
      <trkpt lat="45.79164" lon="6.65143">
        <ele>1827</ele>
        <time>2022-07-24T11:34:08Z</time>
      </trkpt>
      <trkpt lat="45.79164" lon="6.65144">
        <ele>1826</ele>
        <time>2022-07-24T11:34:09Z</time>
      </trkpt>
      <trkpt lat="45.79163" lon="6.65144">
        <ele>1826</ele>
        <time>2022-07-24T11:34:10Z</time>
      </trkpt>
      <trkpt lat="45.79162" lon="6.65145">
        <ele>1826</ele>
        <time>2022-07-24T11:34:11Z</time>
      </trkpt>
      <trkpt lat="45.79161" lon="6.65146">
        <ele>1826</ele>
        <time>2022-07-24T11:34:12Z</time>
      </trkpt>
      <trkpt lat="45.7916" lon="6.65147">
        <ele>1826</ele>
        <time>2022-07-24T11:34:13Z</time>
      </trkpt>
      <trkpt lat="45.79159" lon="6.65148">
        <ele>1826</ele>
        <time>2022-07-24T11:34:14Z</time>
      </trkpt>
      <trkpt lat="45.79158" lon="6.65149">
        <ele>1826</ele>
        <time>2022-07-24T11:34:15Z</time>
      </trkpt>
      <trkpt lat="45.79157" lon="6.65149">
        <ele>1826</ele>
        <time>2022-07-24T11:34:16Z</time>
      </trkpt>
      <trkpt lat="45.79157" lon="6.6515">
        <ele>1826</ele>
        <time>2022-07-24T11:34:17Z</time>
      </trkpt>
      <trkpt lat="45.79157" lon="6.6515">
        <ele>1826</ele>
        <time>2022-07-24T11:34:18Z</time>
      </trkpt>
      <trkpt lat="45.79156" lon="6.6515">
        <ele>1826</ele>
        <time>2022-07-24T11:34:19Z</time>
      </trkpt>
      <trkpt lat="45.79156" lon="6.65151">
        <ele>1826</ele>
        <time>2022-07-24T11:34:20Z</time>
      </trkpt>
      <trkpt lat="45.79155" lon="6.65152">
        <ele>1826</ele>
        <time>2022-07-24T11:34:21Z</time>
      </trkpt>
      <trkpt lat="45.79155" lon="6.65152">
        <ele>1826</ele>
        <time>2022-07-24T11:34:22Z</time>
      </trkpt>
      <trkpt lat="45.79154" lon="6.65153">
        <ele>1826</ele>
        <time>2022-07-24T11:34:23Z</time>
      </trkpt>
      <trkpt lat="45.79153" lon="6.65154">
        <ele>1825</ele>
        <time>2022-07-24T11:34:24Z</time>
      </trkpt>
      <trkpt lat="45.79153" lon="6.65155">
        <ele>1825</ele>
        <time>2022-07-24T11:34:25Z</time>
      </trkpt>
      <trkpt lat="45.79152" lon="6.65157">
        <ele>1825</ele>
        <time>2022-07-24T11:34:26Z</time>
      </trkpt>
      <trkpt lat="45.79151" lon="6.65158">
        <ele>1825</ele>
        <time>2022-07-24T11:34:27Z</time>
      </trkpt>
      <trkpt lat="45.7915" lon="6.6516">
        <ele>1825</ele>
        <time>2022-07-24T11:34:28Z</time>
      </trkpt>
      <trkpt lat="45.79149" lon="6.65162">
        <ele>1825</ele>
        <time>2022-07-24T11:34:29Z</time>
      </trkpt>
      <trkpt lat="45.79149" lon="6.65164">
        <ele>1825</ele>
        <time>2022-07-24T11:34:30Z</time>
      </trkpt>
      <trkpt lat="45.79148" lon="6.65166">
        <ele>1825</ele>
        <time>2022-07-24T11:34:31Z</time>
      </trkpt>
      <trkpt lat="45.79148" lon="6.65168">
        <ele>1825</ele>
        <time>2022-07-24T11:34:32Z</time>
      </trkpt>
      <trkpt lat="45.79148" lon="6.6517">
        <ele>1825</ele>
        <time>2022-07-24T11:34:33Z</time>
      </trkpt>
      <trkpt lat="45.79147" lon="6.65172">
        <ele>1824</ele>
        <time>2022-07-24T11:34:34Z</time>
      </trkpt>
      <trkpt lat="45.79147" lon="6.65174">
        <ele>1824</ele>
        <time>2022-07-24T11:34:35Z</time>
      </trkpt>
      <trkpt lat="45.79146" lon="6.65175">
        <ele>1824</ele>
        <time>2022-07-24T11:34:36Z</time>
      </trkpt>
      <trkpt lat="45.79146" lon="6.65176">
        <ele>1824</ele>
        <time>2022-07-24T11:34:37Z</time>
      </trkpt>
      <trkpt lat="45.79145" lon="6.65177">
        <ele>1824</ele>
        <time>2022-07-24T11:34:38Z</time>
      </trkpt>
      <trkpt lat="45.79144" lon="6.65178">
        <ele>1824</ele>
        <time>2022-07-24T11:34:39Z</time>
      </trkpt>
      <trkpt lat="45.79143" lon="6.65178">
        <ele>1824</ele>
        <time>2022-07-24T11:34:40Z</time>
      </trkpt>
      <trkpt lat="45.79142" lon="6.65178">
        <ele>1824</ele>
        <time>2022-07-24T11:34:41Z</time>
      </trkpt>
      <trkpt lat="45.79141" lon="6.65178">
        <ele>1824</ele>
        <time>2022-07-24T11:34:42Z</time>
      </trkpt>
      <trkpt lat="45.7914" lon="6.65179">
        <ele>1824</ele>
        <time>2022-07-24T11:34:43Z</time>
      </trkpt>
      <trkpt lat="45.79139" lon="6.65179">
        <ele>1824</ele>
        <time>2022-07-24T11:34:44Z</time>
      </trkpt>
      <trkpt lat="45.79138" lon="6.6518">
        <ele>1824</ele>
        <time>2022-07-24T11:34:45Z</time>
      </trkpt>
      <trkpt lat="45.79137" lon="6.65181">
        <ele>1824</ele>
        <time>2022-07-24T11:34:46Z</time>
      </trkpt>
      <trkpt lat="45.79136" lon="6.65182">
        <ele>1824</ele>
        <time>2022-07-24T11:34:47Z</time>
      </trkpt>
      <trkpt lat="45.79135" lon="6.65183">
        <ele>1824</ele>
        <time>2022-07-24T11:34:48Z</time>
      </trkpt>
      <trkpt lat="45.79134" lon="6.65184">
        <ele>1823</ele>
        <time>2022-07-24T11:34:49Z</time>
      </trkpt>
      <trkpt lat="45.79133" lon="6.65185">
        <ele>1823</ele>
        <time>2022-07-24T11:34:50Z</time>
      </trkpt>
      <trkpt lat="45.79132" lon="6.65186">
        <ele>1823</ele>
        <time>2022-07-24T11:34:51Z</time>
      </trkpt>
      <trkpt lat="45.79131" lon="6.65187">
        <ele>1823</ele>
        <time>2022-07-24T11:34:52Z</time>
      </trkpt>
      <trkpt lat="45.7913" lon="6.65188">
        <ele>1823</ele>
        <time>2022-07-24T11:34:53Z</time>
      </trkpt>
      <trkpt lat="45.7913" lon="6.65189">
        <ele>1823</ele>
        <time>2022-07-24T11:34:54Z</time>
      </trkpt>
      <trkpt lat="45.79129" lon="6.6519">
        <ele>1823</ele>
        <time>2022-07-24T11:34:55Z</time>
      </trkpt>
      <trkpt lat="45.79128" lon="6.65191">
        <ele>1823</ele>
        <time>2022-07-24T11:34:56Z</time>
      </trkpt>
      <trkpt lat="45.79127" lon="6.65191">
        <ele>1823</ele>
        <time>2022-07-24T11:34:57Z</time>
      </trkpt>
      <trkpt lat="45.79126" lon="6.65192">
        <ele>1823</ele>
        <time>2022-07-24T11:34:58Z</time>
      </trkpt>
      <trkpt lat="45.79126" lon="6.65192">
        <ele>1822</ele>
        <time>2022-07-24T11:34:59Z</time>
      </trkpt>
      <trkpt lat="45.79125" lon="6.65192">
        <ele>1822</ele>
        <time>2022-07-24T11:35:00Z</time>
      </trkpt>
      <trkpt lat="45.79123" lon="6.65193">
        <ele>1822</ele>
        <time>2022-07-24T11:35:01Z</time>
      </trkpt>
      <trkpt lat="45.79122" lon="6.65193">
        <ele>1822</ele>
        <time>2022-07-24T11:35:02Z</time>
      </trkpt>
      <trkpt lat="45.79121" lon="6.65194">
        <ele>1822</ele>
        <time>2022-07-24T11:35:03Z</time>
      </trkpt>
      <trkpt lat="45.7912" lon="6.65194">
        <ele>1821</ele>
        <time>2022-07-24T11:35:04Z</time>
      </trkpt>
      <trkpt lat="45.79119" lon="6.65195">
        <ele>1821</ele>
        <time>2022-07-24T11:35:05Z</time>
      </trkpt>
      <trkpt lat="45.79117" lon="6.65195">
        <ele>1821</ele>
        <time>2022-07-24T11:35:06Z</time>
      </trkpt>
      <trkpt lat="45.79116" lon="6.65195">
        <ele>1821</ele>
        <time>2022-07-24T11:35:07Z</time>
      </trkpt>
      <trkpt lat="45.79115" lon="6.65195">
        <ele>1821</ele>
        <time>2022-07-24T11:35:08Z</time>
      </trkpt>
      <trkpt lat="45.79113" lon="6.65196">
        <ele>1820</ele>
        <time>2022-07-24T11:35:09Z</time>
      </trkpt>
      <trkpt lat="45.79112" lon="6.65196">
        <ele>1820</ele>
        <time>2022-07-24T11:35:10Z</time>
      </trkpt>
      <trkpt lat="45.79111" lon="6.65196">
        <ele>1820</ele>
        <time>2022-07-24T11:35:11Z</time>
      </trkpt>
      <trkpt lat="45.7911" lon="6.65197">
        <ele>1820</ele>
        <time>2022-07-24T11:35:12Z</time>
      </trkpt>
      <trkpt lat="45.79109" lon="6.65198">
        <ele>1820</ele>
        <time>2022-07-24T11:35:13Z</time>
      </trkpt>
      <trkpt lat="45.79108" lon="6.65199">
        <ele>1819</ele>
        <time>2022-07-24T11:35:14Z</time>
      </trkpt>
      <trkpt lat="45.79107" lon="6.652">
        <ele>1819</ele>
        <time>2022-07-24T11:35:15Z</time>
      </trkpt>
      <trkpt lat="45.79106" lon="6.65201">
        <ele>1818</ele>
        <time>2022-07-24T11:35:16Z</time>
      </trkpt>
      <trkpt lat="45.79105" lon="6.65202">
        <ele>1818</ele>
        <time>2022-07-24T11:35:17Z</time>
      </trkpt>
      <trkpt lat="45.79104" lon="6.65203">
        <ele>1818</ele>
        <time>2022-07-24T11:35:18Z</time>
      </trkpt>
      <trkpt lat="45.79103" lon="6.65204">
        <ele>1817</ele>
        <time>2022-07-24T11:35:19Z</time>
      </trkpt>
      <trkpt lat="45.79102" lon="6.65205">
        <ele>1817</ele>
        <time>2022-07-24T11:35:20Z</time>
      </trkpt>
      <trkpt lat="45.79101" lon="6.65207">
        <ele>1817</ele>
        <time>2022-07-24T11:35:21Z</time>
      </trkpt>
      <trkpt lat="45.791" lon="6.65208">
        <ele>1817</ele>
        <time>2022-07-24T11:35:22Z</time>
      </trkpt>
      <trkpt lat="45.79099" lon="6.65209">
        <ele>1817</ele>
        <time>2022-07-24T11:35:23Z</time>
      </trkpt>
      <trkpt lat="45.79099" lon="6.65209">
        <ele>1817</ele>
        <time>2022-07-24T11:35:24Z</time>
      </trkpt>
      <trkpt lat="45.79098" lon="6.6521">
        <ele>1817</ele>
        <time>2022-07-24T11:35:25Z</time>
      </trkpt>
      <trkpt lat="45.79097" lon="6.65211">
        <ele>1817</ele>
        <time>2022-07-24T11:35:26Z</time>
      </trkpt>
      <trkpt lat="45.79097" lon="6.65212">
        <ele>1817</ele>
        <time>2022-07-24T11:35:27Z</time>
      </trkpt>
      <trkpt lat="45.79096" lon="6.65212">
        <ele>1817</ele>
        <time>2022-07-24T11:35:28Z</time>
      </trkpt>
      <trkpt lat="45.79096" lon="6.65213">
        <ele>1816</ele>
        <time>2022-07-24T11:35:29Z</time>
      </trkpt>
      <trkpt lat="45.79095" lon="6.65214">
        <ele>1816</ele>
        <time>2022-07-24T11:35:30Z</time>
      </trkpt>
      <trkpt lat="45.79094" lon="6.65214">
        <ele>1816</ele>
        <time>2022-07-24T11:35:31Z</time>
      </trkpt>
      <trkpt lat="45.79094" lon="6.65215">
        <ele>1816</ele>
        <time>2022-07-24T11:35:32Z</time>
      </trkpt>
      <trkpt lat="45.79094" lon="6.65215">
        <ele>1816</ele>
        <time>2022-07-24T11:35:33Z</time>
      </trkpt>
      <trkpt lat="45.79093" lon="6.65215">
        <ele>1816</ele>
        <time>2022-07-24T11:35:34Z</time>
      </trkpt>
      <trkpt lat="45.79093" lon="6.65216">
        <ele>1816</ele>
        <time>2022-07-24T11:35:35Z</time>
      </trkpt>
      <trkpt lat="45.79093" lon="6.65217">
        <ele>1816</ele>
        <time>2022-07-24T11:35:36Z</time>
      </trkpt>
      <trkpt lat="45.79092" lon="6.65217">
        <ele>1816</ele>
        <time>2022-07-24T11:35:37Z</time>
      </trkpt>
      <trkpt lat="45.79092" lon="6.65218">
        <ele>1816</ele>
        <time>2022-07-24T11:35:38Z</time>
      </trkpt>
      <trkpt lat="45.79092" lon="6.65219">
        <ele>1816</ele>
        <time>2022-07-24T11:35:39Z</time>
      </trkpt>
      <trkpt lat="45.79092" lon="6.6522">
        <ele>1816</ele>
        <time>2022-07-24T11:35:40Z</time>
      </trkpt>
      <trkpt lat="45.79092" lon="6.65221">
        <ele>1816</ele>
        <time>2022-07-24T11:35:41Z</time>
      </trkpt>
      <trkpt lat="45.79092" lon="6.65221">
        <ele>1816</ele>
        <time>2022-07-24T11:35:42Z</time>
      </trkpt>
      <trkpt lat="45.79091" lon="6.65222">
        <ele>1817</ele>
        <time>2022-07-24T11:35:43Z</time>
      </trkpt>
      <trkpt lat="45.79091" lon="6.65222">
        <ele>1817</ele>
        <time>2022-07-24T11:35:44Z</time>
      </trkpt>
      <trkpt lat="45.7909" lon="6.65223">
        <ele>1817</ele>
        <time>2022-07-24T11:35:45Z</time>
      </trkpt>
      <trkpt lat="45.79089" lon="6.65223">
        <ele>1817</ele>
        <time>2022-07-24T11:35:46Z</time>
      </trkpt>
      <trkpt lat="45.79088" lon="6.65224">
        <ele>1817</ele>
        <time>2022-07-24T11:35:47Z</time>
      </trkpt>
      <trkpt lat="45.79087" lon="6.65224">
        <ele>1817</ele>
        <time>2022-07-24T11:35:48Z</time>
      </trkpt>
      <trkpt lat="45.79087" lon="6.65225">
        <ele>1817</ele>
        <time>2022-07-24T11:35:49Z</time>
      </trkpt>
      <trkpt lat="45.79086" lon="6.65225">
        <ele>1817</ele>
        <time>2022-07-24T11:35:50Z</time>
      </trkpt>
      <trkpt lat="45.79085" lon="6.65226">
        <ele>1817</ele>
        <time>2022-07-24T11:35:51Z</time>
      </trkpt>
      <trkpt lat="45.79084" lon="6.65226">
        <ele>1817</ele>
        <time>2022-07-24T11:35:52Z</time>
      </trkpt>
      <trkpt lat="45.79084" lon="6.65227">
        <ele>1817</ele>
        <time>2022-07-24T11:35:53Z</time>
      </trkpt>
      <trkpt lat="45.79083" lon="6.65227">
        <ele>1817</ele>
        <time>2022-07-24T11:35:54Z</time>
      </trkpt>
      <trkpt lat="45.79082" lon="6.65228">
        <ele>1817</ele>
        <time>2022-07-24T11:35:55Z</time>
      </trkpt>
      <trkpt lat="45.79082" lon="6.65228">
        <ele>1817</ele>
        <time>2022-07-24T11:35:56Z</time>
      </trkpt>
      <trkpt lat="45.79081" lon="6.65228">
        <ele>1817</ele>
        <time>2022-07-24T11:35:57Z</time>
      </trkpt>
      <trkpt lat="45.7908" lon="6.65229">
        <ele>1817</ele>
        <time>2022-07-24T11:35:58Z</time>
      </trkpt>
      <trkpt lat="45.79079" lon="6.65229">
        <ele>1817</ele>
        <time>2022-07-24T11:35:59Z</time>
      </trkpt>
      <trkpt lat="45.79079" lon="6.65229">
        <ele>1817</ele>
        <time>2022-07-24T11:36:00Z</time>
      </trkpt>
      <trkpt lat="45.79078" lon="6.65229">
        <ele>1817</ele>
        <time>2022-07-24T11:36:01Z</time>
      </trkpt>
      <trkpt lat="45.79078" lon="6.6523">
        <ele>1817</ele>
        <time>2022-07-24T11:36:02Z</time>
      </trkpt>
      <trkpt lat="45.79077" lon="6.6523">
        <ele>1817</ele>
        <time>2022-07-24T11:36:03Z</time>
      </trkpt>
      <trkpt lat="45.79077" lon="6.6523">
        <ele>1817</ele>
        <time>2022-07-24T11:36:04Z</time>
      </trkpt>
      <trkpt lat="45.79076" lon="6.6523">
        <ele>1817</ele>
        <time>2022-07-24T11:36:05Z</time>
      </trkpt>
      <trkpt lat="45.79076" lon="6.65231">
        <ele>1817</ele>
        <time>2022-07-24T11:36:06Z</time>
      </trkpt>
      <trkpt lat="45.79075" lon="6.65231">
        <ele>1817</ele>
        <time>2022-07-24T11:36:07Z</time>
      </trkpt>
      <trkpt lat="45.79074" lon="6.65231">
        <ele>1818</ele>
        <time>2022-07-24T11:36:08Z</time>
      </trkpt>
      <trkpt lat="45.79073" lon="6.65232">
        <ele>1821</ele>
        <time>2022-07-24T11:36:34Z</time>
      </trkpt>
      <trkpt lat="45.79073" lon="6.65232">
        <ele>1821</ele>
        <time>2022-07-24T11:36:35Z</time>
      </trkpt>
      <trkpt lat="45.79073" lon="6.65232">
        <ele>1821</ele>
        <time>2022-07-24T11:36:36Z</time>
      </trkpt>
      <trkpt lat="45.79072" lon="6.65233">
        <ele>1821</ele>
        <time>2022-07-24T11:36:37Z</time>
      </trkpt>
      <trkpt lat="45.79072" lon="6.65233">
        <ele>1821</ele>
        <time>2022-07-24T11:36:38Z</time>
      </trkpt>
      <trkpt lat="45.79071" lon="6.65234">
        <ele>1821</ele>
        <time>2022-07-24T11:36:39Z</time>
      </trkpt>
      <trkpt lat="45.7907" lon="6.65235">
        <ele>1821</ele>
        <time>2022-07-24T11:36:40Z</time>
      </trkpt>
      <trkpt lat="45.79069" lon="6.65235">
        <ele>1821</ele>
        <time>2022-07-24T11:36:41Z</time>
      </trkpt>
      <trkpt lat="45.79068" lon="6.65236">
        <ele>1821</ele>
        <time>2022-07-24T11:36:42Z</time>
      </trkpt>
      <trkpt lat="45.79067" lon="6.65237">
        <ele>1821</ele>
        <time>2022-07-24T11:36:43Z</time>
      </trkpt>
      <trkpt lat="45.79066" lon="6.65238">
        <ele>1821</ele>
        <time>2022-07-24T11:36:44Z</time>
      </trkpt>
      <trkpt lat="45.79065" lon="6.6524">
        <ele>1821</ele>
        <time>2022-07-24T11:36:45Z</time>
      </trkpt>
      <trkpt lat="45.79064" lon="6.65241">
        <ele>1821</ele>
        <time>2022-07-24T11:36:46Z</time>
      </trkpt>
      <trkpt lat="45.79064" lon="6.65242">
        <ele>1821</ele>
        <time>2022-07-24T11:36:47Z</time>
      </trkpt>
      <trkpt lat="45.79063" lon="6.65243">
        <ele>1821</ele>
        <time>2022-07-24T11:36:48Z</time>
      </trkpt>
      <trkpt lat="45.79063" lon="6.65244">
        <ele>1821</ele>
        <time>2022-07-24T11:36:49Z</time>
      </trkpt>
      <trkpt lat="45.79063" lon="6.65245">
        <ele>1821</ele>
        <time>2022-07-24T11:36:50Z</time>
      </trkpt>
      <trkpt lat="45.79062" lon="6.65246">
        <ele>1821</ele>
        <time>2022-07-24T11:36:51Z</time>
      </trkpt>
      <trkpt lat="45.79062" lon="6.65247">
        <ele>1821</ele>
        <time>2022-07-24T11:36:52Z</time>
      </trkpt>
      <trkpt lat="45.79062" lon="6.65248">
        <ele>1821</ele>
        <time>2022-07-24T11:36:53Z</time>
      </trkpt>
      <trkpt lat="45.79062" lon="6.65249">
        <ele>1820</ele>
        <time>2022-07-24T11:36:54Z</time>
      </trkpt>
      <trkpt lat="45.79061" lon="6.6525">
        <ele>1820</ele>
        <time>2022-07-24T11:36:55Z</time>
      </trkpt>
      <trkpt lat="45.79061" lon="6.65251">
        <ele>1820</ele>
        <time>2022-07-24T11:36:56Z</time>
      </trkpt>
      <trkpt lat="45.7906" lon="6.65252">
        <ele>1820</ele>
        <time>2022-07-24T11:36:57Z</time>
      </trkpt>
      <trkpt lat="45.79059" lon="6.65252">
        <ele>1820</ele>
        <time>2022-07-24T11:36:58Z</time>
      </trkpt>
      <trkpt lat="45.79059" lon="6.65253">
        <ele>1820</ele>
        <time>2022-07-24T11:36:59Z</time>
      </trkpt>
      <trkpt lat="45.79058" lon="6.65254">
        <ele>1820</ele>
        <time>2022-07-24T11:37:00Z</time>
      </trkpt>
      <trkpt lat="45.79057" lon="6.65255">
        <ele>1820</ele>
        <time>2022-07-24T11:37:01Z</time>
      </trkpt>
      <trkpt lat="45.79056" lon="6.65255">
        <ele>1820</ele>
        <time>2022-07-24T11:37:02Z</time>
      </trkpt>
      <trkpt lat="45.79056" lon="6.65256">
        <ele>1820</ele>
        <time>2022-07-24T11:37:03Z</time>
      </trkpt>
      <trkpt lat="45.79055" lon="6.65257">
        <ele>1820</ele>
        <time>2022-07-24T11:37:04Z</time>
      </trkpt>
      <trkpt lat="45.79055" lon="6.65259">
        <ele>1820</ele>
        <time>2022-07-24T11:37:05Z</time>
      </trkpt>
      <trkpt lat="45.79054" lon="6.6526">
        <ele>1820</ele>
        <time>2022-07-24T11:37:06Z</time>
      </trkpt>
      <trkpt lat="45.79054" lon="6.65261">
        <ele>1820</ele>
        <time>2022-07-24T11:37:07Z</time>
      </trkpt>
      <trkpt lat="45.79053" lon="6.65263">
        <ele>1820</ele>
        <time>2022-07-24T11:37:08Z</time>
      </trkpt>
      <trkpt lat="45.79053" lon="6.65264">
        <ele>1819</ele>
        <time>2022-07-24T11:37:09Z</time>
      </trkpt>
      <trkpt lat="45.79053" lon="6.65266">
        <ele>1819</ele>
        <time>2022-07-24T11:37:10Z</time>
      </trkpt>
      <trkpt lat="45.79052" lon="6.65267">
        <ele>1818</ele>
        <time>2022-07-24T11:37:11Z</time>
      </trkpt>
      <trkpt lat="45.79052" lon="6.65268">
        <ele>1818</ele>
        <time>2022-07-24T11:37:12Z</time>
      </trkpt>
      <trkpt lat="45.79051" lon="6.65269">
        <ele>1818</ele>
        <time>2022-07-24T11:37:13Z</time>
      </trkpt>
      <trkpt lat="45.79051" lon="6.65271">
        <ele>1818</ele>
        <time>2022-07-24T11:37:14Z</time>
      </trkpt>
      <trkpt lat="45.7905" lon="6.65271">
        <ele>1818</ele>
        <time>2022-07-24T11:37:15Z</time>
      </trkpt>
      <trkpt lat="45.79049" lon="6.65272">
        <ele>1818</ele>
        <time>2022-07-24T11:37:16Z</time>
      </trkpt>
      <trkpt lat="45.79049" lon="6.65273">
        <ele>1818</ele>
        <time>2022-07-24T11:37:17Z</time>
      </trkpt>
      <trkpt lat="45.79049" lon="6.65273">
        <ele>1818</ele>
        <time>2022-07-24T11:37:18Z</time>
      </trkpt>
      <trkpt lat="45.79048" lon="6.65273">
        <ele>1818</ele>
        <time>2022-07-24T11:37:19Z</time>
      </trkpt>
      <trkpt lat="45.79048" lon="6.65274">
        <ele>1818</ele>
        <time>2022-07-24T11:37:20Z</time>
      </trkpt>
      <trkpt lat="45.79048" lon="6.65274">
        <ele>1818</ele>
        <time>2022-07-24T11:37:21Z</time>
      </trkpt>
      <trkpt lat="45.79047" lon="6.65275">
        <ele>1818</ele>
        <time>2022-07-24T11:37:22Z</time>
      </trkpt>
      <trkpt lat="45.79047" lon="6.65276">
        <ele>1818</ele>
        <time>2022-07-24T11:37:23Z</time>
      </trkpt>
      <trkpt lat="45.79046" lon="6.65276">
        <ele>1818</ele>
        <time>2022-07-24T11:37:24Z</time>
      </trkpt>
      <trkpt lat="45.79046" lon="6.65278">
        <ele>1818</ele>
        <time>2022-07-24T11:37:25Z</time>
      </trkpt>
      <trkpt lat="45.79045" lon="6.65279">
        <ele>1818</ele>
        <time>2022-07-24T11:37:26Z</time>
      </trkpt>
      <trkpt lat="45.79044" lon="6.6528">
        <ele>1818</ele>
        <time>2022-07-24T11:37:27Z</time>
      </trkpt>
      <trkpt lat="45.79044" lon="6.65281">
        <ele>1818</ele>
        <time>2022-07-24T11:37:28Z</time>
      </trkpt>
      <trkpt lat="45.79043" lon="6.65282">
        <ele>1818</ele>
        <time>2022-07-24T11:37:29Z</time>
      </trkpt>
      <trkpt lat="45.79042" lon="6.65284">
        <ele>1818</ele>
        <time>2022-07-24T11:37:30Z</time>
      </trkpt>
      <trkpt lat="45.79041" lon="6.65285">
        <ele>1818</ele>
        <time>2022-07-24T11:37:31Z</time>
      </trkpt>
      <trkpt lat="45.7904" lon="6.65286">
        <ele>1818</ele>
        <time>2022-07-24T11:37:32Z</time>
      </trkpt>
      <trkpt lat="45.79039" lon="6.65287">
        <ele>1818</ele>
        <time>2022-07-24T11:37:33Z</time>
      </trkpt>
      <trkpt lat="45.79039" lon="6.65288">
        <ele>1818</ele>
        <time>2022-07-24T11:37:34Z</time>
      </trkpt>
      <trkpt lat="45.79038" lon="6.65288">
        <ele>1818</ele>
        <time>2022-07-24T11:37:35Z</time>
      </trkpt>
      <trkpt lat="45.79037" lon="6.65289">
        <ele>1818</ele>
        <time>2022-07-24T11:37:36Z</time>
      </trkpt>
      <trkpt lat="45.79036" lon="6.6529">
        <ele>1818</ele>
        <time>2022-07-24T11:37:37Z</time>
      </trkpt>
      <trkpt lat="45.79035" lon="6.6529">
        <ele>1818</ele>
        <time>2022-07-24T11:37:38Z</time>
      </trkpt>
      <trkpt lat="45.79034" lon="6.65291">
        <ele>1818</ele>
        <time>2022-07-24T11:37:39Z</time>
      </trkpt>
      <trkpt lat="45.79033" lon="6.65291">
        <ele>1818</ele>
        <time>2022-07-24T11:37:40Z</time>
      </trkpt>
      <trkpt lat="45.79031" lon="6.65292">
        <ele>1818</ele>
        <time>2022-07-24T11:37:41Z</time>
      </trkpt>
      <trkpt lat="45.7903" lon="6.65293">
        <ele>1818</ele>
        <time>2022-07-24T11:37:42Z</time>
      </trkpt>
      <trkpt lat="45.79029" lon="6.65294">
        <ele>1818</ele>
        <time>2022-07-24T11:37:43Z</time>
      </trkpt>
      <trkpt lat="45.79028" lon="6.65295">
        <ele>1818</ele>
        <time>2022-07-24T11:37:44Z</time>
      </trkpt>
      <trkpt lat="45.79027" lon="6.65295">
        <ele>1818</ele>
        <time>2022-07-24T11:37:45Z</time>
      </trkpt>
      <trkpt lat="45.79026" lon="6.65296">
        <ele>1818</ele>
        <time>2022-07-24T11:37:46Z</time>
      </trkpt>
      <trkpt lat="45.79025" lon="6.65297">
        <ele>1818</ele>
        <time>2022-07-24T11:37:47Z</time>
      </trkpt>
      <trkpt lat="45.79024" lon="6.65298">
        <ele>1818</ele>
        <time>2022-07-24T11:37:48Z</time>
      </trkpt>
      <trkpt lat="45.79023" lon="6.65299">
        <ele>1818</ele>
        <time>2022-07-24T11:37:49Z</time>
      </trkpt>
      <trkpt lat="45.79022" lon="6.653">
        <ele>1818</ele>
        <time>2022-07-24T11:37:50Z</time>
      </trkpt>
      <trkpt lat="45.79021" lon="6.65301">
        <ele>1818</ele>
        <time>2022-07-24T11:37:51Z</time>
      </trkpt>
      <trkpt lat="45.7902" lon="6.65301">
        <ele>1818</ele>
        <time>2022-07-24T11:37:52Z</time>
      </trkpt>
      <trkpt lat="45.79019" lon="6.65302">
        <ele>1818</ele>
        <time>2022-07-24T11:37:53Z</time>
      </trkpt>
      <trkpt lat="45.79018" lon="6.65302">
        <ele>1818</ele>
        <time>2022-07-24T11:37:54Z</time>
      </trkpt>
      <trkpt lat="45.79017" lon="6.65303">
        <ele>1818</ele>
        <time>2022-07-24T11:37:55Z</time>
      </trkpt>
      <trkpt lat="45.79015" lon="6.65303">
        <ele>1818</ele>
        <time>2022-07-24T11:37:56Z</time>
      </trkpt>
      <trkpt lat="45.79014" lon="6.65304">
        <ele>1818</ele>
        <time>2022-07-24T11:37:57Z</time>
      </trkpt>
      <trkpt lat="45.79013" lon="6.65304">
        <ele>1818</ele>
        <time>2022-07-24T11:37:58Z</time>
      </trkpt>
      <trkpt lat="45.79012" lon="6.65305">
        <ele>1818</ele>
        <time>2022-07-24T11:37:59Z</time>
      </trkpt>
      <trkpt lat="45.79011" lon="6.65306">
        <ele>1818</ele>
        <time>2022-07-24T11:38:00Z</time>
      </trkpt>
      <trkpt lat="45.7901" lon="6.65306">
        <ele>1818</ele>
        <time>2022-07-24T11:38:01Z</time>
      </trkpt>
      <trkpt lat="45.79009" lon="6.65307">
        <ele>1818</ele>
        <time>2022-07-24T11:38:02Z</time>
      </trkpt>
      <trkpt lat="45.79008" lon="6.65308">
        <ele>1818</ele>
        <time>2022-07-24T11:38:03Z</time>
      </trkpt>
      <trkpt lat="45.79007" lon="6.65309">
        <ele>1818</ele>
        <time>2022-07-24T11:38:04Z</time>
      </trkpt>
      <trkpt lat="45.79006" lon="6.6531">
        <ele>1818</ele>
        <time>2022-07-24T11:38:05Z</time>
      </trkpt>
      <trkpt lat="45.79005" lon="6.65311">
        <ele>1818</ele>
        <time>2022-07-24T11:38:06Z</time>
      </trkpt>
      <trkpt lat="45.79004" lon="6.65311">
        <ele>1818</ele>
        <time>2022-07-24T11:38:07Z</time>
      </trkpt>
      <trkpt lat="45.79003" lon="6.65312">
        <ele>1818</ele>
        <time>2022-07-24T11:38:08Z</time>
      </trkpt>
      <trkpt lat="45.79002" lon="6.65313">
        <ele>1818</ele>
        <time>2022-07-24T11:38:09Z</time>
      </trkpt>
      <trkpt lat="45.79001" lon="6.65314">
        <ele>1818</ele>
        <time>2022-07-24T11:38:10Z</time>
      </trkpt>
      <trkpt lat="45.78999" lon="6.65314">
        <ele>1818</ele>
        <time>2022-07-24T11:38:11Z</time>
      </trkpt>
      <trkpt lat="45.78998" lon="6.65315">
        <ele>1818</ele>
        <time>2022-07-24T11:38:12Z</time>
      </trkpt>
      <trkpt lat="45.78997" lon="6.65315">
        <ele>1818</ele>
        <time>2022-07-24T11:38:13Z</time>
      </trkpt>
      <trkpt lat="45.78996" lon="6.65316">
        <ele>1818</ele>
        <time>2022-07-24T11:38:14Z</time>
      </trkpt>
      <trkpt lat="45.78995" lon="6.65317">
        <ele>1818</ele>
        <time>2022-07-24T11:38:15Z</time>
      </trkpt>
      <trkpt lat="45.78994" lon="6.65317">
        <ele>1818</ele>
        <time>2022-07-24T11:38:16Z</time>
      </trkpt>
      <trkpt lat="45.78993" lon="6.65318">
        <ele>1818</ele>
        <time>2022-07-24T11:38:17Z</time>
      </trkpt>
      <trkpt lat="45.78992" lon="6.65318">
        <ele>1818</ele>
        <time>2022-07-24T11:38:18Z</time>
      </trkpt>
      <trkpt lat="45.7899" lon="6.65319">
        <ele>1818</ele>
        <time>2022-07-24T11:38:19Z</time>
      </trkpt>
      <trkpt lat="45.78989" lon="6.65319">
        <ele>1818</ele>
        <time>2022-07-24T11:38:20Z</time>
      </trkpt>
      <trkpt lat="45.78988" lon="6.6532">
        <ele>1818</ele>
        <time>2022-07-24T11:38:21Z</time>
      </trkpt>
      <trkpt lat="45.78987" lon="6.6532">
        <ele>1818</ele>
        <time>2022-07-24T11:38:22Z</time>
      </trkpt>
      <trkpt lat="45.78986" lon="6.65321">
        <ele>1818</ele>
        <time>2022-07-24T11:38:23Z</time>
      </trkpt>
      <trkpt lat="45.78985" lon="6.65321">
        <ele>1818</ele>
        <time>2022-07-24T11:38:24Z</time>
      </trkpt>
      <trkpt lat="45.78984" lon="6.65322">
        <ele>1818</ele>
        <time>2022-07-24T11:38:25Z</time>
      </trkpt>
      <trkpt lat="45.78983" lon="6.65323">
        <ele>1818</ele>
        <time>2022-07-24T11:38:26Z</time>
      </trkpt>
      <trkpt lat="45.78982" lon="6.65324">
        <ele>1818</ele>
        <time>2022-07-24T11:38:27Z</time>
      </trkpt>
      <trkpt lat="45.78982" lon="6.65325">
        <ele>1818</ele>
        <time>2022-07-24T11:38:28Z</time>
      </trkpt>
      <trkpt lat="45.78981" lon="6.65326">
        <ele>1818</ele>
        <time>2022-07-24T11:38:29Z</time>
      </trkpt>
      <trkpt lat="45.78981" lon="6.65328">
        <ele>1818</ele>
        <time>2022-07-24T11:38:30Z</time>
      </trkpt>
      <trkpt lat="45.7898" lon="6.65329">
        <ele>1818</ele>
        <time>2022-07-24T11:38:31Z</time>
      </trkpt>
      <trkpt lat="45.7898" lon="6.6533">
        <ele>1818</ele>
        <time>2022-07-24T11:38:32Z</time>
      </trkpt>
      <trkpt lat="45.7898" lon="6.65332">
        <ele>1818</ele>
        <time>2022-07-24T11:38:33Z</time>
      </trkpt>
      <trkpt lat="45.78979" lon="6.65333">
        <ele>1818</ele>
        <time>2022-07-24T11:38:34Z</time>
      </trkpt>
      <trkpt lat="45.78979" lon="6.65334">
        <ele>1818</ele>
        <time>2022-07-24T11:38:35Z</time>
      </trkpt>
      <trkpt lat="45.78979" lon="6.65336">
        <ele>1818</ele>
        <time>2022-07-24T11:38:36Z</time>
      </trkpt>
      <trkpt lat="45.78978" lon="6.65337">
        <ele>1818</ele>
        <time>2022-07-24T11:38:37Z</time>
      </trkpt>
      <trkpt lat="45.78978" lon="6.65339">
        <ele>1818</ele>
        <time>2022-07-24T11:38:38Z</time>
      </trkpt>
      <trkpt lat="45.78978" lon="6.6534">
        <ele>1818</ele>
        <time>2022-07-24T11:38:39Z</time>
      </trkpt>
      <trkpt lat="45.78977" lon="6.65342">
        <ele>1818</ele>
        <time>2022-07-24T11:38:40Z</time>
      </trkpt>
      <trkpt lat="45.78977" lon="6.65343">
        <ele>1818</ele>
        <time>2022-07-24T11:38:41Z</time>
      </trkpt>
      <trkpt lat="45.78976" lon="6.65345">
        <ele>1818</ele>
        <time>2022-07-24T11:38:42Z</time>
      </trkpt>
      <trkpt lat="45.78976" lon="6.65346">
        <ele>1818</ele>
        <time>2022-07-24T11:38:43Z</time>
      </trkpt>
      <trkpt lat="45.78975" lon="6.65348">
        <ele>1818</ele>
        <time>2022-07-24T11:38:44Z</time>
      </trkpt>
      <trkpt lat="45.78975" lon="6.65349">
        <ele>1818</ele>
        <time>2022-07-24T11:38:45Z</time>
      </trkpt>
      <trkpt lat="45.78974" lon="6.65351">
        <ele>1818</ele>
        <time>2022-07-24T11:38:46Z</time>
      </trkpt>
      <trkpt lat="45.78973" lon="6.65352">
        <ele>1818</ele>
        <time>2022-07-24T11:38:47Z</time>
      </trkpt>
      <trkpt lat="45.78973" lon="6.65353">
        <ele>1818</ele>
        <time>2022-07-24T11:38:48Z</time>
      </trkpt>
      <trkpt lat="45.78972" lon="6.65354">
        <ele>1817</ele>
        <time>2022-07-24T11:38:49Z</time>
      </trkpt>
      <trkpt lat="45.78971" lon="6.65356">
        <ele>1817</ele>
        <time>2022-07-24T11:38:50Z</time>
      </trkpt>
      <trkpt lat="45.7897" lon="6.65357">
        <ele>1817</ele>
        <time>2022-07-24T11:38:51Z</time>
      </trkpt>
      <trkpt lat="45.78969" lon="6.65358">
        <ele>1817</ele>
        <time>2022-07-24T11:38:52Z</time>
      </trkpt>
      <trkpt lat="45.78969" lon="6.6536">
        <ele>1817</ele>
        <time>2022-07-24T11:38:53Z</time>
      </trkpt>
      <trkpt lat="45.78968" lon="6.65361">
        <ele>1817</ele>
        <time>2022-07-24T11:38:54Z</time>
      </trkpt>
      <trkpt lat="45.78967" lon="6.65362">
        <ele>1817</ele>
        <time>2022-07-24T11:38:55Z</time>
      </trkpt>
      <trkpt lat="45.78966" lon="6.65364">
        <ele>1817</ele>
        <time>2022-07-24T11:38:56Z</time>
      </trkpt>
      <trkpt lat="45.78966" lon="6.65365">
        <ele>1817</ele>
        <time>2022-07-24T11:38:57Z</time>
      </trkpt>
      <trkpt lat="45.78965" lon="6.65366">
        <ele>1817</ele>
        <time>2022-07-24T11:38:58Z</time>
      </trkpt>
      <trkpt lat="45.78964" lon="6.65368">
        <ele>1817</ele>
        <time>2022-07-24T11:38:59Z</time>
      </trkpt>
      <trkpt lat="45.78964" lon="6.65369">
        <ele>1817</ele>
        <time>2022-07-24T11:39:00Z</time>
      </trkpt>
      <trkpt lat="45.78963" lon="6.65371">
        <ele>1817</ele>
        <time>2022-07-24T11:39:01Z</time>
      </trkpt>
      <trkpt lat="45.78963" lon="6.65372">
        <ele>1817</ele>
        <time>2022-07-24T11:39:02Z</time>
      </trkpt>
      <trkpt lat="45.78962" lon="6.65374">
        <ele>1817</ele>
        <time>2022-07-24T11:39:03Z</time>
      </trkpt>
      <trkpt lat="45.78961" lon="6.65375">
        <ele>1817</ele>
        <time>2022-07-24T11:39:04Z</time>
      </trkpt>
      <trkpt lat="45.78961" lon="6.65377">
        <ele>1817</ele>
        <time>2022-07-24T11:39:05Z</time>
      </trkpt>
      <trkpt lat="45.7896" lon="6.65378">
        <ele>1817</ele>
        <time>2022-07-24T11:39:06Z</time>
      </trkpt>
      <trkpt lat="45.7896" lon="6.6538">
        <ele>1817</ele>
        <time>2022-07-24T11:39:07Z</time>
      </trkpt>
      <trkpt lat="45.78959" lon="6.65381">
        <ele>1817</ele>
        <time>2022-07-24T11:39:08Z</time>
      </trkpt>
      <trkpt lat="45.78958" lon="6.65383">
        <ele>1817</ele>
        <time>2022-07-24T11:39:23Z</time>
      </trkpt>
      <trkpt lat="45.78957" lon="6.65385">
        <ele>1817</ele>
        <time>2022-07-24T11:39:24Z</time>
      </trkpt>
      <trkpt lat="45.78957" lon="6.65386">
        <ele>1817</ele>
        <time>2022-07-24T11:39:25Z</time>
      </trkpt>
      <trkpt lat="45.78955" lon="6.65387">
        <ele>1816</ele>
        <time>2022-07-24T11:40:04Z</time>
      </trkpt>
      <trkpt lat="45.78955" lon="6.65387">
        <ele>1816</ele>
        <time>2022-07-24T11:40:05Z</time>
      </trkpt>
      <trkpt lat="45.78954" lon="6.65388">
        <ele>1816</ele>
        <time>2022-07-24T11:40:06Z</time>
      </trkpt>
      <trkpt lat="45.78954" lon="6.65389">
        <ele>1816</ele>
        <time>2022-07-24T11:40:07Z</time>
      </trkpt>
      <trkpt lat="45.78954" lon="6.6539">
        <ele>1816</ele>
        <time>2022-07-24T11:40:08Z</time>
      </trkpt>
      <trkpt lat="45.78953" lon="6.65391">
        <ele>1816</ele>
        <time>2022-07-24T11:40:09Z</time>
      </trkpt>
      <trkpt lat="45.78953" lon="6.65392">
        <ele>1816</ele>
        <time>2022-07-24T11:40:10Z</time>
      </trkpt>
      <trkpt lat="45.78952" lon="6.65393">
        <ele>1816</ele>
        <time>2022-07-24T11:40:11Z</time>
      </trkpt>
      <trkpt lat="45.78952" lon="6.65395">
        <ele>1816</ele>
        <time>2022-07-24T11:40:12Z</time>
      </trkpt>
      <trkpt lat="45.78951" lon="6.65396">
        <ele>1816</ele>
        <time>2022-07-24T11:40:13Z</time>
      </trkpt>
      <trkpt lat="45.78951" lon="6.65398">
        <ele>1816</ele>
        <time>2022-07-24T11:40:14Z</time>
      </trkpt>
      <trkpt lat="45.78951" lon="6.65399">
        <ele>1816</ele>
        <time>2022-07-24T11:40:15Z</time>
      </trkpt>
      <trkpt lat="45.78951" lon="6.654">
        <ele>1816</ele>
        <time>2022-07-24T11:40:16Z</time>
      </trkpt>
      <trkpt lat="45.78951" lon="6.65402">
        <ele>1816</ele>
        <time>2022-07-24T11:40:17Z</time>
      </trkpt>
      <trkpt lat="45.78951" lon="6.65403">
        <ele>1816</ele>
        <time>2022-07-24T11:40:18Z</time>
      </trkpt>
      <trkpt lat="45.78951" lon="6.65405">
        <ele>1816</ele>
        <time>2022-07-24T11:40:19Z</time>
      </trkpt>
      <trkpt lat="45.78951" lon="6.65406">
        <ele>1816</ele>
        <time>2022-07-24T11:40:20Z</time>
      </trkpt>
      <trkpt lat="45.78951" lon="6.65408">
        <ele>1816</ele>
        <time>2022-07-24T11:40:21Z</time>
      </trkpt>
      <trkpt lat="45.7895" lon="6.65409">
        <ele>1816</ele>
        <time>2022-07-24T11:40:22Z</time>
      </trkpt>
      <trkpt lat="45.7895" lon="6.65411">
        <ele>1817</ele>
        <time>2022-07-24T11:40:23Z</time>
      </trkpt>
      <trkpt lat="45.7895" lon="6.65412">
        <ele>1817</ele>
        <time>2022-07-24T11:40:24Z</time>
      </trkpt>
      <trkpt lat="45.78949" lon="6.65414">
        <ele>1817</ele>
        <time>2022-07-24T11:40:25Z</time>
      </trkpt>
      <trkpt lat="45.78948" lon="6.65416">
        <ele>1817</ele>
        <time>2022-07-24T11:40:26Z</time>
      </trkpt>
      <trkpt lat="45.78948" lon="6.65417">
        <ele>1817</ele>
        <time>2022-07-24T11:40:27Z</time>
      </trkpt>
      <trkpt lat="45.78947" lon="6.65419">
        <ele>1818</ele>
        <time>2022-07-24T11:40:28Z</time>
      </trkpt>
      <trkpt lat="45.78947" lon="6.6542">
        <ele>1818</ele>
        <time>2022-07-24T11:40:29Z</time>
      </trkpt>
      <trkpt lat="45.78946" lon="6.65422">
        <ele>1818</ele>
        <time>2022-07-24T11:40:30Z</time>
      </trkpt>
      <trkpt lat="45.78946" lon="6.65423">
        <ele>1818</ele>
        <time>2022-07-24T11:40:31Z</time>
      </trkpt>
      <trkpt lat="45.78945" lon="6.65425">
        <ele>1818</ele>
        <time>2022-07-24T11:40:32Z</time>
      </trkpt>
      <trkpt lat="45.78945" lon="6.65426">
        <ele>1818</ele>
        <time>2022-07-24T11:40:33Z</time>
      </trkpt>
      <trkpt lat="45.78944" lon="6.65427">
        <ele>1818</ele>
        <time>2022-07-24T11:40:34Z</time>
      </trkpt>
      <trkpt lat="45.78943" lon="6.65428">
        <ele>1818</ele>
        <time>2022-07-24T11:40:35Z</time>
      </trkpt>
      <trkpt lat="45.78942" lon="6.65429">
        <ele>1818</ele>
        <time>2022-07-24T11:40:36Z</time>
      </trkpt>
      <trkpt lat="45.78941" lon="6.6543">
        <ele>1818</ele>
        <time>2022-07-24T11:40:37Z</time>
      </trkpt>
      <trkpt lat="45.78941" lon="6.6543">
        <ele>1818</ele>
        <time>2022-07-24T11:40:38Z</time>
      </trkpt>
      <trkpt lat="45.7894" lon="6.65431">
        <ele>1820</ele>
        <time>2022-07-24T11:40:49Z</time>
      </trkpt>
      <trkpt lat="45.7894" lon="6.65431">
        <ele>1820</ele>
        <time>2022-07-24T11:40:50Z</time>
      </trkpt>
      <trkpt lat="45.78939" lon="6.65432">
        <ele>1820</ele>
        <time>2022-07-24T11:40:51Z</time>
      </trkpt>
      <trkpt lat="45.78939" lon="6.65433">
        <ele>1820</ele>
        <time>2022-07-24T11:40:52Z</time>
      </trkpt>
      <trkpt lat="45.78939" lon="6.65433">
        <ele>1820</ele>
        <time>2022-07-24T11:40:53Z</time>
      </trkpt>
      <trkpt lat="45.78938" lon="6.65435">
        <ele>1820</ele>
        <time>2022-07-24T11:40:54Z</time>
      </trkpt>
      <trkpt lat="45.78938" lon="6.65436">
        <ele>1820</ele>
        <time>2022-07-24T11:40:55Z</time>
      </trkpt>
      <trkpt lat="45.78937" lon="6.65437">
        <ele>1820</ele>
        <time>2022-07-24T11:40:56Z</time>
      </trkpt>
      <trkpt lat="45.78936" lon="6.65438">
        <ele>1820</ele>
        <time>2022-07-24T11:40:57Z</time>
      </trkpt>
      <trkpt lat="45.78935" lon="6.65439">
        <ele>1820</ele>
        <time>2022-07-24T11:40:58Z</time>
      </trkpt>
      <trkpt lat="45.78934" lon="6.6544">
        <ele>1820</ele>
        <time>2022-07-24T11:40:59Z</time>
      </trkpt>
      <trkpt lat="45.78934" lon="6.65441">
        <ele>1820</ele>
        <time>2022-07-24T11:41:00Z</time>
      </trkpt>
      <trkpt lat="45.78934" lon="6.65441">
        <ele>1820</ele>
        <time>2022-07-24T11:41:01Z</time>
      </trkpt>
      <trkpt lat="45.78933" lon="6.65441">
        <ele>1820</ele>
        <time>2022-07-24T11:41:02Z</time>
      </trkpt>
      <trkpt lat="45.78933" lon="6.65442">
        <ele>1821</ele>
        <time>2022-07-24T11:41:03Z</time>
      </trkpt>
      <trkpt lat="45.78933" lon="6.65442">
        <ele>1821</ele>
        <time>2022-07-24T11:41:04Z</time>
      </trkpt>
      <trkpt lat="45.78932" lon="6.65443">
        <ele>1821</ele>
        <time>2022-07-24T11:41:05Z</time>
      </trkpt>
      <trkpt lat="45.78931" lon="6.65443">
        <ele>1821</ele>
        <time>2022-07-24T11:41:06Z</time>
      </trkpt>
      <trkpt lat="45.7893" lon="6.65443">
        <ele>1821</ele>
        <time>2022-07-24T11:41:07Z</time>
      </trkpt>
      <trkpt lat="45.7893" lon="6.65444">
        <ele>1821</ele>
        <time>2022-07-24T11:41:08Z</time>
      </trkpt>
      <trkpt lat="45.78929" lon="6.65444">
        <ele>1820</ele>
        <time>2022-07-24T11:41:09Z</time>
      </trkpt>
      <trkpt lat="45.78928" lon="6.65444">
        <ele>1820</ele>
        <time>2022-07-24T11:41:10Z</time>
      </trkpt>
      <trkpt lat="45.78926" lon="6.65445">
        <ele>1820</ele>
        <time>2022-07-24T11:41:11Z</time>
      </trkpt>
      <trkpt lat="45.78925" lon="6.65445">
        <ele>1820</ele>
        <time>2022-07-24T11:41:12Z</time>
      </trkpt>
      <trkpt lat="45.78924" lon="6.65445">
        <ele>1820</ele>
        <time>2022-07-24T11:41:13Z</time>
      </trkpt>
      <trkpt lat="45.78923" lon="6.65445">
        <ele>1820</ele>
        <time>2022-07-24T11:41:14Z</time>
      </trkpt>
      <trkpt lat="45.78922" lon="6.65445">
        <ele>1820</ele>
        <time>2022-07-24T11:41:15Z</time>
      </trkpt>
      <trkpt lat="45.78921" lon="6.65444">
        <ele>1820</ele>
        <time>2022-07-24T11:41:16Z</time>
      </trkpt>
      <trkpt lat="45.7892" lon="6.65443">
        <ele>1820</ele>
        <time>2022-07-24T11:41:17Z</time>
      </trkpt>
      <trkpt lat="45.78919" lon="6.65442">
        <ele>1821</ele>
        <time>2022-07-24T11:41:18Z</time>
      </trkpt>
      <trkpt lat="45.78917" lon="6.65441">
        <ele>1820</ele>
        <time>2022-07-24T11:41:19Z</time>
      </trkpt>
      <trkpt lat="45.78916" lon="6.6544">
        <ele>1820</ele>
        <time>2022-07-24T11:41:20Z</time>
      </trkpt>
      <trkpt lat="45.78915" lon="6.6544">
        <ele>1820</ele>
        <time>2022-07-24T11:41:21Z</time>
      </trkpt>
      <trkpt lat="45.78914" lon="6.6544">
        <ele>1820</ele>
        <time>2022-07-24T11:41:22Z</time>
      </trkpt>
      <trkpt lat="45.78913" lon="6.6544">
        <ele>1820</ele>
        <time>2022-07-24T11:41:23Z</time>
      </trkpt>
      <trkpt lat="45.78911" lon="6.6544">
        <ele>1820</ele>
        <time>2022-07-24T11:41:24Z</time>
      </trkpt>
      <trkpt lat="45.7891" lon="6.65441">
        <ele>1820</ele>
        <time>2022-07-24T11:41:25Z</time>
      </trkpt>
      <trkpt lat="45.78909" lon="6.65442">
        <ele>1820</ele>
        <time>2022-07-24T11:41:26Z</time>
      </trkpt>
      <trkpt lat="45.78908" lon="6.65443">
        <ele>1820</ele>
        <time>2022-07-24T11:41:27Z</time>
      </trkpt>
      <trkpt lat="45.78907" lon="6.65443">
        <ele>1820</ele>
        <time>2022-07-24T11:41:28Z</time>
      </trkpt>
      <trkpt lat="45.78906" lon="6.65444">
        <ele>1820</ele>
        <time>2022-07-24T11:41:29Z</time>
      </trkpt>
      <trkpt lat="45.78905" lon="6.65445">
        <ele>1820</ele>
        <time>2022-07-24T11:41:30Z</time>
      </trkpt>
      <trkpt lat="45.78904" lon="6.65447">
        <ele>1820</ele>
        <time>2022-07-24T11:41:31Z</time>
      </trkpt>
      <trkpt lat="45.78904" lon="6.65448">
        <ele>1820</ele>
        <time>2022-07-24T11:41:32Z</time>
      </trkpt>
      <trkpt lat="45.78903" lon="6.65449">
        <ele>1820</ele>
        <time>2022-07-24T11:41:33Z</time>
      </trkpt>
      <trkpt lat="45.78903" lon="6.6545">
        <ele>1820</ele>
        <time>2022-07-24T11:41:34Z</time>
      </trkpt>
      <trkpt lat="45.78902" lon="6.65451">
        <ele>1820</ele>
        <time>2022-07-24T11:41:35Z</time>
      </trkpt>
      <trkpt lat="45.78902" lon="6.65452">
        <ele>1820</ele>
        <time>2022-07-24T11:41:36Z</time>
      </trkpt>
      <trkpt lat="45.78901" lon="6.65453">
        <ele>1820</ele>
        <time>2022-07-24T11:41:37Z</time>
      </trkpt>
      <trkpt lat="45.789" lon="6.65454">
        <ele>1821</ele>
        <time>2022-07-24T11:41:38Z</time>
      </trkpt>
      <trkpt lat="45.789" lon="6.65455">
        <ele>1821</ele>
        <time>2022-07-24T11:41:39Z</time>
      </trkpt>
      <trkpt lat="45.78899" lon="6.65455">
        <ele>1821</ele>
        <time>2022-07-24T11:41:40Z</time>
      </trkpt>
      <trkpt lat="45.78899" lon="6.65456">
        <ele>1821</ele>
        <time>2022-07-24T11:41:41Z</time>
      </trkpt>
      <trkpt lat="45.78898" lon="6.65457">
        <ele>1821</ele>
        <time>2022-07-24T11:41:42Z</time>
      </trkpt>
      <trkpt lat="45.78898" lon="6.65458">
        <ele>1821</ele>
        <time>2022-07-24T11:41:43Z</time>
      </trkpt>
      <trkpt lat="45.78897" lon="6.65459">
        <ele>1821</ele>
        <time>2022-07-24T11:41:44Z</time>
      </trkpt>
      <trkpt lat="45.78897" lon="6.65462">
        <ele>1823</ele>
        <time>2022-07-24T11:42:01Z</time>
      </trkpt>
      <trkpt lat="45.78897" lon="6.65463">
        <ele>1823</ele>
        <time>2022-07-24T11:42:02Z</time>
      </trkpt>
      <trkpt lat="45.78897" lon="6.65464">
        <ele>1824</ele>
        <time>2022-07-24T11:42:03Z</time>
      </trkpt>
      <trkpt lat="45.78899" lon="6.65466">
        <ele>1825</ele>
        <time>2022-07-24T11:42:19Z</time>
      </trkpt>
      <trkpt lat="45.78899" lon="6.65467">
        <ele>1825</ele>
        <time>2022-07-24T11:42:20Z</time>
      </trkpt>
      <trkpt lat="45.789" lon="6.65468">
        <ele>1825</ele>
        <time>2022-07-24T11:42:21Z</time>
      </trkpt>
      <trkpt lat="45.78901" lon="6.65468">
        <ele>1825</ele>
        <time>2022-07-24T11:42:22Z</time>
      </trkpt>
      <trkpt lat="45.78901" lon="6.65468">
        <ele>1826</ele>
        <time>2022-07-24T11:42:23Z</time>
      </trkpt>
      <trkpt lat="45.78902" lon="6.65468">
        <ele>1826</ele>
        <time>2022-07-24T11:42:24Z</time>
      </trkpt>
      <trkpt lat="45.78902" lon="6.65468">
        <ele>1826</ele>
        <time>2022-07-24T11:42:25Z</time>
      </trkpt>
      <trkpt lat="45.78903" lon="6.65468">
        <ele>1826</ele>
        <time>2022-07-24T11:42:26Z</time>
      </trkpt>
      <trkpt lat="45.78904" lon="6.65468">
        <ele>1826</ele>
        <time>2022-07-24T11:42:27Z</time>
      </trkpt>
      <trkpt lat="45.78905" lon="6.65468">
        <ele>1826</ele>
        <time>2022-07-24T11:42:28Z</time>
      </trkpt>
      <trkpt lat="45.78905" lon="6.65469">
        <ele>1826</ele>
        <time>2022-07-24T11:42:29Z</time>
      </trkpt>
      <trkpt lat="45.78906" lon="6.65469">
        <ele>1826</ele>
        <time>2022-07-24T11:42:30Z</time>
      </trkpt>
      <trkpt lat="45.78907" lon="6.65469">
        <ele>1826</ele>
        <time>2022-07-24T11:42:31Z</time>
      </trkpt>
      <trkpt lat="45.78907" lon="6.65469">
        <ele>1826</ele>
        <time>2022-07-24T11:42:32Z</time>
      </trkpt>
      <trkpt lat="45.78908" lon="6.6547">
        <ele>1827</ele>
        <time>2022-07-24T11:42:33Z</time>
      </trkpt>
      <trkpt lat="45.78908" lon="6.6547">
        <ele>1827</ele>
        <time>2022-07-24T11:42:34Z</time>
      </trkpt>
      <trkpt lat="45.78909" lon="6.65471">
        <ele>1827</ele>
        <time>2022-07-24T11:42:35Z</time>
      </trkpt>
      <trkpt lat="45.78909" lon="6.65471">
        <ele>1827</ele>
        <time>2022-07-24T11:42:36Z</time>
      </trkpt>
      <trkpt lat="45.7891" lon="6.65472">
        <ele>1827</ele>
        <time>2022-07-24T11:42:37Z</time>
      </trkpt>
      <trkpt lat="45.78911" lon="6.65472">
        <ele>1828</ele>
        <time>2022-07-24T11:42:38Z</time>
      </trkpt>
      <trkpt lat="45.78911" lon="6.65472">
        <ele>1828</ele>
        <time>2022-07-24T11:42:39Z</time>
      </trkpt>
      <trkpt lat="45.78912" lon="6.65473">
        <ele>1828</ele>
        <time>2022-07-24T11:42:40Z</time>
      </trkpt>
      <trkpt lat="45.78912" lon="6.65473">
        <ele>1828</ele>
        <time>2022-07-24T11:42:41Z</time>
      </trkpt>
      <trkpt lat="45.78913" lon="6.65473">
        <ele>1828</ele>
        <time>2022-07-24T11:42:42Z</time>
      </trkpt>
      <trkpt lat="45.78913" lon="6.65473">
        <ele>1829</ele>
        <time>2022-07-24T11:42:43Z</time>
      </trkpt>
      <trkpt lat="45.78914" lon="6.65473">
        <ele>1829</ele>
        <time>2022-07-24T11:42:44Z</time>
      </trkpt>
      <trkpt lat="45.78914" lon="6.65473">
        <ele>1829</ele>
        <time>2022-07-24T11:42:45Z</time>
      </trkpt>
      <trkpt lat="45.78915" lon="6.65473">
        <ele>1829</ele>
        <time>2022-07-24T11:42:46Z</time>
      </trkpt>
      <trkpt lat="45.78916" lon="6.65473">
        <ele>1829</ele>
        <time>2022-07-24T11:42:47Z</time>
      </trkpt>
      <trkpt lat="45.78916" lon="6.65473">
        <ele>1830</ele>
        <time>2022-07-24T11:42:48Z</time>
      </trkpt>
      <trkpt lat="45.78917" lon="6.65474">
        <ele>1830</ele>
        <time>2022-07-24T11:42:49Z</time>
      </trkpt>
      <trkpt lat="45.78918" lon="6.65474">
        <ele>1830</ele>
        <time>2022-07-24T11:42:50Z</time>
      </trkpt>
      <trkpt lat="45.78918" lon="6.65474">
        <ele>1830</ele>
        <time>2022-07-24T11:42:51Z</time>
      </trkpt>
      <trkpt lat="45.78918" lon="6.65475">
        <ele>1830</ele>
        <time>2022-07-24T11:42:52Z</time>
      </trkpt>
      <trkpt lat="45.78918" lon="6.65476">
        <ele>1831</ele>
        <time>2022-07-24T11:42:53Z</time>
      </trkpt>
      <trkpt lat="45.78919" lon="6.65476">
        <ele>1831</ele>
        <time>2022-07-24T11:42:54Z</time>
      </trkpt>
      <trkpt lat="45.78918" lon="6.65477">
        <ele>1831</ele>
        <time>2022-07-24T11:42:55Z</time>
      </trkpt>
      <trkpt lat="45.78918" lon="6.65478">
        <ele>1831</ele>
        <time>2022-07-24T11:42:56Z</time>
      </trkpt>
      <trkpt lat="45.78917" lon="6.65478">
        <ele>1833</ele>
        <time>2022-07-24T11:43:31Z</time>
      </trkpt>
      <trkpt lat="45.78917" lon="6.65478">
        <ele>1833</ele>
        <time>2022-07-24T11:43:32Z</time>
      </trkpt>
      <trkpt lat="45.78916" lon="6.65479">
        <ele>1833</ele>
        <time>2022-07-24T11:43:33Z</time>
      </trkpt>
      <trkpt lat="45.78916" lon="6.65479">
        <ele>1833</ele>
        <time>2022-07-24T11:43:34Z</time>
      </trkpt>
      <trkpt lat="45.78916" lon="6.6548">
        <ele>1833</ele>
        <time>2022-07-24T11:43:35Z</time>
      </trkpt>
      <trkpt lat="45.78916" lon="6.65481">
        <ele>1833</ele>
        <time>2022-07-24T11:43:36Z</time>
      </trkpt>
      <trkpt lat="45.78916" lon="6.65481">
        <ele>1833</ele>
        <time>2022-07-24T11:43:37Z</time>
      </trkpt>
      <trkpt lat="45.78915" lon="6.65482">
        <ele>1833</ele>
        <time>2022-07-24T11:43:38Z</time>
      </trkpt>
      <trkpt lat="45.78915" lon="6.65484">
        <ele>1833</ele>
        <time>2022-07-24T11:43:39Z</time>
      </trkpt>
      <trkpt lat="45.78915" lon="6.65485">
        <ele>1833</ele>
        <time>2022-07-24T11:43:40Z</time>
      </trkpt>
      <trkpt lat="45.78914" lon="6.65486">
        <ele>1833</ele>
        <time>2022-07-24T11:43:41Z</time>
      </trkpt>
      <trkpt lat="45.78914" lon="6.65486">
        <ele>1833</ele>
        <time>2022-07-24T11:43:42Z</time>
      </trkpt>
      <trkpt lat="45.78913" lon="6.65487">
        <ele>1834</ele>
        <time>2022-07-24T11:43:43Z</time>
      </trkpt>
      <trkpt lat="45.78913" lon="6.65488">
        <ele>1834</ele>
        <time>2022-07-24T11:43:44Z</time>
      </trkpt>
      <trkpt lat="45.78913" lon="6.65489">
        <ele>1834</ele>
        <time>2022-07-24T11:43:45Z</time>
      </trkpt>
      <trkpt lat="45.78913" lon="6.6549">
        <ele>1834</ele>
        <time>2022-07-24T11:43:46Z</time>
      </trkpt>
      <trkpt lat="45.78912" lon="6.65491">
        <ele>1834</ele>
        <time>2022-07-24T11:43:47Z</time>
      </trkpt>
      <trkpt lat="45.78912" lon="6.65492">
        <ele>1834</ele>
        <time>2022-07-24T11:43:48Z</time>
      </trkpt>
      <trkpt lat="45.78912" lon="6.65493">
        <ele>1834</ele>
        <time>2022-07-24T11:43:49Z</time>
      </trkpt>
      <trkpt lat="45.78912" lon="6.65494">
        <ele>1834</ele>
        <time>2022-07-24T11:43:50Z</time>
      </trkpt>
      <trkpt lat="45.78912" lon="6.65494">
        <ele>1834</ele>
        <time>2022-07-24T11:43:51Z</time>
      </trkpt>
      <trkpt lat="45.78912" lon="6.65495">
        <ele>1834</ele>
        <time>2022-07-24T11:43:52Z</time>
      </trkpt>
      <trkpt lat="45.78912" lon="6.65496">
        <ele>1835</ele>
        <time>2022-07-24T11:43:53Z</time>
      </trkpt>
      <trkpt lat="45.78912" lon="6.65497">
        <ele>1835</ele>
        <time>2022-07-24T11:43:54Z</time>
      </trkpt>
      <trkpt lat="45.78912" lon="6.65498">
        <ele>1836</ele>
        <time>2022-07-24T11:44:08Z</time>
      </trkpt>
      <trkpt lat="45.78912" lon="6.65499">
        <ele>1836</ele>
        <time>2022-07-24T11:44:09Z</time>
      </trkpt>
      <trkpt lat="45.78912" lon="6.655">
        <ele>1836</ele>
        <time>2022-07-24T11:44:10Z</time>
      </trkpt>
      <trkpt lat="45.78912" lon="6.65501">
        <ele>1836</ele>
        <time>2022-07-24T11:44:11Z</time>
      </trkpt>
      <trkpt lat="45.78912" lon="6.65502">
        <ele>1836</ele>
        <time>2022-07-24T11:44:12Z</time>
      </trkpt>
      <trkpt lat="45.78911" lon="6.65503">
        <ele>1837</ele>
        <time>2022-07-24T11:44:13Z</time>
      </trkpt>
      <trkpt lat="45.78911" lon="6.65504">
        <ele>1837</ele>
        <time>2022-07-24T11:44:14Z</time>
      </trkpt>
      <trkpt lat="45.78911" lon="6.65505">
        <ele>1837</ele>
        <time>2022-07-24T11:44:15Z</time>
      </trkpt>
      <trkpt lat="45.78911" lon="6.65506">
        <ele>1837</ele>
        <time>2022-07-24T11:44:16Z</time>
      </trkpt>
      <trkpt lat="45.78911" lon="6.65508">
        <ele>1837</ele>
        <time>2022-07-24T11:44:17Z</time>
      </trkpt>
      <trkpt lat="45.78911" lon="6.65509">
        <ele>1838</ele>
        <time>2022-07-24T11:44:18Z</time>
      </trkpt>
      <trkpt lat="45.78911" lon="6.6551">
        <ele>1838</ele>
        <time>2022-07-24T11:44:19Z</time>
      </trkpt>
      <trkpt lat="45.78911" lon="6.65511">
        <ele>1838</ele>
        <time>2022-07-24T11:44:20Z</time>
      </trkpt>
      <trkpt lat="45.78911" lon="6.65513">
        <ele>1838</ele>
        <time>2022-07-24T11:44:21Z</time>
      </trkpt>
      <trkpt lat="45.78911" lon="6.65514">
        <ele>1838</ele>
        <time>2022-07-24T11:44:22Z</time>
      </trkpt>
      <trkpt lat="45.78911" lon="6.65515">
        <ele>1838</ele>
        <time>2022-07-24T11:44:23Z</time>
      </trkpt>
      <trkpt lat="45.78911" lon="6.65516">
        <ele>1838</ele>
        <time>2022-07-24T11:44:24Z</time>
      </trkpt>
      <trkpt lat="45.7891" lon="6.65517">
        <ele>1838</ele>
        <time>2022-07-24T11:44:25Z</time>
      </trkpt>
      <trkpt lat="45.7891" lon="6.65517">
        <ele>1838</ele>
        <time>2022-07-24T11:44:26Z</time>
      </trkpt>
      <trkpt lat="45.7891" lon="6.65518">
        <ele>1838</ele>
        <time>2022-07-24T11:44:27Z</time>
      </trkpt>
      <trkpt lat="45.7891" lon="6.65519">
        <ele>1839</ele>
        <time>2022-07-24T11:44:28Z</time>
      </trkpt>
      <trkpt lat="45.7891" lon="6.6552">
        <ele>1839</ele>
        <time>2022-07-24T11:44:29Z</time>
      </trkpt>
      <trkpt lat="45.7891" lon="6.65521">
        <ele>1839</ele>
        <time>2022-07-24T11:44:30Z</time>
      </trkpt>
      <trkpt lat="45.78909" lon="6.65522">
        <ele>1839</ele>
        <time>2022-07-24T11:44:31Z</time>
      </trkpt>
      <trkpt lat="45.78909" lon="6.65522">
        <ele>1839</ele>
        <time>2022-07-24T11:44:32Z</time>
      </trkpt>
      <trkpt lat="45.78909" lon="6.65523">
        <ele>1840</ele>
        <time>2022-07-24T11:44:33Z</time>
      </trkpt>
      <trkpt lat="45.78908" lon="6.65524">
        <ele>1840</ele>
        <time>2022-07-24T11:44:34Z</time>
      </trkpt>
      <trkpt lat="45.78908" lon="6.65524">
        <ele>1840</ele>
        <time>2022-07-24T11:44:35Z</time>
      </trkpt>
      <trkpt lat="45.78908" lon="6.65524">
        <ele>1840</ele>
        <time>2022-07-24T11:44:36Z</time>
      </trkpt>
      <trkpt lat="45.78907" lon="6.65524">
        <ele>1840</ele>
        <time>2022-07-24T11:44:37Z</time>
      </trkpt>
      <trkpt lat="45.78907" lon="6.65525">
        <ele>1841</ele>
        <time>2022-07-24T11:44:38Z</time>
      </trkpt>
      <trkpt lat="45.78906" lon="6.65525">
        <ele>1841</ele>
        <time>2022-07-24T11:44:39Z</time>
      </trkpt>
      <trkpt lat="45.78906" lon="6.65526">
        <ele>1841</ele>
        <time>2022-07-24T11:44:40Z</time>
      </trkpt>
      <trkpt lat="45.78905" lon="6.65526">
        <ele>1841</ele>
        <time>2022-07-24T11:44:41Z</time>
      </trkpt>
      <trkpt lat="45.78905" lon="6.65527">
        <ele>1841</ele>
        <time>2022-07-24T11:44:42Z</time>
      </trkpt>
      <trkpt lat="45.78905" lon="6.65529">
        <ele>1845</ele>
        <time>2022-07-24T11:44:59Z</time>
      </trkpt>
      <trkpt lat="45.78905" lon="6.65531">
        <ele>1845</ele>
        <time>2022-07-24T11:45:00Z</time>
      </trkpt>
      <trkpt lat="45.78905" lon="6.65532">
        <ele>1845</ele>
        <time>2022-07-24T11:45:01Z</time>
      </trkpt>
      <trkpt lat="45.78905" lon="6.65533">
        <ele>1845</ele>
        <time>2022-07-24T11:45:02Z</time>
      </trkpt>
      <trkpt lat="45.78904" lon="6.65534">
        <ele>1845</ele>
        <time>2022-07-24T11:45:03Z</time>
      </trkpt>
      <trkpt lat="45.78904" lon="6.65535">
        <ele>1845</ele>
        <time>2022-07-24T11:45:04Z</time>
      </trkpt>
      <trkpt lat="45.78903" lon="6.65536">
        <ele>1845</ele>
        <time>2022-07-24T11:45:05Z</time>
      </trkpt>
      <trkpt lat="45.78903" lon="6.65537">
        <ele>1845</ele>
        <time>2022-07-24T11:45:06Z</time>
      </trkpt>
      <trkpt lat="45.78902" lon="6.65538">
        <ele>1845</ele>
        <time>2022-07-24T11:45:07Z</time>
      </trkpt>
      <trkpt lat="45.78902" lon="6.65539">
        <ele>1846</ele>
        <time>2022-07-24T11:45:08Z</time>
      </trkpt>
      <trkpt lat="45.78901" lon="6.65539">
        <ele>1846</ele>
        <time>2022-07-24T11:45:09Z</time>
      </trkpt>
      <trkpt lat="45.78901" lon="6.6554">
        <ele>1846</ele>
        <time>2022-07-24T11:45:10Z</time>
      </trkpt>
      <trkpt lat="45.78901" lon="6.6554">
        <ele>1846</ele>
        <time>2022-07-24T11:45:11Z</time>
      </trkpt>
      <trkpt lat="45.789" lon="6.65541">
        <ele>1846</ele>
        <time>2022-07-24T11:45:12Z</time>
      </trkpt>
      <trkpt lat="45.789" lon="6.65542">
        <ele>1847</ele>
        <time>2022-07-24T11:45:13Z</time>
      </trkpt>
      <trkpt lat="45.789" lon="6.65542">
        <ele>1847</ele>
        <time>2022-07-24T11:45:14Z</time>
      </trkpt>
      <trkpt lat="45.789" lon="6.65544">
        <ele>1848</ele>
        <time>2022-07-24T11:45:20Z</time>
      </trkpt>
      <trkpt lat="45.789" lon="6.65544">
        <ele>1848</ele>
        <time>2022-07-24T11:45:21Z</time>
      </trkpt>
      <trkpt lat="45.789" lon="6.65544">
        <ele>1848</ele>
        <time>2022-07-24T11:45:22Z</time>
      </trkpt>
      <trkpt lat="45.78899" lon="6.65545">
        <ele>1848</ele>
        <time>2022-07-24T11:45:23Z</time>
      </trkpt>
      <trkpt lat="45.78899" lon="6.65545">
        <ele>1848</ele>
        <time>2022-07-24T11:45:24Z</time>
      </trkpt>
      <trkpt lat="45.78898" lon="6.65547">
        <ele>1852</ele>
        <time>2022-07-24T11:45:38Z</time>
      </trkpt>
      <trkpt lat="45.78897" lon="6.65548">
        <ele>1852</ele>
        <time>2022-07-24T11:45:39Z</time>
      </trkpt>
      <trkpt lat="45.78897" lon="6.65549">
        <ele>1852</ele>
        <time>2022-07-24T11:45:40Z</time>
      </trkpt>
      <trkpt lat="45.78896" lon="6.6555">
        <ele>1852</ele>
        <time>2022-07-24T11:45:41Z</time>
      </trkpt>
      <trkpt lat="45.78896" lon="6.65551">
        <ele>1852</ele>
        <time>2022-07-24T11:45:42Z</time>
      </trkpt>
      <trkpt lat="45.78895" lon="6.65551">
        <ele>1853</ele>
        <time>2022-07-24T11:45:43Z</time>
      </trkpt>
      <trkpt lat="45.78895" lon="6.65552">
        <ele>1853</ele>
        <time>2022-07-24T11:45:44Z</time>
      </trkpt>
      <trkpt lat="45.78894" lon="6.65553">
        <ele>1853</ele>
        <time>2022-07-24T11:45:45Z</time>
      </trkpt>
      <trkpt lat="45.78893" lon="6.65553">
        <ele>1853</ele>
        <time>2022-07-24T11:45:46Z</time>
      </trkpt>
      <trkpt lat="45.78893" lon="6.65554">
        <ele>1853</ele>
        <time>2022-07-24T11:45:47Z</time>
      </trkpt>
      <trkpt lat="45.78892" lon="6.65554">
        <ele>1853</ele>
        <time>2022-07-24T11:45:48Z</time>
      </trkpt>
      <trkpt lat="45.78891" lon="6.65555">
        <ele>1853</ele>
        <time>2022-07-24T11:45:49Z</time>
      </trkpt>
      <trkpt lat="45.78891" lon="6.65556">
        <ele>1853</ele>
        <time>2022-07-24T11:45:50Z</time>
      </trkpt>
      <trkpt lat="45.78889" lon="6.65557">
        <ele>1855</ele>
        <time>2022-07-24T11:46:05Z</time>
      </trkpt>
      <trkpt lat="45.78889" lon="6.65558">
        <ele>1855</ele>
        <time>2022-07-24T11:46:06Z</time>
      </trkpt>
      <trkpt lat="45.78889" lon="6.65558">
        <ele>1855</ele>
        <time>2022-07-24T11:46:07Z</time>
      </trkpt>
      <trkpt lat="45.78888" lon="6.65559">
        <ele>1856</ele>
        <time>2022-07-24T11:46:08Z</time>
      </trkpt>
      <trkpt lat="45.78888" lon="6.6556">
        <ele>1856</ele>
        <time>2022-07-24T11:46:09Z</time>
      </trkpt>
      <trkpt lat="45.78888" lon="6.65561">
        <ele>1856</ele>
        <time>2022-07-24T11:46:10Z</time>
      </trkpt>
      <trkpt lat="45.78887" lon="6.65563">
        <ele>1856</ele>
        <time>2022-07-24T11:46:11Z</time>
      </trkpt>
      <trkpt lat="45.78887" lon="6.65564">
        <ele>1856</ele>
        <time>2022-07-24T11:46:12Z</time>
      </trkpt>
      <trkpt lat="45.78886" lon="6.65565">
        <ele>1856</ele>
        <time>2022-07-24T11:46:13Z</time>
      </trkpt>
      <trkpt lat="45.78885" lon="6.65566">
        <ele>1856</ele>
        <time>2022-07-24T11:46:14Z</time>
      </trkpt>
      <trkpt lat="45.78885" lon="6.65568">
        <ele>1856</ele>
        <time>2022-07-24T11:46:15Z</time>
      </trkpt>
      <trkpt lat="45.78884" lon="6.65569">
        <ele>1856</ele>
        <time>2022-07-24T11:46:16Z</time>
      </trkpt>
      <trkpt lat="45.78883" lon="6.6557">
        <ele>1856</ele>
        <time>2022-07-24T11:46:17Z</time>
      </trkpt>
      <trkpt lat="45.78883" lon="6.65571">
        <ele>1857</ele>
        <time>2022-07-24T11:46:18Z</time>
      </trkpt>
      <trkpt lat="45.78882" lon="6.65573">
        <ele>1857</ele>
        <time>2022-07-24T11:46:19Z</time>
      </trkpt>
      <trkpt lat="45.78881" lon="6.65574">
        <ele>1857</ele>
        <time>2022-07-24T11:46:20Z</time>
      </trkpt>
      <trkpt lat="45.78881" lon="6.65575">
        <ele>1857</ele>
        <time>2022-07-24T11:46:21Z</time>
      </trkpt>
      <trkpt lat="45.7888" lon="6.65576">
        <ele>1857</ele>
        <time>2022-07-24T11:46:22Z</time>
      </trkpt>
      <trkpt lat="45.78879" lon="6.65576">
        <ele>1857</ele>
        <time>2022-07-24T11:46:23Z</time>
      </trkpt>
      <trkpt lat="45.78878" lon="6.65577">
        <ele>1857</ele>
        <time>2022-07-24T11:46:24Z</time>
      </trkpt>
      <trkpt lat="45.78878" lon="6.65578">
        <ele>1857</ele>
        <time>2022-07-24T11:46:25Z</time>
      </trkpt>
      <trkpt lat="45.78877" lon="6.65579">
        <ele>1857</ele>
        <time>2022-07-24T11:46:26Z</time>
      </trkpt>
      <trkpt lat="45.78877" lon="6.6558">
        <ele>1857</ele>
        <time>2022-07-24T11:46:27Z</time>
      </trkpt>
      <trkpt lat="45.78877" lon="6.6558">
        <ele>1858</ele>
        <time>2022-07-24T11:46:28Z</time>
      </trkpt>
      <trkpt lat="45.78876" lon="6.65581">
        <ele>1858</ele>
        <time>2022-07-24T11:46:29Z</time>
      </trkpt>
      <trkpt lat="45.78876" lon="6.65582">
        <ele>1858</ele>
        <time>2022-07-24T11:46:30Z</time>
      </trkpt>
      <trkpt lat="45.78876" lon="6.65582">
        <ele>1858</ele>
        <time>2022-07-24T11:46:31Z</time>
      </trkpt>
      <trkpt lat="45.78875" lon="6.65582">
        <ele>1858</ele>
        <time>2022-07-24T11:46:32Z</time>
      </trkpt>
      <trkpt lat="45.78875" lon="6.65583">
        <ele>1859</ele>
        <time>2022-07-24T11:46:33Z</time>
      </trkpt>
      <trkpt lat="45.78874" lon="6.65583">
        <ele>1859</ele>
        <time>2022-07-24T11:46:34Z</time>
      </trkpt>
      <trkpt lat="45.78874" lon="6.65584">
        <ele>1859</ele>
        <time>2022-07-24T11:46:35Z</time>
      </trkpt>
      <trkpt lat="45.78873" lon="6.65584">
        <ele>1859</ele>
        <time>2022-07-24T11:46:36Z</time>
      </trkpt>
      <trkpt lat="45.78873" lon="6.65584">
        <ele>1859</ele>
        <time>2022-07-24T11:46:37Z</time>
      </trkpt>
      <trkpt lat="45.78871" lon="6.65589">
        <ele>1864</ele>
        <time>2022-07-24T11:47:12Z</time>
      </trkpt>
      <trkpt lat="45.78871" lon="6.65591">
        <ele>1864</ele>
        <time>2022-07-24T11:47:13Z</time>
      </trkpt>
      <trkpt lat="45.78871" lon="6.65594">
        <ele>1864</ele>
        <time>2022-07-24T11:47:14Z</time>
      </trkpt>
      <trkpt lat="45.78871" lon="6.65595">
        <ele>1864</ele>
        <time>2022-07-24T11:47:15Z</time>
      </trkpt>
      <trkpt lat="45.78871" lon="6.65597">
        <ele>1864</ele>
        <time>2022-07-24T11:47:16Z</time>
      </trkpt>
      <trkpt lat="45.78871" lon="6.65598">
        <ele>1864</ele>
        <time>2022-07-24T11:47:17Z</time>
      </trkpt>
      <trkpt lat="45.78871" lon="6.65599">
        <ele>1865</ele>
        <time>2022-07-24T11:47:18Z</time>
      </trkpt>
      <trkpt lat="45.78872" lon="6.656">
        <ele>1866</ele>
        <time>2022-07-24T11:47:31Z</time>
      </trkpt>
      <trkpt lat="45.78872" lon="6.65601">
        <ele>1866</ele>
        <time>2022-07-24T11:47:32Z</time>
      </trkpt>
      <trkpt lat="45.78872" lon="6.65602">
        <ele>1866</ele>
        <time>2022-07-24T11:47:33Z</time>
      </trkpt>
      <trkpt lat="45.78872" lon="6.65602">
        <ele>1866</ele>
        <time>2022-07-24T11:47:34Z</time>
      </trkpt>
      <trkpt lat="45.78873" lon="6.65603">
        <ele>1866</ele>
        <time>2022-07-24T11:47:35Z</time>
      </trkpt>
      <trkpt lat="45.78873" lon="6.65603">
        <ele>1866</ele>
        <time>2022-07-24T11:47:36Z</time>
      </trkpt>
      <trkpt lat="45.78874" lon="6.65604">
        <ele>1866</ele>
        <time>2022-07-24T11:47:37Z</time>
      </trkpt>
      <trkpt lat="45.78874" lon="6.65604">
        <ele>1866</ele>
        <time>2022-07-24T11:47:38Z</time>
      </trkpt>
      <trkpt lat="45.78875" lon="6.65604">
        <ele>1866</ele>
        <time>2022-07-24T11:47:39Z</time>
      </trkpt>
      <trkpt lat="45.78875" lon="6.65603">
        <ele>1866</ele>
        <time>2022-07-24T11:47:40Z</time>
      </trkpt>
      <trkpt lat="45.78876" lon="6.65603">
        <ele>1866</ele>
        <time>2022-07-24T11:47:41Z</time>
      </trkpt>
      <trkpt lat="45.78876" lon="6.65603">
        <ele>1866</ele>
        <time>2022-07-24T11:47:42Z</time>
      </trkpt>
      <trkpt lat="45.78877" lon="6.65602">
        <ele>1867</ele>
        <time>2022-07-24T11:47:43Z</time>
      </trkpt>
      <trkpt lat="45.78878" lon="6.65601">
        <ele>1867</ele>
        <time>2022-07-24T11:48:01Z</time>
      </trkpt>
      <trkpt lat="45.78879" lon="6.65601">
        <ele>1867</ele>
        <time>2022-07-24T11:48:02Z</time>
      </trkpt>
      <trkpt lat="45.78879" lon="6.65601">
        <ele>1867</ele>
        <time>2022-07-24T11:48:03Z</time>
      </trkpt>
      <trkpt lat="45.7888" lon="6.656">
        <ele>1868</ele>
        <time>2022-07-24T11:48:19Z</time>
      </trkpt>
      <trkpt lat="45.7888" lon="6.656">
        <ele>1868</ele>
        <time>2022-07-24T11:48:20Z</time>
      </trkpt>
      <trkpt lat="45.7888" lon="6.656">
        <ele>1868</ele>
        <time>2022-07-24T11:48:21Z</time>
      </trkpt>
      <trkpt lat="45.78881" lon="6.65599">
        <ele>1868</ele>
        <time>2022-07-24T11:48:22Z</time>
      </trkpt>
      <trkpt lat="45.78882" lon="6.65599">
        <ele>1868</ele>
        <time>2022-07-24T11:48:23Z</time>
      </trkpt>
      <trkpt lat="45.78882" lon="6.65599">
        <ele>1868</ele>
        <time>2022-07-24T11:49:43Z</time>
      </trkpt>
      <trkpt lat="45.78883" lon="6.65599">
        <ele>1868</ele>
        <time>2022-07-24T11:49:44Z</time>
      </trkpt>
      <trkpt lat="45.78883" lon="6.65599">
        <ele>1868</ele>
        <time>2022-07-24T11:49:45Z</time>
      </trkpt>
      <trkpt lat="45.78884" lon="6.65599">
        <ele>1868</ele>
        <time>2022-07-24T11:49:46Z</time>
      </trkpt>
      <trkpt lat="45.78884" lon="6.65599">
        <ele>1868</ele>
        <time>2022-07-24T11:49:47Z</time>
      </trkpt>
      <trkpt lat="45.78885" lon="6.65599">
        <ele>1868</ele>
        <time>2022-07-24T11:49:48Z</time>
      </trkpt>
      <trkpt lat="45.78885" lon="6.65598">
        <ele>1868</ele>
        <time>2022-07-24T11:49:49Z</time>
      </trkpt>
      <trkpt lat="45.78886" lon="6.65599">
        <ele>1868</ele>
        <time>2022-07-24T11:49:50Z</time>
      </trkpt>
      <trkpt lat="45.78886" lon="6.65599">
        <ele>1868</ele>
        <time>2022-07-24T11:49:51Z</time>
      </trkpt>
      <trkpt lat="45.78887" lon="6.656">
        <ele>1868</ele>
        <time>2022-07-24T11:49:52Z</time>
      </trkpt>
      <trkpt lat="45.78887" lon="6.656">
        <ele>1869</ele>
        <time>2022-07-24T11:49:53Z</time>
      </trkpt>
      <trkpt lat="45.78887" lon="6.65601">
        <ele>1869</ele>
        <time>2022-07-24T11:49:54Z</time>
      </trkpt>
      <trkpt lat="45.78887" lon="6.65602">
        <ele>1869</ele>
        <time>2022-07-24T11:49:55Z</time>
      </trkpt>
      <trkpt lat="45.78887" lon="6.65604">
        <ele>1869</ele>
        <time>2022-07-24T11:49:56Z</time>
      </trkpt>
      <trkpt lat="45.78887" lon="6.65605">
        <ele>1869</ele>
        <time>2022-07-24T11:49:57Z</time>
      </trkpt>
      <trkpt lat="45.78886" lon="6.65606">
        <ele>1869</ele>
        <time>2022-07-24T11:49:58Z</time>
      </trkpt>
      <trkpt lat="45.78886" lon="6.65607">
        <ele>1869</ele>
        <time>2022-07-24T11:49:59Z</time>
      </trkpt>
      <trkpt lat="45.78886" lon="6.65608">
        <ele>1869</ele>
        <time>2022-07-24T11:50:00Z</time>
      </trkpt>
      <trkpt lat="45.78886" lon="6.65609">
        <ele>1869</ele>
        <time>2022-07-24T11:50:01Z</time>
      </trkpt>
      <trkpt lat="45.78887" lon="6.6561">
        <ele>1869</ele>
        <time>2022-07-24T11:50:02Z</time>
      </trkpt>
      <trkpt lat="45.78887" lon="6.65611">
        <ele>1870</ele>
        <time>2022-07-24T11:50:03Z</time>
      </trkpt>
      <trkpt lat="45.78887" lon="6.65612">
        <ele>1870</ele>
        <time>2022-07-24T11:50:04Z</time>
      </trkpt>
      <trkpt lat="45.78887" lon="6.65613">
        <ele>1870</ele>
        <time>2022-07-24T11:50:05Z</time>
      </trkpt>
      <trkpt lat="45.78887" lon="6.65613">
        <ele>1870</ele>
        <time>2022-07-24T11:50:06Z</time>
      </trkpt>
      <trkpt lat="45.78887" lon="6.65614">
        <ele>1870</ele>
        <time>2022-07-24T11:50:07Z</time>
      </trkpt>
      <trkpt lat="45.78887" lon="6.65615">
        <ele>1870</ele>
        <time>2022-07-24T11:50:08Z</time>
      </trkpt>
      <trkpt lat="45.78888" lon="6.65616">
        <ele>1870</ele>
        <time>2022-07-24T11:50:09Z</time>
      </trkpt>
      <trkpt lat="45.78888" lon="6.65617">
        <ele>1870</ele>
        <time>2022-07-24T11:50:10Z</time>
      </trkpt>
      <trkpt lat="45.78888" lon="6.65618">
        <ele>1870</ele>
        <time>2022-07-24T11:50:11Z</time>
      </trkpt>
      <trkpt lat="45.78888" lon="6.65619">
        <ele>1870</ele>
        <time>2022-07-24T11:50:12Z</time>
      </trkpt>
      <trkpt lat="45.78888" lon="6.6562">
        <ele>1871</ele>
        <time>2022-07-24T11:50:13Z</time>
      </trkpt>
      <trkpt lat="45.78888" lon="6.65621">
        <ele>1871</ele>
        <time>2022-07-24T11:50:14Z</time>
      </trkpt>
      <trkpt lat="45.78888" lon="6.65622">
        <ele>1871</ele>
        <time>2022-07-24T11:50:15Z</time>
      </trkpt>
      <trkpt lat="45.78888" lon="6.65624">
        <ele>1871</ele>
        <time>2022-07-24T11:50:16Z</time>
      </trkpt>
      <trkpt lat="45.78888" lon="6.65625">
        <ele>1871</ele>
        <time>2022-07-24T11:50:17Z</time>
      </trkpt>
      <trkpt lat="45.78888" lon="6.65626">
        <ele>1872</ele>
        <time>2022-07-24T11:50:18Z</time>
      </trkpt>
      <trkpt lat="45.78888" lon="6.65627">
        <ele>1872</ele>
        <time>2022-07-24T11:50:19Z</time>
      </trkpt>
      <trkpt lat="45.78888" lon="6.65628">
        <ele>1872</ele>
        <time>2022-07-24T11:50:20Z</time>
      </trkpt>
      <trkpt lat="45.78888" lon="6.65629">
        <ele>1872</ele>
        <time>2022-07-24T11:50:21Z</time>
      </trkpt>
      <trkpt lat="45.78888" lon="6.6563">
        <ele>1872</ele>
        <time>2022-07-24T11:50:22Z</time>
      </trkpt>
      <trkpt lat="45.78888" lon="6.65631">
        <ele>1873</ele>
        <time>2022-07-24T11:50:23Z</time>
      </trkpt>
      <trkpt lat="45.78888" lon="6.65632">
        <ele>1873</ele>
        <time>2022-07-24T11:50:24Z</time>
      </trkpt>
      <trkpt lat="45.78888" lon="6.65633">
        <ele>1873</ele>
        <time>2022-07-24T11:50:25Z</time>
      </trkpt>
      <trkpt lat="45.78888" lon="6.65634">
        <ele>1873</ele>
        <time>2022-07-24T11:50:26Z</time>
      </trkpt>
      <trkpt lat="45.78888" lon="6.65635">
        <ele>1873</ele>
        <time>2022-07-24T11:50:27Z</time>
      </trkpt>
      <trkpt lat="45.78888" lon="6.65636">
        <ele>1873</ele>
        <time>2022-07-24T11:50:28Z</time>
      </trkpt>
      <trkpt lat="45.78889" lon="6.65636">
        <ele>1873</ele>
        <time>2022-07-24T11:50:29Z</time>
      </trkpt>
      <trkpt lat="45.78889" lon="6.65637">
        <ele>1873</ele>
        <time>2022-07-24T11:50:30Z</time>
      </trkpt>
      <trkpt lat="45.78889" lon="6.65639">
        <ele>1876</ele>
        <time>2022-07-24T11:52:10Z</time>
      </trkpt>
      <trkpt lat="45.78889" lon="6.65639">
        <ele>1876</ele>
        <time>2022-07-24T11:52:11Z</time>
      </trkpt>
      <trkpt lat="45.78889" lon="6.6564">
        <ele>1876</ele>
        <time>2022-07-24T11:52:12Z</time>
      </trkpt>
      <trkpt lat="45.78889" lon="6.65641">
        <ele>1876</ele>
        <time>2022-07-24T11:52:13Z</time>
      </trkpt>
      <trkpt lat="45.78889" lon="6.65642">
        <ele>1875</ele>
        <time>2022-07-24T11:52:14Z</time>
      </trkpt>
      <trkpt lat="45.7889" lon="6.65643">
        <ele>1875</ele>
        <time>2022-07-24T11:52:15Z</time>
      </trkpt>
      <trkpt lat="45.7889" lon="6.65644">
        <ele>1875</ele>
        <time>2022-07-24T11:52:16Z</time>
      </trkpt>
      <trkpt lat="45.78891" lon="6.65646">
        <ele>1875</ele>
        <time>2022-07-24T11:52:17Z</time>
      </trkpt>
      <trkpt lat="45.78891" lon="6.65647">
        <ele>1875</ele>
        <time>2022-07-24T11:52:18Z</time>
      </trkpt>
      <trkpt lat="45.78892" lon="6.65649">
        <ele>1875</ele>
        <time>2022-07-24T11:52:19Z</time>
      </trkpt>
      <trkpt lat="45.78892" lon="6.6565">
        <ele>1875</ele>
        <time>2022-07-24T11:52:20Z</time>
      </trkpt>
      <trkpt lat="45.78892" lon="6.65652">
        <ele>1875</ele>
        <time>2022-07-24T11:52:21Z</time>
      </trkpt>
      <trkpt lat="45.78893" lon="6.65653">
        <ele>1875</ele>
        <time>2022-07-24T11:52:22Z</time>
      </trkpt>
      <trkpt lat="45.78893" lon="6.65655">
        <ele>1876</ele>
        <time>2022-07-24T11:52:23Z</time>
      </trkpt>
      <trkpt lat="45.78894" lon="6.65656">
        <ele>1876</ele>
        <time>2022-07-24T11:52:24Z</time>
      </trkpt>
      <trkpt lat="45.78894" lon="6.65658">
        <ele>1876</ele>
        <time>2022-07-24T11:52:25Z</time>
      </trkpt>
      <trkpt lat="45.78895" lon="6.65659">
        <ele>1876</ele>
        <time>2022-07-24T11:52:26Z</time>
      </trkpt>
      <trkpt lat="45.78895" lon="6.65661">
        <ele>1876</ele>
        <time>2022-07-24T11:52:27Z</time>
      </trkpt>
      <trkpt lat="45.78896" lon="6.65662">
        <ele>1876</ele>
        <time>2022-07-24T11:52:28Z</time>
      </trkpt>
      <trkpt lat="45.78896" lon="6.65664">
        <ele>1876</ele>
        <time>2022-07-24T11:52:29Z</time>
      </trkpt>
      <trkpt lat="45.78897" lon="6.65665">
        <ele>1876</ele>
        <time>2022-07-24T11:52:30Z</time>
      </trkpt>
      <trkpt lat="45.78897" lon="6.65666">
        <ele>1876</ele>
        <time>2022-07-24T11:52:31Z</time>
      </trkpt>
      <trkpt lat="45.78898" lon="6.65667">
        <ele>1876</ele>
        <time>2022-07-24T11:52:32Z</time>
      </trkpt>
      <trkpt lat="45.78898" lon="6.65669">
        <ele>1877</ele>
        <time>2022-07-24T11:52:40Z</time>
      </trkpt>
      <trkpt lat="45.78898" lon="6.65669">
        <ele>1877</ele>
        <time>2022-07-24T11:52:41Z</time>
      </trkpt>
      <trkpt lat="45.78899" lon="6.6567">
        <ele>1877</ele>
        <time>2022-07-24T11:52:42Z</time>
      </trkpt>
      <trkpt lat="45.78899" lon="6.65671">
        <ele>1878</ele>
        <time>2022-07-24T11:52:43Z</time>
      </trkpt>
      <trkpt lat="45.78899" lon="6.65671">
        <ele>1878</ele>
        <time>2022-07-24T11:52:44Z</time>
      </trkpt>
      <trkpt lat="45.789" lon="6.65672">
        <ele>1878</ele>
        <time>2022-07-24T11:52:45Z</time>
      </trkpt>
      <trkpt lat="45.789" lon="6.65673">
        <ele>1878</ele>
        <time>2022-07-24T11:52:46Z</time>
      </trkpt>
      <trkpt lat="45.78901" lon="6.65674">
        <ele>1878</ele>
        <time>2022-07-24T11:52:47Z</time>
      </trkpt>
      <trkpt lat="45.78901" lon="6.65675">
        <ele>1879</ele>
        <time>2022-07-24T11:52:48Z</time>
      </trkpt>
      <trkpt lat="45.78902" lon="6.65676">
        <ele>1879</ele>
        <time>2022-07-24T11:52:49Z</time>
      </trkpt>
      <trkpt lat="45.78903" lon="6.65677">
        <ele>1879</ele>
        <time>2022-07-24T11:52:50Z</time>
      </trkpt>
      <trkpt lat="45.78904" lon="6.65678">
        <ele>1879</ele>
        <time>2022-07-24T11:52:51Z</time>
      </trkpt>
      <trkpt lat="45.78904" lon="6.65679">
        <ele>1879</ele>
        <time>2022-07-24T11:52:52Z</time>
      </trkpt>
      <trkpt lat="45.78905" lon="6.65681">
        <ele>1879</ele>
        <time>2022-07-24T11:52:53Z</time>
      </trkpt>
      <trkpt lat="45.78905" lon="6.65682">
        <ele>1879</ele>
        <time>2022-07-24T11:52:54Z</time>
      </trkpt>
      <trkpt lat="45.78906" lon="6.65683">
        <ele>1879</ele>
        <time>2022-07-24T11:52:55Z</time>
      </trkpt>
      <trkpt lat="45.78907" lon="6.65683">
        <ele>1879</ele>
        <time>2022-07-24T11:52:56Z</time>
      </trkpt>
      <trkpt lat="45.78907" lon="6.65684">
        <ele>1879</ele>
        <time>2022-07-24T11:52:57Z</time>
      </trkpt>
      <trkpt lat="45.78908" lon="6.65685">
        <ele>1880</ele>
        <time>2022-07-24T11:52:58Z</time>
      </trkpt>
      <trkpt lat="45.78908" lon="6.65686">
        <ele>1880</ele>
        <time>2022-07-24T11:52:59Z</time>
      </trkpt>
      <trkpt lat="45.78909" lon="6.65687">
        <ele>1880</ele>
        <time>2022-07-24T11:53:00Z</time>
      </trkpt>
      <trkpt lat="45.78909" lon="6.65688">
        <ele>1880</ele>
        <time>2022-07-24T11:53:01Z</time>
      </trkpt>
      <trkpt lat="45.7891" lon="6.65689">
        <ele>1880</ele>
        <time>2022-07-24T11:53:02Z</time>
      </trkpt>
      <trkpt lat="45.78911" lon="6.65689">
        <ele>1881</ele>
        <time>2022-07-24T11:53:03Z</time>
      </trkpt>
      <trkpt lat="45.78911" lon="6.6569">
        <ele>1881</ele>
        <time>2022-07-24T11:53:04Z</time>
      </trkpt>
      <trkpt lat="45.78912" lon="6.65691">
        <ele>1881</ele>
        <time>2022-07-24T11:53:05Z</time>
      </trkpt>
      <trkpt lat="45.78912" lon="6.65691">
        <ele>1882</ele>
        <time>2022-07-24T11:53:06Z</time>
      </trkpt>
      <trkpt lat="45.78913" lon="6.65692">
        <ele>1882</ele>
        <time>2022-07-24T11:53:07Z</time>
      </trkpt>
      <trkpt lat="45.78914" lon="6.65693">
        <ele>1883</ele>
        <time>2022-07-24T11:53:08Z</time>
      </trkpt>
      <trkpt lat="45.78914" lon="6.65693">
        <ele>1883</ele>
        <time>2022-07-24T11:53:09Z</time>
      </trkpt>
      <trkpt lat="45.78915" lon="6.65694">
        <ele>1883</ele>
        <time>2022-07-24T11:53:10Z</time>
      </trkpt>
      <trkpt lat="45.78915" lon="6.65694">
        <ele>1883</ele>
        <time>2022-07-24T11:53:11Z</time>
      </trkpt>
      <trkpt lat="45.78916" lon="6.65695">
        <ele>1883</ele>
        <time>2022-07-24T11:53:12Z</time>
      </trkpt>
      <trkpt lat="45.78916" lon="6.65695">
        <ele>1884</ele>
        <time>2022-07-24T11:53:13Z</time>
      </trkpt>
      <trkpt lat="45.78917" lon="6.65696">
        <ele>1884</ele>
        <time>2022-07-24T11:53:14Z</time>
      </trkpt>
      <trkpt lat="45.78917" lon="6.65697">
        <ele>1884</ele>
        <time>2022-07-24T11:53:15Z</time>
      </trkpt>
      <trkpt lat="45.78918" lon="6.65697">
        <ele>1884</ele>
        <time>2022-07-24T11:53:16Z</time>
      </trkpt>
      <trkpt lat="45.78918" lon="6.65698">
        <ele>1886</ele>
        <time>2022-07-24T11:53:27Z</time>
      </trkpt>
      <trkpt lat="45.78919" lon="6.65698">
        <ele>1887</ele>
        <time>2022-07-24T11:53:28Z</time>
      </trkpt>
      <trkpt lat="45.78919" lon="6.65699">
        <ele>1887</ele>
        <time>2022-07-24T11:53:29Z</time>
      </trkpt>
      <trkpt lat="45.7892" lon="6.65699">
        <ele>1887</ele>
        <time>2022-07-24T11:53:30Z</time>
      </trkpt>
      <trkpt lat="45.7892" lon="6.657">
        <ele>1887</ele>
        <time>2022-07-24T11:53:31Z</time>
      </trkpt>
      <trkpt lat="45.78921" lon="6.65701">
        <ele>1887</ele>
        <time>2022-07-24T11:53:32Z</time>
      </trkpt>
      <trkpt lat="45.78921" lon="6.65702">
        <ele>1887</ele>
        <time>2022-07-24T11:53:33Z</time>
      </trkpt>
      <trkpt lat="45.78922" lon="6.65703">
        <ele>1887</ele>
        <time>2022-07-24T11:53:34Z</time>
      </trkpt>
      <trkpt lat="45.78923" lon="6.65704">
        <ele>1887</ele>
        <time>2022-07-24T11:53:35Z</time>
      </trkpt>
      <trkpt lat="45.78923" lon="6.65705">
        <ele>1887</ele>
        <time>2022-07-24T11:53:36Z</time>
      </trkpt>
      <trkpt lat="45.78924" lon="6.65706">
        <ele>1887</ele>
        <time>2022-07-24T11:53:37Z</time>
      </trkpt>
      <trkpt lat="45.78925" lon="6.65707">
        <ele>1887</ele>
        <time>2022-07-24T11:53:38Z</time>
      </trkpt>
      <trkpt lat="45.78925" lon="6.65708">
        <ele>1887</ele>
        <time>2022-07-24T11:53:39Z</time>
      </trkpt>
      <trkpt lat="45.78926" lon="6.65708">
        <ele>1887</ele>
        <time>2022-07-24T11:53:40Z</time>
      </trkpt>
      <trkpt lat="45.78926" lon="6.65709">
        <ele>1887</ele>
        <time>2022-07-24T11:53:41Z</time>
      </trkpt>
      <trkpt lat="45.78927" lon="6.6571">
        <ele>1887</ele>
        <time>2022-07-24T11:53:42Z</time>
      </trkpt>
      <trkpt lat="45.78928" lon="6.6571">
        <ele>1888</ele>
        <time>2022-07-24T11:53:43Z</time>
      </trkpt>
      <trkpt lat="45.78928" lon="6.65711">
        <ele>1888</ele>
        <time>2022-07-24T11:53:44Z</time>
      </trkpt>
      <trkpt lat="45.78928" lon="6.65712">
        <ele>1888</ele>
        <time>2022-07-24T11:53:45Z</time>
      </trkpt>
      <trkpt lat="45.78929" lon="6.65713">
        <ele>1888</ele>
        <time>2022-07-24T11:53:46Z</time>
      </trkpt>
      <trkpt lat="45.78929" lon="6.65714">
        <ele>1888</ele>
        <time>2022-07-24T11:53:47Z</time>
      </trkpt>
      <trkpt lat="45.7893" lon="6.65714">
        <ele>1889</ele>
        <time>2022-07-24T11:53:48Z</time>
      </trkpt>
      <trkpt lat="45.7893" lon="6.65715">
        <ele>1889</ele>
        <time>2022-07-24T11:53:49Z</time>
      </trkpt>
      <trkpt lat="45.78931" lon="6.65716">
        <ele>1889</ele>
        <time>2022-07-24T11:53:50Z</time>
      </trkpt>
      <trkpt lat="45.78931" lon="6.65717">
        <ele>1889</ele>
        <time>2022-07-24T11:53:51Z</time>
      </trkpt>
      <trkpt lat="45.78932" lon="6.65718">
        <ele>1889</ele>
        <time>2022-07-24T11:53:52Z</time>
      </trkpt>
      <trkpt lat="45.78933" lon="6.65718">
        <ele>1889</ele>
        <time>2022-07-24T11:53:53Z</time>
      </trkpt>
      <trkpt lat="45.78933" lon="6.65719">
        <ele>1889</ele>
        <time>2022-07-24T11:53:54Z</time>
      </trkpt>
      <trkpt lat="45.78934" lon="6.65719">
        <ele>1889</ele>
        <time>2022-07-24T11:53:55Z</time>
      </trkpt>
      <trkpt lat="45.78935" lon="6.6572">
        <ele>1889</ele>
        <time>2022-07-24T11:53:56Z</time>
      </trkpt>
      <trkpt lat="45.78936" lon="6.6572">
        <ele>1889</ele>
        <time>2022-07-24T11:53:57Z</time>
      </trkpt>
      <trkpt lat="45.78936" lon="6.6572">
        <ele>1890</ele>
        <time>2022-07-24T11:53:58Z</time>
      </trkpt>
      <trkpt lat="45.78937" lon="6.6572">
        <ele>1890</ele>
        <time>2022-07-24T11:53:59Z</time>
      </trkpt>
      <trkpt lat="45.78938" lon="6.65721">
        <ele>1890</ele>
        <time>2022-07-24T11:54:00Z</time>
      </trkpt>
      <trkpt lat="45.78939" lon="6.65721">
        <ele>1891</ele>
        <time>2022-07-24T11:54:01Z</time>
      </trkpt>
      <trkpt lat="45.7894" lon="6.65721">
        <ele>1891</ele>
        <time>2022-07-24T11:54:02Z</time>
      </trkpt>
      <trkpt lat="45.7894" lon="6.65722">
        <ele>1892</ele>
        <time>2022-07-24T11:54:03Z</time>
      </trkpt>
      <trkpt lat="45.78942" lon="6.65722">
        <ele>1892</ele>
        <time>2022-07-24T11:54:12Z</time>
      </trkpt>
      <trkpt lat="45.78943" lon="6.65722">
        <ele>1893</ele>
        <time>2022-07-24T11:54:13Z</time>
      </trkpt>
      <trkpt lat="45.78944" lon="6.65722">
        <ele>1893</ele>
        <time>2022-07-24T11:54:14Z</time>
      </trkpt>
      <trkpt lat="45.78944" lon="6.65722">
        <ele>1893</ele>
        <time>2022-07-24T11:54:15Z</time>
      </trkpt>
      <trkpt lat="45.78945" lon="6.65722">
        <ele>1893</ele>
        <time>2022-07-24T11:54:16Z</time>
      </trkpt>
      <trkpt lat="45.78946" lon="6.65722">
        <ele>1893</ele>
        <time>2022-07-24T11:54:17Z</time>
      </trkpt>
      <trkpt lat="45.78946" lon="6.65721">
        <ele>1894</ele>
        <time>2022-07-24T11:54:18Z</time>
      </trkpt>
      <trkpt lat="45.78947" lon="6.65721">
        <ele>1894</ele>
        <time>2022-07-24T11:54:19Z</time>
      </trkpt>
      <trkpt lat="45.78948" lon="6.65721">
        <ele>1894</ele>
        <time>2022-07-24T11:54:20Z</time>
      </trkpt>
      <trkpt lat="45.78948" lon="6.65721">
        <ele>1894</ele>
        <time>2022-07-24T11:54:21Z</time>
      </trkpt>
      <trkpt lat="45.78949" lon="6.65721">
        <ele>1894</ele>
        <time>2022-07-24T11:54:22Z</time>
      </trkpt>
      <trkpt lat="45.7895" lon="6.65721">
        <ele>1896</ele>
        <time>2022-07-24T11:54:29Z</time>
      </trkpt>
      <trkpt lat="45.78951" lon="6.65721">
        <ele>1896</ele>
        <time>2022-07-24T11:54:30Z</time>
      </trkpt>
      <trkpt lat="45.78951" lon="6.65721">
        <ele>1896</ele>
        <time>2022-07-24T11:54:31Z</time>
      </trkpt>
      <trkpt lat="45.78951" lon="6.6572">
        <ele>1896</ele>
        <time>2022-07-24T11:54:32Z</time>
      </trkpt>
      <trkpt lat="45.78952" lon="6.6572">
        <ele>1897</ele>
        <time>2022-07-24T11:54:33Z</time>
      </trkpt>
      <trkpt lat="45.78952" lon="6.65719">
        <ele>1897</ele>
        <time>2022-07-24T11:54:34Z</time>
      </trkpt>
      <trkpt lat="45.78952" lon="6.65719">
        <ele>1897</ele>
        <time>2022-07-24T11:54:35Z</time>
      </trkpt>
      <trkpt lat="45.78952" lon="6.65719">
        <ele>1897</ele>
        <time>2022-07-24T11:54:36Z</time>
      </trkpt>
      <trkpt lat="45.78952" lon="6.65718">
        <ele>1897</ele>
        <time>2022-07-24T11:54:37Z</time>
      </trkpt>
      <trkpt lat="45.78951" lon="6.65718">
        <ele>1897</ele>
        <time>2022-07-24T11:54:38Z</time>
      </trkpt>
      <trkpt lat="45.78951" lon="6.65717">
        <ele>1897</ele>
        <time>2022-07-24T11:54:39Z</time>
      </trkpt>
      <trkpt lat="45.78951" lon="6.65715">
        <ele>1897</ele>
        <time>2022-07-24T11:54:40Z</time>
      </trkpt>
      <trkpt lat="45.78951" lon="6.65714">
        <ele>1897</ele>
        <time>2022-07-24T11:54:41Z</time>
      </trkpt>
      <trkpt lat="45.78951" lon="6.65713">
        <ele>1897</ele>
        <time>2022-07-24T11:54:42Z</time>
      </trkpt>
      <trkpt lat="45.78951" lon="6.65712">
        <ele>1899</ele>
        <time>2022-07-24T11:54:52Z</time>
      </trkpt>
      <trkpt lat="45.78952" lon="6.65712">
        <ele>1899</ele>
        <time>2022-07-24T11:54:53Z</time>
      </trkpt>
      <trkpt lat="45.78952" lon="6.65711">
        <ele>1899</ele>
        <time>2022-07-24T11:54:54Z</time>
      </trkpt>
      <trkpt lat="45.78953" lon="6.65711">
        <ele>1899</ele>
        <time>2022-07-24T11:54:55Z</time>
      </trkpt>
      <trkpt lat="45.78953" lon="6.65711">
        <ele>1899</ele>
        <time>2022-07-24T11:54:56Z</time>
      </trkpt>
      <trkpt lat="45.78954" lon="6.65712">
        <ele>1899</ele>
        <time>2022-07-24T11:54:57Z</time>
      </trkpt>
      <trkpt lat="45.78955" lon="6.65712">
        <ele>1900</ele>
        <time>2022-07-24T11:54:58Z</time>
      </trkpt>
      <trkpt lat="45.78956" lon="6.65712">
        <ele>1900</ele>
        <time>2022-07-24T11:54:59Z</time>
      </trkpt>
      <trkpt lat="45.78957" lon="6.65712">
        <ele>1900</ele>
        <time>2022-07-24T11:55:00Z</time>
      </trkpt>
      <trkpt lat="45.78957" lon="6.65712">
        <ele>1900</ele>
        <time>2022-07-24T11:55:01Z</time>
      </trkpt>
      <trkpt lat="45.78958" lon="6.65712">
        <ele>1900</ele>
        <time>2022-07-24T11:55:02Z</time>
      </trkpt>
      <trkpt lat="45.78959" lon="6.65712">
        <ele>1901</ele>
        <time>2022-07-24T11:55:03Z</time>
      </trkpt>
      <trkpt lat="45.78959" lon="6.65711">
        <ele>1901</ele>
        <time>2022-07-24T11:55:04Z</time>
      </trkpt>
      <trkpt lat="45.7896" lon="6.65711">
        <ele>1901</ele>
        <time>2022-07-24T11:55:05Z</time>
      </trkpt>
      <trkpt lat="45.78961" lon="6.6571">
        <ele>1901</ele>
        <time>2022-07-24T11:55:06Z</time>
      </trkpt>
      <trkpt lat="45.78961" lon="6.6571">
        <ele>1901</ele>
        <time>2022-07-24T11:55:07Z</time>
      </trkpt>
      <trkpt lat="45.78961" lon="6.6571">
        <ele>1901</ele>
        <time>2022-07-24T11:55:08Z</time>
      </trkpt>
      <trkpt lat="45.78961" lon="6.6571">
        <ele>1901</ele>
        <time>2022-07-24T11:55:09Z</time>
      </trkpt>
      <trkpt lat="45.78961" lon="6.65709">
        <ele>1901</ele>
        <time>2022-07-24T11:55:10Z</time>
      </trkpt>
      <trkpt lat="45.78961" lon="6.65708">
        <ele>1901</ele>
        <time>2022-07-24T11:55:11Z</time>
      </trkpt>
      <trkpt lat="45.7896" lon="6.65708">
        <ele>1901</ele>
        <time>2022-07-24T11:55:12Z</time>
      </trkpt>
      <trkpt lat="45.7896" lon="6.65707">
        <ele>1902</ele>
        <time>2022-07-24T11:55:13Z</time>
      </trkpt>
      <trkpt lat="45.78959" lon="6.65706">
        <ele>1902</ele>
        <time>2022-07-24T11:55:14Z</time>
      </trkpt>
      <trkpt lat="45.78959" lon="6.65705">
        <ele>1902</ele>
        <time>2022-07-24T11:55:15Z</time>
      </trkpt>
      <trkpt lat="45.78958" lon="6.65705">
        <ele>1902</ele>
        <time>2022-07-24T11:55:16Z</time>
      </trkpt>
      <trkpt lat="45.78957" lon="6.65704">
        <ele>1902</ele>
        <time>2022-07-24T11:55:17Z</time>
      </trkpt>
      <trkpt lat="45.78956" lon="6.65703">
        <ele>1903</ele>
        <time>2022-07-24T11:55:18Z</time>
      </trkpt>
      <trkpt lat="45.78956" lon="6.65702">
        <ele>1903</ele>
        <time>2022-07-24T11:55:19Z</time>
      </trkpt>
      <trkpt lat="45.78955" lon="6.65701">
        <ele>1903</ele>
        <time>2022-07-24T11:55:20Z</time>
      </trkpt>
      <trkpt lat="45.78955" lon="6.657">
        <ele>1903</ele>
        <time>2022-07-24T11:55:21Z</time>
      </trkpt>
      <trkpt lat="45.78955" lon="6.65699">
        <ele>1903</ele>
        <time>2022-07-24T11:55:22Z</time>
      </trkpt>
      <trkpt lat="45.78956" lon="6.65698">
        <ele>1906</ele>
        <time>2022-07-24T11:56:49Z</time>
      </trkpt>
      <trkpt lat="45.78956" lon="6.65698">
        <ele>1906</ele>
        <time>2022-07-24T11:56:50Z</time>
      </trkpt>
      <trkpt lat="45.78957" lon="6.65698">
        <ele>1906</ele>
        <time>2022-07-24T11:56:51Z</time>
      </trkpt>
      <trkpt lat="45.78958" lon="6.65698">
        <ele>1906</ele>
        <time>2022-07-24T11:56:52Z</time>
      </trkpt>
      <trkpt lat="45.78958" lon="6.65698">
        <ele>1906</ele>
        <time>2022-07-24T11:56:53Z</time>
      </trkpt>
      <trkpt lat="45.78959" lon="6.65698">
        <ele>1906</ele>
        <time>2022-07-24T11:56:54Z</time>
      </trkpt>
      <trkpt lat="45.78959" lon="6.65698">
        <ele>1906</ele>
        <time>2022-07-24T11:56:55Z</time>
      </trkpt>
      <trkpt lat="45.7896" lon="6.65698">
        <ele>1906</ele>
        <time>2022-07-24T11:56:56Z</time>
      </trkpt>
      <trkpt lat="45.78961" lon="6.65698">
        <ele>1906</ele>
        <time>2022-07-24T11:56:57Z</time>
      </trkpt>
      <trkpt lat="45.78962" lon="6.65698">
        <ele>1906</ele>
        <time>2022-07-24T11:56:58Z</time>
      </trkpt>
      <trkpt lat="45.78962" lon="6.65698">
        <ele>1906</ele>
        <time>2022-07-24T11:56:59Z</time>
      </trkpt>
      <trkpt lat="45.78963" lon="6.65698">
        <ele>1906</ele>
        <time>2022-07-24T11:57:00Z</time>
      </trkpt>
      <trkpt lat="45.78964" lon="6.65698">
        <ele>1906</ele>
        <time>2022-07-24T11:57:01Z</time>
      </trkpt>
      <trkpt lat="45.78964" lon="6.65698">
        <ele>1906</ele>
        <time>2022-07-24T11:57:02Z</time>
      </trkpt>
      <trkpt lat="45.78965" lon="6.65698">
        <ele>1907</ele>
        <time>2022-07-24T11:57:03Z</time>
      </trkpt>
      <trkpt lat="45.78966" lon="6.65698">
        <ele>1907</ele>
        <time>2022-07-24T11:57:04Z</time>
      </trkpt>
      <trkpt lat="45.78967" lon="6.65698">
        <ele>1907</ele>
        <time>2022-07-24T11:57:05Z</time>
      </trkpt>
      <trkpt lat="45.78967" lon="6.65698">
        <ele>1907</ele>
        <time>2022-07-24T11:57:06Z</time>
      </trkpt>
      <trkpt lat="45.78968" lon="6.65698">
        <ele>1907</ele>
        <time>2022-07-24T11:57:07Z</time>
      </trkpt>
      <trkpt lat="45.78969" lon="6.65697">
        <ele>1907</ele>
        <time>2022-07-24T11:57:08Z</time>
      </trkpt>
      <trkpt lat="45.7897" lon="6.65697">
        <ele>1907</ele>
        <time>2022-07-24T11:57:09Z</time>
      </trkpt>
      <trkpt lat="45.7897" lon="6.65697">
        <ele>1907</ele>
        <time>2022-07-24T11:57:10Z</time>
      </trkpt>
      <trkpt lat="45.7897" lon="6.65697">
        <ele>1907</ele>
        <time>2022-07-24T11:57:11Z</time>
      </trkpt>
      <trkpt lat="45.78971" lon="6.65696">
        <ele>1907</ele>
        <time>2022-07-24T11:57:12Z</time>
      </trkpt>
      <trkpt lat="45.78972" lon="6.65696">
        <ele>1908</ele>
        <time>2022-07-24T11:57:13Z</time>
      </trkpt>
      <trkpt lat="45.78972" lon="6.65696">
        <ele>1908</ele>
        <time>2022-07-24T11:57:14Z</time>
      </trkpt>
      <trkpt lat="45.78973" lon="6.65695">
        <ele>1908</ele>
        <time>2022-07-24T11:57:15Z</time>
      </trkpt>
      <trkpt lat="45.78973" lon="6.65695">
        <ele>1908</ele>
        <time>2022-07-24T11:57:16Z</time>
      </trkpt>
      <trkpt lat="45.78974" lon="6.65694">
        <ele>1908</ele>
        <time>2022-07-24T11:57:17Z</time>
      </trkpt>
      <trkpt lat="45.78974" lon="6.65694">
        <ele>1909</ele>
        <time>2022-07-24T11:57:18Z</time>
      </trkpt>
      <trkpt lat="45.78975" lon="6.65694">
        <ele>1909</ele>
        <time>2022-07-24T11:57:19Z</time>
      </trkpt>
      <trkpt lat="45.78975" lon="6.65694">
        <ele>1909</ele>
        <time>2022-07-24T11:57:20Z</time>
      </trkpt>
      <trkpt lat="45.78976" lon="6.65693">
        <ele>1909</ele>
        <time>2022-07-24T11:57:21Z</time>
      </trkpt>
      <trkpt lat="45.78977" lon="6.65693">
        <ele>1909</ele>
        <time>2022-07-24T11:57:22Z</time>
      </trkpt>
      <trkpt lat="45.78978" lon="6.65692">
        <ele>1911</ele>
        <time>2022-07-24T11:57:30Z</time>
      </trkpt>
      <trkpt lat="45.78979" lon="6.65692">
        <ele>1911</ele>
        <time>2022-07-24T11:57:31Z</time>
      </trkpt>
      <trkpt lat="45.7898" lon="6.65691">
        <ele>1911</ele>
        <time>2022-07-24T11:57:32Z</time>
      </trkpt>
      <trkpt lat="45.78981" lon="6.65691">
        <ele>1912</ele>
        <time>2022-07-24T11:57:33Z</time>
      </trkpt>
      <trkpt lat="45.78982" lon="6.65691">
        <ele>1912</ele>
        <time>2022-07-24T11:57:34Z</time>
      </trkpt>
      <trkpt lat="45.78982" lon="6.65691">
        <ele>1912</ele>
        <time>2022-07-24T11:57:35Z</time>
      </trkpt>
      <trkpt lat="45.78983" lon="6.65691">
        <ele>1913</ele>
        <time>2022-07-24T11:57:36Z</time>
      </trkpt>
      <trkpt lat="45.78984" lon="6.65691">
        <ele>1913</ele>
        <time>2022-07-24T11:57:37Z</time>
      </trkpt>
      <trkpt lat="45.78985" lon="6.6569">
        <ele>1914</ele>
        <time>2022-07-24T11:57:38Z</time>
      </trkpt>
      <trkpt lat="45.78985" lon="6.6569">
        <ele>1914</ele>
        <time>2022-07-24T11:57:39Z</time>
      </trkpt>
      <trkpt lat="45.78986" lon="6.6569">
        <ele>1914</ele>
        <time>2022-07-24T11:57:40Z</time>
      </trkpt>
      <trkpt lat="45.78988" lon="6.65689">
        <ele>1916</ele>
        <time>2022-07-24T11:57:50Z</time>
      </trkpt>
      <trkpt lat="45.78988" lon="6.65689">
        <ele>1916</ele>
        <time>2022-07-24T11:57:51Z</time>
      </trkpt>
      <trkpt lat="45.78989" lon="6.65689">
        <ele>1916</ele>
        <time>2022-07-24T11:57:52Z</time>
      </trkpt>
      <trkpt lat="45.78989" lon="6.65689">
        <ele>1916</ele>
        <time>2022-07-24T11:57:53Z</time>
      </trkpt>
      <trkpt lat="45.7899" lon="6.65689">
        <ele>1916</ele>
        <time>2022-07-24T11:57:54Z</time>
      </trkpt>
      <trkpt lat="45.7899" lon="6.6569">
        <ele>1916</ele>
        <time>2022-07-24T11:57:55Z</time>
      </trkpt>
      <trkpt lat="45.78991" lon="6.6569">
        <ele>1916</ele>
        <time>2022-07-24T11:57:56Z</time>
      </trkpt>
      <trkpt lat="45.78991" lon="6.6569">
        <ele>1916</ele>
        <time>2022-07-24T11:57:57Z</time>
      </trkpt>
      <trkpt lat="45.78992" lon="6.6569">
        <ele>1917</ele>
        <time>2022-07-24T11:57:58Z</time>
      </trkpt>
      <trkpt lat="45.78992" lon="6.6569">
        <ele>1917</ele>
        <time>2022-07-24T11:57:59Z</time>
      </trkpt>
      <trkpt lat="45.78993" lon="6.6569">
        <ele>1917</ele>
        <time>2022-07-24T11:58:00Z</time>
      </trkpt>
      <trkpt lat="45.78993" lon="6.6569">
        <ele>1917</ele>
        <time>2022-07-24T11:58:01Z</time>
      </trkpt>
      <trkpt lat="45.78994" lon="6.6569">
        <ele>1917</ele>
        <time>2022-07-24T11:58:02Z</time>
      </trkpt>
      <trkpt lat="45.78994" lon="6.65689">
        <ele>1917</ele>
        <time>2022-07-24T11:58:03Z</time>
      </trkpt>
      <trkpt lat="45.78995" lon="6.65689">
        <ele>1917</ele>
        <time>2022-07-24T11:58:04Z</time>
      </trkpt>
      <trkpt lat="45.78996" lon="6.65689">
        <ele>1917</ele>
        <time>2022-07-24T11:58:05Z</time>
      </trkpt>
      <trkpt lat="45.78996" lon="6.65689">
        <ele>1917</ele>
        <time>2022-07-24T11:58:06Z</time>
      </trkpt>
      <trkpt lat="45.78997" lon="6.65689">
        <ele>1917</ele>
        <time>2022-07-24T11:58:07Z</time>
      </trkpt>
      <trkpt lat="45.78998" lon="6.65688">
        <ele>1918</ele>
        <time>2022-07-24T11:58:08Z</time>
      </trkpt>
      <trkpt lat="45.78998" lon="6.65688">
        <ele>1918</ele>
        <time>2022-07-24T11:58:09Z</time>
      </trkpt>
      <trkpt lat="45.78998" lon="6.65688">
        <ele>1918</ele>
        <time>2022-07-24T11:58:10Z</time>
      </trkpt>
      <trkpt lat="45.78999" lon="6.65688">
        <ele>1918</ele>
        <time>2022-07-24T11:58:11Z</time>
      </trkpt>
      <trkpt lat="45.79" lon="6.65687">
        <ele>1918</ele>
        <time>2022-07-24T11:58:12Z</time>
      </trkpt>
      <trkpt lat="45.79" lon="6.65687">
        <ele>1919</ele>
        <time>2022-07-24T11:58:13Z</time>
      </trkpt>
      <trkpt lat="45.79001" lon="6.65687">
        <ele>1919</ele>
        <time>2022-07-24T11:58:14Z</time>
      </trkpt>
      <trkpt lat="45.79002" lon="6.65687">
        <ele>1919</ele>
        <time>2022-07-24T11:58:15Z</time>
      </trkpt>
      <trkpt lat="45.79002" lon="6.65687">
        <ele>1919</ele>
        <time>2022-07-24T11:58:16Z</time>
      </trkpt>
      <trkpt lat="45.79003" lon="6.65687">
        <ele>1919</ele>
        <time>2022-07-24T11:58:17Z</time>
      </trkpt>
      <trkpt lat="45.79004" lon="6.65687">
        <ele>1920</ele>
        <time>2022-07-24T11:58:18Z</time>
      </trkpt>
      <trkpt lat="45.79004" lon="6.65687">
        <ele>1920</ele>
        <time>2022-07-24T11:58:19Z</time>
      </trkpt>
      <trkpt lat="45.79005" lon="6.65688">
        <ele>1920</ele>
        <time>2022-07-24T11:58:20Z</time>
      </trkpt>
      <trkpt lat="45.79006" lon="6.65688">
        <ele>1920</ele>
        <time>2022-07-24T11:58:21Z</time>
      </trkpt>
      <trkpt lat="45.79007" lon="6.65688">
        <ele>1920</ele>
        <time>2022-07-24T11:58:22Z</time>
      </trkpt>
      <trkpt lat="45.79007" lon="6.65688">
        <ele>1920</ele>
        <time>2022-07-24T11:58:23Z</time>
      </trkpt>
      <trkpt lat="45.79008" lon="6.65688">
        <ele>1920</ele>
        <time>2022-07-24T11:58:24Z</time>
      </trkpt>
      <trkpt lat="45.7901" lon="6.65688">
        <ele>1923</ele>
        <time>2022-07-24T11:58:48Z</time>
      </trkpt>
      <trkpt lat="45.79011" lon="6.65688">
        <ele>1923</ele>
        <time>2022-07-24T11:58:49Z</time>
      </trkpt>
      <trkpt lat="45.79012" lon="6.65688">
        <ele>1923</ele>
        <time>2022-07-24T11:58:50Z</time>
      </trkpt>
      <trkpt lat="45.79012" lon="6.65687">
        <ele>1923</ele>
        <time>2022-07-24T11:58:51Z</time>
      </trkpt>
      <trkpt lat="45.79013" lon="6.65687">
        <ele>1923</ele>
        <time>2022-07-24T11:58:52Z</time>
      </trkpt>
      <trkpt lat="45.79014" lon="6.65687">
        <ele>1923</ele>
        <time>2022-07-24T11:58:53Z</time>
      </trkpt>
      <trkpt lat="45.79014" lon="6.65687">
        <ele>1923</ele>
        <time>2022-07-24T11:58:54Z</time>
      </trkpt>
      <trkpt lat="45.79015" lon="6.65686">
        <ele>1923</ele>
        <time>2022-07-24T11:58:55Z</time>
      </trkpt>
      <trkpt lat="45.79016" lon="6.65686">
        <ele>1923</ele>
        <time>2022-07-24T11:58:56Z</time>
      </trkpt>
      <trkpt lat="45.79017" lon="6.65686">
        <ele>1923</ele>
        <time>2022-07-24T11:58:57Z</time>
      </trkpt>
      <trkpt lat="45.79018" lon="6.65685">
        <ele>1923</ele>
        <time>2022-07-24T11:58:58Z</time>
      </trkpt>
      <trkpt lat="45.79019" lon="6.65685">
        <ele>1923</ele>
        <time>2022-07-24T11:58:59Z</time>
      </trkpt>
      <trkpt lat="45.79019" lon="6.65684">
        <ele>1923</ele>
        <time>2022-07-24T11:59:00Z</time>
      </trkpt>
      <trkpt lat="45.7902" lon="6.65684">
        <ele>1923</ele>
        <time>2022-07-24T11:59:01Z</time>
      </trkpt>
      <trkpt lat="45.79021" lon="6.65683">
        <ele>1923</ele>
        <time>2022-07-24T11:59:02Z</time>
      </trkpt>
      <trkpt lat="45.79022" lon="6.65683">
        <ele>1925</ele>
        <time>2022-07-24T11:59:13Z</time>
      </trkpt>
      <trkpt lat="45.79023" lon="6.65682">
        <ele>1925</ele>
        <time>2022-07-24T11:59:14Z</time>
      </trkpt>
      <trkpt lat="45.79023" lon="6.65682">
        <ele>1925</ele>
        <time>2022-07-24T11:59:15Z</time>
      </trkpt>
      <trkpt lat="45.79024" lon="6.65682">
        <ele>1925</ele>
        <time>2022-07-24T11:59:16Z</time>
      </trkpt>
      <trkpt lat="45.79025" lon="6.65682">
        <ele>1925</ele>
        <time>2022-07-24T11:59:17Z</time>
      </trkpt>
      <trkpt lat="45.79026" lon="6.65682">
        <ele>1926</ele>
        <time>2022-07-24T11:59:18Z</time>
      </trkpt>
      <trkpt lat="45.79026" lon="6.65682">
        <ele>1926</ele>
        <time>2022-07-24T11:59:19Z</time>
      </trkpt>
      <trkpt lat="45.79027" lon="6.65681">
        <ele>1926</ele>
        <time>2022-07-24T11:59:20Z</time>
      </trkpt>
      <trkpt lat="45.79028" lon="6.65681">
        <ele>1926</ele>
        <time>2022-07-24T11:59:21Z</time>
      </trkpt>
      <trkpt lat="45.79031" lon="6.6568">
        <ele>1929</ele>
        <time>2022-07-24T12:01:04Z</time>
      </trkpt>
      <trkpt lat="45.79032" lon="6.6568">
        <ele>1929</ele>
        <time>2022-07-24T12:01:05Z</time>
      </trkpt>
      <trkpt lat="45.79033" lon="6.65679">
        <ele>1929</ele>
        <time>2022-07-24T12:01:06Z</time>
      </trkpt>
      <trkpt lat="45.79034" lon="6.65679">
        <ele>1929</ele>
        <time>2022-07-24T12:01:07Z</time>
      </trkpt>
      <trkpt lat="45.79035" lon="6.65679">
        <ele>1930</ele>
        <time>2022-07-24T12:01:08Z</time>
      </trkpt>
      <trkpt lat="45.79037" lon="6.6568">
        <ele>1932</ele>
        <time>2022-07-24T12:02:19Z</time>
      </trkpt>
      <trkpt lat="45.79038" lon="6.6568">
        <ele>1932</ele>
        <time>2022-07-24T12:02:20Z</time>
      </trkpt>
      <trkpt lat="45.79039" lon="6.6568">
        <ele>1932</ele>
        <time>2022-07-24T12:02:21Z</time>
      </trkpt>
      <trkpt lat="45.7904" lon="6.6568">
        <ele>1932</ele>
        <time>2022-07-24T12:02:22Z</time>
      </trkpt>
      <trkpt lat="45.79041" lon="6.6568">
        <ele>1932</ele>
        <time>2022-07-24T12:02:23Z</time>
      </trkpt>
      <trkpt lat="45.79042" lon="6.6568">
        <ele>1932</ele>
        <time>2022-07-24T12:02:24Z</time>
      </trkpt>
      <trkpt lat="45.79042" lon="6.6568">
        <ele>1932</ele>
        <time>2022-07-24T12:02:25Z</time>
      </trkpt>
      <trkpt lat="45.79043" lon="6.6568">
        <ele>1932</ele>
        <time>2022-07-24T12:02:26Z</time>
      </trkpt>
      <trkpt lat="45.79044" lon="6.6568">
        <ele>1932</ele>
        <time>2022-07-24T12:02:27Z</time>
      </trkpt>
      <trkpt lat="45.79045" lon="6.6568">
        <ele>1933</ele>
        <time>2022-07-24T12:02:28Z</time>
      </trkpt>
      <trkpt lat="45.79045" lon="6.6568">
        <ele>1933</ele>
        <time>2022-07-24T12:02:29Z</time>
      </trkpt>
      <trkpt lat="45.79046" lon="6.65681">
        <ele>1933</ele>
        <time>2022-07-24T12:02:30Z</time>
      </trkpt>
      <trkpt lat="45.79046" lon="6.65681">
        <ele>1933</ele>
        <time>2022-07-24T12:02:31Z</time>
      </trkpt>
      <trkpt lat="45.79047" lon="6.65682">
        <ele>1933</ele>
        <time>2022-07-24T12:02:32Z</time>
      </trkpt>
      <trkpt lat="45.79047" lon="6.65682">
        <ele>1934</ele>
        <time>2022-07-24T12:02:33Z</time>
      </trkpt>
      <trkpt lat="45.79048" lon="6.65682">
        <ele>1934</ele>
        <time>2022-07-24T12:02:34Z</time>
      </trkpt>
      <trkpt lat="45.79048" lon="6.65682">
        <ele>1934</ele>
        <time>2022-07-24T12:02:35Z</time>
      </trkpt>
      <trkpt lat="45.79049" lon="6.65682">
        <ele>1934</ele>
        <time>2022-07-24T12:02:36Z</time>
      </trkpt>
      <trkpt lat="45.7905" lon="6.65682">
        <ele>1934</ele>
        <time>2022-07-24T12:02:37Z</time>
      </trkpt>
      <trkpt lat="45.7905" lon="6.65682">
        <ele>1935</ele>
        <time>2022-07-24T12:02:38Z</time>
      </trkpt>
      <trkpt lat="45.79051" lon="6.65682">
        <ele>1935</ele>
        <time>2022-07-24T12:02:39Z</time>
      </trkpt>
      <trkpt lat="45.79051" lon="6.65682">
        <ele>1935</ele>
        <time>2022-07-24T12:02:40Z</time>
      </trkpt>
      <trkpt lat="45.79052" lon="6.65682">
        <ele>1935</ele>
        <time>2022-07-24T12:02:41Z</time>
      </trkpt>
      <trkpt lat="45.79052" lon="6.65682">
        <ele>1935</ele>
        <time>2022-07-24T12:02:42Z</time>
      </trkpt>
      <trkpt lat="45.79053" lon="6.65682">
        <ele>1936</ele>
        <time>2022-07-24T12:02:43Z</time>
      </trkpt>
      <trkpt lat="45.79053" lon="6.65682">
        <ele>1936</ele>
        <time>2022-07-24T12:02:44Z</time>
      </trkpt>
      <trkpt lat="45.79054" lon="6.65682">
        <ele>1936</ele>
        <time>2022-07-24T12:02:45Z</time>
      </trkpt>
      <trkpt lat="45.79054" lon="6.65682">
        <ele>1936</ele>
        <time>2022-07-24T12:02:46Z</time>
      </trkpt>
      <trkpt lat="45.79055" lon="6.65682">
        <ele>1936</ele>
        <time>2022-07-24T12:02:47Z</time>
      </trkpt>
      <trkpt lat="45.79056" lon="6.65683">
        <ele>1938</ele>
        <time>2022-07-24T12:02:54Z</time>
      </trkpt>
      <trkpt lat="45.79057" lon="6.65683">
        <ele>1938</ele>
        <time>2022-07-24T12:02:55Z</time>
      </trkpt>
      <trkpt lat="45.79057" lon="6.65684">
        <ele>1938</ele>
        <time>2022-07-24T12:02:56Z</time>
      </trkpt>
      <trkpt lat="45.79058" lon="6.65684">
        <ele>1938</ele>
        <time>2022-07-24T12:02:57Z</time>
      </trkpt>
      <trkpt lat="45.79058" lon="6.65684">
        <ele>1938</ele>
        <time>2022-07-24T12:02:58Z</time>
      </trkpt>
      <trkpt lat="45.79059" lon="6.65685">
        <ele>1938</ele>
        <time>2022-07-24T12:02:59Z</time>
      </trkpt>
      <trkpt lat="45.79059" lon="6.65685">
        <ele>1938</ele>
        <time>2022-07-24T12:03:00Z</time>
      </trkpt>
      <trkpt lat="45.7906" lon="6.65686">
        <ele>1938</ele>
        <time>2022-07-24T12:03:01Z</time>
      </trkpt>
      <trkpt lat="45.7906" lon="6.65686">
        <ele>1938</ele>
        <time>2022-07-24T12:03:02Z</time>
      </trkpt>
      <trkpt lat="45.79061" lon="6.65686">
        <ele>1939</ele>
        <time>2022-07-24T12:03:03Z</time>
      </trkpt>
      <trkpt lat="45.79061" lon="6.65687">
        <ele>1939</ele>
        <time>2022-07-24T12:03:04Z</time>
      </trkpt>
      <trkpt lat="45.79062" lon="6.65687">
        <ele>1939</ele>
        <time>2022-07-24T12:03:05Z</time>
      </trkpt>
      <trkpt lat="45.79065" lon="6.65688">
        <ele>1943</ele>
        <time>2022-07-24T12:03:36Z</time>
      </trkpt>
      <trkpt lat="45.79067" lon="6.65688">
        <ele>1943</ele>
        <time>2022-07-24T12:03:37Z</time>
      </trkpt>
      <trkpt lat="45.79068" lon="6.65688">
        <ele>1943</ele>
        <time>2022-07-24T12:03:38Z</time>
      </trkpt>
      <trkpt lat="45.79072" lon="6.65689">
        <ele>1947</ele>
        <time>2022-07-24T12:03:53Z</time>
      </trkpt>
      <trkpt lat="45.79073" lon="6.6569">
        <ele>1947</ele>
        <time>2022-07-24T12:03:54Z</time>
      </trkpt>
      <trkpt lat="45.79074" lon="6.6569">
        <ele>1947</ele>
        <time>2022-07-24T12:03:55Z</time>
      </trkpt>
      <trkpt lat="45.79075" lon="6.6569">
        <ele>1947</ele>
        <time>2022-07-24T12:03:56Z</time>
      </trkpt>
      <trkpt lat="45.79076" lon="6.65691">
        <ele>1947</ele>
        <time>2022-07-24T12:03:57Z</time>
      </trkpt>
      <trkpt lat="45.79076" lon="6.65691">
        <ele>1949</ele>
        <time>2022-07-24T12:05:08Z</time>
      </trkpt>
      <trkpt lat="45.79077" lon="6.65691">
        <ele>1949</ele>
        <time>2022-07-24T12:05:09Z</time>
      </trkpt>
      <trkpt lat="45.79077" lon="6.65692">
        <ele>1949</ele>
        <time>2022-07-24T12:05:10Z</time>
      </trkpt>
      <trkpt lat="45.79077" lon="6.65692">
        <ele>1949</ele>
        <time>2022-07-24T12:05:11Z</time>
      </trkpt>
      <trkpt lat="45.79078" lon="6.65692">
        <ele>1949</ele>
        <time>2022-07-24T12:05:12Z</time>
      </trkpt>
      <trkpt lat="45.79078" lon="6.65692">
        <ele>1949</ele>
        <time>2022-07-24T12:05:13Z</time>
      </trkpt>
      <trkpt lat="45.79079" lon="6.65693">
        <ele>1949</ele>
        <time>2022-07-24T12:05:14Z</time>
      </trkpt>
      <trkpt lat="45.79079" lon="6.65693">
        <ele>1949</ele>
        <time>2022-07-24T12:05:15Z</time>
      </trkpt>
      <trkpt lat="45.7908" lon="6.65693">
        <ele>1949</ele>
        <time>2022-07-24T12:05:16Z</time>
      </trkpt>
      <trkpt lat="45.79081" lon="6.65694">
        <ele>1949</ele>
        <time>2022-07-24T12:05:17Z</time>
      </trkpt>
      <trkpt lat="45.79081" lon="6.65694">
        <ele>1950</ele>
        <time>2022-07-24T12:05:18Z</time>
      </trkpt>
      <trkpt lat="45.79082" lon="6.65694">
        <ele>1950</ele>
        <time>2022-07-24T12:05:19Z</time>
      </trkpt>
      <trkpt lat="45.79082" lon="6.65695">
        <ele>1950</ele>
        <time>2022-07-24T12:05:20Z</time>
      </trkpt>
      <trkpt lat="45.79083" lon="6.65695">
        <ele>1950</ele>
        <time>2022-07-24T12:05:21Z</time>
      </trkpt>
      <trkpt lat="45.79083" lon="6.65695">
        <ele>1950</ele>
        <time>2022-07-24T12:05:22Z</time>
      </trkpt>
      <trkpt lat="45.79084" lon="6.65695">
        <ele>1951</ele>
        <time>2022-07-24T12:05:23Z</time>
      </trkpt>
      <trkpt lat="45.79084" lon="6.65695">
        <ele>1951</ele>
        <time>2022-07-24T12:05:24Z</time>
      </trkpt>
      <trkpt lat="45.79085" lon="6.65696">
        <ele>1951</ele>
        <time>2022-07-24T12:05:25Z</time>
      </trkpt>
      <trkpt lat="45.79085" lon="6.65696">
        <ele>1951</ele>
        <time>2022-07-24T12:05:26Z</time>
      </trkpt>
      <trkpt lat="45.79086" lon="6.65696">
        <ele>1951</ele>
        <time>2022-07-24T12:05:27Z</time>
      </trkpt>
      <trkpt lat="45.79086" lon="6.65697">
        <ele>1952</ele>
        <time>2022-07-24T12:05:28Z</time>
      </trkpt>
      <trkpt lat="45.79086" lon="6.65697">
        <ele>1952</ele>
        <time>2022-07-24T12:05:29Z</time>
      </trkpt>
      <trkpt lat="45.79087" lon="6.65697">
        <ele>1952</ele>
        <time>2022-07-24T12:05:30Z</time>
      </trkpt>
      <trkpt lat="45.79087" lon="6.65698">
        <ele>1952</ele>
        <time>2022-07-24T12:05:31Z</time>
      </trkpt>
      <trkpt lat="45.79088" lon="6.65698">
        <ele>1952</ele>
        <time>2022-07-24T12:05:32Z</time>
      </trkpt>
      <trkpt lat="45.79088" lon="6.65699">
        <ele>1953</ele>
        <time>2022-07-24T12:05:33Z</time>
      </trkpt>
      <trkpt lat="45.79089" lon="6.65699">
        <ele>1953</ele>
        <time>2022-07-24T12:05:34Z</time>
      </trkpt>
      <trkpt lat="45.79089" lon="6.657">
        <ele>1953</ele>
        <time>2022-07-24T12:05:35Z</time>
      </trkpt>
      <trkpt lat="45.7909" lon="6.657">
        <ele>1953</ele>
        <time>2022-07-24T12:05:36Z</time>
      </trkpt>
      <trkpt lat="45.7909" lon="6.657">
        <ele>1953</ele>
        <time>2022-07-24T12:05:37Z</time>
      </trkpt>
      <trkpt lat="45.79091" lon="6.65701">
        <ele>1954</ele>
        <time>2022-07-24T12:05:38Z</time>
      </trkpt>
      <trkpt lat="45.79091" lon="6.65701">
        <ele>1954</ele>
        <time>2022-07-24T12:05:39Z</time>
      </trkpt>
      <trkpt lat="45.79092" lon="6.65702">
        <ele>1954</ele>
        <time>2022-07-24T12:05:40Z</time>
      </trkpt>
      <trkpt lat="45.79092" lon="6.65702">
        <ele>1954</ele>
        <time>2022-07-24T12:05:41Z</time>
      </trkpt>
      <trkpt lat="45.79093" lon="6.65703">
        <ele>1954</ele>
        <time>2022-07-24T12:05:42Z</time>
      </trkpt>
      <trkpt lat="45.79094" lon="6.65704">
        <ele>1955</ele>
        <time>2022-07-24T12:05:43Z</time>
      </trkpt>
      <trkpt lat="45.79094" lon="6.65705">
        <ele>1955</ele>
        <time>2022-07-24T12:05:44Z</time>
      </trkpt>
      <trkpt lat="45.79095" lon="6.65705">
        <ele>1955</ele>
        <time>2022-07-24T12:05:45Z</time>
      </trkpt>
      <trkpt lat="45.79096" lon="6.65706">
        <ele>1958</ele>
        <time>2022-07-24T12:06:07Z</time>
      </trkpt>
      <trkpt lat="45.79097" lon="6.65706">
        <ele>1958</ele>
        <time>2022-07-24T12:06:08Z</time>
      </trkpt>
      <trkpt lat="45.79098" lon="6.65707">
        <ele>1958</ele>
        <time>2022-07-24T12:06:09Z</time>
      </trkpt>
      <trkpt lat="45.79099" lon="6.65707">
        <ele>1958</ele>
        <time>2022-07-24T12:06:10Z</time>
      </trkpt>
      <trkpt lat="45.791" lon="6.65707">
        <ele>1958</ele>
        <time>2022-07-24T12:06:11Z</time>
      </trkpt>
      <trkpt lat="45.79101" lon="6.65707">
        <ele>1958</ele>
        <time>2022-07-24T12:06:12Z</time>
      </trkpt>
      <trkpt lat="45.79101" lon="6.65708">
        <ele>1959</ele>
        <time>2022-07-24T12:06:13Z</time>
      </trkpt>
      <trkpt lat="45.79103" lon="6.65708">
        <ele>1961</ele>
        <time>2022-07-24T12:07:56Z</time>
      </trkpt>
      <trkpt lat="45.79104" lon="6.65709">
        <ele>1961</ele>
        <time>2022-07-24T12:07:57Z</time>
      </trkpt>
      <trkpt lat="45.79105" lon="6.65709">
        <ele>1961</ele>
        <time>2022-07-24T12:07:58Z</time>
      </trkpt>
      <trkpt lat="45.79106" lon="6.6571">
        <ele>1961</ele>
        <time>2022-07-24T12:07:59Z</time>
      </trkpt>
      <trkpt lat="45.79107" lon="6.6571">
        <ele>1961</ele>
        <time>2022-07-24T12:08:00Z</time>
      </trkpt>
      <trkpt lat="45.79107" lon="6.65711">
        <ele>1961</ele>
        <time>2022-07-24T12:08:01Z</time>
      </trkpt>
      <trkpt lat="45.79108" lon="6.65712">
        <ele>1961</ele>
        <time>2022-07-24T12:08:02Z</time>
      </trkpt>
      <trkpt lat="45.79109" lon="6.65712">
        <ele>1961</ele>
        <time>2022-07-24T12:08:03Z</time>
      </trkpt>
      <trkpt lat="45.7911" lon="6.65713">
        <ele>1961</ele>
        <time>2022-07-24T12:08:04Z</time>
      </trkpt>
      <trkpt lat="45.79111" lon="6.65713">
        <ele>1961</ele>
        <time>2022-07-24T12:08:05Z</time>
      </trkpt>
      <trkpt lat="45.79112" lon="6.65714">
        <ele>1961</ele>
        <time>2022-07-24T12:08:06Z</time>
      </trkpt>
      <trkpt lat="45.79113" lon="6.65714">
        <ele>1961</ele>
        <time>2022-07-24T12:08:07Z</time>
      </trkpt>
      <trkpt lat="45.79114" lon="6.65714">
        <ele>1962</ele>
        <time>2022-07-24T12:08:08Z</time>
      </trkpt>
      <trkpt lat="45.79115" lon="6.65714">
        <ele>1962</ele>
        <time>2022-07-24T12:08:09Z</time>
      </trkpt>
      <trkpt lat="45.79116" lon="6.65714">
        <ele>1962</ele>
        <time>2022-07-24T12:08:10Z</time>
      </trkpt>
      <trkpt lat="45.79116" lon="6.65714">
        <ele>1962</ele>
        <time>2022-07-24T12:08:11Z</time>
      </trkpt>
      <trkpt lat="45.79117" lon="6.65714">
        <ele>1962</ele>
        <time>2022-07-24T12:08:12Z</time>
      </trkpt>
      <trkpt lat="45.79118" lon="6.65714">
        <ele>1962</ele>
        <time>2022-07-24T12:08:13Z</time>
      </trkpt>
      <trkpt lat="45.79119" lon="6.65714">
        <ele>1962</ele>
        <time>2022-07-24T12:08:14Z</time>
      </trkpt>
      <trkpt lat="45.7912" lon="6.65714">
        <ele>1962</ele>
        <time>2022-07-24T12:08:15Z</time>
      </trkpt>
      <trkpt lat="45.7912" lon="6.65713">
        <ele>1962</ele>
        <time>2022-07-24T12:08:16Z</time>
      </trkpt>
      <trkpt lat="45.79121" lon="6.65713">
        <ele>1962</ele>
        <time>2022-07-24T12:08:17Z</time>
      </trkpt>
      <trkpt lat="45.79122" lon="6.65713">
        <ele>1963</ele>
        <time>2022-07-24T12:08:18Z</time>
      </trkpt>
      <trkpt lat="45.79123" lon="6.65713">
        <ele>1963</ele>
        <time>2022-07-24T12:08:19Z</time>
      </trkpt>
      <trkpt lat="45.79123" lon="6.65712">
        <ele>1963</ele>
        <time>2022-07-24T12:08:20Z</time>
      </trkpt>
      <trkpt lat="45.79124" lon="6.65712">
        <ele>1963</ele>
        <time>2022-07-24T12:08:21Z</time>
      </trkpt>
      <trkpt lat="45.79125" lon="6.65712">
        <ele>1963</ele>
        <time>2022-07-24T12:08:22Z</time>
      </trkpt>
      <trkpt lat="45.79125" lon="6.65712">
        <ele>1964</ele>
        <time>2022-07-24T12:08:23Z</time>
      </trkpt>
      <trkpt lat="45.79126" lon="6.65712">
        <ele>1964</ele>
        <time>2022-07-24T12:08:24Z</time>
      </trkpt>
      <trkpt lat="45.79127" lon="6.65712">
        <ele>1964</ele>
        <time>2022-07-24T12:08:25Z</time>
      </trkpt>
      <trkpt lat="45.79127" lon="6.65712">
        <ele>1964</ele>
        <time>2022-07-24T12:08:26Z</time>
      </trkpt>
      <trkpt lat="45.79128" lon="6.65712">
        <ele>1964</ele>
        <time>2022-07-24T12:08:27Z</time>
      </trkpt>
      <trkpt lat="45.79129" lon="6.65711">
        <ele>1965</ele>
        <time>2022-07-24T12:08:28Z</time>
      </trkpt>
      <trkpt lat="45.7913" lon="6.65711">
        <ele>1965</ele>
        <time>2022-07-24T12:08:29Z</time>
      </trkpt>
      <trkpt lat="45.7913" lon="6.65711">
        <ele>1965</ele>
        <time>2022-07-24T12:08:30Z</time>
      </trkpt>
      <trkpt lat="45.79131" lon="6.65711">
        <ele>1965</ele>
        <time>2022-07-24T12:08:31Z</time>
      </trkpt>
      <trkpt lat="45.79132" lon="6.65711">
        <ele>1965</ele>
        <time>2022-07-24T12:08:32Z</time>
      </trkpt>
      <trkpt lat="45.79133" lon="6.65712">
        <ele>1966</ele>
        <time>2022-07-24T12:08:33Z</time>
      </trkpt>
      <trkpt lat="45.79134" lon="6.65712">
        <ele>1966</ele>
        <time>2022-07-24T12:08:34Z</time>
      </trkpt>
      <trkpt lat="45.79134" lon="6.65712">
        <ele>1966</ele>
        <time>2022-07-24T12:08:35Z</time>
      </trkpt>
      <trkpt lat="45.79135" lon="6.65712">
        <ele>1966</ele>
        <time>2022-07-24T12:08:36Z</time>
      </trkpt>
      <trkpt lat="45.79136" lon="6.65713">
        <ele>1966</ele>
        <time>2022-07-24T12:08:37Z</time>
      </trkpt>
      <trkpt lat="45.79137" lon="6.65713">
        <ele>1967</ele>
        <time>2022-07-24T12:08:38Z</time>
      </trkpt>
      <trkpt lat="45.79137" lon="6.65713">
        <ele>1967</ele>
        <time>2022-07-24T12:08:39Z</time>
      </trkpt>
      <trkpt lat="45.79138" lon="6.65714">
        <ele>1967</ele>
        <time>2022-07-24T12:08:40Z</time>
      </trkpt>
      <trkpt lat="45.79139" lon="6.65714">
        <ele>1967</ele>
        <time>2022-07-24T12:08:41Z</time>
      </trkpt>
      <trkpt lat="45.7914" lon="6.65714">
        <ele>1967</ele>
        <time>2022-07-24T12:08:42Z</time>
      </trkpt>
      <trkpt lat="45.7914" lon="6.65715">
        <ele>1968</ele>
        <time>2022-07-24T12:08:43Z</time>
      </trkpt>
      <trkpt lat="45.79141" lon="6.65715">
        <ele>1968</ele>
        <time>2022-07-24T12:08:44Z</time>
      </trkpt>
      <trkpt lat="45.79142" lon="6.65716">
        <ele>1968</ele>
        <time>2022-07-24T12:08:45Z</time>
      </trkpt>
      <trkpt lat="45.79143" lon="6.65716">
        <ele>1968</ele>
        <time>2022-07-24T12:08:46Z</time>
      </trkpt>
      <trkpt lat="45.79144" lon="6.65717">
        <ele>1968</ele>
        <time>2022-07-24T12:08:47Z</time>
      </trkpt>
      <trkpt lat="45.79144" lon="6.65717">
        <ele>1968</ele>
        <time>2022-07-24T12:08:48Z</time>
      </trkpt>
      <trkpt lat="45.79145" lon="6.65718">
        <ele>1968</ele>
        <time>2022-07-24T12:08:49Z</time>
      </trkpt>
      <trkpt lat="45.79146" lon="6.65718">
        <ele>1968</ele>
        <time>2022-07-24T12:08:50Z</time>
      </trkpt>
      <trkpt lat="45.79147" lon="6.65719">
        <ele>1969</ele>
        <time>2022-07-24T12:08:56Z</time>
      </trkpt>
      <trkpt lat="45.79147" lon="6.65719">
        <ele>1969</ele>
        <time>2022-07-24T12:08:57Z</time>
      </trkpt>
      <trkpt lat="45.79148" lon="6.6572">
        <ele>1970</ele>
        <time>2022-07-24T12:08:58Z</time>
      </trkpt>
      <trkpt lat="45.79149" lon="6.6572">
        <ele>1970</ele>
        <time>2022-07-24T12:08:59Z</time>
      </trkpt>
      <trkpt lat="45.79149" lon="6.65721">
        <ele>1970</ele>
        <time>2022-07-24T12:09:00Z</time>
      </trkpt>
      <trkpt lat="45.7915" lon="6.65721">
        <ele>1970</ele>
        <time>2022-07-24T12:09:01Z</time>
      </trkpt>
      <trkpt lat="45.7915" lon="6.65721">
        <ele>1970</ele>
        <time>2022-07-24T12:09:02Z</time>
      </trkpt>
      <trkpt lat="45.79151" lon="6.65722">
        <ele>1970</ele>
        <time>2022-07-24T12:09:03Z</time>
      </trkpt>
      <trkpt lat="45.79152" lon="6.65722">
        <ele>1970</ele>
        <time>2022-07-24T12:09:04Z</time>
      </trkpt>
      <trkpt lat="45.79152" lon="6.65722">
        <ele>1970</ele>
        <time>2022-07-24T12:09:05Z</time>
      </trkpt>
      <trkpt lat="45.79153" lon="6.65723">
        <ele>1970</ele>
        <time>2022-07-24T12:09:06Z</time>
      </trkpt>
      <trkpt lat="45.79154" lon="6.65723">
        <ele>1970</ele>
        <time>2022-07-24T12:09:07Z</time>
      </trkpt>
      <trkpt lat="45.79154" lon="6.65723">
        <ele>1971</ele>
        <time>2022-07-24T12:09:08Z</time>
      </trkpt>
      <trkpt lat="45.79155" lon="6.65723">
        <ele>1971</ele>
        <time>2022-07-24T12:09:09Z</time>
      </trkpt>
      <trkpt lat="45.79156" lon="6.65723">
        <ele>1971</ele>
        <time>2022-07-24T12:09:10Z</time>
      </trkpt>
      <trkpt lat="45.79156" lon="6.65723">
        <ele>1971</ele>
        <time>2022-07-24T12:09:11Z</time>
      </trkpt>
      <trkpt lat="45.79157" lon="6.65724">
        <ele>1971</ele>
        <time>2022-07-24T12:09:12Z</time>
      </trkpt>
      <trkpt lat="45.79157" lon="6.65724">
        <ele>1972</ele>
        <time>2022-07-24T12:09:13Z</time>
      </trkpt>
      <trkpt lat="45.79158" lon="6.65724">
        <ele>1972</ele>
        <time>2022-07-24T12:09:14Z</time>
      </trkpt>
      <trkpt lat="45.79159" lon="6.65724">
        <ele>1972</ele>
        <time>2022-07-24T12:09:15Z</time>
      </trkpt>
      <trkpt lat="45.79159" lon="6.65724">
        <ele>1972</ele>
        <time>2022-07-24T12:09:16Z</time>
      </trkpt>
      <trkpt lat="45.7916" lon="6.65724">
        <ele>1972</ele>
        <time>2022-07-24T12:09:17Z</time>
      </trkpt>
      <trkpt lat="45.79161" lon="6.65724">
        <ele>1972</ele>
        <time>2022-07-24T12:09:18Z</time>
      </trkpt>
      <trkpt lat="45.79162" lon="6.65724">
        <ele>1973</ele>
        <time>2022-07-24T12:09:26Z</time>
      </trkpt>
      <trkpt lat="45.79162" lon="6.65724">
        <ele>1973</ele>
        <time>2022-07-24T12:09:27Z</time>
      </trkpt>
      <trkpt lat="45.79163" lon="6.65724">
        <ele>1974</ele>
        <time>2022-07-24T12:09:28Z</time>
      </trkpt>
      <trkpt lat="45.79163" lon="6.65723">
        <ele>1974</ele>
        <time>2022-07-24T12:09:29Z</time>
      </trkpt>
      <trkpt lat="45.79164" lon="6.65723">
        <ele>1974</ele>
        <time>2022-07-24T12:09:30Z</time>
      </trkpt>
      <trkpt lat="45.79165" lon="6.65722">
        <ele>1974</ele>
        <time>2022-07-24T12:09:31Z</time>
      </trkpt>
      <trkpt lat="45.79165" lon="6.65722">
        <ele>1974</ele>
        <time>2022-07-24T12:09:32Z</time>
      </trkpt>
      <trkpt lat="45.79166" lon="6.65722">
        <ele>1974</ele>
        <time>2022-07-24T12:09:33Z</time>
      </trkpt>
      <trkpt lat="45.79167" lon="6.65721">
        <ele>1974</ele>
        <time>2022-07-24T12:09:34Z</time>
      </trkpt>
      <trkpt lat="45.79167" lon="6.65721">
        <ele>1974</ele>
        <time>2022-07-24T12:09:35Z</time>
      </trkpt>
      <trkpt lat="45.79168" lon="6.65721">
        <ele>1974</ele>
        <time>2022-07-24T12:09:36Z</time>
      </trkpt>
      <trkpt lat="45.7917" lon="6.6572">
        <ele>1978</ele>
        <time>2022-07-24T12:11:11Z</time>
      </trkpt>
      <trkpt lat="45.79171" lon="6.6572">
        <ele>1978</ele>
        <time>2022-07-24T12:11:12Z</time>
      </trkpt>
      <trkpt lat="45.79172" lon="6.6572">
        <ele>1978</ele>
        <time>2022-07-24T12:11:13Z</time>
      </trkpt>
      <trkpt lat="45.79172" lon="6.6572">
        <ele>1978</ele>
        <time>2022-07-24T12:11:14Z</time>
      </trkpt>
      <trkpt lat="45.79173" lon="6.65719">
        <ele>1978</ele>
        <time>2022-07-24T12:11:15Z</time>
      </trkpt>
      <trkpt lat="45.79174" lon="6.65719">
        <ele>1978</ele>
        <time>2022-07-24T12:11:16Z</time>
      </trkpt>
      <trkpt lat="45.79175" lon="6.65719">
        <ele>1978</ele>
        <time>2022-07-24T12:11:17Z</time>
      </trkpt>
      <trkpt lat="45.79175" lon="6.65719">
        <ele>1978</ele>
        <time>2022-07-24T12:11:18Z</time>
      </trkpt>
      <trkpt lat="45.79176" lon="6.65719">
        <ele>1978</ele>
        <time>2022-07-24T12:11:19Z</time>
      </trkpt>
      <trkpt lat="45.79177" lon="6.65719">
        <ele>1978</ele>
        <time>2022-07-24T12:11:20Z</time>
      </trkpt>
      <trkpt lat="45.79178" lon="6.65719">
        <ele>1978</ele>
        <time>2022-07-24T12:11:21Z</time>
      </trkpt>
      <trkpt lat="45.79179" lon="6.65719">
        <ele>1978</ele>
        <time>2022-07-24T12:11:22Z</time>
      </trkpt>
      <trkpt lat="45.7918" lon="6.65719">
        <ele>1979</ele>
        <time>2022-07-24T12:11:23Z</time>
      </trkpt>
      <trkpt lat="45.79181" lon="6.65719">
        <ele>1979</ele>
        <time>2022-07-24T12:11:24Z</time>
      </trkpt>
      <trkpt lat="45.79182" lon="6.65718">
        <ele>1979</ele>
        <time>2022-07-24T12:11:25Z</time>
      </trkpt>
      <trkpt lat="45.79182" lon="6.65718">
        <ele>1979</ele>
        <time>2022-07-24T12:11:26Z</time>
      </trkpt>
      <trkpt lat="45.79183" lon="6.65718">
        <ele>1979</ele>
        <time>2022-07-24T12:11:27Z</time>
      </trkpt>
      <trkpt lat="45.79184" lon="6.65718">
        <ele>1979</ele>
        <time>2022-07-24T12:11:28Z</time>
      </trkpt>
      <trkpt lat="45.79184" lon="6.65718">
        <ele>1979</ele>
        <time>2022-07-24T12:11:29Z</time>
      </trkpt>
      <trkpt lat="45.79186" lon="6.65718">
        <ele>1982</ele>
        <time>2022-07-24T12:11:55Z</time>
      </trkpt>
      <trkpt lat="45.79186" lon="6.65718">
        <ele>1982</ele>
        <time>2022-07-24T12:11:56Z</time>
      </trkpt>
      <trkpt lat="45.79187" lon="6.65717">
        <ele>1982</ele>
        <time>2022-07-24T12:11:57Z</time>
      </trkpt>
      <trkpt lat="45.79188" lon="6.65717">
        <ele>1982</ele>
        <time>2022-07-24T12:11:58Z</time>
      </trkpt>
      <trkpt lat="45.79189" lon="6.65717">
        <ele>1982</ele>
        <time>2022-07-24T12:11:59Z</time>
      </trkpt>
      <trkpt lat="45.79189" lon="6.65716">
        <ele>1982</ele>
        <time>2022-07-24T12:12:00Z</time>
      </trkpt>
      <trkpt lat="45.7919" lon="6.65716">
        <ele>1982</ele>
        <time>2022-07-24T12:12:01Z</time>
      </trkpt>
      <trkpt lat="45.79191" lon="6.65716">
        <ele>1982</ele>
        <time>2022-07-24T12:12:02Z</time>
      </trkpt>
      <trkpt lat="45.79192" lon="6.65716">
        <ele>1982</ele>
        <time>2022-07-24T12:12:03Z</time>
      </trkpt>
      <trkpt lat="45.79192" lon="6.65716">
        <ele>1982</ele>
        <time>2022-07-24T12:12:04Z</time>
      </trkpt>
      <trkpt lat="45.79193" lon="6.65715">
        <ele>1982</ele>
        <time>2022-07-24T12:12:05Z</time>
      </trkpt>
      <trkpt lat="45.79194" lon="6.65715">
        <ele>1982</ele>
        <time>2022-07-24T12:12:06Z</time>
      </trkpt>
      <trkpt lat="45.79194" lon="6.65715">
        <ele>1982</ele>
        <time>2022-07-24T12:12:07Z</time>
      </trkpt>
      <trkpt lat="45.79195" lon="6.65714">
        <ele>1982</ele>
        <time>2022-07-24T12:12:08Z</time>
      </trkpt>
      <trkpt lat="45.79195" lon="6.65714">
        <ele>1982</ele>
        <time>2022-07-24T12:12:09Z</time>
      </trkpt>
      <trkpt lat="45.79195" lon="6.65714">
        <ele>1982</ele>
        <time>2022-07-24T12:12:10Z</time>
      </trkpt>
      <trkpt lat="45.79196" lon="6.65714">
        <ele>1982</ele>
        <time>2022-07-24T12:12:11Z</time>
      </trkpt>
      <trkpt lat="45.79196" lon="6.65714">
        <ele>1982</ele>
        <time>2022-07-24T12:12:12Z</time>
      </trkpt>
      <trkpt lat="45.79197" lon="6.65713">
        <ele>1983</ele>
        <time>2022-07-24T12:12:13Z</time>
      </trkpt>
      <trkpt lat="45.79197" lon="6.65713">
        <ele>1983</ele>
        <time>2022-07-24T12:12:14Z</time>
      </trkpt>
      <trkpt lat="45.79198" lon="6.65713">
        <ele>1983</ele>
        <time>2022-07-24T12:12:15Z</time>
      </trkpt>
      <trkpt lat="45.79198" lon="6.65712">
        <ele>1983</ele>
        <time>2022-07-24T12:12:16Z</time>
      </trkpt>
      <trkpt lat="45.79199" lon="6.65712">
        <ele>1983</ele>
        <time>2022-07-24T12:12:17Z</time>
      </trkpt>
      <trkpt lat="45.792" lon="6.65711">
        <ele>1983</ele>
        <time>2022-07-24T12:12:18Z</time>
      </trkpt>
      <trkpt lat="45.792" lon="6.65711">
        <ele>1983</ele>
        <time>2022-07-24T12:12:19Z</time>
      </trkpt>
      <trkpt lat="45.79201" lon="6.6571">
        <ele>1983</ele>
        <time>2022-07-24T12:12:20Z</time>
      </trkpt>
      <trkpt lat="45.79201" lon="6.65709">
        <ele>1983</ele>
        <time>2022-07-24T12:12:21Z</time>
      </trkpt>
      <trkpt lat="45.79202" lon="6.65709">
        <ele>1983</ele>
        <time>2022-07-24T12:12:22Z</time>
      </trkpt>
      <trkpt lat="45.79202" lon="6.65708">
        <ele>1984</ele>
        <time>2022-07-24T12:12:23Z</time>
      </trkpt>
      <trkpt lat="45.79203" lon="6.65707">
        <ele>1984</ele>
        <time>2022-07-24T12:12:24Z</time>
      </trkpt>
      <trkpt lat="45.79203" lon="6.65707">
        <ele>1984</ele>
        <time>2022-07-24T12:12:25Z</time>
      </trkpt>
      <trkpt lat="45.79203" lon="6.65706">
        <ele>1984</ele>
        <time>2022-07-24T12:12:26Z</time>
      </trkpt>
      <trkpt lat="45.79204" lon="6.65706">
        <ele>1984</ele>
        <time>2022-07-24T12:12:27Z</time>
      </trkpt>
      <trkpt lat="45.79204" lon="6.65705">
        <ele>1984</ele>
        <time>2022-07-24T12:12:28Z</time>
      </trkpt>
      <trkpt lat="45.79205" lon="6.65705">
        <ele>1984</ele>
        <time>2022-07-24T12:12:29Z</time>
      </trkpt>
      <trkpt lat="45.79205" lon="6.65704">
        <ele>1984</ele>
        <time>2022-07-24T12:12:30Z</time>
      </trkpt>
      <trkpt lat="45.79206" lon="6.65704">
        <ele>1984</ele>
        <time>2022-07-24T12:12:31Z</time>
      </trkpt>
      <trkpt lat="45.79206" lon="6.65703">
        <ele>1984</ele>
        <time>2022-07-24T12:12:32Z</time>
      </trkpt>
      <trkpt lat="45.79207" lon="6.65703">
        <ele>1985</ele>
        <time>2022-07-24T12:12:33Z</time>
      </trkpt>
      <trkpt lat="45.79207" lon="6.65703">
        <ele>1985</ele>
        <time>2022-07-24T12:12:34Z</time>
      </trkpt>
      <trkpt lat="45.79208" lon="6.65703">
        <ele>1985</ele>
        <time>2022-07-24T12:12:35Z</time>
      </trkpt>
      <trkpt lat="45.79209" lon="6.65703">
        <ele>1985</ele>
        <time>2022-07-24T12:12:36Z</time>
      </trkpt>
      <trkpt lat="45.79209" lon="6.65703">
        <ele>1985</ele>
        <time>2022-07-24T12:12:37Z</time>
      </trkpt>
      <trkpt lat="45.7921" lon="6.65704">
        <ele>1988</ele>
        <time>2022-07-24T12:13:44Z</time>
      </trkpt>
      <trkpt lat="45.79211" lon="6.65705">
        <ele>1988</ele>
        <time>2022-07-24T12:13:45Z</time>
      </trkpt>
      <trkpt lat="45.79211" lon="6.65706">
        <ele>1988</ele>
        <time>2022-07-24T12:13:46Z</time>
      </trkpt>
      <trkpt lat="45.79211" lon="6.65707">
        <ele>1988</ele>
        <time>2022-07-24T12:13:47Z</time>
      </trkpt>
      <trkpt lat="45.79211" lon="6.65708">
        <ele>1988</ele>
        <time>2022-07-24T12:13:48Z</time>
      </trkpt>
      <trkpt lat="45.79211" lon="6.65709">
        <ele>1987</ele>
        <time>2022-07-24T12:13:49Z</time>
      </trkpt>
      <trkpt lat="45.79211" lon="6.6571">
        <ele>1987</ele>
        <time>2022-07-24T12:13:50Z</time>
      </trkpt>
      <trkpt lat="45.7921" lon="6.65711">
        <ele>1987</ele>
        <time>2022-07-24T12:13:51Z</time>
      </trkpt>
      <trkpt lat="45.7921" lon="6.65711">
        <ele>1987</ele>
        <time>2022-07-24T12:13:52Z</time>
      </trkpt>
      <trkpt lat="45.79209" lon="6.65712">
        <ele>1987</ele>
        <time>2022-07-24T12:13:53Z</time>
      </trkpt>
      <trkpt lat="45.79209" lon="6.65713">
        <ele>1987</ele>
        <time>2022-07-24T12:13:54Z</time>
      </trkpt>
      <trkpt lat="45.79209" lon="6.65714">
        <ele>1987</ele>
        <time>2022-07-24T12:13:55Z</time>
      </trkpt>
      <trkpt lat="45.79208" lon="6.65715">
        <ele>1987</ele>
        <time>2022-07-24T12:13:56Z</time>
      </trkpt>
      <trkpt lat="45.79208" lon="6.65716">
        <ele>1987</ele>
        <time>2022-07-24T12:13:57Z</time>
      </trkpt>
      <trkpt lat="45.79207" lon="6.65717">
        <ele>1988</ele>
        <time>2022-07-24T12:13:58Z</time>
      </trkpt>
      <trkpt lat="45.79207" lon="6.65718">
        <ele>1988</ele>
        <time>2022-07-24T12:13:59Z</time>
      </trkpt>
      <trkpt lat="45.79207" lon="6.65719">
        <ele>1988</ele>
        <time>2022-07-24T12:14:00Z</time>
      </trkpt>
      <trkpt lat="45.79206" lon="6.65721">
        <ele>1988</ele>
        <time>2022-07-24T12:14:01Z</time>
      </trkpt>
      <trkpt lat="45.79206" lon="6.65722">
        <ele>1988</ele>
        <time>2022-07-24T12:14:02Z</time>
      </trkpt>
      <trkpt lat="45.79205" lon="6.65723">
        <ele>1988</ele>
        <time>2022-07-24T12:14:03Z</time>
      </trkpt>
      <trkpt lat="45.79205" lon="6.65724">
        <ele>1988</ele>
        <time>2022-07-24T12:14:04Z</time>
      </trkpt>
      <trkpt lat="45.79204" lon="6.65726">
        <ele>1988</ele>
        <time>2022-07-24T12:14:05Z</time>
      </trkpt>
      <trkpt lat="45.79204" lon="6.65727">
        <ele>1988</ele>
        <time>2022-07-24T12:14:06Z</time>
      </trkpt>
      <trkpt lat="45.79203" lon="6.65728">
        <ele>1988</ele>
        <time>2022-07-24T12:14:07Z</time>
      </trkpt>
      <trkpt lat="45.79203" lon="6.65729">
        <ele>1989</ele>
        <time>2022-07-24T12:14:08Z</time>
      </trkpt>
      <trkpt lat="45.79203" lon="6.65731">
        <ele>1989</ele>
        <time>2022-07-24T12:14:09Z</time>
      </trkpt>
      <trkpt lat="45.79202" lon="6.65732">
        <ele>1989</ele>
        <time>2022-07-24T12:14:10Z</time>
      </trkpt>
      <trkpt lat="45.79202" lon="6.65733">
        <ele>1989</ele>
        <time>2022-07-24T12:14:11Z</time>
      </trkpt>
      <trkpt lat="45.79202" lon="6.65734">
        <ele>1989</ele>
        <time>2022-07-24T12:14:12Z</time>
      </trkpt>
      <trkpt lat="45.79201" lon="6.65735">
        <ele>1989</ele>
        <time>2022-07-24T12:14:13Z</time>
      </trkpt>
      <trkpt lat="45.79201" lon="6.65736">
        <ele>1989</ele>
        <time>2022-07-24T12:14:14Z</time>
      </trkpt>
      <trkpt lat="45.79201" lon="6.65737">
        <ele>1989</ele>
        <time>2022-07-24T12:14:15Z</time>
      </trkpt>
      <trkpt lat="45.79201" lon="6.65738">
        <ele>1989</ele>
        <time>2022-07-24T12:14:16Z</time>
      </trkpt>
      <trkpt lat="45.79201" lon="6.65739">
        <ele>1989</ele>
        <time>2022-07-24T12:14:17Z</time>
      </trkpt>
      <trkpt lat="45.792" lon="6.6574">
        <ele>1989</ele>
        <time>2022-07-24T12:14:18Z</time>
      </trkpt>
      <trkpt lat="45.792" lon="6.65741">
        <ele>1989</ele>
        <time>2022-07-24T12:14:19Z</time>
      </trkpt>
      <trkpt lat="45.792" lon="6.65742">
        <ele>1989</ele>
        <time>2022-07-24T12:14:20Z</time>
      </trkpt>
      <trkpt lat="45.792" lon="6.65743">
        <ele>1989</ele>
        <time>2022-07-24T12:14:21Z</time>
      </trkpt>
      <trkpt lat="45.792" lon="6.65744">
        <ele>1989</ele>
        <time>2022-07-24T12:14:22Z</time>
      </trkpt>
      <trkpt lat="45.792" lon="6.65745">
        <ele>1990</ele>
        <time>2022-07-24T12:14:23Z</time>
      </trkpt>
      <trkpt lat="45.792" lon="6.65746">
        <ele>1990</ele>
        <time>2022-07-24T12:14:24Z</time>
      </trkpt>
      <trkpt lat="45.792" lon="6.65747">
        <ele>1990</ele>
        <time>2022-07-24T12:14:25Z</time>
      </trkpt>
      <trkpt lat="45.792" lon="6.65748">
        <ele>1990</ele>
        <time>2022-07-24T12:14:26Z</time>
      </trkpt>
      <trkpt lat="45.792" lon="6.65748">
        <ele>1990</ele>
        <time>2022-07-24T12:14:27Z</time>
      </trkpt>
      <trkpt lat="45.792" lon="6.65749">
        <ele>1991</ele>
        <time>2022-07-24T12:14:28Z</time>
      </trkpt>
      <trkpt lat="45.792" lon="6.6575">
        <ele>1991</ele>
        <time>2022-07-24T12:14:29Z</time>
      </trkpt>
      <trkpt lat="45.792" lon="6.65751">
        <ele>1991</ele>
        <time>2022-07-24T12:14:30Z</time>
      </trkpt>
      <trkpt lat="45.792" lon="6.65752">
        <ele>1991</ele>
        <time>2022-07-24T12:14:31Z</time>
      </trkpt>
      <trkpt lat="45.792" lon="6.65753">
        <ele>1991</ele>
        <time>2022-07-24T12:14:32Z</time>
      </trkpt>
      <trkpt lat="45.792" lon="6.65754">
        <ele>1991</ele>
        <time>2022-07-24T12:14:33Z</time>
      </trkpt>
      <trkpt lat="45.792" lon="6.65755">
        <ele>1991</ele>
        <time>2022-07-24T12:14:34Z</time>
      </trkpt>
      <trkpt lat="45.792" lon="6.65756">
        <ele>1991</ele>
        <time>2022-07-24T12:14:35Z</time>
      </trkpt>
      <trkpt lat="45.792" lon="6.65757">
        <ele>1991</ele>
        <time>2022-07-24T12:14:36Z</time>
      </trkpt>
      <trkpt lat="45.792" lon="6.65758">
        <ele>1991</ele>
        <time>2022-07-24T12:14:37Z</time>
      </trkpt>
      <trkpt lat="45.792" lon="6.65759">
        <ele>1992</ele>
        <time>2022-07-24T12:14:38Z</time>
      </trkpt>
      <trkpt lat="45.792" lon="6.6576">
        <ele>1992</ele>
        <time>2022-07-24T12:14:39Z</time>
      </trkpt>
      <trkpt lat="45.792" lon="6.65761">
        <ele>1992</ele>
        <time>2022-07-24T12:14:40Z</time>
      </trkpt>
      <trkpt lat="45.792" lon="6.65762">
        <ele>1992</ele>
        <time>2022-07-24T12:14:41Z</time>
      </trkpt>
      <trkpt lat="45.792" lon="6.65763">
        <ele>1992</ele>
        <time>2022-07-24T12:14:42Z</time>
      </trkpt>
      <trkpt lat="45.792" lon="6.65764">
        <ele>1993</ele>
        <time>2022-07-24T12:14:43Z</time>
      </trkpt>
      <trkpt lat="45.792" lon="6.65765">
        <ele>1993</ele>
        <time>2022-07-24T12:14:44Z</time>
      </trkpt>
      <trkpt lat="45.792" lon="6.65766">
        <ele>1993</ele>
        <time>2022-07-24T12:14:45Z</time>
      </trkpt>
      <trkpt lat="45.792" lon="6.65767">
        <ele>1993</ele>
        <time>2022-07-24T12:14:46Z</time>
      </trkpt>
      <trkpt lat="45.792" lon="6.65768">
        <ele>1993</ele>
        <time>2022-07-24T12:14:47Z</time>
      </trkpt>
      <trkpt lat="45.79199" lon="6.65769">
        <ele>1994</ele>
        <time>2022-07-24T12:14:48Z</time>
      </trkpt>
      <trkpt lat="45.79199" lon="6.6577">
        <ele>1994</ele>
        <time>2022-07-24T12:14:49Z</time>
      </trkpt>
      <trkpt lat="45.79199" lon="6.65771">
        <ele>1994</ele>
        <time>2022-07-24T12:14:50Z</time>
      </trkpt>
      <trkpt lat="45.79199" lon="6.65772">
        <ele>1994</ele>
        <time>2022-07-24T12:14:51Z</time>
      </trkpt>
      <trkpt lat="45.79199" lon="6.65774">
        <ele>1995</ele>
        <time>2022-07-24T12:15:00Z</time>
      </trkpt>
      <trkpt lat="45.79198" lon="6.65775">
        <ele>1995</ele>
        <time>2022-07-24T12:15:01Z</time>
      </trkpt>
      <trkpt lat="45.79198" lon="6.65776">
        <ele>1995</ele>
        <time>2022-07-24T12:15:02Z</time>
      </trkpt>
      <trkpt lat="45.79198" lon="6.65777">
        <ele>1995</ele>
        <time>2022-07-24T12:15:03Z</time>
      </trkpt>
      <trkpt lat="45.79198" lon="6.65778">
        <ele>1995</ele>
        <time>2022-07-24T12:15:04Z</time>
      </trkpt>
      <trkpt lat="45.79197" lon="6.65779">
        <ele>1995</ele>
        <time>2022-07-24T12:15:05Z</time>
      </trkpt>
      <trkpt lat="45.79197" lon="6.6578">
        <ele>1995</ele>
        <time>2022-07-24T12:15:06Z</time>
      </trkpt>
      <trkpt lat="45.79197" lon="6.65782">
        <ele>1995</ele>
        <time>2022-07-24T12:15:07Z</time>
      </trkpt>
      <trkpt lat="45.79197" lon="6.65783">
        <ele>1995</ele>
        <time>2022-07-24T12:15:08Z</time>
      </trkpt>
      <trkpt lat="45.79196" lon="6.65784">
        <ele>1995</ele>
        <time>2022-07-24T12:15:09Z</time>
      </trkpt>
      <trkpt lat="45.79196" lon="6.65785">
        <ele>1995</ele>
        <time>2022-07-24T12:15:10Z</time>
      </trkpt>
      <trkpt lat="45.79196" lon="6.65787">
        <ele>1995</ele>
        <time>2022-07-24T12:15:11Z</time>
      </trkpt>
      <trkpt lat="45.79196" lon="6.65788">
        <ele>1995</ele>
        <time>2022-07-24T12:15:12Z</time>
      </trkpt>
      <trkpt lat="45.79196" lon="6.65789">
        <ele>1996</ele>
        <time>2022-07-24T12:15:13Z</time>
      </trkpt>
      <trkpt lat="45.79196" lon="6.6579">
        <ele>1996</ele>
        <time>2022-07-24T12:15:14Z</time>
      </trkpt>
      <trkpt lat="45.79196" lon="6.65791">
        <ele>1996</ele>
        <time>2022-07-24T12:15:15Z</time>
      </trkpt>
      <trkpt lat="45.79196" lon="6.65792">
        <ele>1996</ele>
        <time>2022-07-24T12:15:16Z</time>
      </trkpt>
      <trkpt lat="45.79196" lon="6.65793">
        <ele>1996</ele>
        <time>2022-07-24T12:15:17Z</time>
      </trkpt>
      <trkpt lat="45.79196" lon="6.65794">
        <ele>1996</ele>
        <time>2022-07-24T12:15:18Z</time>
      </trkpt>
      <trkpt lat="45.79196" lon="6.65795">
        <ele>1996</ele>
        <time>2022-07-24T12:15:19Z</time>
      </trkpt>
      <trkpt lat="45.79196" lon="6.65796">
        <ele>1996</ele>
        <time>2022-07-24T12:15:20Z</time>
      </trkpt>
      <trkpt lat="45.79196" lon="6.65797">
        <ele>1996</ele>
        <time>2022-07-24T12:15:21Z</time>
      </trkpt>
      <trkpt lat="45.79195" lon="6.65799">
        <ele>1996</ele>
        <time>2022-07-24T12:15:22Z</time>
      </trkpt>
      <trkpt lat="45.79195" lon="6.658">
        <ele>1997</ele>
        <time>2022-07-24T12:15:23Z</time>
      </trkpt>
      <trkpt lat="45.79195" lon="6.65801">
        <ele>1997</ele>
        <time>2022-07-24T12:15:24Z</time>
      </trkpt>
      <trkpt lat="45.79195" lon="6.65802">
        <ele>1997</ele>
        <time>2022-07-24T12:15:25Z</time>
      </trkpt>
      <trkpt lat="45.79195" lon="6.65804">
        <ele>1997</ele>
        <time>2022-07-24T12:15:26Z</time>
      </trkpt>
      <trkpt lat="45.79194" lon="6.65805">
        <ele>1997</ele>
        <time>2022-07-24T12:15:27Z</time>
      </trkpt>
      <trkpt lat="45.79194" lon="6.65806">
        <ele>1997</ele>
        <time>2022-07-24T12:15:28Z</time>
      </trkpt>
      <trkpt lat="45.79194" lon="6.65807">
        <ele>1997</ele>
        <time>2022-07-24T12:15:29Z</time>
      </trkpt>
      <trkpt lat="45.79194" lon="6.65808">
        <ele>1997</ele>
        <time>2022-07-24T12:15:30Z</time>
      </trkpt>
      <trkpt lat="45.79194" lon="6.65809">
        <ele>1997</ele>
        <time>2022-07-24T12:15:31Z</time>
      </trkpt>
      <trkpt lat="45.79194" lon="6.6581">
        <ele>1997</ele>
        <time>2022-07-24T12:15:32Z</time>
      </trkpt>
      <trkpt lat="45.79194" lon="6.65811">
        <ele>1998</ele>
        <time>2022-07-24T12:15:33Z</time>
      </trkpt>
      <trkpt lat="45.79194" lon="6.65813">
        <ele>1998</ele>
        <time>2022-07-24T12:15:34Z</time>
      </trkpt>
      <trkpt lat="45.79194" lon="6.65814">
        <ele>1998</ele>
        <time>2022-07-24T12:15:35Z</time>
      </trkpt>
      <trkpt lat="45.79194" lon="6.65815">
        <ele>1998</ele>
        <time>2022-07-24T12:15:36Z</time>
      </trkpt>
      <trkpt lat="45.79194" lon="6.65816">
        <ele>1998</ele>
        <time>2022-07-24T12:15:37Z</time>
      </trkpt>
      <trkpt lat="45.79194" lon="6.65817">
        <ele>1998</ele>
        <time>2022-07-24T12:15:38Z</time>
      </trkpt>
      <trkpt lat="45.79194" lon="6.65818">
        <ele>1998</ele>
        <time>2022-07-24T12:15:39Z</time>
      </trkpt>
      <trkpt lat="45.79194" lon="6.65819">
        <ele>1998</ele>
        <time>2022-07-24T12:15:40Z</time>
      </trkpt>
      <trkpt lat="45.79194" lon="6.6582">
        <ele>1998</ele>
        <time>2022-07-24T12:15:41Z</time>
      </trkpt>
      <trkpt lat="45.79194" lon="6.65821">
        <ele>1998</ele>
        <time>2022-07-24T12:15:42Z</time>
      </trkpt>
      <trkpt lat="45.79194" lon="6.65823">
        <ele>1999</ele>
        <time>2022-07-24T12:15:43Z</time>
      </trkpt>
      <trkpt lat="45.79194" lon="6.65824">
        <ele>1999</ele>
        <time>2022-07-24T12:15:44Z</time>
      </trkpt>
      <trkpt lat="45.79194" lon="6.65824">
        <ele>1999</ele>
        <time>2022-07-24T12:15:45Z</time>
      </trkpt>
      <trkpt lat="45.79194" lon="6.65825">
        <ele>1999</ele>
        <time>2022-07-24T12:15:46Z</time>
      </trkpt>
      <trkpt lat="45.79194" lon="6.65826">
        <ele>1999</ele>
        <time>2022-07-24T12:15:47Z</time>
      </trkpt>
      <trkpt lat="45.79194" lon="6.65827">
        <ele>2000</ele>
        <time>2022-07-24T12:15:48Z</time>
      </trkpt>
      <trkpt lat="45.79194" lon="6.65828">
        <ele>2000</ele>
        <time>2022-07-24T12:15:49Z</time>
      </trkpt>
      <trkpt lat="45.79194" lon="6.65829">
        <ele>2000</ele>
        <time>2022-07-24T12:15:50Z</time>
      </trkpt>
      <trkpt lat="45.79194" lon="6.6583">
        <ele>2000</ele>
        <time>2022-07-24T12:15:51Z</time>
      </trkpt>
      <trkpt lat="45.79194" lon="6.65831">
        <ele>2000</ele>
        <time>2022-07-24T12:15:52Z</time>
      </trkpt>
      <trkpt lat="45.79194" lon="6.65832">
        <ele>2001</ele>
        <time>2022-07-24T12:15:53Z</time>
      </trkpt>
      <trkpt lat="45.79194" lon="6.65833">
        <ele>2001</ele>
        <time>2022-07-24T12:15:54Z</time>
      </trkpt>
      <trkpt lat="45.79193" lon="6.65834">
        <ele>2001</ele>
        <time>2022-07-24T12:15:55Z</time>
      </trkpt>
      <trkpt lat="45.79193" lon="6.65835">
        <ele>2001</ele>
        <time>2022-07-24T12:15:56Z</time>
      </trkpt>
      <trkpt lat="45.79193" lon="6.65836">
        <ele>2001</ele>
        <time>2022-07-24T12:15:57Z</time>
      </trkpt>
      <trkpt lat="45.79193" lon="6.65838">
        <ele>2001</ele>
        <time>2022-07-24T12:15:58Z</time>
      </trkpt>
      <trkpt lat="45.79193" lon="6.65839">
        <ele>2001</ele>
        <time>2022-07-24T12:15:59Z</time>
      </trkpt>
      <trkpt lat="45.79193" lon="6.6584">
        <ele>2001</ele>
        <time>2022-07-24T12:16:00Z</time>
      </trkpt>
      <trkpt lat="45.79193" lon="6.65841">
        <ele>2001</ele>
        <time>2022-07-24T12:16:01Z</time>
      </trkpt>
      <trkpt lat="45.79193" lon="6.65843">
        <ele>2001</ele>
        <time>2022-07-24T12:16:02Z</time>
      </trkpt>
      <trkpt lat="45.79193" lon="6.65844">
        <ele>2002</ele>
        <time>2022-07-24T12:16:03Z</time>
      </trkpt>
      <trkpt lat="45.79193" lon="6.65845">
        <ele>2002</ele>
        <time>2022-07-24T12:16:04Z</time>
      </trkpt>
      <trkpt lat="45.79193" lon="6.65846">
        <ele>2002</ele>
        <time>2022-07-24T12:16:05Z</time>
      </trkpt>
      <trkpt lat="45.79193" lon="6.65847">
        <ele>2002</ele>
        <time>2022-07-24T12:16:06Z</time>
      </trkpt>
      <trkpt lat="45.79193" lon="6.65849">
        <ele>2002</ele>
        <time>2022-07-24T12:16:07Z</time>
      </trkpt>
      <trkpt lat="45.79193" lon="6.6585">
        <ele>2002</ele>
        <time>2022-07-24T12:16:08Z</time>
      </trkpt>
      <trkpt lat="45.79193" lon="6.65851">
        <ele>2002</ele>
        <time>2022-07-24T12:16:09Z</time>
      </trkpt>
      <trkpt lat="45.79192" lon="6.65853">
        <ele>2002</ele>
        <time>2022-07-24T12:16:10Z</time>
      </trkpt>
      <trkpt lat="45.79192" lon="6.65854">
        <ele>2002</ele>
        <time>2022-07-24T12:16:11Z</time>
      </trkpt>
      <trkpt lat="45.79192" lon="6.65855">
        <ele>2002</ele>
        <time>2022-07-24T12:16:12Z</time>
      </trkpt>
      <trkpt lat="45.79192" lon="6.65856">
        <ele>2003</ele>
        <time>2022-07-24T12:16:13Z</time>
      </trkpt>
      <trkpt lat="45.79192" lon="6.65857">
        <ele>2003</ele>
        <time>2022-07-24T12:16:14Z</time>
      </trkpt>
      <trkpt lat="45.79191" lon="6.65859">
        <ele>2003</ele>
        <time>2022-07-24T12:16:15Z</time>
      </trkpt>
      <trkpt lat="45.79191" lon="6.6586">
        <ele>2003</ele>
        <time>2022-07-24T12:16:16Z</time>
      </trkpt>
      <trkpt lat="45.79191" lon="6.65861">
        <ele>2003</ele>
        <time>2022-07-24T12:16:17Z</time>
      </trkpt>
      <trkpt lat="45.79191" lon="6.65862">
        <ele>2003</ele>
        <time>2022-07-24T12:16:18Z</time>
      </trkpt>
      <trkpt lat="45.79191" lon="6.65864">
        <ele>2003</ele>
        <time>2022-07-24T12:16:19Z</time>
      </trkpt>
      <trkpt lat="45.79191" lon="6.65865">
        <ele>2003</ele>
        <time>2022-07-24T12:16:20Z</time>
      </trkpt>
      <trkpt lat="45.79192" lon="6.65866">
        <ele>2003</ele>
        <time>2022-07-24T12:16:21Z</time>
      </trkpt>
      <trkpt lat="45.79192" lon="6.65867">
        <ele>2003</ele>
        <time>2022-07-24T12:16:22Z</time>
      </trkpt>
      <trkpt lat="45.79192" lon="6.65868">
        <ele>2004</ele>
        <time>2022-07-24T12:16:23Z</time>
      </trkpt>
      <trkpt lat="45.79192" lon="6.65869">
        <ele>2004</ele>
        <time>2022-07-24T12:16:24Z</time>
      </trkpt>
      <trkpt lat="45.79192" lon="6.6587">
        <ele>2004</ele>
        <time>2022-07-24T12:16:25Z</time>
      </trkpt>
      <trkpt lat="45.79192" lon="6.65871">
        <ele>2004</ele>
        <time>2022-07-24T12:16:26Z</time>
      </trkpt>
      <trkpt lat="45.79193" lon="6.65872">
        <ele>2004</ele>
        <time>2022-07-24T12:16:27Z</time>
      </trkpt>
      <trkpt lat="45.79193" lon="6.65874">
        <ele>2005</ele>
        <time>2022-07-24T12:16:28Z</time>
      </trkpt>
      <trkpt lat="45.79193" lon="6.65874">
        <ele>2005</ele>
        <time>2022-07-24T12:16:29Z</time>
      </trkpt>
      <trkpt lat="45.79193" lon="6.65875">
        <ele>2005</ele>
        <time>2022-07-24T12:16:30Z</time>
      </trkpt>
      <trkpt lat="45.79193" lon="6.65876">
        <ele>2005</ele>
        <time>2022-07-24T12:16:31Z</time>
      </trkpt>
      <trkpt lat="45.79193" lon="6.65877">
        <ele>2005</ele>
        <time>2022-07-24T12:16:32Z</time>
      </trkpt>
      <trkpt lat="45.79193" lon="6.65878">
        <ele>2005</ele>
        <time>2022-07-24T12:16:33Z</time>
      </trkpt>
      <trkpt lat="45.79193" lon="6.65879">
        <ele>2005</ele>
        <time>2022-07-24T12:16:34Z</time>
      </trkpt>
      <trkpt lat="45.79194" lon="6.65879">
        <ele>2005</ele>
        <time>2022-07-24T12:16:35Z</time>
      </trkpt>
      <trkpt lat="45.79194" lon="6.6588">
        <ele>2005</ele>
        <time>2022-07-24T12:16:36Z</time>
      </trkpt>
      <trkpt lat="45.79194" lon="6.65881">
        <ele>2005</ele>
        <time>2022-07-24T12:16:37Z</time>
      </trkpt>
      <trkpt lat="45.79194" lon="6.65882">
        <ele>2006</ele>
        <time>2022-07-24T12:16:38Z</time>
      </trkpt>
      <trkpt lat="45.79195" lon="6.65883">
        <ele>2006</ele>
        <time>2022-07-24T12:16:39Z</time>
      </trkpt>
      <trkpt lat="45.79195" lon="6.65883">
        <ele>2006</ele>
        <time>2022-07-24T12:16:40Z</time>
      </trkpt>
      <trkpt lat="45.79195" lon="6.65884">
        <ele>2007</ele>
        <time>2022-07-24T12:16:41Z</time>
      </trkpt>
      <trkpt lat="45.79196" lon="6.65885">
        <ele>2007</ele>
        <time>2022-07-24T12:16:42Z</time>
      </trkpt>
      <trkpt lat="45.79196" lon="6.65886">
        <ele>2008</ele>
        <time>2022-07-24T12:16:43Z</time>
      </trkpt>
      <trkpt lat="45.79196" lon="6.65888">
        <ele>2008</ele>
        <time>2022-07-24T12:16:44Z</time>
      </trkpt>
      <trkpt lat="45.79196" lon="6.65889">
        <ele>2008</ele>
        <time>2022-07-24T12:16:45Z</time>
      </trkpt>
      <trkpt lat="45.79195" lon="6.6589">
        <ele>2008</ele>
        <time>2022-07-24T12:16:46Z</time>
      </trkpt>
      <trkpt lat="45.79194" lon="6.65892">
        <ele>2008</ele>
        <time>2022-07-24T12:17:12Z</time>
      </trkpt>
      <trkpt lat="45.79194" lon="6.65892">
        <ele>2008</ele>
        <time>2022-07-24T12:17:13Z</time>
      </trkpt>
      <trkpt lat="45.79193" lon="6.65893">
        <ele>2008</ele>
        <time>2022-07-24T12:17:14Z</time>
      </trkpt>
      <trkpt lat="45.79193" lon="6.65893">
        <ele>2008</ele>
        <time>2022-07-24T12:17:15Z</time>
      </trkpt>
      <trkpt lat="45.79192" lon="6.65894">
        <ele>2008</ele>
        <time>2022-07-24T12:17:16Z</time>
      </trkpt>
      <trkpt lat="45.79192" lon="6.65894">
        <ele>2008</ele>
        <time>2022-07-24T12:17:17Z</time>
      </trkpt>
      <trkpt lat="45.79192" lon="6.65894">
        <ele>2009</ele>
        <time>2022-07-24T12:17:18Z</time>
      </trkpt>
      <trkpt lat="45.79192" lon="6.65894">
        <ele>2009</ele>
        <time>2022-07-24T12:17:19Z</time>
      </trkpt>
      <trkpt lat="45.79192" lon="6.65894">
        <ele>2009</ele>
        <time>2022-07-24T12:17:20Z</time>
      </trkpt>
      <trkpt lat="45.79191" lon="6.65895">
        <ele>2009</ele>
        <time>2022-07-24T12:17:21Z</time>
      </trkpt>
      <trkpt lat="45.79191" lon="6.65895">
        <ele>2009</ele>
        <time>2022-07-24T12:17:22Z</time>
      </trkpt>
      <trkpt lat="45.7919" lon="6.65896">
        <ele>2009</ele>
        <time>2022-07-24T12:17:23Z</time>
      </trkpt>
      <trkpt lat="45.7919" lon="6.65897">
        <ele>2009</ele>
        <time>2022-07-24T12:17:24Z</time>
      </trkpt>
      <trkpt lat="45.7919" lon="6.65898">
        <ele>2009</ele>
        <time>2022-07-24T12:17:25Z</time>
      </trkpt>
      <trkpt lat="45.79189" lon="6.65899">
        <ele>2009</ele>
        <time>2022-07-24T12:17:26Z</time>
      </trkpt>
      <trkpt lat="45.79189" lon="6.659">
        <ele>2009</ele>
        <time>2022-07-24T12:17:27Z</time>
      </trkpt>
      <trkpt lat="45.79189" lon="6.65901">
        <ele>2009</ele>
        <time>2022-07-24T12:17:28Z</time>
      </trkpt>
      <trkpt lat="45.79188" lon="6.65902">
        <ele>2009</ele>
        <time>2022-07-24T12:17:29Z</time>
      </trkpt>
      <trkpt lat="45.79188" lon="6.65903">
        <ele>2009</ele>
        <time>2022-07-24T12:17:30Z</time>
      </trkpt>
      <trkpt lat="45.79188" lon="6.65904">
        <ele>2009</ele>
        <time>2022-07-24T12:17:31Z</time>
      </trkpt>
      <trkpt lat="45.79188" lon="6.65905">
        <ele>2009</ele>
        <time>2022-07-24T12:17:32Z</time>
      </trkpt>
      <trkpt lat="45.79187" lon="6.65906">
        <ele>2009</ele>
        <time>2022-07-24T12:17:33Z</time>
      </trkpt>
      <trkpt lat="45.79187" lon="6.65907">
        <ele>2009</ele>
        <time>2022-07-24T12:17:34Z</time>
      </trkpt>
      <trkpt lat="45.79187" lon="6.65908">
        <ele>2009</ele>
        <time>2022-07-24T12:17:35Z</time>
      </trkpt>
      <trkpt lat="45.79187" lon="6.65909">
        <ele>2009</ele>
        <time>2022-07-24T12:17:36Z</time>
      </trkpt>
      <trkpt lat="45.79186" lon="6.6591">
        <ele>2009</ele>
        <time>2022-07-24T12:17:37Z</time>
      </trkpt>
      <trkpt lat="45.79186" lon="6.65911">
        <ele>2009</ele>
        <time>2022-07-24T12:17:38Z</time>
      </trkpt>
      <trkpt lat="45.79186" lon="6.65913">
        <ele>2009</ele>
        <time>2022-07-24T12:17:39Z</time>
      </trkpt>
      <trkpt lat="45.79186" lon="6.65914">
        <ele>2009</ele>
        <time>2022-07-24T12:17:40Z</time>
      </trkpt>
      <trkpt lat="45.79186" lon="6.65915">
        <ele>2009</ele>
        <time>2022-07-24T12:17:41Z</time>
      </trkpt>
      <trkpt lat="45.79186" lon="6.65916">
        <ele>2009</ele>
        <time>2022-07-24T12:17:42Z</time>
      </trkpt>
      <trkpt lat="45.79186" lon="6.65918">
        <ele>2010</ele>
        <time>2022-07-24T12:17:43Z</time>
      </trkpt>
      <trkpt lat="45.79185" lon="6.65919">
        <ele>2010</ele>
        <time>2022-07-24T12:17:44Z</time>
      </trkpt>
      <trkpt lat="45.79185" lon="6.6592">
        <ele>2010</ele>
        <time>2022-07-24T12:17:45Z</time>
      </trkpt>
      <trkpt lat="45.79185" lon="6.65921">
        <ele>2010</ele>
        <time>2022-07-24T12:17:46Z</time>
      </trkpt>
      <trkpt lat="45.79185" lon="6.65922">
        <ele>2010</ele>
        <time>2022-07-24T12:17:47Z</time>
      </trkpt>
      <trkpt lat="45.79185" lon="6.65923">
        <ele>2010</ele>
        <time>2022-07-24T12:17:48Z</time>
      </trkpt>
      <trkpt lat="45.79185" lon="6.65924">
        <ele>2010</ele>
        <time>2022-07-24T12:17:49Z</time>
      </trkpt>
      <trkpt lat="45.79185" lon="6.65925">
        <ele>2010</ele>
        <time>2022-07-24T12:17:50Z</time>
      </trkpt>
      <trkpt lat="45.79185" lon="6.65926">
        <ele>2010</ele>
        <time>2022-07-24T12:17:51Z</time>
      </trkpt>
      <trkpt lat="45.79185" lon="6.65927">
        <ele>2010</ele>
        <time>2022-07-24T12:17:52Z</time>
      </trkpt>
      <trkpt lat="45.79185" lon="6.65927">
        <ele>2011</ele>
        <time>2022-07-24T12:17:53Z</time>
      </trkpt>
      <trkpt lat="45.79185" lon="6.65928">
        <ele>2011</ele>
        <time>2022-07-24T12:17:54Z</time>
      </trkpt>
      <trkpt lat="45.79185" lon="6.65929">
        <ele>2011</ele>
        <time>2022-07-24T12:17:55Z</time>
      </trkpt>
      <trkpt lat="45.79185" lon="6.6593">
        <ele>2011</ele>
        <time>2022-07-24T12:17:56Z</time>
      </trkpt>
      <trkpt lat="45.79185" lon="6.65931">
        <ele>2011</ele>
        <time>2022-07-24T12:17:57Z</time>
      </trkpt>
      <trkpt lat="45.79185" lon="6.65932">
        <ele>2012</ele>
        <time>2022-07-24T12:17:58Z</time>
      </trkpt>
      <trkpt lat="45.79185" lon="6.65932">
        <ele>2012</ele>
        <time>2022-07-24T12:17:59Z</time>
      </trkpt>
      <trkpt lat="45.79186" lon="6.65934">
        <ele>2013</ele>
        <time>2022-07-24T12:18:09Z</time>
      </trkpt>
      <trkpt lat="45.79186" lon="6.65935">
        <ele>2013</ele>
        <time>2022-07-24T12:18:10Z</time>
      </trkpt>
      <trkpt lat="45.79187" lon="6.65937">
        <ele>2013</ele>
        <time>2022-07-24T12:18:11Z</time>
      </trkpt>
      <trkpt lat="45.79187" lon="6.65938">
        <ele>2013</ele>
        <time>2022-07-24T12:18:12Z</time>
      </trkpt>
      <trkpt lat="45.79188" lon="6.65939">
        <ele>2014</ele>
        <time>2022-07-24T12:18:13Z</time>
      </trkpt>
      <trkpt lat="45.79188" lon="6.6594">
        <ele>2014</ele>
        <time>2022-07-24T12:18:14Z</time>
      </trkpt>
      <trkpt lat="45.79188" lon="6.65941">
        <ele>2014</ele>
        <time>2022-07-24T12:18:15Z</time>
      </trkpt>
      <trkpt lat="45.79188" lon="6.65943">
        <ele>2014</ele>
        <time>2022-07-24T12:18:16Z</time>
      </trkpt>
      <trkpt lat="45.79189" lon="6.65944">
        <ele>2014</ele>
        <time>2022-07-24T12:18:17Z</time>
      </trkpt>
      <trkpt lat="45.79188" lon="6.65945">
        <ele>2015</ele>
        <time>2022-07-24T12:18:18Z</time>
      </trkpt>
      <trkpt lat="45.79188" lon="6.65947">
        <ele>2015</ele>
        <time>2022-07-24T12:18:19Z</time>
      </trkpt>
      <trkpt lat="45.79188" lon="6.65948">
        <ele>2015</ele>
        <time>2022-07-24T12:18:20Z</time>
      </trkpt>
      <trkpt lat="45.79187" lon="6.65949">
        <ele>2015</ele>
        <time>2022-07-24T12:18:21Z</time>
      </trkpt>
      <trkpt lat="45.79187" lon="6.6595">
        <ele>2015</ele>
        <time>2022-07-24T12:18:22Z</time>
      </trkpt>
      <trkpt lat="45.79187" lon="6.65951">
        <ele>2015</ele>
        <time>2022-07-24T12:18:23Z</time>
      </trkpt>
      <trkpt lat="45.79187" lon="6.65952">
        <ele>2015</ele>
        <time>2022-07-24T12:18:24Z</time>
      </trkpt>
      <trkpt lat="45.79186" lon="6.65953">
        <ele>2015</ele>
        <time>2022-07-24T12:18:25Z</time>
      </trkpt>
      <trkpt lat="45.79186" lon="6.65954">
        <ele>2015</ele>
        <time>2022-07-24T12:18:26Z</time>
      </trkpt>
      <trkpt lat="45.79186" lon="6.65956">
        <ele>2015</ele>
        <time>2022-07-24T12:18:27Z</time>
      </trkpt>
      <trkpt lat="45.79186" lon="6.65957">
        <ele>2015</ele>
        <time>2022-07-24T12:18:28Z</time>
      </trkpt>
      <trkpt lat="45.79186" lon="6.65958">
        <ele>2015</ele>
        <time>2022-07-24T12:18:29Z</time>
      </trkpt>
      <trkpt lat="45.79185" lon="6.65959">
        <ele>2015</ele>
        <time>2022-07-24T12:18:30Z</time>
      </trkpt>
      <trkpt lat="45.79185" lon="6.6596">
        <ele>2015</ele>
        <time>2022-07-24T12:18:31Z</time>
      </trkpt>
      <trkpt lat="45.79185" lon="6.65961">
        <ele>2015</ele>
        <time>2022-07-24T12:18:32Z</time>
      </trkpt>
      <trkpt lat="45.79184" lon="6.65962">
        <ele>2016</ele>
        <time>2022-07-24T12:18:33Z</time>
      </trkpt>
      <trkpt lat="45.79184" lon="6.65963">
        <ele>2016</ele>
        <time>2022-07-24T12:18:34Z</time>
      </trkpt>
      <trkpt lat="45.79184" lon="6.65964">
        <ele>2016</ele>
        <time>2022-07-24T12:18:35Z</time>
      </trkpt>
      <trkpt lat="45.79184" lon="6.65965">
        <ele>2016</ele>
        <time>2022-07-24T12:18:36Z</time>
      </trkpt>
      <trkpt lat="45.79184" lon="6.65965">
        <ele>2016</ele>
        <time>2022-07-24T12:18:37Z</time>
      </trkpt>
      <trkpt lat="45.79184" lon="6.65966">
        <ele>2016</ele>
        <time>2022-07-24T12:18:38Z</time>
      </trkpt>
      <trkpt lat="45.79184" lon="6.65967">
        <ele>2016</ele>
        <time>2022-07-24T12:18:39Z</time>
      </trkpt>
      <trkpt lat="45.79184" lon="6.65968">
        <ele>2016</ele>
        <time>2022-07-24T12:18:40Z</time>
      </trkpt>
      <trkpt lat="45.79184" lon="6.65968">
        <ele>2016</ele>
        <time>2022-07-24T12:18:41Z</time>
      </trkpt>
      <trkpt lat="45.79184" lon="6.65969">
        <ele>2016</ele>
        <time>2022-07-24T12:18:42Z</time>
      </trkpt>
      <trkpt lat="45.79184" lon="6.6597">
        <ele>2017</ele>
        <time>2022-07-24T12:18:43Z</time>
      </trkpt>
      <trkpt lat="45.79184" lon="6.65971">
        <ele>2017</ele>
        <time>2022-07-24T12:18:44Z</time>
      </trkpt>
      <trkpt lat="45.79184" lon="6.65972">
        <ele>2017</ele>
        <time>2022-07-24T12:18:45Z</time>
      </trkpt>
      <trkpt lat="45.79184" lon="6.65974">
        <ele>2017</ele>
        <time>2022-07-24T12:18:46Z</time>
      </trkpt>
      <trkpt lat="45.79184" lon="6.65975">
        <ele>2017</ele>
        <time>2022-07-24T12:18:47Z</time>
      </trkpt>
      <trkpt lat="45.79183" lon="6.65977">
        <ele>2018</ele>
        <time>2022-07-24T12:18:48Z</time>
      </trkpt>
      <trkpt lat="45.79183" lon="6.65978">
        <ele>2018</ele>
        <time>2022-07-24T12:18:49Z</time>
      </trkpt>
      <trkpt lat="45.79183" lon="6.65979">
        <ele>2018</ele>
        <time>2022-07-24T12:18:50Z</time>
      </trkpt>
      <trkpt lat="45.79183" lon="6.65981">
        <ele>2018</ele>
        <time>2022-07-24T12:18:51Z</time>
      </trkpt>
      <trkpt lat="45.79183" lon="6.65982">
        <ele>2018</ele>
        <time>2022-07-24T12:18:52Z</time>
      </trkpt>
      <trkpt lat="45.79183" lon="6.65983">
        <ele>2018</ele>
        <time>2022-07-24T12:18:53Z</time>
      </trkpt>
      <trkpt lat="45.79183" lon="6.65984">
        <ele>2018</ele>
        <time>2022-07-24T12:18:54Z</time>
      </trkpt>
      <trkpt lat="45.79183" lon="6.65985">
        <ele>2018</ele>
        <time>2022-07-24T12:18:55Z</time>
      </trkpt>
      <trkpt lat="45.79183" lon="6.65986">
        <ele>2018</ele>
        <time>2022-07-24T12:18:56Z</time>
      </trkpt>
      <trkpt lat="45.79183" lon="6.65987">
        <ele>2018</ele>
        <time>2022-07-24T12:18:57Z</time>
      </trkpt>
      <trkpt lat="45.79183" lon="6.65988">
        <ele>2018</ele>
        <time>2022-07-24T12:18:58Z</time>
      </trkpt>
      <trkpt lat="45.79183" lon="6.65988">
        <ele>2018</ele>
        <time>2022-07-24T12:18:59Z</time>
      </trkpt>
      <trkpt lat="45.79182" lon="6.65989">
        <ele>2018</ele>
        <time>2022-07-24T12:19:00Z</time>
      </trkpt>
      <trkpt lat="45.79182" lon="6.6599">
        <ele>2018</ele>
        <time>2022-07-24T12:19:01Z</time>
      </trkpt>
      <trkpt lat="45.79182" lon="6.65992">
        <ele>2018</ele>
        <time>2022-07-24T12:19:02Z</time>
      </trkpt>
      <trkpt lat="45.79181" lon="6.65993">
        <ele>2018</ele>
        <time>2022-07-24T12:19:03Z</time>
      </trkpt>
      <trkpt lat="45.79181" lon="6.65994">
        <ele>2018</ele>
        <time>2022-07-24T12:19:04Z</time>
      </trkpt>
      <trkpt lat="45.7918" lon="6.65995">
        <ele>2018</ele>
        <time>2022-07-24T12:19:05Z</time>
      </trkpt>
      <trkpt lat="45.7918" lon="6.65996">
        <ele>2018</ele>
        <time>2022-07-24T12:19:06Z</time>
      </trkpt>
      <trkpt lat="45.7918" lon="6.65997">
        <ele>2018</ele>
        <time>2022-07-24T12:19:07Z</time>
      </trkpt>
      <trkpt lat="45.79179" lon="6.65998">
        <ele>2018</ele>
        <time>2022-07-24T12:19:08Z</time>
      </trkpt>
      <trkpt lat="45.79179" lon="6.65999">
        <ele>2018</ele>
        <time>2022-07-24T12:19:09Z</time>
      </trkpt>
      <trkpt lat="45.79178" lon="6.65999">
        <ele>2018</ele>
        <time>2022-07-24T12:19:10Z</time>
      </trkpt>
      <trkpt lat="45.79178" lon="6.66">
        <ele>2018</ele>
        <time>2022-07-24T12:19:11Z</time>
      </trkpt>
      <trkpt lat="45.79177" lon="6.66001">
        <ele>2018</ele>
        <time>2022-07-24T12:19:12Z</time>
      </trkpt>
      <trkpt lat="45.79176" lon="6.66002">
        <ele>2018</ele>
        <time>2022-07-24T12:19:13Z</time>
      </trkpt>
      <trkpt lat="45.79176" lon="6.66004">
        <ele>2018</ele>
        <time>2022-07-24T12:19:14Z</time>
      </trkpt>
      <trkpt lat="45.79175" lon="6.66005">
        <ele>2018</ele>
        <time>2022-07-24T12:19:15Z</time>
      </trkpt>
      <trkpt lat="45.79175" lon="6.66007">
        <ele>2018</ele>
        <time>2022-07-24T12:19:16Z</time>
      </trkpt>
      <trkpt lat="45.79175" lon="6.66008">
        <ele>2018</ele>
        <time>2022-07-24T12:19:17Z</time>
      </trkpt>
      <trkpt lat="45.79174" lon="6.6601">
        <ele>2018</ele>
        <time>2022-07-24T12:19:18Z</time>
      </trkpt>
      <trkpt lat="45.79174" lon="6.66011">
        <ele>2017</ele>
        <time>2022-07-24T12:19:19Z</time>
      </trkpt>
      <trkpt lat="45.79173" lon="6.66013">
        <ele>2017</ele>
        <time>2022-07-24T12:19:20Z</time>
      </trkpt>
      <trkpt lat="45.79173" lon="6.66015">
        <ele>2017</ele>
        <time>2022-07-24T12:19:21Z</time>
      </trkpt>
      <trkpt lat="45.79172" lon="6.66016">
        <ele>2017</ele>
        <time>2022-07-24T12:19:22Z</time>
      </trkpt>
      <trkpt lat="45.79172" lon="6.66018">
        <ele>2017</ele>
        <time>2022-07-24T12:19:23Z</time>
      </trkpt>
      <trkpt lat="45.79172" lon="6.6602">
        <ele>2017</ele>
        <time>2022-07-24T12:19:24Z</time>
      </trkpt>
      <trkpt lat="45.79172" lon="6.66022">
        <ele>2017</ele>
        <time>2022-07-24T12:19:25Z</time>
      </trkpt>
      <trkpt lat="45.79172" lon="6.66024">
        <ele>2017</ele>
        <time>2022-07-24T12:19:26Z</time>
      </trkpt>
      <trkpt lat="45.79172" lon="6.66025">
        <ele>2017</ele>
        <time>2022-07-24T12:19:27Z</time>
      </trkpt>
      <trkpt lat="45.79172" lon="6.66028">
        <ele>2016</ele>
        <time>2022-07-24T12:19:36Z</time>
      </trkpt>
      <trkpt lat="45.79172" lon="6.6603">
        <ele>2016</ele>
        <time>2022-07-24T12:19:37Z</time>
      </trkpt>
      <trkpt lat="45.79172" lon="6.66031">
        <ele>2016</ele>
        <time>2022-07-24T12:19:38Z</time>
      </trkpt>
      <trkpt lat="45.79172" lon="6.66032">
        <ele>2016</ele>
        <time>2022-07-24T12:19:39Z</time>
      </trkpt>
      <trkpt lat="45.79172" lon="6.66033">
        <ele>2016</ele>
        <time>2022-07-24T12:19:40Z</time>
      </trkpt>
      <trkpt lat="45.79172" lon="6.66034">
        <ele>2016</ele>
        <time>2022-07-24T12:20:01Z</time>
      </trkpt>
      <trkpt lat="45.79172" lon="6.66035">
        <ele>2016</ele>
        <time>2022-07-24T12:20:02Z</time>
      </trkpt>
      <trkpt lat="45.79172" lon="6.66035">
        <ele>2016</ele>
        <time>2022-07-24T12:20:03Z</time>
      </trkpt>
      <trkpt lat="45.79172" lon="6.66036">
        <ele>2016</ele>
        <time>2022-07-24T12:20:04Z</time>
      </trkpt>
      <trkpt lat="45.79171" lon="6.66038">
        <ele>2016</ele>
        <time>2022-07-24T12:20:05Z</time>
      </trkpt>
      <trkpt lat="45.79171" lon="6.66039">
        <ele>2016</ele>
        <time>2022-07-24T12:20:06Z</time>
      </trkpt>
      <trkpt lat="45.79171" lon="6.66041">
        <ele>2016</ele>
        <time>2022-07-24T12:20:07Z</time>
      </trkpt>
      <trkpt lat="45.79171" lon="6.66042">
        <ele>2016</ele>
        <time>2022-07-24T12:20:08Z</time>
      </trkpt>
      <trkpt lat="45.79171" lon="6.66044">
        <ele>2016</ele>
        <time>2022-07-24T12:20:09Z</time>
      </trkpt>
      <trkpt lat="45.79171" lon="6.66046">
        <ele>2016</ele>
        <time>2022-07-24T12:20:10Z</time>
      </trkpt>
      <trkpt lat="45.79171" lon="6.66048">
        <ele>2016</ele>
        <time>2022-07-24T12:20:11Z</time>
      </trkpt>
      <trkpt lat="45.79171" lon="6.66049">
        <ele>2016</ele>
        <time>2022-07-24T12:20:12Z</time>
      </trkpt>
      <trkpt lat="45.79171" lon="6.66051">
        <ele>2016</ele>
        <time>2022-07-24T12:20:13Z</time>
      </trkpt>
      <trkpt lat="45.79171" lon="6.66053">
        <ele>2015</ele>
        <time>2022-07-24T12:20:14Z</time>
      </trkpt>
      <trkpt lat="45.79172" lon="6.66055">
        <ele>2015</ele>
        <time>2022-07-24T12:20:15Z</time>
      </trkpt>
      <trkpt lat="45.79172" lon="6.66056">
        <ele>2015</ele>
        <time>2022-07-24T12:20:16Z</time>
      </trkpt>
      <trkpt lat="45.79172" lon="6.66058">
        <ele>2015</ele>
        <time>2022-07-24T12:20:17Z</time>
      </trkpt>
      <trkpt lat="45.79173" lon="6.6606">
        <ele>2015</ele>
        <time>2022-07-24T12:20:18Z</time>
      </trkpt>
      <trkpt lat="45.79173" lon="6.66062">
        <ele>2015</ele>
        <time>2022-07-24T12:20:19Z</time>
      </trkpt>
      <trkpt lat="45.79173" lon="6.66063">
        <ele>2015</ele>
        <time>2022-07-24T12:20:20Z</time>
      </trkpt>
      <trkpt lat="45.79173" lon="6.66065">
        <ele>2015</ele>
        <time>2022-07-24T12:20:21Z</time>
      </trkpt>
      <trkpt lat="45.79173" lon="6.66066">
        <ele>2015</ele>
        <time>2022-07-24T12:20:22Z</time>
      </trkpt>
      <trkpt lat="45.79173" lon="6.66067">
        <ele>2015</ele>
        <time>2022-07-24T12:20:23Z</time>
      </trkpt>
      <trkpt lat="45.79173" lon="6.66068">
        <ele>2015</ele>
        <time>2022-07-24T12:20:24Z</time>
      </trkpt>
      <trkpt lat="45.79173" lon="6.66069">
        <ele>2015</ele>
        <time>2022-07-24T12:20:25Z</time>
      </trkpt>
      <trkpt lat="45.79173" lon="6.6607">
        <ele>2015</ele>
        <time>2022-07-24T12:20:26Z</time>
      </trkpt>
      <trkpt lat="45.79173" lon="6.66071">
        <ele>2015</ele>
        <time>2022-07-24T12:20:27Z</time>
      </trkpt>
      <trkpt lat="45.79172" lon="6.66072">
        <ele>2016</ele>
        <time>2022-07-24T12:20:28Z</time>
      </trkpt>
      <trkpt lat="45.79172" lon="6.66073">
        <ele>2016</ele>
        <time>2022-07-24T12:20:29Z</time>
      </trkpt>
      <trkpt lat="45.79172" lon="6.66074">
        <ele>2016</ele>
        <time>2022-07-24T12:20:30Z</time>
      </trkpt>
      <trkpt lat="45.79171" lon="6.66075">
        <ele>2016</ele>
        <time>2022-07-24T12:20:31Z</time>
      </trkpt>
      <trkpt lat="45.79171" lon="6.66076">
        <ele>2016</ele>
        <time>2022-07-24T12:20:39Z</time>
      </trkpt>
      <trkpt lat="45.79171" lon="6.66077">
        <ele>2016</ele>
        <time>2022-07-24T12:20:40Z</time>
      </trkpt>
      <trkpt lat="45.79171" lon="6.66077">
        <ele>2016</ele>
        <time>2022-07-24T12:20:41Z</time>
      </trkpt>
      <trkpt lat="45.79171" lon="6.66078">
        <ele>2016</ele>
        <time>2022-07-24T12:20:42Z</time>
      </trkpt>
      <trkpt lat="45.79171" lon="6.6608">
        <ele>2016</ele>
        <time>2022-07-24T12:20:43Z</time>
      </trkpt>
      <trkpt lat="45.79171" lon="6.66081">
        <ele>2016</ele>
        <time>2022-07-24T12:20:44Z</time>
      </trkpt>
      <trkpt lat="45.79171" lon="6.66083">
        <ele>2016</ele>
        <time>2022-07-24T12:20:45Z</time>
      </trkpt>
      <trkpt lat="45.79171" lon="6.66085">
        <ele>2016</ele>
        <time>2022-07-24T12:20:46Z</time>
      </trkpt>
      <trkpt lat="45.79171" lon="6.66087">
        <ele>2016</ele>
        <time>2022-07-24T12:20:47Z</time>
      </trkpt>
      <trkpt lat="45.79171" lon="6.66089">
        <ele>2016</ele>
        <time>2022-07-24T12:20:48Z</time>
      </trkpt>
      <trkpt lat="45.79171" lon="6.66091">
        <ele>2015</ele>
        <time>2022-07-24T12:20:49Z</time>
      </trkpt>
      <trkpt lat="45.79171" lon="6.66093">
        <ele>2015</ele>
        <time>2022-07-24T12:20:50Z</time>
      </trkpt>
      <trkpt lat="45.79171" lon="6.66094">
        <ele>2015</ele>
        <time>2022-07-24T12:20:51Z</time>
      </trkpt>
      <trkpt lat="45.79172" lon="6.66096">
        <ele>2015</ele>
        <time>2022-07-24T12:20:52Z</time>
      </trkpt>
      <trkpt lat="45.79172" lon="6.66098">
        <ele>2015</ele>
        <time>2022-07-24T12:20:53Z</time>
      </trkpt>
      <trkpt lat="45.79172" lon="6.66099">
        <ele>2015</ele>
        <time>2022-07-24T12:20:54Z</time>
      </trkpt>
      <trkpt lat="45.79172" lon="6.66101">
        <ele>2015</ele>
        <time>2022-07-24T12:20:55Z</time>
      </trkpt>
      <trkpt lat="45.79173" lon="6.66102">
        <ele>2015</ele>
        <time>2022-07-24T12:20:56Z</time>
      </trkpt>
      <trkpt lat="45.79173" lon="6.66104">
        <ele>2015</ele>
        <time>2022-07-24T12:20:57Z</time>
      </trkpt>
      <trkpt lat="45.79173" lon="6.66106">
        <ele>2015</ele>
        <time>2022-07-24T12:20:58Z</time>
      </trkpt>
      <trkpt lat="45.79173" lon="6.66107">
        <ele>2015</ele>
        <time>2022-07-24T12:20:59Z</time>
      </trkpt>
      <trkpt lat="45.79173" lon="6.66109">
        <ele>2015</ele>
        <time>2022-07-24T12:21:00Z</time>
      </trkpt>
      <trkpt lat="45.79174" lon="6.6611">
        <ele>2015</ele>
        <time>2022-07-24T12:21:01Z</time>
      </trkpt>
      <trkpt lat="45.79174" lon="6.66112">
        <ele>2015</ele>
        <time>2022-07-24T12:21:02Z</time>
      </trkpt>
      <trkpt lat="45.79174" lon="6.66113">
        <ele>2015</ele>
        <time>2022-07-24T12:21:03Z</time>
      </trkpt>
      <trkpt lat="45.79174" lon="6.66115">
        <ele>2015</ele>
        <time>2022-07-24T12:21:04Z</time>
      </trkpt>
      <trkpt lat="45.79174" lon="6.66116">
        <ele>2015</ele>
        <time>2022-07-24T12:21:05Z</time>
      </trkpt>
      <trkpt lat="45.79174" lon="6.66117">
        <ele>2015</ele>
        <time>2022-07-24T12:21:06Z</time>
      </trkpt>
      <trkpt lat="45.79174" lon="6.66119">
        <ele>2015</ele>
        <time>2022-07-24T12:21:07Z</time>
      </trkpt>
      <trkpt lat="45.79174" lon="6.6612">
        <ele>2015</ele>
        <time>2022-07-24T12:21:08Z</time>
      </trkpt>
      <trkpt lat="45.79174" lon="6.66121">
        <ele>2015</ele>
        <time>2022-07-24T12:21:09Z</time>
      </trkpt>
      <trkpt lat="45.79174" lon="6.66123">
        <ele>2015</ele>
        <time>2022-07-24T12:21:10Z</time>
      </trkpt>
      <trkpt lat="45.79174" lon="6.66124">
        <ele>2015</ele>
        <time>2022-07-24T12:21:11Z</time>
      </trkpt>
      <trkpt lat="45.79174" lon="6.66125">
        <ele>2015</ele>
        <time>2022-07-24T12:21:12Z</time>
      </trkpt>
      <trkpt lat="45.79174" lon="6.66127">
        <ele>2016</ele>
        <time>2022-07-24T12:21:13Z</time>
      </trkpt>
      <trkpt lat="45.79174" lon="6.66128">
        <ele>2016</ele>
        <time>2022-07-24T12:21:14Z</time>
      </trkpt>
      <trkpt lat="45.79175" lon="6.66129">
        <ele>2016</ele>
        <time>2022-07-24T12:21:15Z</time>
      </trkpt>
      <trkpt lat="45.79175" lon="6.66131">
        <ele>2016</ele>
        <time>2022-07-24T12:21:16Z</time>
      </trkpt>
      <trkpt lat="45.79175" lon="6.66132">
        <ele>2016</ele>
        <time>2022-07-24T12:21:17Z</time>
      </trkpt>
      <trkpt lat="45.79175" lon="6.66134">
        <ele>2016</ele>
        <time>2022-07-24T12:21:18Z</time>
      </trkpt>
      <trkpt lat="45.79175" lon="6.66135">
        <ele>2016</ele>
        <time>2022-07-24T12:21:19Z</time>
      </trkpt>
      <trkpt lat="45.79175" lon="6.66137">
        <ele>2016</ele>
        <time>2022-07-24T12:21:20Z</time>
      </trkpt>
      <trkpt lat="45.79175" lon="6.66138">
        <ele>2016</ele>
        <time>2022-07-24T12:21:21Z</time>
      </trkpt>
      <trkpt lat="45.79176" lon="6.6614">
        <ele>2016</ele>
        <time>2022-07-24T12:21:22Z</time>
      </trkpt>
      <trkpt lat="45.79176" lon="6.66141">
        <ele>2016</ele>
        <time>2022-07-24T12:21:23Z</time>
      </trkpt>
      <trkpt lat="45.79176" lon="6.66143">
        <ele>2016</ele>
        <time>2022-07-24T12:21:24Z</time>
      </trkpt>
      <trkpt lat="45.79175" lon="6.66144">
        <ele>2016</ele>
        <time>2022-07-24T12:21:25Z</time>
      </trkpt>
      <trkpt lat="45.79175" lon="6.66146">
        <ele>2016</ele>
        <time>2022-07-24T12:21:26Z</time>
      </trkpt>
      <trkpt lat="45.79175" lon="6.66147">
        <ele>2016</ele>
        <time>2022-07-24T12:21:27Z</time>
      </trkpt>
      <trkpt lat="45.79175" lon="6.66148">
        <ele>2017</ele>
        <time>2022-07-24T12:21:28Z</time>
      </trkpt>
      <trkpt lat="45.79175" lon="6.6615">
        <ele>2017</ele>
        <time>2022-07-24T12:21:29Z</time>
      </trkpt>
      <trkpt lat="45.79175" lon="6.66151">
        <ele>2017</ele>
        <time>2022-07-24T12:21:30Z</time>
      </trkpt>
      <trkpt lat="45.79174" lon="6.66152">
        <ele>2017</ele>
        <time>2022-07-24T12:21:31Z</time>
      </trkpt>
      <trkpt lat="45.79174" lon="6.66154">
        <ele>2017</ele>
        <time>2022-07-24T12:21:32Z</time>
      </trkpt>
      <trkpt lat="45.79174" lon="6.66155">
        <ele>2017</ele>
        <time>2022-07-24T12:21:33Z</time>
      </trkpt>
      <trkpt lat="45.79174" lon="6.66157">
        <ele>2017</ele>
        <time>2022-07-24T12:21:34Z</time>
      </trkpt>
      <trkpt lat="45.79173" lon="6.66158">
        <ele>2017</ele>
        <time>2022-07-24T12:21:35Z</time>
      </trkpt>
      <trkpt lat="45.79173" lon="6.6616">
        <ele>2017</ele>
        <time>2022-07-24T12:21:36Z</time>
      </trkpt>
      <trkpt lat="45.79172" lon="6.66161">
        <ele>2017</ele>
        <time>2022-07-24T12:21:37Z</time>
      </trkpt>
      <trkpt lat="45.79172" lon="6.66162">
        <ele>2017</ele>
        <time>2022-07-24T12:21:38Z</time>
      </trkpt>
      <trkpt lat="45.79171" lon="6.66163">
        <ele>2017</ele>
        <time>2022-07-24T12:21:39Z</time>
      </trkpt>
      <trkpt lat="45.7917" lon="6.66164">
        <ele>2017</ele>
        <time>2022-07-24T12:21:40Z</time>
      </trkpt>
      <trkpt lat="45.79169" lon="6.66165">
        <ele>2017</ele>
        <time>2022-07-24T12:21:41Z</time>
      </trkpt>
      <trkpt lat="45.79169" lon="6.66166">
        <ele>2017</ele>
        <time>2022-07-24T12:21:42Z</time>
      </trkpt>
      <trkpt lat="45.79169" lon="6.66167">
        <ele>2017</ele>
        <time>2022-07-24T12:21:43Z</time>
      </trkpt>
      <trkpt lat="45.79168" lon="6.66169">
        <ele>2017</ele>
        <time>2022-07-24T12:22:01Z</time>
      </trkpt>
      <trkpt lat="45.79168" lon="6.66169">
        <ele>2017</ele>
        <time>2022-07-24T12:22:02Z</time>
      </trkpt>
      <trkpt lat="45.79167" lon="6.6617">
        <ele>2018</ele>
        <time>2022-07-24T12:22:03Z</time>
      </trkpt>
      <trkpt lat="45.79167" lon="6.66171">
        <ele>2018</ele>
        <time>2022-07-24T12:22:04Z</time>
      </trkpt>
      <trkpt lat="45.79167" lon="6.66172">
        <ele>2018</ele>
        <time>2022-07-24T12:22:05Z</time>
      </trkpt>
      <trkpt lat="45.79167" lon="6.66173">
        <ele>2018</ele>
        <time>2022-07-24T12:22:06Z</time>
      </trkpt>
      <trkpt lat="45.79167" lon="6.66174">
        <ele>2018</ele>
        <time>2022-07-24T12:22:07Z</time>
      </trkpt>
      <trkpt lat="45.79166" lon="6.66176">
        <ele>2018</ele>
        <time>2022-07-24T12:22:08Z</time>
      </trkpt>
      <trkpt lat="45.79166" lon="6.66177">
        <ele>2018</ele>
        <time>2022-07-24T12:22:09Z</time>
      </trkpt>
      <trkpt lat="45.79166" lon="6.66179">
        <ele>2018</ele>
        <time>2022-07-24T12:22:10Z</time>
      </trkpt>
      <trkpt lat="45.79166" lon="6.6618">
        <ele>2018</ele>
        <time>2022-07-24T12:22:11Z</time>
      </trkpt>
      <trkpt lat="45.79165" lon="6.66182">
        <ele>2018</ele>
        <time>2022-07-24T12:22:12Z</time>
      </trkpt>
      <trkpt lat="45.79165" lon="6.66183">
        <ele>2018</ele>
        <time>2022-07-24T12:22:13Z</time>
      </trkpt>
      <trkpt lat="45.79164" lon="6.66185">
        <ele>2018</ele>
        <time>2022-07-24T12:22:14Z</time>
      </trkpt>
      <trkpt lat="45.79164" lon="6.66186">
        <ele>2018</ele>
        <time>2022-07-24T12:22:15Z</time>
      </trkpt>
      <trkpt lat="45.79164" lon="6.66187">
        <ele>2018</ele>
        <time>2022-07-24T12:22:16Z</time>
      </trkpt>
      <trkpt lat="45.79163" lon="6.66189">
        <ele>2018</ele>
        <time>2022-07-24T12:22:17Z</time>
      </trkpt>
      <trkpt lat="45.79163" lon="6.6619">
        <ele>2018</ele>
        <time>2022-07-24T12:22:18Z</time>
      </trkpt>
      <trkpt lat="45.79163" lon="6.66191">
        <ele>2018</ele>
        <time>2022-07-24T12:22:19Z</time>
      </trkpt>
      <trkpt lat="45.79162" lon="6.66192">
        <ele>2018</ele>
        <time>2022-07-24T12:22:20Z</time>
      </trkpt>
      <trkpt lat="45.79162" lon="6.66193">
        <ele>2018</ele>
        <time>2022-07-24T12:22:21Z</time>
      </trkpt>
      <trkpt lat="45.79162" lon="6.66194">
        <ele>2018</ele>
        <time>2022-07-24T12:22:22Z</time>
      </trkpt>
      <trkpt lat="45.79161" lon="6.66194">
        <ele>2018</ele>
        <time>2022-07-24T12:22:23Z</time>
      </trkpt>
      <trkpt lat="45.79161" lon="6.66195">
        <ele>2018</ele>
        <time>2022-07-24T12:22:24Z</time>
      </trkpt>
      <trkpt lat="45.7916" lon="6.66196">
        <ele>2018</ele>
        <time>2022-07-24T12:22:25Z</time>
      </trkpt>
      <trkpt lat="45.79159" lon="6.66197">
        <ele>2018</ele>
        <time>2022-07-24T12:22:26Z</time>
      </trkpt>
      <trkpt lat="45.79159" lon="6.66198">
        <ele>2018</ele>
        <time>2022-07-24T12:22:27Z</time>
      </trkpt>
      <trkpt lat="45.79158" lon="6.662">
        <ele>2019</ele>
        <time>2022-07-24T12:22:28Z</time>
      </trkpt>
      <trkpt lat="45.79158" lon="6.66201">
        <ele>2019</ele>
        <time>2022-07-24T12:22:29Z</time>
      </trkpt>
      <trkpt lat="45.79157" lon="6.66202">
        <ele>2019</ele>
        <time>2022-07-24T12:22:30Z</time>
      </trkpt>
      <trkpt lat="45.79157" lon="6.66203">
        <ele>2019</ele>
        <time>2022-07-24T12:22:31Z</time>
      </trkpt>
      <trkpt lat="45.79156" lon="6.66204">
        <ele>2021</ele>
        <time>2022-07-24T12:23:16Z</time>
      </trkpt>
      <trkpt lat="45.79156" lon="6.66205">
        <ele>2021</ele>
        <time>2022-07-24T12:23:17Z</time>
      </trkpt>
      <trkpt lat="45.79155" lon="6.66206">
        <ele>2021</ele>
        <time>2022-07-24T12:23:18Z</time>
      </trkpt>
      <trkpt lat="45.79155" lon="6.66207">
        <ele>2021</ele>
        <time>2022-07-24T12:23:19Z</time>
      </trkpt>
      <trkpt lat="45.79155" lon="6.66208">
        <ele>2021</ele>
        <time>2022-07-24T12:23:20Z</time>
      </trkpt>
      <trkpt lat="45.79155" lon="6.66209">
        <ele>2021</ele>
        <time>2022-07-24T12:23:21Z</time>
      </trkpt>
      <trkpt lat="45.79154" lon="6.6621">
        <ele>2021</ele>
        <time>2022-07-24T12:23:22Z</time>
      </trkpt>
      <trkpt lat="45.79154" lon="6.66212">
        <ele>2021</ele>
        <time>2022-07-24T12:23:23Z</time>
      </trkpt>
      <trkpt lat="45.79154" lon="6.66213">
        <ele>2021</ele>
        <time>2022-07-24T12:23:24Z</time>
      </trkpt>
      <trkpt lat="45.79154" lon="6.66215">
        <ele>2021</ele>
        <time>2022-07-24T12:23:25Z</time>
      </trkpt>
      <trkpt lat="45.79153" lon="6.66216">
        <ele>2021</ele>
        <time>2022-07-24T12:23:26Z</time>
      </trkpt>
      <trkpt lat="45.79153" lon="6.66218">
        <ele>2021</ele>
        <time>2022-07-24T12:23:27Z</time>
      </trkpt>
      <trkpt lat="45.79153" lon="6.66219">
        <ele>2021</ele>
        <time>2022-07-24T12:23:28Z</time>
      </trkpt>
      <trkpt lat="45.79153" lon="6.6622">
        <ele>2021</ele>
        <time>2022-07-24T12:23:29Z</time>
      </trkpt>
      <trkpt lat="45.79152" lon="6.66222">
        <ele>2021</ele>
        <time>2022-07-24T12:23:30Z</time>
      </trkpt>
      <trkpt lat="45.79151" lon="6.66223">
        <ele>2021</ele>
        <time>2022-07-24T12:23:31Z</time>
      </trkpt>
      <trkpt lat="45.79151" lon="6.66224">
        <ele>2021</ele>
        <time>2022-07-24T12:23:32Z</time>
      </trkpt>
      <trkpt lat="45.7915" lon="6.66225">
        <ele>2021</ele>
        <time>2022-07-24T12:23:33Z</time>
      </trkpt>
      <trkpt lat="45.79149" lon="6.66226">
        <ele>2021</ele>
        <time>2022-07-24T12:23:34Z</time>
      </trkpt>
      <trkpt lat="45.79148" lon="6.66227">
        <ele>2021</ele>
        <time>2022-07-24T12:23:35Z</time>
      </trkpt>
      <trkpt lat="45.79147" lon="6.66228">
        <ele>2021</ele>
        <time>2022-07-24T12:23:36Z</time>
      </trkpt>
      <trkpt lat="45.79147" lon="6.66228">
        <ele>2021</ele>
        <time>2022-07-24T12:23:37Z</time>
      </trkpt>
      <trkpt lat="45.79146" lon="6.66229">
        <ele>2021</ele>
        <time>2022-07-24T12:23:38Z</time>
      </trkpt>
      <trkpt lat="45.79146" lon="6.6623">
        <ele>2021</ele>
        <time>2022-07-24T12:23:39Z</time>
      </trkpt>
      <trkpt lat="45.79145" lon="6.66231">
        <ele>2021</ele>
        <time>2022-07-24T12:23:40Z</time>
      </trkpt>
      <trkpt lat="45.79145" lon="6.66232">
        <ele>2021</ele>
        <time>2022-07-24T12:23:41Z</time>
      </trkpt>
      <trkpt lat="45.79145" lon="6.66232">
        <ele>2021</ele>
        <time>2022-07-24T12:23:42Z</time>
      </trkpt>
      <trkpt lat="45.79144" lon="6.66234">
        <ele>2022</ele>
        <time>2022-07-24T12:23:43Z</time>
      </trkpt>
      <trkpt lat="45.79144" lon="6.66235">
        <ele>2022</ele>
        <time>2022-07-24T12:23:44Z</time>
      </trkpt>
      <trkpt lat="45.79143" lon="6.66236">
        <ele>2022</ele>
        <time>2022-07-24T12:23:45Z</time>
      </trkpt>
      <trkpt lat="45.79143" lon="6.66237">
        <ele>2022</ele>
        <time>2022-07-24T12:23:46Z</time>
      </trkpt>
      <trkpt lat="45.79142" lon="6.66238">
        <ele>2022</ele>
        <time>2022-07-24T12:23:47Z</time>
      </trkpt>
      <trkpt lat="45.79142" lon="6.66239">
        <ele>2022</ele>
        <time>2022-07-24T12:23:48Z</time>
      </trkpt>
      <trkpt lat="45.79141" lon="6.6624">
        <ele>2022</ele>
        <time>2022-07-24T12:23:49Z</time>
      </trkpt>
      <trkpt lat="45.7914" lon="6.66242">
        <ele>2022</ele>
        <time>2022-07-24T12:23:50Z</time>
      </trkpt>
      <trkpt lat="45.79139" lon="6.66243">
        <ele>2022</ele>
        <time>2022-07-24T12:23:51Z</time>
      </trkpt>
      <trkpt lat="45.79139" lon="6.66244">
        <ele>2022</ele>
        <time>2022-07-24T12:23:52Z</time>
      </trkpt>
      <trkpt lat="45.79138" lon="6.66246">
        <ele>2022</ele>
        <time>2022-07-24T12:23:53Z</time>
      </trkpt>
      <trkpt lat="45.79137" lon="6.66247">
        <ele>2022</ele>
        <time>2022-07-24T12:23:54Z</time>
      </trkpt>
      <trkpt lat="45.79137" lon="6.66249">
        <ele>2022</ele>
        <time>2022-07-24T12:23:55Z</time>
      </trkpt>
      <trkpt lat="45.79136" lon="6.66251">
        <ele>2022</ele>
        <time>2022-07-24T12:23:56Z</time>
      </trkpt>
      <trkpt lat="45.79135" lon="6.66252">
        <ele>2022</ele>
        <time>2022-07-24T12:23:57Z</time>
      </trkpt>
      <trkpt lat="45.79135" lon="6.66253">
        <ele>2023</ele>
        <time>2022-07-24T12:23:58Z</time>
      </trkpt>
      <trkpt lat="45.79134" lon="6.66255">
        <ele>2023</ele>
        <time>2022-07-24T12:23:59Z</time>
      </trkpt>
      <trkpt lat="45.79133" lon="6.66256">
        <ele>2023</ele>
        <time>2022-07-24T12:24:00Z</time>
      </trkpt>
      <trkpt lat="45.79133" lon="6.66257">
        <ele>2023</ele>
        <time>2022-07-24T12:24:01Z</time>
      </trkpt>
      <trkpt lat="45.79132" lon="6.66258">
        <ele>2023</ele>
        <time>2022-07-24T12:24:02Z</time>
      </trkpt>
      <trkpt lat="45.79131" lon="6.66259">
        <ele>2023</ele>
        <time>2022-07-24T12:24:03Z</time>
      </trkpt>
      <trkpt lat="45.7913" lon="6.6626">
        <ele>2023</ele>
        <time>2022-07-24T12:24:04Z</time>
      </trkpt>
      <trkpt lat="45.7913" lon="6.66261">
        <ele>2023</ele>
        <time>2022-07-24T12:24:05Z</time>
      </trkpt>
      <trkpt lat="45.79129" lon="6.66262">
        <ele>2023</ele>
        <time>2022-07-24T12:24:06Z</time>
      </trkpt>
      <trkpt lat="45.79128" lon="6.66263">
        <ele>2023</ele>
        <time>2022-07-24T12:24:07Z</time>
      </trkpt>
      <trkpt lat="45.79128" lon="6.66264">
        <ele>2024</ele>
        <time>2022-07-24T12:24:08Z</time>
      </trkpt>
      <trkpt lat="45.79127" lon="6.66266">
        <ele>2024</ele>
        <time>2022-07-24T12:24:09Z</time>
      </trkpt>
      <trkpt lat="45.79126" lon="6.66267">
        <ele>2024</ele>
        <time>2022-07-24T12:24:10Z</time>
      </trkpt>
      <trkpt lat="45.79126" lon="6.66269">
        <ele>2024</ele>
        <time>2022-07-24T12:24:11Z</time>
      </trkpt>
      <trkpt lat="45.79125" lon="6.6627">
        <ele>2024</ele>
        <time>2022-07-24T12:24:12Z</time>
      </trkpt>
      <trkpt lat="45.79125" lon="6.66271">
        <ele>2024</ele>
        <time>2022-07-24T12:24:13Z</time>
      </trkpt>
      <trkpt lat="45.79124" lon="6.66273">
        <ele>2024</ele>
        <time>2022-07-24T12:24:14Z</time>
      </trkpt>
      <trkpt lat="45.79124" lon="6.66274">
        <ele>2024</ele>
        <time>2022-07-24T12:24:15Z</time>
      </trkpt>
      <trkpt lat="45.79123" lon="6.66276">
        <ele>2024</ele>
        <time>2022-07-24T12:24:16Z</time>
      </trkpt>
      <trkpt lat="45.79123" lon="6.66277">
        <ele>2024</ele>
        <time>2022-07-24T12:24:17Z</time>
      </trkpt>
      <trkpt lat="45.79122" lon="6.66278">
        <ele>2024</ele>
        <time>2022-07-24T12:24:18Z</time>
      </trkpt>
      <trkpt lat="45.79122" lon="6.66279">
        <ele>2024</ele>
        <time>2022-07-24T12:24:19Z</time>
      </trkpt>
      <trkpt lat="45.79121" lon="6.66281">
        <ele>2024</ele>
        <time>2022-07-24T12:24:20Z</time>
      </trkpt>
      <trkpt lat="45.7912" lon="6.66282">
        <ele>2024</ele>
        <time>2022-07-24T12:24:21Z</time>
      </trkpt>
      <trkpt lat="45.7912" lon="6.66283">
        <ele>2024</ele>
        <time>2022-07-24T12:24:22Z</time>
      </trkpt>
      <trkpt lat="45.79119" lon="6.66284">
        <ele>2024</ele>
        <time>2022-07-24T12:24:23Z</time>
      </trkpt>
      <trkpt lat="45.79118" lon="6.66285">
        <ele>2024</ele>
        <time>2022-07-24T12:24:24Z</time>
      </trkpt>
      <trkpt lat="45.79118" lon="6.66286">
        <ele>2024</ele>
        <time>2022-07-24T12:24:25Z</time>
      </trkpt>
      <trkpt lat="45.79117" lon="6.66287">
        <ele>2024</ele>
        <time>2022-07-24T12:24:26Z</time>
      </trkpt>
      <trkpt lat="45.79116" lon="6.66288">
        <ele>2024</ele>
        <time>2022-07-24T12:24:27Z</time>
      </trkpt>
      <trkpt lat="45.79115" lon="6.66289">
        <ele>2025</ele>
        <time>2022-07-24T12:24:28Z</time>
      </trkpt>
      <trkpt lat="45.79114" lon="6.6629">
        <ele>2025</ele>
        <time>2022-07-24T12:24:29Z</time>
      </trkpt>
      <trkpt lat="45.79114" lon="6.66291">
        <ele>2025</ele>
        <time>2022-07-24T12:24:30Z</time>
      </trkpt>
      <trkpt lat="45.79113" lon="6.66292">
        <ele>2025</ele>
        <time>2022-07-24T12:24:31Z</time>
      </trkpt>
      <trkpt lat="45.79112" lon="6.66293">
        <ele>2025</ele>
        <time>2022-07-24T12:24:32Z</time>
      </trkpt>
      <trkpt lat="45.79111" lon="6.66295">
        <ele>2025</ele>
        <time>2022-07-24T12:24:33Z</time>
      </trkpt>
      <trkpt lat="45.79111" lon="6.66296">
        <ele>2025</ele>
        <time>2022-07-24T12:24:34Z</time>
      </trkpt>
      <trkpt lat="45.7911" lon="6.66297">
        <ele>2025</ele>
        <time>2022-07-24T12:24:35Z</time>
      </trkpt>
      <trkpt lat="45.7911" lon="6.66298">
        <ele>2025</ele>
        <time>2022-07-24T12:24:36Z</time>
      </trkpt>
      <trkpt lat="45.79109" lon="6.663">
        <ele>2025</ele>
        <time>2022-07-24T12:24:37Z</time>
      </trkpt>
      <trkpt lat="45.79109" lon="6.66301">
        <ele>2025</ele>
        <time>2022-07-24T12:24:38Z</time>
      </trkpt>
      <trkpt lat="45.79108" lon="6.66302">
        <ele>2025</ele>
        <time>2022-07-24T12:24:39Z</time>
      </trkpt>
      <trkpt lat="45.79108" lon="6.66304">
        <ele>2025</ele>
        <time>2022-07-24T12:24:40Z</time>
      </trkpt>
      <trkpt lat="45.79107" lon="6.66305">
        <ele>2025</ele>
        <time>2022-07-24T12:24:41Z</time>
      </trkpt>
      <trkpt lat="45.79107" lon="6.66306">
        <ele>2025</ele>
        <time>2022-07-24T12:24:42Z</time>
      </trkpt>
      <trkpt lat="45.79106" lon="6.66308">
        <ele>2025</ele>
        <time>2022-07-24T12:24:43Z</time>
      </trkpt>
      <trkpt lat="45.79106" lon="6.66309">
        <ele>2025</ele>
        <time>2022-07-24T12:24:44Z</time>
      </trkpt>
      <trkpt lat="45.79106" lon="6.6631">
        <ele>2025</ele>
        <time>2022-07-24T12:24:45Z</time>
      </trkpt>
      <trkpt lat="45.79105" lon="6.66312">
        <ele>2025</ele>
        <time>2022-07-24T12:24:46Z</time>
      </trkpt>
      <trkpt lat="45.79105" lon="6.66313">
        <ele>2025</ele>
        <time>2022-07-24T12:24:47Z</time>
      </trkpt>
      <trkpt lat="45.79105" lon="6.66314">
        <ele>2026</ele>
        <time>2022-07-24T12:24:48Z</time>
      </trkpt>
      <trkpt lat="45.79105" lon="6.66315">
        <ele>2026</ele>
        <time>2022-07-24T12:24:49Z</time>
      </trkpt>
      <trkpt lat="45.79105" lon="6.66316">
        <ele>2026</ele>
        <time>2022-07-24T12:24:50Z</time>
      </trkpt>
      <trkpt lat="45.79105" lon="6.66317">
        <ele>2026</ele>
        <time>2022-07-24T12:24:51Z</time>
      </trkpt>
      <trkpt lat="45.79105" lon="6.66318">
        <ele>2026</ele>
        <time>2022-07-24T12:24:52Z</time>
      </trkpt>
      <trkpt lat="45.79105" lon="6.66319">
        <ele>2026</ele>
        <time>2022-07-24T12:25:16Z</time>
      </trkpt>
      <trkpt lat="45.79104" lon="6.6632">
        <ele>2026</ele>
        <time>2022-07-24T12:25:17Z</time>
      </trkpt>
      <trkpt lat="45.79104" lon="6.6632">
        <ele>2027</ele>
        <time>2022-07-24T12:25:18Z</time>
      </trkpt>
      <trkpt lat="45.79104" lon="6.66321">
        <ele>2027</ele>
        <time>2022-07-24T12:25:19Z</time>
      </trkpt>
      <trkpt lat="45.79104" lon="6.66322">
        <ele>2027</ele>
        <time>2022-07-24T12:25:20Z</time>
      </trkpt>
      <trkpt lat="45.79103" lon="6.66323">
        <ele>2027</ele>
        <time>2022-07-24T12:25:21Z</time>
      </trkpt>
      <trkpt lat="45.79103" lon="6.66324">
        <ele>2027</ele>
        <time>2022-07-24T12:25:22Z</time>
      </trkpt>
      <trkpt lat="45.79103" lon="6.66326">
        <ele>2027</ele>
        <time>2022-07-24T12:25:23Z</time>
      </trkpt>
      <trkpt lat="45.79102" lon="6.66327">
        <ele>2027</ele>
        <time>2022-07-24T12:25:24Z</time>
      </trkpt>
      <trkpt lat="45.79102" lon="6.66329">
        <ele>2027</ele>
        <time>2022-07-24T12:25:25Z</time>
      </trkpt>
      <trkpt lat="45.79102" lon="6.66331">
        <ele>2027</ele>
        <time>2022-07-24T12:25:26Z</time>
      </trkpt>
      <trkpt lat="45.79102" lon="6.66332">
        <ele>2027</ele>
        <time>2022-07-24T12:25:27Z</time>
      </trkpt>
      <trkpt lat="45.79102" lon="6.66334">
        <ele>2027</ele>
        <time>2022-07-24T12:25:28Z</time>
      </trkpt>
      <trkpt lat="45.79102" lon="6.66335">
        <ele>2027</ele>
        <time>2022-07-24T12:25:29Z</time>
      </trkpt>
      <trkpt lat="45.79102" lon="6.66337">
        <ele>2027</ele>
        <time>2022-07-24T12:25:30Z</time>
      </trkpt>
      <trkpt lat="45.79102" lon="6.66339">
        <ele>2027</ele>
        <time>2022-07-24T12:25:31Z</time>
      </trkpt>
      <trkpt lat="45.79102" lon="6.6634">
        <ele>2027</ele>
        <time>2022-07-24T12:25:32Z</time>
      </trkpt>
      <trkpt lat="45.79102" lon="6.66342">
        <ele>2027</ele>
        <time>2022-07-24T12:25:33Z</time>
      </trkpt>
      <trkpt lat="45.79102" lon="6.66343">
        <ele>2027</ele>
        <time>2022-07-24T12:25:34Z</time>
      </trkpt>
      <trkpt lat="45.79102" lon="6.66345">
        <ele>2027</ele>
        <time>2022-07-24T12:25:35Z</time>
      </trkpt>
      <trkpt lat="45.79102" lon="6.66346">
        <ele>2027</ele>
        <time>2022-07-24T12:25:36Z</time>
      </trkpt>
      <trkpt lat="45.79102" lon="6.66348">
        <ele>2027</ele>
        <time>2022-07-24T12:25:37Z</time>
      </trkpt>
      <trkpt lat="45.79102" lon="6.6635">
        <ele>2027</ele>
        <time>2022-07-24T12:25:38Z</time>
      </trkpt>
      <trkpt lat="45.79102" lon="6.66351">
        <ele>2027</ele>
        <time>2022-07-24T12:25:39Z</time>
      </trkpt>
      <trkpt lat="45.79101" lon="6.66353">
        <ele>2027</ele>
        <time>2022-07-24T12:25:40Z</time>
      </trkpt>
      <trkpt lat="45.79101" lon="6.66355">
        <ele>2027</ele>
        <time>2022-07-24T12:25:41Z</time>
      </trkpt>
      <trkpt lat="45.79101" lon="6.66356">
        <ele>2027</ele>
        <time>2022-07-24T12:25:42Z</time>
      </trkpt>
      <trkpt lat="45.79101" lon="6.66358">
        <ele>2027</ele>
        <time>2022-07-24T12:25:43Z</time>
      </trkpt>
      <trkpt lat="45.79101" lon="6.66359">
        <ele>2027</ele>
        <time>2022-07-24T12:25:44Z</time>
      </trkpt>
      <trkpt lat="45.79101" lon="6.66361">
        <ele>2027</ele>
        <time>2022-07-24T12:25:45Z</time>
      </trkpt>
      <trkpt lat="45.79101" lon="6.66362">
        <ele>2027</ele>
        <time>2022-07-24T12:25:46Z</time>
      </trkpt>
      <trkpt lat="45.79101" lon="6.66364">
        <ele>2027</ele>
        <time>2022-07-24T12:25:47Z</time>
      </trkpt>
      <trkpt lat="45.79101" lon="6.66365">
        <ele>2027</ele>
        <time>2022-07-24T12:25:48Z</time>
      </trkpt>
      <trkpt lat="45.79101" lon="6.66367">
        <ele>2027</ele>
        <time>2022-07-24T12:25:49Z</time>
      </trkpt>
      <trkpt lat="45.79101" lon="6.66368">
        <ele>2027</ele>
        <time>2022-07-24T12:25:50Z</time>
      </trkpt>
      <trkpt lat="45.79101" lon="6.6637">
        <ele>2027</ele>
        <time>2022-07-24T12:25:51Z</time>
      </trkpt>
      <trkpt lat="45.79101" lon="6.66371">
        <ele>2027</ele>
        <time>2022-07-24T12:25:52Z</time>
      </trkpt>
      <trkpt lat="45.79101" lon="6.66373">
        <ele>2027</ele>
        <time>2022-07-24T12:25:53Z</time>
      </trkpt>
      <trkpt lat="45.79101" lon="6.66374">
        <ele>2027</ele>
        <time>2022-07-24T12:25:54Z</time>
      </trkpt>
      <trkpt lat="45.791" lon="6.66375">
        <ele>2027</ele>
        <time>2022-07-24T12:25:55Z</time>
      </trkpt>
      <trkpt lat="45.791" lon="6.66376">
        <ele>2027</ele>
        <time>2022-07-24T12:25:56Z</time>
      </trkpt>
      <trkpt lat="45.791" lon="6.66378">
        <ele>2027</ele>
        <time>2022-07-24T12:25:57Z</time>
      </trkpt>
      <trkpt lat="45.791" lon="6.66379">
        <ele>2027</ele>
        <time>2022-07-24T12:25:58Z</time>
      </trkpt>
      <trkpt lat="45.791" lon="6.6638">
        <ele>2026</ele>
        <time>2022-07-24T12:25:59Z</time>
      </trkpt>
      <trkpt lat="45.791" lon="6.66381">
        <ele>2026</ele>
        <time>2022-07-24T12:26:00Z</time>
      </trkpt>
      <trkpt lat="45.791" lon="6.66383">
        <ele>2026</ele>
        <time>2022-07-24T12:26:01Z</time>
      </trkpt>
      <trkpt lat="45.791" lon="6.66384">
        <ele>2026</ele>
        <time>2022-07-24T12:26:02Z</time>
      </trkpt>
      <trkpt lat="45.79101" lon="6.66385">
        <ele>2026</ele>
        <time>2022-07-24T12:26:03Z</time>
      </trkpt>
      <trkpt lat="45.79101" lon="6.66386">
        <ele>2026</ele>
        <time>2022-07-24T12:26:04Z</time>
      </trkpt>
      <trkpt lat="45.79101" lon="6.66387">
        <ele>2026</ele>
        <time>2022-07-24T12:26:05Z</time>
      </trkpt>
      <trkpt lat="45.79101" lon="6.66388">
        <ele>2026</ele>
        <time>2022-07-24T12:26:06Z</time>
      </trkpt>
      <trkpt lat="45.79101" lon="6.66389">
        <ele>2026</ele>
        <time>2022-07-24T12:26:07Z</time>
      </trkpt>
      <trkpt lat="45.79101" lon="6.6639">
        <ele>2026</ele>
        <time>2022-07-24T12:26:08Z</time>
      </trkpt>
      <trkpt lat="45.79101" lon="6.66391">
        <ele>2026</ele>
        <time>2022-07-24T12:26:09Z</time>
      </trkpt>
      <trkpt lat="45.79101" lon="6.66392">
        <ele>2026</ele>
        <time>2022-07-24T12:26:10Z</time>
      </trkpt>
      <trkpt lat="45.79101" lon="6.66393">
        <ele>2026</ele>
        <time>2022-07-24T12:26:11Z</time>
      </trkpt>
      <trkpt lat="45.79102" lon="6.66394">
        <ele>2026</ele>
        <time>2022-07-24T12:26:12Z</time>
      </trkpt>
      <trkpt lat="45.79102" lon="6.66396">
        <ele>2026</ele>
        <time>2022-07-24T12:26:13Z</time>
      </trkpt>
      <trkpt lat="45.79102" lon="6.66397">
        <ele>2026</ele>
        <time>2022-07-24T12:26:14Z</time>
      </trkpt>
      <trkpt lat="45.79102" lon="6.66399">
        <ele>2026</ele>
        <time>2022-07-24T12:26:15Z</time>
      </trkpt>
      <trkpt lat="45.79102" lon="6.664">
        <ele>2026</ele>
        <time>2022-07-24T12:26:16Z</time>
      </trkpt>
      <trkpt lat="45.79101" lon="6.66402">
        <ele>2026</ele>
        <time>2022-07-24T12:26:17Z</time>
      </trkpt>
      <trkpt lat="45.79101" lon="6.66403">
        <ele>2026</ele>
        <time>2022-07-24T12:26:18Z</time>
      </trkpt>
      <trkpt lat="45.79101" lon="6.66405">
        <ele>2026</ele>
        <time>2022-07-24T12:26:19Z</time>
      </trkpt>
      <trkpt lat="45.791" lon="6.66406">
        <ele>2026</ele>
        <time>2022-07-24T12:26:20Z</time>
      </trkpt>
      <trkpt lat="45.791" lon="6.66407">
        <ele>2026</ele>
        <time>2022-07-24T12:26:21Z</time>
      </trkpt>
      <trkpt lat="45.791" lon="6.66408">
        <ele>2026</ele>
        <time>2022-07-24T12:26:22Z</time>
      </trkpt>
      <trkpt lat="45.791" lon="6.66408">
        <ele>2026</ele>
        <time>2022-07-24T12:26:23Z</time>
      </trkpt>
      <trkpt lat="45.791" lon="6.66409">
        <ele>2026</ele>
        <time>2022-07-24T12:26:24Z</time>
      </trkpt>
      <trkpt lat="45.791" lon="6.66409">
        <ele>2026</ele>
        <time>2022-07-24T12:26:25Z</time>
      </trkpt>
      <trkpt lat="45.791" lon="6.66409">
        <ele>2026</ele>
        <time>2022-07-24T12:26:26Z</time>
      </trkpt>
      <trkpt lat="45.791" lon="6.66409">
        <ele>2026</ele>
        <time>2022-07-24T12:26:27Z</time>
      </trkpt>
      <trkpt lat="45.791" lon="6.6641">
        <ele>2026</ele>
        <time>2022-07-24T12:26:28Z</time>
      </trkpt>
      <trkpt lat="45.791" lon="6.66411">
        <ele>2026</ele>
        <time>2022-07-24T12:26:29Z</time>
      </trkpt>
      <trkpt lat="45.791" lon="6.66412">
        <ele>2026</ele>
        <time>2022-07-24T12:26:30Z</time>
      </trkpt>
      <trkpt lat="45.791" lon="6.66413">
        <ele>2026</ele>
        <time>2022-07-24T12:26:31Z</time>
      </trkpt>
      <trkpt lat="45.79099" lon="6.66414">
        <ele>2026</ele>
        <time>2022-07-24T12:26:32Z</time>
      </trkpt>
      <trkpt lat="45.79099" lon="6.66416">
        <ele>2027</ele>
        <time>2022-07-24T12:26:33Z</time>
      </trkpt>
      <trkpt lat="45.79099" lon="6.66417">
        <ele>2027</ele>
        <time>2022-07-24T12:26:34Z</time>
      </trkpt>
      <trkpt lat="45.79099" lon="6.66419">
        <ele>2027</ele>
        <time>2022-07-24T12:26:35Z</time>
      </trkpt>
      <trkpt lat="45.79098" lon="6.66421">
        <ele>2027</ele>
        <time>2022-07-24T12:26:36Z</time>
      </trkpt>
      <trkpt lat="45.79098" lon="6.66422">
        <ele>2027</ele>
        <time>2022-07-24T12:26:37Z</time>
      </trkpt>
      <trkpt lat="45.79098" lon="6.66424">
        <ele>2027</ele>
        <time>2022-07-24T12:26:38Z</time>
      </trkpt>
      <trkpt lat="45.79098" lon="6.66425">
        <ele>2027</ele>
        <time>2022-07-24T12:26:39Z</time>
      </trkpt>
      <trkpt lat="45.79097" lon="6.66427">
        <ele>2027</ele>
        <time>2022-07-24T12:26:40Z</time>
      </trkpt>
      <trkpt lat="45.79097" lon="6.66428">
        <ele>2027</ele>
        <time>2022-07-24T12:26:41Z</time>
      </trkpt>
      <trkpt lat="45.79097" lon="6.6643">
        <ele>2027</ele>
        <time>2022-07-24T12:26:49Z</time>
      </trkpt>
      <trkpt lat="45.79097" lon="6.66431">
        <ele>2027</ele>
        <time>2022-07-24T12:26:50Z</time>
      </trkpt>
      <trkpt lat="45.79097" lon="6.66433">
        <ele>2027</ele>
        <time>2022-07-24T12:26:51Z</time>
      </trkpt>
      <trkpt lat="45.79097" lon="6.66434">
        <ele>2027</ele>
        <time>2022-07-24T12:26:52Z</time>
      </trkpt>
      <trkpt lat="45.79097" lon="6.66435">
        <ele>2027</ele>
        <time>2022-07-24T12:26:53Z</time>
      </trkpt>
      <trkpt lat="45.79097" lon="6.66436">
        <ele>2027</ele>
        <time>2022-07-24T12:26:54Z</time>
      </trkpt>
      <trkpt lat="45.79097" lon="6.66438">
        <ele>2027</ele>
        <time>2022-07-24T12:26:55Z</time>
      </trkpt>
      <trkpt lat="45.79097" lon="6.66439">
        <ele>2027</ele>
        <time>2022-07-24T12:26:56Z</time>
      </trkpt>
      <trkpt lat="45.79096" lon="6.6644">
        <ele>2027</ele>
        <time>2022-07-24T12:26:57Z</time>
      </trkpt>
      <trkpt lat="45.79096" lon="6.66442">
        <ele>2028</ele>
        <time>2022-07-24T12:26:58Z</time>
      </trkpt>
      <trkpt lat="45.79096" lon="6.66443">
        <ele>2028</ele>
        <time>2022-07-24T12:26:59Z</time>
      </trkpt>
      <trkpt lat="45.79096" lon="6.66445">
        <ele>2028</ele>
        <time>2022-07-24T12:27:00Z</time>
      </trkpt>
      <trkpt lat="45.79095" lon="6.66446">
        <ele>2028</ele>
        <time>2022-07-24T12:27:01Z</time>
      </trkpt>
      <trkpt lat="45.79095" lon="6.66447">
        <ele>2028</ele>
        <time>2022-07-24T12:27:02Z</time>
      </trkpt>
      <trkpt lat="45.79095" lon="6.66448">
        <ele>2028</ele>
        <time>2022-07-24T12:27:03Z</time>
      </trkpt>
      <trkpt lat="45.79095" lon="6.66449">
        <ele>2028</ele>
        <time>2022-07-24T12:27:04Z</time>
      </trkpt>
      <trkpt lat="45.79094" lon="6.6645">
        <ele>2028</ele>
        <time>2022-07-24T12:27:05Z</time>
      </trkpt>
      <trkpt lat="45.79094" lon="6.66451">
        <ele>2028</ele>
        <time>2022-07-24T12:27:06Z</time>
      </trkpt>
      <trkpt lat="45.79094" lon="6.66452">
        <ele>2028</ele>
        <time>2022-07-24T12:27:07Z</time>
      </trkpt>
      <trkpt lat="45.79094" lon="6.66453">
        <ele>2028</ele>
        <time>2022-07-24T12:27:08Z</time>
      </trkpt>
      <trkpt lat="45.79093" lon="6.66454">
        <ele>2028</ele>
        <time>2022-07-24T12:27:09Z</time>
      </trkpt>
      <trkpt lat="45.79093" lon="6.66455">
        <ele>2028</ele>
        <time>2022-07-24T12:27:10Z</time>
      </trkpt>
      <trkpt lat="45.79093" lon="6.66457">
        <ele>2028</ele>
        <time>2022-07-24T12:27:11Z</time>
      </trkpt>
      <trkpt lat="45.79093" lon="6.66458">
        <ele>2028</ele>
        <time>2022-07-24T12:27:12Z</time>
      </trkpt>
      <trkpt lat="45.79092" lon="6.6646">
        <ele>2028</ele>
        <time>2022-07-24T12:27:13Z</time>
      </trkpt>
      <trkpt lat="45.79092" lon="6.66461">
        <ele>2028</ele>
        <time>2022-07-24T12:27:14Z</time>
      </trkpt>
      <trkpt lat="45.79091" lon="6.66463">
        <ele>2028</ele>
        <time>2022-07-24T12:27:15Z</time>
      </trkpt>
      <trkpt lat="45.79091" lon="6.66464">
        <ele>2028</ele>
        <time>2022-07-24T12:27:16Z</time>
      </trkpt>
      <trkpt lat="45.7909" lon="6.66466">
        <ele>2028</ele>
        <time>2022-07-24T12:27:17Z</time>
      </trkpt>
      <trkpt lat="45.7909" lon="6.66467">
        <ele>2028</ele>
        <time>2022-07-24T12:27:18Z</time>
      </trkpt>
      <trkpt lat="45.79089" lon="6.66468">
        <ele>2028</ele>
        <time>2022-07-24T12:27:19Z</time>
      </trkpt>
      <trkpt lat="45.79089" lon="6.66469">
        <ele>2028</ele>
        <time>2022-07-24T12:27:20Z</time>
      </trkpt>
      <trkpt lat="45.79088" lon="6.6647">
        <ele>2028</ele>
        <time>2022-07-24T12:27:21Z</time>
      </trkpt>
      <trkpt lat="45.79088" lon="6.66471">
        <ele>2028</ele>
        <time>2022-07-24T12:27:22Z</time>
      </trkpt>
      <trkpt lat="45.79087" lon="6.66472">
        <ele>2028</ele>
        <time>2022-07-24T12:27:23Z</time>
      </trkpt>
      <trkpt lat="45.79087" lon="6.66473">
        <ele>2028</ele>
        <time>2022-07-24T12:27:24Z</time>
      </trkpt>
      <trkpt lat="45.79086" lon="6.66475">
        <ele>2028</ele>
        <time>2022-07-24T12:27:25Z</time>
      </trkpt>
      <trkpt lat="45.79086" lon="6.66476">
        <ele>2028</ele>
        <time>2022-07-24T12:27:26Z</time>
      </trkpt>
      <trkpt lat="45.79085" lon="6.66477">
        <ele>2028</ele>
        <time>2022-07-24T12:27:27Z</time>
      </trkpt>
      <trkpt lat="45.79085" lon="6.66479">
        <ele>2028</ele>
        <time>2022-07-24T12:27:28Z</time>
      </trkpt>
      <trkpt lat="45.79084" lon="6.6648">
        <ele>2028</ele>
        <time>2022-07-24T12:27:29Z</time>
      </trkpt>
      <trkpt lat="45.79084" lon="6.66481">
        <ele>2028</ele>
        <time>2022-07-24T12:27:30Z</time>
      </trkpt>
      <trkpt lat="45.79084" lon="6.66483">
        <ele>2028</ele>
        <time>2022-07-24T12:27:31Z</time>
      </trkpt>
      <trkpt lat="45.79083" lon="6.66484">
        <ele>2028</ele>
        <time>2022-07-24T12:27:32Z</time>
      </trkpt>
      <trkpt lat="45.79083" lon="6.66485">
        <ele>2029</ele>
        <time>2022-07-24T12:27:33Z</time>
      </trkpt>
      <trkpt lat="45.79083" lon="6.66487">
        <ele>2029</ele>
        <time>2022-07-24T12:27:34Z</time>
      </trkpt>
      <trkpt lat="45.79082" lon="6.66488">
        <ele>2029</ele>
        <time>2022-07-24T12:27:35Z</time>
      </trkpt>
      <trkpt lat="45.79082" lon="6.6649">
        <ele>2029</ele>
        <time>2022-07-24T12:27:36Z</time>
      </trkpt>
      <trkpt lat="45.79082" lon="6.66491">
        <ele>2029</ele>
        <time>2022-07-24T12:27:37Z</time>
      </trkpt>
      <trkpt lat="45.79082" lon="6.66492">
        <ele>2029</ele>
        <time>2022-07-24T12:27:38Z</time>
      </trkpt>
      <trkpt lat="45.79082" lon="6.66494">
        <ele>2029</ele>
        <time>2022-07-24T12:27:39Z</time>
      </trkpt>
      <trkpt lat="45.79082" lon="6.66495">
        <ele>2029</ele>
        <time>2022-07-24T12:27:40Z</time>
      </trkpt>
      <trkpt lat="45.79082" lon="6.66496">
        <ele>2029</ele>
        <time>2022-07-24T12:27:41Z</time>
      </trkpt>
      <trkpt lat="45.79082" lon="6.66498">
        <ele>2029</ele>
        <time>2022-07-24T12:27:42Z</time>
      </trkpt>
      <trkpt lat="45.79082" lon="6.66499">
        <ele>2030</ele>
        <time>2022-07-24T12:27:43Z</time>
      </trkpt>
      <trkpt lat="45.79082" lon="6.665">
        <ele>2030</ele>
        <time>2022-07-24T12:27:44Z</time>
      </trkpt>
      <trkpt lat="45.79081" lon="6.66502">
        <ele>2030</ele>
        <time>2022-07-24T12:27:45Z</time>
      </trkpt>
      <trkpt lat="45.79081" lon="6.66503">
        <ele>2030</ele>
        <time>2022-07-24T12:27:46Z</time>
      </trkpt>
      <trkpt lat="45.79081" lon="6.66504">
        <ele>2030</ele>
        <time>2022-07-24T12:27:47Z</time>
      </trkpt>
      <trkpt lat="45.79081" lon="6.66505">
        <ele>2030</ele>
        <time>2022-07-24T12:27:48Z</time>
      </trkpt>
      <trkpt lat="45.79081" lon="6.66505">
        <ele>2030</ele>
        <time>2022-07-24T12:27:49Z</time>
      </trkpt>
      <trkpt lat="45.79081" lon="6.66506">
        <ele>2030</ele>
        <time>2022-07-24T12:27:50Z</time>
      </trkpt>
      <trkpt lat="45.79081" lon="6.66507">
        <ele>2030</ele>
        <time>2022-07-24T12:27:51Z</time>
      </trkpt>
      <trkpt lat="45.79081" lon="6.66509">
        <ele>2030</ele>
        <time>2022-07-24T12:27:52Z</time>
      </trkpt>
      <trkpt lat="45.79081" lon="6.6651">
        <ele>2031</ele>
        <time>2022-07-24T12:27:53Z</time>
      </trkpt>
      <trkpt lat="45.79081" lon="6.66511">
        <ele>2031</ele>
        <time>2022-07-24T12:27:54Z</time>
      </trkpt>
      <trkpt lat="45.79081" lon="6.66512">
        <ele>2031</ele>
        <time>2022-07-24T12:27:55Z</time>
      </trkpt>
      <trkpt lat="45.7908" lon="6.66514">
        <ele>2031</ele>
        <time>2022-07-24T12:27:56Z</time>
      </trkpt>
      <trkpt lat="45.7908" lon="6.66515">
        <ele>2031</ele>
        <time>2022-07-24T12:27:57Z</time>
      </trkpt>
      <trkpt lat="45.79079" lon="6.66516">
        <ele>2031</ele>
        <time>2022-07-24T12:27:58Z</time>
      </trkpt>
      <trkpt lat="45.79079" lon="6.66517">
        <ele>2031</ele>
        <time>2022-07-24T12:27:59Z</time>
      </trkpt>
      <trkpt lat="45.79078" lon="6.66518">
        <ele>2031</ele>
        <time>2022-07-24T12:28:00Z</time>
      </trkpt>
      <trkpt lat="45.79077" lon="6.66519">
        <ele>2031</ele>
        <time>2022-07-24T12:28:01Z</time>
      </trkpt>
      <trkpt lat="45.79076" lon="6.6652">
        <ele>2031</ele>
        <time>2022-07-24T12:28:02Z</time>
      </trkpt>
      <trkpt lat="45.79076" lon="6.66521">
        <ele>2031</ele>
        <time>2022-07-24T12:28:03Z</time>
      </trkpt>
      <trkpt lat="45.79075" lon="6.66522">
        <ele>2031</ele>
        <time>2022-07-24T12:28:04Z</time>
      </trkpt>
      <trkpt lat="45.79074" lon="6.66523">
        <ele>2031</ele>
        <time>2022-07-24T12:28:05Z</time>
      </trkpt>
      <trkpt lat="45.79073" lon="6.66524">
        <ele>2031</ele>
        <time>2022-07-24T12:28:06Z</time>
      </trkpt>
      <trkpt lat="45.79072" lon="6.66524">
        <ele>2031</ele>
        <time>2022-07-24T12:28:07Z</time>
      </trkpt>
      <trkpt lat="45.79072" lon="6.66526">
        <ele>2032</ele>
        <time>2022-07-24T12:28:08Z</time>
      </trkpt>
      <trkpt lat="45.79071" lon="6.66527">
        <ele>2032</ele>
        <time>2022-07-24T12:28:09Z</time>
      </trkpt>
      <trkpt lat="45.7907" lon="6.66528">
        <ele>2032</ele>
        <time>2022-07-24T12:28:10Z</time>
      </trkpt>
      <trkpt lat="45.7907" lon="6.6653">
        <ele>2032</ele>
        <time>2022-07-24T12:28:11Z</time>
      </trkpt>
      <trkpt lat="45.79069" lon="6.66531">
        <ele>2032</ele>
        <time>2022-07-24T12:28:12Z</time>
      </trkpt>
      <trkpt lat="45.79068" lon="6.66533">
        <ele>2032</ele>
        <time>2022-07-24T12:28:13Z</time>
      </trkpt>
      <trkpt lat="45.79068" lon="6.66534">
        <ele>2032</ele>
        <time>2022-07-24T12:28:14Z</time>
      </trkpt>
      <trkpt lat="45.79067" lon="6.66536">
        <ele>2032</ele>
        <time>2022-07-24T12:28:15Z</time>
      </trkpt>
      <trkpt lat="45.79066" lon="6.66537">
        <ele>2032</ele>
        <time>2022-07-24T12:28:16Z</time>
      </trkpt>
      <trkpt lat="45.79066" lon="6.66538">
        <ele>2032</ele>
        <time>2022-07-24T12:28:17Z</time>
      </trkpt>
      <trkpt lat="45.79065" lon="6.6654">
        <ele>2032</ele>
        <time>2022-07-24T12:28:18Z</time>
      </trkpt>
      <trkpt lat="45.79064" lon="6.66541">
        <ele>2032</ele>
        <time>2022-07-24T12:28:19Z</time>
      </trkpt>
      <trkpt lat="45.79064" lon="6.66543">
        <ele>2032</ele>
        <time>2022-07-24T12:28:20Z</time>
      </trkpt>
      <trkpt lat="45.79063" lon="6.66544">
        <ele>2032</ele>
        <time>2022-07-24T12:28:21Z</time>
      </trkpt>
      <trkpt lat="45.79062" lon="6.66545">
        <ele>2032</ele>
        <time>2022-07-24T12:28:22Z</time>
      </trkpt>
      <trkpt lat="45.79061" lon="6.66546">
        <ele>2032</ele>
        <time>2022-07-24T12:28:23Z</time>
      </trkpt>
      <trkpt lat="45.79061" lon="6.66548">
        <ele>2032</ele>
        <time>2022-07-24T12:28:24Z</time>
      </trkpt>
      <trkpt lat="45.7906" lon="6.66549">
        <ele>2032</ele>
        <time>2022-07-24T12:28:25Z</time>
      </trkpt>
      <trkpt lat="45.79059" lon="6.66551">
        <ele>2032</ele>
        <time>2022-07-24T12:28:26Z</time>
      </trkpt>
      <trkpt lat="45.79059" lon="6.66552">
        <ele>2032</ele>
        <time>2022-07-24T12:28:27Z</time>
      </trkpt>
      <trkpt lat="45.79058" lon="6.66553">
        <ele>2032</ele>
        <time>2022-07-24T12:28:28Z</time>
      </trkpt>
      <trkpt lat="45.79057" lon="6.66555">
        <ele>2032</ele>
        <time>2022-07-24T12:28:29Z</time>
      </trkpt>
      <trkpt lat="45.79057" lon="6.66556">
        <ele>2032</ele>
        <time>2022-07-24T12:28:30Z</time>
      </trkpt>
      <trkpt lat="45.79056" lon="6.66558">
        <ele>2032</ele>
        <time>2022-07-24T12:28:31Z</time>
      </trkpt>
      <trkpt lat="45.79056" lon="6.66559">
        <ele>2032</ele>
        <time>2022-07-24T12:28:32Z</time>
      </trkpt>
      <trkpt lat="45.79055" lon="6.66561">
        <ele>2032</ele>
        <time>2022-07-24T12:28:33Z</time>
      </trkpt>
      <trkpt lat="45.79054" lon="6.66562">
        <ele>2032</ele>
        <time>2022-07-24T12:28:34Z</time>
      </trkpt>
      <trkpt lat="45.79054" lon="6.66563">
        <ele>2032</ele>
        <time>2022-07-24T12:28:35Z</time>
      </trkpt>
      <trkpt lat="45.79053" lon="6.66564">
        <ele>2032</ele>
        <time>2022-07-24T12:28:36Z</time>
      </trkpt>
      <trkpt lat="45.79052" lon="6.66566">
        <ele>2032</ele>
        <time>2022-07-24T12:28:37Z</time>
      </trkpt>
      <trkpt lat="45.79051" lon="6.66567">
        <ele>2032</ele>
        <time>2022-07-24T12:28:38Z</time>
      </trkpt>
      <trkpt lat="45.7905" lon="6.66568">
        <ele>2032</ele>
        <time>2022-07-24T12:28:39Z</time>
      </trkpt>
      <trkpt lat="45.7905" lon="6.66569">
        <ele>2032</ele>
        <time>2022-07-24T12:28:40Z</time>
      </trkpt>
      <trkpt lat="45.79049" lon="6.6657">
        <ele>2032</ele>
        <time>2022-07-24T12:28:41Z</time>
      </trkpt>
      <trkpt lat="45.79048" lon="6.66571">
        <ele>2032</ele>
        <time>2022-07-24T12:28:42Z</time>
      </trkpt>
      <trkpt lat="45.79047" lon="6.66572">
        <ele>2032</ele>
        <time>2022-07-24T12:28:43Z</time>
      </trkpt>
      <trkpt lat="45.79046" lon="6.66573">
        <ele>2032</ele>
        <time>2022-07-24T12:28:44Z</time>
      </trkpt>
      <trkpt lat="45.79045" lon="6.66574">
        <ele>2032</ele>
        <time>2022-07-24T12:28:45Z</time>
      </trkpt>
      <trkpt lat="45.79044" lon="6.66575">
        <ele>2032</ele>
        <time>2022-07-24T12:28:46Z</time>
      </trkpt>
      <trkpt lat="45.79043" lon="6.66576">
        <ele>2032</ele>
        <time>2022-07-24T12:28:47Z</time>
      </trkpt>
      <trkpt lat="45.79042" lon="6.66578">
        <ele>2032</ele>
        <time>2022-07-24T12:28:48Z</time>
      </trkpt>
      <trkpt lat="45.79041" lon="6.66579">
        <ele>2032</ele>
        <time>2022-07-24T12:28:49Z</time>
      </trkpt>
      <trkpt lat="45.7904" lon="6.6658">
        <ele>2032</ele>
        <time>2022-07-24T12:28:50Z</time>
      </trkpt>
      <trkpt lat="45.79039" lon="6.66581">
        <ele>2032</ele>
        <time>2022-07-24T12:28:51Z</time>
      </trkpt>
      <trkpt lat="45.79038" lon="6.66582">
        <ele>2032</ele>
        <time>2022-07-24T12:28:52Z</time>
      </trkpt>
      <trkpt lat="45.79037" lon="6.66583">
        <ele>2032</ele>
        <time>2022-07-24T12:28:53Z</time>
      </trkpt>
      <trkpt lat="45.79036" lon="6.66584">
        <ele>2032</ele>
        <time>2022-07-24T12:28:54Z</time>
      </trkpt>
      <trkpt lat="45.79035" lon="6.66586">
        <ele>2032</ele>
        <time>2022-07-24T12:28:55Z</time>
      </trkpt>
      <trkpt lat="45.79035" lon="6.66587">
        <ele>2032</ele>
        <time>2022-07-24T12:28:56Z</time>
      </trkpt>
      <trkpt lat="45.79034" lon="6.66588">
        <ele>2032</ele>
        <time>2022-07-24T12:28:57Z</time>
      </trkpt>
      <trkpt lat="45.79033" lon="6.66589">
        <ele>2032</ele>
        <time>2022-07-24T12:28:58Z</time>
      </trkpt>
      <trkpt lat="45.79032" lon="6.66591">
        <ele>2032</ele>
        <time>2022-07-24T12:28:59Z</time>
      </trkpt>
      <trkpt lat="45.79032" lon="6.66592">
        <ele>2032</ele>
        <time>2022-07-24T12:29:00Z</time>
      </trkpt>
      <trkpt lat="45.79031" lon="6.66593">
        <ele>2032</ele>
        <time>2022-07-24T12:29:01Z</time>
      </trkpt>
      <trkpt lat="45.79031" lon="6.66595">
        <ele>2032</ele>
        <time>2022-07-24T12:29:02Z</time>
      </trkpt>
      <trkpt lat="45.7903" lon="6.66596">
        <ele>2032</ele>
        <time>2022-07-24T12:29:03Z</time>
      </trkpt>
      <trkpt lat="45.7903" lon="6.66597">
        <ele>2032</ele>
        <time>2022-07-24T12:29:04Z</time>
      </trkpt>
      <trkpt lat="45.79029" lon="6.66599">
        <ele>2032</ele>
        <time>2022-07-24T12:29:05Z</time>
      </trkpt>
      <trkpt lat="45.79029" lon="6.666">
        <ele>2032</ele>
        <time>2022-07-24T12:29:06Z</time>
      </trkpt>
      <trkpt lat="45.79028" lon="6.66601">
        <ele>2032</ele>
        <time>2022-07-24T12:29:07Z</time>
      </trkpt>
      <trkpt lat="45.79028" lon="6.66603">
        <ele>2032</ele>
        <time>2022-07-24T12:29:08Z</time>
      </trkpt>
      <trkpt lat="45.79027" lon="6.66604">
        <ele>2032</ele>
        <time>2022-07-24T12:29:09Z</time>
      </trkpt>
      <trkpt lat="45.79027" lon="6.66605">
        <ele>2032</ele>
        <time>2022-07-24T12:29:10Z</time>
      </trkpt>
      <trkpt lat="45.79026" lon="6.66607">
        <ele>2032</ele>
        <time>2022-07-24T12:29:11Z</time>
      </trkpt>
      <trkpt lat="45.79026" lon="6.66608">
        <ele>2032</ele>
        <time>2022-07-24T12:29:12Z</time>
      </trkpt>
      <trkpt lat="45.79025" lon="6.66609">
        <ele>2032</ele>
        <time>2022-07-24T12:29:13Z</time>
      </trkpt>
      <trkpt lat="45.79024" lon="6.66612">
        <ele>2033</ele>
        <time>2022-07-24T12:29:42Z</time>
      </trkpt>
      <trkpt lat="45.79024" lon="6.66613">
        <ele>2033</ele>
        <time>2022-07-24T12:29:43Z</time>
      </trkpt>
      <trkpt lat="45.79024" lon="6.66614">
        <ele>2033</ele>
        <time>2022-07-24T12:29:44Z</time>
      </trkpt>
      <trkpt lat="45.79024" lon="6.66615">
        <ele>2033</ele>
        <time>2022-07-24T12:29:45Z</time>
      </trkpt>
      <trkpt lat="45.79023" lon="6.66616">
        <ele>2033</ele>
        <time>2022-07-24T12:29:46Z</time>
      </trkpt>
      <trkpt lat="45.79023" lon="6.66617">
        <ele>2033</ele>
        <time>2022-07-24T12:29:47Z</time>
      </trkpt>
      <trkpt lat="45.79023" lon="6.66619">
        <ele>2033</ele>
        <time>2022-07-24T12:29:48Z</time>
      </trkpt>
      <trkpt lat="45.79023" lon="6.6662">
        <ele>2033</ele>
        <time>2022-07-24T12:29:49Z</time>
      </trkpt>
      <trkpt lat="45.79023" lon="6.66622">
        <ele>2033</ele>
        <time>2022-07-24T12:29:50Z</time>
      </trkpt>
      <trkpt lat="45.79023" lon="6.66624">
        <ele>2033</ele>
        <time>2022-07-24T12:29:51Z</time>
      </trkpt>
      <trkpt lat="45.79023" lon="6.66625">
        <ele>2033</ele>
        <time>2022-07-24T12:29:52Z</time>
      </trkpt>
      <trkpt lat="45.79024" lon="6.66627">
        <ele>2033</ele>
        <time>2022-07-24T12:29:53Z</time>
      </trkpt>
      <trkpt lat="45.79024" lon="6.66628">
        <ele>2033</ele>
        <time>2022-07-24T12:29:54Z</time>
      </trkpt>
      <trkpt lat="45.79024" lon="6.6663">
        <ele>2033</ele>
        <time>2022-07-24T12:29:55Z</time>
      </trkpt>
      <trkpt lat="45.79024" lon="6.66631">
        <ele>2033</ele>
        <time>2022-07-24T12:29:56Z</time>
      </trkpt>
      <trkpt lat="45.79024" lon="6.66633">
        <ele>2033</ele>
        <time>2022-07-24T12:29:57Z</time>
      </trkpt>
      <trkpt lat="45.79024" lon="6.66634">
        <ele>2034</ele>
        <time>2022-07-24T12:29:58Z</time>
      </trkpt>
      <trkpt lat="45.79023" lon="6.66635">
        <ele>2034</ele>
        <time>2022-07-24T12:29:59Z</time>
      </trkpt>
      <trkpt lat="45.79022" lon="6.66636">
        <ele>2034</ele>
        <time>2022-07-24T12:30:00Z</time>
      </trkpt>
      <trkpt lat="45.79022" lon="6.66637">
        <ele>2034</ele>
        <time>2022-07-24T12:30:01Z</time>
      </trkpt>
      <trkpt lat="45.79021" lon="6.66638">
        <ele>2034</ele>
        <time>2022-07-24T12:30:02Z</time>
      </trkpt>
      <trkpt lat="45.79021" lon="6.66639">
        <ele>2034</ele>
        <time>2022-07-24T12:30:03Z</time>
      </trkpt>
      <trkpt lat="45.7902" lon="6.6664">
        <ele>2034</ele>
        <time>2022-07-24T12:30:04Z</time>
      </trkpt>
      <trkpt lat="45.7902" lon="6.66641">
        <ele>2034</ele>
        <time>2022-07-24T12:30:05Z</time>
      </trkpt>
      <trkpt lat="45.79019" lon="6.66642">
        <ele>2034</ele>
        <time>2022-07-24T12:30:06Z</time>
      </trkpt>
      <trkpt lat="45.79019" lon="6.66643">
        <ele>2034</ele>
        <time>2022-07-24T12:30:07Z</time>
      </trkpt>
      <trkpt lat="45.79018" lon="6.66644">
        <ele>2034</ele>
        <time>2022-07-24T12:30:08Z</time>
      </trkpt>
      <trkpt lat="45.79018" lon="6.66645">
        <ele>2034</ele>
        <time>2022-07-24T12:30:09Z</time>
      </trkpt>
      <trkpt lat="45.79017" lon="6.66646">
        <ele>2034</ele>
        <time>2022-07-24T12:30:10Z</time>
      </trkpt>
      <trkpt lat="45.79017" lon="6.66647">
        <ele>2034</ele>
        <time>2022-07-24T12:30:11Z</time>
      </trkpt>
      <trkpt lat="45.79016" lon="6.66648">
        <ele>2034</ele>
        <time>2022-07-24T12:30:12Z</time>
      </trkpt>
      <trkpt lat="45.79016" lon="6.6665">
        <ele>2035</ele>
        <time>2022-07-24T12:30:13Z</time>
      </trkpt>
      <trkpt lat="45.79015" lon="6.66651">
        <ele>2035</ele>
        <time>2022-07-24T12:30:14Z</time>
      </trkpt>
      <trkpt lat="45.79015" lon="6.66652">
        <ele>2035</ele>
        <time>2022-07-24T12:30:15Z</time>
      </trkpt>
      <trkpt lat="45.79015" lon="6.66653">
        <ele>2035</ele>
        <time>2022-07-24T12:30:16Z</time>
      </trkpt>
      <trkpt lat="45.79014" lon="6.66654">
        <ele>2035</ele>
        <time>2022-07-24T12:30:17Z</time>
      </trkpt>
      <trkpt lat="45.79014" lon="6.66655">
        <ele>2036</ele>
        <time>2022-07-24T12:30:18Z</time>
      </trkpt>
      <trkpt lat="45.79014" lon="6.66656">
        <ele>2036</ele>
        <time>2022-07-24T12:30:19Z</time>
      </trkpt>
      <trkpt lat="45.79013" lon="6.66657">
        <ele>2036</ele>
        <time>2022-07-24T12:30:20Z</time>
      </trkpt>
      <trkpt lat="45.79013" lon="6.66658">
        <ele>2036</ele>
        <time>2022-07-24T12:30:21Z</time>
      </trkpt>
      <trkpt lat="45.79013" lon="6.66659">
        <ele>2036</ele>
        <time>2022-07-24T12:30:22Z</time>
      </trkpt>
      <trkpt lat="45.79013" lon="6.6666">
        <ele>2036</ele>
        <time>2022-07-24T12:30:23Z</time>
      </trkpt>
      <trkpt lat="45.79012" lon="6.66661">
        <ele>2036</ele>
        <time>2022-07-24T12:30:24Z</time>
      </trkpt>
      <trkpt lat="45.79012" lon="6.66662">
        <ele>2036</ele>
        <time>2022-07-24T12:30:25Z</time>
      </trkpt>
      <trkpt lat="45.79012" lon="6.66663">
        <ele>2036</ele>
        <time>2022-07-24T12:30:26Z</time>
      </trkpt>
      <trkpt lat="45.79011" lon="6.66664">
        <ele>2036</ele>
        <time>2022-07-24T12:30:27Z</time>
      </trkpt>
      <trkpt lat="45.79011" lon="6.66665">
        <ele>2037</ele>
        <time>2022-07-24T12:30:28Z</time>
      </trkpt>
      <trkpt lat="45.79011" lon="6.66666">
        <ele>2037</ele>
        <time>2022-07-24T12:30:29Z</time>
      </trkpt>
      <trkpt lat="45.7901" lon="6.66667">
        <ele>2037</ele>
        <time>2022-07-24T12:30:30Z</time>
      </trkpt>
      <trkpt lat="45.7901" lon="6.66668">
        <ele>2038</ele>
        <time>2022-07-24T12:30:31Z</time>
      </trkpt>
      <trkpt lat="45.7901" lon="6.66668">
        <ele>2038</ele>
        <time>2022-07-24T12:30:32Z</time>
      </trkpt>
      <trkpt lat="45.79009" lon="6.66669">
        <ele>2039</ele>
        <time>2022-07-24T12:30:33Z</time>
      </trkpt>
      <trkpt lat="45.79009" lon="6.6667">
        <ele>2039</ele>
        <time>2022-07-24T12:30:34Z</time>
      </trkpt>
      <trkpt lat="45.79008" lon="6.66671">
        <ele>2039</ele>
        <time>2022-07-24T12:30:35Z</time>
      </trkpt>
      <trkpt lat="45.79008" lon="6.66673">
        <ele>2039</ele>
        <time>2022-07-24T12:30:36Z</time>
      </trkpt>
      <trkpt lat="45.79007" lon="6.66674">
        <ele>2039</ele>
        <time>2022-07-24T12:30:37Z</time>
      </trkpt>
      <trkpt lat="45.79006" lon="6.66675">
        <ele>2039</ele>
        <time>2022-07-24T12:30:38Z</time>
      </trkpt>
      <trkpt lat="45.79006" lon="6.66676">
        <ele>2039</ele>
        <time>2022-07-24T12:30:39Z</time>
      </trkpt>
      <trkpt lat="45.79005" lon="6.66677">
        <ele>2039</ele>
        <time>2022-07-24T12:30:40Z</time>
      </trkpt>
      <trkpt lat="45.79004" lon="6.66678">
        <ele>2039</ele>
        <time>2022-07-24T12:30:41Z</time>
      </trkpt>
      <trkpt lat="45.79003" lon="6.66679">
        <ele>2039</ele>
        <time>2022-07-24T12:30:42Z</time>
      </trkpt>
      <trkpt lat="45.79003" lon="6.66681">
        <ele>2039</ele>
        <time>2022-07-24T12:30:43Z</time>
      </trkpt>
      <trkpt lat="45.79002" lon="6.66682">
        <ele>2039</ele>
        <time>2022-07-24T12:30:44Z</time>
      </trkpt>
      <trkpt lat="45.79001" lon="6.66683">
        <ele>2039</ele>
        <time>2022-07-24T12:30:45Z</time>
      </trkpt>
      <trkpt lat="45.79" lon="6.66684">
        <ele>2039</ele>
        <time>2022-07-24T12:30:46Z</time>
      </trkpt>
      <trkpt lat="45.78999" lon="6.66685">
        <ele>2039</ele>
        <time>2022-07-24T12:30:47Z</time>
      </trkpt>
      <trkpt lat="45.78999" lon="6.66686">
        <ele>2039</ele>
        <time>2022-07-24T12:30:48Z</time>
      </trkpt>
      <trkpt lat="45.78998" lon="6.66687">
        <ele>2039</ele>
        <time>2022-07-24T12:30:49Z</time>
      </trkpt>
      <trkpt lat="45.78997" lon="6.66688">
        <ele>2039</ele>
        <time>2022-07-24T12:30:50Z</time>
      </trkpt>
      <trkpt lat="45.78996" lon="6.66689">
        <ele>2039</ele>
        <time>2022-07-24T12:30:51Z</time>
      </trkpt>
      <trkpt lat="45.78995" lon="6.6669">
        <ele>2039</ele>
        <time>2022-07-24T12:30:52Z</time>
      </trkpt>
      <trkpt lat="45.78994" lon="6.66691">
        <ele>2039</ele>
        <time>2022-07-24T12:30:53Z</time>
      </trkpt>
      <trkpt lat="45.78993" lon="6.66693">
        <ele>2038</ele>
        <time>2022-07-24T12:30:54Z</time>
      </trkpt>
      <trkpt lat="45.78992" lon="6.66694">
        <ele>2038</ele>
        <time>2022-07-24T12:30:55Z</time>
      </trkpt>
      <trkpt lat="45.78991" lon="6.66695">
        <ele>2037</ele>
        <time>2022-07-24T12:30:56Z</time>
      </trkpt>
      <trkpt lat="45.7899" lon="6.66696">
        <ele>2037</ele>
        <time>2022-07-24T12:30:57Z</time>
      </trkpt>
      <trkpt lat="45.78989" lon="6.66697">
        <ele>2037</ele>
        <time>2022-07-24T12:30:58Z</time>
      </trkpt>
      <trkpt lat="45.78988" lon="6.66699">
        <ele>2037</ele>
        <time>2022-07-24T12:30:59Z</time>
      </trkpt>
      <trkpt lat="45.78987" lon="6.667">
        <ele>2037</ele>
        <time>2022-07-24T12:31:00Z</time>
      </trkpt>
      <trkpt lat="45.78986" lon="6.66701">
        <ele>2037</ele>
        <time>2022-07-24T12:31:01Z</time>
      </trkpt>
      <trkpt lat="45.78985" lon="6.66703">
        <ele>2037</ele>
        <time>2022-07-24T12:31:02Z</time>
      </trkpt>
      <trkpt lat="45.78984" lon="6.66704">
        <ele>2037</ele>
        <time>2022-07-24T12:31:03Z</time>
      </trkpt>
      <trkpt lat="45.78983" lon="6.66705">
        <ele>2036</ele>
        <time>2022-07-24T12:31:04Z</time>
      </trkpt>
      <trkpt lat="45.78983" lon="6.66707">
        <ele>2036</ele>
        <time>2022-07-24T12:31:05Z</time>
      </trkpt>
      <trkpt lat="45.78982" lon="6.66708">
        <ele>2036</ele>
        <time>2022-07-24T12:31:06Z</time>
      </trkpt>
      <trkpt lat="45.78981" lon="6.66709">
        <ele>2036</ele>
        <time>2022-07-24T12:31:07Z</time>
      </trkpt>
      <trkpt lat="45.7898" lon="6.6671">
        <ele>2036</ele>
        <time>2022-07-24T12:31:08Z</time>
      </trkpt>
      <trkpt lat="45.78979" lon="6.66711">
        <ele>2036</ele>
        <time>2022-07-24T12:31:09Z</time>
      </trkpt>
      <trkpt lat="45.78978" lon="6.66712">
        <ele>2036</ele>
        <time>2022-07-24T12:31:10Z</time>
      </trkpt>
      <trkpt lat="45.78977" lon="6.66714">
        <ele>2036</ele>
        <time>2022-07-24T12:31:11Z</time>
      </trkpt>
      <trkpt lat="45.78976" lon="6.66715">
        <ele>2036</ele>
        <time>2022-07-24T12:31:12Z</time>
      </trkpt>
      <trkpt lat="45.78976" lon="6.66716">
        <ele>2036</ele>
        <time>2022-07-24T12:31:13Z</time>
      </trkpt>
      <trkpt lat="45.78975" lon="6.66717">
        <ele>2036</ele>
        <time>2022-07-24T12:31:14Z</time>
      </trkpt>
      <trkpt lat="45.78974" lon="6.66718">
        <ele>2036</ele>
        <time>2022-07-24T12:31:15Z</time>
      </trkpt>
      <trkpt lat="45.78973" lon="6.6672">
        <ele>2036</ele>
        <time>2022-07-24T12:31:16Z</time>
      </trkpt>
      <trkpt lat="45.78972" lon="6.66721">
        <ele>2036</ele>
        <time>2022-07-24T12:31:17Z</time>
      </trkpt>
      <trkpt lat="45.78971" lon="6.66722">
        <ele>2036</ele>
        <time>2022-07-24T12:31:18Z</time>
      </trkpt>
      <trkpt lat="45.7897" lon="6.66723">
        <ele>2035</ele>
        <time>2022-07-24T12:31:19Z</time>
      </trkpt>
      <trkpt lat="45.78969" lon="6.66724">
        <ele>2035</ele>
        <time>2022-07-24T12:31:20Z</time>
      </trkpt>
      <trkpt lat="45.78968" lon="6.66725">
        <ele>2035</ele>
        <time>2022-07-24T12:31:21Z</time>
      </trkpt>
      <trkpt lat="45.78968" lon="6.66727">
        <ele>2035</ele>
        <time>2022-07-24T12:31:22Z</time>
      </trkpt>
      <trkpt lat="45.78967" lon="6.66728">
        <ele>2035</ele>
        <time>2022-07-24T12:31:23Z</time>
      </trkpt>
      <trkpt lat="45.78966" lon="6.66729">
        <ele>2035</ele>
        <time>2022-07-24T12:31:24Z</time>
      </trkpt>
      <trkpt lat="45.78965" lon="6.66731">
        <ele>2035</ele>
        <time>2022-07-24T12:31:25Z</time>
      </trkpt>
      <trkpt lat="45.78964" lon="6.66732">
        <ele>2035</ele>
        <time>2022-07-24T12:31:26Z</time>
      </trkpt>
      <trkpt lat="45.78963" lon="6.66733">
        <ele>2035</ele>
        <time>2022-07-24T12:31:27Z</time>
      </trkpt>
      <trkpt lat="45.78963" lon="6.66735">
        <ele>2035</ele>
        <time>2022-07-24T12:31:28Z</time>
      </trkpt>
      <trkpt lat="45.78962" lon="6.66736">
        <ele>2035</ele>
        <time>2022-07-24T12:31:29Z</time>
      </trkpt>
      <trkpt lat="45.78961" lon="6.66737">
        <ele>2035</ele>
        <time>2022-07-24T12:31:30Z</time>
      </trkpt>
      <trkpt lat="45.7896" lon="6.66738">
        <ele>2035</ele>
        <time>2022-07-24T12:31:31Z</time>
      </trkpt>
      <trkpt lat="45.7896" lon="6.6674">
        <ele>2035</ele>
        <time>2022-07-24T12:31:32Z</time>
      </trkpt>
      <trkpt lat="45.78959" lon="6.66741">
        <ele>2035</ele>
        <time>2022-07-24T12:31:33Z</time>
      </trkpt>
      <trkpt lat="45.78958" lon="6.66742">
        <ele>2034</ele>
        <time>2022-07-24T12:31:34Z</time>
      </trkpt>
      <trkpt lat="45.78957" lon="6.66743">
        <ele>2034</ele>
        <time>2022-07-24T12:31:35Z</time>
      </trkpt>
      <trkpt lat="45.78956" lon="6.66745">
        <ele>2034</ele>
        <time>2022-07-24T12:31:36Z</time>
      </trkpt>
      <trkpt lat="45.78955" lon="6.66746">
        <ele>2034</ele>
        <time>2022-07-24T12:31:37Z</time>
      </trkpt>
      <trkpt lat="45.78954" lon="6.66747">
        <ele>2034</ele>
        <time>2022-07-24T12:31:38Z</time>
      </trkpt>
      <trkpt lat="45.78953" lon="6.66748">
        <ele>2034</ele>
        <time>2022-07-24T12:31:39Z</time>
      </trkpt>
      <trkpt lat="45.78952" lon="6.6675">
        <ele>2034</ele>
        <time>2022-07-24T12:31:40Z</time>
      </trkpt>
      <trkpt lat="45.78952" lon="6.66751">
        <ele>2034</ele>
        <time>2022-07-24T12:31:41Z</time>
      </trkpt>
      <trkpt lat="45.78951" lon="6.66752">
        <ele>2034</ele>
        <time>2022-07-24T12:31:42Z</time>
      </trkpt>
      <trkpt lat="45.7895" lon="6.66753">
        <ele>2034</ele>
        <time>2022-07-24T12:31:43Z</time>
      </trkpt>
      <trkpt lat="45.78949" lon="6.66754">
        <ele>2034</ele>
        <time>2022-07-24T12:31:44Z</time>
      </trkpt>
      <trkpt lat="45.78948" lon="6.66755">
        <ele>2034</ele>
        <time>2022-07-24T12:31:45Z</time>
      </trkpt>
      <trkpt lat="45.78948" lon="6.66756">
        <ele>2034</ele>
        <time>2022-07-24T12:31:46Z</time>
      </trkpt>
      <trkpt lat="45.78947" lon="6.66758">
        <ele>2034</ele>
        <time>2022-07-24T12:31:47Z</time>
      </trkpt>
      <trkpt lat="45.78946" lon="6.66759">
        <ele>2034</ele>
        <time>2022-07-24T12:31:48Z</time>
      </trkpt>
      <trkpt lat="45.78945" lon="6.6676">
        <ele>2033</ele>
        <time>2022-07-24T12:31:49Z</time>
      </trkpt>
      <trkpt lat="45.78945" lon="6.66761">
        <ele>2033</ele>
        <time>2022-07-24T12:31:50Z</time>
      </trkpt>
      <trkpt lat="45.78944" lon="6.66762">
        <ele>2033</ele>
        <time>2022-07-24T12:31:51Z</time>
      </trkpt>
      <trkpt lat="45.78943" lon="6.66763">
        <ele>2033</ele>
        <time>2022-07-24T12:31:52Z</time>
      </trkpt>
      <trkpt lat="45.78942" lon="6.66764">
        <ele>2033</ele>
        <time>2022-07-24T12:31:53Z</time>
      </trkpt>
      <trkpt lat="45.78941" lon="6.66765">
        <ele>2033</ele>
        <time>2022-07-24T12:31:54Z</time>
      </trkpt>
      <trkpt lat="45.78941" lon="6.66767">
        <ele>2033</ele>
        <time>2022-07-24T12:31:55Z</time>
      </trkpt>
      <trkpt lat="45.7894" lon="6.66768">
        <ele>2033</ele>
        <time>2022-07-24T12:31:56Z</time>
      </trkpt>
      <trkpt lat="45.78939" lon="6.66769">
        <ele>2033</ele>
        <time>2022-07-24T12:31:57Z</time>
      </trkpt>
      <trkpt lat="45.78938" lon="6.6677">
        <ele>2033</ele>
        <time>2022-07-24T12:31:58Z</time>
      </trkpt>
      <trkpt lat="45.78937" lon="6.66772">
        <ele>2033</ele>
        <time>2022-07-24T12:31:59Z</time>
      </trkpt>
      <trkpt lat="45.78936" lon="6.66773">
        <ele>2033</ele>
        <time>2022-07-24T12:32:00Z</time>
      </trkpt>
      <trkpt lat="45.78935" lon="6.66774">
        <ele>2033</ele>
        <time>2022-07-24T12:32:01Z</time>
      </trkpt>
      <trkpt lat="45.78935" lon="6.66776">
        <ele>2033</ele>
        <time>2022-07-24T12:32:02Z</time>
      </trkpt>
      <trkpt lat="45.78934" lon="6.66777">
        <ele>2033</ele>
        <time>2022-07-24T12:32:03Z</time>
      </trkpt>
      <trkpt lat="45.78933" lon="6.66778">
        <ele>2033</ele>
        <time>2022-07-24T12:32:04Z</time>
      </trkpt>
      <trkpt lat="45.78933" lon="6.6678">
        <ele>2033</ele>
        <time>2022-07-24T12:32:05Z</time>
      </trkpt>
      <trkpt lat="45.78932" lon="6.66781">
        <ele>2033</ele>
        <time>2022-07-24T12:32:06Z</time>
      </trkpt>
      <trkpt lat="45.78931" lon="6.66782">
        <ele>2033</ele>
        <time>2022-07-24T12:32:07Z</time>
      </trkpt>
      <trkpt lat="45.78931" lon="6.66784">
        <ele>2033</ele>
        <time>2022-07-24T12:32:08Z</time>
      </trkpt>
      <trkpt lat="45.7893" lon="6.66785">
        <ele>2033</ele>
        <time>2022-07-24T12:32:09Z</time>
      </trkpt>
      <trkpt lat="45.78929" lon="6.66787">
        <ele>2033</ele>
        <time>2022-07-24T12:32:10Z</time>
      </trkpt>
      <trkpt lat="45.78928" lon="6.66788">
        <ele>2033</ele>
        <time>2022-07-24T12:32:11Z</time>
      </trkpt>
      <trkpt lat="45.78928" lon="6.66789">
        <ele>2033</ele>
        <time>2022-07-24T12:32:12Z</time>
      </trkpt>
      <trkpt lat="45.78927" lon="6.66791">
        <ele>2033</ele>
        <time>2022-07-24T12:32:13Z</time>
      </trkpt>
      <trkpt lat="45.78927" lon="6.66792">
        <ele>2033</ele>
        <time>2022-07-24T12:32:14Z</time>
      </trkpt>
      <trkpt lat="45.78926" lon="6.66794">
        <ele>2033</ele>
        <time>2022-07-24T12:32:15Z</time>
      </trkpt>
      <trkpt lat="45.78925" lon="6.66796">
        <ele>2033</ele>
        <time>2022-07-24T12:32:16Z</time>
      </trkpt>
      <trkpt lat="45.78925" lon="6.66797">
        <ele>2033</ele>
        <time>2022-07-24T12:32:17Z</time>
      </trkpt>
      <trkpt lat="45.78924" lon="6.66799">
        <ele>2033</ele>
        <time>2022-07-24T12:32:18Z</time>
      </trkpt>
      <trkpt lat="45.78924" lon="6.66801">
        <ele>2032</ele>
        <time>2022-07-24T12:32:19Z</time>
      </trkpt>
      <trkpt lat="45.78923" lon="6.66803">
        <ele>2032</ele>
        <time>2022-07-24T12:32:20Z</time>
      </trkpt>
      <trkpt lat="45.78922" lon="6.66804">
        <ele>2032</ele>
        <time>2022-07-24T12:32:21Z</time>
      </trkpt>
      <trkpt lat="45.78922" lon="6.66806">
        <ele>2032</ele>
        <time>2022-07-24T12:32:22Z</time>
      </trkpt>
      <trkpt lat="45.78921" lon="6.66807">
        <ele>2032</ele>
        <time>2022-07-24T12:32:23Z</time>
      </trkpt>
      <trkpt lat="45.78921" lon="6.66809">
        <ele>2032</ele>
        <time>2022-07-24T12:32:24Z</time>
      </trkpt>
      <trkpt lat="45.7892" lon="6.6681">
        <ele>2032</ele>
        <time>2022-07-24T12:32:25Z</time>
      </trkpt>
      <trkpt lat="45.78919" lon="6.66812">
        <ele>2032</ele>
        <time>2022-07-24T12:32:26Z</time>
      </trkpt>
      <trkpt lat="45.78919" lon="6.66814">
        <ele>2032</ele>
        <time>2022-07-24T12:32:27Z</time>
      </trkpt>
      <trkpt lat="45.78918" lon="6.66815">
        <ele>2032</ele>
        <time>2022-07-24T12:32:28Z</time>
      </trkpt>
      <trkpt lat="45.78918" lon="6.66817">
        <ele>2032</ele>
        <time>2022-07-24T12:32:29Z</time>
      </trkpt>
      <trkpt lat="45.78917" lon="6.66818">
        <ele>2032</ele>
        <time>2022-07-24T12:32:30Z</time>
      </trkpt>
      <trkpt lat="45.78917" lon="6.6682">
        <ele>2032</ele>
        <time>2022-07-24T12:32:31Z</time>
      </trkpt>
      <trkpt lat="45.78916" lon="6.66822">
        <ele>2032</ele>
        <time>2022-07-24T12:32:32Z</time>
      </trkpt>
      <trkpt lat="45.78916" lon="6.66823">
        <ele>2032</ele>
        <time>2022-07-24T12:32:33Z</time>
      </trkpt>
      <trkpt lat="45.78915" lon="6.66825">
        <ele>2032</ele>
        <time>2022-07-24T12:32:34Z</time>
      </trkpt>
      <trkpt lat="45.78915" lon="6.66827">
        <ele>2032</ele>
        <time>2022-07-24T12:32:35Z</time>
      </trkpt>
      <trkpt lat="45.78915" lon="6.66828">
        <ele>2032</ele>
        <time>2022-07-24T12:32:36Z</time>
      </trkpt>
      <trkpt lat="45.78914" lon="6.6683">
        <ele>2032</ele>
        <time>2022-07-24T12:32:37Z</time>
      </trkpt>
      <trkpt lat="45.78914" lon="6.66831">
        <ele>2032</ele>
        <time>2022-07-24T12:32:38Z</time>
      </trkpt>
      <trkpt lat="45.78913" lon="6.66835">
        <ele>2032</ele>
        <time>2022-07-24T12:32:49Z</time>
      </trkpt>
      <trkpt lat="45.78913" lon="6.66836">
        <ele>2032</ele>
        <time>2022-07-24T12:32:50Z</time>
      </trkpt>
      <trkpt lat="45.78913" lon="6.66837">
        <ele>2032</ele>
        <time>2022-07-24T12:32:51Z</time>
      </trkpt>
      <trkpt lat="45.78913" lon="6.66838">
        <ele>2032</ele>
        <time>2022-07-24T12:32:52Z</time>
      </trkpt>
      <trkpt lat="45.78913" lon="6.66839">
        <ele>2032</ele>
        <time>2022-07-24T12:32:53Z</time>
      </trkpt>
      <trkpt lat="45.78913" lon="6.66839">
        <ele>2032</ele>
        <time>2022-07-24T12:32:54Z</time>
      </trkpt>
      <trkpt lat="45.78913" lon="6.66839">
        <ele>2032</ele>
        <time>2022-07-24T12:32:55Z</time>
      </trkpt>
      <trkpt lat="45.78913" lon="6.6684">
        <ele>2032</ele>
        <time>2022-07-24T12:32:56Z</time>
      </trkpt>
      <trkpt lat="45.78913" lon="6.6684">
        <ele>2032</ele>
        <time>2022-07-24T12:32:57Z</time>
      </trkpt>
      <trkpt lat="45.78913" lon="6.66841">
        <ele>2032</ele>
        <time>2022-07-24T12:32:58Z</time>
      </trkpt>
      <trkpt lat="45.78913" lon="6.66842">
        <ele>2032</ele>
        <time>2022-07-24T12:32:59Z</time>
      </trkpt>
      <trkpt lat="45.78912" lon="6.66843">
        <ele>2032</ele>
        <time>2022-07-24T12:33:00Z</time>
      </trkpt>
      <trkpt lat="45.78912" lon="6.66844">
        <ele>2032</ele>
        <time>2022-07-24T12:33:01Z</time>
      </trkpt>
      <trkpt lat="45.78912" lon="6.66846">
        <ele>2032</ele>
        <time>2022-07-24T12:33:02Z</time>
      </trkpt>
      <trkpt lat="45.78911" lon="6.66847">
        <ele>2032</ele>
        <time>2022-07-24T12:33:03Z</time>
      </trkpt>
      <trkpt lat="45.78911" lon="6.66848">
        <ele>2031</ele>
        <time>2022-07-24T12:33:04Z</time>
      </trkpt>
      <trkpt lat="45.78911" lon="6.66849">
        <ele>2031</ele>
        <time>2022-07-24T12:33:05Z</time>
      </trkpt>
      <trkpt lat="45.78911" lon="6.6685">
        <ele>2031</ele>
        <time>2022-07-24T12:33:06Z</time>
      </trkpt>
      <trkpt lat="45.78911" lon="6.66851">
        <ele>2031</ele>
        <time>2022-07-24T12:33:07Z</time>
      </trkpt>
      <trkpt lat="45.78912" lon="6.66852">
        <ele>2031</ele>
        <time>2022-07-24T12:33:08Z</time>
      </trkpt>
      <trkpt lat="45.78912" lon="6.66854">
        <ele>2030</ele>
        <time>2022-07-24T12:33:19Z</time>
      </trkpt>
      <trkpt lat="45.78911" lon="6.66855">
        <ele>2030</ele>
        <time>2022-07-24T12:33:20Z</time>
      </trkpt>
      <trkpt lat="45.78911" lon="6.66856">
        <ele>2030</ele>
        <time>2022-07-24T12:33:21Z</time>
      </trkpt>
      <trkpt lat="45.78911" lon="6.66857">
        <ele>2030</ele>
        <time>2022-07-24T12:33:22Z</time>
      </trkpt>
      <trkpt lat="45.78912" lon="6.66858">
        <ele>2030</ele>
        <time>2022-07-24T12:33:23Z</time>
      </trkpt>
      <trkpt lat="45.78912" lon="6.66859">
        <ele>2030</ele>
        <time>2022-07-24T12:33:24Z</time>
      </trkpt>
      <trkpt lat="45.78912" lon="6.6686">
        <ele>2030</ele>
        <time>2022-07-24T12:33:25Z</time>
      </trkpt>
      <trkpt lat="45.78912" lon="6.66862">
        <ele>2030</ele>
        <time>2022-07-24T12:33:26Z</time>
      </trkpt>
      <trkpt lat="45.78912" lon="6.66863">
        <ele>2030</ele>
        <time>2022-07-24T12:33:27Z</time>
      </trkpt>
      <trkpt lat="45.78912" lon="6.66865">
        <ele>2030</ele>
        <time>2022-07-24T12:33:28Z</time>
      </trkpt>
      <trkpt lat="45.78912" lon="6.66867">
        <ele>2029</ele>
        <time>2022-07-24T12:33:29Z</time>
      </trkpt>
      <trkpt lat="45.78912" lon="6.66868">
        <ele>2029</ele>
        <time>2022-07-24T12:33:30Z</time>
      </trkpt>
      <trkpt lat="45.78912" lon="6.6687">
        <ele>2029</ele>
        <time>2022-07-24T12:33:31Z</time>
      </trkpt>
      <trkpt lat="45.78912" lon="6.66872">
        <ele>2029</ele>
        <time>2022-07-24T12:33:32Z</time>
      </trkpt>
      <trkpt lat="45.78912" lon="6.66874">
        <ele>2029</ele>
        <time>2022-07-24T12:33:33Z</time>
      </trkpt>
      <trkpt lat="45.78912" lon="6.66876">
        <ele>2029</ele>
        <time>2022-07-24T12:33:34Z</time>
      </trkpt>
      <trkpt lat="45.78911" lon="6.66877">
        <ele>2029</ele>
        <time>2022-07-24T12:33:35Z</time>
      </trkpt>
      <trkpt lat="45.78911" lon="6.66879">
        <ele>2029</ele>
        <time>2022-07-24T12:33:36Z</time>
      </trkpt>
      <trkpt lat="45.7891" lon="6.66881">
        <ele>2029</ele>
        <time>2022-07-24T12:33:37Z</time>
      </trkpt>
      <trkpt lat="45.7891" lon="6.66882">
        <ele>2029</ele>
        <time>2022-07-24T12:33:38Z</time>
      </trkpt>
      <trkpt lat="45.78909" lon="6.66884">
        <ele>2029</ele>
        <time>2022-07-24T12:33:39Z</time>
      </trkpt>
      <trkpt lat="45.78909" lon="6.66885">
        <ele>2029</ele>
        <time>2022-07-24T12:33:40Z</time>
      </trkpt>
      <trkpt lat="45.78908" lon="6.66886">
        <ele>2029</ele>
        <time>2022-07-24T12:33:41Z</time>
      </trkpt>
      <trkpt lat="45.78908" lon="6.66888">
        <ele>2029</ele>
        <time>2022-07-24T12:33:42Z</time>
      </trkpt>
      <trkpt lat="45.78907" lon="6.66889">
        <ele>2029</ele>
        <time>2022-07-24T12:33:43Z</time>
      </trkpt>
      <trkpt lat="45.78907" lon="6.66891">
        <ele>2029</ele>
        <time>2022-07-24T12:33:44Z</time>
      </trkpt>
      <trkpt lat="45.78906" lon="6.66892">
        <ele>2029</ele>
        <time>2022-07-24T12:33:45Z</time>
      </trkpt>
      <trkpt lat="45.78906" lon="6.66894">
        <ele>2029</ele>
        <time>2022-07-24T12:33:46Z</time>
      </trkpt>
      <trkpt lat="45.78905" lon="6.66895">
        <ele>2029</ele>
        <time>2022-07-24T12:33:47Z</time>
      </trkpt>
      <trkpt lat="45.78905" lon="6.66897">
        <ele>2029</ele>
        <time>2022-07-24T12:33:48Z</time>
      </trkpt>
      <trkpt lat="45.78904" lon="6.66898">
        <ele>2028</ele>
        <time>2022-07-24T12:33:49Z</time>
      </trkpt>
      <trkpt lat="45.78904" lon="6.669">
        <ele>2028</ele>
        <time>2022-07-24T12:33:50Z</time>
      </trkpt>
      <trkpt lat="45.78904" lon="6.66901">
        <ele>2028</ele>
        <time>2022-07-24T12:33:51Z</time>
      </trkpt>
      <trkpt lat="45.78904" lon="6.66903">
        <ele>2028</ele>
        <time>2022-07-24T12:33:52Z</time>
      </trkpt>
      <trkpt lat="45.78904" lon="6.66905">
        <ele>2028</ele>
        <time>2022-07-24T12:33:53Z</time>
      </trkpt>
      <trkpt lat="45.78904" lon="6.66907">
        <ele>2028</ele>
        <time>2022-07-24T12:33:54Z</time>
      </trkpt>
      <trkpt lat="45.78903" lon="6.66909">
        <ele>2028</ele>
        <time>2022-07-24T12:33:55Z</time>
      </trkpt>
      <trkpt lat="45.78903" lon="6.66911">
        <ele>2028</ele>
        <time>2022-07-24T12:33:56Z</time>
      </trkpt>
      <trkpt lat="45.78903" lon="6.66913">
        <ele>2028</ele>
        <time>2022-07-24T12:33:57Z</time>
      </trkpt>
      <trkpt lat="45.78903" lon="6.66915">
        <ele>2028</ele>
        <time>2022-07-24T12:33:58Z</time>
      </trkpt>
      <trkpt lat="45.78903" lon="6.66916">
        <ele>2027</ele>
        <time>2022-07-24T12:33:59Z</time>
      </trkpt>
      <trkpt lat="45.78902" lon="6.66918">
        <ele>2027</ele>
        <time>2022-07-24T12:34:00Z</time>
      </trkpt>
      <trkpt lat="45.78902" lon="6.66919">
        <ele>2027</ele>
        <time>2022-07-24T12:34:01Z</time>
      </trkpt>
      <trkpt lat="45.78901" lon="6.6692">
        <ele>2027</ele>
        <time>2022-07-24T12:34:02Z</time>
      </trkpt>
      <trkpt lat="45.78901" lon="6.66921">
        <ele>2027</ele>
        <time>2022-07-24T12:34:03Z</time>
      </trkpt>
      <trkpt lat="45.78901" lon="6.66922">
        <ele>2027</ele>
        <time>2022-07-24T12:34:04Z</time>
      </trkpt>
      <trkpt lat="45.78901" lon="6.66923">
        <ele>2027</ele>
        <time>2022-07-24T12:34:05Z</time>
      </trkpt>
      <trkpt lat="45.78901" lon="6.66925">
        <ele>2027</ele>
        <time>2022-07-24T12:35:24Z</time>
      </trkpt>
      <trkpt lat="45.78902" lon="6.66926">
        <ele>2027</ele>
        <time>2022-07-24T12:35:25Z</time>
      </trkpt>
      <trkpt lat="45.78902" lon="6.66926">
        <ele>2027</ele>
        <time>2022-07-24T12:35:26Z</time>
      </trkpt>
      <trkpt lat="45.78903" lon="6.66927">
        <ele>2027</ele>
        <time>2022-07-24T12:35:27Z</time>
      </trkpt>
      <trkpt lat="45.78903" lon="6.66928">
        <ele>2027</ele>
        <time>2022-07-24T12:35:28Z</time>
      </trkpt>
      <trkpt lat="45.78903" lon="6.66929">
        <ele>2027</ele>
        <time>2022-07-24T12:35:29Z</time>
      </trkpt>
      <trkpt lat="45.78904" lon="6.6693">
        <ele>2027</ele>
        <time>2022-07-24T12:35:30Z</time>
      </trkpt>
      <trkpt lat="45.78904" lon="6.66931">
        <ele>2027</ele>
        <time>2022-07-24T12:35:31Z</time>
      </trkpt>
      <trkpt lat="45.78904" lon="6.66932">
        <ele>2027</ele>
        <time>2022-07-24T12:35:32Z</time>
      </trkpt>
      <trkpt lat="45.78905" lon="6.66933">
        <ele>2027</ele>
        <time>2022-07-24T12:35:33Z</time>
      </trkpt>
      <trkpt lat="45.78905" lon="6.66935">
        <ele>2027</ele>
        <time>2022-07-24T12:35:34Z</time>
      </trkpt>
      <trkpt lat="45.78905" lon="6.66936">
        <ele>2027</ele>
        <time>2022-07-24T12:35:35Z</time>
      </trkpt>
      <trkpt lat="45.78905" lon="6.66937">
        <ele>2027</ele>
        <time>2022-07-24T12:35:36Z</time>
      </trkpt>
      <trkpt lat="45.78905" lon="6.66938">
        <ele>2027</ele>
        <time>2022-07-24T12:35:37Z</time>
      </trkpt>
      <trkpt lat="45.78905" lon="6.66939">
        <ele>2027</ele>
        <time>2022-07-24T12:35:38Z</time>
      </trkpt>
      <trkpt lat="45.78905" lon="6.6694">
        <ele>2026</ele>
        <time>2022-07-24T12:35:39Z</time>
      </trkpt>
      <trkpt lat="45.78905" lon="6.66941">
        <ele>2026</ele>
        <time>2022-07-24T12:35:40Z</time>
      </trkpt>
      <trkpt lat="45.78906" lon="6.66942">
        <ele>2026</ele>
        <time>2022-07-24T12:35:41Z</time>
      </trkpt>
      <trkpt lat="45.78906" lon="6.66943">
        <ele>2026</ele>
        <time>2022-07-24T12:35:42Z</time>
      </trkpt>
      <trkpt lat="45.78906" lon="6.66944">
        <ele>2026</ele>
        <time>2022-07-24T12:35:43Z</time>
      </trkpt>
      <trkpt lat="45.78906" lon="6.66945">
        <ele>2025</ele>
        <time>2022-07-24T12:35:44Z</time>
      </trkpt>
      <trkpt lat="45.78906" lon="6.66946">
        <ele>2025</ele>
        <time>2022-07-24T12:35:45Z</time>
      </trkpt>
      <trkpt lat="45.78906" lon="6.66947">
        <ele>2025</ele>
        <time>2022-07-24T12:35:46Z</time>
      </trkpt>
      <trkpt lat="45.78906" lon="6.66948">
        <ele>2025</ele>
        <time>2022-07-24T12:35:47Z</time>
      </trkpt>
      <trkpt lat="45.78906" lon="6.6695">
        <ele>2025</ele>
        <time>2022-07-24T12:35:48Z</time>
      </trkpt>
      <trkpt lat="45.78905" lon="6.66951">
        <ele>2024</ele>
        <time>2022-07-24T12:35:49Z</time>
      </trkpt>
      <trkpt lat="45.78905" lon="6.66952">
        <ele>2024</ele>
        <time>2022-07-24T12:35:50Z</time>
      </trkpt>
      <trkpt lat="45.78905" lon="6.66954">
        <ele>2024</ele>
        <time>2022-07-24T12:35:51Z</time>
      </trkpt>
      <trkpt lat="45.78904" lon="6.66955">
        <ele>2024</ele>
        <time>2022-07-24T12:35:52Z</time>
      </trkpt>
      <trkpt lat="45.78904" lon="6.66956">
        <ele>2024</ele>
        <time>2022-07-24T12:35:53Z</time>
      </trkpt>
      <trkpt lat="45.78904" lon="6.66958">
        <ele>2023</ele>
        <time>2022-07-24T12:35:54Z</time>
      </trkpt>
      <trkpt lat="45.78903" lon="6.66959">
        <ele>2023</ele>
        <time>2022-07-24T12:35:55Z</time>
      </trkpt>
      <trkpt lat="45.78903" lon="6.66961">
        <ele>2023</ele>
        <time>2022-07-24T12:35:56Z</time>
      </trkpt>
      <trkpt lat="45.78902" lon="6.66962">
        <ele>2023</ele>
        <time>2022-07-24T12:35:57Z</time>
      </trkpt>
      <trkpt lat="45.78902" lon="6.66963">
        <ele>2023</ele>
        <time>2022-07-24T12:35:58Z</time>
      </trkpt>
      <trkpt lat="45.78902" lon="6.66965">
        <ele>2022</ele>
        <time>2022-07-24T12:35:59Z</time>
      </trkpt>
      <trkpt lat="45.78901" lon="6.66966">
        <ele>2022</ele>
        <time>2022-07-24T12:36:00Z</time>
      </trkpt>
      <trkpt lat="45.78901" lon="6.66967">
        <ele>2021</ele>
        <time>2022-07-24T12:36:01Z</time>
      </trkpt>
      <trkpt lat="45.789" lon="6.66968">
        <ele>2021</ele>
        <time>2022-07-24T12:36:02Z</time>
      </trkpt>
      <trkpt lat="45.789" lon="6.66969">
        <ele>2021</ele>
        <time>2022-07-24T12:36:03Z</time>
      </trkpt>
      <trkpt lat="45.78899" lon="6.6697">
        <ele>2020</ele>
        <time>2022-07-24T12:36:04Z</time>
      </trkpt>
      <trkpt lat="45.78899" lon="6.66971">
        <ele>2020</ele>
        <time>2022-07-24T12:36:05Z</time>
      </trkpt>
      <trkpt lat="45.78898" lon="6.66973">
        <ele>2020</ele>
        <time>2022-07-24T12:36:06Z</time>
      </trkpt>
      <trkpt lat="45.78898" lon="6.66974">
        <ele>2020</ele>
        <time>2022-07-24T12:36:07Z</time>
      </trkpt>
      <trkpt lat="45.78897" lon="6.66975">
        <ele>2020</ele>
        <time>2022-07-24T12:36:08Z</time>
      </trkpt>
      <trkpt lat="45.78896" lon="6.66976">
        <ele>2019</ele>
        <time>2022-07-24T12:36:09Z</time>
      </trkpt>
      <trkpt lat="45.78896" lon="6.66978">
        <ele>2019</ele>
        <time>2022-07-24T12:36:10Z</time>
      </trkpt>
      <trkpt lat="45.78895" lon="6.66979">
        <ele>2018</ele>
        <time>2022-07-24T12:36:11Z</time>
      </trkpt>
      <trkpt lat="45.78894" lon="6.6698">
        <ele>2018</ele>
        <time>2022-07-24T12:36:12Z</time>
      </trkpt>
      <trkpt lat="45.78894" lon="6.66981">
        <ele>2018</ele>
        <time>2022-07-24T12:36:13Z</time>
      </trkpt>
      <trkpt lat="45.78893" lon="6.66983">
        <ele>2017</ele>
        <time>2022-07-24T12:36:14Z</time>
      </trkpt>
      <trkpt lat="45.78892" lon="6.66984">
        <ele>2017</ele>
        <time>2022-07-24T12:36:15Z</time>
      </trkpt>
      <trkpt lat="45.78892" lon="6.66985">
        <ele>2017</ele>
        <time>2022-07-24T12:36:16Z</time>
      </trkpt>
      <trkpt lat="45.78891" lon="6.66987">
        <ele>2017</ele>
        <time>2022-07-24T12:36:17Z</time>
      </trkpt>
      <trkpt lat="45.78891" lon="6.66989">
        <ele>2017</ele>
        <time>2022-07-24T12:36:18Z</time>
      </trkpt>
      <trkpt lat="45.7889" lon="6.6699">
        <ele>2016</ele>
        <time>2022-07-24T12:36:19Z</time>
      </trkpt>
      <trkpt lat="45.7889" lon="6.66992">
        <ele>2016</ele>
        <time>2022-07-24T12:36:20Z</time>
      </trkpt>
      <trkpt lat="45.78889" lon="6.66994">
        <ele>2016</ele>
        <time>2022-07-24T12:36:21Z</time>
      </trkpt>
      <trkpt lat="45.78889" lon="6.66995">
        <ele>2016</ele>
        <time>2022-07-24T12:36:22Z</time>
      </trkpt>
      <trkpt lat="45.78888" lon="6.66997">
        <ele>2016</ele>
        <time>2022-07-24T12:36:23Z</time>
      </trkpt>
      <trkpt lat="45.78888" lon="6.66999">
        <ele>2015</ele>
        <time>2022-07-24T12:36:24Z</time>
      </trkpt>
      <trkpt lat="45.78887" lon="6.67">
        <ele>2015</ele>
        <time>2022-07-24T12:36:25Z</time>
      </trkpt>
      <trkpt lat="45.78887" lon="6.67002">
        <ele>2015</ele>
        <time>2022-07-24T12:36:26Z</time>
      </trkpt>
      <trkpt lat="45.78887" lon="6.67004">
        <ele>2015</ele>
        <time>2022-07-24T12:36:27Z</time>
      </trkpt>
      <trkpt lat="45.78886" lon="6.67006">
        <ele>2015</ele>
        <time>2022-07-24T12:36:28Z</time>
      </trkpt>
      <trkpt lat="45.78886" lon="6.67007">
        <ele>2014</ele>
        <time>2022-07-24T12:36:29Z</time>
      </trkpt>
      <trkpt lat="45.78886" lon="6.67009">
        <ele>2014</ele>
        <time>2022-07-24T12:36:30Z</time>
      </trkpt>
      <trkpt lat="45.78886" lon="6.67011">
        <ele>2014</ele>
        <time>2022-07-24T12:36:31Z</time>
      </trkpt>
      <trkpt lat="45.78886" lon="6.67012">
        <ele>2014</ele>
        <time>2022-07-24T12:36:32Z</time>
      </trkpt>
      <trkpt lat="45.78886" lon="6.67015">
        <ele>2014</ele>
        <time>2022-07-24T12:37:04Z</time>
      </trkpt>
      <trkpt lat="45.78887" lon="6.67016">
        <ele>2014</ele>
        <time>2022-07-24T12:37:05Z</time>
      </trkpt>
      <trkpt lat="45.78887" lon="6.67017">
        <ele>2014</ele>
        <time>2022-07-24T12:37:06Z</time>
      </trkpt>
      <trkpt lat="45.78886" lon="6.67017">
        <ele>2014</ele>
        <time>2022-07-24T12:37:07Z</time>
      </trkpt>
      <trkpt lat="45.78886" lon="6.67018">
        <ele>2014</ele>
        <time>2022-07-24T12:37:08Z</time>
      </trkpt>
      <trkpt lat="45.78885" lon="6.67018">
        <ele>2013</ele>
        <time>2022-07-24T12:37:09Z</time>
      </trkpt>
      <trkpt lat="45.78884" lon="6.67018">
        <ele>2013</ele>
        <time>2022-07-24T12:37:10Z</time>
      </trkpt>
      <trkpt lat="45.78882" lon="6.67019">
        <ele>2013</ele>
        <time>2022-07-24T12:37:11Z</time>
      </trkpt>
      <trkpt lat="45.78881" lon="6.67019">
        <ele>2013</ele>
        <time>2022-07-24T12:37:12Z</time>
      </trkpt>
      <trkpt lat="45.78879" lon="6.67019">
        <ele>2013</ele>
        <time>2022-07-24T12:37:13Z</time>
      </trkpt>
      <trkpt lat="45.78878" lon="6.6702">
        <ele>2013</ele>
        <time>2022-07-24T12:37:14Z</time>
      </trkpt>
      <trkpt lat="45.78876" lon="6.6702">
        <ele>2013</ele>
        <time>2022-07-24T12:37:15Z</time>
      </trkpt>
      <trkpt lat="45.78875" lon="6.67021">
        <ele>2013</ele>
        <time>2022-07-24T12:37:16Z</time>
      </trkpt>
      <trkpt lat="45.78874" lon="6.67022">
        <ele>2013</ele>
        <time>2022-07-24T12:37:17Z</time>
      </trkpt>
      <trkpt lat="45.78872" lon="6.67022">
        <ele>2013</ele>
        <time>2022-07-24T12:37:18Z</time>
      </trkpt>
      <trkpt lat="45.78871" lon="6.67023">
        <ele>2012</ele>
        <time>2022-07-24T12:37:19Z</time>
      </trkpt>
      <trkpt lat="45.7887" lon="6.67023">
        <ele>2012</ele>
        <time>2022-07-24T12:37:20Z</time>
      </trkpt>
      <trkpt lat="45.78869" lon="6.67023">
        <ele>2012</ele>
        <time>2022-07-24T12:37:21Z</time>
      </trkpt>
      <trkpt lat="45.78869" lon="6.67023">
        <ele>2012</ele>
        <time>2022-07-24T12:37:22Z</time>
      </trkpt>
      <trkpt lat="45.78869" lon="6.67023">
        <ele>2012</ele>
        <time>2022-07-24T12:37:23Z</time>
      </trkpt>
      <trkpt lat="45.78869" lon="6.67023">
        <ele>2012</ele>
        <time>2022-07-24T12:37:24Z</time>
      </trkpt>
      <trkpt lat="45.78869" lon="6.67023">
        <ele>2012</ele>
        <time>2022-07-24T12:37:25Z</time>
      </trkpt>
      <trkpt lat="45.78868" lon="6.67024">
        <ele>2012</ele>
        <time>2022-07-24T12:37:26Z</time>
      </trkpt>
      <trkpt lat="45.78867" lon="6.67024">
        <ele>2012</ele>
        <time>2022-07-24T12:37:27Z</time>
      </trkpt>
      <trkpt lat="45.78867" lon="6.67025">
        <ele>2012</ele>
        <time>2022-07-24T12:37:28Z</time>
      </trkpt>
      <trkpt lat="45.78866" lon="6.67025">
        <ele>2012</ele>
        <time>2022-07-24T12:37:29Z</time>
      </trkpt>
      <trkpt lat="45.78865" lon="6.67026">
        <ele>2012</ele>
        <time>2022-07-24T12:37:30Z</time>
      </trkpt>
      <trkpt lat="45.78863" lon="6.67027">
        <ele>2012</ele>
        <time>2022-07-24T12:37:31Z</time>
      </trkpt>
      <trkpt lat="45.78862" lon="6.67027">
        <ele>2012</ele>
        <time>2022-07-24T12:37:32Z</time>
      </trkpt>
      <trkpt lat="45.78861" lon="6.67028">
        <ele>2012</ele>
        <time>2022-07-24T12:37:33Z</time>
      </trkpt>
      <trkpt lat="45.78859" lon="6.67028">
        <ele>2012</ele>
        <time>2022-07-24T12:37:34Z</time>
      </trkpt>
      <trkpt lat="45.78858" lon="6.67029">
        <ele>2012</ele>
        <time>2022-07-24T12:37:35Z</time>
      </trkpt>
      <trkpt lat="45.78856" lon="6.67029">
        <ele>2012</ele>
        <time>2022-07-24T12:37:36Z</time>
      </trkpt>
      <trkpt lat="45.78855" lon="6.6703">
        <ele>2012</ele>
        <time>2022-07-24T12:37:37Z</time>
      </trkpt>
      <trkpt lat="45.78853" lon="6.6703">
        <ele>2012</ele>
        <time>2022-07-24T12:37:38Z</time>
      </trkpt>
      <trkpt lat="45.78852" lon="6.67031">
        <ele>2012</ele>
        <time>2022-07-24T12:37:39Z</time>
      </trkpt>
      <trkpt lat="45.78851" lon="6.67032">
        <ele>2012</ele>
        <time>2022-07-24T12:37:40Z</time>
      </trkpt>
      <trkpt lat="45.7885" lon="6.67033">
        <ele>2012</ele>
        <time>2022-07-24T12:37:41Z</time>
      </trkpt>
      <trkpt lat="45.78848" lon="6.67034">
        <ele>2012</ele>
        <time>2022-07-24T12:37:42Z</time>
      </trkpt>
      <trkpt lat="45.78847" lon="6.67034">
        <ele>2012</ele>
        <time>2022-07-24T12:37:43Z</time>
      </trkpt>
      <trkpt lat="45.78846" lon="6.67035">
        <ele>2012</ele>
        <time>2022-07-24T12:37:44Z</time>
      </trkpt>
      <trkpt lat="45.78844" lon="6.67036">
        <ele>2012</ele>
        <time>2022-07-24T12:37:45Z</time>
      </trkpt>
      <trkpt lat="45.78843" lon="6.67036">
        <ele>2012</ele>
        <time>2022-07-24T12:37:46Z</time>
      </trkpt>
      <trkpt lat="45.78841" lon="6.67037">
        <ele>2012</ele>
        <time>2022-07-24T12:37:47Z</time>
      </trkpt>
      <trkpt lat="45.7884" lon="6.67037">
        <ele>2012</ele>
        <time>2022-07-24T12:37:48Z</time>
      </trkpt>
      <trkpt lat="45.78839" lon="6.67038">
        <ele>2011</ele>
        <time>2022-07-24T12:37:49Z</time>
      </trkpt>
      <trkpt lat="45.78837" lon="6.67038">
        <ele>2011</ele>
        <time>2022-07-24T12:37:50Z</time>
      </trkpt>
      <trkpt lat="45.78836" lon="6.67038">
        <ele>2011</ele>
        <time>2022-07-24T12:37:51Z</time>
      </trkpt>
      <trkpt lat="45.78835" lon="6.67039">
        <ele>2011</ele>
        <time>2022-07-24T12:37:52Z</time>
      </trkpt>
      <trkpt lat="45.78834" lon="6.6704">
        <ele>2011</ele>
        <time>2022-07-24T12:37:53Z</time>
      </trkpt>
      <trkpt lat="45.78832" lon="6.6704">
        <ele>2011</ele>
        <time>2022-07-24T12:37:54Z</time>
      </trkpt>
      <trkpt lat="45.78831" lon="6.67041">
        <ele>2011</ele>
        <time>2022-07-24T12:37:55Z</time>
      </trkpt>
      <trkpt lat="45.7883" lon="6.67042">
        <ele>2011</ele>
        <time>2022-07-24T12:37:56Z</time>
      </trkpt>
      <trkpt lat="45.78829" lon="6.67043">
        <ele>2011</ele>
        <time>2022-07-24T12:37:57Z</time>
      </trkpt>
      <trkpt lat="45.78827" lon="6.67044">
        <ele>2011</ele>
        <time>2022-07-24T12:37:58Z</time>
      </trkpt>
      <trkpt lat="45.78826" lon="6.67045">
        <ele>2010</ele>
        <time>2022-07-24T12:37:59Z</time>
      </trkpt>
      <trkpt lat="45.78825" lon="6.67046">
        <ele>2010</ele>
        <time>2022-07-24T12:38:00Z</time>
      </trkpt>
      <trkpt lat="45.78825" lon="6.67047">
        <ele>2010</ele>
        <time>2022-07-24T12:38:01Z</time>
      </trkpt>
      <trkpt lat="45.78824" lon="6.67049">
        <ele>2010</ele>
        <time>2022-07-24T12:38:02Z</time>
      </trkpt>
      <trkpt lat="45.78823" lon="6.6705">
        <ele>2010</ele>
        <time>2022-07-24T12:38:03Z</time>
      </trkpt>
      <trkpt lat="45.78822" lon="6.67052">
        <ele>2009</ele>
        <time>2022-07-24T12:38:30Z</time>
      </trkpt>
      <trkpt lat="45.78822" lon="6.67053">
        <ele>2009</ele>
        <time>2022-07-24T12:38:31Z</time>
      </trkpt>
      <trkpt lat="45.78822" lon="6.67054">
        <ele>2009</ele>
        <time>2022-07-24T12:38:32Z</time>
      </trkpt>
      <trkpt lat="45.78821" lon="6.67055">
        <ele>2009</ele>
        <time>2022-07-24T12:38:33Z</time>
      </trkpt>
      <trkpt lat="45.78821" lon="6.67056">
        <ele>2009</ele>
        <time>2022-07-24T12:38:34Z</time>
      </trkpt>
      <trkpt lat="45.78821" lon="6.67057">
        <ele>2009</ele>
        <time>2022-07-24T12:38:35Z</time>
      </trkpt>
      <trkpt lat="45.7882" lon="6.67058">
        <ele>2009</ele>
        <time>2022-07-24T12:38:36Z</time>
      </trkpt>
      <trkpt lat="45.7882" lon="6.67059">
        <ele>2009</ele>
        <time>2022-07-24T12:38:37Z</time>
      </trkpt>
      <trkpt lat="45.78819" lon="6.67061">
        <ele>2009</ele>
        <time>2022-07-24T12:38:38Z</time>
      </trkpt>
      <trkpt lat="45.78818" lon="6.67062">
        <ele>2009</ele>
        <time>2022-07-24T12:38:39Z</time>
      </trkpt>
      <trkpt lat="45.78818" lon="6.67063">
        <ele>2009</ele>
        <time>2022-07-24T12:38:40Z</time>
      </trkpt>
      <trkpt lat="45.78817" lon="6.67065">
        <ele>2009</ele>
        <time>2022-07-24T12:38:41Z</time>
      </trkpt>
      <trkpt lat="45.78817" lon="6.67066">
        <ele>2009</ele>
        <time>2022-07-24T12:38:42Z</time>
      </trkpt>
      <trkpt lat="45.78816" lon="6.67068">
        <ele>2009</ele>
        <time>2022-07-24T12:38:43Z</time>
      </trkpt>
      <trkpt lat="45.78816" lon="6.67069">
        <ele>2009</ele>
        <time>2022-07-24T12:38:44Z</time>
      </trkpt>
      <trkpt lat="45.78815" lon="6.67071">
        <ele>2009</ele>
        <time>2022-07-24T12:38:45Z</time>
      </trkpt>
      <trkpt lat="45.78815" lon="6.67072">
        <ele>2009</ele>
        <time>2022-07-24T12:38:46Z</time>
      </trkpt>
      <trkpt lat="45.78815" lon="6.67074">
        <ele>2009</ele>
        <time>2022-07-24T12:38:47Z</time>
      </trkpt>
      <trkpt lat="45.78814" lon="6.67075">
        <ele>2009</ele>
        <time>2022-07-24T12:38:48Z</time>
      </trkpt>
      <trkpt lat="45.78814" lon="6.67077">
        <ele>2008</ele>
        <time>2022-07-24T12:38:49Z</time>
      </trkpt>
      <trkpt lat="45.78813" lon="6.67078">
        <ele>2008</ele>
        <time>2022-07-24T12:38:50Z</time>
      </trkpt>
      <trkpt lat="45.78813" lon="6.6708">
        <ele>2008</ele>
        <time>2022-07-24T12:38:51Z</time>
      </trkpt>
      <trkpt lat="45.78812" lon="6.67081">
        <ele>2008</ele>
        <time>2022-07-24T12:38:52Z</time>
      </trkpt>
      <trkpt lat="45.78812" lon="6.67083">
        <ele>2008</ele>
        <time>2022-07-24T12:38:53Z</time>
      </trkpt>
      <trkpt lat="45.78811" lon="6.67084">
        <ele>2008</ele>
        <time>2022-07-24T12:38:54Z</time>
      </trkpt>
      <trkpt lat="45.78811" lon="6.67086">
        <ele>2008</ele>
        <time>2022-07-24T12:38:55Z</time>
      </trkpt>
      <trkpt lat="45.7881" lon="6.67088">
        <ele>2008</ele>
        <time>2022-07-24T12:38:56Z</time>
      </trkpt>
      <trkpt lat="45.78809" lon="6.67089">
        <ele>2008</ele>
        <time>2022-07-24T12:38:57Z</time>
      </trkpt>
      <trkpt lat="45.78809" lon="6.67091">
        <ele>2008</ele>
        <time>2022-07-24T12:38:58Z</time>
      </trkpt>
      <trkpt lat="45.78808" lon="6.67092">
        <ele>2007</ele>
        <time>2022-07-24T12:38:59Z</time>
      </trkpt>
      <trkpt lat="45.78807" lon="6.67093">
        <ele>2007</ele>
        <time>2022-07-24T12:39:00Z</time>
      </trkpt>
      <trkpt lat="45.78806" lon="6.67095">
        <ele>2006</ele>
        <time>2022-07-24T12:39:01Z</time>
      </trkpt>
      <trkpt lat="45.78806" lon="6.67096">
        <ele>2006</ele>
        <time>2022-07-24T12:39:02Z</time>
      </trkpt>
      <trkpt lat="45.78805" lon="6.67097">
        <ele>2006</ele>
        <time>2022-07-24T12:39:03Z</time>
      </trkpt>
      <trkpt lat="45.78804" lon="6.67098">
        <ele>2006</ele>
        <time>2022-07-24T12:39:04Z</time>
      </trkpt>
      <trkpt lat="45.78803" lon="6.67099">
        <ele>2006</ele>
        <time>2022-07-24T12:39:05Z</time>
      </trkpt>
      <trkpt lat="45.78803" lon="6.67099">
        <ele>2006</ele>
        <time>2022-07-24T12:39:06Z</time>
      </trkpt>
      <trkpt lat="45.78802" lon="6.671">
        <ele>2006</ele>
        <time>2022-07-24T12:39:07Z</time>
      </trkpt>
      <trkpt lat="45.78801" lon="6.67101">
        <ele>2006</ele>
        <time>2022-07-24T12:39:08Z</time>
      </trkpt>
      <trkpt lat="45.788" lon="6.67102">
        <ele>2006</ele>
        <time>2022-07-24T12:39:09Z</time>
      </trkpt>
      <trkpt lat="45.78799" lon="6.67103">
        <ele>2006</ele>
        <time>2022-07-24T12:39:10Z</time>
      </trkpt>
      <trkpt lat="45.78798" lon="6.67104">
        <ele>2006</ele>
        <time>2022-07-24T12:39:11Z</time>
      </trkpt>
      <trkpt lat="45.78797" lon="6.67105">
        <ele>2006</ele>
        <time>2022-07-24T12:39:12Z</time>
      </trkpt>
      <trkpt lat="45.78796" lon="6.67106">
        <ele>2006</ele>
        <time>2022-07-24T12:39:13Z</time>
      </trkpt>
      <trkpt lat="45.78795" lon="6.67107">
        <ele>2005</ele>
        <time>2022-07-24T12:39:14Z</time>
      </trkpt>
      <trkpt lat="45.78795" lon="6.67108">
        <ele>2005</ele>
        <time>2022-07-24T12:39:15Z</time>
      </trkpt>
      <trkpt lat="45.78794" lon="6.67109">
        <ele>2005</ele>
        <time>2022-07-24T12:39:16Z</time>
      </trkpt>
      <trkpt lat="45.78793" lon="6.67109">
        <ele>2005</ele>
        <time>2022-07-24T12:39:17Z</time>
      </trkpt>
      <trkpt lat="45.78792" lon="6.6711">
        <ele>2005</ele>
        <time>2022-07-24T12:39:18Z</time>
      </trkpt>
      <trkpt lat="45.78791" lon="6.67111">
        <ele>2005</ele>
        <time>2022-07-24T12:39:19Z</time>
      </trkpt>
      <trkpt lat="45.7879" lon="6.67112">
        <ele>2005</ele>
        <time>2022-07-24T12:39:20Z</time>
      </trkpt>
      <trkpt lat="45.78789" lon="6.67113">
        <ele>2005</ele>
        <time>2022-07-24T12:39:21Z</time>
      </trkpt>
      <trkpt lat="45.78788" lon="6.67114">
        <ele>2005</ele>
        <time>2022-07-24T12:39:22Z</time>
      </trkpt>
      <trkpt lat="45.78787" lon="6.67115">
        <ele>2005</ele>
        <time>2022-07-24T12:39:23Z</time>
      </trkpt>
      <trkpt lat="45.78786" lon="6.67116">
        <ele>2004</ele>
        <time>2022-07-24T12:39:24Z</time>
      </trkpt>
      <trkpt lat="45.78785" lon="6.67118">
        <ele>2004</ele>
        <time>2022-07-24T12:39:25Z</time>
      </trkpt>
      <trkpt lat="45.78784" lon="6.67119">
        <ele>2004</ele>
        <time>2022-07-24T12:39:26Z</time>
      </trkpt>
      <trkpt lat="45.78783" lon="6.6712">
        <ele>2004</ele>
        <time>2022-07-24T12:39:27Z</time>
      </trkpt>
      <trkpt lat="45.78782" lon="6.67121">
        <ele>2004</ele>
        <time>2022-07-24T12:39:28Z</time>
      </trkpt>
      <trkpt lat="45.78781" lon="6.67122">
        <ele>2004</ele>
        <time>2022-07-24T12:39:29Z</time>
      </trkpt>
      <trkpt lat="45.7878" lon="6.67123">
        <ele>2004</ele>
        <time>2022-07-24T12:39:30Z</time>
      </trkpt>
      <trkpt lat="45.78779" lon="6.67123">
        <ele>2004</ele>
        <time>2022-07-24T12:39:31Z</time>
      </trkpt>
      <trkpt lat="45.78778" lon="6.67124">
        <ele>2004</ele>
        <time>2022-07-24T12:39:32Z</time>
      </trkpt>
      <trkpt lat="45.78777" lon="6.67125">
        <ele>2004</ele>
        <time>2022-07-24T12:39:33Z</time>
      </trkpt>
      <trkpt lat="45.78777" lon="6.67127">
        <ele>2003</ele>
        <time>2022-07-24T12:39:34Z</time>
      </trkpt>
      <trkpt lat="45.78776" lon="6.67128">
        <ele>2003</ele>
        <time>2022-07-24T12:39:35Z</time>
      </trkpt>
      <trkpt lat="45.78775" lon="6.67129">
        <ele>2003</ele>
        <time>2022-07-24T12:39:36Z</time>
      </trkpt>
      <trkpt lat="45.78774" lon="6.67129">
        <ele>2003</ele>
        <time>2022-07-24T12:39:37Z</time>
      </trkpt>
      <trkpt lat="45.78773" lon="6.6713">
        <ele>2003</ele>
        <time>2022-07-24T12:39:38Z</time>
      </trkpt>
      <trkpt lat="45.78773" lon="6.67131">
        <ele>2003</ele>
        <time>2022-07-24T12:39:39Z</time>
      </trkpt>
      <trkpt lat="45.78772" lon="6.67132">
        <ele>2003</ele>
        <time>2022-07-24T12:39:40Z</time>
      </trkpt>
      <trkpt lat="45.78771" lon="6.67133">
        <ele>2003</ele>
        <time>2022-07-24T12:39:41Z</time>
      </trkpt>
      <trkpt lat="45.7877" lon="6.67135">
        <ele>2003</ele>
        <time>2022-07-24T12:39:42Z</time>
      </trkpt>
      <trkpt lat="45.78769" lon="6.67136">
        <ele>2003</ele>
        <time>2022-07-24T12:39:43Z</time>
      </trkpt>
      <trkpt lat="45.78768" lon="6.67137">
        <ele>2002</ele>
        <time>2022-07-24T12:39:44Z</time>
      </trkpt>
      <trkpt lat="45.78767" lon="6.67138">
        <ele>2002</ele>
        <time>2022-07-24T12:39:45Z</time>
      </trkpt>
      <trkpt lat="45.78766" lon="6.67139">
        <ele>2002</ele>
        <time>2022-07-24T12:39:46Z</time>
      </trkpt>
      <trkpt lat="45.78765" lon="6.6714">
        <ele>2002</ele>
        <time>2022-07-24T12:39:47Z</time>
      </trkpt>
      <trkpt lat="45.78764" lon="6.67141">
        <ele>2002</ele>
        <time>2022-07-24T12:39:48Z</time>
      </trkpt>
      <trkpt lat="45.78764" lon="6.67142">
        <ele>2002</ele>
        <time>2022-07-24T12:39:49Z</time>
      </trkpt>
      <trkpt lat="45.78763" lon="6.67143">
        <ele>2002</ele>
        <time>2022-07-24T12:39:50Z</time>
      </trkpt>
      <trkpt lat="45.78762" lon="6.67144">
        <ele>2002</ele>
        <time>2022-07-24T12:39:51Z</time>
      </trkpt>
      <trkpt lat="45.78761" lon="6.67146">
        <ele>2002</ele>
        <time>2022-07-24T12:39:52Z</time>
      </trkpt>
      <trkpt lat="45.7876" lon="6.67147">
        <ele>2002</ele>
        <time>2022-07-24T12:39:53Z</time>
      </trkpt>
      <trkpt lat="45.78759" lon="6.67148">
        <ele>2001</ele>
        <time>2022-07-24T12:39:54Z</time>
      </trkpt>
      <trkpt lat="45.78758" lon="6.67149">
        <ele>2001</ele>
        <time>2022-07-24T12:39:55Z</time>
      </trkpt>
      <trkpt lat="45.78757" lon="6.6715">
        <ele>2001</ele>
        <time>2022-07-24T12:39:56Z</time>
      </trkpt>
      <trkpt lat="45.78756" lon="6.67151">
        <ele>2001</ele>
        <time>2022-07-24T12:39:57Z</time>
      </trkpt>
      <trkpt lat="45.78756" lon="6.67152">
        <ele>2001</ele>
        <time>2022-07-24T12:39:58Z</time>
      </trkpt>
      <trkpt lat="45.78755" lon="6.67153">
        <ele>2001</ele>
        <time>2022-07-24T12:39:59Z</time>
      </trkpt>
      <trkpt lat="45.78754" lon="6.67154">
        <ele>2001</ele>
        <time>2022-07-24T12:40:00Z</time>
      </trkpt>
      <trkpt lat="45.78753" lon="6.67155">
        <ele>2001</ele>
        <time>2022-07-24T12:40:01Z</time>
      </trkpt>
      <trkpt lat="45.78752" lon="6.67156">
        <ele>2001</ele>
        <time>2022-07-24T12:40:02Z</time>
      </trkpt>
      <trkpt lat="45.78751" lon="6.67157">
        <ele>2001</ele>
        <time>2022-07-24T12:40:03Z</time>
      </trkpt>
      <trkpt lat="45.7875" lon="6.67158">
        <ele>2000</ele>
        <time>2022-07-24T12:40:04Z</time>
      </trkpt>
      <trkpt lat="45.78749" lon="6.67159">
        <ele>2000</ele>
        <time>2022-07-24T12:40:05Z</time>
      </trkpt>
      <trkpt lat="45.78749" lon="6.6716">
        <ele>2000</ele>
        <time>2022-07-24T12:40:06Z</time>
      </trkpt>
      <trkpt lat="45.78748" lon="6.67161">
        <ele>2000</ele>
        <time>2022-07-24T12:40:07Z</time>
      </trkpt>
      <trkpt lat="45.78747" lon="6.67162">
        <ele>2000</ele>
        <time>2022-07-24T12:40:08Z</time>
      </trkpt>
      <trkpt lat="45.78746" lon="6.67163">
        <ele>2000</ele>
        <time>2022-07-24T12:40:09Z</time>
      </trkpt>
      <trkpt lat="45.78745" lon="6.67164">
        <ele>2000</ele>
        <time>2022-07-24T12:40:10Z</time>
      </trkpt>
      <trkpt lat="45.78744" lon="6.67165">
        <ele>2000</ele>
        <time>2022-07-24T12:40:11Z</time>
      </trkpt>
      <trkpt lat="45.78743" lon="6.67166">
        <ele>2000</ele>
        <time>2022-07-24T12:40:12Z</time>
      </trkpt>
      <trkpt lat="45.78742" lon="6.67167">
        <ele>2000</ele>
        <time>2022-07-24T12:40:13Z</time>
      </trkpt>
      <trkpt lat="45.78742" lon="6.67168">
        <ele>2000</ele>
        <time>2022-07-24T12:40:14Z</time>
      </trkpt>
      <trkpt lat="45.78741" lon="6.67169">
        <ele>2000</ele>
        <time>2022-07-24T12:40:15Z</time>
      </trkpt>
      <trkpt lat="45.7874" lon="6.6717">
        <ele>2000</ele>
        <time>2022-07-24T12:40:16Z</time>
      </trkpt>
      <trkpt lat="45.78739" lon="6.67171">
        <ele>2000</ele>
        <time>2022-07-24T12:40:17Z</time>
      </trkpt>
      <trkpt lat="45.78738" lon="6.67172">
        <ele>2000</ele>
        <time>2022-07-24T12:40:18Z</time>
      </trkpt>
      <trkpt lat="45.78737" lon="6.67173">
        <ele>1999</ele>
        <time>2022-07-24T12:40:19Z</time>
      </trkpt>
      <trkpt lat="45.78736" lon="6.67174">
        <ele>1999</ele>
        <time>2022-07-24T12:40:20Z</time>
      </trkpt>
      <trkpt lat="45.78735" lon="6.67175">
        <ele>1999</ele>
        <time>2022-07-24T12:40:21Z</time>
      </trkpt>
      <trkpt lat="45.78735" lon="6.67176">
        <ele>1999</ele>
        <time>2022-07-24T12:40:22Z</time>
      </trkpt>
      <trkpt lat="45.78734" lon="6.67177">
        <ele>1999</ele>
        <time>2022-07-24T12:40:23Z</time>
      </trkpt>
      <trkpt lat="45.78733" lon="6.67178">
        <ele>1999</ele>
        <time>2022-07-24T12:40:24Z</time>
      </trkpt>
      <trkpt lat="45.78732" lon="6.67179">
        <ele>1999</ele>
        <time>2022-07-24T12:40:25Z</time>
      </trkpt>
      <trkpt lat="45.78731" lon="6.6718">
        <ele>1999</ele>
        <time>2022-07-24T12:40:26Z</time>
      </trkpt>
      <trkpt lat="45.7873" lon="6.67181">
        <ele>1999</ele>
        <time>2022-07-24T12:40:27Z</time>
      </trkpt>
      <trkpt lat="45.7873" lon="6.67182">
        <ele>1999</ele>
        <time>2022-07-24T12:40:28Z</time>
      </trkpt>
      <trkpt lat="45.78729" lon="6.67183">
        <ele>1998</ele>
        <time>2022-07-24T12:40:29Z</time>
      </trkpt>
      <trkpt lat="45.78728" lon="6.67184">
        <ele>1998</ele>
        <time>2022-07-24T12:40:30Z</time>
      </trkpt>
      <trkpt lat="45.78727" lon="6.67184">
        <ele>1998</ele>
        <time>2022-07-24T12:40:31Z</time>
      </trkpt>
      <trkpt lat="45.78726" lon="6.67185">
        <ele>1998</ele>
        <time>2022-07-24T12:40:32Z</time>
      </trkpt>
      <trkpt lat="45.78725" lon="6.67186">
        <ele>1998</ele>
        <time>2022-07-24T12:40:33Z</time>
      </trkpt>
      <trkpt lat="45.78725" lon="6.67187">
        <ele>1998</ele>
        <time>2022-07-24T12:40:34Z</time>
      </trkpt>
      <trkpt lat="45.78724" lon="6.67188">
        <ele>1998</ele>
        <time>2022-07-24T12:40:35Z</time>
      </trkpt>
      <trkpt lat="45.78723" lon="6.67189">
        <ele>1998</ele>
        <time>2022-07-24T12:40:36Z</time>
      </trkpt>
      <trkpt lat="45.78722" lon="6.6719">
        <ele>1998</ele>
        <time>2022-07-24T12:40:37Z</time>
      </trkpt>
      <trkpt lat="45.78721" lon="6.67191">
        <ele>1998</ele>
        <time>2022-07-24T12:40:38Z</time>
      </trkpt>
      <trkpt lat="45.7872" lon="6.67192">
        <ele>1998</ele>
        <time>2022-07-24T12:40:39Z</time>
      </trkpt>
      <trkpt lat="45.78719" lon="6.67193">
        <ele>1998</ele>
        <time>2022-07-24T12:40:40Z</time>
      </trkpt>
      <trkpt lat="45.78718" lon="6.67194">
        <ele>1998</ele>
        <time>2022-07-24T12:40:41Z</time>
      </trkpt>
      <trkpt lat="45.78717" lon="6.67195">
        <ele>1998</ele>
        <time>2022-07-24T12:40:42Z</time>
      </trkpt>
      <trkpt lat="45.78716" lon="6.67196">
        <ele>1998</ele>
        <time>2022-07-24T12:40:43Z</time>
      </trkpt>
      <trkpt lat="45.78715" lon="6.67197">
        <ele>1997</ele>
        <time>2022-07-24T12:40:44Z</time>
      </trkpt>
      <trkpt lat="45.78714" lon="6.67197">
        <ele>1997</ele>
        <time>2022-07-24T12:40:45Z</time>
      </trkpt>
      <trkpt lat="45.78713" lon="6.67198">
        <ele>1997</ele>
        <time>2022-07-24T12:40:46Z</time>
      </trkpt>
      <trkpt lat="45.78712" lon="6.67199">
        <ele>1997</ele>
        <time>2022-07-24T12:40:47Z</time>
      </trkpt>
      <trkpt lat="45.78711" lon="6.672">
        <ele>1997</ele>
        <time>2022-07-24T12:40:48Z</time>
      </trkpt>
      <trkpt lat="45.78711" lon="6.67201">
        <ele>1997</ele>
        <time>2022-07-24T12:40:49Z</time>
      </trkpt>
      <trkpt lat="45.7871" lon="6.67202">
        <ele>1997</ele>
        <time>2022-07-24T12:40:50Z</time>
      </trkpt>
      <trkpt lat="45.78709" lon="6.67203">
        <ele>1997</ele>
        <time>2022-07-24T12:40:51Z</time>
      </trkpt>
      <trkpt lat="45.78708" lon="6.67204">
        <ele>1997</ele>
        <time>2022-07-24T12:40:52Z</time>
      </trkpt>
      <trkpt lat="45.78707" lon="6.67205">
        <ele>1997</ele>
        <time>2022-07-24T12:40:53Z</time>
      </trkpt>
      <trkpt lat="45.78706" lon="6.67206">
        <ele>1997</ele>
        <time>2022-07-24T12:40:54Z</time>
      </trkpt>
      <trkpt lat="45.78705" lon="6.67206">
        <ele>1997</ele>
        <time>2022-07-24T12:40:55Z</time>
      </trkpt>
      <trkpt lat="45.78704" lon="6.67207">
        <ele>1997</ele>
        <time>2022-07-24T12:40:56Z</time>
      </trkpt>
      <trkpt lat="45.78703" lon="6.67208">
        <ele>1997</ele>
        <time>2022-07-24T12:40:57Z</time>
      </trkpt>
      <trkpt lat="45.78702" lon="6.67209">
        <ele>1997</ele>
        <time>2022-07-24T12:40:58Z</time>
      </trkpt>
      <trkpt lat="45.78701" lon="6.6721">
        <ele>1996</ele>
        <time>2022-07-24T12:40:59Z</time>
      </trkpt>
      <trkpt lat="45.78701" lon="6.6721">
        <ele>1996</ele>
        <time>2022-07-24T12:41:00Z</time>
      </trkpt>
      <trkpt lat="45.787" lon="6.67211">
        <ele>1996</ele>
        <time>2022-07-24T12:41:01Z</time>
      </trkpt>
      <trkpt lat="45.78699" lon="6.67212">
        <ele>1996</ele>
        <time>2022-07-24T12:41:02Z</time>
      </trkpt>
      <trkpt lat="45.78698" lon="6.67213">
        <ele>1996</ele>
        <time>2022-07-24T12:41:03Z</time>
      </trkpt>
      <trkpt lat="45.78697" lon="6.67214">
        <ele>1996</ele>
        <time>2022-07-24T12:41:04Z</time>
      </trkpt>
      <trkpt lat="45.78696" lon="6.67215">
        <ele>1996</ele>
        <time>2022-07-24T12:41:05Z</time>
      </trkpt>
      <trkpt lat="45.78695" lon="6.67216">
        <ele>1996</ele>
        <time>2022-07-24T12:41:06Z</time>
      </trkpt>
      <trkpt lat="45.78694" lon="6.67216">
        <ele>1996</ele>
        <time>2022-07-24T12:41:07Z</time>
      </trkpt>
      <trkpt lat="45.78694" lon="6.67217">
        <ele>1996</ele>
        <time>2022-07-24T12:41:08Z</time>
      </trkpt>
      <trkpt lat="45.78692" lon="6.67218">
        <ele>1996</ele>
        <time>2022-07-24T12:41:09Z</time>
      </trkpt>
      <trkpt lat="45.78691" lon="6.67219">
        <ele>1996</ele>
        <time>2022-07-24T12:41:10Z</time>
      </trkpt>
      <trkpt lat="45.7869" lon="6.6722">
        <ele>1996</ele>
        <time>2022-07-24T12:41:11Z</time>
      </trkpt>
      <trkpt lat="45.78689" lon="6.6722">
        <ele>1996</ele>
        <time>2022-07-24T12:41:12Z</time>
      </trkpt>
      <trkpt lat="45.78688" lon="6.67221">
        <ele>1996</ele>
        <time>2022-07-24T12:41:13Z</time>
      </trkpt>
      <trkpt lat="45.78688" lon="6.67222">
        <ele>1996</ele>
        <time>2022-07-24T12:41:14Z</time>
      </trkpt>
      <trkpt lat="45.78687" lon="6.67223">
        <ele>1996</ele>
        <time>2022-07-24T12:41:15Z</time>
      </trkpt>
      <trkpt lat="45.78686" lon="6.67223">
        <ele>1996</ele>
        <time>2022-07-24T12:41:16Z</time>
      </trkpt>
      <trkpt lat="45.78685" lon="6.67224">
        <ele>1996</ele>
        <time>2022-07-24T12:41:17Z</time>
      </trkpt>
      <trkpt lat="45.78684" lon="6.67225">
        <ele>1996</ele>
        <time>2022-07-24T12:41:18Z</time>
      </trkpt>
      <trkpt lat="45.78683" lon="6.67225">
        <ele>1996</ele>
        <time>2022-07-24T12:41:25Z</time>
      </trkpt>
      <trkpt lat="45.78683" lon="6.67226">
        <ele>1996</ele>
        <time>2022-07-24T12:41:26Z</time>
      </trkpt>
      <trkpt lat="45.78682" lon="6.67226">
        <ele>1996</ele>
        <time>2022-07-24T12:41:27Z</time>
      </trkpt>
      <trkpt lat="45.78682" lon="6.67227">
        <ele>1996</ele>
        <time>2022-07-24T12:41:28Z</time>
      </trkpt>
      <trkpt lat="45.78681" lon="6.67227">
        <ele>1996</ele>
        <time>2022-07-24T12:41:29Z</time>
      </trkpt>
      <trkpt lat="45.7868" lon="6.67227">
        <ele>1996</ele>
        <time>2022-07-24T12:41:30Z</time>
      </trkpt>
      <trkpt lat="45.78679" lon="6.67228">
        <ele>1996</ele>
        <time>2022-07-24T12:41:31Z</time>
      </trkpt>
      <trkpt lat="45.78678" lon="6.67228">
        <ele>1996</ele>
        <time>2022-07-24T12:41:32Z</time>
      </trkpt>
      <trkpt lat="45.78677" lon="6.67229">
        <ele>1996</ele>
        <time>2022-07-24T12:41:33Z</time>
      </trkpt>
      <trkpt lat="45.78676" lon="6.67229">
        <ele>1996</ele>
        <time>2022-07-24T12:41:34Z</time>
      </trkpt>
      <trkpt lat="45.78675" lon="6.6723">
        <ele>1996</ele>
        <time>2022-07-24T12:41:35Z</time>
      </trkpt>
      <trkpt lat="45.78674" lon="6.6723">
        <ele>1996</ele>
        <time>2022-07-24T12:41:36Z</time>
      </trkpt>
      <trkpt lat="45.78673" lon="6.67231">
        <ele>1996</ele>
        <time>2022-07-24T12:41:37Z</time>
      </trkpt>
      <trkpt lat="45.78672" lon="6.67231">
        <ele>1996</ele>
        <time>2022-07-24T12:41:38Z</time>
      </trkpt>
      <trkpt lat="45.78672" lon="6.67231">
        <ele>1996</ele>
        <time>2022-07-24T12:41:39Z</time>
      </trkpt>
      <trkpt lat="45.78671" lon="6.67232">
        <ele>1996</ele>
        <time>2022-07-24T12:41:40Z</time>
      </trkpt>
      <trkpt lat="45.7867" lon="6.67232">
        <ele>1996</ele>
        <time>2022-07-24T12:41:41Z</time>
      </trkpt>
      <trkpt lat="45.78669" lon="6.67233">
        <ele>1996</ele>
        <time>2022-07-24T12:41:42Z</time>
      </trkpt>
      <trkpt lat="45.78668" lon="6.67233">
        <ele>1996</ele>
        <time>2022-07-24T12:41:43Z</time>
      </trkpt>
      <trkpt lat="45.78666" lon="6.67234">
        <ele>1996</ele>
        <time>2022-07-24T12:41:44Z</time>
      </trkpt>
      <trkpt lat="45.78665" lon="6.67234">
        <ele>1996</ele>
        <time>2022-07-24T12:41:45Z</time>
      </trkpt>
      <trkpt lat="45.78664" lon="6.67234">
        <ele>1996</ele>
        <time>2022-07-24T12:41:46Z</time>
      </trkpt>
      <trkpt lat="45.78663" lon="6.67235">
        <ele>1996</ele>
        <time>2022-07-24T12:41:47Z</time>
      </trkpt>
      <trkpt lat="45.78662" lon="6.67235">
        <ele>1996</ele>
        <time>2022-07-24T12:41:48Z</time>
      </trkpt>
      <trkpt lat="45.7866" lon="6.67235">
        <ele>1995</ele>
        <time>2022-07-24T12:41:49Z</time>
      </trkpt>
      <trkpt lat="45.78659" lon="6.67236">
        <ele>1995</ele>
        <time>2022-07-24T12:41:50Z</time>
      </trkpt>
      <trkpt lat="45.78658" lon="6.67236">
        <ele>1995</ele>
        <time>2022-07-24T12:41:51Z</time>
      </trkpt>
      <trkpt lat="45.78657" lon="6.67237">
        <ele>1995</ele>
        <time>2022-07-24T12:41:52Z</time>
      </trkpt>
      <trkpt lat="45.78655" lon="6.67238">
        <ele>1995</ele>
        <time>2022-07-24T12:41:53Z</time>
      </trkpt>
      <trkpt lat="45.78654" lon="6.67238">
        <ele>1995</ele>
        <time>2022-07-24T12:41:54Z</time>
      </trkpt>
      <trkpt lat="45.78653" lon="6.67239">
        <ele>1995</ele>
        <time>2022-07-24T12:41:55Z</time>
      </trkpt>
      <trkpt lat="45.78651" lon="6.6724">
        <ele>1995</ele>
        <time>2022-07-24T12:41:56Z</time>
      </trkpt>
      <trkpt lat="45.7865" lon="6.6724">
        <ele>1995</ele>
        <time>2022-07-24T12:41:57Z</time>
      </trkpt>
      <trkpt lat="45.78649" lon="6.67241">
        <ele>1995</ele>
        <time>2022-07-24T12:41:58Z</time>
      </trkpt>
      <trkpt lat="45.78648" lon="6.67242">
        <ele>1995</ele>
        <time>2022-07-24T12:41:59Z</time>
      </trkpt>
      <trkpt lat="45.78646" lon="6.67242">
        <ele>1995</ele>
        <time>2022-07-24T12:42:00Z</time>
      </trkpt>
      <trkpt lat="45.78645" lon="6.67243">
        <ele>1995</ele>
        <time>2022-07-24T12:42:01Z</time>
      </trkpt>
      <trkpt lat="45.78644" lon="6.67244">
        <ele>1995</ele>
        <time>2022-07-24T12:42:02Z</time>
      </trkpt>
      <trkpt lat="45.78643" lon="6.67245">
        <ele>1995</ele>
        <time>2022-07-24T12:42:03Z</time>
      </trkpt>
      <trkpt lat="45.78642" lon="6.67245">
        <ele>1995</ele>
        <time>2022-07-24T12:42:04Z</time>
      </trkpt>
      <trkpt lat="45.7864" lon="6.67246">
        <ele>1995</ele>
        <time>2022-07-24T12:42:05Z</time>
      </trkpt>
      <trkpt lat="45.78639" lon="6.67247">
        <ele>1995</ele>
        <time>2022-07-24T12:42:06Z</time>
      </trkpt>
      <trkpt lat="45.78638" lon="6.67248">
        <ele>1995</ele>
        <time>2022-07-24T12:42:07Z</time>
      </trkpt>
      <trkpt lat="45.78637" lon="6.67249">
        <ele>1995</ele>
        <time>2022-07-24T12:42:08Z</time>
      </trkpt>
      <trkpt lat="45.78635" lon="6.67249">
        <ele>1995</ele>
        <time>2022-07-24T12:42:09Z</time>
      </trkpt>
      <trkpt lat="45.78634" lon="6.6725">
        <ele>1995</ele>
        <time>2022-07-24T12:42:10Z</time>
      </trkpt>
      <trkpt lat="45.78633" lon="6.67251">
        <ele>1995</ele>
        <time>2022-07-24T12:42:11Z</time>
      </trkpt>
      <trkpt lat="45.78632" lon="6.67252">
        <ele>1995</ele>
        <time>2022-07-24T12:42:12Z</time>
      </trkpt>
      <trkpt lat="45.78631" lon="6.67253">
        <ele>1995</ele>
        <time>2022-07-24T12:42:13Z</time>
      </trkpt>
      <trkpt lat="45.7863" lon="6.67254">
        <ele>1994</ele>
        <time>2022-07-24T12:42:14Z</time>
      </trkpt>
      <trkpt lat="45.78629" lon="6.67254">
        <ele>1994</ele>
        <time>2022-07-24T12:42:15Z</time>
      </trkpt>
      <trkpt lat="45.78628" lon="6.67255">
        <ele>1994</ele>
        <time>2022-07-24T12:42:16Z</time>
      </trkpt>
      <trkpt lat="45.78627" lon="6.67256">
        <ele>1994</ele>
        <time>2022-07-24T12:42:17Z</time>
      </trkpt>
      <trkpt lat="45.78626" lon="6.67257">
        <ele>1994</ele>
        <time>2022-07-24T12:42:18Z</time>
      </trkpt>
      <trkpt lat="45.78624" lon="6.67258">
        <ele>1994</ele>
        <time>2022-07-24T12:42:19Z</time>
      </trkpt>
      <trkpt lat="45.78623" lon="6.67259">
        <ele>1994</ele>
        <time>2022-07-24T12:42:20Z</time>
      </trkpt>
      <trkpt lat="45.78622" lon="6.6726">
        <ele>1994</ele>
        <time>2022-07-24T12:42:21Z</time>
      </trkpt>
      <trkpt lat="45.78621" lon="6.67261">
        <ele>1994</ele>
        <time>2022-07-24T12:42:22Z</time>
      </trkpt>
      <trkpt lat="45.7862" lon="6.67262">
        <ele>1994</ele>
        <time>2022-07-24T12:42:23Z</time>
      </trkpt>
      <trkpt lat="45.78619" lon="6.67263">
        <ele>1994</ele>
        <time>2022-07-24T12:42:24Z</time>
      </trkpt>
      <trkpt lat="45.78618" lon="6.67264">
        <ele>1994</ele>
        <time>2022-07-24T12:42:25Z</time>
      </trkpt>
      <trkpt lat="45.78617" lon="6.67265">
        <ele>1994</ele>
        <time>2022-07-24T12:42:26Z</time>
      </trkpt>
      <trkpt lat="45.78616" lon="6.67266">
        <ele>1994</ele>
        <time>2022-07-24T12:42:27Z</time>
      </trkpt>
      <trkpt lat="45.78615" lon="6.67267">
        <ele>1994</ele>
        <time>2022-07-24T12:42:28Z</time>
      </trkpt>
      <trkpt lat="45.78614" lon="6.67268">
        <ele>1994</ele>
        <time>2022-07-24T12:42:29Z</time>
      </trkpt>
      <trkpt lat="45.78613" lon="6.67269">
        <ele>1994</ele>
        <time>2022-07-24T12:42:30Z</time>
      </trkpt>
      <trkpt lat="45.78612" lon="6.6727">
        <ele>1994</ele>
        <time>2022-07-24T12:42:31Z</time>
      </trkpt>
      <trkpt lat="45.78611" lon="6.67271">
        <ele>1994</ele>
        <time>2022-07-24T12:42:32Z</time>
      </trkpt>
      <trkpt lat="45.78611" lon="6.67272">
        <ele>1994</ele>
        <time>2022-07-24T12:42:33Z</time>
      </trkpt>
      <trkpt lat="45.7861" lon="6.67274">
        <ele>1993</ele>
        <time>2022-07-24T12:42:34Z</time>
      </trkpt>
      <trkpt lat="45.78609" lon="6.67275">
        <ele>1993</ele>
        <time>2022-07-24T12:42:35Z</time>
      </trkpt>
      <trkpt lat="45.78608" lon="6.67276">
        <ele>1993</ele>
        <time>2022-07-24T12:42:36Z</time>
      </trkpt>
      <trkpt lat="45.78607" lon="6.67277">
        <ele>1993</ele>
        <time>2022-07-24T12:42:37Z</time>
      </trkpt>
      <trkpt lat="45.78606" lon="6.67279">
        <ele>1993</ele>
        <time>2022-07-24T12:42:38Z</time>
      </trkpt>
      <trkpt lat="45.78605" lon="6.6728">
        <ele>1993</ele>
        <time>2022-07-24T12:42:39Z</time>
      </trkpt>
      <trkpt lat="45.78604" lon="6.67281">
        <ele>1993</ele>
        <time>2022-07-24T12:42:40Z</time>
      </trkpt>
      <trkpt lat="45.78603" lon="6.67283">
        <ele>1993</ele>
        <time>2022-07-24T12:42:41Z</time>
      </trkpt>
      <trkpt lat="45.78603" lon="6.67284">
        <ele>1993</ele>
        <time>2022-07-24T12:42:42Z</time>
      </trkpt>
      <trkpt lat="45.78602" lon="6.67285">
        <ele>1993</ele>
        <time>2022-07-24T12:42:43Z</time>
      </trkpt>
      <trkpt lat="45.78601" lon="6.67286">
        <ele>1993</ele>
        <time>2022-07-24T12:42:44Z</time>
      </trkpt>
      <trkpt lat="45.786" lon="6.67288">
        <ele>1993</ele>
        <time>2022-07-24T12:42:45Z</time>
      </trkpt>
      <trkpt lat="45.78599" lon="6.67289">
        <ele>1993</ele>
        <time>2022-07-24T12:42:46Z</time>
      </trkpt>
      <trkpt lat="45.78599" lon="6.6729">
        <ele>1993</ele>
        <time>2022-07-24T12:42:47Z</time>
      </trkpt>
      <trkpt lat="45.78598" lon="6.67291">
        <ele>1993</ele>
        <time>2022-07-24T12:42:48Z</time>
      </trkpt>
      <trkpt lat="45.78597" lon="6.67293">
        <ele>1993</ele>
        <time>2022-07-24T12:42:49Z</time>
      </trkpt>
      <trkpt lat="45.78596" lon="6.67294">
        <ele>1993</ele>
        <time>2022-07-24T12:42:50Z</time>
      </trkpt>
      <trkpt lat="45.78596" lon="6.67295">
        <ele>1993</ele>
        <time>2022-07-24T12:42:51Z</time>
      </trkpt>
      <trkpt lat="45.78595" lon="6.67297">
        <ele>1993</ele>
        <time>2022-07-24T12:42:52Z</time>
      </trkpt>
      <trkpt lat="45.78594" lon="6.67298">
        <ele>1993</ele>
        <time>2022-07-24T12:42:53Z</time>
      </trkpt>
      <trkpt lat="45.78593" lon="6.67299">
        <ele>1993</ele>
        <time>2022-07-24T12:42:54Z</time>
      </trkpt>
      <trkpt lat="45.78593" lon="6.673">
        <ele>1993</ele>
        <time>2022-07-24T12:42:55Z</time>
      </trkpt>
      <trkpt lat="45.78592" lon="6.67302">
        <ele>1993</ele>
        <time>2022-07-24T12:42:56Z</time>
      </trkpt>
      <trkpt lat="45.78591" lon="6.67303">
        <ele>1993</ele>
        <time>2022-07-24T12:42:57Z</time>
      </trkpt>
      <trkpt lat="45.78591" lon="6.67305">
        <ele>1993</ele>
        <time>2022-07-24T12:42:58Z</time>
      </trkpt>
      <trkpt lat="45.7859" lon="6.67306">
        <ele>1993</ele>
        <time>2022-07-24T12:42:59Z</time>
      </trkpt>
      <trkpt lat="45.7859" lon="6.67308">
        <ele>1993</ele>
        <time>2022-07-24T12:43:00Z</time>
      </trkpt>
      <trkpt lat="45.78589" lon="6.67309">
        <ele>1993</ele>
        <time>2022-07-24T12:43:01Z</time>
      </trkpt>
      <trkpt lat="45.78588" lon="6.67311">
        <ele>1993</ele>
        <time>2022-07-24T12:43:02Z</time>
      </trkpt>
      <trkpt lat="45.78588" lon="6.67312">
        <ele>1993</ele>
        <time>2022-07-24T12:43:03Z</time>
      </trkpt>
      <trkpt lat="45.78587" lon="6.67314">
        <ele>1993</ele>
        <time>2022-07-24T12:43:04Z</time>
      </trkpt>
      <trkpt lat="45.78586" lon="6.67315">
        <ele>1993</ele>
        <time>2022-07-24T12:43:05Z</time>
      </trkpt>
      <trkpt lat="45.78586" lon="6.67317">
        <ele>1993</ele>
        <time>2022-07-24T12:43:06Z</time>
      </trkpt>
      <trkpt lat="45.78585" lon="6.67318">
        <ele>1993</ele>
        <time>2022-07-24T12:43:07Z</time>
      </trkpt>
      <trkpt lat="45.78584" lon="6.67319">
        <ele>1993</ele>
        <time>2022-07-24T12:43:08Z</time>
      </trkpt>
      <trkpt lat="45.78584" lon="6.67321">
        <ele>1993</ele>
        <time>2022-07-24T12:43:09Z</time>
      </trkpt>
      <trkpt lat="45.78583" lon="6.67322">
        <ele>1993</ele>
        <time>2022-07-24T12:43:10Z</time>
      </trkpt>
      <trkpt lat="45.78583" lon="6.67324">
        <ele>1993</ele>
        <time>2022-07-24T12:43:11Z</time>
      </trkpt>
      <trkpt lat="45.78582" lon="6.67325">
        <ele>1993</ele>
        <time>2022-07-24T12:43:12Z</time>
      </trkpt>
      <trkpt lat="45.78582" lon="6.67327">
        <ele>1993</ele>
        <time>2022-07-24T12:43:13Z</time>
      </trkpt>
      <trkpt lat="45.78581" lon="6.67328">
        <ele>1993</ele>
        <time>2022-07-24T12:43:14Z</time>
      </trkpt>
      <trkpt lat="45.7858" lon="6.67329">
        <ele>1993</ele>
        <time>2022-07-24T12:43:15Z</time>
      </trkpt>
      <trkpt lat="45.7858" lon="6.67331">
        <ele>1993</ele>
        <time>2022-07-24T12:43:16Z</time>
      </trkpt>
      <trkpt lat="45.78579" lon="6.67332">
        <ele>1993</ele>
        <time>2022-07-24T12:43:17Z</time>
      </trkpt>
      <trkpt lat="45.78579" lon="6.67334">
        <ele>1993</ele>
        <time>2022-07-24T12:43:18Z</time>
      </trkpt>
      <trkpt lat="45.78578" lon="6.67335">
        <ele>1993</ele>
        <time>2022-07-24T12:43:19Z</time>
      </trkpt>
      <trkpt lat="45.78578" lon="6.67337">
        <ele>1993</ele>
        <time>2022-07-24T12:43:20Z</time>
      </trkpt>
      <trkpt lat="45.78577" lon="6.67338">
        <ele>1993</ele>
        <time>2022-07-24T12:43:21Z</time>
      </trkpt>
      <trkpt lat="45.78576" lon="6.6734">
        <ele>1993</ele>
        <time>2022-07-24T12:43:22Z</time>
      </trkpt>
      <trkpt lat="45.78576" lon="6.67341">
        <ele>1993</ele>
        <time>2022-07-24T12:43:23Z</time>
      </trkpt>
      <trkpt lat="45.78575" lon="6.67343">
        <ele>1992</ele>
        <time>2022-07-24T12:43:24Z</time>
      </trkpt>
      <trkpt lat="45.78575" lon="6.67344">
        <ele>1992</ele>
        <time>2022-07-24T12:43:25Z</time>
      </trkpt>
      <trkpt lat="45.78574" lon="6.67346">
        <ele>1992</ele>
        <time>2022-07-24T12:43:26Z</time>
      </trkpt>
      <trkpt lat="45.78574" lon="6.67347">
        <ele>1992</ele>
        <time>2022-07-24T12:43:27Z</time>
      </trkpt>
      <trkpt lat="45.78573" lon="6.67349">
        <ele>1992</ele>
        <time>2022-07-24T12:43:28Z</time>
      </trkpt>
      <trkpt lat="45.78573" lon="6.6735">
        <ele>1992</ele>
        <time>2022-07-24T12:43:29Z</time>
      </trkpt>
      <trkpt lat="45.78572" lon="6.67352">
        <ele>1992</ele>
        <time>2022-07-24T12:43:30Z</time>
      </trkpt>
      <trkpt lat="45.78572" lon="6.67353">
        <ele>1992</ele>
        <time>2022-07-24T12:43:31Z</time>
      </trkpt>
      <trkpt lat="45.78571" lon="6.67355">
        <ele>1992</ele>
        <time>2022-07-24T12:43:32Z</time>
      </trkpt>
      <trkpt lat="45.78571" lon="6.67357">
        <ele>1992</ele>
        <time>2022-07-24T12:43:33Z</time>
      </trkpt>
      <trkpt lat="45.78571" lon="6.67358">
        <ele>1992</ele>
        <time>2022-07-24T12:43:34Z</time>
      </trkpt>
      <trkpt lat="45.7857" lon="6.6736">
        <ele>1992</ele>
        <time>2022-07-24T12:43:35Z</time>
      </trkpt>
      <trkpt lat="45.7857" lon="6.67361">
        <ele>1992</ele>
        <time>2022-07-24T12:43:36Z</time>
      </trkpt>
      <trkpt lat="45.78569" lon="6.67363">
        <ele>1992</ele>
        <time>2022-07-24T12:43:37Z</time>
      </trkpt>
      <trkpt lat="45.78569" lon="6.67364">
        <ele>1992</ele>
        <time>2022-07-24T12:43:38Z</time>
      </trkpt>
      <trkpt lat="45.78568" lon="6.67366">
        <ele>1992</ele>
        <time>2022-07-24T12:43:39Z</time>
      </trkpt>
      <trkpt lat="45.78568" lon="6.67367">
        <ele>1992</ele>
        <time>2022-07-24T12:43:40Z</time>
      </trkpt>
      <trkpt lat="45.78567" lon="6.67369">
        <ele>1992</ele>
        <time>2022-07-24T12:43:41Z</time>
      </trkpt>
      <trkpt lat="45.78566" lon="6.6737">
        <ele>1992</ele>
        <time>2022-07-24T12:43:42Z</time>
      </trkpt>
      <trkpt lat="45.78566" lon="6.67372">
        <ele>1993</ele>
        <time>2022-07-24T12:43:43Z</time>
      </trkpt>
      <trkpt lat="45.78565" lon="6.67373">
        <ele>1993</ele>
        <time>2022-07-24T12:43:44Z</time>
      </trkpt>
      <trkpt lat="45.78565" lon="6.67375">
        <ele>1993</ele>
        <time>2022-07-24T12:43:45Z</time>
      </trkpt>
      <trkpt lat="45.78564" lon="6.67376">
        <ele>1993</ele>
        <time>2022-07-24T12:43:46Z</time>
      </trkpt>
      <trkpt lat="45.78564" lon="6.67378">
        <ele>1993</ele>
        <time>2022-07-24T12:43:47Z</time>
      </trkpt>
      <trkpt lat="45.78563" lon="6.67379">
        <ele>1993</ele>
        <time>2022-07-24T12:43:48Z</time>
      </trkpt>
      <trkpt lat="45.78563" lon="6.67381">
        <ele>1993</ele>
        <time>2022-07-24T12:43:49Z</time>
      </trkpt>
      <trkpt lat="45.78562" lon="6.67382">
        <ele>1993</ele>
        <time>2022-07-24T12:43:50Z</time>
      </trkpt>
      <trkpt lat="45.78562" lon="6.67384">
        <ele>1993</ele>
        <time>2022-07-24T12:43:51Z</time>
      </trkpt>
      <trkpt lat="45.78561" lon="6.67385">
        <ele>1993</ele>
        <time>2022-07-24T12:43:52Z</time>
      </trkpt>
      <trkpt lat="45.78561" lon="6.67387">
        <ele>1993</ele>
        <time>2022-07-24T12:43:53Z</time>
      </trkpt>
      <trkpt lat="45.7856" lon="6.67388">
        <ele>1993</ele>
        <time>2022-07-24T12:43:54Z</time>
      </trkpt>
      <trkpt lat="45.7856" lon="6.67389">
        <ele>1993</ele>
        <time>2022-07-24T12:43:55Z</time>
      </trkpt>
      <trkpt lat="45.78559" lon="6.67391">
        <ele>1993</ele>
        <time>2022-07-24T12:43:56Z</time>
      </trkpt>
      <trkpt lat="45.78558" lon="6.67392">
        <ele>1993</ele>
        <time>2022-07-24T12:43:57Z</time>
      </trkpt>
      <trkpt lat="45.78558" lon="6.67393">
        <ele>1993</ele>
        <time>2022-07-24T12:43:58Z</time>
      </trkpt>
      <trkpt lat="45.78557" lon="6.67394">
        <ele>1993</ele>
        <time>2022-07-24T12:43:59Z</time>
      </trkpt>
      <trkpt lat="45.78556" lon="6.67395">
        <ele>1993</ele>
        <time>2022-07-24T12:44:00Z</time>
      </trkpt>
      <trkpt lat="45.78556" lon="6.67396">
        <ele>1993</ele>
        <time>2022-07-24T12:44:01Z</time>
      </trkpt>
      <trkpt lat="45.78555" lon="6.67398">
        <ele>1993</ele>
        <time>2022-07-24T12:44:02Z</time>
      </trkpt>
      <trkpt lat="45.78554" lon="6.67399">
        <ele>1993</ele>
        <time>2022-07-24T12:44:03Z</time>
      </trkpt>
      <trkpt lat="45.78553" lon="6.674">
        <ele>1992</ele>
        <time>2022-07-24T12:44:04Z</time>
      </trkpt>
      <trkpt lat="45.78553" lon="6.67401">
        <ele>1992</ele>
        <time>2022-07-24T12:44:05Z</time>
      </trkpt>
      <trkpt lat="45.78552" lon="6.67401">
        <ele>1992</ele>
        <time>2022-07-24T12:44:06Z</time>
      </trkpt>
      <trkpt lat="45.78552" lon="6.67402">
        <ele>1992</ele>
        <time>2022-07-24T12:44:07Z</time>
      </trkpt>
      <trkpt lat="45.78552" lon="6.67402">
        <ele>1992</ele>
        <time>2022-07-24T12:44:08Z</time>
      </trkpt>
      <trkpt lat="45.78552" lon="6.67403">
        <ele>1992</ele>
        <time>2022-07-24T12:44:09Z</time>
      </trkpt>
      <trkpt lat="45.78552" lon="6.67404">
        <ele>1992</ele>
        <time>2022-07-24T12:44:10Z</time>
      </trkpt>
      <trkpt lat="45.78552" lon="6.67405">
        <ele>1992</ele>
        <time>2022-07-24T12:44:11Z</time>
      </trkpt>
      <trkpt lat="45.78551" lon="6.67406">
        <ele>1992</ele>
        <time>2022-07-24T12:44:12Z</time>
      </trkpt>
      <trkpt lat="45.78551" lon="6.67407">
        <ele>1992</ele>
        <time>2022-07-24T12:44:13Z</time>
      </trkpt>
      <trkpt lat="45.78551" lon="6.67408">
        <ele>1992</ele>
        <time>2022-07-24T12:44:14Z</time>
      </trkpt>
      <trkpt lat="45.78551" lon="6.67409">
        <ele>1992</ele>
        <time>2022-07-24T12:44:15Z</time>
      </trkpt>
      <trkpt lat="45.7855" lon="6.6741">
        <ele>1992</ele>
        <time>2022-07-24T12:44:16Z</time>
      </trkpt>
      <trkpt lat="45.7855" lon="6.67411">
        <ele>1992</ele>
        <time>2022-07-24T12:44:17Z</time>
      </trkpt>
      <trkpt lat="45.7855" lon="6.67412">
        <ele>1992</ele>
        <time>2022-07-24T12:44:18Z</time>
      </trkpt>
      <trkpt lat="45.78549" lon="6.67414">
        <ele>1992</ele>
        <time>2022-07-24T12:44:31Z</time>
      </trkpt>
      <trkpt lat="45.78548" lon="6.67414">
        <ele>1992</ele>
        <time>2022-07-24T12:44:32Z</time>
      </trkpt>
      <trkpt lat="45.78548" lon="6.67415">
        <ele>1992</ele>
        <time>2022-07-24T12:44:33Z</time>
      </trkpt>
      <trkpt lat="45.78548" lon="6.67416">
        <ele>1992</ele>
        <time>2022-07-24T12:44:34Z</time>
      </trkpt>
      <trkpt lat="45.78547" lon="6.67417">
        <ele>1992</ele>
        <time>2022-07-24T12:44:35Z</time>
      </trkpt>
      <trkpt lat="45.78547" lon="6.67418">
        <ele>1992</ele>
        <time>2022-07-24T12:44:36Z</time>
      </trkpt>
      <trkpt lat="45.78546" lon="6.67419">
        <ele>1992</ele>
        <time>2022-07-24T12:44:37Z</time>
      </trkpt>
      <trkpt lat="45.78545" lon="6.67421">
        <ele>1993</ele>
        <time>2022-07-24T12:44:38Z</time>
      </trkpt>
      <trkpt lat="45.78544" lon="6.67422">
        <ele>1993</ele>
        <time>2022-07-24T12:44:39Z</time>
      </trkpt>
      <trkpt lat="45.78544" lon="6.67423">
        <ele>1993</ele>
        <time>2022-07-24T12:44:40Z</time>
      </trkpt>
      <trkpt lat="45.78543" lon="6.67424">
        <ele>1993</ele>
        <time>2022-07-24T12:44:41Z</time>
      </trkpt>
      <trkpt lat="45.78542" lon="6.67425">
        <ele>1993</ele>
        <time>2022-07-24T12:44:42Z</time>
      </trkpt>
      <trkpt lat="45.78541" lon="6.67426">
        <ele>1993</ele>
        <time>2022-07-24T12:44:43Z</time>
      </trkpt>
      <trkpt lat="45.7854" lon="6.67427">
        <ele>1993</ele>
        <time>2022-07-24T12:44:44Z</time>
      </trkpt>
      <trkpt lat="45.78539" lon="6.67428">
        <ele>1993</ele>
        <time>2022-07-24T12:44:45Z</time>
      </trkpt>
      <trkpt lat="45.78539" lon="6.67429">
        <ele>1993</ele>
        <time>2022-07-24T12:44:46Z</time>
      </trkpt>
      <trkpt lat="45.78538" lon="6.6743">
        <ele>1993</ele>
        <time>2022-07-24T12:44:47Z</time>
      </trkpt>
      <trkpt lat="45.78537" lon="6.67431">
        <ele>1993</ele>
        <time>2022-07-24T12:44:48Z</time>
      </trkpt>
      <trkpt lat="45.78536" lon="6.67432">
        <ele>1993</ele>
        <time>2022-07-24T12:44:49Z</time>
      </trkpt>
      <trkpt lat="45.78536" lon="6.67433">
        <ele>1993</ele>
        <time>2022-07-24T12:44:50Z</time>
      </trkpt>
      <trkpt lat="45.78536" lon="6.67433">
        <ele>1993</ele>
        <time>2022-07-24T12:44:51Z</time>
      </trkpt>
      <trkpt lat="45.78536" lon="6.67433">
        <ele>1993</ele>
        <time>2022-07-24T12:44:52Z</time>
      </trkpt>
      <trkpt lat="45.78535" lon="6.67434">
        <ele>1994</ele>
        <time>2022-07-24T12:44:53Z</time>
      </trkpt>
      <trkpt lat="45.78534" lon="6.67435">
        <ele>1994</ele>
        <time>2022-07-24T12:44:54Z</time>
      </trkpt>
      <trkpt lat="45.78534" lon="6.67435">
        <ele>1994</ele>
        <time>2022-07-24T12:44:55Z</time>
      </trkpt>
      <trkpt lat="45.78533" lon="6.67436">
        <ele>1994</ele>
        <time>2022-07-24T12:44:56Z</time>
      </trkpt>
      <trkpt lat="45.78533" lon="6.67437">
        <ele>1994</ele>
        <time>2022-07-24T12:44:57Z</time>
      </trkpt>
      <trkpt lat="45.78532" lon="6.67437">
        <ele>1994</ele>
        <time>2022-07-24T12:44:58Z</time>
      </trkpt>
      <trkpt lat="45.78531" lon="6.67438">
        <ele>1994</ele>
        <time>2022-07-24T12:44:59Z</time>
      </trkpt>
      <trkpt lat="45.7853" lon="6.67439">
        <ele>1994</ele>
        <time>2022-07-24T12:45:00Z</time>
      </trkpt>
      <trkpt lat="45.78529" lon="6.67439">
        <ele>1994</ele>
        <time>2022-07-24T12:45:01Z</time>
      </trkpt>
      <trkpt lat="45.78528" lon="6.6744">
        <ele>1994</ele>
        <time>2022-07-24T12:45:02Z</time>
      </trkpt>
      <trkpt lat="45.78526" lon="6.6744">
        <ele>1994</ele>
        <time>2022-07-24T12:45:03Z</time>
      </trkpt>
      <trkpt lat="45.78525" lon="6.67441">
        <ele>1994</ele>
        <time>2022-07-24T12:45:04Z</time>
      </trkpt>
      <trkpt lat="45.78524" lon="6.67442">
        <ele>1994</ele>
        <time>2022-07-24T12:45:05Z</time>
      </trkpt>
      <trkpt lat="45.78523" lon="6.67442">
        <ele>1994</ele>
        <time>2022-07-24T12:45:06Z</time>
      </trkpt>
      <trkpt lat="45.78522" lon="6.67443">
        <ele>1994</ele>
        <time>2022-07-24T12:45:07Z</time>
      </trkpt>
      <trkpt lat="45.78521" lon="6.67443">
        <ele>1994</ele>
        <time>2022-07-24T12:45:08Z</time>
      </trkpt>
      <trkpt lat="45.7852" lon="6.67444">
        <ele>1994</ele>
        <time>2022-07-24T12:45:09Z</time>
      </trkpt>
      <trkpt lat="45.78519" lon="6.67445">
        <ele>1994</ele>
        <time>2022-07-24T12:45:10Z</time>
      </trkpt>
      <trkpt lat="45.78518" lon="6.67446">
        <ele>1994</ele>
        <time>2022-07-24T12:45:11Z</time>
      </trkpt>
      <trkpt lat="45.78517" lon="6.67446">
        <ele>1994</ele>
        <time>2022-07-24T12:45:12Z</time>
      </trkpt>
      <trkpt lat="45.78516" lon="6.67447">
        <ele>1994</ele>
        <time>2022-07-24T12:45:13Z</time>
      </trkpt>
      <trkpt lat="45.78515" lon="6.67448">
        <ele>1994</ele>
        <time>2022-07-24T12:45:14Z</time>
      </trkpt>
      <trkpt lat="45.78513" lon="6.67449">
        <ele>1994</ele>
        <time>2022-07-24T12:45:15Z</time>
      </trkpt>
      <trkpt lat="45.78512" lon="6.6745">
        <ele>1994</ele>
        <time>2022-07-24T12:45:16Z</time>
      </trkpt>
      <trkpt lat="45.78511" lon="6.6745">
        <ele>1994</ele>
        <time>2022-07-24T12:45:17Z</time>
      </trkpt>
      <trkpt lat="45.7851" lon="6.67451">
        <ele>1994</ele>
        <time>2022-07-24T12:45:18Z</time>
      </trkpt>
      <trkpt lat="45.78509" lon="6.67451">
        <ele>1993</ele>
        <time>2022-07-24T12:45:19Z</time>
      </trkpt>
      <trkpt lat="45.78508" lon="6.67452">
        <ele>1993</ele>
        <time>2022-07-24T12:45:20Z</time>
      </trkpt>
      <trkpt lat="45.78506" lon="6.67452">
        <ele>1993</ele>
        <time>2022-07-24T12:45:21Z</time>
      </trkpt>
      <trkpt lat="45.78505" lon="6.67453">
        <ele>1993</ele>
        <time>2022-07-24T12:45:22Z</time>
      </trkpt>
      <trkpt lat="45.78504" lon="6.67453">
        <ele>1993</ele>
        <time>2022-07-24T12:45:23Z</time>
      </trkpt>
      <trkpt lat="45.78503" lon="6.67453">
        <ele>1993</ele>
        <time>2022-07-24T12:45:24Z</time>
      </trkpt>
      <trkpt lat="45.78502" lon="6.67453">
        <ele>1993</ele>
        <time>2022-07-24T12:45:25Z</time>
      </trkpt>
      <trkpt lat="45.785" lon="6.67454">
        <ele>1993</ele>
        <time>2022-07-24T12:45:26Z</time>
      </trkpt>
      <trkpt lat="45.78499" lon="6.67454">
        <ele>1993</ele>
        <time>2022-07-24T12:45:27Z</time>
      </trkpt>
      <trkpt lat="45.78498" lon="6.67454">
        <ele>1993</ele>
        <time>2022-07-24T12:45:28Z</time>
      </trkpt>
      <trkpt lat="45.78497" lon="6.67454">
        <ele>1992</ele>
        <time>2022-07-24T12:45:29Z</time>
      </trkpt>
      <trkpt lat="45.78497" lon="6.67455">
        <ele>1992</ele>
        <time>2022-07-24T12:45:30Z</time>
      </trkpt>
      <trkpt lat="45.78496" lon="6.67455">
        <ele>1992</ele>
        <time>2022-07-24T12:45:31Z</time>
      </trkpt>
      <trkpt lat="45.78495" lon="6.67455">
        <ele>1992</ele>
        <time>2022-07-24T12:45:32Z</time>
      </trkpt>
      <trkpt lat="45.78494" lon="6.67456">
        <ele>1992</ele>
        <time>2022-07-24T12:45:33Z</time>
      </trkpt>
      <trkpt lat="45.78494" lon="6.67456">
        <ele>1992</ele>
        <time>2022-07-24T12:45:34Z</time>
      </trkpt>
      <trkpt lat="45.78493" lon="6.67457">
        <ele>1992</ele>
        <time>2022-07-24T12:45:35Z</time>
      </trkpt>
      <trkpt lat="45.78492" lon="6.67458">
        <ele>1992</ele>
        <time>2022-07-24T12:45:36Z</time>
      </trkpt>
      <trkpt lat="45.78492" lon="6.67459">
        <ele>1992</ele>
        <time>2022-07-24T12:45:37Z</time>
      </trkpt>
      <trkpt lat="45.78491" lon="6.67459">
        <ele>1992</ele>
        <time>2022-07-24T12:45:38Z</time>
      </trkpt>
      <trkpt lat="45.7849" lon="6.6746">
        <ele>1992</ele>
        <time>2022-07-24T12:45:39Z</time>
      </trkpt>
      <trkpt lat="45.78488" lon="6.6746">
        <ele>1992</ele>
        <time>2022-07-24T12:45:40Z</time>
      </trkpt>
      <trkpt lat="45.78487" lon="6.6746">
        <ele>1992</ele>
        <time>2022-07-24T12:45:41Z</time>
      </trkpt>
      <trkpt lat="45.78486" lon="6.6746">
        <ele>1992</ele>
        <time>2022-07-24T12:45:42Z</time>
      </trkpt>
      <trkpt lat="45.78485" lon="6.6746">
        <ele>1992</ele>
        <time>2022-07-24T12:45:43Z</time>
      </trkpt>
      <trkpt lat="45.78484" lon="6.67459">
        <ele>1991</ele>
        <time>2022-07-24T12:45:44Z</time>
      </trkpt>
      <trkpt lat="45.78483" lon="6.67459">
        <ele>1991</ele>
        <time>2022-07-24T12:45:45Z</time>
      </trkpt>
      <trkpt lat="45.78482" lon="6.67459">
        <ele>1991</ele>
        <time>2022-07-24T12:45:46Z</time>
      </trkpt>
      <trkpt lat="45.7848" lon="6.67458">
        <ele>1991</ele>
        <time>2022-07-24T12:45:47Z</time>
      </trkpt>
      <trkpt lat="45.78479" lon="6.67458">
        <ele>1991</ele>
        <time>2022-07-24T12:45:48Z</time>
      </trkpt>
      <trkpt lat="45.78478" lon="6.67457">
        <ele>1991</ele>
        <time>2022-07-24T12:45:49Z</time>
      </trkpt>
      <trkpt lat="45.78477" lon="6.67457">
        <ele>1991</ele>
        <time>2022-07-24T12:45:50Z</time>
      </trkpt>
      <trkpt lat="45.78476" lon="6.67456">
        <ele>1991</ele>
        <time>2022-07-24T12:45:51Z</time>
      </trkpt>
      <trkpt lat="45.78475" lon="6.67456">
        <ele>1991</ele>
        <time>2022-07-24T12:45:52Z</time>
      </trkpt>
      <trkpt lat="45.78474" lon="6.67456">
        <ele>1991</ele>
        <time>2022-07-24T12:45:53Z</time>
      </trkpt>
      <trkpt lat="45.78472" lon="6.67455">
        <ele>1991</ele>
        <time>2022-07-24T12:45:54Z</time>
      </trkpt>
      <trkpt lat="45.78471" lon="6.67455">
        <ele>1991</ele>
        <time>2022-07-24T12:45:55Z</time>
      </trkpt>
      <trkpt lat="45.7847" lon="6.67454">
        <ele>1991</ele>
        <time>2022-07-24T12:45:56Z</time>
      </trkpt>
      <trkpt lat="45.78469" lon="6.67454">
        <ele>1991</ele>
        <time>2022-07-24T12:45:57Z</time>
      </trkpt>
      <trkpt lat="45.78468" lon="6.67454">
        <ele>1991</ele>
        <time>2022-07-24T12:45:58Z</time>
      </trkpt>
      <trkpt lat="45.78467" lon="6.67453">
        <ele>1990</ele>
        <time>2022-07-24T12:45:59Z</time>
      </trkpt>
      <trkpt lat="45.78465" lon="6.67453">
        <ele>1990</ele>
        <time>2022-07-24T12:46:00Z</time>
      </trkpt>
      <trkpt lat="45.78464" lon="6.67453">
        <ele>1990</ele>
        <time>2022-07-24T12:46:01Z</time>
      </trkpt>
      <trkpt lat="45.78463" lon="6.67452">
        <ele>1990</ele>
        <time>2022-07-24T12:46:02Z</time>
      </trkpt>
      <trkpt lat="45.78462" lon="6.67452">
        <ele>1990</ele>
        <time>2022-07-24T12:46:03Z</time>
      </trkpt>
      <trkpt lat="45.78461" lon="6.67452">
        <ele>1990</ele>
        <time>2022-07-24T12:46:04Z</time>
      </trkpt>
      <trkpt lat="45.78459" lon="6.67451">
        <ele>1990</ele>
        <time>2022-07-24T12:46:05Z</time>
      </trkpt>
      <trkpt lat="45.78458" lon="6.67451">
        <ele>1990</ele>
        <time>2022-07-24T12:46:06Z</time>
      </trkpt>
      <trkpt lat="45.78457" lon="6.67451">
        <ele>1990</ele>
        <time>2022-07-24T12:46:07Z</time>
      </trkpt>
      <trkpt lat="45.78456" lon="6.67451">
        <ele>1990</ele>
        <time>2022-07-24T12:46:08Z</time>
      </trkpt>
      <trkpt lat="45.78454" lon="6.6745">
        <ele>1990</ele>
        <time>2022-07-24T12:46:09Z</time>
      </trkpt>
      <trkpt lat="45.78453" lon="6.6745">
        <ele>1990</ele>
        <time>2022-07-24T12:46:10Z</time>
      </trkpt>
      <trkpt lat="45.78452" lon="6.6745">
        <ele>1990</ele>
        <time>2022-07-24T12:46:11Z</time>
      </trkpt>
      <trkpt lat="45.78451" lon="6.6745">
        <ele>1990</ele>
        <time>2022-07-24T12:46:12Z</time>
      </trkpt>
      <trkpt lat="45.78449" lon="6.67449">
        <ele>1990</ele>
        <time>2022-07-24T12:46:13Z</time>
      </trkpt>
      <trkpt lat="45.78448" lon="6.67449">
        <ele>1990</ele>
        <time>2022-07-24T12:46:14Z</time>
      </trkpt>
      <trkpt lat="45.78447" lon="6.67448">
        <ele>1990</ele>
        <time>2022-07-24T12:46:15Z</time>
      </trkpt>
      <trkpt lat="45.78446" lon="6.67448">
        <ele>1990</ele>
        <time>2022-07-24T12:46:16Z</time>
      </trkpt>
      <trkpt lat="45.78444" lon="6.67447">
        <ele>1990</ele>
        <time>2022-07-24T12:46:17Z</time>
      </trkpt>
      <trkpt lat="45.78443" lon="6.67447">
        <ele>1990</ele>
        <time>2022-07-24T12:46:18Z</time>
      </trkpt>
      <trkpt lat="45.78442" lon="6.67446">
        <ele>1990</ele>
        <time>2022-07-24T12:46:19Z</time>
      </trkpt>
      <trkpt lat="45.78441" lon="6.67445">
        <ele>1990</ele>
        <time>2022-07-24T12:46:20Z</time>
      </trkpt>
      <trkpt lat="45.7844" lon="6.67445">
        <ele>1990</ele>
        <time>2022-07-24T12:46:21Z</time>
      </trkpt>
      <trkpt lat="45.78439" lon="6.67444">
        <ele>1990</ele>
        <time>2022-07-24T12:46:22Z</time>
      </trkpt>
      <trkpt lat="45.78438" lon="6.67444">
        <ele>1990</ele>
        <time>2022-07-24T12:46:23Z</time>
      </trkpt>
      <trkpt lat="45.78437" lon="6.67444">
        <ele>1990</ele>
        <time>2022-07-24T12:46:24Z</time>
      </trkpt>
      <trkpt lat="45.78436" lon="6.67444">
        <ele>1990</ele>
        <time>2022-07-24T12:46:25Z</time>
      </trkpt>
      <trkpt lat="45.78434" lon="6.67443">
        <ele>1990</ele>
        <time>2022-07-24T12:46:26Z</time>
      </trkpt>
      <trkpt lat="45.78433" lon="6.67443">
        <ele>1990</ele>
        <time>2022-07-24T12:46:27Z</time>
      </trkpt>
      <trkpt lat="45.78432" lon="6.67442">
        <ele>1990</ele>
        <time>2022-07-24T12:46:28Z</time>
      </trkpt>
      <trkpt lat="45.78431" lon="6.67441">
        <ele>1989</ele>
        <time>2022-07-24T12:46:29Z</time>
      </trkpt>
      <trkpt lat="45.7843" lon="6.67441">
        <ele>1989</ele>
        <time>2022-07-24T12:46:30Z</time>
      </trkpt>
      <trkpt lat="45.78429" lon="6.6744">
        <ele>1989</ele>
        <time>2022-07-24T12:46:31Z</time>
      </trkpt>
      <trkpt lat="45.78429" lon="6.6744">
        <ele>1989</ele>
        <time>2022-07-24T12:46:32Z</time>
      </trkpt>
      <trkpt lat="45.78429" lon="6.67439">
        <ele>1989</ele>
        <time>2022-07-24T12:46:33Z</time>
      </trkpt>
      <trkpt lat="45.78429" lon="6.67439">
        <ele>1989</ele>
        <time>2022-07-24T12:46:34Z</time>
      </trkpt>
      <trkpt lat="45.78428" lon="6.67439">
        <ele>1989</ele>
        <time>2022-07-24T12:46:35Z</time>
      </trkpt>
      <trkpt lat="45.78427" lon="6.67438">
        <ele>1989</ele>
        <time>2022-07-24T12:46:36Z</time>
      </trkpt>
      <trkpt lat="45.78427" lon="6.67437">
        <ele>1989</ele>
        <time>2022-07-24T12:46:37Z</time>
      </trkpt>
      <trkpt lat="45.78426" lon="6.67437">
        <ele>1989</ele>
        <time>2022-07-24T12:46:38Z</time>
      </trkpt>
      <trkpt lat="45.78425" lon="6.67436">
        <ele>1989</ele>
        <time>2022-07-24T12:46:39Z</time>
      </trkpt>
      <trkpt lat="45.78424" lon="6.67435">
        <ele>1989</ele>
        <time>2022-07-24T12:46:40Z</time>
      </trkpt>
      <trkpt lat="45.78423" lon="6.67434">
        <ele>1989</ele>
        <time>2022-07-24T12:46:41Z</time>
      </trkpt>
      <trkpt lat="45.78422" lon="6.67433">
        <ele>1989</ele>
        <time>2022-07-24T12:46:42Z</time>
      </trkpt>
      <trkpt lat="45.78422" lon="6.67433">
        <ele>1989</ele>
        <time>2022-07-24T12:46:43Z</time>
      </trkpt>
      <trkpt lat="45.78421" lon="6.67432">
        <ele>1989</ele>
        <time>2022-07-24T12:46:44Z</time>
      </trkpt>
      <trkpt lat="45.7842" lon="6.67431">
        <ele>1989</ele>
        <time>2022-07-24T12:46:45Z</time>
      </trkpt>
      <trkpt lat="45.78419" lon="6.6743">
        <ele>1989</ele>
        <time>2022-07-24T12:46:46Z</time>
      </trkpt>
      <trkpt lat="45.78418" lon="6.6743">
        <ele>1989</ele>
        <time>2022-07-24T12:46:47Z</time>
      </trkpt>
      <trkpt lat="45.78417" lon="6.6743">
        <ele>1989</ele>
        <time>2022-07-24T12:46:48Z</time>
      </trkpt>
      <trkpt lat="45.78417" lon="6.67429">
        <ele>1989</ele>
        <time>2022-07-24T12:46:49Z</time>
      </trkpt>
      <trkpt lat="45.78416" lon="6.67429">
        <ele>1989</ele>
        <time>2022-07-24T12:46:50Z</time>
      </trkpt>
      <trkpt lat="45.78415" lon="6.67428">
        <ele>1989</ele>
        <time>2022-07-24T12:46:51Z</time>
      </trkpt>
      <trkpt lat="45.78414" lon="6.67427">
        <ele>1989</ele>
        <time>2022-07-24T12:46:52Z</time>
      </trkpt>
      <trkpt lat="45.78413" lon="6.67426">
        <ele>1989</ele>
        <time>2022-07-24T12:46:53Z</time>
      </trkpt>
      <trkpt lat="45.78413" lon="6.67425">
        <ele>1989</ele>
        <time>2022-07-24T12:46:54Z</time>
      </trkpt>
      <trkpt lat="45.78412" lon="6.67424">
        <ele>1989</ele>
        <time>2022-07-24T12:46:55Z</time>
      </trkpt>
      <trkpt lat="45.78411" lon="6.67423">
        <ele>1989</ele>
        <time>2022-07-24T12:46:56Z</time>
      </trkpt>
      <trkpt lat="45.7841" lon="6.67422">
        <ele>1989</ele>
        <time>2022-07-24T12:46:57Z</time>
      </trkpt>
      <trkpt lat="45.78409" lon="6.6742">
        <ele>1989</ele>
        <time>2022-07-24T12:46:58Z</time>
      </trkpt>
      <trkpt lat="45.78408" lon="6.67419">
        <ele>1988</ele>
        <time>2022-07-24T12:46:59Z</time>
      </trkpt>
      <trkpt lat="45.78408" lon="6.67418">
        <ele>1988</ele>
        <time>2022-07-24T12:47:00Z</time>
      </trkpt>
      <trkpt lat="45.78407" lon="6.67418">
        <ele>1988</ele>
        <time>2022-07-24T12:47:01Z</time>
      </trkpt>
      <trkpt lat="45.78406" lon="6.67417">
        <ele>1988</ele>
        <time>2022-07-24T12:47:02Z</time>
      </trkpt>
      <trkpt lat="45.78405" lon="6.67417">
        <ele>1988</ele>
        <time>2022-07-24T12:47:03Z</time>
      </trkpt>
      <trkpt lat="45.78404" lon="6.67417">
        <ele>1988</ele>
        <time>2022-07-24T12:47:04Z</time>
      </trkpt>
      <trkpt lat="45.78403" lon="6.67418">
        <ele>1988</ele>
        <time>2022-07-24T12:47:36Z</time>
      </trkpt>
      <trkpt lat="45.78403" lon="6.67418">
        <ele>1988</ele>
        <time>2022-07-24T12:47:37Z</time>
      </trkpt>
      <trkpt lat="45.78403" lon="6.67419">
        <ele>1988</ele>
        <time>2022-07-24T12:47:38Z</time>
      </trkpt>
      <trkpt lat="45.78402" lon="6.6742">
        <ele>1988</ele>
        <time>2022-07-24T12:47:39Z</time>
      </trkpt>
      <trkpt lat="45.78402" lon="6.67421">
        <ele>1988</ele>
        <time>2022-07-24T12:47:40Z</time>
      </trkpt>
      <trkpt lat="45.78401" lon="6.67422">
        <ele>1988</ele>
        <time>2022-07-24T12:47:41Z</time>
      </trkpt>
      <trkpt lat="45.78401" lon="6.67422">
        <ele>1988</ele>
        <time>2022-07-24T12:47:42Z</time>
      </trkpt>
      <trkpt lat="45.784" lon="6.67423">
        <ele>1988</ele>
        <time>2022-07-24T12:53:26Z</time>
      </trkpt>
      <trkpt lat="45.784" lon="6.67423">
        <ele>1988</ele>
        <time>2022-07-24T12:53:27Z</time>
      </trkpt>
      <trkpt lat="45.784" lon="6.67423">
        <ele>1988</ele>
        <time>2022-07-24T12:53:28Z</time>
      </trkpt>
      <trkpt lat="45.784" lon="6.67424">
        <ele>1987</ele>
        <time>2022-07-24T12:53:36Z</time>
      </trkpt>
      <trkpt lat="45.784" lon="6.67424">
        <ele>1987</ele>
        <time>2022-07-24T12:53:37Z</time>
      </trkpt>
      <trkpt lat="45.78401" lon="6.67425">
        <ele>1987</ele>
        <time>2022-07-24T12:53:38Z</time>
      </trkpt>
      <trkpt lat="45.78401" lon="6.67426">
        <ele>1987</ele>
        <time>2022-07-24T12:53:39Z</time>
      </trkpt>
      <trkpt lat="45.78401" lon="6.67426">
        <ele>1987</ele>
        <time>2022-07-24T12:53:40Z</time>
      </trkpt>
      <trkpt lat="45.78401" lon="6.67427">
        <ele>1987</ele>
        <time>2022-07-24T12:53:41Z</time>
      </trkpt>
      <trkpt lat="45.78402" lon="6.67428">
        <ele>1987</ele>
        <time>2022-07-24T12:53:42Z</time>
      </trkpt>
      <trkpt lat="45.78402" lon="6.6743">
        <ele>1987</ele>
        <time>2022-07-24T12:53:43Z</time>
      </trkpt>
      <trkpt lat="45.78402" lon="6.67431">
        <ele>1986</ele>
        <time>2022-07-24T12:53:44Z</time>
      </trkpt>
      <trkpt lat="45.78403" lon="6.67433">
        <ele>1986</ele>
        <time>2022-07-24T12:53:45Z</time>
      </trkpt>
      <trkpt lat="45.78403" lon="6.67435">
        <ele>1986</ele>
        <time>2022-07-24T12:53:46Z</time>
      </trkpt>
      <trkpt lat="45.78404" lon="6.67436">
        <ele>1986</ele>
        <time>2022-07-24T12:53:47Z</time>
      </trkpt>
      <trkpt lat="45.78404" lon="6.67438">
        <ele>1986</ele>
        <time>2022-07-24T12:53:48Z</time>
      </trkpt>
      <trkpt lat="45.78405" lon="6.6744">
        <ele>1986</ele>
        <time>2022-07-24T12:53:49Z</time>
      </trkpt>
      <trkpt lat="45.78406" lon="6.67441">
        <ele>1986</ele>
        <time>2022-07-24T12:53:50Z</time>
      </trkpt>
      <trkpt lat="45.78407" lon="6.67442">
        <ele>1986</ele>
        <time>2022-07-24T12:53:51Z</time>
      </trkpt>
      <trkpt lat="45.78408" lon="6.67444">
        <ele>1986</ele>
        <time>2022-07-24T12:53:52Z</time>
      </trkpt>
      <trkpt lat="45.78409" lon="6.67445">
        <ele>1986</ele>
        <time>2022-07-24T12:53:53Z</time>
      </trkpt>
      <trkpt lat="45.7841" lon="6.67446">
        <ele>1985</ele>
        <time>2022-07-24T12:53:54Z</time>
      </trkpt>
      <trkpt lat="45.78411" lon="6.67448">
        <ele>1985</ele>
        <time>2022-07-24T12:53:55Z</time>
      </trkpt>
      <trkpt lat="45.78412" lon="6.67449">
        <ele>1985</ele>
        <time>2022-07-24T12:53:56Z</time>
      </trkpt>
      <trkpt lat="45.78413" lon="6.6745">
        <ele>1985</ele>
        <time>2022-07-24T12:53:57Z</time>
      </trkpt>
      <trkpt lat="45.78413" lon="6.67451">
        <ele>1985</ele>
        <time>2022-07-24T12:53:58Z</time>
      </trkpt>
      <trkpt lat="45.78414" lon="6.67453">
        <ele>1985</ele>
        <time>2022-07-24T12:53:59Z</time>
      </trkpt>
      <trkpt lat="45.78415" lon="6.67454">
        <ele>1985</ele>
        <time>2022-07-24T12:54:00Z</time>
      </trkpt>
      <trkpt lat="45.78416" lon="6.67456">
        <ele>1985</ele>
        <time>2022-07-24T12:54:01Z</time>
      </trkpt>
      <trkpt lat="45.78417" lon="6.67457">
        <ele>1985</ele>
        <time>2022-07-24T12:54:02Z</time>
      </trkpt>
      <trkpt lat="45.78418" lon="6.67458">
        <ele>1985</ele>
        <time>2022-07-24T12:54:03Z</time>
      </trkpt>
      <trkpt lat="45.78419" lon="6.6746">
        <ele>1984</ele>
        <time>2022-07-24T12:54:04Z</time>
      </trkpt>
      <trkpt lat="45.78419" lon="6.67461">
        <ele>1984</ele>
        <time>2022-07-24T12:54:05Z</time>
      </trkpt>
      <trkpt lat="45.7842" lon="6.67462">
        <ele>1984</ele>
        <time>2022-07-24T12:54:06Z</time>
      </trkpt>
      <trkpt lat="45.78421" lon="6.67464">
        <ele>1984</ele>
        <time>2022-07-24T12:54:07Z</time>
      </trkpt>
      <trkpt lat="45.78422" lon="6.67465">
        <ele>1984</ele>
        <time>2022-07-24T12:54:08Z</time>
      </trkpt>
      <trkpt lat="45.78423" lon="6.67466">
        <ele>1984</ele>
        <time>2022-07-24T12:54:09Z</time>
      </trkpt>
      <trkpt lat="45.78424" lon="6.67467">
        <ele>1984</ele>
        <time>2022-07-24T12:54:10Z</time>
      </trkpt>
      <trkpt lat="45.78425" lon="6.67468">
        <ele>1984</ele>
        <time>2022-07-24T12:54:11Z</time>
      </trkpt>
      <trkpt lat="45.78426" lon="6.67469">
        <ele>1984</ele>
        <time>2022-07-24T12:54:12Z</time>
      </trkpt>
      <trkpt lat="45.78427" lon="6.6747">
        <ele>1984</ele>
        <time>2022-07-24T12:54:13Z</time>
      </trkpt>
      <trkpt lat="45.78428" lon="6.67471">
        <ele>1983</ele>
        <time>2022-07-24T12:54:14Z</time>
      </trkpt>
      <trkpt lat="45.78429" lon="6.67472">
        <ele>1983</ele>
        <time>2022-07-24T12:54:15Z</time>
      </trkpt>
      <trkpt lat="45.7843" lon="6.67473">
        <ele>1983</ele>
        <time>2022-07-24T12:54:16Z</time>
      </trkpt>
      <trkpt lat="45.78431" lon="6.67474">
        <ele>1983</ele>
        <time>2022-07-24T12:54:17Z</time>
      </trkpt>
      <trkpt lat="45.78432" lon="6.67475">
        <ele>1983</ele>
        <time>2022-07-24T12:54:18Z</time>
      </trkpt>
      <trkpt lat="45.78433" lon="6.67476">
        <ele>1982</ele>
        <time>2022-07-24T12:54:19Z</time>
      </trkpt>
      <trkpt lat="45.78434" lon="6.67477">
        <ele>1982</ele>
        <time>2022-07-24T12:54:20Z</time>
      </trkpt>
      <trkpt lat="45.78435" lon="6.67478">
        <ele>1982</ele>
        <time>2022-07-24T12:54:21Z</time>
      </trkpt>
      <trkpt lat="45.78436" lon="6.67479">
        <ele>1982</ele>
        <time>2022-07-24T12:54:22Z</time>
      </trkpt>
      <trkpt lat="45.78437" lon="6.6748">
        <ele>1982</ele>
        <time>2022-07-24T12:54:23Z</time>
      </trkpt>
      <trkpt lat="45.78438" lon="6.67481">
        <ele>1982</ele>
        <time>2022-07-24T12:54:24Z</time>
      </trkpt>
      <trkpt lat="45.78439" lon="6.67483">
        <ele>1982</ele>
        <time>2022-07-24T12:54:25Z</time>
      </trkpt>
      <trkpt lat="45.7844" lon="6.67484">
        <ele>1982</ele>
        <time>2022-07-24T12:54:26Z</time>
      </trkpt>
      <trkpt lat="45.7844" lon="6.67485">
        <ele>1982</ele>
        <time>2022-07-24T12:54:27Z</time>
      </trkpt>
      <trkpt lat="45.78441" lon="6.67486">
        <ele>1982</ele>
        <time>2022-07-24T12:54:28Z</time>
      </trkpt>
      <trkpt lat="45.78442" lon="6.67487">
        <ele>1981</ele>
        <time>2022-07-24T12:54:29Z</time>
      </trkpt>
      <trkpt lat="45.78443" lon="6.67488">
        <ele>1981</ele>
        <time>2022-07-24T12:54:30Z</time>
      </trkpt>
      <trkpt lat="45.78444" lon="6.67489">
        <ele>1981</ele>
        <time>2022-07-24T12:54:31Z</time>
      </trkpt>
      <trkpt lat="45.78444" lon="6.67491">
        <ele>1981</ele>
        <time>2022-07-24T12:54:32Z</time>
      </trkpt>
      <trkpt lat="45.78445" lon="6.67492">
        <ele>1981</ele>
        <time>2022-07-24T12:54:33Z</time>
      </trkpt>
      <trkpt lat="45.78446" lon="6.67493">
        <ele>1981</ele>
        <time>2022-07-24T12:54:34Z</time>
      </trkpt>
      <trkpt lat="45.78447" lon="6.67494">
        <ele>1981</ele>
        <time>2022-07-24T12:54:35Z</time>
      </trkpt>
      <trkpt lat="45.78447" lon="6.67495">
        <ele>1981</ele>
        <time>2022-07-24T12:54:36Z</time>
      </trkpt>
      <trkpt lat="45.78448" lon="6.67496">
        <ele>1981</ele>
        <time>2022-07-24T12:54:37Z</time>
      </trkpt>
      <trkpt lat="45.78449" lon="6.67497">
        <ele>1981</ele>
        <time>2022-07-24T12:54:38Z</time>
      </trkpt>
      <trkpt lat="45.78449" lon="6.67499">
        <ele>1980</ele>
        <time>2022-07-24T12:54:39Z</time>
      </trkpt>
      <trkpt lat="45.7845" lon="6.675">
        <ele>1980</ele>
        <time>2022-07-24T12:54:40Z</time>
      </trkpt>
      <trkpt lat="45.7845" lon="6.67501">
        <ele>1980</ele>
        <time>2022-07-24T12:54:41Z</time>
      </trkpt>
      <trkpt lat="45.78451" lon="6.67502">
        <ele>1980</ele>
        <time>2022-07-24T12:54:42Z</time>
      </trkpt>
      <trkpt lat="45.78451" lon="6.67503">
        <ele>1980</ele>
        <time>2022-07-24T12:54:43Z</time>
      </trkpt>
      <trkpt lat="45.78452" lon="6.67505">
        <ele>1979</ele>
        <time>2022-07-24T12:54:44Z</time>
      </trkpt>
      <trkpt lat="45.78453" lon="6.67506">
        <ele>1979</ele>
        <time>2022-07-24T12:54:45Z</time>
      </trkpt>
      <trkpt lat="45.78453" lon="6.67507">
        <ele>1979</ele>
        <time>2022-07-24T12:54:46Z</time>
      </trkpt>
      <trkpt lat="45.78454" lon="6.67508">
        <ele>1979</ele>
        <time>2022-07-24T12:54:47Z</time>
      </trkpt>
      <trkpt lat="45.78454" lon="6.6751">
        <ele>1979</ele>
        <time>2022-07-24T12:54:48Z</time>
      </trkpt>
      <trkpt lat="45.78454" lon="6.67511">
        <ele>1979</ele>
        <time>2022-07-24T12:54:49Z</time>
      </trkpt>
      <trkpt lat="45.78454" lon="6.67512">
        <ele>1979</ele>
        <time>2022-07-24T12:54:50Z</time>
      </trkpt>
      <trkpt lat="45.78454" lon="6.67514">
        <ele>1979</ele>
        <time>2022-07-24T12:54:51Z</time>
      </trkpt>
      <trkpt lat="45.78454" lon="6.67515">
        <ele>1979</ele>
        <time>2022-07-24T12:54:52Z</time>
      </trkpt>
      <trkpt lat="45.78453" lon="6.67516">
        <ele>1979</ele>
        <time>2022-07-24T12:54:53Z</time>
      </trkpt>
      <trkpt lat="45.78452" lon="6.67517">
        <ele>1978</ele>
        <time>2022-07-24T12:54:54Z</time>
      </trkpt>
      <trkpt lat="45.78451" lon="6.67517">
        <ele>1978</ele>
        <time>2022-07-24T12:54:55Z</time>
      </trkpt>
      <trkpt lat="45.7845" lon="6.67517">
        <ele>1978</ele>
        <time>2022-07-24T12:54:56Z</time>
      </trkpt>
      <trkpt lat="45.78449" lon="6.67516">
        <ele>1978</ele>
        <time>2022-07-24T12:54:57Z</time>
      </trkpt>
      <trkpt lat="45.78448" lon="6.67515">
        <ele>1978</ele>
        <time>2022-07-24T12:54:58Z</time>
      </trkpt>
      <trkpt lat="45.78447" lon="6.67514">
        <ele>1977</ele>
        <time>2022-07-24T12:54:59Z</time>
      </trkpt>
      <trkpt lat="45.78446" lon="6.67513">
        <ele>1977</ele>
        <time>2022-07-24T12:55:00Z</time>
      </trkpt>
      <trkpt lat="45.78445" lon="6.67512">
        <ele>1977</ele>
        <time>2022-07-24T12:55:01Z</time>
      </trkpt>
      <trkpt lat="45.78444" lon="6.67511">
        <ele>1977</ele>
        <time>2022-07-24T12:55:02Z</time>
      </trkpt>
      <trkpt lat="45.78442" lon="6.67511">
        <ele>1977</ele>
        <time>2022-07-24T12:55:03Z</time>
      </trkpt>
      <trkpt lat="45.78441" lon="6.6751">
        <ele>1977</ele>
        <time>2022-07-24T12:55:04Z</time>
      </trkpt>
      <trkpt lat="45.7844" lon="6.67509">
        <ele>1977</ele>
        <time>2022-07-24T12:55:05Z</time>
      </trkpt>
      <trkpt lat="45.78439" lon="6.67509">
        <ele>1977</ele>
        <time>2022-07-24T12:55:06Z</time>
      </trkpt>
      <trkpt lat="45.78438" lon="6.67508">
        <ele>1977</ele>
        <time>2022-07-24T12:55:07Z</time>
      </trkpt>
      <trkpt lat="45.78436" lon="6.67508">
        <ele>1977</ele>
        <time>2022-07-24T12:55:08Z</time>
      </trkpt>
      <trkpt lat="45.78435" lon="6.67507">
        <ele>1976</ele>
        <time>2022-07-24T12:55:09Z</time>
      </trkpt>
      <trkpt lat="45.78434" lon="6.67507">
        <ele>1976</ele>
        <time>2022-07-24T12:55:10Z</time>
      </trkpt>
      <trkpt lat="45.78433" lon="6.67507">
        <ele>1975</ele>
        <time>2022-07-24T12:55:11Z</time>
      </trkpt>
      <trkpt lat="45.78432" lon="6.67506">
        <ele>1975</ele>
        <time>2022-07-24T12:55:12Z</time>
      </trkpt>
      <trkpt lat="45.78431" lon="6.67506">
        <ele>1975</ele>
        <time>2022-07-24T12:55:13Z</time>
      </trkpt>
      <trkpt lat="45.7843" lon="6.67506">
        <ele>1974</ele>
        <time>2022-07-24T12:55:14Z</time>
      </trkpt>
      <trkpt lat="45.78429" lon="6.67505">
        <ele>1974</ele>
        <time>2022-07-24T12:55:15Z</time>
      </trkpt>
      <trkpt lat="45.78428" lon="6.67505">
        <ele>1974</ele>
        <time>2022-07-24T12:55:16Z</time>
      </trkpt>
      <trkpt lat="45.78426" lon="6.67505">
        <ele>1974</ele>
        <time>2022-07-24T12:55:17Z</time>
      </trkpt>
      <trkpt lat="45.78425" lon="6.67505">
        <ele>1974</ele>
        <time>2022-07-24T12:55:18Z</time>
      </trkpt>
      <trkpt lat="45.78424" lon="6.67504">
        <ele>1974</ele>
        <time>2022-07-24T12:55:19Z</time>
      </trkpt>
      <trkpt lat="45.78423" lon="6.67504">
        <ele>1974</ele>
        <time>2022-07-24T12:55:20Z</time>
      </trkpt>
      <trkpt lat="45.78422" lon="6.67504">
        <ele>1974</ele>
        <time>2022-07-24T12:55:21Z</time>
      </trkpt>
      <trkpt lat="45.78421" lon="6.67504">
        <ele>1974</ele>
        <time>2022-07-24T12:55:22Z</time>
      </trkpt>
      <trkpt lat="45.78419" lon="6.67504">
        <ele>1974</ele>
        <time>2022-07-24T12:55:23Z</time>
      </trkpt>
      <trkpt lat="45.78418" lon="6.67504">
        <ele>1973</ele>
        <time>2022-07-24T12:55:24Z</time>
      </trkpt>
      <trkpt lat="45.78417" lon="6.67504">
        <ele>1973</ele>
        <time>2022-07-24T12:55:25Z</time>
      </trkpt>
      <trkpt lat="45.78416" lon="6.67503">
        <ele>1973</ele>
        <time>2022-07-24T12:55:26Z</time>
      </trkpt>
      <trkpt lat="45.78414" lon="6.67503">
        <ele>1973</ele>
        <time>2022-07-24T12:55:27Z</time>
      </trkpt>
      <trkpt lat="45.78413" lon="6.67504">
        <ele>1973</ele>
        <time>2022-07-24T12:55:28Z</time>
      </trkpt>
      <trkpt lat="45.78412" lon="6.67504">
        <ele>1973</ele>
        <time>2022-07-24T12:55:29Z</time>
      </trkpt>
      <trkpt lat="45.78411" lon="6.67504">
        <ele>1973</ele>
        <time>2022-07-24T12:55:30Z</time>
      </trkpt>
      <trkpt lat="45.7841" lon="6.67504">
        <ele>1973</ele>
        <time>2022-07-24T12:55:31Z</time>
      </trkpt>
      <trkpt lat="45.78409" lon="6.67504">
        <ele>1973</ele>
        <time>2022-07-24T12:55:32Z</time>
      </trkpt>
      <trkpt lat="45.78407" lon="6.67505">
        <ele>1973</ele>
        <time>2022-07-24T12:55:33Z</time>
      </trkpt>
      <trkpt lat="45.78406" lon="6.67505">
        <ele>1972</ele>
        <time>2022-07-24T12:55:34Z</time>
      </trkpt>
      <trkpt lat="45.78405" lon="6.67505">
        <ele>1972</ele>
        <time>2022-07-24T12:55:35Z</time>
      </trkpt>
      <trkpt lat="45.78404" lon="6.67506">
        <ele>1972</ele>
        <time>2022-07-24T12:55:36Z</time>
      </trkpt>
      <trkpt lat="45.78403" lon="6.67506">
        <ele>1972</ele>
        <time>2022-07-24T12:55:37Z</time>
      </trkpt>
      <trkpt lat="45.78401" lon="6.67507">
        <ele>1972</ele>
        <time>2022-07-24T12:55:38Z</time>
      </trkpt>
      <trkpt lat="45.784" lon="6.67507">
        <ele>1972</ele>
        <time>2022-07-24T12:55:39Z</time>
      </trkpt>
      <trkpt lat="45.78399" lon="6.67508">
        <ele>1972</ele>
        <time>2022-07-24T12:55:40Z</time>
      </trkpt>
      <trkpt lat="45.78398" lon="6.67508">
        <ele>1972</ele>
        <time>2022-07-24T12:55:41Z</time>
      </trkpt>
      <trkpt lat="45.78397" lon="6.67508">
        <ele>1972</ele>
        <time>2022-07-24T12:55:42Z</time>
      </trkpt>
      <trkpt lat="45.78395" lon="6.67509">
        <ele>1972</ele>
        <time>2022-07-24T12:55:43Z</time>
      </trkpt>
      <trkpt lat="45.78394" lon="6.67509">
        <ele>1971</ele>
        <time>2022-07-24T12:55:44Z</time>
      </trkpt>
      <trkpt lat="45.78393" lon="6.67509">
        <ele>1971</ele>
        <time>2022-07-24T12:55:45Z</time>
      </trkpt>
      <trkpt lat="45.78392" lon="6.67509">
        <ele>1971</ele>
        <time>2022-07-24T12:55:46Z</time>
      </trkpt>
      <trkpt lat="45.78391" lon="6.67509">
        <ele>1971</ele>
        <time>2022-07-24T12:55:47Z</time>
      </trkpt>
      <trkpt lat="45.7839" lon="6.67509">
        <ele>1971</ele>
        <time>2022-07-24T12:55:48Z</time>
      </trkpt>
      <trkpt lat="45.78389" lon="6.67509">
        <ele>1970</ele>
        <time>2022-07-24T12:55:49Z</time>
      </trkpt>
      <trkpt lat="45.78388" lon="6.67509">
        <ele>1970</ele>
        <time>2022-07-24T12:55:50Z</time>
      </trkpt>
      <trkpt lat="45.78387" lon="6.67509">
        <ele>1970</ele>
        <time>2022-07-24T12:55:51Z</time>
      </trkpt>
      <trkpt lat="45.78386" lon="6.67509">
        <ele>1970</ele>
        <time>2022-07-24T12:55:52Z</time>
      </trkpt>
      <trkpt lat="45.78385" lon="6.67509">
        <ele>1970</ele>
        <time>2022-07-24T12:55:53Z</time>
      </trkpt>
      <trkpt lat="45.78384" lon="6.67509">
        <ele>1970</ele>
        <time>2022-07-24T12:55:54Z</time>
      </trkpt>
      <trkpt lat="45.78382" lon="6.67509">
        <ele>1970</ele>
        <time>2022-07-24T12:55:55Z</time>
      </trkpt>
      <trkpt lat="45.78381" lon="6.67509">
        <ele>1970</ele>
        <time>2022-07-24T12:55:56Z</time>
      </trkpt>
      <trkpt lat="45.7838" lon="6.67509">
        <ele>1970</ele>
        <time>2022-07-24T12:55:57Z</time>
      </trkpt>
      <trkpt lat="45.78379" lon="6.67509">
        <ele>1970</ele>
        <time>2022-07-24T12:55:58Z</time>
      </trkpt>
      <trkpt lat="45.78378" lon="6.6751">
        <ele>1969</ele>
        <time>2022-07-24T12:55:59Z</time>
      </trkpt>
      <trkpt lat="45.78377" lon="6.6751">
        <ele>1969</ele>
        <time>2022-07-24T12:56:00Z</time>
      </trkpt>
      <trkpt lat="45.78376" lon="6.67511">
        <ele>1969</ele>
        <time>2022-07-24T12:56:01Z</time>
      </trkpt>
      <trkpt lat="45.78375" lon="6.67511">
        <ele>1969</ele>
        <time>2022-07-24T12:56:02Z</time>
      </trkpt>
      <trkpt lat="45.78374" lon="6.67511">
        <ele>1969</ele>
        <time>2022-07-24T12:56:03Z</time>
      </trkpt>
      <trkpt lat="45.78373" lon="6.67512">
        <ele>1969</ele>
        <time>2022-07-24T12:56:04Z</time>
      </trkpt>
      <trkpt lat="45.78372" lon="6.67513">
        <ele>1969</ele>
        <time>2022-07-24T12:56:05Z</time>
      </trkpt>
      <trkpt lat="45.78371" lon="6.67513">
        <ele>1969</ele>
        <time>2022-07-24T12:56:06Z</time>
      </trkpt>
      <trkpt lat="45.7837" lon="6.67514">
        <ele>1969</ele>
        <time>2022-07-24T12:56:07Z</time>
      </trkpt>
      <trkpt lat="45.78369" lon="6.67515">
        <ele>1969</ele>
        <time>2022-07-24T12:56:08Z</time>
      </trkpt>
      <trkpt lat="45.78369" lon="6.67516">
        <ele>1968</ele>
        <time>2022-07-24T12:56:09Z</time>
      </trkpt>
      <trkpt lat="45.78368" lon="6.67518">
        <ele>1968</ele>
        <time>2022-07-24T12:56:10Z</time>
      </trkpt>
      <trkpt lat="45.78367" lon="6.67519">
        <ele>1968</ele>
        <time>2022-07-24T12:56:11Z</time>
      </trkpt>
      <trkpt lat="45.78367" lon="6.6752">
        <ele>1968</ele>
        <time>2022-07-24T12:56:12Z</time>
      </trkpt>
      <trkpt lat="45.78366" lon="6.67521">
        <ele>1968</ele>
        <time>2022-07-24T12:56:13Z</time>
      </trkpt>
      <trkpt lat="45.78365" lon="6.67522">
        <ele>1968</ele>
        <time>2022-07-24T12:56:14Z</time>
      </trkpt>
      <trkpt lat="45.78364" lon="6.67524">
        <ele>1968</ele>
        <time>2022-07-24T12:56:15Z</time>
      </trkpt>
      <trkpt lat="45.78364" lon="6.67525">
        <ele>1968</ele>
        <time>2022-07-24T12:56:16Z</time>
      </trkpt>
      <trkpt lat="45.78363" lon="6.67526">
        <ele>1968</ele>
        <time>2022-07-24T12:56:17Z</time>
      </trkpt>
      <trkpt lat="45.78362" lon="6.67528">
        <ele>1968</ele>
        <time>2022-07-24T12:56:18Z</time>
      </trkpt>
      <trkpt lat="45.78362" lon="6.67529">
        <ele>1968</ele>
        <time>2022-07-24T12:56:19Z</time>
      </trkpt>
      <trkpt lat="45.78361" lon="6.67531">
        <ele>1968</ele>
        <time>2022-07-24T12:56:20Z</time>
      </trkpt>
      <trkpt lat="45.7836" lon="6.67532">
        <ele>1968</ele>
        <time>2022-07-24T12:56:21Z</time>
      </trkpt>
      <trkpt lat="45.7836" lon="6.67534">
        <ele>1968</ele>
        <time>2022-07-24T12:56:22Z</time>
      </trkpt>
      <trkpt lat="45.78359" lon="6.67535">
        <ele>1968</ele>
        <time>2022-07-24T12:56:23Z</time>
      </trkpt>
      <trkpt lat="45.78359" lon="6.67536">
        <ele>1967</ele>
        <time>2022-07-24T12:56:24Z</time>
      </trkpt>
      <trkpt lat="45.78358" lon="6.67537">
        <ele>1967</ele>
        <time>2022-07-24T12:56:25Z</time>
      </trkpt>
      <trkpt lat="45.78357" lon="6.67539">
        <ele>1967</ele>
        <time>2022-07-24T12:56:26Z</time>
      </trkpt>
      <trkpt lat="45.78357" lon="6.6754">
        <ele>1967</ele>
        <time>2022-07-24T12:56:27Z</time>
      </trkpt>
      <trkpt lat="45.78356" lon="6.67542">
        <ele>1967</ele>
        <time>2022-07-24T12:56:28Z</time>
      </trkpt>
      <trkpt lat="45.78356" lon="6.67543">
        <ele>1967</ele>
        <time>2022-07-24T12:56:29Z</time>
      </trkpt>
      <trkpt lat="45.78355" lon="6.67545">
        <ele>1967</ele>
        <time>2022-07-24T12:56:30Z</time>
      </trkpt>
      <trkpt lat="45.78354" lon="6.67546">
        <ele>1967</ele>
        <time>2022-07-24T12:56:31Z</time>
      </trkpt>
      <trkpt lat="45.78354" lon="6.67548">
        <ele>1967</ele>
        <time>2022-07-24T12:56:32Z</time>
      </trkpt>
      <trkpt lat="45.78353" lon="6.67549">
        <ele>1967</ele>
        <time>2022-07-24T12:56:33Z</time>
      </trkpt>
      <trkpt lat="45.78352" lon="6.67551">
        <ele>1966</ele>
        <time>2022-07-24T12:56:34Z</time>
      </trkpt>
      <trkpt lat="45.78352" lon="6.67552">
        <ele>1966</ele>
        <time>2022-07-24T12:56:35Z</time>
      </trkpt>
      <trkpt lat="45.78351" lon="6.67554">
        <ele>1966</ele>
        <time>2022-07-24T12:56:36Z</time>
      </trkpt>
      <trkpt lat="45.7835" lon="6.67555">
        <ele>1966</ele>
        <time>2022-07-24T12:56:37Z</time>
      </trkpt>
      <trkpt lat="45.78349" lon="6.67556">
        <ele>1966</ele>
        <time>2022-07-24T12:56:38Z</time>
      </trkpt>
      <trkpt lat="45.78348" lon="6.67557">
        <ele>1965</ele>
        <time>2022-07-24T12:56:39Z</time>
      </trkpt>
      <trkpt lat="45.78348" lon="6.67559">
        <ele>1965</ele>
        <time>2022-07-24T12:56:40Z</time>
      </trkpt>
      <trkpt lat="45.78347" lon="6.6756">
        <ele>1965</ele>
        <time>2022-07-24T12:56:41Z</time>
      </trkpt>
      <trkpt lat="45.78346" lon="6.67561">
        <ele>1965</ele>
        <time>2022-07-24T12:56:42Z</time>
      </trkpt>
      <trkpt lat="45.78345" lon="6.67562">
        <ele>1965</ele>
        <time>2022-07-24T12:56:43Z</time>
      </trkpt>
      <trkpt lat="45.78344" lon="6.67563">
        <ele>1965</ele>
        <time>2022-07-24T12:56:44Z</time>
      </trkpt>
      <trkpt lat="45.78344" lon="6.67564">
        <ele>1965</ele>
        <time>2022-07-24T12:56:45Z</time>
      </trkpt>
      <trkpt lat="45.78343" lon="6.67565">
        <ele>1965</ele>
        <time>2022-07-24T12:56:46Z</time>
      </trkpt>
      <trkpt lat="45.78342" lon="6.67566">
        <ele>1965</ele>
        <time>2022-07-24T12:56:47Z</time>
      </trkpt>
      <trkpt lat="45.78341" lon="6.67567">
        <ele>1965</ele>
        <time>2022-07-24T12:56:48Z</time>
      </trkpt>
      <trkpt lat="45.7834" lon="6.67568">
        <ele>1964</ele>
        <time>2022-07-24T12:56:49Z</time>
      </trkpt>
      <trkpt lat="45.78339" lon="6.67569">
        <ele>1964</ele>
        <time>2022-07-24T12:56:50Z</time>
      </trkpt>
      <trkpt lat="45.78339" lon="6.6757">
        <ele>1964</ele>
        <time>2022-07-24T12:56:51Z</time>
      </trkpt>
      <trkpt lat="45.78338" lon="6.67571">
        <ele>1964</ele>
        <time>2022-07-24T12:56:52Z</time>
      </trkpt>
      <trkpt lat="45.78337" lon="6.67572">
        <ele>1964</ele>
        <time>2022-07-24T12:56:53Z</time>
      </trkpt>
      <trkpt lat="45.78337" lon="6.67574">
        <ele>1964</ele>
        <time>2022-07-24T12:56:54Z</time>
      </trkpt>
      <trkpt lat="45.78336" lon="6.67575">
        <ele>1964</ele>
        <time>2022-07-24T12:56:55Z</time>
      </trkpt>
      <trkpt lat="45.78336" lon="6.67576">
        <ele>1964</ele>
        <time>2022-07-24T12:56:56Z</time>
      </trkpt>
      <trkpt lat="45.78335" lon="6.67578">
        <ele>1964</ele>
        <time>2022-07-24T12:56:57Z</time>
      </trkpt>
      <trkpt lat="45.78334" lon="6.67579">
        <ele>1964</ele>
        <time>2022-07-24T12:56:58Z</time>
      </trkpt>
      <trkpt lat="45.78334" lon="6.67581">
        <ele>1963</ele>
        <time>2022-07-24T12:56:59Z</time>
      </trkpt>
      <trkpt lat="45.78333" lon="6.67582">
        <ele>1963</ele>
        <time>2022-07-24T12:57:00Z</time>
      </trkpt>
      <trkpt lat="45.78333" lon="6.67584">
        <ele>1963</ele>
        <time>2022-07-24T12:57:01Z</time>
      </trkpt>
      <trkpt lat="45.78332" lon="6.67585">
        <ele>1963</ele>
        <time>2022-07-24T12:57:02Z</time>
      </trkpt>
      <trkpt lat="45.78332" lon="6.67587">
        <ele>1963</ele>
        <time>2022-07-24T12:57:03Z</time>
      </trkpt>
      <trkpt lat="45.78331" lon="6.67588">
        <ele>1963</ele>
        <time>2022-07-24T12:57:04Z</time>
      </trkpt>
      <trkpt lat="45.78331" lon="6.6759">
        <ele>1963</ele>
        <time>2022-07-24T12:57:05Z</time>
      </trkpt>
      <trkpt lat="45.7833" lon="6.67591">
        <ele>1963</ele>
        <time>2022-07-24T12:57:06Z</time>
      </trkpt>
      <trkpt lat="45.7833" lon="6.67593">
        <ele>1963</ele>
        <time>2022-07-24T12:57:07Z</time>
      </trkpt>
      <trkpt lat="45.78329" lon="6.67595">
        <ele>1963</ele>
        <time>2022-07-24T12:57:08Z</time>
      </trkpt>
      <trkpt lat="45.78328" lon="6.67596">
        <ele>1963</ele>
        <time>2022-07-24T12:57:09Z</time>
      </trkpt>
      <trkpt lat="45.78328" lon="6.67598">
        <ele>1963</ele>
        <time>2022-07-24T12:57:10Z</time>
      </trkpt>
      <trkpt lat="45.78327" lon="6.67599">
        <ele>1963</ele>
        <time>2022-07-24T12:57:11Z</time>
      </trkpt>
      <trkpt lat="45.78327" lon="6.67601">
        <ele>1963</ele>
        <time>2022-07-24T12:57:12Z</time>
      </trkpt>
      <trkpt lat="45.78326" lon="6.67602">
        <ele>1963</ele>
        <time>2022-07-24T12:57:13Z</time>
      </trkpt>
      <trkpt lat="45.78326" lon="6.67604">
        <ele>1962</ele>
        <time>2022-07-24T12:57:14Z</time>
      </trkpt>
      <trkpt lat="45.78325" lon="6.67605">
        <ele>1962</ele>
        <time>2022-07-24T12:57:15Z</time>
      </trkpt>
      <trkpt lat="45.78325" lon="6.67607">
        <ele>1962</ele>
        <time>2022-07-24T12:57:16Z</time>
      </trkpt>
      <trkpt lat="45.78324" lon="6.67609">
        <ele>1962</ele>
        <time>2022-07-24T12:57:17Z</time>
      </trkpt>
      <trkpt lat="45.78324" lon="6.6761">
        <ele>1962</ele>
        <time>2022-07-24T12:57:18Z</time>
      </trkpt>
      <trkpt lat="45.78323" lon="6.67612">
        <ele>1962</ele>
        <time>2022-07-24T12:57:19Z</time>
      </trkpt>
      <trkpt lat="45.78323" lon="6.67613">
        <ele>1962</ele>
        <time>2022-07-24T12:57:20Z</time>
      </trkpt>
      <trkpt lat="45.78322" lon="6.67615">
        <ele>1962</ele>
        <time>2022-07-24T12:57:21Z</time>
      </trkpt>
      <trkpt lat="45.78322" lon="6.67616">
        <ele>1962</ele>
        <time>2022-07-24T12:57:22Z</time>
      </trkpt>
      <trkpt lat="45.78321" lon="6.67618">
        <ele>1962</ele>
        <time>2022-07-24T12:57:23Z</time>
      </trkpt>
      <trkpt lat="45.78321" lon="6.67619">
        <ele>1961</ele>
        <time>2022-07-24T12:57:24Z</time>
      </trkpt>
      <trkpt lat="45.7832" lon="6.67621">
        <ele>1961</ele>
        <time>2022-07-24T12:57:25Z</time>
      </trkpt>
      <trkpt lat="45.78319" lon="6.67622">
        <ele>1961</ele>
        <time>2022-07-24T12:57:26Z</time>
      </trkpt>
      <trkpt lat="45.78319" lon="6.67623">
        <ele>1961</ele>
        <time>2022-07-24T12:57:27Z</time>
      </trkpt>
      <trkpt lat="45.78318" lon="6.67625">
        <ele>1961</ele>
        <time>2022-07-24T12:57:28Z</time>
      </trkpt>
      <trkpt lat="45.78318" lon="6.67626">
        <ele>1961</ele>
        <time>2022-07-24T12:57:29Z</time>
      </trkpt>
      <trkpt lat="45.78317" lon="6.67628">
        <ele>1961</ele>
        <time>2022-07-24T12:57:30Z</time>
      </trkpt>
      <trkpt lat="45.78317" lon="6.67629">
        <ele>1961</ele>
        <time>2022-07-24T12:57:31Z</time>
      </trkpt>
      <trkpt lat="45.78316" lon="6.67631">
        <ele>1961</ele>
        <time>2022-07-24T12:57:32Z</time>
      </trkpt>
      <trkpt lat="45.78316" lon="6.67632">
        <ele>1961</ele>
        <time>2022-07-24T12:57:33Z</time>
      </trkpt>
      <trkpt lat="45.78316" lon="6.67634">
        <ele>1961</ele>
        <time>2022-07-24T12:57:34Z</time>
      </trkpt>
      <trkpt lat="45.78315" lon="6.67636">
        <ele>1961</ele>
        <time>2022-07-24T12:57:35Z</time>
      </trkpt>
      <trkpt lat="45.78315" lon="6.67637">
        <ele>1961</ele>
        <time>2022-07-24T12:57:36Z</time>
      </trkpt>
      <trkpt lat="45.78314" lon="6.67639">
        <ele>1961</ele>
        <time>2022-07-24T12:57:37Z</time>
      </trkpt>
      <trkpt lat="45.78314" lon="6.6764">
        <ele>1961</ele>
        <time>2022-07-24T12:57:38Z</time>
      </trkpt>
      <trkpt lat="45.78314" lon="6.67642">
        <ele>1960</ele>
        <time>2022-07-24T12:57:39Z</time>
      </trkpt>
      <trkpt lat="45.78313" lon="6.67643">
        <ele>1960</ele>
        <time>2022-07-24T12:57:40Z</time>
      </trkpt>
      <trkpt lat="45.78313" lon="6.67645">
        <ele>1960</ele>
        <time>2022-07-24T12:57:41Z</time>
      </trkpt>
      <trkpt lat="45.78312" lon="6.67647">
        <ele>1960</ele>
        <time>2022-07-24T12:57:42Z</time>
      </trkpt>
      <trkpt lat="45.78312" lon="6.67648">
        <ele>1960</ele>
        <time>2022-07-24T12:57:43Z</time>
      </trkpt>
      <trkpt lat="45.78311" lon="6.6765">
        <ele>1960</ele>
        <time>2022-07-24T12:57:44Z</time>
      </trkpt>
      <trkpt lat="45.78311" lon="6.67651">
        <ele>1960</ele>
        <time>2022-07-24T12:57:45Z</time>
      </trkpt>
      <trkpt lat="45.7831" lon="6.67653">
        <ele>1960</ele>
        <time>2022-07-24T12:57:46Z</time>
      </trkpt>
      <trkpt lat="45.7831" lon="6.67654">
        <ele>1960</ele>
        <time>2022-07-24T12:57:47Z</time>
      </trkpt>
      <trkpt lat="45.78309" lon="6.67656">
        <ele>1960</ele>
        <time>2022-07-24T12:57:48Z</time>
      </trkpt>
      <trkpt lat="45.78309" lon="6.67657">
        <ele>1960</ele>
        <time>2022-07-24T12:57:49Z</time>
      </trkpt>
      <trkpt lat="45.78309" lon="6.67659">
        <ele>1960</ele>
        <time>2022-07-24T12:57:50Z</time>
      </trkpt>
      <trkpt lat="45.78308" lon="6.6766">
        <ele>1960</ele>
        <time>2022-07-24T12:57:51Z</time>
      </trkpt>
      <trkpt lat="45.78308" lon="6.67662">
        <ele>1960</ele>
        <time>2022-07-24T12:57:52Z</time>
      </trkpt>
      <trkpt lat="45.78307" lon="6.67663">
        <ele>1960</ele>
        <time>2022-07-24T12:57:53Z</time>
      </trkpt>
      <trkpt lat="45.78307" lon="6.67665">
        <ele>1960</ele>
        <time>2022-07-24T12:57:54Z</time>
      </trkpt>
      <trkpt lat="45.78306" lon="6.67666">
        <ele>1960</ele>
        <time>2022-07-24T12:57:55Z</time>
      </trkpt>
      <trkpt lat="45.78306" lon="6.67668">
        <ele>1960</ele>
        <time>2022-07-24T12:57:56Z</time>
      </trkpt>
      <trkpt lat="45.78306" lon="6.67669">
        <ele>1960</ele>
        <time>2022-07-24T12:57:57Z</time>
      </trkpt>
      <trkpt lat="45.78305" lon="6.6767">
        <ele>1960</ele>
        <time>2022-07-24T12:57:58Z</time>
      </trkpt>
      <trkpt lat="45.78305" lon="6.67672">
        <ele>1960</ele>
        <time>2022-07-24T12:57:59Z</time>
      </trkpt>
      <trkpt lat="45.78305" lon="6.67673">
        <ele>1960</ele>
        <time>2022-07-24T12:58:00Z</time>
      </trkpt>
      <trkpt lat="45.78304" lon="6.67674">
        <ele>1960</ele>
        <time>2022-07-24T12:58:01Z</time>
      </trkpt>
      <trkpt lat="45.78304" lon="6.67676">
        <ele>1960</ele>
        <time>2022-07-24T12:58:02Z</time>
      </trkpt>
      <trkpt lat="45.78303" lon="6.67677">
        <ele>1960</ele>
        <time>2022-07-24T12:58:03Z</time>
      </trkpt>
      <trkpt lat="45.78303" lon="6.67679">
        <ele>1960</ele>
        <time>2022-07-24T12:58:04Z</time>
      </trkpt>
      <trkpt lat="45.78303" lon="6.6768">
        <ele>1960</ele>
        <time>2022-07-24T12:58:05Z</time>
      </trkpt>
      <trkpt lat="45.78302" lon="6.67682">
        <ele>1960</ele>
        <time>2022-07-24T12:58:06Z</time>
      </trkpt>
      <trkpt lat="45.78302" lon="6.67683">
        <ele>1960</ele>
        <time>2022-07-24T12:58:07Z</time>
      </trkpt>
      <trkpt lat="45.78302" lon="6.67685">
        <ele>1960</ele>
        <time>2022-07-24T12:58:08Z</time>
      </trkpt>
      <trkpt lat="45.78302" lon="6.67687">
        <ele>1959</ele>
        <time>2022-07-24T12:58:09Z</time>
      </trkpt>
      <trkpt lat="45.78302" lon="6.67688">
        <ele>1959</ele>
        <time>2022-07-24T12:58:10Z</time>
      </trkpt>
      <trkpt lat="45.78301" lon="6.6769">
        <ele>1959</ele>
        <time>2022-07-24T12:58:11Z</time>
      </trkpt>
      <trkpt lat="45.78301" lon="6.67691">
        <ele>1959</ele>
        <time>2022-07-24T12:58:12Z</time>
      </trkpt>
      <trkpt lat="45.78301" lon="6.67693">
        <ele>1959</ele>
        <time>2022-07-24T12:58:13Z</time>
      </trkpt>
      <trkpt lat="45.783" lon="6.67694">
        <ele>1959</ele>
        <time>2022-07-24T12:58:14Z</time>
      </trkpt>
      <trkpt lat="45.783" lon="6.67696">
        <ele>1959</ele>
        <time>2022-07-24T12:58:15Z</time>
      </trkpt>
      <trkpt lat="45.78299" lon="6.67697">
        <ele>1959</ele>
        <time>2022-07-24T12:58:16Z</time>
      </trkpt>
      <trkpt lat="45.78298" lon="6.67698">
        <ele>1959</ele>
        <time>2022-07-24T12:58:17Z</time>
      </trkpt>
      <trkpt lat="45.78298" lon="6.677">
        <ele>1959</ele>
        <time>2022-07-24T12:58:18Z</time>
      </trkpt>
      <trkpt lat="45.78297" lon="6.67701">
        <ele>1959</ele>
        <time>2022-07-24T12:58:19Z</time>
      </trkpt>
      <trkpt lat="45.78297" lon="6.67703">
        <ele>1959</ele>
        <time>2022-07-24T12:58:20Z</time>
      </trkpt>
      <trkpt lat="45.78296" lon="6.67704">
        <ele>1959</ele>
        <time>2022-07-24T12:58:21Z</time>
      </trkpt>
      <trkpt lat="45.78295" lon="6.67705">
        <ele>1959</ele>
        <time>2022-07-24T12:58:22Z</time>
      </trkpt>
      <trkpt lat="45.78294" lon="6.67706">
        <ele>1959</ele>
        <time>2022-07-24T12:58:23Z</time>
      </trkpt>
      <trkpt lat="45.78293" lon="6.67708">
        <ele>1958</ele>
        <time>2022-07-24T12:58:24Z</time>
      </trkpt>
      <trkpt lat="45.78293" lon="6.67709">
        <ele>1958</ele>
        <time>2022-07-24T12:58:25Z</time>
      </trkpt>
      <trkpt lat="45.78292" lon="6.6771">
        <ele>1958</ele>
        <time>2022-07-24T12:58:26Z</time>
      </trkpt>
      <trkpt lat="45.78291" lon="6.67711">
        <ele>1958</ele>
        <time>2022-07-24T12:58:27Z</time>
      </trkpt>
      <trkpt lat="45.7829" lon="6.67712">
        <ele>1958</ele>
        <time>2022-07-24T12:58:28Z</time>
      </trkpt>
      <trkpt lat="45.78289" lon="6.67714">
        <ele>1958</ele>
        <time>2022-07-24T12:58:29Z</time>
      </trkpt>
      <trkpt lat="45.78288" lon="6.67715">
        <ele>1958</ele>
        <time>2022-07-24T12:58:30Z</time>
      </trkpt>
      <trkpt lat="45.78287" lon="6.67716">
        <ele>1958</ele>
        <time>2022-07-24T12:58:31Z</time>
      </trkpt>
      <trkpt lat="45.78286" lon="6.67717">
        <ele>1958</ele>
        <time>2022-07-24T12:58:32Z</time>
      </trkpt>
      <trkpt lat="45.78285" lon="6.67718">
        <ele>1958</ele>
        <time>2022-07-24T12:58:33Z</time>
      </trkpt>
      <trkpt lat="45.78284" lon="6.67719">
        <ele>1957</ele>
        <time>2022-07-24T12:58:34Z</time>
      </trkpt>
      <trkpt lat="45.78284" lon="6.67719">
        <ele>1957</ele>
        <time>2022-07-24T12:58:35Z</time>
      </trkpt>
      <trkpt lat="45.78283" lon="6.6772">
        <ele>1957</ele>
        <time>2022-07-24T12:58:36Z</time>
      </trkpt>
      <trkpt lat="45.78282" lon="6.67721">
        <ele>1957</ele>
        <time>2022-07-24T12:58:37Z</time>
      </trkpt>
      <trkpt lat="45.78281" lon="6.67722">
        <ele>1957</ele>
        <time>2022-07-24T12:58:38Z</time>
      </trkpt>
      <trkpt lat="45.7828" lon="6.67723">
        <ele>1957</ele>
        <time>2022-07-24T12:58:39Z</time>
      </trkpt>
      <trkpt lat="45.78279" lon="6.67725">
        <ele>1957</ele>
        <time>2022-07-24T12:58:40Z</time>
      </trkpt>
      <trkpt lat="45.78277" lon="6.67726">
        <ele>1957</ele>
        <time>2022-07-24T12:58:41Z</time>
      </trkpt>
      <trkpt lat="45.78276" lon="6.67727">
        <ele>1957</ele>
        <time>2022-07-24T12:58:42Z</time>
      </trkpt>
      <trkpt lat="45.78275" lon="6.67728">
        <ele>1957</ele>
        <time>2022-07-24T12:58:43Z</time>
      </trkpt>
      <trkpt lat="45.78274" lon="6.67729">
        <ele>1956</ele>
        <time>2022-07-24T12:58:44Z</time>
      </trkpt>
      <trkpt lat="45.78273" lon="6.6773">
        <ele>1956</ele>
        <time>2022-07-24T12:58:45Z</time>
      </trkpt>
      <trkpt lat="45.78272" lon="6.67731">
        <ele>1956</ele>
        <time>2022-07-24T12:58:46Z</time>
      </trkpt>
      <trkpt lat="45.78271" lon="6.67732">
        <ele>1956</ele>
        <time>2022-07-24T12:58:47Z</time>
      </trkpt>
      <trkpt lat="45.7827" lon="6.67733">
        <ele>1956</ele>
        <time>2022-07-24T12:58:48Z</time>
      </trkpt>
      <trkpt lat="45.78269" lon="6.67734">
        <ele>1956</ele>
        <time>2022-07-24T12:58:49Z</time>
      </trkpt>
      <trkpt lat="45.78268" lon="6.67735">
        <ele>1956</ele>
        <time>2022-07-24T12:58:50Z</time>
      </trkpt>
      <trkpt lat="45.78267" lon="6.67736">
        <ele>1956</ele>
        <time>2022-07-24T12:58:51Z</time>
      </trkpt>
      <trkpt lat="45.78266" lon="6.67737">
        <ele>1956</ele>
        <time>2022-07-24T12:58:52Z</time>
      </trkpt>
      <trkpt lat="45.78266" lon="6.67738">
        <ele>1956</ele>
        <time>2022-07-24T12:58:53Z</time>
      </trkpt>
      <trkpt lat="45.78265" lon="6.67739">
        <ele>1955</ele>
        <time>2022-07-24T12:58:54Z</time>
      </trkpt>
      <trkpt lat="45.78264" lon="6.6774">
        <ele>1955</ele>
        <time>2022-07-24T12:58:55Z</time>
      </trkpt>
      <trkpt lat="45.78263" lon="6.67741">
        <ele>1955</ele>
        <time>2022-07-24T12:58:56Z</time>
      </trkpt>
      <trkpt lat="45.78262" lon="6.67742">
        <ele>1955</ele>
        <time>2022-07-24T12:58:57Z</time>
      </trkpt>
      <trkpt lat="45.78262" lon="6.67743">
        <ele>1955</ele>
        <time>2022-07-24T12:58:58Z</time>
      </trkpt>
      <trkpt lat="45.78261" lon="6.67744">
        <ele>1955</ele>
        <time>2022-07-24T12:58:59Z</time>
      </trkpt>
      <trkpt lat="45.7826" lon="6.67745">
        <ele>1955</ele>
        <time>2022-07-24T12:59:00Z</time>
      </trkpt>
      <trkpt lat="45.78259" lon="6.67746">
        <ele>1955</ele>
        <time>2022-07-24T12:59:01Z</time>
      </trkpt>
      <trkpt lat="45.78259" lon="6.67748">
        <ele>1955</ele>
        <time>2022-07-24T12:59:02Z</time>
      </trkpt>
      <trkpt lat="45.78258" lon="6.67749">
        <ele>1955</ele>
        <time>2022-07-24T12:59:03Z</time>
      </trkpt>
      <trkpt lat="45.78257" lon="6.67751">
        <ele>1954</ele>
        <time>2022-07-24T12:59:04Z</time>
      </trkpt>
      <trkpt lat="45.78256" lon="6.67752">
        <ele>1954</ele>
        <time>2022-07-24T12:59:05Z</time>
      </trkpt>
      <trkpt lat="45.78255" lon="6.67753">
        <ele>1954</ele>
        <time>2022-07-24T12:59:06Z</time>
      </trkpt>
      <trkpt lat="45.78255" lon="6.67755">
        <ele>1954</ele>
        <time>2022-07-24T12:59:07Z</time>
      </trkpt>
      <trkpt lat="45.78254" lon="6.67756">
        <ele>1954</ele>
        <time>2022-07-24T12:59:08Z</time>
      </trkpt>
      <trkpt lat="45.78253" lon="6.67758">
        <ele>1953</ele>
        <time>2022-07-24T12:59:09Z</time>
      </trkpt>
      <trkpt lat="45.78253" lon="6.67759">
        <ele>1953</ele>
        <time>2022-07-24T12:59:10Z</time>
      </trkpt>
      <trkpt lat="45.78252" lon="6.67761">
        <ele>1953</ele>
        <time>2022-07-24T12:59:11Z</time>
      </trkpt>
      <trkpt lat="45.78252" lon="6.67762">
        <ele>1953</ele>
        <time>2022-07-24T12:59:12Z</time>
      </trkpt>
      <trkpt lat="45.78251" lon="6.67763">
        <ele>1953</ele>
        <time>2022-07-24T12:59:13Z</time>
      </trkpt>
      <trkpt lat="45.78251" lon="6.67765">
        <ele>1953</ele>
        <time>2022-07-24T12:59:14Z</time>
      </trkpt>
      <trkpt lat="45.7825" lon="6.67766">
        <ele>1953</ele>
        <time>2022-07-24T12:59:15Z</time>
      </trkpt>
      <trkpt lat="45.78249" lon="6.67768">
        <ele>1953</ele>
        <time>2022-07-24T12:59:16Z</time>
      </trkpt>
      <trkpt lat="45.78249" lon="6.67769">
        <ele>1953</ele>
        <time>2022-07-24T12:59:17Z</time>
      </trkpt>
      <trkpt lat="45.78248" lon="6.67771">
        <ele>1953</ele>
        <time>2022-07-24T12:59:18Z</time>
      </trkpt>
      <trkpt lat="45.78247" lon="6.67773">
        <ele>1952</ele>
        <time>2022-07-24T12:59:19Z</time>
      </trkpt>
      <trkpt lat="45.78247" lon="6.67774">
        <ele>1952</ele>
        <time>2022-07-24T12:59:20Z</time>
      </trkpt>
      <trkpt lat="45.78246" lon="6.67776">
        <ele>1952</ele>
        <time>2022-07-24T12:59:21Z</time>
      </trkpt>
      <trkpt lat="45.78246" lon="6.67778">
        <ele>1952</ele>
        <time>2022-07-24T12:59:22Z</time>
      </trkpt>
      <trkpt lat="45.78245" lon="6.67779">
        <ele>1952</ele>
        <time>2022-07-24T12:59:23Z</time>
      </trkpt>
      <trkpt lat="45.78244" lon="6.67781">
        <ele>1952</ele>
        <time>2022-07-24T12:59:24Z</time>
      </trkpt>
      <trkpt lat="45.78244" lon="6.67782">
        <ele>1952</ele>
        <time>2022-07-24T12:59:25Z</time>
      </trkpt>
      <trkpt lat="45.78243" lon="6.67784">
        <ele>1952</ele>
        <time>2022-07-24T12:59:26Z</time>
      </trkpt>
      <trkpt lat="45.78242" lon="6.67785">
        <ele>1952</ele>
        <time>2022-07-24T12:59:27Z</time>
      </trkpt>
      <trkpt lat="45.78242" lon="6.67787">
        <ele>1952</ele>
        <time>2022-07-24T12:59:28Z</time>
      </trkpt>
      <trkpt lat="45.78241" lon="6.67788">
        <ele>1952</ele>
        <time>2022-07-24T12:59:29Z</time>
      </trkpt>
      <trkpt lat="45.78241" lon="6.6779">
        <ele>1952</ele>
        <time>2022-07-24T12:59:30Z</time>
      </trkpt>
      <trkpt lat="45.7824" lon="6.67792">
        <ele>1952</ele>
        <time>2022-07-24T12:59:31Z</time>
      </trkpt>
      <trkpt lat="45.78239" lon="6.67793">
        <ele>1952</ele>
        <time>2022-07-24T12:59:32Z</time>
      </trkpt>
      <trkpt lat="45.78239" lon="6.67795">
        <ele>1952</ele>
        <time>2022-07-24T12:59:33Z</time>
      </trkpt>
      <trkpt lat="45.78238" lon="6.67797">
        <ele>1951</ele>
        <time>2022-07-24T12:59:34Z</time>
      </trkpt>
      <trkpt lat="45.78237" lon="6.67799">
        <ele>1951</ele>
        <time>2022-07-24T12:59:35Z</time>
      </trkpt>
      <trkpt lat="45.78237" lon="6.678">
        <ele>1951</ele>
        <time>2022-07-24T12:59:36Z</time>
      </trkpt>
      <trkpt lat="45.78236" lon="6.67802">
        <ele>1951</ele>
        <time>2022-07-24T12:59:37Z</time>
      </trkpt>
      <trkpt lat="45.78235" lon="6.67804">
        <ele>1951</ele>
        <time>2022-07-24T12:59:38Z</time>
      </trkpt>
      <trkpt lat="45.78235" lon="6.67806">
        <ele>1951</ele>
        <time>2022-07-24T12:59:39Z</time>
      </trkpt>
      <trkpt lat="45.78234" lon="6.67808">
        <ele>1951</ele>
        <time>2022-07-24T12:59:40Z</time>
      </trkpt>
      <trkpt lat="45.78234" lon="6.67809">
        <ele>1951</ele>
        <time>2022-07-24T12:59:41Z</time>
      </trkpt>
      <trkpt lat="45.78233" lon="6.67811">
        <ele>1951</ele>
        <time>2022-07-24T12:59:42Z</time>
      </trkpt>
      <trkpt lat="45.78233" lon="6.67813">
        <ele>1951</ele>
        <time>2022-07-24T12:59:43Z</time>
      </trkpt>
      <trkpt lat="45.78233" lon="6.67815">
        <ele>1950</ele>
        <time>2022-07-24T12:59:44Z</time>
      </trkpt>
      <trkpt lat="45.78233" lon="6.67817">
        <ele>1950</ele>
        <time>2022-07-24T12:59:45Z</time>
      </trkpt>
      <trkpt lat="45.78232" lon="6.67819">
        <ele>1950</ele>
        <time>2022-07-24T12:59:46Z</time>
      </trkpt>
      <trkpt lat="45.78232" lon="6.67821">
        <ele>1950</ele>
        <time>2022-07-24T12:59:47Z</time>
      </trkpt>
      <trkpt lat="45.78232" lon="6.67822">
        <ele>1950</ele>
        <time>2022-07-24T12:59:48Z</time>
      </trkpt>
      <trkpt lat="45.78232" lon="6.67824">
        <ele>1950</ele>
        <time>2022-07-24T12:59:49Z</time>
      </trkpt>
      <trkpt lat="45.78232" lon="6.67826">
        <ele>1950</ele>
        <time>2022-07-24T12:59:50Z</time>
      </trkpt>
      <trkpt lat="45.78232" lon="6.67828">
        <ele>1950</ele>
        <time>2022-07-24T12:59:51Z</time>
      </trkpt>
      <trkpt lat="45.78232" lon="6.67829">
        <ele>1950</ele>
        <time>2022-07-24T12:59:52Z</time>
      </trkpt>
      <trkpt lat="45.78233" lon="6.67831">
        <ele>1950</ele>
        <time>2022-07-24T12:59:53Z</time>
      </trkpt>
      <trkpt lat="45.78233" lon="6.67833">
        <ele>1950</ele>
        <time>2022-07-24T12:59:54Z</time>
      </trkpt>
      <trkpt lat="45.78233" lon="6.67834">
        <ele>1950</ele>
        <time>2022-07-24T12:59:55Z</time>
      </trkpt>
      <trkpt lat="45.78233" lon="6.67836">
        <ele>1950</ele>
        <time>2022-07-24T12:59:56Z</time>
      </trkpt>
      <trkpt lat="45.78234" lon="6.67837">
        <ele>1950</ele>
        <time>2022-07-24T12:59:57Z</time>
      </trkpt>
      <trkpt lat="45.78234" lon="6.67839">
        <ele>1950</ele>
        <time>2022-07-24T12:59:58Z</time>
      </trkpt>
      <trkpt lat="45.78234" lon="6.6784">
        <ele>1950</ele>
        <time>2022-07-24T12:59:59Z</time>
      </trkpt>
      <trkpt lat="45.78235" lon="6.67842">
        <ele>1950</ele>
        <time>2022-07-24T13:00:00Z</time>
      </trkpt>
      <trkpt lat="45.78235" lon="6.67843">
        <ele>1950</ele>
        <time>2022-07-24T13:00:01Z</time>
      </trkpt>
      <trkpt lat="45.78235" lon="6.67845">
        <ele>1950</ele>
        <time>2022-07-24T13:00:02Z</time>
      </trkpt>
      <trkpt lat="45.78236" lon="6.67846">
        <ele>1950</ele>
        <time>2022-07-24T13:00:03Z</time>
      </trkpt>
      <trkpt lat="45.78236" lon="6.67848">
        <ele>1950</ele>
        <time>2022-07-24T13:00:04Z</time>
      </trkpt>
      <trkpt lat="45.78236" lon="6.6785">
        <ele>1950</ele>
        <time>2022-07-24T13:00:05Z</time>
      </trkpt>
      <trkpt lat="45.78236" lon="6.67852">
        <ele>1950</ele>
        <time>2022-07-24T13:00:06Z</time>
      </trkpt>
      <trkpt lat="45.78236" lon="6.67853">
        <ele>1950</ele>
        <time>2022-07-24T13:00:07Z</time>
      </trkpt>
      <trkpt lat="45.78237" lon="6.67855">
        <ele>1950</ele>
        <time>2022-07-24T13:00:08Z</time>
      </trkpt>
      <trkpt lat="45.78237" lon="6.67857">
        <ele>1950</ele>
        <time>2022-07-24T13:00:09Z</time>
      </trkpt>
      <trkpt lat="45.78237" lon="6.67858">
        <ele>1950</ele>
        <time>2022-07-24T13:00:10Z</time>
      </trkpt>
      <trkpt lat="45.78237" lon="6.6786">
        <ele>1950</ele>
        <time>2022-07-24T13:00:11Z</time>
      </trkpt>
      <trkpt lat="45.78237" lon="6.67862">
        <ele>1950</ele>
        <time>2022-07-24T13:00:12Z</time>
      </trkpt>
      <trkpt lat="45.78237" lon="6.67864">
        <ele>1950</ele>
        <time>2022-07-24T13:00:13Z</time>
      </trkpt>
      <trkpt lat="45.78237" lon="6.67865">
        <ele>1949</ele>
        <time>2022-07-24T13:00:14Z</time>
      </trkpt>
      <trkpt lat="45.78237" lon="6.67867">
        <ele>1949</ele>
        <time>2022-07-24T13:00:15Z</time>
      </trkpt>
      <trkpt lat="45.78236" lon="6.67869">
        <ele>1949</ele>
        <time>2022-07-24T13:00:16Z</time>
      </trkpt>
      <trkpt lat="45.78236" lon="6.67871">
        <ele>1949</ele>
        <time>2022-07-24T13:00:17Z</time>
      </trkpt>
      <trkpt lat="45.78236" lon="6.67873">
        <ele>1949</ele>
        <time>2022-07-24T13:00:18Z</time>
      </trkpt>
      <trkpt lat="45.78236" lon="6.67875">
        <ele>1949</ele>
        <time>2022-07-24T13:00:19Z</time>
      </trkpt>
      <trkpt lat="45.78235" lon="6.67876">
        <ele>1949</ele>
        <time>2022-07-24T13:00:20Z</time>
      </trkpt>
      <trkpt lat="45.78235" lon="6.67878">
        <ele>1949</ele>
        <time>2022-07-24T13:00:21Z</time>
      </trkpt>
      <trkpt lat="45.78235" lon="6.6788">
        <ele>1949</ele>
        <time>2022-07-24T13:00:22Z</time>
      </trkpt>
      <trkpt lat="45.78235" lon="6.67882">
        <ele>1949</ele>
        <time>2022-07-24T13:00:23Z</time>
      </trkpt>
      <trkpt lat="45.78235" lon="6.67883">
        <ele>1948</ele>
        <time>2022-07-24T13:00:24Z</time>
      </trkpt>
      <trkpt lat="45.78235" lon="6.67885">
        <ele>1948</ele>
        <time>2022-07-24T13:00:25Z</time>
      </trkpt>
      <trkpt lat="45.78235" lon="6.67887">
        <ele>1948</ele>
        <time>2022-07-24T13:00:26Z</time>
      </trkpt>
      <trkpt lat="45.78235" lon="6.67889">
        <ele>1948</ele>
        <time>2022-07-24T13:00:27Z</time>
      </trkpt>
      <trkpt lat="45.78234" lon="6.6789">
        <ele>1948</ele>
        <time>2022-07-24T13:00:28Z</time>
      </trkpt>
      <trkpt lat="45.78234" lon="6.67892">
        <ele>1948</ele>
        <time>2022-07-24T13:00:29Z</time>
      </trkpt>
      <trkpt lat="45.78234" lon="6.67893">
        <ele>1948</ele>
        <time>2022-07-24T13:00:30Z</time>
      </trkpt>
      <trkpt lat="45.78234" lon="6.67895">
        <ele>1948</ele>
        <time>2022-07-24T13:00:31Z</time>
      </trkpt>
      <trkpt lat="45.78233" lon="6.67897">
        <ele>1948</ele>
        <time>2022-07-24T13:00:32Z</time>
      </trkpt>
      <trkpt lat="45.78233" lon="6.67898">
        <ele>1948</ele>
        <time>2022-07-24T13:00:33Z</time>
      </trkpt>
      <trkpt lat="45.78233" lon="6.679">
        <ele>1947</ele>
        <time>2022-07-24T13:00:34Z</time>
      </trkpt>
      <trkpt lat="45.78233" lon="6.67902">
        <ele>1947</ele>
        <time>2022-07-24T13:00:35Z</time>
      </trkpt>
      <trkpt lat="45.78232" lon="6.67903">
        <ele>1947</ele>
        <time>2022-07-24T13:00:36Z</time>
      </trkpt>
      <trkpt lat="45.78232" lon="6.67905">
        <ele>1947</ele>
        <time>2022-07-24T13:00:37Z</time>
      </trkpt>
      <trkpt lat="45.78232" lon="6.67907">
        <ele>1947</ele>
        <time>2022-07-24T13:00:38Z</time>
      </trkpt>
      <trkpt lat="45.78232" lon="6.67908">
        <ele>1947</ele>
        <time>2022-07-24T13:00:39Z</time>
      </trkpt>
      <trkpt lat="45.78231" lon="6.6791">
        <ele>1947</ele>
        <time>2022-07-24T13:00:40Z</time>
      </trkpt>
      <trkpt lat="45.78231" lon="6.67912">
        <ele>1947</ele>
        <time>2022-07-24T13:00:41Z</time>
      </trkpt>
      <trkpt lat="45.78231" lon="6.67914">
        <ele>1947</ele>
        <time>2022-07-24T13:00:42Z</time>
      </trkpt>
      <trkpt lat="45.78231" lon="6.67916">
        <ele>1947</ele>
        <time>2022-07-24T13:00:43Z</time>
      </trkpt>
      <trkpt lat="45.78231" lon="6.67917">
        <ele>1947</ele>
        <time>2022-07-24T13:00:44Z</time>
      </trkpt>
      <trkpt lat="45.78231" lon="6.67919">
        <ele>1947</ele>
        <time>2022-07-24T13:00:45Z</time>
      </trkpt>
      <trkpt lat="45.78231" lon="6.67921">
        <ele>1947</ele>
        <time>2022-07-24T13:00:46Z</time>
      </trkpt>
      <trkpt lat="45.7823" lon="6.67923">
        <ele>1947</ele>
        <time>2022-07-24T13:00:47Z</time>
      </trkpt>
      <trkpt lat="45.7823" lon="6.67925">
        <ele>1947</ele>
        <time>2022-07-24T13:00:48Z</time>
      </trkpt>
      <trkpt lat="45.7823" lon="6.67926">
        <ele>1946</ele>
        <time>2022-07-24T13:00:49Z</time>
      </trkpt>
      <trkpt lat="45.7823" lon="6.67928">
        <ele>1946</ele>
        <time>2022-07-24T13:00:50Z</time>
      </trkpt>
      <trkpt lat="45.7823" lon="6.67929">
        <ele>1946</ele>
        <time>2022-07-24T13:00:51Z</time>
      </trkpt>
      <trkpt lat="45.7823" lon="6.67931">
        <ele>1946</ele>
        <time>2022-07-24T13:00:52Z</time>
      </trkpt>
      <trkpt lat="45.7823" lon="6.67932">
        <ele>1946</ele>
        <time>2022-07-24T13:00:53Z</time>
      </trkpt>
      <trkpt lat="45.7823" lon="6.67934">
        <ele>1946</ele>
        <time>2022-07-24T13:00:54Z</time>
      </trkpt>
      <trkpt lat="45.78229" lon="6.67935">
        <ele>1946</ele>
        <time>2022-07-24T13:00:55Z</time>
      </trkpt>
      <trkpt lat="45.78229" lon="6.67937">
        <ele>1946</ele>
        <time>2022-07-24T13:00:56Z</time>
      </trkpt>
      <trkpt lat="45.78229" lon="6.67938">
        <ele>1946</ele>
        <time>2022-07-24T13:00:57Z</time>
      </trkpt>
      <trkpt lat="45.78228" lon="6.6794">
        <ele>1946</ele>
        <time>2022-07-24T13:00:58Z</time>
      </trkpt>
      <trkpt lat="45.78228" lon="6.67942">
        <ele>1945</ele>
        <time>2022-07-24T13:00:59Z</time>
      </trkpt>
      <trkpt lat="45.78227" lon="6.67943">
        <ele>1945</ele>
        <time>2022-07-24T13:01:00Z</time>
      </trkpt>
      <trkpt lat="45.78226" lon="6.67945">
        <ele>1945</ele>
        <time>2022-07-24T13:01:01Z</time>
      </trkpt>
      <trkpt lat="45.78226" lon="6.67946">
        <ele>1945</ele>
        <time>2022-07-24T13:01:02Z</time>
      </trkpt>
      <trkpt lat="45.78225" lon="6.67948">
        <ele>1945</ele>
        <time>2022-07-24T13:01:03Z</time>
      </trkpt>
      <trkpt lat="45.78225" lon="6.67949">
        <ele>1944</ele>
        <time>2022-07-24T13:01:04Z</time>
      </trkpt>
      <trkpt lat="45.78224" lon="6.6795">
        <ele>1944</ele>
        <time>2022-07-24T13:01:05Z</time>
      </trkpt>
      <trkpt lat="45.78223" lon="6.67952">
        <ele>1943</ele>
        <time>2022-07-24T13:01:06Z</time>
      </trkpt>
      <trkpt lat="45.78223" lon="6.67953">
        <ele>1943</ele>
        <time>2022-07-24T13:01:07Z</time>
      </trkpt>
      <trkpt lat="45.78222" lon="6.67955">
        <ele>1943</ele>
        <time>2022-07-24T13:01:08Z</time>
      </trkpt>
      <trkpt lat="45.78222" lon="6.67956">
        <ele>1943</ele>
        <time>2022-07-24T13:01:09Z</time>
      </trkpt>
      <trkpt lat="45.78221" lon="6.67957">
        <ele>1943</ele>
        <time>2022-07-24T13:01:10Z</time>
      </trkpt>
      <trkpt lat="45.78221" lon="6.67959">
        <ele>1943</ele>
        <time>2022-07-24T13:01:11Z</time>
      </trkpt>
      <trkpt lat="45.78221" lon="6.6796">
        <ele>1943</ele>
        <time>2022-07-24T13:01:12Z</time>
      </trkpt>
      <trkpt lat="45.7822" lon="6.67962">
        <ele>1943</ele>
        <time>2022-07-24T13:01:13Z</time>
      </trkpt>
      <trkpt lat="45.7822" lon="6.67964">
        <ele>1942</ele>
        <time>2022-07-24T13:01:14Z</time>
      </trkpt>
      <trkpt lat="45.78219" lon="6.67965">
        <ele>1942</ele>
        <time>2022-07-24T13:01:15Z</time>
      </trkpt>
      <trkpt lat="45.78219" lon="6.67967">
        <ele>1942</ele>
        <time>2022-07-24T13:01:16Z</time>
      </trkpt>
      <trkpt lat="45.78219" lon="6.67968">
        <ele>1942</ele>
        <time>2022-07-24T13:01:17Z</time>
      </trkpt>
      <trkpt lat="45.78218" lon="6.6797">
        <ele>1942</ele>
        <time>2022-07-24T13:01:18Z</time>
      </trkpt>
      <trkpt lat="45.78218" lon="6.67972">
        <ele>1942</ele>
        <time>2022-07-24T13:01:19Z</time>
      </trkpt>
      <trkpt lat="45.78218" lon="6.67973">
        <ele>1942</ele>
        <time>2022-07-24T13:01:20Z</time>
      </trkpt>
      <trkpt lat="45.78217" lon="6.67975">
        <ele>1942</ele>
        <time>2022-07-24T13:01:21Z</time>
      </trkpt>
      <trkpt lat="45.78217" lon="6.67977">
        <ele>1942</ele>
        <time>2022-07-24T13:01:22Z</time>
      </trkpt>
      <trkpt lat="45.78216" lon="6.67979">
        <ele>1942</ele>
        <time>2022-07-24T13:01:23Z</time>
      </trkpt>
      <trkpt lat="45.78216" lon="6.6798">
        <ele>1941</ele>
        <time>2022-07-24T13:01:24Z</time>
      </trkpt>
      <trkpt lat="45.78216" lon="6.67982">
        <ele>1941</ele>
        <time>2022-07-24T13:01:25Z</time>
      </trkpt>
      <trkpt lat="45.78215" lon="6.67984">
        <ele>1941</ele>
        <time>2022-07-24T13:01:26Z</time>
      </trkpt>
      <trkpt lat="45.78215" lon="6.67986">
        <ele>1941</ele>
        <time>2022-07-24T13:01:27Z</time>
      </trkpt>
      <trkpt lat="45.78215" lon="6.67988">
        <ele>1941</ele>
        <time>2022-07-24T13:01:28Z</time>
      </trkpt>
      <trkpt lat="45.78214" lon="6.6799">
        <ele>1941</ele>
        <time>2022-07-24T13:01:29Z</time>
      </trkpt>
      <trkpt lat="45.78214" lon="6.67991">
        <ele>1941</ele>
        <time>2022-07-24T13:01:30Z</time>
      </trkpt>
      <trkpt lat="45.78214" lon="6.67993">
        <ele>1941</ele>
        <time>2022-07-24T13:01:31Z</time>
      </trkpt>
      <trkpt lat="45.78213" lon="6.67995">
        <ele>1941</ele>
        <time>2022-07-24T13:01:32Z</time>
      </trkpt>
      <trkpt lat="45.78213" lon="6.67997">
        <ele>1941</ele>
        <time>2022-07-24T13:01:33Z</time>
      </trkpt>
      <trkpt lat="45.78213" lon="6.67999">
        <ele>1941</ele>
        <time>2022-07-24T13:01:34Z</time>
      </trkpt>
      <trkpt lat="45.78213" lon="6.68001">
        <ele>1941</ele>
        <time>2022-07-24T13:01:35Z</time>
      </trkpt>
      <trkpt lat="45.78213" lon="6.68003">
        <ele>1941</ele>
        <time>2022-07-24T13:01:36Z</time>
      </trkpt>
      <trkpt lat="45.78212" lon="6.68004">
        <ele>1941</ele>
        <time>2022-07-24T13:01:37Z</time>
      </trkpt>
      <trkpt lat="45.78212" lon="6.68006">
        <ele>1941</ele>
        <time>2022-07-24T13:01:38Z</time>
      </trkpt>
      <trkpt lat="45.78212" lon="6.68008">
        <ele>1940</ele>
        <time>2022-07-24T13:01:39Z</time>
      </trkpt>
      <trkpt lat="45.78212" lon="6.68009">
        <ele>1940</ele>
        <time>2022-07-24T13:01:40Z</time>
      </trkpt>
      <trkpt lat="45.78211" lon="6.68011">
        <ele>1940</ele>
        <time>2022-07-24T13:01:41Z</time>
      </trkpt>
      <trkpt lat="45.78211" lon="6.68013">
        <ele>1940</ele>
        <time>2022-07-24T13:01:42Z</time>
      </trkpt>
      <trkpt lat="45.78211" lon="6.68015">
        <ele>1940</ele>
        <time>2022-07-24T13:01:43Z</time>
      </trkpt>
      <trkpt lat="45.78211" lon="6.68016">
        <ele>1940</ele>
        <time>2022-07-24T13:01:44Z</time>
      </trkpt>
      <trkpt lat="45.78211" lon="6.68018">
        <ele>1940</ele>
        <time>2022-07-24T13:01:45Z</time>
      </trkpt>
      <trkpt lat="45.7821" lon="6.6802">
        <ele>1940</ele>
        <time>2022-07-24T13:01:46Z</time>
      </trkpt>
      <trkpt lat="45.7821" lon="6.68022">
        <ele>1940</ele>
        <time>2022-07-24T13:01:47Z</time>
      </trkpt>
      <trkpt lat="45.7821" lon="6.68023">
        <ele>1940</ele>
        <time>2022-07-24T13:01:48Z</time>
      </trkpt>
      <trkpt lat="45.7821" lon="6.68025">
        <ele>1940</ele>
        <time>2022-07-24T13:01:49Z</time>
      </trkpt>
      <trkpt lat="45.7821" lon="6.68027">
        <ele>1940</ele>
        <time>2022-07-24T13:01:50Z</time>
      </trkpt>
      <trkpt lat="45.7821" lon="6.68029">
        <ele>1940</ele>
        <time>2022-07-24T13:01:51Z</time>
      </trkpt>
      <trkpt lat="45.7821" lon="6.6803">
        <ele>1940</ele>
        <time>2022-07-24T13:01:52Z</time>
      </trkpt>
      <trkpt lat="45.7821" lon="6.68032">
        <ele>1940</ele>
        <time>2022-07-24T13:01:53Z</time>
      </trkpt>
      <trkpt lat="45.78209" lon="6.68034">
        <ele>1940</ele>
        <time>2022-07-24T13:01:54Z</time>
      </trkpt>
      <trkpt lat="45.78209" lon="6.68036">
        <ele>1940</ele>
        <time>2022-07-24T13:01:55Z</time>
      </trkpt>
      <trkpt lat="45.78209" lon="6.68037">
        <ele>1940</ele>
        <time>2022-07-24T13:01:56Z</time>
      </trkpt>
      <trkpt lat="45.78209" lon="6.68039">
        <ele>1940</ele>
        <time>2022-07-24T13:01:57Z</time>
      </trkpt>
      <trkpt lat="45.78209" lon="6.68041">
        <ele>1940</ele>
        <time>2022-07-24T13:01:58Z</time>
      </trkpt>
      <trkpt lat="45.78209" lon="6.68043">
        <ele>1939</ele>
        <time>2022-07-24T13:01:59Z</time>
      </trkpt>
      <trkpt lat="45.78209" lon="6.68045">
        <ele>1939</ele>
        <time>2022-07-24T13:02:00Z</time>
      </trkpt>
      <trkpt lat="45.7821" lon="6.68046">
        <ele>1939</ele>
        <time>2022-07-24T13:02:01Z</time>
      </trkpt>
      <trkpt lat="45.7821" lon="6.68048">
        <ele>1939</ele>
        <time>2022-07-24T13:02:02Z</time>
      </trkpt>
      <trkpt lat="45.7821" lon="6.6805">
        <ele>1939</ele>
        <time>2022-07-24T13:02:03Z</time>
      </trkpt>
      <trkpt lat="45.7821" lon="6.68052">
        <ele>1939</ele>
        <time>2022-07-24T13:02:04Z</time>
      </trkpt>
      <trkpt lat="45.7821" lon="6.68054">
        <ele>1939</ele>
        <time>2022-07-24T13:02:05Z</time>
      </trkpt>
      <trkpt lat="45.7821" lon="6.68056">
        <ele>1939</ele>
        <time>2022-07-24T13:02:06Z</time>
      </trkpt>
      <trkpt lat="45.7821" lon="6.68057">
        <ele>1939</ele>
        <time>2022-07-24T13:02:07Z</time>
      </trkpt>
      <trkpt lat="45.7821" lon="6.68059">
        <ele>1939</ele>
        <time>2022-07-24T13:02:08Z</time>
      </trkpt>
      <trkpt lat="45.7821" lon="6.68061">
        <ele>1939</ele>
        <time>2022-07-24T13:02:09Z</time>
      </trkpt>
      <trkpt lat="45.7821" lon="6.68063">
        <ele>1939</ele>
        <time>2022-07-24T13:02:10Z</time>
      </trkpt>
      <trkpt lat="45.78211" lon="6.68064">
        <ele>1939</ele>
        <time>2022-07-24T13:02:11Z</time>
      </trkpt>
      <trkpt lat="45.78211" lon="6.68066">
        <ele>1939</ele>
        <time>2022-07-24T13:02:12Z</time>
      </trkpt>
      <trkpt lat="45.78211" lon="6.68068">
        <ele>1939</ele>
        <time>2022-07-24T13:02:13Z</time>
      </trkpt>
      <trkpt lat="45.78211" lon="6.6807">
        <ele>1939</ele>
        <time>2022-07-24T13:02:14Z</time>
      </trkpt>
      <trkpt lat="45.78211" lon="6.68071">
        <ele>1939</ele>
        <time>2022-07-24T13:02:15Z</time>
      </trkpt>
      <trkpt lat="45.78211" lon="6.68073">
        <ele>1939</ele>
        <time>2022-07-24T13:02:16Z</time>
      </trkpt>
      <trkpt lat="45.78211" lon="6.68075">
        <ele>1939</ele>
        <time>2022-07-24T13:02:17Z</time>
      </trkpt>
      <trkpt lat="45.78211" lon="6.68077">
        <ele>1939</ele>
        <time>2022-07-24T13:02:18Z</time>
      </trkpt>
      <trkpt lat="45.78211" lon="6.68079">
        <ele>1939</ele>
        <time>2022-07-24T13:02:19Z</time>
      </trkpt>
      <trkpt lat="45.78211" lon="6.6808">
        <ele>1939</ele>
        <time>2022-07-24T13:02:20Z</time>
      </trkpt>
      <trkpt lat="45.7821" lon="6.68082">
        <ele>1939</ele>
        <time>2022-07-24T13:02:21Z</time>
      </trkpt>
      <trkpt lat="45.7821" lon="6.68084">
        <ele>1939</ele>
        <time>2022-07-24T13:02:22Z</time>
      </trkpt>
      <trkpt lat="45.7821" lon="6.68086">
        <ele>1939</ele>
        <time>2022-07-24T13:02:23Z</time>
      </trkpt>
      <trkpt lat="45.7821" lon="6.68087">
        <ele>1939</ele>
        <time>2022-07-24T13:02:24Z</time>
      </trkpt>
      <trkpt lat="45.7821" lon="6.68089">
        <ele>1939</ele>
        <time>2022-07-24T13:02:25Z</time>
      </trkpt>
      <trkpt lat="45.7821" lon="6.68091">
        <ele>1939</ele>
        <time>2022-07-24T13:02:26Z</time>
      </trkpt>
      <trkpt lat="45.78209" lon="6.68093">
        <ele>1939</ele>
        <time>2022-07-24T13:02:27Z</time>
      </trkpt>
      <trkpt lat="45.78209" lon="6.68094">
        <ele>1939</ele>
        <time>2022-07-24T13:02:28Z</time>
      </trkpt>
      <trkpt lat="45.78209" lon="6.68096">
        <ele>1938</ele>
        <time>2022-07-24T13:02:29Z</time>
      </trkpt>
      <trkpt lat="45.78208" lon="6.68098">
        <ele>1938</ele>
        <time>2022-07-24T13:02:30Z</time>
      </trkpt>
      <trkpt lat="45.78208" lon="6.681">
        <ele>1938</ele>
        <time>2022-07-24T13:02:31Z</time>
      </trkpt>
      <trkpt lat="45.78208" lon="6.68101">
        <ele>1938</ele>
        <time>2022-07-24T13:02:32Z</time>
      </trkpt>
      <trkpt lat="45.78208" lon="6.68103">
        <ele>1938</ele>
        <time>2022-07-24T13:02:33Z</time>
      </trkpt>
      <trkpt lat="45.78207" lon="6.68105">
        <ele>1938</ele>
        <time>2022-07-24T13:02:34Z</time>
      </trkpt>
      <trkpt lat="45.78207" lon="6.68106">
        <ele>1938</ele>
        <time>2022-07-24T13:02:35Z</time>
      </trkpt>
      <trkpt lat="45.78207" lon="6.68108">
        <ele>1938</ele>
        <time>2022-07-24T13:02:36Z</time>
      </trkpt>
      <trkpt lat="45.78206" lon="6.6811">
        <ele>1938</ele>
        <time>2022-07-24T13:02:37Z</time>
      </trkpt>
      <trkpt lat="45.78206" lon="6.68112">
        <ele>1938</ele>
        <time>2022-07-24T13:02:38Z</time>
      </trkpt>
      <trkpt lat="45.78206" lon="6.68113">
        <ele>1938</ele>
        <time>2022-07-24T13:02:39Z</time>
      </trkpt>
      <trkpt lat="45.78206" lon="6.68115">
        <ele>1938</ele>
        <time>2022-07-24T13:02:40Z</time>
      </trkpt>
      <trkpt lat="45.78206" lon="6.68117">
        <ele>1938</ele>
        <time>2022-07-24T13:02:41Z</time>
      </trkpt>
      <trkpt lat="45.78206" lon="6.68119">
        <ele>1938</ele>
        <time>2022-07-24T13:02:42Z</time>
      </trkpt>
      <trkpt lat="45.78206" lon="6.68121">
        <ele>1938</ele>
        <time>2022-07-24T13:02:43Z</time>
      </trkpt>
      <trkpt lat="45.78206" lon="6.68122">
        <ele>1938</ele>
        <time>2022-07-24T13:02:44Z</time>
      </trkpt>
      <trkpt lat="45.78206" lon="6.68124">
        <ele>1938</ele>
        <time>2022-07-24T13:02:45Z</time>
      </trkpt>
      <trkpt lat="45.78206" lon="6.68126">
        <ele>1938</ele>
        <time>2022-07-24T13:02:46Z</time>
      </trkpt>
      <trkpt lat="45.78206" lon="6.68128">
        <ele>1938</ele>
        <time>2022-07-24T13:02:47Z</time>
      </trkpt>
      <trkpt lat="45.78206" lon="6.6813">
        <ele>1938</ele>
        <time>2022-07-24T13:02:48Z</time>
      </trkpt>
      <trkpt lat="45.78206" lon="6.68131">
        <ele>1938</ele>
        <time>2022-07-24T13:02:49Z</time>
      </trkpt>
      <trkpt lat="45.78207" lon="6.68133">
        <ele>1938</ele>
        <time>2022-07-24T13:02:50Z</time>
      </trkpt>
      <trkpt lat="45.78207" lon="6.68135">
        <ele>1938</ele>
        <time>2022-07-24T13:02:51Z</time>
      </trkpt>
      <trkpt lat="45.78207" lon="6.68136">
        <ele>1938</ele>
        <time>2022-07-24T13:02:52Z</time>
      </trkpt>
      <trkpt lat="45.78207" lon="6.68138">
        <ele>1938</ele>
        <time>2022-07-24T13:02:53Z</time>
      </trkpt>
      <trkpt lat="45.78207" lon="6.6814">
        <ele>1938</ele>
        <time>2022-07-24T13:02:54Z</time>
      </trkpt>
      <trkpt lat="45.78208" lon="6.68141">
        <ele>1938</ele>
        <time>2022-07-24T13:02:55Z</time>
      </trkpt>
      <trkpt lat="45.78208" lon="6.68143">
        <ele>1938</ele>
        <time>2022-07-24T13:02:56Z</time>
      </trkpt>
      <trkpt lat="45.78209" lon="6.68145">
        <ele>1938</ele>
        <time>2022-07-24T13:02:57Z</time>
      </trkpt>
      <trkpt lat="45.78209" lon="6.68146">
        <ele>1938</ele>
        <time>2022-07-24T13:02:58Z</time>
      </trkpt>
      <trkpt lat="45.7821" lon="6.68148">
        <ele>1938</ele>
        <time>2022-07-24T13:02:59Z</time>
      </trkpt>
      <trkpt lat="45.7821" lon="6.68149">
        <ele>1938</ele>
        <time>2022-07-24T13:03:00Z</time>
      </trkpt>
      <trkpt lat="45.78211" lon="6.68151">
        <ele>1938</ele>
        <time>2022-07-24T13:03:01Z</time>
      </trkpt>
      <trkpt lat="45.78211" lon="6.68152">
        <ele>1938</ele>
        <time>2022-07-24T13:03:02Z</time>
      </trkpt>
      <trkpt lat="45.78212" lon="6.68154">
        <ele>1938</ele>
        <time>2022-07-24T13:03:03Z</time>
      </trkpt>
      <trkpt lat="45.78213" lon="6.68155">
        <ele>1938</ele>
        <time>2022-07-24T13:03:04Z</time>
      </trkpt>
      <trkpt lat="45.78213" lon="6.68157">
        <ele>1938</ele>
        <time>2022-07-24T13:03:05Z</time>
      </trkpt>
      <trkpt lat="45.78214" lon="6.68158">
        <ele>1938</ele>
        <time>2022-07-24T13:03:06Z</time>
      </trkpt>
      <trkpt lat="45.78214" lon="6.6816">
        <ele>1938</ele>
        <time>2022-07-24T13:03:07Z</time>
      </trkpt>
      <trkpt lat="45.78215" lon="6.68162">
        <ele>1938</ele>
        <time>2022-07-24T13:03:08Z</time>
      </trkpt>
      <trkpt lat="45.78215" lon="6.68164">
        <ele>1938</ele>
        <time>2022-07-24T13:03:09Z</time>
      </trkpt>
      <trkpt lat="45.78216" lon="6.68165">
        <ele>1938</ele>
        <time>2022-07-24T13:03:10Z</time>
      </trkpt>
      <trkpt lat="45.78216" lon="6.68167">
        <ele>1938</ele>
        <time>2022-07-24T13:03:11Z</time>
      </trkpt>
      <trkpt lat="45.78216" lon="6.68169">
        <ele>1938</ele>
        <time>2022-07-24T13:03:12Z</time>
      </trkpt>
      <trkpt lat="45.78217" lon="6.6817">
        <ele>1938</ele>
        <time>2022-07-24T13:03:13Z</time>
      </trkpt>
      <trkpt lat="45.78217" lon="6.68172">
        <ele>1938</ele>
        <time>2022-07-24T13:03:14Z</time>
      </trkpt>
      <trkpt lat="45.78218" lon="6.68173">
        <ele>1938</ele>
        <time>2022-07-24T13:03:15Z</time>
      </trkpt>
      <trkpt lat="45.78218" lon="6.68175">
        <ele>1938</ele>
        <time>2022-07-24T13:03:16Z</time>
      </trkpt>
      <trkpt lat="45.78219" lon="6.68177">
        <ele>1938</ele>
        <time>2022-07-24T13:03:17Z</time>
      </trkpt>
      <trkpt lat="45.78219" lon="6.68178">
        <ele>1938</ele>
        <time>2022-07-24T13:03:18Z</time>
      </trkpt>
      <trkpt lat="45.78219" lon="6.6818">
        <ele>1937</ele>
        <time>2022-07-24T13:03:19Z</time>
      </trkpt>
      <trkpt lat="45.7822" lon="6.68182">
        <ele>1937</ele>
        <time>2022-07-24T13:03:20Z</time>
      </trkpt>
      <trkpt lat="45.7822" lon="6.68184">
        <ele>1937</ele>
        <time>2022-07-24T13:03:21Z</time>
      </trkpt>
      <trkpt lat="45.7822" lon="6.68185">
        <ele>1937</ele>
        <time>2022-07-24T13:03:22Z</time>
      </trkpt>
      <trkpt lat="45.78221" lon="6.68187">
        <ele>1937</ele>
        <time>2022-07-24T13:03:23Z</time>
      </trkpt>
      <trkpt lat="45.78221" lon="6.68189">
        <ele>1937</ele>
        <time>2022-07-24T13:03:24Z</time>
      </trkpt>
      <trkpt lat="45.78221" lon="6.6819">
        <ele>1937</ele>
        <time>2022-07-24T13:03:25Z</time>
      </trkpt>
      <trkpt lat="45.78222" lon="6.68192">
        <ele>1937</ele>
        <time>2022-07-24T13:03:26Z</time>
      </trkpt>
      <trkpt lat="45.78222" lon="6.68193">
        <ele>1937</ele>
        <time>2022-07-24T13:03:27Z</time>
      </trkpt>
      <trkpt lat="45.78223" lon="6.68195">
        <ele>1937</ele>
        <time>2022-07-24T13:03:28Z</time>
      </trkpt>
      <trkpt lat="45.78223" lon="6.68196">
        <ele>1937</ele>
        <time>2022-07-24T13:03:29Z</time>
      </trkpt>
      <trkpt lat="45.78223" lon="6.68198">
        <ele>1937</ele>
        <time>2022-07-24T13:03:30Z</time>
      </trkpt>
      <trkpt lat="45.78224" lon="6.68199">
        <ele>1937</ele>
        <time>2022-07-24T13:03:31Z</time>
      </trkpt>
      <trkpt lat="45.78224" lon="6.68201">
        <ele>1937</ele>
        <time>2022-07-24T13:03:32Z</time>
      </trkpt>
      <trkpt lat="45.78224" lon="6.68202">
        <ele>1937</ele>
        <time>2022-07-24T13:03:33Z</time>
      </trkpt>
      <trkpt lat="45.78225" lon="6.68204">
        <ele>1937</ele>
        <time>2022-07-24T13:03:34Z</time>
      </trkpt>
      <trkpt lat="45.78225" lon="6.68206">
        <ele>1937</ele>
        <time>2022-07-24T13:03:35Z</time>
      </trkpt>
      <trkpt lat="45.78225" lon="6.68207">
        <ele>1937</ele>
        <time>2022-07-24T13:03:36Z</time>
      </trkpt>
      <trkpt lat="45.78226" lon="6.68209">
        <ele>1937</ele>
        <time>2022-07-24T13:03:37Z</time>
      </trkpt>
      <trkpt lat="45.78226" lon="6.6821">
        <ele>1937</ele>
        <time>2022-07-24T13:03:38Z</time>
      </trkpt>
      <trkpt lat="45.78226" lon="6.68212">
        <ele>1936</ele>
        <time>2022-07-24T13:03:39Z</time>
      </trkpt>
      <trkpt lat="45.78227" lon="6.68214">
        <ele>1936</ele>
        <time>2022-07-24T13:03:40Z</time>
      </trkpt>
      <trkpt lat="45.78227" lon="6.68216">
        <ele>1936</ele>
        <time>2022-07-24T13:03:41Z</time>
      </trkpt>
      <trkpt lat="45.78227" lon="6.68217">
        <ele>1936</ele>
        <time>2022-07-24T13:03:42Z</time>
      </trkpt>
      <trkpt lat="45.78228" lon="6.68219">
        <ele>1936</ele>
        <time>2022-07-24T13:03:43Z</time>
      </trkpt>
      <trkpt lat="45.78228" lon="6.68221">
        <ele>1936</ele>
        <time>2022-07-24T13:03:44Z</time>
      </trkpt>
      <trkpt lat="45.78228" lon="6.68223">
        <ele>1936</ele>
        <time>2022-07-24T13:03:45Z</time>
      </trkpt>
      <trkpt lat="45.78229" lon="6.68224">
        <ele>1936</ele>
        <time>2022-07-24T13:03:46Z</time>
      </trkpt>
      <trkpt lat="45.78229" lon="6.68226">
        <ele>1936</ele>
        <time>2022-07-24T13:03:47Z</time>
      </trkpt>
      <trkpt lat="45.78229" lon="6.68228">
        <ele>1936</ele>
        <time>2022-07-24T13:03:48Z</time>
      </trkpt>
      <trkpt lat="45.78229" lon="6.68229">
        <ele>1936</ele>
        <time>2022-07-24T13:03:49Z</time>
      </trkpt>
      <trkpt lat="45.7823" lon="6.68231">
        <ele>1936</ele>
        <time>2022-07-24T13:03:50Z</time>
      </trkpt>
      <trkpt lat="45.7823" lon="6.68233">
        <ele>1936</ele>
        <time>2022-07-24T13:03:51Z</time>
      </trkpt>
      <trkpt lat="45.7823" lon="6.68235">
        <ele>1936</ele>
        <time>2022-07-24T13:03:52Z</time>
      </trkpt>
      <trkpt lat="45.7823" lon="6.68236">
        <ele>1936</ele>
        <time>2022-07-24T13:03:53Z</time>
      </trkpt>
      <trkpt lat="45.78231" lon="6.68238">
        <ele>1936</ele>
        <time>2022-07-24T13:03:54Z</time>
      </trkpt>
      <trkpt lat="45.78231" lon="6.68239">
        <ele>1936</ele>
        <time>2022-07-24T13:03:55Z</time>
      </trkpt>
      <trkpt lat="45.78231" lon="6.68241">
        <ele>1936</ele>
        <time>2022-07-24T13:03:56Z</time>
      </trkpt>
      <trkpt lat="45.78232" lon="6.68242">
        <ele>1936</ele>
        <time>2022-07-24T13:03:57Z</time>
      </trkpt>
      <trkpt lat="45.78232" lon="6.68244">
        <ele>1936</ele>
        <time>2022-07-24T13:03:58Z</time>
      </trkpt>
      <trkpt lat="45.78233" lon="6.68245">
        <ele>1936</ele>
        <time>2022-07-24T13:03:59Z</time>
      </trkpt>
      <trkpt lat="45.78233" lon="6.68247">
        <ele>1936</ele>
        <time>2022-07-24T13:04:00Z</time>
      </trkpt>
      <trkpt lat="45.78234" lon="6.68249">
        <ele>1936</ele>
        <time>2022-07-24T13:04:01Z</time>
      </trkpt>
      <trkpt lat="45.78234" lon="6.6825">
        <ele>1936</ele>
        <time>2022-07-24T13:04:02Z</time>
      </trkpt>
      <trkpt lat="45.78235" lon="6.68252">
        <ele>1936</ele>
        <time>2022-07-24T13:04:03Z</time>
      </trkpt>
      <trkpt lat="45.78235" lon="6.68253">
        <ele>1936</ele>
        <time>2022-07-24T13:04:04Z</time>
      </trkpt>
      <trkpt lat="45.78235" lon="6.68255">
        <ele>1936</ele>
        <time>2022-07-24T13:04:05Z</time>
      </trkpt>
      <trkpt lat="45.78236" lon="6.68257">
        <ele>1936</ele>
        <time>2022-07-24T13:04:06Z</time>
      </trkpt>
      <trkpt lat="45.78236" lon="6.68258">
        <ele>1936</ele>
        <time>2022-07-24T13:04:07Z</time>
      </trkpt>
      <trkpt lat="45.78237" lon="6.6826">
        <ele>1936</ele>
        <time>2022-07-24T13:04:08Z</time>
      </trkpt>
      <trkpt lat="45.78237" lon="6.68262">
        <ele>1936</ele>
        <time>2022-07-24T13:04:09Z</time>
      </trkpt>
      <trkpt lat="45.78238" lon="6.68263">
        <ele>1936</ele>
        <time>2022-07-24T13:04:10Z</time>
      </trkpt>
      <trkpt lat="45.78238" lon="6.68265">
        <ele>1936</ele>
        <time>2022-07-24T13:04:11Z</time>
      </trkpt>
      <trkpt lat="45.78239" lon="6.68266">
        <ele>1936</ele>
        <time>2022-07-24T13:04:12Z</time>
      </trkpt>
      <trkpt lat="45.78239" lon="6.68268">
        <ele>1936</ele>
        <time>2022-07-24T13:04:13Z</time>
      </trkpt>
      <trkpt lat="45.7824" lon="6.68269">
        <ele>1936</ele>
        <time>2022-07-24T13:04:14Z</time>
      </trkpt>
      <trkpt lat="45.7824" lon="6.68271">
        <ele>1936</ele>
        <time>2022-07-24T13:04:15Z</time>
      </trkpt>
      <trkpt lat="45.7824" lon="6.68273">
        <ele>1936</ele>
        <time>2022-07-24T13:04:16Z</time>
      </trkpt>
      <trkpt lat="45.78241" lon="6.68274">
        <ele>1936</ele>
        <time>2022-07-24T13:04:17Z</time>
      </trkpt>
      <trkpt lat="45.78241" lon="6.68276">
        <ele>1936</ele>
        <time>2022-07-24T13:04:18Z</time>
      </trkpt>
      <trkpt lat="45.78241" lon="6.68278">
        <ele>1935</ele>
        <time>2022-07-24T13:04:19Z</time>
      </trkpt>
      <trkpt lat="45.78242" lon="6.68279">
        <ele>1935</ele>
        <time>2022-07-24T13:04:20Z</time>
      </trkpt>
      <trkpt lat="45.78242" lon="6.68281">
        <ele>1935</ele>
        <time>2022-07-24T13:04:21Z</time>
      </trkpt>
      <trkpt lat="45.78242" lon="6.68283">
        <ele>1935</ele>
        <time>2022-07-24T13:04:22Z</time>
      </trkpt>
      <trkpt lat="45.78243" lon="6.68284">
        <ele>1935</ele>
        <time>2022-07-24T13:04:23Z</time>
      </trkpt>
      <trkpt lat="45.78243" lon="6.68285">
        <ele>1935</ele>
        <time>2022-07-24T13:04:24Z</time>
      </trkpt>
      <trkpt lat="45.78244" lon="6.68287">
        <ele>1935</ele>
        <time>2022-07-24T13:04:25Z</time>
      </trkpt>
      <trkpt lat="45.78244" lon="6.68288">
        <ele>1935</ele>
        <time>2022-07-24T13:04:26Z</time>
      </trkpt>
      <trkpt lat="45.78244" lon="6.68289">
        <ele>1935</ele>
        <time>2022-07-24T13:04:27Z</time>
      </trkpt>
      <trkpt lat="45.78245" lon="6.68291">
        <ele>1935</ele>
        <time>2022-07-24T13:04:28Z</time>
      </trkpt>
      <trkpt lat="45.78245" lon="6.68292">
        <ele>1935</ele>
        <time>2022-07-24T13:04:29Z</time>
      </trkpt>
      <trkpt lat="45.78245" lon="6.68293">
        <ele>1935</ele>
        <time>2022-07-24T13:04:30Z</time>
      </trkpt>
      <trkpt lat="45.78245" lon="6.68295">
        <ele>1935</ele>
        <time>2022-07-24T13:04:31Z</time>
      </trkpt>
      <trkpt lat="45.78245" lon="6.68296">
        <ele>1935</ele>
        <time>2022-07-24T13:04:32Z</time>
      </trkpt>
      <trkpt lat="45.78245" lon="6.68298">
        <ele>1935</ele>
        <time>2022-07-24T13:04:33Z</time>
      </trkpt>
      <trkpt lat="45.78246" lon="6.68299">
        <ele>1935</ele>
        <time>2022-07-24T13:04:34Z</time>
      </trkpt>
      <trkpt lat="45.78246" lon="6.68301">
        <ele>1935</ele>
        <time>2022-07-24T13:04:35Z</time>
      </trkpt>
      <trkpt lat="45.78246" lon="6.68302">
        <ele>1935</ele>
        <time>2022-07-24T13:04:36Z</time>
      </trkpt>
      <trkpt lat="45.78246" lon="6.68304">
        <ele>1935</ele>
        <time>2022-07-24T13:04:37Z</time>
      </trkpt>
      <trkpt lat="45.78246" lon="6.68306">
        <ele>1935</ele>
        <time>2022-07-24T13:04:38Z</time>
      </trkpt>
      <trkpt lat="45.78246" lon="6.68307">
        <ele>1935</ele>
        <time>2022-07-24T13:04:39Z</time>
      </trkpt>
      <trkpt lat="45.78246" lon="6.68309">
        <ele>1935</ele>
        <time>2022-07-24T13:04:40Z</time>
      </trkpt>
      <trkpt lat="45.78246" lon="6.6831">
        <ele>1935</ele>
        <time>2022-07-24T13:04:41Z</time>
      </trkpt>
      <trkpt lat="45.78246" lon="6.68312">
        <ele>1935</ele>
        <time>2022-07-24T13:04:42Z</time>
      </trkpt>
      <trkpt lat="45.78246" lon="6.68314">
        <ele>1935</ele>
        <time>2022-07-24T13:04:43Z</time>
      </trkpt>
      <trkpt lat="45.78246" lon="6.68315">
        <ele>1935</ele>
        <time>2022-07-24T13:04:44Z</time>
      </trkpt>
      <trkpt lat="45.78246" lon="6.68317">
        <ele>1935</ele>
        <time>2022-07-24T13:04:45Z</time>
      </trkpt>
      <trkpt lat="45.78246" lon="6.68319">
        <ele>1935</ele>
        <time>2022-07-24T13:04:46Z</time>
      </trkpt>
      <trkpt lat="45.78246" lon="6.68321">
        <ele>1935</ele>
        <time>2022-07-24T13:04:47Z</time>
      </trkpt>
      <trkpt lat="45.78246" lon="6.68322">
        <ele>1935</ele>
        <time>2022-07-24T13:04:48Z</time>
      </trkpt>
      <trkpt lat="45.78246" lon="6.68324">
        <ele>1935</ele>
        <time>2022-07-24T13:04:49Z</time>
      </trkpt>
      <trkpt lat="45.78246" lon="6.68326">
        <ele>1935</ele>
        <time>2022-07-24T13:04:50Z</time>
      </trkpt>
      <trkpt lat="45.78246" lon="6.68327">
        <ele>1935</ele>
        <time>2022-07-24T13:04:51Z</time>
      </trkpt>
      <trkpt lat="45.78246" lon="6.68329">
        <ele>1935</ele>
        <time>2022-07-24T13:04:52Z</time>
      </trkpt>
      <trkpt lat="45.78246" lon="6.68331">
        <ele>1935</ele>
        <time>2022-07-24T13:04:53Z</time>
      </trkpt>
      <trkpt lat="45.78246" lon="6.68333">
        <ele>1935</ele>
        <time>2022-07-24T13:04:54Z</time>
      </trkpt>
      <trkpt lat="45.78246" lon="6.68334">
        <ele>1935</ele>
        <time>2022-07-24T13:04:55Z</time>
      </trkpt>
      <trkpt lat="45.78246" lon="6.68336">
        <ele>1935</ele>
        <time>2022-07-24T13:04:56Z</time>
      </trkpt>
      <trkpt lat="45.78246" lon="6.68338">
        <ele>1935</ele>
        <time>2022-07-24T13:04:57Z</time>
      </trkpt>
      <trkpt lat="45.78246" lon="6.68339">
        <ele>1935</ele>
        <time>2022-07-24T13:04:58Z</time>
      </trkpt>
      <trkpt lat="45.78245" lon="6.68341">
        <ele>1934</ele>
        <time>2022-07-24T13:04:59Z</time>
      </trkpt>
      <trkpt lat="45.78245" lon="6.68343">
        <ele>1934</ele>
        <time>2022-07-24T13:05:00Z</time>
      </trkpt>
      <trkpt lat="45.78245" lon="6.68345">
        <ele>1934</ele>
        <time>2022-07-24T13:05:01Z</time>
      </trkpt>
      <trkpt lat="45.78245" lon="6.68346">
        <ele>1934</ele>
        <time>2022-07-24T13:05:02Z</time>
      </trkpt>
      <trkpt lat="45.78245" lon="6.68348">
        <ele>1934</ele>
        <time>2022-07-24T13:05:03Z</time>
      </trkpt>
      <trkpt lat="45.78245" lon="6.6835">
        <ele>1934</ele>
        <time>2022-07-24T13:05:04Z</time>
      </trkpt>
      <trkpt lat="45.78245" lon="6.68351">
        <ele>1934</ele>
        <time>2022-07-24T13:05:05Z</time>
      </trkpt>
      <trkpt lat="45.78245" lon="6.68353">
        <ele>1934</ele>
        <time>2022-07-24T13:05:06Z</time>
      </trkpt>
      <trkpt lat="45.78245" lon="6.68354">
        <ele>1934</ele>
        <time>2022-07-24T13:05:07Z</time>
      </trkpt>
      <trkpt lat="45.78245" lon="6.68356">
        <ele>1934</ele>
        <time>2022-07-24T13:05:08Z</time>
      </trkpt>
      <trkpt lat="45.78245" lon="6.68358">
        <ele>1934</ele>
        <time>2022-07-24T13:05:09Z</time>
      </trkpt>
      <trkpt lat="45.78245" lon="6.68359">
        <ele>1934</ele>
        <time>2022-07-24T13:05:10Z</time>
      </trkpt>
      <trkpt lat="45.78244" lon="6.68361">
        <ele>1934</ele>
        <time>2022-07-24T13:05:11Z</time>
      </trkpt>
      <trkpt lat="45.78244" lon="6.68363">
        <ele>1934</ele>
        <time>2022-07-24T13:05:12Z</time>
      </trkpt>
      <trkpt lat="45.78244" lon="6.68365">
        <ele>1934</ele>
        <time>2022-07-24T13:05:13Z</time>
      </trkpt>
      <trkpt lat="45.78244" lon="6.68366">
        <ele>1933</ele>
        <time>2022-07-24T13:05:14Z</time>
      </trkpt>
      <trkpt lat="45.78244" lon="6.68368">
        <ele>1933</ele>
        <time>2022-07-24T13:05:15Z</time>
      </trkpt>
      <trkpt lat="45.78244" lon="6.6837">
        <ele>1933</ele>
        <time>2022-07-24T13:05:16Z</time>
      </trkpt>
      <trkpt lat="45.78244" lon="6.68372">
        <ele>1933</ele>
        <time>2022-07-24T13:05:17Z</time>
      </trkpt>
      <trkpt lat="45.78244" lon="6.68374">
        <ele>1933</ele>
        <time>2022-07-24T13:05:18Z</time>
      </trkpt>
      <trkpt lat="45.78245" lon="6.68375">
        <ele>1933</ele>
        <time>2022-07-24T13:05:19Z</time>
      </trkpt>
      <trkpt lat="45.78245" lon="6.68377">
        <ele>1933</ele>
        <time>2022-07-24T13:05:20Z</time>
      </trkpt>
      <trkpt lat="45.78245" lon="6.68379">
        <ele>1933</ele>
        <time>2022-07-24T13:05:21Z</time>
      </trkpt>
      <trkpt lat="45.78246" lon="6.6838">
        <ele>1933</ele>
        <time>2022-07-24T13:05:22Z</time>
      </trkpt>
      <trkpt lat="45.78246" lon="6.68382">
        <ele>1933</ele>
        <time>2022-07-24T13:05:23Z</time>
      </trkpt>
      <trkpt lat="45.78246" lon="6.68383">
        <ele>1933</ele>
        <time>2022-07-24T13:05:24Z</time>
      </trkpt>
      <trkpt lat="45.78247" lon="6.68385">
        <ele>1933</ele>
        <time>2022-07-24T13:05:25Z</time>
      </trkpt>
      <trkpt lat="45.78247" lon="6.68386">
        <ele>1933</ele>
        <time>2022-07-24T13:05:26Z</time>
      </trkpt>
      <trkpt lat="45.78247" lon="6.68388">
        <ele>1933</ele>
        <time>2022-07-24T13:05:27Z</time>
      </trkpt>
      <trkpt lat="45.78248" lon="6.68389">
        <ele>1933</ele>
        <time>2022-07-24T13:05:28Z</time>
      </trkpt>
      <trkpt lat="45.78248" lon="6.68391">
        <ele>1932</ele>
        <time>2022-07-24T13:05:29Z</time>
      </trkpt>
      <trkpt lat="45.78248" lon="6.68392">
        <ele>1932</ele>
        <time>2022-07-24T13:05:30Z</time>
      </trkpt>
      <trkpt lat="45.78249" lon="6.68394">
        <ele>1932</ele>
        <time>2022-07-24T13:05:31Z</time>
      </trkpt>
      <trkpt lat="45.78249" lon="6.68396">
        <ele>1932</ele>
        <time>2022-07-24T13:05:32Z</time>
      </trkpt>
      <trkpt lat="45.78249" lon="6.68397">
        <ele>1932</ele>
        <time>2022-07-24T13:05:33Z</time>
      </trkpt>
      <trkpt lat="45.7825" lon="6.68399">
        <ele>1932</ele>
        <time>2022-07-24T13:05:34Z</time>
      </trkpt>
      <trkpt lat="45.7825" lon="6.68401">
        <ele>1932</ele>
        <time>2022-07-24T13:05:35Z</time>
      </trkpt>
      <trkpt lat="45.7825" lon="6.68403">
        <ele>1932</ele>
        <time>2022-07-24T13:05:36Z</time>
      </trkpt>
      <trkpt lat="45.78251" lon="6.68404">
        <ele>1932</ele>
        <time>2022-07-24T13:05:37Z</time>
      </trkpt>
      <trkpt lat="45.78251" lon="6.68406">
        <ele>1932</ele>
        <time>2022-07-24T13:05:38Z</time>
      </trkpt>
      <trkpt lat="45.78251" lon="6.68408">
        <ele>1932</ele>
        <time>2022-07-24T13:05:39Z</time>
      </trkpt>
      <trkpt lat="45.78252" lon="6.68409">
        <ele>1932</ele>
        <time>2022-07-24T13:05:40Z</time>
      </trkpt>
      <trkpt lat="45.78252" lon="6.68411">
        <ele>1932</ele>
        <time>2022-07-24T13:05:41Z</time>
      </trkpt>
      <trkpt lat="45.78252" lon="6.68413">
        <ele>1932</ele>
        <time>2022-07-24T13:05:42Z</time>
      </trkpt>
      <trkpt lat="45.78252" lon="6.68414">
        <ele>1932</ele>
        <time>2022-07-24T13:05:43Z</time>
      </trkpt>
      <trkpt lat="45.78252" lon="6.68416">
        <ele>1931</ele>
        <time>2022-07-24T13:05:44Z</time>
      </trkpt>
      <trkpt lat="45.78252" lon="6.68417">
        <ele>1931</ele>
        <time>2022-07-24T13:05:45Z</time>
      </trkpt>
      <trkpt lat="45.78253" lon="6.68419">
        <ele>1931</ele>
        <time>2022-07-24T13:05:46Z</time>
      </trkpt>
      <trkpt lat="45.78253" lon="6.68421">
        <ele>1931</ele>
        <time>2022-07-24T13:05:47Z</time>
      </trkpt>
      <trkpt lat="45.78253" lon="6.68422">
        <ele>1931</ele>
        <time>2022-07-24T13:05:48Z</time>
      </trkpt>
      <trkpt lat="45.78253" lon="6.68424">
        <ele>1931</ele>
        <time>2022-07-24T13:05:49Z</time>
      </trkpt>
      <trkpt lat="45.78253" lon="6.68426">
        <ele>1931</ele>
        <time>2022-07-24T13:05:50Z</time>
      </trkpt>
      <trkpt lat="45.78253" lon="6.68428">
        <ele>1931</ele>
        <time>2022-07-24T13:05:51Z</time>
      </trkpt>
      <trkpt lat="45.78253" lon="6.68429">
        <ele>1931</ele>
        <time>2022-07-24T13:05:52Z</time>
      </trkpt>
      <trkpt lat="45.78252" lon="6.68431">
        <ele>1931</ele>
        <time>2022-07-24T13:05:53Z</time>
      </trkpt>
      <trkpt lat="45.78252" lon="6.68433">
        <ele>1930</ele>
        <time>2022-07-24T13:05:54Z</time>
      </trkpt>
      <trkpt lat="45.78252" lon="6.68435">
        <ele>1930</ele>
        <time>2022-07-24T13:05:55Z</time>
      </trkpt>
      <trkpt lat="45.78252" lon="6.68436">
        <ele>1930</ele>
        <time>2022-07-24T13:05:56Z</time>
      </trkpt>
      <trkpt lat="45.78253" lon="6.68438">
        <ele>1930</ele>
        <time>2022-07-24T13:05:57Z</time>
      </trkpt>
      <trkpt lat="45.78253" lon="6.6844">
        <ele>1930</ele>
        <time>2022-07-24T13:05:58Z</time>
      </trkpt>
      <trkpt lat="45.78253" lon="6.68441">
        <ele>1930</ele>
        <time>2022-07-24T13:05:59Z</time>
      </trkpt>
      <trkpt lat="45.78253" lon="6.68443">
        <ele>1930</ele>
        <time>2022-07-24T13:06:00Z</time>
      </trkpt>
      <trkpt lat="45.78253" lon="6.68445">
        <ele>1930</ele>
        <time>2022-07-24T13:06:01Z</time>
      </trkpt>
      <trkpt lat="45.78253" lon="6.68446">
        <ele>1930</ele>
        <time>2022-07-24T13:06:02Z</time>
      </trkpt>
      <trkpt lat="45.78253" lon="6.68448">
        <ele>1930</ele>
        <time>2022-07-24T13:06:03Z</time>
      </trkpt>
      <trkpt lat="45.78253" lon="6.6845">
        <ele>1929</ele>
        <time>2022-07-24T13:06:04Z</time>
      </trkpt>
      <trkpt lat="45.78253" lon="6.68451">
        <ele>1929</ele>
        <time>2022-07-24T13:06:05Z</time>
      </trkpt>
      <trkpt lat="45.78253" lon="6.68453">
        <ele>1929</ele>
        <time>2022-07-24T13:06:06Z</time>
      </trkpt>
      <trkpt lat="45.78253" lon="6.68455">
        <ele>1929</ele>
        <time>2022-07-24T13:06:07Z</time>
      </trkpt>
      <trkpt lat="45.78253" lon="6.68457">
        <ele>1929</ele>
        <time>2022-07-24T13:06:08Z</time>
      </trkpt>
      <trkpt lat="45.78253" lon="6.68458">
        <ele>1929</ele>
        <time>2022-07-24T13:06:09Z</time>
      </trkpt>
      <trkpt lat="45.78254" lon="6.6846">
        <ele>1929</ele>
        <time>2022-07-24T13:06:10Z</time>
      </trkpt>
      <trkpt lat="45.78254" lon="6.68462">
        <ele>1929</ele>
        <time>2022-07-24T13:06:11Z</time>
      </trkpt>
      <trkpt lat="45.78255" lon="6.68464">
        <ele>1929</ele>
        <time>2022-07-24T13:06:12Z</time>
      </trkpt>
      <trkpt lat="45.78255" lon="6.68465">
        <ele>1929</ele>
        <time>2022-07-24T13:06:13Z</time>
      </trkpt>
      <trkpt lat="45.78256" lon="6.68467">
        <ele>1928</ele>
        <time>2022-07-24T13:06:14Z</time>
      </trkpt>
      <trkpt lat="45.78256" lon="6.68469">
        <ele>1928</ele>
        <time>2022-07-24T13:06:15Z</time>
      </trkpt>
      <trkpt lat="45.78257" lon="6.68471">
        <ele>1928</ele>
        <time>2022-07-24T13:06:16Z</time>
      </trkpt>
      <trkpt lat="45.78257" lon="6.68473">
        <ele>1928</ele>
        <time>2022-07-24T13:06:17Z</time>
      </trkpt>
      <trkpt lat="45.78258" lon="6.68475">
        <ele>1928</ele>
        <time>2022-07-24T13:06:18Z</time>
      </trkpt>
      <trkpt lat="45.78258" lon="6.68476">
        <ele>1928</ele>
        <time>2022-07-24T13:06:19Z</time>
      </trkpt>
      <trkpt lat="45.78259" lon="6.68478">
        <ele>1928</ele>
        <time>2022-07-24T13:06:20Z</time>
      </trkpt>
      <trkpt lat="45.78259" lon="6.6848">
        <ele>1928</ele>
        <time>2022-07-24T13:06:21Z</time>
      </trkpt>
      <trkpt lat="45.78259" lon="6.68482">
        <ele>1928</ele>
        <time>2022-07-24T13:06:22Z</time>
      </trkpt>
      <trkpt lat="45.7826" lon="6.68484">
        <ele>1928</ele>
        <time>2022-07-24T13:06:23Z</time>
      </trkpt>
      <trkpt lat="45.7826" lon="6.68486">
        <ele>1927</ele>
        <time>2022-07-24T13:06:24Z</time>
      </trkpt>
      <trkpt lat="45.78261" lon="6.68487">
        <ele>1927</ele>
        <time>2022-07-24T13:06:25Z</time>
      </trkpt>
      <trkpt lat="45.78261" lon="6.68489">
        <ele>1927</ele>
        <time>2022-07-24T13:06:26Z</time>
      </trkpt>
      <trkpt lat="45.78261" lon="6.68491">
        <ele>1927</ele>
        <time>2022-07-24T13:06:27Z</time>
      </trkpt>
      <trkpt lat="45.78262" lon="6.68492">
        <ele>1927</ele>
        <time>2022-07-24T13:06:28Z</time>
      </trkpt>
      <trkpt lat="45.78262" lon="6.68494">
        <ele>1927</ele>
        <time>2022-07-24T13:06:29Z</time>
      </trkpt>
      <trkpt lat="45.78262" lon="6.68495">
        <ele>1927</ele>
        <time>2022-07-24T13:06:30Z</time>
      </trkpt>
      <trkpt lat="45.78262" lon="6.68497">
        <ele>1927</ele>
        <time>2022-07-24T13:06:31Z</time>
      </trkpt>
      <trkpt lat="45.78262" lon="6.68498">
        <ele>1927</ele>
        <time>2022-07-24T13:06:32Z</time>
      </trkpt>
      <trkpt lat="45.78262" lon="6.68501">
        <ele>1926</ele>
        <time>2022-07-24T13:06:52Z</time>
      </trkpt>
      <trkpt lat="45.78262" lon="6.68502">
        <ele>1926</ele>
        <time>2022-07-24T13:06:53Z</time>
      </trkpt>
      <trkpt lat="45.78262" lon="6.68504">
        <ele>1926</ele>
        <time>2022-07-24T13:06:54Z</time>
      </trkpt>
      <trkpt lat="45.78262" lon="6.68505">
        <ele>1926</ele>
        <time>2022-07-24T13:06:55Z</time>
      </trkpt>
      <trkpt lat="45.78262" lon="6.68506">
        <ele>1926</ele>
        <time>2022-07-24T13:06:56Z</time>
      </trkpt>
      <trkpt lat="45.78261" lon="6.68507">
        <ele>1926</ele>
        <time>2022-07-24T13:06:57Z</time>
      </trkpt>
      <trkpt lat="45.78261" lon="6.68508">
        <ele>1926</ele>
        <time>2022-07-24T13:06:58Z</time>
      </trkpt>
      <trkpt lat="45.7826" lon="6.6851">
        <ele>1926</ele>
        <time>2022-07-24T13:06:59Z</time>
      </trkpt>
      <trkpt lat="45.7826" lon="6.68511">
        <ele>1926</ele>
        <time>2022-07-24T13:07:00Z</time>
      </trkpt>
      <trkpt lat="45.7826" lon="6.68512">
        <ele>1926</ele>
        <time>2022-07-24T13:07:01Z</time>
      </trkpt>
      <trkpt lat="45.78259" lon="6.68514">
        <ele>1926</ele>
        <time>2022-07-24T13:07:02Z</time>
      </trkpt>
      <trkpt lat="45.78259" lon="6.68515">
        <ele>1927</ele>
        <time>2022-07-24T13:07:03Z</time>
      </trkpt>
      <trkpt lat="45.78258" lon="6.68516">
        <ele>1927</ele>
        <time>2022-07-24T13:07:04Z</time>
      </trkpt>
      <trkpt lat="45.78257" lon="6.68517">
        <ele>1927</ele>
        <time>2022-07-24T13:07:05Z</time>
      </trkpt>
      <trkpt lat="45.78257" lon="6.68519">
        <ele>1927</ele>
        <time>2022-07-24T13:07:06Z</time>
      </trkpt>
      <trkpt lat="45.78256" lon="6.6852">
        <ele>1927</ele>
        <time>2022-07-24T13:07:07Z</time>
      </trkpt>
      <trkpt lat="45.78256" lon="6.68521">
        <ele>1927</ele>
        <time>2022-07-24T13:07:08Z</time>
      </trkpt>
      <trkpt lat="45.78255" lon="6.68521">
        <ele>1927</ele>
        <time>2022-07-24T13:07:09Z</time>
      </trkpt>
      <trkpt lat="45.78254" lon="6.68522">
        <ele>1927</ele>
        <time>2022-07-24T13:07:10Z</time>
      </trkpt>
      <trkpt lat="45.78254" lon="6.68523">
        <ele>1927</ele>
        <time>2022-07-24T13:07:11Z</time>
      </trkpt>
      <trkpt lat="45.78253" lon="6.68524">
        <ele>1927</ele>
        <time>2022-07-24T13:07:12Z</time>
      </trkpt>
      <trkpt lat="45.78252" lon="6.68525">
        <ele>1928</ele>
        <time>2022-07-24T13:07:13Z</time>
      </trkpt>
      <trkpt lat="45.78251" lon="6.68526">
        <ele>1928</ele>
        <time>2022-07-24T13:07:14Z</time>
      </trkpt>
      <trkpt lat="45.7825" lon="6.68526">
        <ele>1928</ele>
        <time>2022-07-24T13:07:15Z</time>
      </trkpt>
      <trkpt lat="45.7825" lon="6.68527">
        <ele>1928</ele>
        <time>2022-07-24T13:07:16Z</time>
      </trkpt>
      <trkpt lat="45.78249" lon="6.68528">
        <ele>1928</ele>
        <time>2022-07-24T13:07:17Z</time>
      </trkpt>
      <trkpt lat="45.78248" lon="6.68529">
        <ele>1928</ele>
        <time>2022-07-24T13:07:18Z</time>
      </trkpt>
      <trkpt lat="45.78247" lon="6.68529">
        <ele>1928</ele>
        <time>2022-07-24T13:07:19Z</time>
      </trkpt>
      <trkpt lat="45.78247" lon="6.6853">
        <ele>1928</ele>
        <time>2022-07-24T13:07:20Z</time>
      </trkpt>
      <trkpt lat="45.78246" lon="6.68531">
        <ele>1928</ele>
        <time>2022-07-24T13:07:21Z</time>
      </trkpt>
      <trkpt lat="45.78245" lon="6.68532">
        <ele>1928</ele>
        <time>2022-07-24T13:07:22Z</time>
      </trkpt>
      <trkpt lat="45.78245" lon="6.68533">
        <ele>1928</ele>
        <time>2022-07-24T13:07:23Z</time>
      </trkpt>
      <trkpt lat="45.78244" lon="6.68534">
        <ele>1928</ele>
        <time>2022-07-24T13:07:24Z</time>
      </trkpt>
      <trkpt lat="45.78243" lon="6.68535">
        <ele>1928</ele>
        <time>2022-07-24T13:07:25Z</time>
      </trkpt>
      <trkpt lat="45.78243" lon="6.68536">
        <ele>1928</ele>
        <time>2022-07-24T13:07:26Z</time>
      </trkpt>
      <trkpt lat="45.78242" lon="6.68538">
        <ele>1928</ele>
        <time>2022-07-24T13:07:27Z</time>
      </trkpt>
      <trkpt lat="45.78241" lon="6.68539">
        <ele>1929</ele>
        <time>2022-07-24T13:07:28Z</time>
      </trkpt>
      <trkpt lat="45.78241" lon="6.68539">
        <ele>1929</ele>
        <time>2022-07-24T13:07:29Z</time>
      </trkpt>
      <trkpt lat="45.78241" lon="6.68539">
        <ele>1929</ele>
        <time>2022-07-24T13:07:30Z</time>
      </trkpt>
      <trkpt lat="45.78241" lon="6.6854">
        <ele>1929</ele>
        <time>2022-07-24T13:07:31Z</time>
      </trkpt>
      <trkpt lat="45.78241" lon="6.68541">
        <ele>1929</ele>
        <time>2022-07-24T13:07:32Z</time>
      </trkpt>
      <trkpt lat="45.7824" lon="6.68541">
        <ele>1929</ele>
        <time>2022-07-24T13:07:33Z</time>
      </trkpt>
      <trkpt lat="45.7824" lon="6.68542">
        <ele>1929</ele>
        <time>2022-07-24T13:07:34Z</time>
      </trkpt>
      <trkpt lat="45.7824" lon="6.68543">
        <ele>1929</ele>
        <time>2022-07-24T13:07:35Z</time>
      </trkpt>
      <trkpt lat="45.7824" lon="6.68544">
        <ele>1929</ele>
        <time>2022-07-24T13:07:36Z</time>
      </trkpt>
      <trkpt lat="45.78239" lon="6.68545">
        <ele>1929</ele>
        <time>2022-07-24T13:07:37Z</time>
      </trkpt>
      <trkpt lat="45.78239" lon="6.68546">
        <ele>1929</ele>
        <time>2022-07-24T13:07:38Z</time>
      </trkpt>
      <trkpt lat="45.78238" lon="6.68547">
        <ele>1929</ele>
        <time>2022-07-24T13:07:39Z</time>
      </trkpt>
      <trkpt lat="45.78238" lon="6.68549">
        <ele>1929</ele>
        <time>2022-07-24T13:07:40Z</time>
      </trkpt>
      <trkpt lat="45.78238" lon="6.6855">
        <ele>1929</ele>
        <time>2022-07-24T13:07:41Z</time>
      </trkpt>
      <trkpt lat="45.78237" lon="6.68552">
        <ele>1929</ele>
        <time>2022-07-24T13:07:42Z</time>
      </trkpt>
      <trkpt lat="45.78237" lon="6.68553">
        <ele>1929</ele>
        <time>2022-07-24T13:07:43Z</time>
      </trkpt>
      <trkpt lat="45.78237" lon="6.68555">
        <ele>1929</ele>
        <time>2022-07-24T13:07:44Z</time>
      </trkpt>
      <trkpt lat="45.78236" lon="6.68557">
        <ele>1929</ele>
        <time>2022-07-24T13:07:45Z</time>
      </trkpt>
      <trkpt lat="45.78236" lon="6.68558">
        <ele>1929</ele>
        <time>2022-07-24T13:07:46Z</time>
      </trkpt>
      <trkpt lat="45.78236" lon="6.6856">
        <ele>1929</ele>
        <time>2022-07-24T13:07:47Z</time>
      </trkpt>
      <trkpt lat="45.78236" lon="6.68562">
        <ele>1929</ele>
        <time>2022-07-24T13:07:48Z</time>
      </trkpt>
      <trkpt lat="45.78237" lon="6.68563">
        <ele>1929</ele>
        <time>2022-07-24T13:07:49Z</time>
      </trkpt>
      <trkpt lat="45.78237" lon="6.68565">
        <ele>1929</ele>
        <time>2022-07-24T13:07:50Z</time>
      </trkpt>
      <trkpt lat="45.78237" lon="6.68566">
        <ele>1929</ele>
        <time>2022-07-24T13:07:51Z</time>
      </trkpt>
      <trkpt lat="45.78238" lon="6.68568">
        <ele>1929</ele>
        <time>2022-07-24T13:07:52Z</time>
      </trkpt>
      <trkpt lat="45.78238" lon="6.6857">
        <ele>1930</ele>
        <time>2022-07-24T13:07:53Z</time>
      </trkpt>
      <trkpt lat="45.78238" lon="6.68571">
        <ele>1930</ele>
        <time>2022-07-24T13:07:54Z</time>
      </trkpt>
      <trkpt lat="45.78239" lon="6.68573">
        <ele>1930</ele>
        <time>2022-07-24T13:07:55Z</time>
      </trkpt>
      <trkpt lat="45.78239" lon="6.68574">
        <ele>1930</ele>
        <time>2022-07-24T13:07:56Z</time>
      </trkpt>
      <trkpt lat="45.7824" lon="6.68576">
        <ele>1930</ele>
        <time>2022-07-24T13:07:57Z</time>
      </trkpt>
      <trkpt lat="45.7824" lon="6.68577">
        <ele>1930</ele>
        <time>2022-07-24T13:07:58Z</time>
      </trkpt>
      <trkpt lat="45.78241" lon="6.68579">
        <ele>1930</ele>
        <time>2022-07-24T13:07:59Z</time>
      </trkpt>
      <trkpt lat="45.78242" lon="6.6858">
        <ele>1930</ele>
        <time>2022-07-24T13:08:00Z</time>
      </trkpt>
      <trkpt lat="45.78242" lon="6.68582">
        <ele>1930</ele>
        <time>2022-07-24T13:08:01Z</time>
      </trkpt>
      <trkpt lat="45.78242" lon="6.68583">
        <ele>1930</ele>
        <time>2022-07-24T13:08:02Z</time>
      </trkpt>
      <trkpt lat="45.78243" lon="6.68584">
        <ele>1930</ele>
        <time>2022-07-24T13:08:03Z</time>
      </trkpt>
      <trkpt lat="45.78243" lon="6.68585">
        <ele>1930</ele>
        <time>2022-07-24T13:08:04Z</time>
      </trkpt>
      <trkpt lat="45.78244" lon="6.68587">
        <ele>1930</ele>
        <time>2022-07-24T13:08:05Z</time>
      </trkpt>
      <trkpt lat="45.78244" lon="6.68588">
        <ele>1930</ele>
        <time>2022-07-24T13:08:06Z</time>
      </trkpt>
      <trkpt lat="45.78245" lon="6.68589">
        <ele>1930</ele>
        <time>2022-07-24T13:08:07Z</time>
      </trkpt>
      <trkpt lat="45.78245" lon="6.68591">
        <ele>1931</ele>
        <time>2022-07-24T13:08:08Z</time>
      </trkpt>
      <trkpt lat="45.78246" lon="6.68592">
        <ele>1931</ele>
        <time>2022-07-24T13:08:09Z</time>
      </trkpt>
      <trkpt lat="45.78246" lon="6.68593">
        <ele>1931</ele>
        <time>2022-07-24T13:08:10Z</time>
      </trkpt>
      <trkpt lat="45.78247" lon="6.68594">
        <ele>1931</ele>
        <time>2022-07-24T13:08:11Z</time>
      </trkpt>
      <trkpt lat="45.78247" lon="6.68596">
        <ele>1931</ele>
        <time>2022-07-24T13:08:12Z</time>
      </trkpt>
      <trkpt lat="45.78248" lon="6.68597">
        <ele>1931</ele>
        <time>2022-07-24T13:08:13Z</time>
      </trkpt>
      <trkpt lat="45.78248" lon="6.68598">
        <ele>1931</ele>
        <time>2022-07-24T13:08:14Z</time>
      </trkpt>
      <trkpt lat="45.78248" lon="6.686">
        <ele>1931</ele>
        <time>2022-07-24T13:08:15Z</time>
      </trkpt>
      <trkpt lat="45.78249" lon="6.68601">
        <ele>1931</ele>
        <time>2022-07-24T13:08:16Z</time>
      </trkpt>
      <trkpt lat="45.78249" lon="6.68602">
        <ele>1931</ele>
        <time>2022-07-24T13:08:17Z</time>
      </trkpt>
      <trkpt lat="45.78249" lon="6.68603">
        <ele>1932</ele>
        <time>2022-07-24T13:08:18Z</time>
      </trkpt>
      <trkpt lat="45.7825" lon="6.68605">
        <ele>1932</ele>
        <time>2022-07-24T13:08:19Z</time>
      </trkpt>
      <trkpt lat="45.7825" lon="6.68606">
        <ele>1932</ele>
        <time>2022-07-24T13:08:20Z</time>
      </trkpt>
      <trkpt lat="45.7825" lon="6.68607">
        <ele>1932</ele>
        <time>2022-07-24T13:08:21Z</time>
      </trkpt>
      <trkpt lat="45.7825" lon="6.68608">
        <ele>1932</ele>
        <time>2022-07-24T13:08:22Z</time>
      </trkpt>
      <trkpt lat="45.78251" lon="6.6861">
        <ele>1932</ele>
        <time>2022-07-24T13:08:23Z</time>
      </trkpt>
      <trkpt lat="45.78251" lon="6.68611">
        <ele>1932</ele>
        <time>2022-07-24T13:08:24Z</time>
      </trkpt>
      <trkpt lat="45.78251" lon="6.68612">
        <ele>1932</ele>
        <time>2022-07-24T13:08:25Z</time>
      </trkpt>
      <trkpt lat="45.78251" lon="6.68613">
        <ele>1932</ele>
        <time>2022-07-24T13:08:26Z</time>
      </trkpt>
      <trkpt lat="45.78252" lon="6.68614">
        <ele>1932</ele>
        <time>2022-07-24T13:08:27Z</time>
      </trkpt>
      <trkpt lat="45.78252" lon="6.68616">
        <ele>1933</ele>
        <time>2022-07-24T13:08:28Z</time>
      </trkpt>
      <trkpt lat="45.78252" lon="6.68617">
        <ele>1933</ele>
        <time>2022-07-24T13:08:29Z</time>
      </trkpt>
      <trkpt lat="45.78252" lon="6.68618">
        <ele>1933</ele>
        <time>2022-07-24T13:08:30Z</time>
      </trkpt>
      <trkpt lat="45.78253" lon="6.6862">
        <ele>1933</ele>
        <time>2022-07-24T13:08:31Z</time>
      </trkpt>
      <trkpt lat="45.78253" lon="6.68621">
        <ele>1933</ele>
        <time>2022-07-24T13:08:32Z</time>
      </trkpt>
      <trkpt lat="45.78253" lon="6.68622">
        <ele>1933</ele>
        <time>2022-07-24T13:08:33Z</time>
      </trkpt>
      <trkpt lat="45.78253" lon="6.68623">
        <ele>1933</ele>
        <time>2022-07-24T13:08:34Z</time>
      </trkpt>
      <trkpt lat="45.78253" lon="6.68624">
        <ele>1933</ele>
        <time>2022-07-24T13:08:35Z</time>
      </trkpt>
      <trkpt lat="45.78253" lon="6.68626">
        <ele>1933</ele>
        <time>2022-07-24T13:08:36Z</time>
      </trkpt>
      <trkpt lat="45.78254" lon="6.68627">
        <ele>1933</ele>
        <time>2022-07-24T13:08:37Z</time>
      </trkpt>
      <trkpt lat="45.78254" lon="6.68628">
        <ele>1934</ele>
        <time>2022-07-24T13:08:38Z</time>
      </trkpt>
      <trkpt lat="45.78254" lon="6.68629">
        <ele>1934</ele>
        <time>2022-07-24T13:08:39Z</time>
      </trkpt>
      <trkpt lat="45.78254" lon="6.6863">
        <ele>1934</ele>
        <time>2022-07-24T13:08:40Z</time>
      </trkpt>
      <trkpt lat="45.78254" lon="6.68632">
        <ele>1934</ele>
        <time>2022-07-24T13:08:41Z</time>
      </trkpt>
      <trkpt lat="45.78254" lon="6.68633">
        <ele>1934</ele>
        <time>2022-07-24T13:08:42Z</time>
      </trkpt>
      <trkpt lat="45.78254" lon="6.68634">
        <ele>1935</ele>
        <time>2022-07-24T13:08:43Z</time>
      </trkpt>
      <trkpt lat="45.78254" lon="6.68635">
        <ele>1935</ele>
        <time>2022-07-24T13:08:44Z</time>
      </trkpt>
      <trkpt lat="45.78254" lon="6.68636">
        <ele>1935</ele>
        <time>2022-07-24T13:08:45Z</time>
      </trkpt>
      <trkpt lat="45.78254" lon="6.68638">
        <ele>1935</ele>
        <time>2022-07-24T13:08:46Z</time>
      </trkpt>
      <trkpt lat="45.78254" lon="6.68639">
        <ele>1935</ele>
        <time>2022-07-24T13:08:47Z</time>
      </trkpt>
      <trkpt lat="45.78254" lon="6.6864">
        <ele>1936</ele>
        <time>2022-07-24T13:08:48Z</time>
      </trkpt>
      <trkpt lat="45.78254" lon="6.68641">
        <ele>1936</ele>
        <time>2022-07-24T13:08:49Z</time>
      </trkpt>
      <trkpt lat="45.78254" lon="6.68643">
        <ele>1936</ele>
        <time>2022-07-24T13:08:50Z</time>
      </trkpt>
      <trkpt lat="45.78255" lon="6.68644">
        <ele>1936</ele>
        <time>2022-07-24T13:08:51Z</time>
      </trkpt>
      <trkpt lat="45.78255" lon="6.68645">
        <ele>1936</ele>
        <time>2022-07-24T13:08:52Z</time>
      </trkpt>
      <trkpt lat="45.78255" lon="6.68646">
        <ele>1937</ele>
        <time>2022-07-24T13:08:53Z</time>
      </trkpt>
      <trkpt lat="45.78255" lon="6.68648">
        <ele>1937</ele>
        <time>2022-07-24T13:08:54Z</time>
      </trkpt>
      <trkpt lat="45.78255" lon="6.68649">
        <ele>1937</ele>
        <time>2022-07-24T13:08:55Z</time>
      </trkpt>
      <trkpt lat="45.78255" lon="6.6865">
        <ele>1937</ele>
        <time>2022-07-24T13:08:56Z</time>
      </trkpt>
      <trkpt lat="45.78255" lon="6.68651">
        <ele>1937</ele>
        <time>2022-07-24T13:08:57Z</time>
      </trkpt>
      <trkpt lat="45.78255" lon="6.68653">
        <ele>1937</ele>
        <time>2022-07-24T13:08:58Z</time>
      </trkpt>
      <trkpt lat="45.78255" lon="6.68654">
        <ele>1937</ele>
        <time>2022-07-24T13:08:59Z</time>
      </trkpt>
      <trkpt lat="45.78255" lon="6.68656">
        <ele>1937</ele>
        <time>2022-07-24T13:09:00Z</time>
      </trkpt>
      <trkpt lat="45.78255" lon="6.68657">
        <ele>1937</ele>
        <time>2022-07-24T13:09:01Z</time>
      </trkpt>
      <trkpt lat="45.78255" lon="6.68659">
        <ele>1937</ele>
        <time>2022-07-24T13:09:02Z</time>
      </trkpt>
      <trkpt lat="45.78255" lon="6.6866">
        <ele>1938</ele>
        <time>2022-07-24T13:09:03Z</time>
      </trkpt>
      <trkpt lat="45.78255" lon="6.68662">
        <ele>1938</ele>
        <time>2022-07-24T13:09:04Z</time>
      </trkpt>
      <trkpt lat="45.78255" lon="6.68663">
        <ele>1938</ele>
        <time>2022-07-24T13:09:05Z</time>
      </trkpt>
      <trkpt lat="45.78255" lon="6.68664">
        <ele>1938</ele>
        <time>2022-07-24T13:09:06Z</time>
      </trkpt>
      <trkpt lat="45.78255" lon="6.68666">
        <ele>1938</ele>
        <time>2022-07-24T13:09:07Z</time>
      </trkpt>
      <trkpt lat="45.78255" lon="6.68667">
        <ele>1938</ele>
        <time>2022-07-24T13:09:08Z</time>
      </trkpt>
      <trkpt lat="45.78255" lon="6.68669">
        <ele>1938</ele>
        <time>2022-07-24T13:09:09Z</time>
      </trkpt>
      <trkpt lat="45.78255" lon="6.6867">
        <ele>1938</ele>
        <time>2022-07-24T13:09:10Z</time>
      </trkpt>
      <trkpt lat="45.78255" lon="6.68672">
        <ele>1938</ele>
        <time>2022-07-24T13:09:11Z</time>
      </trkpt>
      <trkpt lat="45.78254" lon="6.68673">
        <ele>1938</ele>
        <time>2022-07-24T13:09:12Z</time>
      </trkpt>
      <trkpt lat="45.78254" lon="6.68675">
        <ele>1939</ele>
        <time>2022-07-24T13:09:13Z</time>
      </trkpt>
      <trkpt lat="45.78254" lon="6.68676">
        <ele>1939</ele>
        <time>2022-07-24T13:09:14Z</time>
      </trkpt>
      <trkpt lat="45.78254" lon="6.68678">
        <ele>1939</ele>
        <time>2022-07-24T13:09:15Z</time>
      </trkpt>
      <trkpt lat="45.78253" lon="6.68679">
        <ele>1939</ele>
        <time>2022-07-24T13:09:16Z</time>
      </trkpt>
      <trkpt lat="45.78253" lon="6.6868">
        <ele>1939</ele>
        <time>2022-07-24T13:09:17Z</time>
      </trkpt>
      <trkpt lat="45.78252" lon="6.68681">
        <ele>1939</ele>
        <time>2022-07-24T13:09:18Z</time>
      </trkpt>
      <trkpt lat="45.78252" lon="6.68683">
        <ele>1939</ele>
        <time>2022-07-24T13:09:19Z</time>
      </trkpt>
      <trkpt lat="45.78251" lon="6.68684">
        <ele>1939</ele>
        <time>2022-07-24T13:09:20Z</time>
      </trkpt>
      <trkpt lat="45.7825" lon="6.68685">
        <ele>1939</ele>
        <time>2022-07-24T13:09:21Z</time>
      </trkpt>
      <trkpt lat="45.78249" lon="6.68685">
        <ele>1939</ele>
        <time>2022-07-24T13:09:22Z</time>
      </trkpt>
      <trkpt lat="45.78249" lon="6.68686">
        <ele>1939</ele>
        <time>2022-07-24T13:09:23Z</time>
      </trkpt>
      <trkpt lat="45.78248" lon="6.68687">
        <ele>1939</ele>
        <time>2022-07-24T13:09:24Z</time>
      </trkpt>
      <trkpt lat="45.78247" lon="6.68687">
        <ele>1939</ele>
        <time>2022-07-24T13:09:25Z</time>
      </trkpt>
      <trkpt lat="45.78246" lon="6.68688">
        <ele>1939</ele>
        <time>2022-07-24T13:09:26Z</time>
      </trkpt>
      <trkpt lat="45.78246" lon="6.68689">
        <ele>1939</ele>
        <time>2022-07-24T13:09:27Z</time>
      </trkpt>
      <trkpt lat="45.78245" lon="6.68689">
        <ele>1939</ele>
        <time>2022-07-24T13:09:28Z</time>
      </trkpt>
      <trkpt lat="45.78245" lon="6.68689">
        <ele>1939</ele>
        <time>2022-07-24T13:09:29Z</time>
      </trkpt>
      <trkpt lat="45.78244" lon="6.68689">
        <ele>1939</ele>
        <time>2022-07-24T13:09:30Z</time>
      </trkpt>
      <trkpt lat="45.78244" lon="6.6869">
        <ele>1939</ele>
        <time>2022-07-24T13:09:31Z</time>
      </trkpt>
      <trkpt lat="45.78243" lon="6.6869">
        <ele>1939</ele>
        <time>2022-07-24T13:09:32Z</time>
      </trkpt>
      <trkpt lat="45.78242" lon="6.6869">
        <ele>1939</ele>
        <time>2022-07-24T13:09:33Z</time>
      </trkpt>
      <trkpt lat="45.78241" lon="6.68691">
        <ele>1939</ele>
        <time>2022-07-24T13:09:34Z</time>
      </trkpt>
      <trkpt lat="45.78241" lon="6.68691">
        <ele>1940</ele>
        <time>2022-07-24T13:09:58Z</time>
      </trkpt>
      <trkpt lat="45.78241" lon="6.68692">
        <ele>1940</ele>
        <time>2022-07-24T13:09:59Z</time>
      </trkpt>
      <trkpt lat="45.78241" lon="6.68693">
        <ele>1940</ele>
        <time>2022-07-24T13:10:00Z</time>
      </trkpt>
      <trkpt lat="45.78241" lon="6.68693">
        <ele>1940</ele>
        <time>2022-07-24T13:10:01Z</time>
      </trkpt>
      <trkpt lat="45.78241" lon="6.68694">
        <ele>1940</ele>
        <time>2022-07-24T13:10:02Z</time>
      </trkpt>
      <trkpt lat="45.78242" lon="6.68696">
        <ele>1940</ele>
        <time>2022-07-24T13:10:03Z</time>
      </trkpt>
      <trkpt lat="45.78243" lon="6.68697">
        <ele>1939</ele>
        <time>2022-07-24T13:10:04Z</time>
      </trkpt>
      <trkpt lat="45.78243" lon="6.68699">
        <ele>1939</ele>
        <time>2022-07-24T13:10:05Z</time>
      </trkpt>
      <trkpt lat="45.78244" lon="6.687">
        <ele>1939</ele>
        <time>2022-07-24T13:10:06Z</time>
      </trkpt>
      <trkpt lat="45.78244" lon="6.68702">
        <ele>1939</ele>
        <time>2022-07-24T13:10:07Z</time>
      </trkpt>
      <trkpt lat="45.78245" lon="6.68704">
        <ele>1939</ele>
        <time>2022-07-24T13:10:08Z</time>
      </trkpt>
      <trkpt lat="45.78245" lon="6.68705">
        <ele>1939</ele>
        <time>2022-07-24T13:10:09Z</time>
      </trkpt>
      <trkpt lat="45.78245" lon="6.68707">
        <ele>1939</ele>
        <time>2022-07-24T13:10:10Z</time>
      </trkpt>
      <trkpt lat="45.78246" lon="6.68709">
        <ele>1939</ele>
        <time>2022-07-24T13:10:11Z</time>
      </trkpt>
      <trkpt lat="45.78246" lon="6.6871">
        <ele>1939</ele>
        <time>2022-07-24T13:10:12Z</time>
      </trkpt>
      <trkpt lat="45.78247" lon="6.68712">
        <ele>1939</ele>
        <time>2022-07-24T13:10:13Z</time>
      </trkpt>
      <trkpt lat="45.78247" lon="6.68714">
        <ele>1939</ele>
        <time>2022-07-24T13:10:14Z</time>
      </trkpt>
      <trkpt lat="45.78247" lon="6.68715">
        <ele>1939</ele>
        <time>2022-07-24T13:10:15Z</time>
      </trkpt>
      <trkpt lat="45.78248" lon="6.68717">
        <ele>1939</ele>
        <time>2022-07-24T13:10:16Z</time>
      </trkpt>
      <trkpt lat="45.78248" lon="6.68719">
        <ele>1939</ele>
        <time>2022-07-24T13:10:17Z</time>
      </trkpt>
      <trkpt lat="45.78249" lon="6.68721">
        <ele>1939</ele>
        <time>2022-07-24T13:10:18Z</time>
      </trkpt>
      <trkpt lat="45.78249" lon="6.68722">
        <ele>1939</ele>
        <time>2022-07-24T13:10:19Z</time>
      </trkpt>
      <trkpt lat="45.78249" lon="6.68724">
        <ele>1939</ele>
        <time>2022-07-24T13:10:20Z</time>
      </trkpt>
      <trkpt lat="45.78249" lon="6.68726">
        <ele>1939</ele>
        <time>2022-07-24T13:10:21Z</time>
      </trkpt>
      <trkpt lat="45.7825" lon="6.68727">
        <ele>1939</ele>
        <time>2022-07-24T13:10:22Z</time>
      </trkpt>
      <trkpt lat="45.7825" lon="6.68729">
        <ele>1939</ele>
        <time>2022-07-24T13:10:23Z</time>
      </trkpt>
      <trkpt lat="45.78251" lon="6.68731">
        <ele>1939</ele>
        <time>2022-07-24T13:10:24Z</time>
      </trkpt>
      <trkpt lat="45.78251" lon="6.68732">
        <ele>1939</ele>
        <time>2022-07-24T13:10:25Z</time>
      </trkpt>
      <trkpt lat="45.78252" lon="6.68734">
        <ele>1939</ele>
        <time>2022-07-24T13:10:26Z</time>
      </trkpt>
      <trkpt lat="45.78252" lon="6.68736">
        <ele>1939</ele>
        <time>2022-07-24T13:10:27Z</time>
      </trkpt>
      <trkpt lat="45.78253" lon="6.68738">
        <ele>1939</ele>
        <time>2022-07-24T13:10:28Z</time>
      </trkpt>
      <trkpt lat="45.78253" lon="6.6874">
        <ele>1939</ele>
        <time>2022-07-24T13:10:29Z</time>
      </trkpt>
      <trkpt lat="45.78253" lon="6.68742">
        <ele>1939</ele>
        <time>2022-07-24T13:10:30Z</time>
      </trkpt>
      <trkpt lat="45.78253" lon="6.68744">
        <ele>1939</ele>
        <time>2022-07-24T13:10:31Z</time>
      </trkpt>
      <trkpt lat="45.78253" lon="6.68745">
        <ele>1939</ele>
        <time>2022-07-24T13:10:32Z</time>
      </trkpt>
      <trkpt lat="45.78253" lon="6.68747">
        <ele>1939</ele>
        <time>2022-07-24T13:10:33Z</time>
      </trkpt>
      <trkpt lat="45.78253" lon="6.68749">
        <ele>1938</ele>
        <time>2022-07-24T13:10:34Z</time>
      </trkpt>
      <trkpt lat="45.78253" lon="6.68751">
        <ele>1938</ele>
        <time>2022-07-24T13:10:35Z</time>
      </trkpt>
      <trkpt lat="45.78253" lon="6.68753">
        <ele>1938</ele>
        <time>2022-07-24T13:10:36Z</time>
      </trkpt>
      <trkpt lat="45.78252" lon="6.68755">
        <ele>1938</ele>
        <time>2022-07-24T13:10:37Z</time>
      </trkpt>
      <trkpt lat="45.78252" lon="6.68756">
        <ele>1938</ele>
        <time>2022-07-24T13:10:38Z</time>
      </trkpt>
      <trkpt lat="45.78252" lon="6.68758">
        <ele>1938</ele>
        <time>2022-07-24T13:10:39Z</time>
      </trkpt>
      <trkpt lat="45.78251" lon="6.6876">
        <ele>1938</ele>
        <time>2022-07-24T13:10:40Z</time>
      </trkpt>
      <trkpt lat="45.7825" lon="6.68761">
        <ele>1938</ele>
        <time>2022-07-24T13:10:41Z</time>
      </trkpt>
      <trkpt lat="45.7825" lon="6.68762">
        <ele>1938</ele>
        <time>2022-07-24T13:10:42Z</time>
      </trkpt>
      <trkpt lat="45.78249" lon="6.68764">
        <ele>1938</ele>
        <time>2022-07-24T13:10:43Z</time>
      </trkpt>
      <trkpt lat="45.78248" lon="6.68765">
        <ele>1938</ele>
        <time>2022-07-24T13:10:44Z</time>
      </trkpt>
      <trkpt lat="45.78247" lon="6.68766">
        <ele>1938</ele>
        <time>2022-07-24T13:10:45Z</time>
      </trkpt>
      <trkpt lat="45.78246" lon="6.68767">
        <ele>1938</ele>
        <time>2022-07-24T13:10:46Z</time>
      </trkpt>
      <trkpt lat="45.78245" lon="6.68768">
        <ele>1938</ele>
        <time>2022-07-24T13:10:47Z</time>
      </trkpt>
      <trkpt lat="45.78244" lon="6.68769">
        <ele>1938</ele>
        <time>2022-07-24T13:10:48Z</time>
      </trkpt>
      <trkpt lat="45.78243" lon="6.68769">
        <ele>1938</ele>
        <time>2022-07-24T13:10:49Z</time>
      </trkpt>
      <trkpt lat="45.78242" lon="6.6877">
        <ele>1938</ele>
        <time>2022-07-24T13:10:50Z</time>
      </trkpt>
      <trkpt lat="45.78241" lon="6.6877">
        <ele>1938</ele>
        <time>2022-07-24T13:10:51Z</time>
      </trkpt>
      <trkpt lat="45.7824" lon="6.68771">
        <ele>1938</ele>
        <time>2022-07-24T13:10:52Z</time>
      </trkpt>
      <trkpt lat="45.78239" lon="6.68771">
        <ele>1938</ele>
        <time>2022-07-24T13:10:53Z</time>
      </trkpt>
      <trkpt lat="45.78238" lon="6.68772">
        <ele>1938</ele>
        <time>2022-07-24T13:10:54Z</time>
      </trkpt>
      <trkpt lat="45.78237" lon="6.68773">
        <ele>1938</ele>
        <time>2022-07-24T13:10:55Z</time>
      </trkpt>
      <trkpt lat="45.78236" lon="6.68773">
        <ele>1938</ele>
        <time>2022-07-24T13:10:56Z</time>
      </trkpt>
      <trkpt lat="45.78235" lon="6.68774">
        <ele>1938</ele>
        <time>2022-07-24T13:10:57Z</time>
      </trkpt>
      <trkpt lat="45.78234" lon="6.68774">
        <ele>1938</ele>
        <time>2022-07-24T13:10:58Z</time>
      </trkpt>
      <trkpt lat="45.78232" lon="6.68775">
        <ele>1938</ele>
        <time>2022-07-24T13:10:59Z</time>
      </trkpt>
      <trkpt lat="45.78231" lon="6.68775">
        <ele>1938</ele>
        <time>2022-07-24T13:11:00Z</time>
      </trkpt>
      <trkpt lat="45.7823" lon="6.68776">
        <ele>1938</ele>
        <time>2022-07-24T13:11:01Z</time>
      </trkpt>
      <trkpt lat="45.78229" lon="6.68776">
        <ele>1938</ele>
        <time>2022-07-24T13:11:02Z</time>
      </trkpt>
      <trkpt lat="45.78228" lon="6.68776">
        <ele>1938</ele>
        <time>2022-07-24T13:11:03Z</time>
      </trkpt>
      <trkpt lat="45.78227" lon="6.68777">
        <ele>1938</ele>
        <time>2022-07-24T13:11:04Z</time>
      </trkpt>
      <trkpt lat="45.78226" lon="6.68777">
        <ele>1938</ele>
        <time>2022-07-24T13:11:05Z</time>
      </trkpt>
      <trkpt lat="45.78225" lon="6.68778">
        <ele>1938</ele>
        <time>2022-07-24T13:11:06Z</time>
      </trkpt>
      <trkpt lat="45.78224" lon="6.68779">
        <ele>1938</ele>
        <time>2022-07-24T13:11:07Z</time>
      </trkpt>
      <trkpt lat="45.78223" lon="6.6878">
        <ele>1938</ele>
        <time>2022-07-24T13:11:08Z</time>
      </trkpt>
      <trkpt lat="45.78222" lon="6.6878">
        <ele>1938</ele>
        <time>2022-07-24T13:11:09Z</time>
      </trkpt>
      <trkpt lat="45.78222" lon="6.68781">
        <ele>1938</ele>
        <time>2022-07-24T13:11:10Z</time>
      </trkpt>
      <trkpt lat="45.78221" lon="6.68782">
        <ele>1938</ele>
        <time>2022-07-24T13:11:11Z</time>
      </trkpt>
      <trkpt lat="45.7822" lon="6.68783">
        <ele>1938</ele>
        <time>2022-07-24T13:11:12Z</time>
      </trkpt>
      <trkpt lat="45.78219" lon="6.68784">
        <ele>1938</ele>
        <time>2022-07-24T13:11:13Z</time>
      </trkpt>
      <trkpt lat="45.78218" lon="6.68785">
        <ele>1938</ele>
        <time>2022-07-24T13:11:14Z</time>
      </trkpt>
      <trkpt lat="45.78218" lon="6.68786">
        <ele>1938</ele>
        <time>2022-07-24T13:11:15Z</time>
      </trkpt>
      <trkpt lat="45.78217" lon="6.68788">
        <ele>1938</ele>
        <time>2022-07-24T13:11:16Z</time>
      </trkpt>
      <trkpt lat="45.78216" lon="6.68789">
        <ele>1938</ele>
        <time>2022-07-24T13:11:17Z</time>
      </trkpt>
      <trkpt lat="45.78215" lon="6.6879">
        <ele>1939</ele>
        <time>2022-07-24T13:11:18Z</time>
      </trkpt>
      <trkpt lat="45.78215" lon="6.68791">
        <ele>1939</ele>
        <time>2022-07-24T13:11:19Z</time>
      </trkpt>
      <trkpt lat="45.78214" lon="6.68793">
        <ele>1939</ele>
        <time>2022-07-24T13:11:20Z</time>
      </trkpt>
      <trkpt lat="45.78214" lon="6.68794">
        <ele>1939</ele>
        <time>2022-07-24T13:11:21Z</time>
      </trkpt>
      <trkpt lat="45.78213" lon="6.68796">
        <ele>1939</ele>
        <time>2022-07-24T13:11:22Z</time>
      </trkpt>
      <trkpt lat="45.78213" lon="6.68797">
        <ele>1939</ele>
        <time>2022-07-24T13:11:23Z</time>
      </trkpt>
      <trkpt lat="45.78212" lon="6.68799">
        <ele>1939</ele>
        <time>2022-07-24T13:11:24Z</time>
      </trkpt>
      <trkpt lat="45.78212" lon="6.688">
        <ele>1939</ele>
        <time>2022-07-24T13:11:25Z</time>
      </trkpt>
      <trkpt lat="45.78211" lon="6.68802">
        <ele>1939</ele>
        <time>2022-07-24T13:11:26Z</time>
      </trkpt>
      <trkpt lat="45.7821" lon="6.68803">
        <ele>1939</ele>
        <time>2022-07-24T13:11:27Z</time>
      </trkpt>
      <trkpt lat="45.7821" lon="6.68805">
        <ele>1940</ele>
        <time>2022-07-24T13:11:28Z</time>
      </trkpt>
      <trkpt lat="45.78209" lon="6.68806">
        <ele>1940</ele>
        <time>2022-07-24T13:11:29Z</time>
      </trkpt>
      <trkpt lat="45.78208" lon="6.68808">
        <ele>1940</ele>
        <time>2022-07-24T13:11:30Z</time>
      </trkpt>
      <trkpt lat="45.78207" lon="6.6881">
        <ele>1940</ele>
        <time>2022-07-24T13:11:31Z</time>
      </trkpt>
      <trkpt lat="45.78207" lon="6.68811">
        <ele>1940</ele>
        <time>2022-07-24T13:11:32Z</time>
      </trkpt>
      <trkpt lat="45.78206" lon="6.68813">
        <ele>1940</ele>
        <time>2022-07-24T13:11:33Z</time>
      </trkpt>
      <trkpt lat="45.78206" lon="6.68814">
        <ele>1940</ele>
        <time>2022-07-24T13:11:34Z</time>
      </trkpt>
      <trkpt lat="45.78205" lon="6.68816">
        <ele>1940</ele>
        <time>2022-07-24T13:11:35Z</time>
      </trkpt>
      <trkpt lat="45.78205" lon="6.68818">
        <ele>1940</ele>
        <time>2022-07-24T13:11:36Z</time>
      </trkpt>
      <trkpt lat="45.78204" lon="6.68819">
        <ele>1940</ele>
        <time>2022-07-24T13:11:37Z</time>
      </trkpt>
      <trkpt lat="45.78204" lon="6.68821">
        <ele>1940</ele>
        <time>2022-07-24T13:11:38Z</time>
      </trkpt>
      <trkpt lat="45.78203" lon="6.68822">
        <ele>1939</ele>
        <time>2022-07-24T13:11:39Z</time>
      </trkpt>
      <trkpt lat="45.78203" lon="6.68824">
        <ele>1939</ele>
        <time>2022-07-24T13:11:40Z</time>
      </trkpt>
      <trkpt lat="45.78202" lon="6.68825">
        <ele>1939</ele>
        <time>2022-07-24T13:11:41Z</time>
      </trkpt>
      <trkpt lat="45.78201" lon="6.68826">
        <ele>1939</ele>
        <time>2022-07-24T13:11:42Z</time>
      </trkpt>
      <trkpt lat="45.78201" lon="6.68828">
        <ele>1939</ele>
        <time>2022-07-24T13:11:43Z</time>
      </trkpt>
      <trkpt lat="45.782" lon="6.68829">
        <ele>1939</ele>
        <time>2022-07-24T13:11:44Z</time>
      </trkpt>
      <trkpt lat="45.78199" lon="6.6883">
        <ele>1939</ele>
        <time>2022-07-24T13:11:45Z</time>
      </trkpt>
      <trkpt lat="45.78198" lon="6.68831">
        <ele>1939</ele>
        <time>2022-07-24T13:11:46Z</time>
      </trkpt>
      <trkpt lat="45.78197" lon="6.68833">
        <ele>1939</ele>
        <time>2022-07-24T13:11:47Z</time>
      </trkpt>
      <trkpt lat="45.78196" lon="6.68834">
        <ele>1939</ele>
        <time>2022-07-24T13:11:48Z</time>
      </trkpt>
      <trkpt lat="45.78195" lon="6.68835">
        <ele>1939</ele>
        <time>2022-07-24T13:11:49Z</time>
      </trkpt>
      <trkpt lat="45.78194" lon="6.68836">
        <ele>1939</ele>
        <time>2022-07-24T13:11:50Z</time>
      </trkpt>
      <trkpt lat="45.78193" lon="6.68837">
        <ele>1939</ele>
        <time>2022-07-24T13:11:51Z</time>
      </trkpt>
      <trkpt lat="45.78192" lon="6.68838">
        <ele>1939</ele>
        <time>2022-07-24T13:11:52Z</time>
      </trkpt>
      <trkpt lat="45.78191" lon="6.68839">
        <ele>1939</ele>
        <time>2022-07-24T13:11:53Z</time>
      </trkpt>
      <trkpt lat="45.7819" lon="6.6884">
        <ele>1939</ele>
        <time>2022-07-24T13:11:54Z</time>
      </trkpt>
      <trkpt lat="45.78189" lon="6.68841">
        <ele>1939</ele>
        <time>2022-07-24T13:11:55Z</time>
      </trkpt>
      <trkpt lat="45.78188" lon="6.68842">
        <ele>1939</ele>
        <time>2022-07-24T13:11:56Z</time>
      </trkpt>
      <trkpt lat="45.78187" lon="6.68843">
        <ele>1939</ele>
        <time>2022-07-24T13:11:57Z</time>
      </trkpt>
      <trkpt lat="45.78186" lon="6.68843">
        <ele>1939</ele>
        <time>2022-07-24T13:11:58Z</time>
      </trkpt>
      <trkpt lat="45.78185" lon="6.68844">
        <ele>1939</ele>
        <time>2022-07-24T13:11:59Z</time>
      </trkpt>
      <trkpt lat="45.78184" lon="6.68845">
        <ele>1939</ele>
        <time>2022-07-24T13:12:00Z</time>
      </trkpt>
      <trkpt lat="45.78183" lon="6.68846">
        <ele>1939</ele>
        <time>2022-07-24T13:12:01Z</time>
      </trkpt>
      <trkpt lat="45.78182" lon="6.68847">
        <ele>1939</ele>
        <time>2022-07-24T13:12:02Z</time>
      </trkpt>
      <trkpt lat="45.78181" lon="6.68848">
        <ele>1939</ele>
        <time>2022-07-24T13:12:03Z</time>
      </trkpt>
      <trkpt lat="45.7818" lon="6.68848">
        <ele>1939</ele>
        <time>2022-07-24T13:12:04Z</time>
      </trkpt>
      <trkpt lat="45.78179" lon="6.6885">
        <ele>1939</ele>
        <time>2022-07-24T13:12:05Z</time>
      </trkpt>
      <trkpt lat="45.78178" lon="6.68851">
        <ele>1939</ele>
        <time>2022-07-24T13:12:06Z</time>
      </trkpt>
      <trkpt lat="45.78177" lon="6.68852">
        <ele>1939</ele>
        <time>2022-07-24T13:12:07Z</time>
      </trkpt>
      <trkpt lat="45.78176" lon="6.68853">
        <ele>1939</ele>
        <time>2022-07-24T13:12:08Z</time>
      </trkpt>
      <trkpt lat="45.78175" lon="6.68854">
        <ele>1939</ele>
        <time>2022-07-24T13:12:09Z</time>
      </trkpt>
      <trkpt lat="45.78174" lon="6.68855">
        <ele>1939</ele>
        <time>2022-07-24T13:12:10Z</time>
      </trkpt>
      <trkpt lat="45.78173" lon="6.68856">
        <ele>1939</ele>
        <time>2022-07-24T13:12:11Z</time>
      </trkpt>
      <trkpt lat="45.78172" lon="6.68857">
        <ele>1939</ele>
        <time>2022-07-24T13:12:12Z</time>
      </trkpt>
      <trkpt lat="45.78171" lon="6.68858">
        <ele>1939</ele>
        <time>2022-07-24T13:12:13Z</time>
      </trkpt>
      <trkpt lat="45.7817" lon="6.68859">
        <ele>1939</ele>
        <time>2022-07-24T13:12:14Z</time>
      </trkpt>
      <trkpt lat="45.78169" lon="6.6886">
        <ele>1939</ele>
        <time>2022-07-24T13:12:15Z</time>
      </trkpt>
      <trkpt lat="45.78169" lon="6.68862">
        <ele>1939</ele>
        <time>2022-07-24T13:12:16Z</time>
      </trkpt>
      <trkpt lat="45.78168" lon="6.68863">
        <ele>1939</ele>
        <time>2022-07-24T13:12:17Z</time>
      </trkpt>
      <trkpt lat="45.78167" lon="6.68864">
        <ele>1939</ele>
        <time>2022-07-24T13:12:18Z</time>
      </trkpt>
      <trkpt lat="45.78166" lon="6.68864">
        <ele>1939</ele>
        <time>2022-07-24T13:12:19Z</time>
      </trkpt>
      <trkpt lat="45.78165" lon="6.68865">
        <ele>1939</ele>
        <time>2022-07-24T13:12:20Z</time>
      </trkpt>
      <trkpt lat="45.78164" lon="6.68866">
        <ele>1939</ele>
        <time>2022-07-24T13:12:21Z</time>
      </trkpt>
      <trkpt lat="45.78163" lon="6.68866">
        <ele>1939</ele>
        <time>2022-07-24T13:12:22Z</time>
      </trkpt>
      <trkpt lat="45.78162" lon="6.68866">
        <ele>1939</ele>
        <time>2022-07-24T13:12:23Z</time>
      </trkpt>
      <trkpt lat="45.7816" lon="6.68866">
        <ele>1939</ele>
        <time>2022-07-24T13:12:24Z</time>
      </trkpt>
      <trkpt lat="45.78159" lon="6.68866">
        <ele>1939</ele>
        <time>2022-07-24T13:12:25Z</time>
      </trkpt>
      <trkpt lat="45.78158" lon="6.68866">
        <ele>1939</ele>
        <time>2022-07-24T13:12:26Z</time>
      </trkpt>
      <trkpt lat="45.78156" lon="6.68866">
        <ele>1939</ele>
        <time>2022-07-24T13:12:27Z</time>
      </trkpt>
      <trkpt lat="45.78155" lon="6.68865">
        <ele>1939</ele>
        <time>2022-07-24T13:12:28Z</time>
      </trkpt>
      <trkpt lat="45.78154" lon="6.68865">
        <ele>1939</ele>
        <time>2022-07-24T13:12:29Z</time>
      </trkpt>
      <trkpt lat="45.78153" lon="6.68865">
        <ele>1939</ele>
        <time>2022-07-24T13:12:30Z</time>
      </trkpt>
      <trkpt lat="45.78152" lon="6.68865">
        <ele>1939</ele>
        <time>2022-07-24T13:12:31Z</time>
      </trkpt>
      <trkpt lat="45.7815" lon="6.68865">
        <ele>1939</ele>
        <time>2022-07-24T13:12:32Z</time>
      </trkpt>
      <trkpt lat="45.78149" lon="6.68864">
        <ele>1939</ele>
        <time>2022-07-24T13:12:33Z</time>
      </trkpt>
      <trkpt lat="45.78148" lon="6.68864">
        <ele>1939</ele>
        <time>2022-07-24T13:12:34Z</time>
      </trkpt>
      <trkpt lat="45.78147" lon="6.68863">
        <ele>1939</ele>
        <time>2022-07-24T13:12:35Z</time>
      </trkpt>
      <trkpt lat="45.78146" lon="6.68863">
        <ele>1939</ele>
        <time>2022-07-24T13:12:36Z</time>
      </trkpt>
      <trkpt lat="45.78145" lon="6.68862">
        <ele>1939</ele>
        <time>2022-07-24T13:12:37Z</time>
      </trkpt>
      <trkpt lat="45.78144" lon="6.68862">
        <ele>1939</ele>
        <time>2022-07-24T13:12:38Z</time>
      </trkpt>
      <trkpt lat="45.78143" lon="6.68862">
        <ele>1938</ele>
        <time>2022-07-24T13:12:39Z</time>
      </trkpt>
      <trkpt lat="45.78142" lon="6.68861">
        <ele>1938</ele>
        <time>2022-07-24T13:12:40Z</time>
      </trkpt>
      <trkpt lat="45.78141" lon="6.68861">
        <ele>1938</ele>
        <time>2022-07-24T13:12:41Z</time>
      </trkpt>
      <trkpt lat="45.7814" lon="6.6886">
        <ele>1938</ele>
        <time>2022-07-24T13:12:42Z</time>
      </trkpt>
      <trkpt lat="45.78139" lon="6.6886">
        <ele>1938</ele>
        <time>2022-07-24T13:12:51Z</time>
      </trkpt>
      <trkpt lat="45.78139" lon="6.68861">
        <ele>1938</ele>
        <time>2022-07-24T13:12:52Z</time>
      </trkpt>
      <trkpt lat="45.78138" lon="6.68861">
        <ele>1938</ele>
        <time>2022-07-24T13:12:53Z</time>
      </trkpt>
      <trkpt lat="45.78137" lon="6.68861">
        <ele>1938</ele>
        <time>2022-07-24T13:12:54Z</time>
      </trkpt>
      <trkpt lat="45.78137" lon="6.68861">
        <ele>1938</ele>
        <time>2022-07-24T13:12:55Z</time>
      </trkpt>
      <trkpt lat="45.78136" lon="6.68861">
        <ele>1938</ele>
        <time>2022-07-24T13:12:56Z</time>
      </trkpt>
      <trkpt lat="45.78135" lon="6.68861">
        <ele>1938</ele>
        <time>2022-07-24T13:12:57Z</time>
      </trkpt>
      <trkpt lat="45.78133" lon="6.68861">
        <ele>1938</ele>
        <time>2022-07-24T13:12:58Z</time>
      </trkpt>
      <trkpt lat="45.78132" lon="6.68861">
        <ele>1938</ele>
        <time>2022-07-24T13:12:59Z</time>
      </trkpt>
      <trkpt lat="45.78131" lon="6.68861">
        <ele>1938</ele>
        <time>2022-07-24T13:13:00Z</time>
      </trkpt>
      <trkpt lat="45.7813" lon="6.68861">
        <ele>1938</ele>
        <time>2022-07-24T13:13:01Z</time>
      </trkpt>
      <trkpt lat="45.78128" lon="6.68861">
        <ele>1938</ele>
        <time>2022-07-24T13:13:02Z</time>
      </trkpt>
      <trkpt lat="45.78127" lon="6.68861">
        <ele>1938</ele>
        <time>2022-07-24T13:13:03Z</time>
      </trkpt>
      <trkpt lat="45.78126" lon="6.68862">
        <ele>1938</ele>
        <time>2022-07-24T13:13:04Z</time>
      </trkpt>
      <trkpt lat="45.78125" lon="6.68862">
        <ele>1938</ele>
        <time>2022-07-24T13:13:05Z</time>
      </trkpt>
      <trkpt lat="45.78124" lon="6.68862">
        <ele>1938</ele>
        <time>2022-07-24T13:13:06Z</time>
      </trkpt>
      <trkpt lat="45.78122" lon="6.68862">
        <ele>1938</ele>
        <time>2022-07-24T13:13:07Z</time>
      </trkpt>
      <trkpt lat="45.78121" lon="6.68863">
        <ele>1938</ele>
        <time>2022-07-24T13:13:08Z</time>
      </trkpt>
      <trkpt lat="45.7812" lon="6.68863">
        <ele>1938</ele>
        <time>2022-07-24T13:13:09Z</time>
      </trkpt>
      <trkpt lat="45.78119" lon="6.68864">
        <ele>1938</ele>
        <time>2022-07-24T13:13:10Z</time>
      </trkpt>
      <trkpt lat="45.78118" lon="6.68864">
        <ele>1938</ele>
        <time>2022-07-24T13:13:11Z</time>
      </trkpt>
      <trkpt lat="45.78118" lon="6.68865">
        <ele>1938</ele>
        <time>2022-07-24T13:13:12Z</time>
      </trkpt>
      <trkpt lat="45.78117" lon="6.68866">
        <ele>1938</ele>
        <time>2022-07-24T13:13:13Z</time>
      </trkpt>
      <trkpt lat="45.78116" lon="6.68867">
        <ele>1937</ele>
        <time>2022-07-24T13:13:14Z</time>
      </trkpt>
      <trkpt lat="45.78115" lon="6.68868">
        <ele>1937</ele>
        <time>2022-07-24T13:13:15Z</time>
      </trkpt>
      <trkpt lat="45.78115" lon="6.68869">
        <ele>1937</ele>
        <time>2022-07-24T13:13:16Z</time>
      </trkpt>
      <trkpt lat="45.78114" lon="6.68871">
        <ele>1937</ele>
        <time>2022-07-24T13:13:17Z</time>
      </trkpt>
      <trkpt lat="45.78113" lon="6.68872">
        <ele>1937</ele>
        <time>2022-07-24T13:13:18Z</time>
      </trkpt>
      <trkpt lat="45.78113" lon="6.68873">
        <ele>1937</ele>
        <time>2022-07-24T13:13:19Z</time>
      </trkpt>
      <trkpt lat="45.78112" lon="6.68874">
        <ele>1937</ele>
        <time>2022-07-24T13:13:20Z</time>
      </trkpt>
      <trkpt lat="45.78111" lon="6.68875">
        <ele>1937</ele>
        <time>2022-07-24T13:13:21Z</time>
      </trkpt>
      <trkpt lat="45.78111" lon="6.68877">
        <ele>1937</ele>
        <time>2022-07-24T13:13:22Z</time>
      </trkpt>
      <trkpt lat="45.7811" lon="6.68878">
        <ele>1937</ele>
        <time>2022-07-24T13:13:23Z</time>
      </trkpt>
      <trkpt lat="45.78109" lon="6.68879">
        <ele>1936</ele>
        <time>2022-07-24T13:13:24Z</time>
      </trkpt>
      <trkpt lat="45.78109" lon="6.68881">
        <ele>1936</ele>
        <time>2022-07-24T13:13:25Z</time>
      </trkpt>
      <trkpt lat="45.78108" lon="6.68882">
        <ele>1936</ele>
        <time>2022-07-24T13:13:26Z</time>
      </trkpt>
      <trkpt lat="45.78108" lon="6.68883">
        <ele>1936</ele>
        <time>2022-07-24T13:13:27Z</time>
      </trkpt>
      <trkpt lat="45.78107" lon="6.68884">
        <ele>1936</ele>
        <time>2022-07-24T13:13:28Z</time>
      </trkpt>
      <trkpt lat="45.78106" lon="6.68885">
        <ele>1935</ele>
        <time>2022-07-24T13:13:29Z</time>
      </trkpt>
      <trkpt lat="45.78106" lon="6.68887">
        <ele>1935</ele>
        <time>2022-07-24T13:13:30Z</time>
      </trkpt>
      <trkpt lat="45.78105" lon="6.68888">
        <ele>1935</ele>
        <time>2022-07-24T13:13:31Z</time>
      </trkpt>
      <trkpt lat="45.78104" lon="6.68889">
        <ele>1935</ele>
        <time>2022-07-24T13:13:32Z</time>
      </trkpt>
      <trkpt lat="45.78104" lon="6.6889">
        <ele>1935</ele>
        <time>2022-07-24T13:13:33Z</time>
      </trkpt>
      <trkpt lat="45.78104" lon="6.68892">
        <ele>1934</ele>
        <time>2022-07-24T13:13:34Z</time>
      </trkpt>
      <trkpt lat="45.78103" lon="6.68893">
        <ele>1934</ele>
        <time>2022-07-24T13:13:35Z</time>
      </trkpt>
      <trkpt lat="45.78103" lon="6.68895">
        <ele>1934</ele>
        <time>2022-07-24T13:13:36Z</time>
      </trkpt>
      <trkpt lat="45.78103" lon="6.68897">
        <ele>1934</ele>
        <time>2022-07-24T13:13:37Z</time>
      </trkpt>
      <trkpt lat="45.78102" lon="6.68898">
        <ele>1934</ele>
        <time>2022-07-24T13:13:38Z</time>
      </trkpt>
      <trkpt lat="45.78102" lon="6.689">
        <ele>1933</ele>
        <time>2022-07-24T13:13:39Z</time>
      </trkpt>
      <trkpt lat="45.78101" lon="6.68901">
        <ele>1933</ele>
        <time>2022-07-24T13:13:40Z</time>
      </trkpt>
      <trkpt lat="45.78101" lon="6.68902">
        <ele>1933</ele>
        <time>2022-07-24T13:13:41Z</time>
      </trkpt>
      <trkpt lat="45.781" lon="6.68904">
        <ele>1933</ele>
        <time>2022-07-24T13:13:42Z</time>
      </trkpt>
      <trkpt lat="45.781" lon="6.68905">
        <ele>1933</ele>
        <time>2022-07-24T13:13:43Z</time>
      </trkpt>
      <trkpt lat="45.78099" lon="6.68906">
        <ele>1932</ele>
        <time>2022-07-24T13:13:44Z</time>
      </trkpt>
      <trkpt lat="45.78099" lon="6.68907">
        <ele>1932</ele>
        <time>2022-07-24T13:13:45Z</time>
      </trkpt>
      <trkpt lat="45.78098" lon="6.68909">
        <ele>1931</ele>
        <time>2022-07-24T13:13:46Z</time>
      </trkpt>
      <trkpt lat="45.78098" lon="6.6891">
        <ele>1931</ele>
        <time>2022-07-24T13:13:47Z</time>
      </trkpt>
      <trkpt lat="45.78098" lon="6.68912">
        <ele>1931</ele>
        <time>2022-07-24T13:13:48Z</time>
      </trkpt>
      <trkpt lat="45.78097" lon="6.68913">
        <ele>1930</ele>
        <time>2022-07-24T13:13:49Z</time>
      </trkpt>
      <trkpt lat="45.78097" lon="6.68915">
        <ele>1930</ele>
        <time>2022-07-24T13:13:50Z</time>
      </trkpt>
      <trkpt lat="45.78097" lon="6.68917">
        <ele>1930</ele>
        <time>2022-07-24T13:13:51Z</time>
      </trkpt>
      <trkpt lat="45.78096" lon="6.68918">
        <ele>1930</ele>
        <time>2022-07-24T13:13:52Z</time>
      </trkpt>
      <trkpt lat="45.78096" lon="6.6892">
        <ele>1930</ele>
        <time>2022-07-24T13:13:53Z</time>
      </trkpt>
      <trkpt lat="45.78096" lon="6.68922">
        <ele>1929</ele>
        <time>2022-07-24T13:13:54Z</time>
      </trkpt>
      <trkpt lat="45.78096" lon="6.68924">
        <ele>1929</ele>
        <time>2022-07-24T13:13:55Z</time>
      </trkpt>
      <trkpt lat="45.78095" lon="6.68926">
        <ele>1929</ele>
        <time>2022-07-24T13:13:56Z</time>
      </trkpt>
      <trkpt lat="45.78095" lon="6.68928">
        <ele>1929</ele>
        <time>2022-07-24T13:13:57Z</time>
      </trkpt>
      <trkpt lat="45.78095" lon="6.68929">
        <ele>1929</ele>
        <time>2022-07-24T13:13:58Z</time>
      </trkpt>
      <trkpt lat="45.78095" lon="6.68931">
        <ele>1929</ele>
        <time>2022-07-24T13:13:59Z</time>
      </trkpt>
      <trkpt lat="45.78095" lon="6.68933">
        <ele>1929</ele>
        <time>2022-07-24T13:14:00Z</time>
      </trkpt>
      <trkpt lat="45.78095" lon="6.68935">
        <ele>1929</ele>
        <time>2022-07-24T13:14:01Z</time>
      </trkpt>
      <trkpt lat="45.78095" lon="6.68937">
        <ele>1929</ele>
        <time>2022-07-24T13:14:02Z</time>
      </trkpt>
      <trkpt lat="45.78095" lon="6.68939">
        <ele>1929</ele>
        <time>2022-07-24T13:14:03Z</time>
      </trkpt>
      <trkpt lat="45.78095" lon="6.6894">
        <ele>1928</ele>
        <time>2022-07-24T13:14:04Z</time>
      </trkpt>
      <trkpt lat="45.78095" lon="6.68942">
        <ele>1928</ele>
        <time>2022-07-24T13:14:05Z</time>
      </trkpt>
      <trkpt lat="45.78095" lon="6.68944">
        <ele>1928</ele>
        <time>2022-07-24T13:14:06Z</time>
      </trkpt>
      <trkpt lat="45.78095" lon="6.68946">
        <ele>1928</ele>
        <time>2022-07-24T13:14:07Z</time>
      </trkpt>
      <trkpt lat="45.78095" lon="6.68946">
        <ele>1928</ele>
        <time>2022-07-24T13:14:08Z</time>
      </trkpt>
      <trkpt lat="45.78095" lon="6.68947">
        <ele>1928</ele>
        <time>2022-07-24T13:14:09Z</time>
      </trkpt>
      <trkpt lat="45.78095" lon="6.68948">
        <ele>1928</ele>
        <time>2022-07-24T13:14:10Z</time>
      </trkpt>
      <trkpt lat="45.78095" lon="6.68949">
        <ele>1928</ele>
        <time>2022-07-24T13:14:11Z</time>
      </trkpt>
      <trkpt lat="45.78095" lon="6.68949">
        <ele>1928</ele>
        <time>2022-07-24T13:14:12Z</time>
      </trkpt>
      <trkpt lat="45.78095" lon="6.6895">
        <ele>1928</ele>
        <time>2022-07-24T13:14:13Z</time>
      </trkpt>
      <trkpt lat="45.78095" lon="6.68952">
        <ele>1927</ele>
        <time>2022-07-24T13:14:14Z</time>
      </trkpt>
      <trkpt lat="45.78095" lon="6.68953">
        <ele>1927</ele>
        <time>2022-07-24T13:14:15Z</time>
      </trkpt>
      <trkpt lat="45.78095" lon="6.68954">
        <ele>1927</ele>
        <time>2022-07-24T13:14:16Z</time>
      </trkpt>
      <trkpt lat="45.78096" lon="6.68956">
        <ele>1927</ele>
        <time>2022-07-24T13:14:17Z</time>
      </trkpt>
      <trkpt lat="45.78096" lon="6.68958">
        <ele>1927</ele>
        <time>2022-07-24T13:14:18Z</time>
      </trkpt>
      <trkpt lat="45.78096" lon="6.68959">
        <ele>1927</ele>
        <time>2022-07-24T13:14:19Z</time>
      </trkpt>
      <trkpt lat="45.78096" lon="6.68961">
        <ele>1927</ele>
        <time>2022-07-24T13:14:20Z</time>
      </trkpt>
      <trkpt lat="45.78096" lon="6.68963">
        <ele>1927</ele>
        <time>2022-07-24T13:14:21Z</time>
      </trkpt>
      <trkpt lat="45.78097" lon="6.68965">
        <ele>1927</ele>
        <time>2022-07-24T13:14:22Z</time>
      </trkpt>
      <trkpt lat="45.78097" lon="6.68966">
        <ele>1927</ele>
        <time>2022-07-24T13:14:23Z</time>
      </trkpt>
      <trkpt lat="45.78097" lon="6.68968">
        <ele>1926</ele>
        <time>2022-07-24T13:14:24Z</time>
      </trkpt>
      <trkpt lat="45.78097" lon="6.6897">
        <ele>1926</ele>
        <time>2022-07-24T13:14:25Z</time>
      </trkpt>
      <trkpt lat="45.78098" lon="6.68972">
        <ele>1926</ele>
        <time>2022-07-24T13:14:26Z</time>
      </trkpt>
      <trkpt lat="45.78098" lon="6.68973">
        <ele>1926</ele>
        <time>2022-07-24T13:14:27Z</time>
      </trkpt>
      <trkpt lat="45.78098" lon="6.68975">
        <ele>1926</ele>
        <time>2022-07-24T13:14:28Z</time>
      </trkpt>
      <trkpt lat="45.78098" lon="6.68977">
        <ele>1925</ele>
        <time>2022-07-24T13:14:29Z</time>
      </trkpt>
      <trkpt lat="45.78099" lon="6.68978">
        <ele>1925</ele>
        <time>2022-07-24T13:14:30Z</time>
      </trkpt>
      <trkpt lat="45.78099" lon="6.6898">
        <ele>1925</ele>
        <time>2022-07-24T13:14:31Z</time>
      </trkpt>
      <trkpt lat="45.78099" lon="6.68982">
        <ele>1925</ele>
        <time>2022-07-24T13:14:32Z</time>
      </trkpt>
      <trkpt lat="45.78099" lon="6.68984">
        <ele>1925</ele>
        <time>2022-07-24T13:14:33Z</time>
      </trkpt>
      <trkpt lat="45.78099" lon="6.68986">
        <ele>1924</ele>
        <time>2022-07-24T13:14:34Z</time>
      </trkpt>
      <trkpt lat="45.78099" lon="6.68988">
        <ele>1924</ele>
        <time>2022-07-24T13:14:35Z</time>
      </trkpt>
      <trkpt lat="45.781" lon="6.68989">
        <ele>1924</ele>
        <time>2022-07-24T13:14:36Z</time>
      </trkpt>
      <trkpt lat="45.781" lon="6.68991">
        <ele>1924</ele>
        <time>2022-07-24T13:14:37Z</time>
      </trkpt>
      <trkpt lat="45.781" lon="6.68993">
        <ele>1924</ele>
        <time>2022-07-24T13:14:38Z</time>
      </trkpt>
      <trkpt lat="45.781" lon="6.68994">
        <ele>1923</ele>
        <time>2022-07-24T13:14:39Z</time>
      </trkpt>
      <trkpt lat="45.78101" lon="6.68996">
        <ele>1923</ele>
        <time>2022-07-24T13:14:40Z</time>
      </trkpt>
      <trkpt lat="45.78101" lon="6.68998">
        <ele>1923</ele>
        <time>2022-07-24T13:14:41Z</time>
      </trkpt>
      <trkpt lat="45.78101" lon="6.69">
        <ele>1923</ele>
        <time>2022-07-24T13:14:42Z</time>
      </trkpt>
      <trkpt lat="45.78101" lon="6.69001">
        <ele>1923</ele>
        <time>2022-07-24T13:14:43Z</time>
      </trkpt>
      <trkpt lat="45.78101" lon="6.69003">
        <ele>1922</ele>
        <time>2022-07-24T13:14:44Z</time>
      </trkpt>
      <trkpt lat="45.78101" lon="6.69005">
        <ele>1922</ele>
        <time>2022-07-24T13:14:45Z</time>
      </trkpt>
      <trkpt lat="45.78101" lon="6.69007">
        <ele>1922</ele>
        <time>2022-07-24T13:14:46Z</time>
      </trkpt>
      <trkpt lat="45.78101" lon="6.69008">
        <ele>1922</ele>
        <time>2022-07-24T13:14:47Z</time>
      </trkpt>
      <trkpt lat="45.78101" lon="6.6901">
        <ele>1922</ele>
        <time>2022-07-24T13:14:48Z</time>
      </trkpt>
      <trkpt lat="45.78101" lon="6.69011">
        <ele>1921</ele>
        <time>2022-07-24T13:14:49Z</time>
      </trkpt>
      <trkpt lat="45.781" lon="6.69013">
        <ele>1921</ele>
        <time>2022-07-24T13:14:50Z</time>
      </trkpt>
      <trkpt lat="45.781" lon="6.69014">
        <ele>1921</ele>
        <time>2022-07-24T13:14:51Z</time>
      </trkpt>
      <trkpt lat="45.781" lon="6.69015">
        <ele>1921</ele>
        <time>2022-07-24T13:14:52Z</time>
      </trkpt>
      <trkpt lat="45.78099" lon="6.69017">
        <ele>1921</ele>
        <time>2022-07-24T13:14:53Z</time>
      </trkpt>
      <trkpt lat="45.78098" lon="6.69018">
        <ele>1921</ele>
        <time>2022-07-24T13:14:54Z</time>
      </trkpt>
      <trkpt lat="45.78098" lon="6.69019">
        <ele>1921</ele>
        <time>2022-07-24T13:14:55Z</time>
      </trkpt>
      <trkpt lat="45.78097" lon="6.6902">
        <ele>1921</ele>
        <time>2022-07-24T13:14:56Z</time>
      </trkpt>
      <trkpt lat="45.78096" lon="6.69021">
        <ele>1921</ele>
        <time>2022-07-24T13:14:57Z</time>
      </trkpt>
      <trkpt lat="45.78095" lon="6.69023">
        <ele>1921</ele>
        <time>2022-07-24T13:14:58Z</time>
      </trkpt>
      <trkpt lat="45.78094" lon="6.69024">
        <ele>1920</ele>
        <time>2022-07-24T13:14:59Z</time>
      </trkpt>
      <trkpt lat="45.78093" lon="6.69025">
        <ele>1920</ele>
        <time>2022-07-24T13:15:00Z</time>
      </trkpt>
      <trkpt lat="45.78092" lon="6.69026">
        <ele>1920</ele>
        <time>2022-07-24T13:15:01Z</time>
      </trkpt>
      <trkpt lat="45.78091" lon="6.69027">
        <ele>1920</ele>
        <time>2022-07-24T13:15:02Z</time>
      </trkpt>
      <trkpt lat="45.7809" lon="6.69028">
        <ele>1920</ele>
        <time>2022-07-24T13:15:03Z</time>
      </trkpt>
      <trkpt lat="45.78089" lon="6.69029">
        <ele>1919</ele>
        <time>2022-07-24T13:15:04Z</time>
      </trkpt>
      <trkpt lat="45.78088" lon="6.69029">
        <ele>1919</ele>
        <time>2022-07-24T13:15:05Z</time>
      </trkpt>
      <trkpt lat="45.78086" lon="6.6903">
        <ele>1919</ele>
        <time>2022-07-24T13:15:06Z</time>
      </trkpt>
      <trkpt lat="45.78085" lon="6.6903">
        <ele>1919</ele>
        <time>2022-07-24T13:15:07Z</time>
      </trkpt>
      <trkpt lat="45.78084" lon="6.69031">
        <ele>1919</ele>
        <time>2022-07-24T13:15:08Z</time>
      </trkpt>
      <trkpt lat="45.78083" lon="6.69031">
        <ele>1918</ele>
        <time>2022-07-24T13:15:09Z</time>
      </trkpt>
      <trkpt lat="45.78082" lon="6.69031">
        <ele>1918</ele>
        <time>2022-07-24T13:15:10Z</time>
      </trkpt>
      <trkpt lat="45.78081" lon="6.69032">
        <ele>1918</ele>
        <time>2022-07-24T13:15:11Z</time>
      </trkpt>
      <trkpt lat="45.78079" lon="6.69032">
        <ele>1918</ele>
        <time>2022-07-24T13:15:12Z</time>
      </trkpt>
      <trkpt lat="45.78078" lon="6.69032">
        <ele>1918</ele>
        <time>2022-07-24T13:15:13Z</time>
      </trkpt>
      <trkpt lat="45.78077" lon="6.69032">
        <ele>1918</ele>
        <time>2022-07-24T13:15:14Z</time>
      </trkpt>
      <trkpt lat="45.78076" lon="6.69032">
        <ele>1918</ele>
        <time>2022-07-24T13:15:15Z</time>
      </trkpt>
      <trkpt lat="45.78075" lon="6.69033">
        <ele>1918</ele>
        <time>2022-07-24T13:15:16Z</time>
      </trkpt>
      <trkpt lat="45.78074" lon="6.69032">
        <ele>1918</ele>
        <time>2022-07-24T13:15:17Z</time>
      </trkpt>
      <trkpt lat="45.78073" lon="6.69032">
        <ele>1918</ele>
        <time>2022-07-24T13:15:18Z</time>
      </trkpt>
      <trkpt lat="45.78071" lon="6.69032">
        <ele>1917</ele>
        <time>2022-07-24T13:15:19Z</time>
      </trkpt>
      <trkpt lat="45.7807" lon="6.69032">
        <ele>1917</ele>
        <time>2022-07-24T13:15:20Z</time>
      </trkpt>
      <trkpt lat="45.78069" lon="6.69032">
        <ele>1917</ele>
        <time>2022-07-24T13:15:21Z</time>
      </trkpt>
      <trkpt lat="45.78068" lon="6.69032">
        <ele>1917</ele>
        <time>2022-07-24T13:15:22Z</time>
      </trkpt>
      <trkpt lat="45.78067" lon="6.69031">
        <ele>1917</ele>
        <time>2022-07-24T13:15:23Z</time>
      </trkpt>
      <trkpt lat="45.78066" lon="6.69031">
        <ele>1916</ele>
        <time>2022-07-24T13:15:24Z</time>
      </trkpt>
      <trkpt lat="45.78064" lon="6.69031">
        <ele>1916</ele>
        <time>2022-07-24T13:15:25Z</time>
      </trkpt>
      <trkpt lat="45.78063" lon="6.69031">
        <ele>1916</ele>
        <time>2022-07-24T13:15:26Z</time>
      </trkpt>
      <trkpt lat="45.78062" lon="6.69031">
        <ele>1916</ele>
        <time>2022-07-24T13:15:27Z</time>
      </trkpt>
      <trkpt lat="45.78061" lon="6.69031">
        <ele>1916</ele>
        <time>2022-07-24T13:15:28Z</time>
      </trkpt>
      <trkpt lat="45.7806" lon="6.69032">
        <ele>1916</ele>
        <time>2022-07-24T13:15:29Z</time>
      </trkpt>
      <trkpt lat="45.78058" lon="6.69032">
        <ele>1916</ele>
        <time>2022-07-24T13:15:30Z</time>
      </trkpt>
      <trkpt lat="45.78057" lon="6.69032">
        <ele>1916</ele>
        <time>2022-07-24T13:15:31Z</time>
      </trkpt>
      <trkpt lat="45.78056" lon="6.69033">
        <ele>1916</ele>
        <time>2022-07-24T13:15:32Z</time>
      </trkpt>
      <trkpt lat="45.78055" lon="6.69033">
        <ele>1916</ele>
        <time>2022-07-24T13:15:33Z</time>
      </trkpt>
      <trkpt lat="45.78053" lon="6.69034">
        <ele>1915</ele>
        <time>2022-07-24T13:15:34Z</time>
      </trkpt>
      <trkpt lat="45.78052" lon="6.69034">
        <ele>1915</ele>
        <time>2022-07-24T13:15:35Z</time>
      </trkpt>
      <trkpt lat="45.78051" lon="6.69035">
        <ele>1915</ele>
        <time>2022-07-24T13:15:36Z</time>
      </trkpt>
      <trkpt lat="45.7805" lon="6.69035">
        <ele>1915</ele>
        <time>2022-07-24T13:15:37Z</time>
      </trkpt>
      <trkpt lat="45.78049" lon="6.69036">
        <ele>1915</ele>
        <time>2022-07-24T13:15:38Z</time>
      </trkpt>
      <trkpt lat="45.78048" lon="6.69036">
        <ele>1914</ele>
        <time>2022-07-24T13:15:39Z</time>
      </trkpt>
      <trkpt lat="45.78047" lon="6.69037">
        <ele>1914</ele>
        <time>2022-07-24T13:15:40Z</time>
      </trkpt>
      <trkpt lat="45.78046" lon="6.69038">
        <ele>1914</ele>
        <time>2022-07-24T13:15:41Z</time>
      </trkpt>
      <trkpt lat="45.78045" lon="6.69038">
        <ele>1914</ele>
        <time>2022-07-24T13:15:42Z</time>
      </trkpt>
      <trkpt lat="45.78045" lon="6.69039">
        <ele>1914</ele>
        <time>2022-07-24T13:15:43Z</time>
      </trkpt>
      <trkpt lat="45.78044" lon="6.69039">
        <ele>1913</ele>
        <time>2022-07-24T13:15:44Z</time>
      </trkpt>
      <trkpt lat="45.78043" lon="6.6904">
        <ele>1913</ele>
        <time>2022-07-24T13:15:45Z</time>
      </trkpt>
      <trkpt lat="45.78042" lon="6.6904">
        <ele>1912</ele>
        <time>2022-07-24T13:15:46Z</time>
      </trkpt>
      <trkpt lat="45.78041" lon="6.69041">
        <ele>1912</ele>
        <time>2022-07-24T13:15:47Z</time>
      </trkpt>
      <trkpt lat="45.7804" lon="6.69042">
        <ele>1912</ele>
        <time>2022-07-24T13:15:48Z</time>
      </trkpt>
      <trkpt lat="45.78039" lon="6.69043">
        <ele>1911</ele>
        <time>2022-07-24T13:15:49Z</time>
      </trkpt>
      <trkpt lat="45.78039" lon="6.69044">
        <ele>1911</ele>
        <time>2022-07-24T13:15:50Z</time>
      </trkpt>
      <trkpt lat="45.78038" lon="6.69045">
        <ele>1911</ele>
        <time>2022-07-24T13:15:51Z</time>
      </trkpt>
      <trkpt lat="45.78037" lon="6.69046">
        <ele>1911</ele>
        <time>2022-07-24T13:15:52Z</time>
      </trkpt>
      <trkpt lat="45.78037" lon="6.69047">
        <ele>1911</ele>
        <time>2022-07-24T13:15:53Z</time>
      </trkpt>
      <trkpt lat="45.78036" lon="6.69048">
        <ele>1910</ele>
        <time>2022-07-24T13:15:54Z</time>
      </trkpt>
      <trkpt lat="45.78035" lon="6.69049">
        <ele>1910</ele>
        <time>2022-07-24T13:15:55Z</time>
      </trkpt>
      <trkpt lat="45.78035" lon="6.69049">
        <ele>1910</ele>
        <time>2022-07-24T13:15:56Z</time>
      </trkpt>
      <trkpt lat="45.78034" lon="6.6905">
        <ele>1910</ele>
        <time>2022-07-24T13:15:57Z</time>
      </trkpt>
      <trkpt lat="45.78033" lon="6.69051">
        <ele>1910</ele>
        <time>2022-07-24T13:15:58Z</time>
      </trkpt>
      <trkpt lat="45.78032" lon="6.69052">
        <ele>1909</ele>
        <time>2022-07-24T13:15:59Z</time>
      </trkpt>
      <trkpt lat="45.78031" lon="6.69053">
        <ele>1909</ele>
        <time>2022-07-24T13:16:00Z</time>
      </trkpt>
      <trkpt lat="45.78029" lon="6.69054">
        <ele>1909</ele>
        <time>2022-07-24T13:16:01Z</time>
      </trkpt>
      <trkpt lat="45.78028" lon="6.69055">
        <ele>1909</ele>
        <time>2022-07-24T13:16:02Z</time>
      </trkpt>
      <trkpt lat="45.78027" lon="6.69056">
        <ele>1909</ele>
        <time>2022-07-24T13:16:03Z</time>
      </trkpt>
      <trkpt lat="45.78026" lon="6.69057">
        <ele>1908</ele>
        <time>2022-07-24T13:16:04Z</time>
      </trkpt>
      <trkpt lat="45.78026" lon="6.69058">
        <ele>1908</ele>
        <time>2022-07-24T13:16:05Z</time>
      </trkpt>
      <trkpt lat="45.78025" lon="6.6906">
        <ele>1908</ele>
        <time>2022-07-24T13:16:06Z</time>
      </trkpt>
      <trkpt lat="45.78024" lon="6.69061">
        <ele>1908</ele>
        <time>2022-07-24T13:16:07Z</time>
      </trkpt>
      <trkpt lat="45.78023" lon="6.69062">
        <ele>1908</ele>
        <time>2022-07-24T13:16:08Z</time>
      </trkpt>
      <trkpt lat="45.78022" lon="6.69063">
        <ele>1907</ele>
        <time>2022-07-24T13:16:09Z</time>
      </trkpt>
      <trkpt lat="45.78022" lon="6.69065">
        <ele>1907</ele>
        <time>2022-07-24T13:16:10Z</time>
      </trkpt>
      <trkpt lat="45.78021" lon="6.69066">
        <ele>1907</ele>
        <time>2022-07-24T13:16:11Z</time>
      </trkpt>
      <trkpt lat="45.7802" lon="6.69067">
        <ele>1907</ele>
        <time>2022-07-24T13:16:12Z</time>
      </trkpt>
      <trkpt lat="45.78019" lon="6.69068">
        <ele>1907</ele>
        <time>2022-07-24T13:16:13Z</time>
      </trkpt>
      <trkpt lat="45.78019" lon="6.69069">
        <ele>1906</ele>
        <time>2022-07-24T13:16:14Z</time>
      </trkpt>
      <trkpt lat="45.78018" lon="6.6907">
        <ele>1906</ele>
        <time>2022-07-24T13:16:15Z</time>
      </trkpt>
      <trkpt lat="45.78017" lon="6.6907">
        <ele>1906</ele>
        <time>2022-07-24T13:16:16Z</time>
      </trkpt>
      <trkpt lat="45.78016" lon="6.69071">
        <ele>1906</ele>
        <time>2022-07-24T13:16:17Z</time>
      </trkpt>
      <trkpt lat="45.78015" lon="6.69072">
        <ele>1906</ele>
        <time>2022-07-24T13:16:18Z</time>
      </trkpt>
      <trkpt lat="45.78015" lon="6.69073">
        <ele>1905</ele>
        <time>2022-07-24T13:16:19Z</time>
      </trkpt>
      <trkpt lat="45.78014" lon="6.69074">
        <ele>1905</ele>
        <time>2022-07-24T13:16:20Z</time>
      </trkpt>
      <trkpt lat="45.78013" lon="6.69075">
        <ele>1905</ele>
        <time>2022-07-24T13:16:21Z</time>
      </trkpt>
      <trkpt lat="45.78012" lon="6.69075">
        <ele>1905</ele>
        <time>2022-07-24T13:16:22Z</time>
      </trkpt>
      <trkpt lat="45.78011" lon="6.69076">
        <ele>1905</ele>
        <time>2022-07-24T13:16:23Z</time>
      </trkpt>
      <trkpt lat="45.7801" lon="6.69077">
        <ele>1904</ele>
        <time>2022-07-24T13:16:24Z</time>
      </trkpt>
      <trkpt lat="45.78009" lon="6.69078">
        <ele>1904</ele>
        <time>2022-07-24T13:16:25Z</time>
      </trkpt>
      <trkpt lat="45.78008" lon="6.69079">
        <ele>1904</ele>
        <time>2022-07-24T13:16:26Z</time>
      </trkpt>
      <trkpt lat="45.78007" lon="6.6908">
        <ele>1904</ele>
        <time>2022-07-24T13:16:27Z</time>
      </trkpt>
      <trkpt lat="45.78006" lon="6.69081">
        <ele>1904</ele>
        <time>2022-07-24T13:16:28Z</time>
      </trkpt>
      <trkpt lat="45.78005" lon="6.69081">
        <ele>1903</ele>
        <time>2022-07-24T13:16:29Z</time>
      </trkpt>
      <trkpt lat="45.78004" lon="6.69082">
        <ele>1903</ele>
        <time>2022-07-24T13:16:30Z</time>
      </trkpt>
      <trkpt lat="45.78003" lon="6.69083">
        <ele>1903</ele>
        <time>2022-07-24T13:16:31Z</time>
      </trkpt>
      <trkpt lat="45.78002" lon="6.69084">
        <ele>1903</ele>
        <time>2022-07-24T13:16:32Z</time>
      </trkpt>
      <trkpt lat="45.78001" lon="6.69084">
        <ele>1903</ele>
        <time>2022-07-24T13:16:33Z</time>
      </trkpt>
      <trkpt lat="45.78" lon="6.69085">
        <ele>1902</ele>
        <time>2022-07-24T13:16:34Z</time>
      </trkpt>
      <trkpt lat="45.78" lon="6.69086">
        <ele>1902</ele>
        <time>2022-07-24T13:16:35Z</time>
      </trkpt>
      <trkpt lat="45.77999" lon="6.69087">
        <ele>1902</ele>
        <time>2022-07-24T13:16:36Z</time>
      </trkpt>
      <trkpt lat="45.77998" lon="6.69088">
        <ele>1902</ele>
        <time>2022-07-24T13:16:37Z</time>
      </trkpt>
      <trkpt lat="45.77997" lon="6.69089">
        <ele>1902</ele>
        <time>2022-07-24T13:16:38Z</time>
      </trkpt>
      <trkpt lat="45.77997" lon="6.6909">
        <ele>1901</ele>
        <time>2022-07-24T13:16:39Z</time>
      </trkpt>
      <trkpt lat="45.77997" lon="6.69091">
        <ele>1901</ele>
        <time>2022-07-24T13:16:40Z</time>
      </trkpt>
      <trkpt lat="45.77998" lon="6.69092">
        <ele>1901</ele>
        <time>2022-07-24T13:16:41Z</time>
      </trkpt>
      <trkpt lat="45.77998" lon="6.69093">
        <ele>1901</ele>
        <time>2022-07-24T13:16:42Z</time>
      </trkpt>
      <trkpt lat="45.77999" lon="6.69094">
        <ele>1901</ele>
        <time>2022-07-24T13:16:43Z</time>
      </trkpt>
      <trkpt lat="45.78" lon="6.69094">
        <ele>1900</ele>
        <time>2022-07-24T13:16:44Z</time>
      </trkpt>
      <trkpt lat="45.78001" lon="6.69095">
        <ele>1900</ele>
        <time>2022-07-24T13:16:45Z</time>
      </trkpt>
      <trkpt lat="45.78003" lon="6.69095">
        <ele>1899</ele>
        <time>2022-07-24T13:16:46Z</time>
      </trkpt>
      <trkpt lat="45.78004" lon="6.69095">
        <ele>1899</ele>
        <time>2022-07-24T13:16:47Z</time>
      </trkpt>
      <trkpt lat="45.78005" lon="6.69095">
        <ele>1899</ele>
        <time>2022-07-24T13:16:48Z</time>
      </trkpt>
      <trkpt lat="45.78006" lon="6.69095">
        <ele>1898</ele>
        <time>2022-07-24T13:16:49Z</time>
      </trkpt>
      <trkpt lat="45.78008" lon="6.69095">
        <ele>1898</ele>
        <time>2022-07-24T13:16:50Z</time>
      </trkpt>
      <trkpt lat="45.78009" lon="6.69095">
        <ele>1898</ele>
        <time>2022-07-24T13:16:51Z</time>
      </trkpt>
      <trkpt lat="45.7801" lon="6.69096">
        <ele>1898</ele>
        <time>2022-07-24T13:16:52Z</time>
      </trkpt>
      <trkpt lat="45.78011" lon="6.69096">
        <ele>1898</ele>
        <time>2022-07-24T13:16:53Z</time>
      </trkpt>
      <trkpt lat="45.78013" lon="6.69096">
        <ele>1897</ele>
        <time>2022-07-24T13:16:54Z</time>
      </trkpt>
      <trkpt lat="45.78014" lon="6.69097">
        <ele>1897</ele>
        <time>2022-07-24T13:16:55Z</time>
      </trkpt>
      <trkpt lat="45.78015" lon="6.69097">
        <ele>1897</ele>
        <time>2022-07-24T13:16:56Z</time>
      </trkpt>
      <trkpt lat="45.78016" lon="6.69098">
        <ele>1897</ele>
        <time>2022-07-24T13:16:57Z</time>
      </trkpt>
      <trkpt lat="45.78017" lon="6.69098">
        <ele>1897</ele>
        <time>2022-07-24T13:16:58Z</time>
      </trkpt>
      <trkpt lat="45.78018" lon="6.69099">
        <ele>1896</ele>
        <time>2022-07-24T13:16:59Z</time>
      </trkpt>
      <trkpt lat="45.78019" lon="6.69099">
        <ele>1896</ele>
        <time>2022-07-24T13:17:00Z</time>
      </trkpt>
      <trkpt lat="45.7802" lon="6.691">
        <ele>1896</ele>
        <time>2022-07-24T13:17:01Z</time>
      </trkpt>
      <trkpt lat="45.78021" lon="6.691">
        <ele>1896</ele>
        <time>2022-07-24T13:17:02Z</time>
      </trkpt>
      <trkpt lat="45.78022" lon="6.69101">
        <ele>1896</ele>
        <time>2022-07-24T13:17:03Z</time>
      </trkpt>
      <trkpt lat="45.78023" lon="6.69101">
        <ele>1895</ele>
        <time>2022-07-24T13:17:04Z</time>
      </trkpt>
      <trkpt lat="45.78024" lon="6.69102">
        <ele>1895</ele>
        <time>2022-07-24T13:17:05Z</time>
      </trkpt>
      <trkpt lat="45.78025" lon="6.69102">
        <ele>1895</ele>
        <time>2022-07-24T13:17:06Z</time>
      </trkpt>
      <trkpt lat="45.78027" lon="6.69102">
        <ele>1895</ele>
        <time>2022-07-24T13:17:07Z</time>
      </trkpt>
      <trkpt lat="45.78028" lon="6.69102">
        <ele>1895</ele>
        <time>2022-07-24T13:17:08Z</time>
      </trkpt>
      <trkpt lat="45.78029" lon="6.69102">
        <ele>1894</ele>
        <time>2022-07-24T13:17:09Z</time>
      </trkpt>
      <trkpt lat="45.7803" lon="6.69102">
        <ele>1894</ele>
        <time>2022-07-24T13:17:10Z</time>
      </trkpt>
      <trkpt lat="45.78031" lon="6.69102">
        <ele>1894</ele>
        <time>2022-07-24T13:17:11Z</time>
      </trkpt>
      <trkpt lat="45.78032" lon="6.69102">
        <ele>1894</ele>
        <time>2022-07-24T13:17:12Z</time>
      </trkpt>
      <trkpt lat="45.78033" lon="6.69102">
        <ele>1894</ele>
        <time>2022-07-24T13:17:13Z</time>
      </trkpt>
      <trkpt lat="45.78034" lon="6.69102">
        <ele>1893</ele>
        <time>2022-07-24T13:17:14Z</time>
      </trkpt>
      <trkpt lat="45.78035" lon="6.69103">
        <ele>1893</ele>
        <time>2022-07-24T13:17:15Z</time>
      </trkpt>
      <trkpt lat="45.78036" lon="6.69104">
        <ele>1893</ele>
        <time>2022-07-24T13:17:16Z</time>
      </trkpt>
      <trkpt lat="45.78036" lon="6.69105">
        <ele>1893</ele>
        <time>2022-07-24T13:17:17Z</time>
      </trkpt>
      <trkpt lat="45.78036" lon="6.69106">
        <ele>1893</ele>
        <time>2022-07-24T13:17:18Z</time>
      </trkpt>
      <trkpt lat="45.78035" lon="6.69108">
        <ele>1892</ele>
        <time>2022-07-24T13:17:19Z</time>
      </trkpt>
      <trkpt lat="45.78035" lon="6.69109">
        <ele>1892</ele>
        <time>2022-07-24T13:17:20Z</time>
      </trkpt>
      <trkpt lat="45.78034" lon="6.6911">
        <ele>1892</ele>
        <time>2022-07-24T13:17:21Z</time>
      </trkpt>
      <trkpt lat="45.78033" lon="6.69111">
        <ele>1892</ele>
        <time>2022-07-24T13:17:22Z</time>
      </trkpt>
      <trkpt lat="45.78032" lon="6.69112">
        <ele>1892</ele>
        <time>2022-07-24T13:17:23Z</time>
      </trkpt>
      <trkpt lat="45.78031" lon="6.69112">
        <ele>1891</ele>
        <time>2022-07-24T13:17:24Z</time>
      </trkpt>
      <trkpt lat="45.7803" lon="6.69113">
        <ele>1891</ele>
        <time>2022-07-24T13:17:25Z</time>
      </trkpt>
      <trkpt lat="45.78029" lon="6.69114">
        <ele>1891</ele>
        <time>2022-07-24T13:17:26Z</time>
      </trkpt>
      <trkpt lat="45.78029" lon="6.69115">
        <ele>1891</ele>
        <time>2022-07-24T13:17:27Z</time>
      </trkpt>
      <trkpt lat="45.78028" lon="6.69116">
        <ele>1891</ele>
        <time>2022-07-24T13:17:28Z</time>
      </trkpt>
      <trkpt lat="45.78027" lon="6.69117">
        <ele>1890</ele>
        <time>2022-07-24T13:17:29Z</time>
      </trkpt>
      <trkpt lat="45.78026" lon="6.69118">
        <ele>1890</ele>
        <time>2022-07-24T13:17:30Z</time>
      </trkpt>
      <trkpt lat="45.78025" lon="6.69119">
        <ele>1889</ele>
        <time>2022-07-24T13:17:31Z</time>
      </trkpt>
      <trkpt lat="45.78024" lon="6.6912">
        <ele>1889</ele>
        <time>2022-07-24T13:17:32Z</time>
      </trkpt>
      <trkpt lat="45.78024" lon="6.69121">
        <ele>1889</ele>
        <time>2022-07-24T13:17:33Z</time>
      </trkpt>
      <trkpt lat="45.78023" lon="6.69122">
        <ele>1888</ele>
        <time>2022-07-24T13:17:34Z</time>
      </trkpt>
      <trkpt lat="45.78023" lon="6.69124">
        <ele>1888</ele>
        <time>2022-07-24T13:17:35Z</time>
      </trkpt>
      <trkpt lat="45.78022" lon="6.69125">
        <ele>1888</ele>
        <time>2022-07-24T13:17:36Z</time>
      </trkpt>
      <trkpt lat="45.78022" lon="6.69126">
        <ele>1888</ele>
        <time>2022-07-24T13:17:37Z</time>
      </trkpt>
      <trkpt lat="45.78022" lon="6.69128">
        <ele>1888</ele>
        <time>2022-07-24T13:17:38Z</time>
      </trkpt>
      <trkpt lat="45.78022" lon="6.69129">
        <ele>1887</ele>
        <time>2022-07-24T13:17:39Z</time>
      </trkpt>
      <trkpt lat="45.78023" lon="6.69131">
        <ele>1887</ele>
        <time>2022-07-24T13:17:40Z</time>
      </trkpt>
      <trkpt lat="45.78023" lon="6.69132">
        <ele>1887</ele>
        <time>2022-07-24T13:17:41Z</time>
      </trkpt>
      <trkpt lat="45.78024" lon="6.69134">
        <ele>1887</ele>
        <time>2022-07-24T13:17:42Z</time>
      </trkpt>
      <trkpt lat="45.78025" lon="6.69134">
        <ele>1887</ele>
        <time>2022-07-24T13:17:43Z</time>
      </trkpt>
      <trkpt lat="45.78026" lon="6.69135">
        <ele>1886</ele>
        <time>2022-07-24T13:17:44Z</time>
      </trkpt>
      <trkpt lat="45.78027" lon="6.69136">
        <ele>1886</ele>
        <time>2022-07-24T13:17:45Z</time>
      </trkpt>
      <trkpt lat="45.78028" lon="6.69136">
        <ele>1886</ele>
        <time>2022-07-24T13:17:46Z</time>
      </trkpt>
      <trkpt lat="45.78029" lon="6.69137">
        <ele>1886</ele>
        <time>2022-07-24T13:17:47Z</time>
      </trkpt>
      <trkpt lat="45.78031" lon="6.69137">
        <ele>1886</ele>
        <time>2022-07-24T13:17:48Z</time>
      </trkpt>
      <trkpt lat="45.78032" lon="6.69137">
        <ele>1885</ele>
        <time>2022-07-24T13:17:49Z</time>
      </trkpt>
      <trkpt lat="45.78033" lon="6.69138">
        <ele>1885</ele>
        <time>2022-07-24T13:17:50Z</time>
      </trkpt>
      <trkpt lat="45.78034" lon="6.69138">
        <ele>1885</ele>
        <time>2022-07-24T13:17:51Z</time>
      </trkpt>
      <trkpt lat="45.78035" lon="6.69139">
        <ele>1885</ele>
        <time>2022-07-24T13:17:52Z</time>
      </trkpt>
      <trkpt lat="45.78037" lon="6.69139">
        <ele>1885</ele>
        <time>2022-07-24T13:17:53Z</time>
      </trkpt>
      <trkpt lat="45.78038" lon="6.6914">
        <ele>1884</ele>
        <time>2022-07-24T13:17:54Z</time>
      </trkpt>
      <trkpt lat="45.78039" lon="6.6914">
        <ele>1884</ele>
        <time>2022-07-24T13:17:55Z</time>
      </trkpt>
      <trkpt lat="45.7804" lon="6.69141">
        <ele>1884</ele>
        <time>2022-07-24T13:17:56Z</time>
      </trkpt>
      <trkpt lat="45.78041" lon="6.69141">
        <ele>1884</ele>
        <time>2022-07-24T13:17:57Z</time>
      </trkpt>
      <trkpt lat="45.78042" lon="6.69142">
        <ele>1884</ele>
        <time>2022-07-24T13:17:58Z</time>
      </trkpt>
      <trkpt lat="45.78043" lon="6.69142">
        <ele>1884</ele>
        <time>2022-07-24T13:17:59Z</time>
      </trkpt>
      <trkpt lat="45.78044" lon="6.69143">
        <ele>1884</ele>
        <time>2022-07-24T13:18:00Z</time>
      </trkpt>
      <trkpt lat="45.78045" lon="6.69143">
        <ele>1884</ele>
        <time>2022-07-24T13:18:01Z</time>
      </trkpt>
      <trkpt lat="45.78046" lon="6.69144">
        <ele>1884</ele>
        <time>2022-07-24T13:18:02Z</time>
      </trkpt>
      <trkpt lat="45.78047" lon="6.69145">
        <ele>1884</ele>
        <time>2022-07-24T13:18:03Z</time>
      </trkpt>
      <trkpt lat="45.78048" lon="6.69145">
        <ele>1883</ele>
        <time>2022-07-24T13:18:04Z</time>
      </trkpt>
      <trkpt lat="45.78049" lon="6.69146">
        <ele>1883</ele>
        <time>2022-07-24T13:18:05Z</time>
      </trkpt>
      <trkpt lat="45.7805" lon="6.69147">
        <ele>1883</ele>
        <time>2022-07-24T13:18:06Z</time>
      </trkpt>
      <trkpt lat="45.78051" lon="6.69148">
        <ele>1883</ele>
        <time>2022-07-24T13:18:07Z</time>
      </trkpt>
      <trkpt lat="45.78052" lon="6.69148">
        <ele>1883</ele>
        <time>2022-07-24T13:18:08Z</time>
      </trkpt>
      <trkpt lat="45.78053" lon="6.69149">
        <ele>1882</ele>
        <time>2022-07-24T13:18:09Z</time>
      </trkpt>
      <trkpt lat="45.78055" lon="6.6915">
        <ele>1882</ele>
        <time>2022-07-24T13:18:10Z</time>
      </trkpt>
      <trkpt lat="45.78056" lon="6.6915">
        <ele>1881</ele>
        <time>2022-07-24T13:18:11Z</time>
      </trkpt>
      <trkpt lat="45.78057" lon="6.69151">
        <ele>1881</ele>
        <time>2022-07-24T13:18:12Z</time>
      </trkpt>
      <trkpt lat="45.78058" lon="6.69151">
        <ele>1881</ele>
        <time>2022-07-24T13:18:13Z</time>
      </trkpt>
      <trkpt lat="45.78059" lon="6.69151">
        <ele>1880</ele>
        <time>2022-07-24T13:18:14Z</time>
      </trkpt>
      <trkpt lat="45.7806" lon="6.69152">
        <ele>1880</ele>
        <time>2022-07-24T13:18:15Z</time>
      </trkpt>
      <trkpt lat="45.78061" lon="6.69152">
        <ele>1880</ele>
        <time>2022-07-24T13:18:16Z</time>
      </trkpt>
      <trkpt lat="45.78062" lon="6.69152">
        <ele>1880</ele>
        <time>2022-07-24T13:18:17Z</time>
      </trkpt>
      <trkpt lat="45.78063" lon="6.69152">
        <ele>1880</ele>
        <time>2022-07-24T13:18:18Z</time>
      </trkpt>
      <trkpt lat="45.78064" lon="6.69152">
        <ele>1879</ele>
        <time>2022-07-24T13:18:19Z</time>
      </trkpt>
      <trkpt lat="45.78065" lon="6.69152">
        <ele>1879</ele>
        <time>2022-07-24T13:18:20Z</time>
      </trkpt>
      <trkpt lat="45.78066" lon="6.69151">
        <ele>1879</ele>
        <time>2022-07-24T13:18:21Z</time>
      </trkpt>
      <trkpt lat="45.78067" lon="6.69151">
        <ele>1879</ele>
        <time>2022-07-24T13:18:22Z</time>
      </trkpt>
      <trkpt lat="45.78068" lon="6.69151">
        <ele>1879</ele>
        <time>2022-07-24T13:18:23Z</time>
      </trkpt>
      <trkpt lat="45.7807" lon="6.69151">
        <ele>1878</ele>
        <time>2022-07-24T13:18:24Z</time>
      </trkpt>
      <trkpt lat="45.78071" lon="6.6915">
        <ele>1878</ele>
        <time>2022-07-24T13:18:25Z</time>
      </trkpt>
      <trkpt lat="45.78072" lon="6.6915">
        <ele>1877</ele>
        <time>2022-07-24T13:18:26Z</time>
      </trkpt>
      <trkpt lat="45.78073" lon="6.6915">
        <ele>1877</ele>
        <time>2022-07-24T13:18:27Z</time>
      </trkpt>
      <trkpt lat="45.78075" lon="6.69149">
        <ele>1877</ele>
        <time>2022-07-24T13:18:28Z</time>
      </trkpt>
      <trkpt lat="45.78076" lon="6.69149">
        <ele>1876</ele>
        <time>2022-07-24T13:18:29Z</time>
      </trkpt>
      <trkpt lat="45.78077" lon="6.69149">
        <ele>1876</ele>
        <time>2022-07-24T13:18:30Z</time>
      </trkpt>
      <trkpt lat="45.78078" lon="6.69149">
        <ele>1876</ele>
        <time>2022-07-24T13:18:31Z</time>
      </trkpt>
      <trkpt lat="45.7808" lon="6.69149">
        <ele>1876</ele>
        <time>2022-07-24T13:18:32Z</time>
      </trkpt>
      <trkpt lat="45.78081" lon="6.69149">
        <ele>1876</ele>
        <time>2022-07-24T13:18:33Z</time>
      </trkpt>
      <trkpt lat="45.78082" lon="6.69149">
        <ele>1875</ele>
        <time>2022-07-24T13:18:34Z</time>
      </trkpt>
      <trkpt lat="45.78083" lon="6.69149">
        <ele>1875</ele>
        <time>2022-07-24T13:18:35Z</time>
      </trkpt>
      <trkpt lat="45.78084" lon="6.69149">
        <ele>1875</ele>
        <time>2022-07-24T13:18:36Z</time>
      </trkpt>
      <trkpt lat="45.78085" lon="6.69149">
        <ele>1875</ele>
        <time>2022-07-24T13:18:37Z</time>
      </trkpt>
      <trkpt lat="45.78086" lon="6.69149">
        <ele>1875</ele>
        <time>2022-07-24T13:18:38Z</time>
      </trkpt>
      <trkpt lat="45.78088" lon="6.69149">
        <ele>1874</ele>
        <time>2022-07-24T13:18:39Z</time>
      </trkpt>
      <trkpt lat="45.78089" lon="6.69149">
        <ele>1874</ele>
        <time>2022-07-24T13:18:40Z</time>
      </trkpt>
      <trkpt lat="45.7809" lon="6.69149">
        <ele>1874</ele>
        <time>2022-07-24T13:18:41Z</time>
      </trkpt>
      <trkpt lat="45.78091" lon="6.69149">
        <ele>1874</ele>
        <time>2022-07-24T13:18:42Z</time>
      </trkpt>
      <trkpt lat="45.78092" lon="6.69149">
        <ele>1874</ele>
        <time>2022-07-24T13:18:43Z</time>
      </trkpt>
      <trkpt lat="45.78094" lon="6.6915">
        <ele>1874</ele>
        <time>2022-07-24T13:18:44Z</time>
      </trkpt>
      <trkpt lat="45.78095" lon="6.6915">
        <ele>1874</ele>
        <time>2022-07-24T13:18:45Z</time>
      </trkpt>
      <trkpt lat="45.78096" lon="6.6915">
        <ele>1874</ele>
        <time>2022-07-24T13:18:46Z</time>
      </trkpt>
      <trkpt lat="45.78097" lon="6.6915">
        <ele>1874</ele>
        <time>2022-07-24T13:18:47Z</time>
      </trkpt>
      <trkpt lat="45.78098" lon="6.6915">
        <ele>1874</ele>
        <time>2022-07-24T13:18:48Z</time>
      </trkpt>
      <trkpt lat="45.781" lon="6.69151">
        <ele>1873</ele>
        <time>2022-07-24T13:18:49Z</time>
      </trkpt>
      <trkpt lat="45.78101" lon="6.69151">
        <ele>1873</ele>
        <time>2022-07-24T13:18:50Z</time>
      </trkpt>
      <trkpt lat="45.78102" lon="6.69151">
        <ele>1873</ele>
        <time>2022-07-24T13:18:51Z</time>
      </trkpt>
      <trkpt lat="45.78103" lon="6.69151">
        <ele>1873</ele>
        <time>2022-07-24T13:18:52Z</time>
      </trkpt>
      <trkpt lat="45.78104" lon="6.69151">
        <ele>1873</ele>
        <time>2022-07-24T13:18:53Z</time>
      </trkpt>
      <trkpt lat="45.78105" lon="6.69151">
        <ele>1873</ele>
        <time>2022-07-24T13:18:54Z</time>
      </trkpt>
      <trkpt lat="45.78107" lon="6.69152">
        <ele>1873</ele>
        <time>2022-07-24T13:18:55Z</time>
      </trkpt>
      <trkpt lat="45.78108" lon="6.69152">
        <ele>1873</ele>
        <time>2022-07-24T13:18:56Z</time>
      </trkpt>
      <trkpt lat="45.78109" lon="6.69152">
        <ele>1873</ele>
        <time>2022-07-24T13:18:57Z</time>
      </trkpt>
      <trkpt lat="45.7811" lon="6.69152">
        <ele>1873</ele>
        <time>2022-07-24T13:18:58Z</time>
      </trkpt>
      <trkpt lat="45.78111" lon="6.69152">
        <ele>1872</ele>
        <time>2022-07-24T13:18:59Z</time>
      </trkpt>
      <trkpt lat="45.78112" lon="6.69153">
        <ele>1872</ele>
        <time>2022-07-24T13:19:00Z</time>
      </trkpt>
      <trkpt lat="45.78113" lon="6.69153">
        <ele>1872</ele>
        <time>2022-07-24T13:19:01Z</time>
      </trkpt>
      <trkpt lat="45.78114" lon="6.69154">
        <ele>1872</ele>
        <time>2022-07-24T13:19:02Z</time>
      </trkpt>
      <trkpt lat="45.78115" lon="6.69155">
        <ele>1872</ele>
        <time>2022-07-24T13:19:03Z</time>
      </trkpt>
      <trkpt lat="45.78116" lon="6.69155">
        <ele>1872</ele>
        <time>2022-07-24T13:19:04Z</time>
      </trkpt>
      <trkpt lat="45.78117" lon="6.69156">
        <ele>1872</ele>
        <time>2022-07-24T13:19:05Z</time>
      </trkpt>
      <trkpt lat="45.78117" lon="6.69157">
        <ele>1872</ele>
        <time>2022-07-24T13:19:06Z</time>
      </trkpt>
      <trkpt lat="45.78118" lon="6.69157">
        <ele>1872</ele>
        <time>2022-07-24T13:19:07Z</time>
      </trkpt>
      <trkpt lat="45.78119" lon="6.69158">
        <ele>1872</ele>
        <time>2022-07-24T13:19:08Z</time>
      </trkpt>
      <trkpt lat="45.7812" lon="6.69158">
        <ele>1871</ele>
        <time>2022-07-24T13:19:09Z</time>
      </trkpt>
      <trkpt lat="45.78122" lon="6.69159">
        <ele>1871</ele>
        <time>2022-07-24T13:19:10Z</time>
      </trkpt>
      <trkpt lat="45.78122" lon="6.6916">
        <ele>1871</ele>
        <time>2022-07-24T13:19:11Z</time>
      </trkpt>
      <trkpt lat="45.78123" lon="6.69161">
        <ele>1871</ele>
        <time>2022-07-24T13:19:12Z</time>
      </trkpt>
      <trkpt lat="45.78124" lon="6.69162">
        <ele>1871</ele>
        <time>2022-07-24T13:19:13Z</time>
      </trkpt>
      <trkpt lat="45.78124" lon="6.69163">
        <ele>1870</ele>
        <time>2022-07-24T13:19:14Z</time>
      </trkpt>
      <trkpt lat="45.78124" lon="6.69164">
        <ele>1870</ele>
        <time>2022-07-24T13:19:15Z</time>
      </trkpt>
      <trkpt lat="45.78124" lon="6.69166">
        <ele>1870</ele>
        <time>2022-07-24T13:19:16Z</time>
      </trkpt>
      <trkpt lat="45.78124" lon="6.69167">
        <ele>1870</ele>
        <time>2022-07-24T13:19:17Z</time>
      </trkpt>
      <trkpt lat="45.78124" lon="6.69168">
        <ele>1870</ele>
        <time>2022-07-24T13:19:18Z</time>
      </trkpt>
      <trkpt lat="45.78124" lon="6.6917">
        <ele>1870</ele>
        <time>2022-07-24T13:19:19Z</time>
      </trkpt>
      <trkpt lat="45.78123" lon="6.69171">
        <ele>1870</ele>
        <time>2022-07-24T13:19:20Z</time>
      </trkpt>
      <trkpt lat="45.78122" lon="6.69172">
        <ele>1869</ele>
        <time>2022-07-24T13:19:59Z</time>
      </trkpt>
      <trkpt lat="45.78122" lon="6.69173">
        <ele>1869</ele>
        <time>2022-07-24T13:20:00Z</time>
      </trkpt>
      <trkpt lat="45.78121" lon="6.69173">
        <ele>1869</ele>
        <time>2022-07-24T13:20:01Z</time>
      </trkpt>
      <trkpt lat="45.7812" lon="6.69174">
        <ele>1869</ele>
        <time>2022-07-24T13:20:02Z</time>
      </trkpt>
      <trkpt lat="45.7812" lon="6.69174">
        <ele>1869</ele>
        <time>2022-07-24T13:20:03Z</time>
      </trkpt>
      <trkpt lat="45.78119" lon="6.69175">
        <ele>1869</ele>
        <time>2022-07-24T13:20:18Z</time>
      </trkpt>
      <trkpt lat="45.78118" lon="6.69175">
        <ele>1868</ele>
        <time>2022-07-24T13:20:19Z</time>
      </trkpt>
      <trkpt lat="45.78118" lon="6.69176">
        <ele>1868</ele>
        <time>2022-07-24T13:20:20Z</time>
      </trkpt>
      <trkpt lat="45.78117" lon="6.69176">
        <ele>1868</ele>
        <time>2022-07-24T13:20:21Z</time>
      </trkpt>
      <trkpt lat="45.78117" lon="6.69176">
        <ele>1868</ele>
        <time>2022-07-24T13:20:22Z</time>
      </trkpt>
      <trkpt lat="45.78116" lon="6.69175">
        <ele>1868</ele>
        <time>2022-07-24T13:20:23Z</time>
      </trkpt>
      <trkpt lat="45.78116" lon="6.69175">
        <ele>1868</ele>
        <time>2022-07-24T13:20:24Z</time>
      </trkpt>
      <trkpt lat="45.78115" lon="6.69175">
        <ele>1868</ele>
        <time>2022-07-24T13:20:25Z</time>
      </trkpt>
      <trkpt lat="45.78115" lon="6.69174">
        <ele>1868</ele>
        <time>2022-07-24T13:20:26Z</time>
      </trkpt>
      <trkpt lat="45.78114" lon="6.69174">
        <ele>1868</ele>
        <time>2022-07-24T13:20:27Z</time>
      </trkpt>
      <trkpt lat="45.78114" lon="6.69172">
        <ele>1869</ele>
        <time>2022-07-24T13:22:03Z</time>
      </trkpt>
      <trkpt lat="45.78114" lon="6.69172">
        <ele>1869</ele>
        <time>2022-07-24T13:22:04Z</time>
      </trkpt>
      <trkpt lat="45.78114" lon="6.69172">
        <ele>1869</ele>
        <time>2022-07-24T13:22:05Z</time>
      </trkpt>
      <trkpt lat="45.78115" lon="6.69172">
        <ele>1869</ele>
        <time>2022-07-24T13:22:06Z</time>
      </trkpt>
      <trkpt lat="45.78115" lon="6.69172">
        <ele>1869</ele>
        <time>2022-07-24T13:22:07Z</time>
      </trkpt>
      <trkpt lat="45.78115" lon="6.69173">
        <ele>1869</ele>
        <time>2022-07-24T13:22:08Z</time>
      </trkpt>
      <trkpt lat="45.78115" lon="6.69174">
        <ele>1868</ele>
        <time>2022-07-24T13:22:09Z</time>
      </trkpt>
      <trkpt lat="45.78114" lon="6.69174">
        <ele>1868</ele>
        <time>2022-07-24T13:22:10Z</time>
      </trkpt>
      <trkpt lat="45.78114" lon="6.69175">
        <ele>1868</ele>
        <time>2022-07-24T13:22:11Z</time>
      </trkpt>
      <trkpt lat="45.78113" lon="6.69174">
        <ele>1868</ele>
        <time>2022-07-24T13:22:12Z</time>
      </trkpt>
      <trkpt lat="45.78113" lon="6.69174">
        <ele>1868</ele>
        <time>2022-07-24T13:22:13Z</time>
      </trkpt>
      <trkpt lat="45.78111" lon="6.69173">
        <ele>1868</ele>
        <time>2022-07-24T13:22:14Z</time>
      </trkpt>
      <trkpt lat="45.7811" lon="6.69173">
        <ele>1868</ele>
        <time>2022-07-24T13:22:15Z</time>
      </trkpt>
      <trkpt lat="45.78109" lon="6.69172">
        <ele>1868</ele>
        <time>2022-07-24T13:22:16Z</time>
      </trkpt>
      <trkpt lat="45.78108" lon="6.69172">
        <ele>1868</ele>
        <time>2022-07-24T13:22:17Z</time>
      </trkpt>
      <trkpt lat="45.78107" lon="6.69171">
        <ele>1869</ele>
        <time>2022-07-24T13:22:18Z</time>
      </trkpt>
      <trkpt lat="45.78106" lon="6.69171">
        <ele>1869</ele>
        <time>2022-07-24T13:22:19Z</time>
      </trkpt>
      <trkpt lat="45.78105" lon="6.69172">
        <ele>1869</ele>
        <time>2022-07-24T13:22:20Z</time>
      </trkpt>
      <trkpt lat="45.78104" lon="6.69172">
        <ele>1869</ele>
        <time>2022-07-24T13:22:21Z</time>
      </trkpt>
      <trkpt lat="45.78104" lon="6.69173">
        <ele>1869</ele>
        <time>2022-07-24T13:22:36Z</time>
      </trkpt>
      <trkpt lat="45.78104" lon="6.69173">
        <ele>1869</ele>
        <time>2022-07-24T13:22:37Z</time>
      </trkpt>
      <trkpt lat="45.78105" lon="6.69174">
        <ele>1869</ele>
        <time>2022-07-24T13:22:38Z</time>
      </trkpt>
      <trkpt lat="45.78106" lon="6.69174">
        <ele>1868</ele>
        <time>2022-07-24T13:22:39Z</time>
      </trkpt>
      <trkpt lat="45.78107" lon="6.69175">
        <ele>1868</ele>
        <time>2022-07-24T13:22:40Z</time>
      </trkpt>
      <trkpt lat="45.78108" lon="6.69176">
        <ele>1868</ele>
        <time>2022-07-24T13:22:41Z</time>
      </trkpt>
      <trkpt lat="45.7811" lon="6.69177">
        <ele>1868</ele>
        <time>2022-07-24T13:22:42Z</time>
      </trkpt>
      <trkpt lat="45.78111" lon="6.69179">
        <ele>1868</ele>
        <time>2022-07-24T13:22:43Z</time>
      </trkpt>
      <trkpt lat="45.78112" lon="6.6918">
        <ele>1868</ele>
        <time>2022-07-24T13:22:44Z</time>
      </trkpt>
      <trkpt lat="45.78112" lon="6.69181">
        <ele>1868</ele>
        <time>2022-07-24T13:22:45Z</time>
      </trkpt>
      <trkpt lat="45.78113" lon="6.69182">
        <ele>1868</ele>
        <time>2022-07-24T13:22:46Z</time>
      </trkpt>
      <trkpt lat="45.78113" lon="6.69183">
        <ele>1868</ele>
        <time>2022-07-24T13:22:47Z</time>
      </trkpt>
      <trkpt lat="45.78113" lon="6.69185">
        <ele>1868</ele>
        <time>2022-07-24T13:22:48Z</time>
      </trkpt>
      <trkpt lat="45.78112" lon="6.69185">
        <ele>1868</ele>
        <time>2022-07-24T13:22:49Z</time>
      </trkpt>
      <trkpt lat="45.78111" lon="6.69186">
        <ele>1868</ele>
        <time>2022-07-24T13:22:50Z</time>
      </trkpt>
      <trkpt lat="45.78109" lon="6.69187">
        <ele>1868</ele>
        <time>2022-07-24T13:22:51Z</time>
      </trkpt>
      <trkpt lat="45.78108" lon="6.69187">
        <ele>1868</ele>
        <time>2022-07-24T13:22:52Z</time>
      </trkpt>
      <trkpt lat="45.78107" lon="6.69187">
        <ele>1868</ele>
        <time>2022-07-24T13:22:53Z</time>
      </trkpt>
      <trkpt lat="45.78106" lon="6.69187">
        <ele>1868</ele>
        <time>2022-07-24T13:22:54Z</time>
      </trkpt>
      <trkpt lat="45.78105" lon="6.69186">
        <ele>1868</ele>
        <time>2022-07-24T13:22:55Z</time>
      </trkpt>
      <trkpt lat="45.78104" lon="6.69186">
        <ele>1868</ele>
        <time>2022-07-24T13:22:56Z</time>
      </trkpt>
      <trkpt lat="45.78104" lon="6.69185">
        <ele>1868</ele>
        <time>2022-07-24T13:22:57Z</time>
      </trkpt>
      <trkpt lat="45.78103" lon="6.69185">
        <ele>1868</ele>
        <time>2022-07-24T13:22:58Z</time>
      </trkpt>
      <trkpt lat="45.78103" lon="6.69184">
        <ele>1869</ele>
        <time>2022-07-24T13:23:06Z</time>
      </trkpt>
      <trkpt lat="45.78103" lon="6.69184">
        <ele>1869</ele>
        <time>2022-07-24T13:23:07Z</time>
      </trkpt>
      <trkpt lat="45.78102" lon="6.69184">
        <ele>1869</ele>
        <time>2022-07-24T13:23:08Z</time>
      </trkpt>
      <trkpt lat="45.78103" lon="6.69185">
        <ele>1869</ele>
        <time>2022-07-24T13:23:09Z</time>
      </trkpt>
      <trkpt lat="45.78103" lon="6.69186">
        <ele>1869</ele>
        <time>2022-07-24T13:23:10Z</time>
      </trkpt>
      <trkpt lat="45.78108" lon="6.69184">
        <ele>1868</ele>
        <time>2022-07-24T13:25:13Z</time>
      </trkpt>
      <trkpt lat="45.7811" lon="6.69182">
        <ele>1868</ele>
        <time>2022-07-24T13:25:14Z</time>
      </trkpt>
      <trkpt lat="45.78111" lon="6.69181">
        <ele>1868</ele>
        <time>2022-07-24T13:25:15Z</time>
      </trkpt>
      <trkpt lat="45.78111" lon="6.6918">
        <ele>1868</ele>
        <time>2022-07-24T13:25:16Z</time>
      </trkpt>
      <trkpt lat="45.7811" lon="6.6918">
        <ele>1868</ele>
        <time>2022-07-24T13:25:17Z</time>
      </trkpt>
      <trkpt lat="45.78109" lon="6.6918">
        <ele>1868</ele>
        <time>2022-07-24T13:25:18Z</time>
      </trkpt>
      <trkpt lat="45.78108" lon="6.6918">
        <ele>1868</ele>
        <time>2022-07-24T13:25:19Z</time>
      </trkpt>
      <trkpt lat="45.78107" lon="6.69181">
        <ele>1868</ele>
        <time>2022-07-24T13:25:20Z</time>
      </trkpt>
      <trkpt lat="45.78105" lon="6.69181">
        <ele>1868</ele>
        <time>2022-07-24T13:25:21Z</time>
      </trkpt>
      <trkpt lat="45.78104" lon="6.69181">
        <ele>1868</ele>
        <time>2022-07-24T13:25:22Z</time>
      </trkpt>
      <trkpt lat="45.78103" lon="6.69181">
        <ele>1868</ele>
        <time>2022-07-24T13:25:23Z</time>
      </trkpt>
      <trkpt lat="45.78103" lon="6.69181">
        <ele>1868</ele>
        <time>2022-07-24T13:25:24Z</time>
      </trkpt>
      <trkpt lat="45.78102" lon="6.69181">
        <ele>1868</ele>
        <time>2022-07-24T13:25:25Z</time>
      </trkpt>
      <trkpt lat="45.781" lon="6.69181">
        <ele>1868</ele>
        <time>2022-07-24T13:25:31Z</time>
      </trkpt>
      <trkpt lat="45.781" lon="6.69182">
        <ele>1868</ele>
        <time>2022-07-24T13:25:32Z</time>
      </trkpt>
      <trkpt lat="45.78101" lon="6.69183">
        <ele>1868</ele>
        <time>2022-07-24T13:25:33Z</time>
      </trkpt>
      <trkpt lat="45.78103" lon="6.69183">
        <ele>1868</ele>
        <time>2022-07-24T13:25:34Z</time>
      </trkpt>
      <trkpt lat="45.78105" lon="6.69183">
        <ele>1868</ele>
        <time>2022-07-24T13:25:35Z</time>
      </trkpt>
      <trkpt lat="45.78106" lon="6.69183">
        <ele>1868</ele>
        <time>2022-07-24T13:25:36Z</time>
      </trkpt>
      <trkpt lat="45.78108" lon="6.69182">
        <ele>1868</ele>
        <time>2022-07-24T13:25:37Z</time>
      </trkpt>
      <trkpt lat="45.78109" lon="6.69181">
        <ele>1868</ele>
        <time>2022-07-24T13:25:38Z</time>
      </trkpt>
      <trkpt lat="45.78111" lon="6.69179">
        <ele>1868</ele>
        <time>2022-07-24T13:25:39Z</time>
      </trkpt>
      <trkpt lat="45.78111" lon="6.69178">
        <ele>1868</ele>
        <time>2022-07-24T13:25:40Z</time>
      </trkpt>
      <trkpt lat="45.78112" lon="6.69177">
        <ele>1868</ele>
        <time>2022-07-24T13:25:41Z</time>
      </trkpt>
      <trkpt lat="45.78112" lon="6.69174">
        <ele>1868</ele>
        <time>2022-07-24T13:25:42Z</time>
      </trkpt>
      <trkpt lat="45.78112" lon="6.69172">
        <ele>1868</ele>
        <time>2022-07-24T13:25:43Z</time>
      </trkpt>
    </trkseg>
  </trk>
</gpx>